<?xml version='1.0' encoding='UTF-8'?><gpx version="1.1" creator="JPX - https://github.com/jenetics/jpx" xmlns="http://www.topografix.com/GPX/1/1"><trk><trkseg><trkpt lat="43.0667382" lon="12.6198584"><ele>406.0</ele><time>2026-03-24T08:49:30.484Z</time></trkpt><trkpt lat="43.0666874" lon="12.6199506"><ele>406.0</ele><time>2026-03-24T08:49:31.484Z</time></trkpt><trkpt lat="43.0666501" lon="12.6200518"><ele>406.0</ele><time>2026-03-24T08:49:32.484Z</time></trkpt><trkpt lat="43.0666161" lon="12.6201549"><ele>406.0</ele><time>2026-03-24T08:49:33.485Z</time></trkpt><trkpt lat="43.0665903" lon="12.6203245"><ele>406.0</ele><time>2026-03-24T08:49:34.484Z</time></trkpt><trkpt lat="43.0665725" lon="12.6205118"><ele>402.0</ele><time>2026-03-24T08:49:35.483Z</time></trkpt><trkpt lat="43.0665549" lon="12.6206994"><ele>398.0</ele><time>2026-03-24T08:49:36.485Z</time></trkpt><trkpt lat="43.0665678" lon="12.6209271"><ele>394.0</ele><time>2026-03-24T08:49:37.483Z</time></trkpt><trkpt lat="43.0665919" lon="12.6210958"><ele>390.0</ele><time>2026-03-24T08:49:38.484Z</time></trkpt><trkpt lat="43.0666049" lon="12.6213064"><ele>395.66666666666663</ele><time>2026-03-24T08:49:39.484Z</time></trkpt><trkpt lat="43.0666779" lon="12.6215087"><ele>401.3333333333333</ele><time>2026-03-24T08:49:40.484Z</time></trkpt><trkpt lat="43.0667312" lon="12.621712"><ele>407.0</ele><time>2026-03-24T08:49:41.484Z</time></trkpt><trkpt lat="43.066831" lon="12.6219141"><ele>406.75</ele><time>2026-03-24T08:49:42.485Z</time></trkpt><trkpt lat="43.0669135" lon="12.6220954"><ele>406.5</ele><time>2026-03-24T08:49:43.484Z</time></trkpt><trkpt lat="43.0669991" lon="12.6222846"><ele>406.25</ele><time>2026-03-24T08:49:44.483Z</time></trkpt><trkpt lat="43.0670709" lon="12.6224289"><ele>406.0</ele><time>2026-03-24T08:49:45.484Z</time></trkpt><trkpt lat="43.0671458" lon="12.6225737"><ele>406.0</ele><time>2026-03-24T08:49:46.484Z</time></trkpt><trkpt lat="43.067204" lon="12.6227253"><ele>406.0</ele><time>2026-03-24T08:49:47.483Z</time></trkpt><trkpt lat="43.0672424" lon="12.6228876"><ele>406.0</ele><time>2026-03-24T08:49:48.485Z</time></trkpt><trkpt lat="43.0670961" lon="12.6229773"><ele>406.0</ele><time>2026-03-24T08:49:49.484Z</time></trkpt><trkpt lat="43.0670365" lon="12.6231018"><ele>407.0</ele><time>2026-03-24T08:49:50.484Z</time></trkpt><trkpt lat="43.0669419" lon="12.6231945"><ele>408.0</ele><time>2026-03-24T08:49:51.485Z</time></trkpt><trkpt lat="43.0668767" lon="12.6233184"><ele>409.0</ele><time>2026-03-24T08:49:52.484Z</time></trkpt><trkpt lat="43.0668249" lon="12.623432"><ele>410.0</ele><time>2026-03-24T08:49:53.483Z</time></trkpt><trkpt lat="43.0668361" lon="12.6235208"><ele>411.0</ele><time>2026-03-24T08:49:54.483Z</time></trkpt><trkpt lat="43.0668783" lon="12.6236106"><ele>411.0</ele><time>2026-03-24T08:49:55.483Z</time></trkpt><trkpt lat="43.066925" lon="12.6236945"><ele>411.0</ele><time>2026-03-24T08:49:56.483Z</time></trkpt><trkpt lat="43.0670157" lon="12.6237608"><ele>411.0</ele><time>2026-03-24T08:49:57.485Z</time></trkpt><trkpt lat="43.067129" lon="12.623623"><ele>411.0</ele><time>2026-03-24T08:49:58.483Z</time></trkpt><trkpt lat="43.0672082" lon="12.6235529"><ele>411.0</ele><time>2026-03-24T08:49:59.483Z</time></trkpt><trkpt lat="43.0673151" lon="12.6234676"><ele>411.0</ele><time>2026-03-24T08:50:00.484Z</time></trkpt><trkpt lat="43.0674332" lon="12.6233596"><ele>411.0</ele><time>2026-03-24T08:50:01.483Z</time></trkpt><trkpt lat="43.067522" lon="12.6232331"><ele>411.0</ele><time>2026-03-24T08:50:02.484Z</time></trkpt><trkpt lat="43.0676182" lon="12.6231295"><ele>411.0</ele><time>2026-03-24T08:50:03.484Z</time></trkpt><trkpt lat="43.0676099" lon="12.6229252"><ele>415.25</ele><time>2026-03-24T08:50:04.484Z</time></trkpt><trkpt lat="43.0676621" lon="12.6228034"><ele>419.5</ele><time>2026-03-24T08:50:05.484Z</time></trkpt><trkpt lat="43.0676566" lon="12.6226113"><ele>423.75</ele><time>2026-03-24T08:50:06.485Z</time></trkpt><trkpt lat="43.0676827" lon="12.6224832"><ele>428.0</ele><time>2026-03-24T08:50:07.484Z</time></trkpt><trkpt lat="43.0675315" lon="12.6222387"><ele>428.0</ele><time>2026-03-24T08:50:08.485Z</time></trkpt><trkpt lat="43.0674829" lon="12.6220613"><ele>428.0</ele><time>2026-03-24T08:50:09.484Z</time></trkpt><trkpt lat="43.0674193" lon="12.62188"><ele>428.0</ele><time>2026-03-24T08:50:10.485Z</time></trkpt><trkpt lat="43.0673712" lon="12.6216936"><ele>428.0</ele><time>2026-03-24T08:50:11.484Z</time></trkpt><trkpt lat="43.0673499" lon="12.6215587"><ele>422.0</ele><time>2026-03-24T08:50:12.485Z</time></trkpt><trkpt lat="43.067338" lon="12.62139"><ele>416.0</ele><time>2026-03-24T08:50:13.483Z</time></trkpt><trkpt lat="43.0673972" lon="12.6211901"><ele>410.0</ele><time>2026-03-24T08:50:14.483Z</time></trkpt><trkpt lat="43.0674316" lon="12.6209631"><ele>419.0</ele><time>2026-03-24T08:50:15.485Z</time></trkpt><trkpt lat="43.0675358" lon="12.6207766"><ele>428.0</ele><time>2026-03-24T08:50:16.483Z</time></trkpt><trkpt lat="43.0676084" lon="12.6205625"><ele>437.0</ele><time>2026-03-24T08:50:17.483Z</time></trkpt><trkpt lat="43.067676" lon="12.6204057"><ele>434.75</ele><time>2026-03-24T08:50:18.485Z</time></trkpt><trkpt lat="43.0677401" lon="12.620247"><ele>432.5</ele><time>2026-03-24T08:50:19.485Z</time></trkpt><trkpt lat="43.0678004" lon="12.6200916"><ele>430.25</ele><time>2026-03-24T08:50:20.484Z</time></trkpt><trkpt lat="43.067854" lon="12.619938"><ele>428.0</ele><time>2026-03-24T08:50:21.484Z</time></trkpt><trkpt lat="43.0679092" lon="12.6197876"><ele>428.0</ele><time>2026-03-24T08:50:22.483Z</time></trkpt><trkpt lat="43.0680473" lon="12.6197671"><ele>428.0</ele><time>2026-03-24T08:50:23.485Z</time></trkpt><trkpt lat="43.0681508" lon="12.6196836"><ele>428.0</ele><time>2026-03-24T08:50:24.484Z</time></trkpt><trkpt lat="43.0682652" lon="12.6196285"><ele>428.0</ele><time>2026-03-24T08:50:25.483Z</time></trkpt><trkpt lat="43.0684136" lon="12.6196256"><ele>435.3333333333333</ele><time>2026-03-24T08:50:26.484Z</time></trkpt><trkpt lat="43.0685575" lon="12.6195929"><ele>442.66666666666663</ele><time>2026-03-24T08:50:27.484Z</time></trkpt><trkpt lat="43.0687073" lon="12.6195426"><ele>450.0</ele><time>2026-03-24T08:50:28.483Z</time></trkpt><trkpt lat="43.0688618" lon="12.6195152"><ele>447.0</ele><time>2026-03-24T08:50:29.483Z</time></trkpt><trkpt lat="43.0690206" lon="12.6194582"><ele>444.0</ele><time>2026-03-24T08:50:30.483Z</time></trkpt><trkpt lat="43.0691746" lon="12.6193992"><ele>441.0</ele><time>2026-03-24T08:50:31.484Z</time></trkpt><trkpt lat="43.0692886" lon="12.6193234"><ele>441.0</ele><time>2026-03-24T08:50:32.483Z</time></trkpt><trkpt lat="43.069335" lon="12.6192018"><ele>441.0</ele><time>2026-03-24T08:50:33.483Z</time></trkpt><trkpt lat="43.0694206" lon="12.6191095"><ele>441.0</ele><time>2026-03-24T08:50:34.484Z</time></trkpt><trkpt lat="43.0694949" lon="12.6190027"><ele>441.0</ele><time>2026-03-24T08:50:35.484Z</time></trkpt><trkpt lat="43.0695557" lon="12.6189076"><ele>441.0</ele><time>2026-03-24T08:50:36.484Z</time></trkpt><trkpt lat="43.0696254" lon="12.6188077"><ele>441.0</ele><time>2026-03-24T08:50:37.483Z</time></trkpt><trkpt lat="43.069707" lon="12.6187557"><ele>441.0</ele><time>2026-03-24T08:50:38.483Z</time></trkpt><trkpt lat="43.0697986" lon="12.6187392"><ele>441.0</ele><time>2026-03-24T08:50:39.483Z</time></trkpt><trkpt lat="43.069875" lon="12.6187624"><ele>441.0</ele><time>2026-03-24T08:50:40.483Z</time></trkpt><trkpt lat="43.0699578" lon="12.6188161"><ele>441.0</ele><time>2026-03-24T08:50:41.484Z</time></trkpt><trkpt lat="43.0700346" lon="12.6188955"><ele>441.0</ele><time>2026-03-24T08:50:42.484Z</time></trkpt><trkpt lat="43.0701048" lon="12.6189718"><ele>441.8</ele><time>2026-03-24T08:50:43.484Z</time></trkpt><trkpt lat="43.0701565" lon="12.6190428"><ele>442.6</ele><time>2026-03-24T08:50:44.483Z</time></trkpt><trkpt lat="43.0702326" lon="12.6191449"><ele>443.4</ele><time>2026-03-24T08:50:46.484Z</time></trkpt><trkpt lat="43.0702945" lon="12.6192148"><ele>444.2</ele><time>2026-03-24T08:50:48.483Z</time></trkpt><trkpt lat="43.0703814" lon="12.619302"><ele>445.0</ele><time>2026-03-24T08:50:50.484Z</time></trkpt><trkpt lat="43.0704268" lon="12.6194166"><ele>445.00000000000006</ele><time>2026-03-24T08:50:51.484Z</time></trkpt><trkpt lat="43.0704933" lon="12.6194637"><ele>445.0</ele><time>2026-03-24T08:50:52.485Z</time></trkpt><trkpt lat="43.0705471" lon="12.6195375"><ele>445.0</ele><time>2026-03-24T08:50:53.484Z</time></trkpt><trkpt lat="43.0705908" lon="12.619607"><ele>445.0</ele><time>2026-03-24T08:50:54.485Z</time></trkpt><trkpt lat="43.070638" lon="12.6196674"><ele>445.00000000000006</ele><time>2026-03-24T08:50:55.485Z</time></trkpt><trkpt lat="43.0707185" lon="12.6197505"><ele>445.0</ele><time>2026-03-24T08:50:57.484Z</time></trkpt><trkpt lat="43.070851" lon="12.61981"><ele>445.33333333333337</ele><time>2026-03-24T08:50:59.483Z</time></trkpt><trkpt lat="43.0709266" lon="12.619824"><ele>445.6666666666667</ele><time>2026-03-24T08:51:00.484Z</time></trkpt><trkpt lat="43.0710204" lon="12.6198463"><ele>446.0</ele><time>2026-03-24T08:51:01.483Z</time></trkpt><trkpt lat="43.0711078" lon="12.6198692"><ele>446.33333333333337</ele><time>2026-03-24T08:51:02.484Z</time></trkpt><trkpt lat="43.0711952" lon="12.6199041"><ele>446.6666666666667</ele><time>2026-03-24T08:51:03.483Z</time></trkpt><trkpt lat="43.0712734" lon="12.6199446"><ele>447.0</ele><time>2026-03-24T08:51:04.485Z</time></trkpt><trkpt lat="43.071344" lon="12.6200442"><ele>447.0</ele><time>2026-03-24T08:51:05.484Z</time></trkpt><trkpt lat="43.0714118" lon="12.6201309"><ele>447.0</ele><time>2026-03-24T08:51:06.484Z</time></trkpt><trkpt lat="43.0714719" lon="12.6202221"><ele>447.0</ele><time>2026-03-24T08:51:07.484Z</time></trkpt><trkpt lat="43.0715232" lon="12.6202988"><ele>447.0</ele><time>2026-03-24T08:51:08.484Z</time></trkpt><trkpt lat="43.0715631" lon="12.6203683"><ele>447.0</ele><time>2026-03-24T08:51:09.484Z</time></trkpt><trkpt lat="43.0715924" lon="12.6204488"><ele>447.0</ele><time>2026-03-24T08:51:13.483Z</time></trkpt><trkpt lat="43.071641" lon="12.6205564"><ele>447.40000000000003</ele><time>2026-03-24T08:51:23.485Z</time></trkpt><trkpt lat="43.0717069" lon="12.6207307"><ele>447.80000000000007</ele><time>2026-03-24T08:51:25.484Z</time></trkpt><trkpt lat="43.0717064" lon="12.6208409"><ele>448.2</ele><time>2026-03-24T08:51:26.483Z</time></trkpt><trkpt lat="43.0716935" lon="12.6209547"><ele>448.6</ele><time>2026-03-24T08:51:27.484Z</time></trkpt><trkpt lat="43.0716818" lon="12.6210876"><ele>449.0</ele><time>2026-03-24T08:51:28.484Z</time></trkpt><trkpt lat="43.0716696" lon="12.6212548"><ele>449.0</ele><time>2026-03-24T08:51:29.484Z</time></trkpt><trkpt lat="43.0716577" lon="12.621412"><ele>449.0</ele><time>2026-03-24T08:51:30.484Z</time></trkpt><trkpt lat="43.0717274" lon="12.6217449"><ele>449.0</ele><time>2026-03-24T08:51:31.485Z</time></trkpt><trkpt lat="43.0717594" lon="12.6219673"><ele>451.66666666666663</ele><time>2026-03-24T08:51:32.483Z</time></trkpt><trkpt lat="43.0717968" lon="12.6221898"><ele>454.33333333333337</ele><time>2026-03-24T08:51:33.483Z</time></trkpt><trkpt lat="43.071862" lon="12.6224046"><ele>457.0</ele><time>2026-03-24T08:51:34.484Z</time></trkpt><trkpt lat="43.0719227" lon="12.6226325"><ele>461.0</ele><time>2026-03-24T08:51:35.485Z</time></trkpt><trkpt lat="43.0719679" lon="12.6228679"><ele>465.0</ele><time>2026-03-24T08:51:36.484Z</time></trkpt><trkpt lat="43.0720192" lon="12.6231126"><ele>469.0</ele><time>2026-03-24T08:51:37.484Z</time></trkpt><trkpt lat="43.0720696" lon="12.6233587"><ele>469.0</ele><time>2026-03-24T08:51:38.484Z</time></trkpt><trkpt lat="43.0721272" lon="12.6236107"><ele>469.0</ele><time>2026-03-24T08:51:39.484Z</time></trkpt><trkpt lat="43.0721971" lon="12.6238612"><ele>469.0</ele><time>2026-03-24T08:51:40.484Z</time></trkpt><trkpt lat="43.0723011" lon="12.6241339"><ele>477.5</ele><time>2026-03-24T08:51:41.486Z</time></trkpt><trkpt lat="43.0724059" lon="12.6244176"><ele>486.0</ele><time>2026-03-24T08:51:42.483Z</time></trkpt><trkpt lat="43.0725141" lon="12.6247065"><ele>480.66666666666663</ele><time>2026-03-24T08:51:43.483Z</time></trkpt><trkpt lat="43.0726161" lon="12.6249851"><ele>475.3333333333333</ele><time>2026-03-24T08:51:44.484Z</time></trkpt><trkpt lat="43.0727153" lon="12.6252515"><ele>470.0</ele><time>2026-03-24T08:51:45.483Z</time></trkpt><trkpt lat="43.0728011" lon="12.6255081"><ele>470.0</ele><time>2026-03-24T08:51:46.484Z</time></trkpt><trkpt lat="43.0728853" lon="12.6257637"><ele>470.0</ele><time>2026-03-24T08:51:47.484Z</time></trkpt><trkpt lat="43.0729634" lon="12.6260162"><ele>470.0</ele><time>2026-03-24T08:51:48.483Z</time></trkpt><trkpt lat="43.0729983" lon="12.6262733"><ele>477.3333333333333</ele><time>2026-03-24T08:51:49.484Z</time></trkpt><trkpt lat="43.0730774" lon="12.6265243"><ele>484.66666666666663</ele><time>2026-03-24T08:51:50.484Z</time></trkpt><trkpt lat="43.0732154" lon="12.6267794"><ele>492.0</ele><time>2026-03-24T08:51:51.485Z</time></trkpt><trkpt lat="43.0733221" lon="12.6270453"><ele>474.33333333333337</ele><time>2026-03-24T08:51:52.484Z</time></trkpt><trkpt lat="43.0734052" lon="12.6272624"><ele>456.6666666666667</ele><time>2026-03-24T08:51:53.483Z</time></trkpt><trkpt lat="43.0734936" lon="12.6275033"><ele>439.0</ele><time>2026-03-24T08:51:54.483Z</time></trkpt><trkpt lat="43.073586" lon="12.6277437"><ele>448.5</ele><time>2026-03-24T08:51:55.484Z</time></trkpt><trkpt lat="43.0736795" lon="12.6280239"><ele>458.0</ele><time>2026-03-24T08:51:56.484Z</time></trkpt><trkpt lat="43.0737649" lon="12.6283199"><ele>458.0</ele><time>2026-03-24T08:51:57.483Z</time></trkpt><trkpt lat="43.0738285" lon="12.6286371"><ele>458.0</ele><time>2026-03-24T08:51:58.484Z</time></trkpt><trkpt lat="43.0739004" lon="12.6289466"><ele>464.0</ele><time>2026-03-24T08:51:59.483Z</time></trkpt><trkpt lat="43.0739645" lon="12.629282"><ele>470.0</ele><time>2026-03-24T08:52:00.485Z</time></trkpt><trkpt lat="43.0740526" lon="12.6295758"><ele>446.5</ele><time>2026-03-24T08:52:01.484Z</time></trkpt><trkpt lat="43.074182" lon="12.6298534"><ele>423.0</ele><time>2026-03-24T08:52:02.483Z</time></trkpt><trkpt lat="43.0743067" lon="12.6301229"><ele>431.5</ele><time>2026-03-24T08:52:03.484Z</time></trkpt><trkpt lat="43.0744605" lon="12.630393"><ele>440.0</ele><time>2026-03-24T08:52:04.484Z</time></trkpt><trkpt lat="43.0746144" lon="12.6306974"><ele>440.0</ele><time>2026-03-24T08:52:05.484Z</time></trkpt><trkpt lat="43.0747634" lon="12.631017"><ele>440.0</ele><time>2026-03-24T08:52:06.484Z</time></trkpt><trkpt lat="43.0748651" lon="12.6313379"><ele>425.5</ele><time>2026-03-24T08:52:07.483Z</time></trkpt><trkpt lat="43.0749942" lon="12.6316376"><ele>411.0</ele><time>2026-03-24T08:52:08.483Z</time></trkpt><trkpt lat="43.0751295" lon="12.6318731"><ele>419.5</ele><time>2026-03-24T08:52:09.484Z</time></trkpt><trkpt lat="43.075271" lon="12.6321223"><ele>428.0</ele><time>2026-03-24T08:52:10.484Z</time></trkpt><trkpt lat="43.0754807" lon="12.6323187"><ele>428.0</ele><time>2026-03-24T08:52:11.483Z</time></trkpt><trkpt lat="43.0757117" lon="12.6325026"><ele>428.0</ele><time>2026-03-24T08:52:12.485Z</time></trkpt><trkpt lat="43.0759237" lon="12.6326774"><ele>424.5</ele><time>2026-03-24T08:52:13.486Z</time></trkpt><trkpt lat="43.0761364" lon="12.6328594"><ele>421.0</ele><time>2026-03-24T08:52:14.484Z</time></trkpt><trkpt lat="43.076348" lon="12.6330436"><ele>421.0</ele><time>2026-03-24T08:52:15.485Z</time></trkpt><trkpt lat="43.076566" lon="12.6332255"><ele>421.0</ele><time>2026-03-24T08:52:16.484Z</time></trkpt><trkpt lat="43.0767442" lon="12.6333944"><ele>421.6666666666667</ele><time>2026-03-24T08:52:17.485Z</time></trkpt><trkpt lat="43.0769445" lon="12.6335637"><ele>422.33333333333337</ele><time>2026-03-24T08:52:18.485Z</time></trkpt><trkpt lat="43.0771008" lon="12.6337408"><ele>423.0</ele><time>2026-03-24T08:52:19.485Z</time></trkpt><trkpt lat="43.0772795" lon="12.6339317"><ele>415.0</ele><time>2026-03-24T08:52:20.483Z</time></trkpt><trkpt lat="43.0774989" lon="12.6340874"><ele>407.0</ele><time>2026-03-24T08:52:21.483Z</time></trkpt><trkpt lat="43.0776997" lon="12.6342688"><ele>407.0</ele><time>2026-03-24T08:52:22.483Z</time></trkpt><trkpt lat="43.0778934" lon="12.6344539"><ele>407.0</ele><time>2026-03-24T08:52:23.486Z</time></trkpt><trkpt lat="43.0780707" lon="12.6345787"><ele>407.0</ele><time>2026-03-24T08:52:24.484Z</time></trkpt><trkpt lat="43.0782672" lon="12.6346877"><ele>408.66666666666663</ele><time>2026-03-24T08:52:25.485Z</time></trkpt><trkpt lat="43.0784675" lon="12.6347854"><ele>410.33333333333337</ele><time>2026-03-24T08:52:26.485Z</time></trkpt><trkpt lat="43.0786652" lon="12.634885"><ele>412.0</ele><time>2026-03-24T08:52:27.484Z</time></trkpt><trkpt lat="43.078782" lon="12.6349868"><ele>412.0</ele><time>2026-03-24T08:52:28.485Z</time></trkpt><trkpt lat="43.0789064" lon="12.6350702"><ele>412.0</ele><time>2026-03-24T08:52:29.485Z</time></trkpt><trkpt lat="43.0789849" lon="12.6352438"><ele>412.0</ele><time>2026-03-24T08:52:30.485Z</time></trkpt><trkpt lat="43.0790615" lon="12.6353871"><ele>412.0</ele><time>2026-03-24T08:52:31.484Z</time></trkpt><trkpt lat="43.0790914" lon="12.6356544"><ele>415.0</ele><time>2026-03-24T08:52:32.486Z</time></trkpt><trkpt lat="43.079185" lon="12.6359159"><ele>418.0</ele><time>2026-03-24T08:52:33.485Z</time></trkpt><trkpt lat="43.0792835" lon="12.6361331"><ele>421.0</ele><time>2026-03-24T08:52:34.483Z</time></trkpt><trkpt lat="43.0793999" lon="12.6363816"><ele>421.0</ele><time>2026-03-24T08:52:35.483Z</time></trkpt><trkpt lat="43.0795305" lon="12.6366169"><ele>421.0</ele><time>2026-03-24T08:52:36.483Z</time></trkpt><trkpt lat="43.0796809" lon="12.636833"><ele>421.0</ele><time>2026-03-24T08:52:37.484Z</time></trkpt><trkpt lat="43.0798485" lon="12.6370048"><ele>416.0</ele><time>2026-03-24T08:52:38.483Z</time></trkpt><trkpt lat="43.0800035" lon="12.6371531"><ele>411.0</ele><time>2026-03-24T08:52:39.484Z</time></trkpt><trkpt lat="43.0801069" lon="12.6373132"><ele>406.0</ele><time>2026-03-24T08:52:40.484Z</time></trkpt><trkpt lat="43.0802297" lon="12.6374985"><ele>406.0</ele><time>2026-03-24T08:52:41.484Z</time></trkpt><trkpt lat="43.0802189" lon="12.6377458"><ele>406.0</ele><time>2026-03-24T08:52:42.485Z</time></trkpt><trkpt lat="43.080298" lon="12.637969"><ele>406.0</ele><time>2026-03-24T08:52:43.484Z</time></trkpt><trkpt lat="43.0803566" lon="12.6382305"><ele>414.0</ele><time>2026-03-24T08:52:44.484Z</time></trkpt><trkpt lat="43.0804152" lon="12.638568"><ele>422.0</ele><time>2026-03-24T08:52:45.484Z</time></trkpt><trkpt lat="43.0804753" lon="12.6388586"><ele>424.66666666666663</ele><time>2026-03-24T08:52:46.484Z</time></trkpt><trkpt lat="43.0805293" lon="12.6391184"><ele>427.33333333333337</ele><time>2026-03-24T08:52:47.483Z</time></trkpt><trkpt lat="43.080521" lon="12.6393894"><ele>430.0</ele><time>2026-03-24T08:52:48.483Z</time></trkpt><trkpt lat="43.0805515" lon="12.639677"><ele>430.33333333333337</ele><time>2026-03-24T08:52:49.483Z</time></trkpt><trkpt lat="43.0805566" lon="12.6399859"><ele>430.66666666666663</ele><time>2026-03-24T08:52:50.484Z</time></trkpt><trkpt lat="43.0805874" lon="12.6402464"><ele>431.0</ele><time>2026-03-24T08:52:51.484Z</time></trkpt><trkpt lat="43.0806021" lon="12.6405148"><ele>431.0</ele><time>2026-03-24T08:52:52.483Z</time></trkpt><trkpt lat="43.0806129" lon="12.6407675"><ele>431.0</ele><time>2026-03-24T08:52:53.483Z</time></trkpt><trkpt lat="43.0805495" lon="12.6409953"><ele>431.0</ele><time>2026-03-24T08:52:54.483Z</time></trkpt><trkpt lat="43.0805276" lon="12.6412177"><ele>430.0</ele><time>2026-03-24T08:52:55.483Z</time></trkpt><trkpt lat="43.0805274" lon="12.6414489"><ele>429.0</ele><time>2026-03-24T08:52:56.484Z</time></trkpt><trkpt lat="43.0805338" lon="12.6416634"><ele>428.0</ele><time>2026-03-24T08:52:57.484Z</time></trkpt><trkpt lat="43.0805667" lon="12.6419486"><ele>429.3333333333333</ele><time>2026-03-24T08:52:58.484Z</time></trkpt><trkpt lat="43.0806321" lon="12.6422469"><ele>430.66666666666663</ele><time>2026-03-24T08:52:59.483Z</time></trkpt><trkpt lat="43.0806615" lon="12.6425188"><ele>432.0</ele><time>2026-03-24T08:53:00.484Z</time></trkpt><trkpt lat="43.0807076" lon="12.6428059"><ele>421.33333333333337</ele><time>2026-03-24T08:53:01.483Z</time></trkpt><trkpt lat="43.0807847" lon="12.6430382"><ele>410.6666666666667</ele><time>2026-03-24T08:53:02.484Z</time></trkpt><trkpt lat="43.08085" lon="12.6432914"><ele>400.0</ele><time>2026-03-24T08:53:03.483Z</time></trkpt><trkpt lat="43.0809732" lon="12.64351"><ele>406.33333333333337</ele><time>2026-03-24T08:53:04.483Z</time></trkpt><trkpt lat="43.0811164" lon="12.6437124"><ele>412.66666666666663</ele><time>2026-03-24T08:53:05.483Z</time></trkpt><trkpt lat="43.081277" lon="12.6439316"><ele>419.0</ele><time>2026-03-24T08:53:06.483Z</time></trkpt><trkpt lat="43.0814942" lon="12.6440423"><ele>406.0</ele><time>2026-03-24T08:53:07.483Z</time></trkpt><trkpt lat="43.0817027" lon="12.6442095"><ele>393.0</ele><time>2026-03-24T08:53:08.483Z</time></trkpt><trkpt lat="43.0818947" lon="12.6443748"><ele>409.5</ele><time>2026-03-24T08:53:09.484Z</time></trkpt><trkpt lat="43.0821119" lon="12.6445078"><ele>426.0</ele><time>2026-03-24T08:53:10.484Z</time></trkpt><trkpt lat="43.0823316" lon="12.6446264"><ele>415.0</ele><time>2026-03-24T08:53:11.483Z</time></trkpt><trkpt lat="43.0825633" lon="12.6447303"><ele>404.0</ele><time>2026-03-24T08:53:12.485Z</time></trkpt><trkpt lat="43.0827873" lon="12.6448343"><ele>404.0</ele><time>2026-03-24T08:53:13.483Z</time></trkpt><trkpt lat="43.0830138" lon="12.6449463"><ele>404.0</ele><time>2026-03-24T08:53:14.483Z</time></trkpt><trkpt lat="43.0831718" lon="12.6451124"><ele>404.0</ele><time>2026-03-24T08:53:15.483Z</time></trkpt><trkpt lat="43.0833719" lon="12.645238"><ele>408.3333333333333</ele><time>2026-03-24T08:53:16.484Z</time></trkpt><trkpt lat="43.0835382" lon="12.6453849"><ele>412.66666666666663</ele><time>2026-03-24T08:53:17.483Z</time></trkpt><trkpt lat="43.0836839" lon="12.6455207"><ele>417.0</ele><time>2026-03-24T08:53:18.484Z</time></trkpt><trkpt lat="43.0837634" lon="12.6457389"><ele>417.0</ele><time>2026-03-24T08:53:19.483Z</time></trkpt><trkpt lat="43.0838943" lon="12.6459281"><ele>417.0</ele><time>2026-03-24T08:53:20.484Z</time></trkpt><trkpt lat="43.0840144" lon="12.646091"><ele>417.0</ele><time>2026-03-24T08:53:21.484Z</time></trkpt><trkpt lat="43.0841272" lon="12.6462571"><ele>416.33333333333337</ele><time>2026-03-24T08:53:22.484Z</time></trkpt><trkpt lat="43.0842488" lon="12.646387"><ele>415.6666666666667</ele><time>2026-03-24T08:53:23.484Z</time></trkpt><trkpt lat="43.0844436" lon="12.6464117"><ele>415.0</ele><time>2026-03-24T08:53:24.485Z</time></trkpt><trkpt lat="43.0846038" lon="12.646525"><ele>415.0</ele><time>2026-03-24T08:53:25.484Z</time></trkpt><trkpt lat="43.0848228" lon="12.6465304"><ele>415.0</ele><time>2026-03-24T08:53:26.484Z</time></trkpt><trkpt lat="43.0850099" lon="12.6465744"><ele>415.0</ele><time>2026-03-24T08:53:27.483Z</time></trkpt><trkpt lat="43.0852267" lon="12.6466346"><ele>407.6666666666667</ele><time>2026-03-24T08:53:28.484Z</time></trkpt><trkpt lat="43.0854371" lon="12.6466285"><ele>400.33333333333337</ele><time>2026-03-24T08:53:29.484Z</time></trkpt><trkpt lat="43.085642" lon="12.6466532"><ele>393.0</ele><time>2026-03-24T08:53:30.484Z</time></trkpt><trkpt lat="43.085817" lon="12.6466722"><ele>391.4</ele><time>2026-03-24T08:53:31.484Z</time></trkpt><trkpt lat="43.0859543" lon="12.6466493"><ele>389.79999999999995</ele><time>2026-03-24T08:53:32.484Z</time></trkpt><trkpt lat="43.0860481" lon="12.6466467"><ele>388.2</ele><time>2026-03-24T08:53:33.484Z</time></trkpt><trkpt lat="43.0861381" lon="12.6466805"><ele>386.6</ele><time>2026-03-24T08:53:34.483Z</time></trkpt><trkpt lat="43.0862382" lon="12.6467465"><ele>385.0</ele><time>2026-03-24T08:53:35.483Z</time></trkpt><trkpt lat="43.0863775" lon="12.6468554"><ele>382.0</ele><time>2026-03-24T08:53:36.483Z</time></trkpt><trkpt lat="43.0864892" lon="12.6470588"><ele>379.0</ele><time>2026-03-24T08:53:37.484Z</time></trkpt><trkpt lat="43.0866082" lon="12.6473921"><ele>379.0</ele><time>2026-03-24T08:53:38.483Z</time></trkpt><trkpt lat="43.0867368" lon="12.6476133"><ele>379.0</ele><time>2026-03-24T08:53:39.483Z</time></trkpt><trkpt lat="43.086815" lon="12.6478271"><ele>379.0</ele><time>2026-03-24T08:53:40.484Z</time></trkpt><trkpt lat="43.086871" lon="12.6480363"><ele>384.3333333333333</ele><time>2026-03-24T08:53:41.484Z</time></trkpt><trkpt lat="43.0868926" lon="12.648224"><ele>389.66666666666663</ele><time>2026-03-24T08:53:42.484Z</time></trkpt><trkpt lat="43.0870192" lon="12.6483642"><ele>395.0</ele><time>2026-03-24T08:53:43.484Z</time></trkpt><trkpt lat="43.0871621" lon="12.6484554"><ele>395.0</ele><time>2026-03-24T08:53:44.484Z</time></trkpt><trkpt lat="43.0873066" lon="12.6485357"><ele>395.0</ele><time>2026-03-24T08:53:45.484Z</time></trkpt><trkpt lat="43.0874676" lon="12.648607"><ele>395.0</ele><time>2026-03-24T08:53:46.483Z</time></trkpt><trkpt lat="43.0876389" lon="12.6486483"><ele>398.0</ele><time>2026-03-24T08:53:47.483Z</time></trkpt><trkpt lat="43.0878359" lon="12.6487259"><ele>401.0</ele><time>2026-03-24T08:53:48.484Z</time></trkpt><trkpt lat="43.0881642" lon="12.6487564"><ele>396.0</ele><time>2026-03-24T08:53:49.484Z</time></trkpt><trkpt lat="43.0883883" lon="12.6488011"><ele>391.0</ele><time>2026-03-24T08:53:50.484Z</time></trkpt><trkpt lat="43.0886034" lon="12.6488497"><ele>386.0</ele><time>2026-03-24T08:53:51.483Z</time></trkpt><trkpt lat="43.0887863" lon="12.6488946"><ele>386.0</ele><time>2026-03-24T08:53:52.484Z</time></trkpt><trkpt lat="43.0889485" lon="12.6489925"><ele>386.0</ele><time>2026-03-24T08:53:53.484Z</time></trkpt><trkpt lat="43.0891251" lon="12.6491028"><ele>386.0</ele><time>2026-03-24T08:53:54.484Z</time></trkpt><trkpt lat="43.0892987" lon="12.6492334"><ele>383.66666666666663</ele><time>2026-03-24T08:53:55.484Z</time></trkpt><trkpt lat="43.0894799" lon="12.6493167"><ele>381.3333333333333</ele><time>2026-03-24T08:53:56.484Z</time></trkpt><trkpt lat="43.0896802" lon="12.6493581"><ele>379.0</ele><time>2026-03-24T08:53:57.484Z</time></trkpt><trkpt lat="43.0898914" lon="12.6492493"><ele>375.66666666666663</ele><time>2026-03-24T08:53:58.483Z</time></trkpt><trkpt lat="43.0900981" lon="12.6491749"><ele>372.3333333333333</ele><time>2026-03-24T08:53:59.485Z</time></trkpt><trkpt lat="43.0902757" lon="12.6491092"><ele>369.0</ele><time>2026-03-24T08:54:00.483Z</time></trkpt><trkpt lat="43.0904379" lon="12.6490476"><ele>369.0</ele><time>2026-03-24T08:54:01.485Z</time></trkpt><trkpt lat="43.0905873" lon="12.6490104"><ele>369.0</ele><time>2026-03-24T08:54:02.485Z</time></trkpt><trkpt lat="43.0907249" lon="12.6489679"><ele>369.0</ele><time>2026-03-24T08:54:03.484Z</time></trkpt><trkpt lat="43.0908242" lon="12.6490371"><ele>369.0</ele><time>2026-03-24T08:54:04.486Z</time></trkpt><trkpt lat="43.0909366" lon="12.6490991"><ele>368.0</ele><time>2026-03-24T08:54:05.483Z</time></trkpt><trkpt lat="43.0910331" lon="12.6492134"><ele>367.0</ele><time>2026-03-24T08:54:06.485Z</time></trkpt><trkpt lat="43.0911332" lon="12.6493632"><ele>366.0</ele><time>2026-03-24T08:54:07.484Z</time></trkpt><trkpt lat="43.0912344" lon="12.6495088"><ele>365.0</ele><time>2026-03-24T08:54:08.483Z</time></trkpt><trkpt lat="43.0913458" lon="12.6497488"><ele>365.0</ele><time>2026-03-24T08:54:09.485Z</time></trkpt><trkpt lat="43.0914723" lon="12.6499732"><ele>365.0</ele><time>2026-03-24T08:54:10.485Z</time></trkpt><trkpt lat="43.0916109" lon="12.6501768"><ele>365.0</ele><time>2026-03-24T08:54:11.484Z</time></trkpt><trkpt lat="43.0917458" lon="12.6503775"><ele>375.0</ele><time>2026-03-24T08:54:12.483Z</time></trkpt><trkpt lat="43.091946" lon="12.6505274"><ele>385.0</ele><time>2026-03-24T08:54:13.485Z</time></trkpt><trkpt lat="43.0921427" lon="12.6506673"><ele>385.0</ele><time>2026-03-24T08:54:14.485Z</time></trkpt><trkpt lat="43.0923414" lon="12.6507966"><ele>385.0</ele><time>2026-03-24T08:54:15.484Z</time></trkpt><trkpt lat="43.092582" lon="12.6509113"><ele>388.0</ele><time>2026-03-24T08:54:16.485Z</time></trkpt><trkpt lat="43.0927856" lon="12.6510495"><ele>391.0</ele><time>2026-03-24T08:54:17.485Z</time></trkpt><trkpt lat="43.0930192" lon="12.65115"><ele>384.0</ele><time>2026-03-24T08:54:18.485Z</time></trkpt><trkpt lat="43.0932576" lon="12.6512698"><ele>377.0</ele><time>2026-03-24T08:54:19.483Z</time></trkpt><trkpt lat="43.0934984" lon="12.6513761"><ele>377.0</ele><time>2026-03-24T08:54:20.485Z</time></trkpt><trkpt lat="43.0937371" lon="12.651487"><ele>377.0</ele><time>2026-03-24T08:54:21.484Z</time></trkpt><trkpt lat="43.0939622" lon="12.65157"><ele>370.6666666666667</ele><time>2026-03-24T08:54:22.484Z</time></trkpt><trkpt lat="43.0941666" lon="12.6516616"><ele>364.3333333333333</ele><time>2026-03-24T08:54:23.484Z</time></trkpt><trkpt lat="43.0943603" lon="12.6517461"><ele>358.0</ele><time>2026-03-24T08:54:24.484Z</time></trkpt><trkpt lat="43.0945311" lon="12.6518188"><ele>358.0</ele><time>2026-03-24T08:54:25.485Z</time></trkpt><trkpt lat="43.0946827" lon="12.6519006"><ele>358.0</ele><time>2026-03-24T08:54:26.484Z</time></trkpt><trkpt lat="43.0948291" lon="12.6519916"><ele>358.0</ele><time>2026-03-24T08:54:27.485Z</time></trkpt><trkpt lat="43.0949255" lon="12.6521036"><ele>358.25</ele><time>2026-03-24T08:54:28.486Z</time></trkpt><trkpt lat="43.09502" lon="12.652237"><ele>358.5</ele><time>2026-03-24T08:54:29.484Z</time></trkpt><trkpt lat="43.095115" lon="12.6523935"><ele>358.75</ele><time>2026-03-24T08:54:30.483Z</time></trkpt><trkpt lat="43.0952058" lon="12.6525533"><ele>359.0</ele><time>2026-03-24T08:54:31.484Z</time></trkpt><trkpt lat="43.0952853" lon="12.6527198"><ele>359.1666666666667</ele><time>2026-03-24T08:54:32.483Z</time></trkpt><trkpt lat="43.0953616" lon="12.6528774"><ele>359.33333333333337</ele><time>2026-03-24T08:54:33.486Z</time></trkpt><trkpt lat="43.0953976" lon="12.6529744"><ele>359.5</ele><time>2026-03-24T08:54:34.485Z</time></trkpt><trkpt lat="43.095422" lon="12.6530631"><ele>359.6666666666667</ele><time>2026-03-24T08:54:35.485Z</time></trkpt><trkpt lat="43.0954222" lon="12.6531494"><ele>359.8333333333333</ele><time>2026-03-24T08:54:37.484Z</time></trkpt><trkpt lat="43.0954496" lon="12.6532663"><ele>360.0</ele><time>2026-03-24T08:54:39.484Z</time></trkpt><trkpt lat="43.0954748" lon="12.6533607"><ele>360.0</ele><time>2026-03-24T08:54:40.484Z</time></trkpt><trkpt lat="43.095503" lon="12.653462"><ele>360.0</ele><time>2026-03-24T08:54:41.485Z</time></trkpt><trkpt lat="43.0955402" lon="12.6535538"><ele>360.0</ele><time>2026-03-24T08:54:42.485Z</time></trkpt><trkpt lat="43.0955703" lon="12.6536521"><ele>360.0</ele><time>2026-03-24T08:54:43.484Z</time></trkpt><trkpt lat="43.0956559" lon="12.6537395"><ele>360.0</ele><time>2026-03-24T08:54:45.484Z</time></trkpt><trkpt lat="43.0957566" lon="12.6537785"><ele>360.0</ele><time>2026-03-24T08:54:47.485Z</time></trkpt><trkpt lat="43.0959001" lon="12.6538179"><ele>361.75</ele><time>2026-03-24T08:54:49.484Z</time></trkpt><trkpt lat="43.09602" lon="12.6538105"><ele>363.5</ele><time>2026-03-24T08:54:50.483Z</time></trkpt><trkpt lat="43.0961396" lon="12.6538189"><ele>365.25</ele><time>2026-03-24T08:54:51.485Z</time></trkpt><trkpt lat="43.096281" lon="12.6538327"><ele>367.0</ele><time>2026-03-24T08:54:52.484Z</time></trkpt><trkpt lat="43.096437" lon="12.6538317"><ele>372.66666666666663</ele><time>2026-03-24T08:54:53.485Z</time></trkpt><trkpt lat="43.0965976" lon="12.6537896"><ele>378.3333333333333</ele><time>2026-03-24T08:54:54.485Z</time></trkpt><trkpt lat="43.0967624" lon="12.6537494"><ele>384.0</ele><time>2026-03-24T08:54:55.484Z</time></trkpt><trkpt lat="43.0968988" lon="12.6536859"><ele>384.0</ele><time>2026-03-24T08:54:56.486Z</time></trkpt><trkpt lat="43.0970261" lon="12.6536771"><ele>384.0</ele><time>2026-03-24T08:54:57.484Z</time></trkpt><trkpt lat="43.0971603" lon="12.6536521"><ele>384.0</ele><time>2026-03-24T08:54:58.484Z</time></trkpt><trkpt lat="43.0972669" lon="12.6536889"><ele>384.0</ele><time>2026-03-24T08:54:59.486Z</time></trkpt><trkpt lat="43.0973828" lon="12.6537012"><ele>384.0</ele><time>2026-03-24T08:55:00.483Z</time></trkpt><trkpt lat="43.0973216" lon="12.6539193"><ele>384.0</ele><time>2026-03-24T08:55:01.485Z</time></trkpt><trkpt lat="43.0973249" lon="12.6540622"><ele>384.0</ele><time>2026-03-24T08:55:02.484Z</time></trkpt><trkpt lat="43.0973216" lon="12.6542351"><ele>384.0</ele><time>2026-03-24T08:55:03.483Z</time></trkpt><trkpt lat="43.0973188" lon="12.6544123"><ele>386.0</ele><time>2026-03-24T08:55:04.485Z</time></trkpt><trkpt lat="43.0972756" lon="12.6546062"><ele>388.0</ele><time>2026-03-24T08:55:05.486Z</time></trkpt><trkpt lat="43.0972608" lon="12.6547764"><ele>390.0</ele><time>2026-03-24T08:55:06.484Z</time></trkpt><trkpt lat="43.097248" lon="12.6549234"><ele>392.0</ele><time>2026-03-24T08:55:07.483Z</time></trkpt><trkpt lat="43.0972448" lon="12.6550931"><ele>392.0</ele><time>2026-03-24T08:55:08.485Z</time></trkpt><trkpt lat="43.0973378" lon="12.6552642"><ele>392.0</ele><time>2026-03-24T08:55:09.485Z</time></trkpt><trkpt lat="43.0973937" lon="12.655439"><ele>392.0</ele><time>2026-03-24T08:55:10.485Z</time></trkpt><trkpt lat="43.097487" lon="12.655623"><ele>395.3333333333333</ele><time>2026-03-24T08:55:11.483Z</time></trkpt><trkpt lat="43.0976095" lon="12.65582"><ele>398.66666666666663</ele><time>2026-03-24T08:55:12.484Z</time></trkpt><trkpt lat="43.0977319" lon="12.6560047"><ele>402.0</ele><time>2026-03-24T08:55:13.485Z</time></trkpt><trkpt lat="43.0978287" lon="12.656197"><ele>403.0</ele><time>2026-03-24T08:55:14.484Z</time></trkpt><trkpt lat="43.0979323" lon="12.6563868"><ele>404.0</ele><time>2026-03-24T08:55:15.484Z</time></trkpt><trkpt lat="43.0979987" lon="12.6565743"><ele>405.0</ele><time>2026-03-24T08:55:16.485Z</time></trkpt><trkpt lat="43.0980766" lon="12.6567624"><ele>405.0</ele><time>2026-03-24T08:55:17.484Z</time></trkpt><trkpt lat="43.0981543" lon="12.6569342"><ele>405.0</ele><time>2026-03-24T08:55:18.484Z</time></trkpt><trkpt lat="43.0982246" lon="12.6570707"><ele>405.0</ele><time>2026-03-24T08:55:19.485Z</time></trkpt><trkpt lat="43.0983471" lon="12.6571076"><ele>405.0</ele><time>2026-03-24T08:55:21.484Z</time></trkpt><trkpt lat="43.0984001" lon="12.657056"><ele>408.0</ele><time>2026-03-24T08:55:22.483Z</time></trkpt><trkpt lat="43.0984639" lon="12.656975"><ele>411.0</ele><time>2026-03-24T08:55:23.484Z</time></trkpt><trkpt lat="43.0985278" lon="12.6568839"><ele>414.0</ele><time>2026-03-24T08:55:24.483Z</time></trkpt><trkpt lat="43.0986302" lon="12.656811"><ele>417.0</ele><time>2026-03-24T08:55:25.484Z</time></trkpt><trkpt lat="43.0987315" lon="12.6567778"><ele>420.0</ele><time>2026-03-24T08:55:26.483Z</time></trkpt><trkpt lat="43.098832" lon="12.6567321"><ele>420.25</ele><time>2026-03-24T08:55:27.485Z</time></trkpt><trkpt lat="43.0989151" lon="12.6567579"><ele>420.5</ele><time>2026-03-24T08:55:28.485Z</time></trkpt><trkpt lat="43.0990183" lon="12.656787"><ele>420.75</ele><time>2026-03-24T08:55:29.484Z</time></trkpt><trkpt lat="43.099148" lon="12.6568347"><ele>421.0</ele><time>2026-03-24T08:55:30.485Z</time></trkpt><trkpt lat="43.0992967" lon="12.6568509"><ele>424.33333333333337</ele><time>2026-03-24T08:55:31.485Z</time></trkpt><trkpt lat="43.0994577" lon="12.6568527"><ele>427.66666666666663</ele><time>2026-03-24T08:55:32.485Z</time></trkpt><trkpt lat="43.0996282" lon="12.6568383"><ele>431.0</ele><time>2026-03-24T08:55:33.483Z</time></trkpt><trkpt lat="43.0998154" lon="12.6567995"><ele>433.66666666666663</ele><time>2026-03-24T08:55:34.485Z</time></trkpt><trkpt lat="43.0999966" lon="12.656719"><ele>436.33333333333337</ele><time>2026-03-24T08:55:35.484Z</time></trkpt><trkpt lat="43.1001604" lon="12.6566485"><ele>439.0</ele><time>2026-03-24T08:55:36.485Z</time></trkpt><trkpt lat="43.1003188" lon="12.6565692"><ele>439.0</ele><time>2026-03-24T08:55:37.485Z</time></trkpt><trkpt lat="43.1004708" lon="12.6564911"><ele>439.0</ele><time>2026-03-24T08:55:38.484Z</time></trkpt><trkpt lat="43.1006319" lon="12.6564441"><ele>439.0</ele><time>2026-03-24T08:55:39.484Z</time></trkpt><trkpt lat="43.1007963" lon="12.6564256"><ele>441.6666666666667</ele><time>2026-03-24T08:55:40.483Z</time></trkpt><trkpt lat="43.1009641" lon="12.6564168"><ele>444.33333333333337</ele><time>2026-03-24T08:55:41.484Z</time></trkpt><trkpt lat="43.1011188" lon="12.6564374"><ele>447.0</ele><time>2026-03-24T08:55:42.485Z</time></trkpt><trkpt lat="43.1012768" lon="12.6564697"><ele>447.0</ele><time>2026-03-24T08:55:43.484Z</time></trkpt><trkpt lat="43.1014215" lon="12.6565051"><ele>447.0</ele><time>2026-03-24T08:55:44.484Z</time></trkpt><trkpt lat="43.1015776" lon="12.6565354"><ele>447.0</ele><time>2026-03-24T08:55:45.484Z</time></trkpt><trkpt lat="43.1017267" lon="12.6565439"><ele>448.6</ele><time>2026-03-24T08:55:46.484Z</time></trkpt><trkpt lat="43.1018673" lon="12.6565299"><ele>450.20000000000005</ele><time>2026-03-24T08:55:47.484Z</time></trkpt><trkpt lat="43.1019787" lon="12.6565272"><ele>451.8</ele><time>2026-03-24T08:55:48.483Z</time></trkpt><trkpt lat="43.1020743" lon="12.6565547"><ele>453.4</ele><time>2026-03-24T08:55:49.485Z</time></trkpt><trkpt lat="43.1021353" lon="12.6566139"><ele>455.0</ele><time>2026-03-24T08:55:50.485Z</time></trkpt><trkpt lat="43.1021768" lon="12.6567336"><ele>455.0</ele><time>2026-03-24T08:55:51.484Z</time></trkpt><trkpt lat="43.1021862" lon="12.6569025"><ele>455.0</ele><time>2026-03-24T08:55:52.485Z</time></trkpt><trkpt lat="43.1021662" lon="12.6571014"><ele>455.0</ele><time>2026-03-24T08:55:53.484Z</time></trkpt><trkpt lat="43.1021477" lon="12.657308"><ele>455.0</ele><time>2026-03-24T08:55:54.485Z</time></trkpt><trkpt lat="43.1021572" lon="12.6574852"><ele>455.0</ele><time>2026-03-24T08:55:55.484Z</time></trkpt><trkpt lat="43.102207" lon="12.6576183"><ele>455.0</ele><time>2026-03-24T08:55:56.485Z</time></trkpt><trkpt lat="43.1022611" lon="12.6577387"><ele>455.0</ele><time>2026-03-24T08:55:57.485Z</time></trkpt><trkpt lat="43.1023472" lon="12.6578301"><ele>455.0</ele><time>2026-03-24T08:55:58.484Z</time></trkpt><trkpt lat="43.1024341" lon="12.6579277"><ele>455.0</ele><time>2026-03-24T08:55:59.484Z</time></trkpt><trkpt lat="43.1026173" lon="12.6579082"><ele>461.0</ele><time>2026-03-24T08:56:00.484Z</time></trkpt><trkpt lat="43.1027784" lon="12.6579396"><ele>467.0</ele><time>2026-03-24T08:56:01.485Z</time></trkpt><trkpt lat="43.1029435" lon="12.6579583"><ele>473.0</ele><time>2026-03-24T08:56:02.485Z</time></trkpt><trkpt lat="43.1031066" lon="12.6579035"><ele>476.3333333333333</ele><time>2026-03-24T08:56:03.485Z</time></trkpt><trkpt lat="43.1032654" lon="12.6578182"><ele>479.66666666666663</ele><time>2026-03-24T08:56:04.484Z</time></trkpt><trkpt lat="43.103411" lon="12.6576635"><ele>483.0</ele><time>2026-03-24T08:56:05.485Z</time></trkpt><trkpt lat="43.1035534" lon="12.6574871"><ele>483.0</ele><time>2026-03-24T08:56:06.484Z</time></trkpt><trkpt lat="43.1036751" lon="12.6573113"><ele>483.0</ele><time>2026-03-24T08:56:07.484Z</time></trkpt><trkpt lat="43.1037608" lon="12.6571355"><ele>483.0</ele><time>2026-03-24T08:56:08.483Z</time></trkpt><trkpt lat="43.1038535" lon="12.6570049"><ele>481.75</ele><time>2026-03-24T08:56:09.484Z</time></trkpt><trkpt lat="43.1039328" lon="12.6568656"><ele>480.5</ele><time>2026-03-24T08:56:10.485Z</time></trkpt><trkpt lat="43.1040618" lon="12.6567447"><ele>479.25</ele><time>2026-03-24T08:56:11.486Z</time></trkpt><trkpt lat="43.1041466" lon="12.6566085"><ele>478.0</ele><time>2026-03-24T08:56:12.484Z</time></trkpt><trkpt lat="43.104223" lon="12.6565226"><ele>482.75</ele><time>2026-03-24T08:56:13.485Z</time></trkpt><trkpt lat="43.1043049" lon="12.656453"><ele>487.5</ele><time>2026-03-24T08:56:14.484Z</time></trkpt><trkpt lat="43.1043851" lon="12.6563953"><ele>492.25</ele><time>2026-03-24T08:56:15.484Z</time></trkpt><trkpt lat="43.1044003" lon="12.6566487"><ele>497.0</ele><time>2026-03-24T08:56:16.485Z</time></trkpt><trkpt lat="43.1044272" lon="12.6568098"><ele>498.25</ele><time>2026-03-24T08:56:17.485Z</time></trkpt><trkpt lat="43.1044409" lon="12.657013"><ele>499.5</ele><time>2026-03-24T08:56:18.485Z</time></trkpt><trkpt lat="43.1044534" lon="12.6572347"><ele>500.75</ele><time>2026-03-24T08:56:19.484Z</time></trkpt><trkpt lat="43.1044825" lon="12.6574014"><ele>502.0</ele><time>2026-03-24T08:56:20.484Z</time></trkpt><trkpt lat="43.1045099" lon="12.6575508"><ele>502.0</ele><time>2026-03-24T08:56:21.485Z</time></trkpt><trkpt lat="43.1045538" lon="12.6576794"><ele>502.0</ele><time>2026-03-24T08:56:22.484Z</time></trkpt><trkpt lat="43.1046202" lon="12.6577876"><ele>502.0</ele><time>2026-03-24T08:56:23.485Z</time></trkpt><trkpt lat="43.1046856" lon="12.6578966"><ele>502.0</ele><time>2026-03-24T08:56:24.483Z</time></trkpt><trkpt lat="43.1049327" lon="12.6576453"><ele>506.6666666666667</ele><time>2026-03-24T08:56:25.485Z</time></trkpt><trkpt lat="43.1050934" lon="12.6575709"><ele>511.33333333333337</ele><time>2026-03-24T08:56:26.484Z</time></trkpt><trkpt lat="43.1052645" lon="12.6574584"><ele>516.0</ele><time>2026-03-24T08:56:27.485Z</time></trkpt><trkpt lat="43.1054337" lon="12.6573286"><ele>516.0</ele><time>2026-03-24T08:56:28.485Z</time></trkpt><trkpt lat="43.1055897" lon="12.6571963"><ele>516.0</ele><time>2026-03-24T08:56:29.485Z</time></trkpt><trkpt lat="43.1057381" lon="12.6570342"><ele>516.0</ele><time>2026-03-24T08:56:30.485Z</time></trkpt><trkpt lat="43.105855" lon="12.6568501"><ele>516.3333333333334</ele><time>2026-03-24T08:56:31.484Z</time></trkpt><trkpt lat="43.1059691" lon="12.6566943"><ele>516.6666666666667</ele><time>2026-03-24T08:56:32.485Z</time></trkpt><trkpt lat="43.1060982" lon="12.6565767"><ele>517.0</ele><time>2026-03-24T08:56:33.485Z</time></trkpt><trkpt lat="43.1062624" lon="12.6565171"><ele>517.0</ele><time>2026-03-24T08:56:34.484Z</time></trkpt><trkpt lat="43.1064173" lon="12.6564857"><ele>517.0</ele><time>2026-03-24T08:56:35.484Z</time></trkpt><trkpt lat="43.1065639" lon="12.6564891"><ele>517.0</ele><time>2026-03-24T08:56:36.485Z</time></trkpt><trkpt lat="43.1067015" lon="12.6565027"><ele>517.0</ele><time>2026-03-24T08:56:37.485Z</time></trkpt><trkpt lat="43.1068301" lon="12.6564947"><ele>518.25</ele><time>2026-03-24T08:56:38.484Z</time></trkpt><trkpt lat="43.1069733" lon="12.6564843"><ele>519.5</ele><time>2026-03-24T08:56:39.484Z</time></trkpt><trkpt lat="43.1071186" lon="12.6564924"><ele>520.75</ele><time>2026-03-24T08:56:40.484Z</time></trkpt><trkpt lat="43.1072736" lon="12.656495"><ele>522.0</ele><time>2026-03-24T08:56:41.485Z</time></trkpt><trkpt lat="43.107433" lon="12.6564775"><ele>522.3333333333334</ele><time>2026-03-24T08:56:42.484Z</time></trkpt><trkpt lat="43.107599" lon="12.6564385"><ele>522.6666666666667</ele><time>2026-03-24T08:56:43.484Z</time></trkpt><trkpt lat="43.1077638" lon="12.6563655"><ele>523.0</ele><time>2026-03-24T08:56:44.486Z</time></trkpt><trkpt lat="43.1078922" lon="12.6561621"><ele>523.0</ele><time>2026-03-24T08:56:45.485Z</time></trkpt><trkpt lat="43.1080518" lon="12.6560014"><ele>523.0</ele><time>2026-03-24T08:56:46.484Z</time></trkpt><trkpt lat="43.1082466" lon="12.6558872"><ele>523.0</ele><time>2026-03-24T08:56:47.484Z</time></trkpt><trkpt lat="43.1084389" lon="12.655788"><ele>523.0</ele><time>2026-03-24T08:56:48.486Z</time></trkpt><trkpt lat="43.1086257" lon="12.6556696"><ele>523.0</ele><time>2026-03-24T08:56:49.484Z</time></trkpt><trkpt lat="43.1087984" lon="12.6555648"><ele>523.0</ele><time>2026-03-24T08:56:50.484Z</time></trkpt><trkpt lat="43.1089576" lon="12.6554953"><ele>527.6666666666667</ele><time>2026-03-24T08:56:51.484Z</time></trkpt><trkpt lat="43.1091036" lon="12.6554468"><ele>532.3333333333334</ele><time>2026-03-24T08:56:52.485Z</time></trkpt><trkpt lat="43.109264" lon="12.6554581"><ele>537.0</ele><time>2026-03-24T08:56:53.485Z</time></trkpt><trkpt lat="43.1094319" lon="12.6554701"><ele>537.0</ele><time>2026-03-24T08:56:54.485Z</time></trkpt><trkpt lat="43.1095955" lon="12.6554902"><ele>537.0</ele><time>2026-03-24T08:56:55.485Z</time></trkpt><trkpt lat="43.1097643" lon="12.6555075"><ele>537.0</ele><time>2026-03-24T08:56:56.484Z</time></trkpt><trkpt lat="43.1099334" lon="12.6555209"><ele>540.25</ele><time>2026-03-24T08:56:57.486Z</time></trkpt><trkpt lat="43.1101011" lon="12.6554948"><ele>543.5</ele><time>2026-03-24T08:56:58.484Z</time></trkpt><trkpt lat="43.1102499" lon="12.6554724"><ele>546.75</ele><time>2026-03-24T08:56:59.485Z</time></trkpt><trkpt lat="43.11038" lon="12.6554683"><ele>550.0</ele><time>2026-03-24T08:57:00.485Z</time></trkpt><trkpt lat="43.1105048" lon="12.6554787"><ele>550.0</ele><time>2026-03-24T08:57:01.485Z</time></trkpt><trkpt lat="43.1105941" lon="12.6555515"><ele>550.0</ele><time>2026-03-24T08:57:02.486Z</time></trkpt><trkpt lat="43.1106677" lon="12.6556719"><ele>550.0</ele><time>2026-03-24T08:57:03.484Z</time></trkpt><trkpt lat="43.110752" lon="12.6558284"><ele>550.0</ele><time>2026-03-24T08:57:04.485Z</time></trkpt><trkpt lat="43.110804" lon="12.6560092"><ele>552.5</ele><time>2026-03-24T08:57:05.485Z</time></trkpt><trkpt lat="43.1108781" lon="12.6561975"><ele>555.0</ele><time>2026-03-24T08:57:06.484Z</time></trkpt><trkpt lat="43.1109464" lon="12.6563402"><ele>557.5</ele><time>2026-03-24T08:57:07.484Z</time></trkpt><trkpt lat="43.1110213" lon="12.6564291"><ele>560.0</ele><time>2026-03-24T08:57:08.486Z</time></trkpt><trkpt lat="43.1111011" lon="12.6564564"><ele>560.0</ele><time>2026-03-24T08:57:09.485Z</time></trkpt><trkpt lat="43.1111988" lon="12.6564129"><ele>560.0</ele><time>2026-03-24T08:57:10.484Z</time></trkpt><trkpt lat="43.1113125" lon="12.656361"><ele>560.0</ele><time>2026-03-24T08:57:11.485Z</time></trkpt><trkpt lat="43.1114632" lon="12.6563084"><ele>560.0</ele><time>2026-03-24T08:57:12.485Z</time></trkpt><trkpt lat="43.111643" lon="12.6563072"><ele>563.75</ele><time>2026-03-24T08:57:13.486Z</time></trkpt><trkpt lat="43.1118011" lon="12.6563476"><ele>567.5</ele><time>2026-03-24T08:57:14.485Z</time></trkpt><trkpt lat="43.1119373" lon="12.6563878"><ele>571.25</ele><time>2026-03-24T08:57:15.485Z</time></trkpt><trkpt lat="43.1120516" lon="12.6563882"><ele>575.0</ele><time>2026-03-24T08:57:16.484Z</time></trkpt><trkpt lat="43.112173" lon="12.656369"><ele>575.0</ele><time>2026-03-24T08:57:17.485Z</time></trkpt><trkpt lat="43.1122731" lon="12.6563325"><ele>575.0</ele><time>2026-03-24T08:57:18.485Z</time></trkpt><trkpt lat="43.1123579" lon="12.6562901"><ele>575.0</ele><time>2026-03-24T08:57:19.485Z</time></trkpt><trkpt lat="43.1124406" lon="12.6562252"><ele>575.0</ele><time>2026-03-24T08:57:20.485Z</time></trkpt><trkpt lat="43.1125153" lon="12.6561621"><ele>575.0</ele><time>2026-03-24T08:57:21.485Z</time></trkpt><trkpt lat="43.1126078" lon="12.6560699"><ele>580.25</ele><time>2026-03-24T08:57:22.485Z</time></trkpt><trkpt lat="43.1127149" lon="12.6559678"><ele>585.5</ele><time>2026-03-24T08:57:23.485Z</time></trkpt><trkpt lat="43.1128404" lon="12.6558559"><ele>590.75</ele><time>2026-03-24T08:57:24.484Z</time></trkpt><trkpt lat="43.1129593" lon="12.6557419"><ele>596.0</ele><time>2026-03-24T08:57:25.484Z</time></trkpt><trkpt lat="43.1130676" lon="12.6555878"><ele>596.0</ele><time>2026-03-24T08:57:26.485Z</time></trkpt><trkpt lat="43.113158" lon="12.6553785"><ele>596.0</ele><time>2026-03-24T08:57:27.485Z</time></trkpt><trkpt lat="43.1132691" lon="12.6551805"><ele>596.0</ele><time>2026-03-24T08:57:28.485Z</time></trkpt><trkpt lat="43.1133805" lon="12.6549736"><ele>597.6666666666666</ele><time>2026-03-24T08:57:29.485Z</time></trkpt><trkpt lat="43.1135424" lon="12.65477"><ele>599.3333333333334</ele><time>2026-03-24T08:57:30.486Z</time></trkpt><trkpt lat="43.1136697" lon="12.6545824"><ele>601.0</ele><time>2026-03-24T08:57:31.484Z</time></trkpt><trkpt lat="43.1137806" lon="12.6543902"><ele>604.25</ele><time>2026-03-24T08:57:32.484Z</time></trkpt><trkpt lat="43.1138686" lon="12.6542142"><ele>607.5</ele><time>2026-03-24T08:57:33.485Z</time></trkpt><trkpt lat="43.1139479" lon="12.654044"><ele>610.75</ele><time>2026-03-24T08:57:34.485Z</time></trkpt><trkpt lat="43.1140013" lon="12.6538861"><ele>614.0</ele><time>2026-03-24T08:57:35.486Z</time></trkpt><trkpt lat="43.1140472" lon="12.6536711"><ele>616.0</ele><time>2026-03-24T08:57:36.484Z</time></trkpt><trkpt lat="43.1140809" lon="12.6534525"><ele>618.0</ele><time>2026-03-24T08:57:37.484Z</time></trkpt><trkpt lat="43.1141641" lon="12.6532359"><ele>620.0</ele><time>2026-03-24T08:57:38.485Z</time></trkpt><trkpt lat="43.1142551" lon="12.653012"><ele>620.0</ele><time>2026-03-24T08:57:39.485Z</time></trkpt><trkpt lat="43.114375" lon="12.6527906"><ele>620.0</ele><time>2026-03-24T08:57:40.484Z</time></trkpt><trkpt lat="43.114491" lon="12.6525667"><ele>620.0</ele><time>2026-03-24T08:57:41.486Z</time></trkpt><trkpt lat="43.1145723" lon="12.6523696"><ele>618.3333333333333</ele><time>2026-03-24T08:57:42.486Z</time></trkpt><trkpt lat="43.1146926" lon="12.6521881"><ele>616.6666666666666</ele><time>2026-03-24T08:57:43.485Z</time></trkpt><trkpt lat="43.1147953" lon="12.6520429"><ele>615.0</ele><time>2026-03-24T08:57:44.484Z</time></trkpt><trkpt lat="43.1149011" lon="12.6519183"><ele>618.0</ele><time>2026-03-24T08:57:45.484Z</time></trkpt><trkpt lat="43.115009" lon="12.6518037"><ele>621.0</ele><time>2026-03-24T08:57:46.485Z</time></trkpt><trkpt lat="43.1150876" lon="12.6517952"><ele>624.0</ele><time>2026-03-24T08:57:47.484Z</time></trkpt><trkpt lat="43.1151978" lon="12.6517837"><ele>627.0</ele><time>2026-03-24T08:57:48.485Z</time></trkpt><trkpt lat="43.1153145" lon="12.651767"><ele>630.0</ele><time>2026-03-24T08:57:49.485Z</time></trkpt><trkpt lat="43.1154236" lon="12.6517421"><ele>630.0</ele><time>2026-03-24T08:57:50.485Z</time></trkpt><trkpt lat="43.1155373" lon="12.651709"><ele>630.0</ele><time>2026-03-24T08:57:51.484Z</time></trkpt><trkpt lat="43.1156621" lon="12.6516559"><ele>630.0</ele><time>2026-03-24T08:57:52.485Z</time></trkpt><trkpt lat="43.1157852" lon="12.6515958"><ele>630.0</ele><time>2026-03-24T08:57:53.485Z</time></trkpt><trkpt lat="43.1158993" lon="12.651524"><ele>631.0</ele><time>2026-03-24T08:57:54.485Z</time></trkpt><trkpt lat="43.1160221" lon="12.6514387"><ele>632.0</ele><time>2026-03-24T08:57:55.485Z</time></trkpt><trkpt lat="43.1161532" lon="12.6513476"><ele>633.0</ele><time>2026-03-24T08:57:56.485Z</time></trkpt><trkpt lat="43.1162973" lon="12.6512607"><ele>634.0</ele><time>2026-03-24T08:57:57.485Z</time></trkpt><trkpt lat="43.1164488" lon="12.6511817"><ele>636.3333333333334</ele><time>2026-03-24T08:57:58.485Z</time></trkpt><trkpt lat="43.1166005" lon="12.6510907"><ele>638.6666666666666</ele><time>2026-03-24T08:57:59.485Z</time></trkpt><trkpt lat="43.1167451" lon="12.6509953"><ele>641.0</ele><time>2026-03-24T08:58:00.485Z</time></trkpt><trkpt lat="43.1168996" lon="12.650901"><ele>641.0</ele><time>2026-03-24T08:58:01.484Z</time></trkpt><trkpt lat="43.1170573" lon="12.6508029"><ele>641.0</ele><time>2026-03-24T08:58:02.485Z</time></trkpt><trkpt lat="43.1171938" lon="12.6507259"><ele>641.0</ele><time>2026-03-24T08:58:03.484Z</time></trkpt><trkpt lat="43.1173299" lon="12.6506519"><ele>641.5</ele><time>2026-03-24T08:58:04.485Z</time></trkpt><trkpt lat="43.1174643" lon="12.6505663"><ele>642.0</ele><time>2026-03-24T08:58:05.485Z</time></trkpt><trkpt lat="43.1175922" lon="12.6504894"><ele>642.5</ele><time>2026-03-24T08:58:06.485Z</time></trkpt><trkpt lat="43.1177163" lon="12.6504193"><ele>643.0</ele><time>2026-03-24T08:58:07.485Z</time></trkpt><trkpt lat="43.1178482" lon="12.6503562"><ele>643.0</ele><time>2026-03-24T08:58:08.485Z</time></trkpt><trkpt lat="43.1179796" lon="12.6502961"><ele>643.0</ele><time>2026-03-24T08:58:09.485Z</time></trkpt><trkpt lat="43.1181021" lon="12.6502538"><ele>643.0</ele><time>2026-03-24T08:58:10.486Z</time></trkpt><trkpt lat="43.1182357" lon="12.6502429"><ele>643.0</ele><time>2026-03-24T08:58:11.485Z</time></trkpt><trkpt lat="43.1183623" lon="12.6502519"><ele>643.75</ele><time>2026-03-24T08:58:12.485Z</time></trkpt><trkpt lat="43.1185006" lon="12.650321"><ele>644.5</ele><time>2026-03-24T08:58:13.486Z</time></trkpt><trkpt lat="43.1186371" lon="12.6503617"><ele>645.25</ele><time>2026-03-24T08:58:14.485Z</time></trkpt><trkpt lat="43.1187686" lon="12.6504067"><ele>646.0</ele><time>2026-03-24T08:58:15.484Z</time></trkpt><trkpt lat="43.1188944" lon="12.6504446"><ele>646.0</ele><time>2026-03-24T08:58:16.485Z</time></trkpt><trkpt lat="43.1190076" lon="12.6504591"><ele>646.0</ele><time>2026-03-24T08:58:17.485Z</time></trkpt><trkpt lat="43.1190969" lon="12.6504671"><ele>646.0</ele><time>2026-03-24T08:58:18.484Z</time></trkpt><trkpt lat="43.1191917" lon="12.6504344"><ele>646.0</ele><time>2026-03-24T08:58:19.485Z</time></trkpt><trkpt lat="43.119269" lon="12.6503489"><ele>646.0</ele><time>2026-03-24T08:58:20.484Z</time></trkpt><trkpt lat="43.1193601" lon="12.6502359"><ele>651.5</ele><time>2026-03-24T08:58:21.486Z</time></trkpt><trkpt lat="43.1194641" lon="12.6501002"><ele>657.0</ele><time>2026-03-24T08:58:22.485Z</time></trkpt><trkpt lat="43.1195674" lon="12.6499553"><ele>662.5</ele><time>2026-03-24T08:58:23.485Z</time></trkpt><trkpt lat="43.1196685" lon="12.6498232"><ele>668.0</ele><time>2026-03-24T08:58:24.486Z</time></trkpt><trkpt lat="43.119767" lon="12.6496823"><ele>668.0</ele><time>2026-03-24T08:58:25.485Z</time></trkpt><trkpt lat="43.1198649" lon="12.6495512"><ele>668.0</ele><time>2026-03-24T08:58:26.484Z</time></trkpt><trkpt lat="43.1199589" lon="12.6494144"><ele>668.0</ele><time>2026-03-24T08:58:27.484Z</time></trkpt><trkpt lat="43.1200881" lon="12.6492851"><ele>668.0</ele><time>2026-03-24T08:58:28.485Z</time></trkpt><trkpt lat="43.1201974" lon="12.6491617"><ele>670.5</ele><time>2026-03-24T08:58:29.485Z</time></trkpt><trkpt lat="43.1203125" lon="12.649031"><ele>673.0</ele><time>2026-03-24T08:58:30.485Z</time></trkpt><trkpt lat="43.1203934" lon="12.6488889"><ele>675.5</ele><time>2026-03-24T08:58:31.485Z</time></trkpt><trkpt lat="43.1204836" lon="12.6487136"><ele>678.0</ele><time>2026-03-24T08:58:32.485Z</time></trkpt><trkpt lat="43.120566" lon="12.6485358"><ele>675.3333333333334</ele><time>2026-03-24T08:58:33.486Z</time></trkpt><trkpt lat="43.1206351" lon="12.6483481"><ele>672.6666666666667</ele><time>2026-03-24T08:58:34.485Z</time></trkpt><trkpt lat="43.1207141" lon="12.6481709"><ele>670.0</ele><time>2026-03-24T08:58:35.485Z</time></trkpt><trkpt lat="43.1207985" lon="12.6480067"><ele>670.0</ele><time>2026-03-24T08:58:36.485Z</time></trkpt><trkpt lat="43.1209023" lon="12.6478743"><ele>670.0</ele><time>2026-03-24T08:58:37.485Z</time></trkpt><trkpt lat="43.1210282" lon="12.6477692"><ele>670.0</ele><time>2026-03-24T08:58:38.485Z</time></trkpt><trkpt lat="43.1211575" lon="12.6476686"><ele>670.0</ele><time>2026-03-24T08:58:39.485Z</time></trkpt><trkpt lat="43.121289" lon="12.6475809"><ele>672.5</ele><time>2026-03-24T08:58:40.485Z</time></trkpt><trkpt lat="43.1214341" lon="12.6475712"><ele>675.0</ele><time>2026-03-24T08:58:41.485Z</time></trkpt><trkpt lat="43.1215802" lon="12.6475445"><ele>677.5</ele><time>2026-03-24T08:58:42.485Z</time></trkpt><trkpt lat="43.1217238" lon="12.647558"><ele>680.0</ele><time>2026-03-24T08:58:43.486Z</time></trkpt><trkpt lat="43.1218466" lon="12.6475654"><ele>680.1666666666666</ele><time>2026-03-24T08:58:44.485Z</time></trkpt><trkpt lat="43.1219569" lon="12.6475496"><ele>680.3333333333333</ele><time>2026-03-24T08:58:45.484Z</time></trkpt><trkpt lat="43.122051" lon="12.6475513"><ele>680.5</ele><time>2026-03-24T08:58:46.484Z</time></trkpt><trkpt lat="43.1221282" lon="12.6475623"><ele>680.6666666666666</ele><time>2026-03-24T08:58:47.485Z</time></trkpt><trkpt lat="43.1222098" lon="12.6475721"><ele>680.8333333333334</ele><time>2026-03-24T08:58:49.485Z</time></trkpt><trkpt lat="43.1222871" lon="12.6475886"><ele>681.0</ele><time>2026-03-24T08:58:52.484Z</time></trkpt><trkpt lat="43.1223738" lon="12.6476191"><ele>681.6666666666666</ele><time>2026-03-24T08:58:54.484Z</time></trkpt><trkpt lat="43.1224545" lon="12.6476523"><ele>682.3333333333334</ele><time>2026-03-24T08:58:56.484Z</time></trkpt><trkpt lat="43.1225314" lon="12.6476753"><ele>683.0</ele><time>2026-03-24T08:58:59.486Z</time></trkpt><trkpt lat="43.1226204" lon="12.6476679"><ele>683.6666666666667</ele><time>2026-03-24T08:59:02.485Z</time></trkpt><trkpt lat="43.1227017" lon="12.647652"><ele>684.3333333333334</ele><time>2026-03-24T08:59:04.484Z</time></trkpt><trkpt lat="43.122797" lon="12.6476367"><ele>685.0</ele><time>2026-03-24T08:59:06.485Z</time></trkpt><trkpt lat="43.1229017" lon="12.6475794"><ele>685.0</ele><time>2026-03-24T08:59:07.484Z</time></trkpt><trkpt lat="43.1229938" lon="12.6475123"><ele>685.0</ele><time>2026-03-24T08:59:08.486Z</time></trkpt><trkpt lat="43.123097" lon="12.647443"><ele>685.0</ele><time>2026-03-24T08:59:09.485Z</time></trkpt><trkpt lat="43.1232133" lon="12.6473939"><ele>685.0</ele><time>2026-03-24T08:59:10.486Z</time></trkpt><trkpt lat="43.123323" lon="12.6473499"><ele>685.25</ele><time>2026-03-24T08:59:11.484Z</time></trkpt><trkpt lat="43.1234343" lon="12.6473107"><ele>685.5</ele><time>2026-03-24T08:59:12.485Z</time></trkpt><trkpt lat="43.1235772" lon="12.647281"><ele>685.75</ele><time>2026-03-24T08:59:13.485Z</time></trkpt><trkpt lat="43.1236981" lon="12.6472724"><ele>686.0</ele><time>2026-03-24T08:59:14.485Z</time></trkpt><trkpt lat="43.1238079" lon="12.6473464"><ele>686.0</ele><time>2026-03-24T08:59:15.486Z</time></trkpt><trkpt lat="43.1238789" lon="12.6474266"><ele>686.0</ele><time>2026-03-24T08:59:16.485Z</time></trkpt><trkpt lat="43.1239669" lon="12.6475226"><ele>686.0</ele><time>2026-03-24T08:59:17.485Z</time></trkpt><trkpt lat="43.1240582" lon="12.6476319"><ele>686.0</ele><time>2026-03-24T08:59:18.486Z</time></trkpt><trkpt lat="43.1241718" lon="12.6477687"><ele>685.5</ele><time>2026-03-24T08:59:19.485Z</time></trkpt><trkpt lat="43.1242666" lon="12.647882"><ele>685.0</ele><time>2026-03-24T08:59:20.486Z</time></trkpt><trkpt lat="43.1244112" lon="12.6479492"><ele>684.5</ele><time>2026-03-24T08:59:21.485Z</time></trkpt><trkpt lat="43.1245483" lon="12.6480224"><ele>684.0</ele><time>2026-03-24T08:59:22.485Z</time></trkpt><trkpt lat="43.1246755" lon="12.6480941"><ele>684.0</ele><time>2026-03-24T08:59:23.486Z</time></trkpt><trkpt lat="43.1248073" lon="12.6481856"><ele>684.0</ele><time>2026-03-24T08:59:24.486Z</time></trkpt><trkpt lat="43.1249452" lon="12.6482876"><ele>684.0</ele><time>2026-03-24T08:59:25.485Z</time></trkpt><trkpt lat="43.1250522" lon="12.6484032"><ele>684.0</ele><time>2026-03-24T08:59:26.486Z</time></trkpt><trkpt lat="43.1251605" lon="12.6485017"><ele>683.0</ele><time>2026-03-24T08:59:27.486Z</time></trkpt><trkpt lat="43.1252573" lon="12.6486029"><ele>682.0</ele><time>2026-03-24T08:59:28.486Z</time></trkpt><trkpt lat="43.1253583" lon="12.6486871"><ele>681.0</ele><time>2026-03-24T08:59:29.486Z</time></trkpt><trkpt lat="43.1254732" lon="12.6487391"><ele>680.0</ele><time>2026-03-24T08:59:30.486Z</time></trkpt><trkpt lat="43.1256106" lon="12.6487603"><ele>685.6666666666666</ele><time>2026-03-24T08:59:31.487Z</time></trkpt><trkpt lat="43.1257424" lon="12.6487936"><ele>691.3333333333334</ele><time>2026-03-24T08:59:32.486Z</time></trkpt><trkpt lat="43.1258834" lon="12.6488349"><ele>697.0</ele><time>2026-03-24T08:59:33.486Z</time></trkpt><trkpt lat="43.1260589" lon="12.6489172"><ele>697.0</ele><time>2026-03-24T08:59:34.485Z</time></trkpt><trkpt lat="43.1261806" lon="12.6490169"><ele>697.0</ele><time>2026-03-24T08:59:35.486Z</time></trkpt><trkpt lat="43.1262618" lon="12.6491165"><ele>697.0</ele><time>2026-03-24T08:59:36.485Z</time></trkpt><trkpt lat="43.1263384" lon="12.6492569"><ele>697.0</ele><time>2026-03-24T08:59:37.485Z</time></trkpt><trkpt lat="43.1264087" lon="12.6493925"><ele>694.25</ele><time>2026-03-24T08:59:38.485Z</time></trkpt><trkpt lat="43.1264545" lon="12.6495701"><ele>691.5</ele><time>2026-03-24T08:59:39.485Z</time></trkpt><trkpt lat="43.1264721" lon="12.6497207"><ele>688.75</ele><time>2026-03-24T08:59:40.485Z</time></trkpt><trkpt lat="43.126471" lon="12.6498669"><ele>686.0</ele><time>2026-03-24T08:59:41.485Z</time></trkpt><trkpt lat="43.1264232" lon="12.6500184"><ele>686.0</ele><time>2026-03-24T08:59:42.487Z</time></trkpt><trkpt lat="43.1263908" lon="12.650153"><ele>686.0</ele><time>2026-03-24T08:59:43.484Z</time></trkpt><trkpt lat="43.1263472" lon="12.6502793"><ele>686.0</ele><time>2026-03-24T08:59:44.484Z</time></trkpt><trkpt lat="43.1263551" lon="12.6504478"><ele>686.0</ele><time>2026-03-24T08:59:45.485Z</time></trkpt><trkpt lat="43.1263702" lon="12.6506145"><ele>686.25</ele><time>2026-03-24T08:59:46.487Z</time></trkpt><trkpt lat="43.1263829" lon="12.6508062"><ele>686.5</ele><time>2026-03-24T08:59:47.484Z</time></trkpt><trkpt lat="43.1263863" lon="12.6509827"><ele>686.75</ele><time>2026-03-24T08:59:48.484Z</time></trkpt><trkpt lat="43.1263921" lon="12.6511323"><ele>687.0</ele><time>2026-03-24T08:59:49.484Z</time></trkpt><trkpt lat="43.1264074" lon="12.6512388"><ele>687.8333333333334</ele><time>2026-03-24T08:59:50.485Z</time></trkpt><trkpt lat="43.1264181" lon="12.6513255"><ele>688.6666666666666</ele><time>2026-03-24T08:59:51.485Z</time></trkpt><trkpt lat="43.1264405" lon="12.6514486"><ele>689.5</ele><time>2026-03-24T08:59:53.484Z</time></trkpt><trkpt lat="43.1264554" lon="12.6515565"><ele>690.3333333333333</ele><time>2026-03-24T08:59:55.484Z</time></trkpt><trkpt lat="43.1264641" lon="12.6517185"><ele>691.1666666666666</ele><time>2026-03-24T08:59:57.485Z</time></trkpt><trkpt lat="43.1264709" lon="12.6518345"><ele>692.0</ele><time>2026-03-24T08:59:58.485Z</time></trkpt><trkpt lat="43.1264938" lon="12.6519539"><ele>691.5</ele><time>2026-03-24T08:59:59.484Z</time></trkpt><trkpt lat="43.1265211" lon="12.6520614"><ele>691.0</ele><time>2026-03-24T09:00:00.485Z</time></trkpt><trkpt lat="43.1265523" lon="12.6521783"><ele>690.5</ele><time>2026-03-24T09:00:01.485Z</time></trkpt><trkpt lat="43.1265747" lon="12.6522985"><ele>690.0</ele><time>2026-03-24T09:00:02.485Z</time></trkpt><trkpt lat="43.1266012" lon="12.6524127"><ele>689.5</ele><time>2026-03-24T09:00:03.486Z</time></trkpt><trkpt lat="43.126626" lon="12.6525347"><ele>689.0</ele><time>2026-03-24T09:00:04.484Z</time></trkpt><trkpt lat="43.1266466" lon="12.6526782"><ele>693.75</ele><time>2026-03-24T09:00:05.485Z</time></trkpt><trkpt lat="43.1266646" lon="12.6528258"><ele>698.5</ele><time>2026-03-24T09:00:06.486Z</time></trkpt><trkpt lat="43.1266616" lon="12.6529809"><ele>703.25</ele><time>2026-03-24T09:00:07.485Z</time></trkpt><trkpt lat="43.1266741" lon="12.6531483"><ele>708.0</ele><time>2026-03-24T09:00:08.486Z</time></trkpt><trkpt lat="43.1266699" lon="12.6533393"><ele>708.0</ele><time>2026-03-24T09:00:09.485Z</time></trkpt><trkpt lat="43.1266596" lon="12.6535222"><ele>708.0</ele><time>2026-03-24T09:00:10.486Z</time></trkpt><trkpt lat="43.1266462" lon="12.6537139"><ele>708.0</ele><time>2026-03-24T09:00:11.484Z</time></trkpt><trkpt lat="43.1266275" lon="12.6539078"><ele>708.0</ele><time>2026-03-24T09:00:12.485Z</time></trkpt><trkpt lat="43.1266098" lon="12.6541003"><ele>709.0</ele><time>2026-03-24T09:00:13.486Z</time></trkpt><trkpt lat="43.1266032" lon="12.6542396"><ele>710.0</ele><time>2026-03-24T09:00:14.486Z</time></trkpt><trkpt lat="43.126588" lon="12.6544033"><ele>711.0</ele><time>2026-03-24T09:00:15.485Z</time></trkpt><trkpt lat="43.1266246" lon="12.6545642"><ele>712.0</ele><time>2026-03-24T09:00:16.486Z</time></trkpt><trkpt lat="43.1266451" lon="12.6547842"><ele>709.5</ele><time>2026-03-24T09:00:17.755Z</time></trkpt><trkpt lat="43.1265511" lon="12.6552873"><ele>707.0</ele><time>2026-03-24T09:00:20.756Z</time></trkpt><trkpt lat="43.1266356" lon="12.6554706"><ele>707.0</ele><time>2026-03-24T09:00:21.756Z</time></trkpt><trkpt lat="43.1267176" lon="12.655681"><ele>707.0</ele><time>2026-03-24T09:00:22.756Z</time></trkpt><trkpt lat="43.1267761" lon="12.6558696"><ele>707.0</ele><time>2026-03-24T09:00:23.756Z</time></trkpt><trkpt lat="43.1267927" lon="12.6560747"><ele>703.6666666666666</ele><time>2026-03-24T09:00:24.756Z</time></trkpt><trkpt lat="43.1268556" lon="12.6562789"><ele>700.3333333333334</ele><time>2026-03-24T09:00:25.755Z</time></trkpt><trkpt lat="43.1268138" lon="12.6564407"><ele>697.0</ele><time>2026-03-24T09:00:26.756Z</time></trkpt><trkpt lat="43.1269216" lon="12.6568821"><ele>694.0</ele><time>2026-03-24T09:00:28.485Z</time></trkpt><trkpt lat="43.1269494" lon="12.6570967"><ele>691.0</ele><time>2026-03-24T09:00:29.485Z</time></trkpt><trkpt lat="43.1269882" lon="12.6572977"><ele>688.0</ele><time>2026-03-24T09:00:30.484Z</time></trkpt><trkpt lat="43.1270309" lon="12.6574959"><ele>688.0</ele><time>2026-03-24T09:00:31.484Z</time></trkpt><trkpt lat="43.1270477" lon="12.6577039"><ele>688.0</ele><time>2026-03-24T09:00:32.484Z</time></trkpt><trkpt lat="43.1270557" lon="12.6579004"><ele>688.0</ele><time>2026-03-24T09:00:33.485Z</time></trkpt><trkpt lat="43.1270597" lon="12.658071"><ele>688.0</ele><time>2026-03-24T09:00:34.485Z</time></trkpt><trkpt lat="43.1270673" lon="12.6582164"><ele>688.1666666666667</ele><time>2026-03-24T09:00:35.484Z</time></trkpt><trkpt lat="43.1270803" lon="12.658319"><ele>688.3333333333334</ele><time>2026-03-24T09:00:36.485Z</time></trkpt><trkpt lat="43.127089" lon="12.6584144"><ele>688.5</ele><time>2026-03-24T09:00:38.484Z</time></trkpt><trkpt lat="43.1270497" lon="12.658523"><ele>688.6666666666666</ele><time>2026-03-24T09:00:42.485Z</time></trkpt><trkpt lat="43.1270417" lon="12.6586278"><ele>688.8333333333333</ele><time>2026-03-24T09:00:44.486Z</time></trkpt><trkpt lat="43.1270361" lon="12.6587741"><ele>689.0</ele><time>2026-03-24T09:00:46.486Z</time></trkpt><trkpt lat="43.1270622" lon="12.6589503"><ele>690.5</ele><time>2026-03-24T09:00:48.486Z</time></trkpt><trkpt lat="43.1270782" lon="12.6590394"><ele>692.0</ele><time>2026-03-24T09:00:49.484Z</time></trkpt><trkpt lat="43.1270667" lon="12.6591657"><ele>693.5</ele><time>2026-03-24T09:00:51.484Z</time></trkpt><trkpt lat="43.1270661" lon="12.6592572"><ele>695.0</ele><time>2026-03-24T09:01:01.485Z</time></trkpt><trkpt lat="43.1271067" lon="12.6591904"><ele>696.5</ele><time>2026-03-24T09:01:04.485Z</time></trkpt><trkpt lat="43.1270306" lon="12.6591707"><ele>698.0</ele><time>2026-03-24T09:11:07.486Z</time></trkpt><trkpt lat="43.1270208" lon="12.6590217"><ele>698.0</ele><time>2026-03-24T09:11:08.486Z</time></trkpt><trkpt lat="43.1270222" lon="12.6588901"><ele>698.0</ele><time>2026-03-24T09:11:09.485Z</time></trkpt><trkpt lat="43.1270221" lon="12.6587921"><ele>698.0</ele><time>2026-03-24T09:11:10.486Z</time></trkpt><trkpt lat="43.1270289" lon="12.6586318"><ele>698.0</ele><time>2026-03-24T09:11:12.486Z</time></trkpt><trkpt lat="43.1270356" lon="12.6585386"><ele>698.0</ele><time>2026-03-24T09:11:14.486Z</time></trkpt><trkpt lat="43.1271076" lon="12.6585416"><ele>698.0</ele><time>2026-03-24T09:11:17.486Z</time></trkpt><trkpt lat="43.1271568" lon="12.658672"><ele>698.0</ele><time>2026-03-24T09:11:19.487Z</time></trkpt><trkpt lat="43.1271974" lon="12.6588021"><ele>698.0</ele><time>2026-03-24T09:11:21.486Z</time></trkpt><trkpt lat="43.1272459" lon="12.6589291"><ele>698.0</ele><time>2026-03-24T09:11:23.487Z</time></trkpt><trkpt lat="43.127266" lon="12.6590522"><ele>698.0</ele><time>2026-03-24T09:11:25.485Z</time></trkpt><trkpt lat="43.1272933" lon="12.659206"><ele>698.0</ele><time>2026-03-24T09:11:27.487Z</time></trkpt><trkpt lat="43.1273044" lon="12.6593518"><ele>701.0</ele><time>2026-03-24T09:11:29.486Z</time></trkpt><trkpt lat="43.1273517" lon="12.6595318"><ele>704.0</ele><time>2026-03-24T09:11:31.486Z</time></trkpt><trkpt lat="43.1273676" lon="12.6596379"><ele>707.0</ele><time>2026-03-24T09:11:32.487Z</time></trkpt><trkpt lat="43.1273777" lon="12.6597701"><ele>710.0</ele><time>2026-03-24T09:11:33.486Z</time></trkpt><trkpt lat="43.1273916" lon="12.6599031"><ele>713.0</ele><time>2026-03-24T09:11:34.487Z</time></trkpt><trkpt lat="43.1273915" lon="12.6600406"><ele>713.0</ele><time>2026-03-24T09:11:35.487Z</time></trkpt><trkpt lat="43.1273935" lon="12.6601817"><ele>713.0</ele><time>2026-03-24T09:11:36.486Z</time></trkpt><trkpt lat="43.1273822" lon="12.6603249"><ele>713.0</ele><time>2026-03-24T09:11:37.487Z</time></trkpt><trkpt lat="43.1273636" lon="12.6604672"><ele>713.0</ele><time>2026-03-24T09:11:38.486Z</time></trkpt><trkpt lat="43.1273501" lon="12.6606068"><ele>713.0</ele><time>2026-03-24T09:11:39.486Z</time></trkpt><trkpt lat="43.1273426" lon="12.6607715"><ele>714.25</ele><time>2026-03-24T09:11:40.488Z</time></trkpt><trkpt lat="43.1273287" lon="12.6609225"><ele>715.5</ele><time>2026-03-24T09:11:41.486Z</time></trkpt><trkpt lat="43.1272834" lon="12.661084"><ele>716.75</ele><time>2026-03-24T09:11:42.487Z</time></trkpt><trkpt lat="43.1272483" lon="12.6612458"><ele>718.0</ele><time>2026-03-24T09:11:43.485Z</time></trkpt><trkpt lat="43.1272057" lon="12.6613683"><ele>716.0</ele><time>2026-03-24T09:11:44.486Z</time></trkpt><trkpt lat="43.1271708" lon="12.6614926"><ele>714.0</ele><time>2026-03-24T09:11:45.486Z</time></trkpt><trkpt lat="43.1271392" lon="12.6616294"><ele>712.0</ele><time>2026-03-24T09:11:46.486Z</time></trkpt><trkpt lat="43.1271149" lon="12.6617691"><ele>710.0</ele><time>2026-03-24T09:11:47.486Z</time></trkpt><trkpt lat="43.12713" lon="12.6618853"><ele>708.0</ele><time>2026-03-24T09:11:48.487Z</time></trkpt><trkpt lat="43.1271685" lon="12.6620219"><ele>707.75</ele><time>2026-03-24T09:11:49.487Z</time></trkpt><trkpt lat="43.1272689" lon="12.6621138"><ele>707.5</ele><time>2026-03-24T09:11:50.487Z</time></trkpt><trkpt lat="43.1273664" lon="12.6621968"><ele>707.25</ele><time>2026-03-24T09:11:51.486Z</time></trkpt><trkpt lat="43.1274547" lon="12.6623023"><ele>707.0</ele><time>2026-03-24T09:11:52.486Z</time></trkpt><trkpt lat="43.1275589" lon="12.6624306"><ele>706.0</ele><time>2026-03-24T09:11:53.487Z</time></trkpt><trkpt lat="43.1276723" lon="12.6625735"><ele>705.0</ele><time>2026-03-24T09:11:54.486Z</time></trkpt><trkpt lat="43.1277769" lon="12.6627111"><ele>704.0</ele><time>2026-03-24T09:11:55.485Z</time></trkpt><trkpt lat="43.1278902" lon="12.6628281"><ele>703.0</ele><time>2026-03-24T09:11:56.487Z</time></trkpt><trkpt lat="43.1280037" lon="12.6629328"><ele>703.0</ele><time>2026-03-24T09:11:57.487Z</time></trkpt><trkpt lat="43.1281476" lon="12.6630062"><ele>703.0</ele><time>2026-03-24T09:11:58.485Z</time></trkpt><trkpt lat="43.1282776" lon="12.6630703"><ele>703.0</ele><time>2026-03-24T09:11:59.487Z</time></trkpt><trkpt lat="43.1284072" lon="12.6631283"><ele>703.0</ele><time>2026-03-24T09:12:00.486Z</time></trkpt><trkpt lat="43.1285013" lon="12.6631776"><ele>700.5999999999999</ele><time>2026-03-24T09:12:01.487Z</time></trkpt><trkpt lat="43.1286177" lon="12.6632008"><ele>698.1999999999999</ele><time>2026-03-24T09:12:02.486Z</time></trkpt><trkpt lat="43.1287176" lon="12.6632562"><ele>695.8</ele><time>2026-03-24T09:12:03.486Z</time></trkpt><trkpt lat="43.1288096" lon="12.6633041"><ele>693.4</ele><time>2026-03-24T09:12:04.486Z</time></trkpt><trkpt lat="43.1288794" lon="12.6633606"><ele>691.0</ele><time>2026-03-24T09:12:05.485Z</time></trkpt><trkpt lat="43.1289629" lon="12.6634031"><ele>691.0</ele><time>2026-03-24T09:12:06.486Z</time></trkpt><trkpt lat="43.1290419" lon="12.6634273"><ele>691.0</ele><time>2026-03-24T09:12:07.487Z</time></trkpt><trkpt lat="43.1291083" lon="12.6634239"><ele>691.0</ele><time>2026-03-24T09:12:17.487Z</time></trkpt><trkpt lat="43.12904" lon="12.6633966"><ele>691.0</ele><time>2026-03-24T09:12:41.487Z</time></trkpt><trkpt lat="43.1289444" lon="12.6633674"><ele>691.0</ele><time>2026-03-24T09:12:43.487Z</time></trkpt><trkpt lat="43.1288757" lon="12.6633584"><ele>691.0</ele><time>2026-03-24T09:12:44.486Z</time></trkpt><trkpt lat="43.1287922" lon="12.6633108"><ele>691.0</ele><time>2026-03-24T09:12:45.486Z</time></trkpt><trkpt lat="43.1286976" lon="12.6632458"><ele>691.0</ele><time>2026-03-24T09:12:46.486Z</time></trkpt><trkpt lat="43.1286057" lon="12.6631949"><ele>691.0</ele><time>2026-03-24T09:12:47.485Z</time></trkpt><trkpt lat="43.128494" lon="12.6631291"><ele>691.0</ele><time>2026-03-24T09:12:48.485Z</time></trkpt><trkpt lat="43.1283656" lon="12.6630799"><ele>691.0</ele><time>2026-03-24T09:12:49.486Z</time></trkpt><trkpt lat="43.1282377" lon="12.6630299"><ele>691.0</ele><time>2026-03-24T09:12:50.487Z</time></trkpt><trkpt lat="43.1281216" lon="12.6629815"><ele>691.0</ele><time>2026-03-24T09:12:51.487Z</time></trkpt><trkpt lat="43.1280212" lon="12.6629075"><ele>691.0</ele><time>2026-03-24T09:12:52.486Z</time></trkpt><trkpt lat="43.1279336" lon="12.6628124"><ele>689.0</ele><time>2026-03-24T09:12:53.487Z</time></trkpt><trkpt lat="43.1278319" lon="12.6626911"><ele>687.0</ele><time>2026-03-24T09:12:54.486Z</time></trkpt><trkpt lat="43.1277313" lon="12.6625624"><ele>685.0</ele><time>2026-03-24T09:12:55.486Z</time></trkpt><trkpt lat="43.1276043" lon="12.6624319"><ele>683.0</ele><time>2026-03-24T09:12:56.486Z</time></trkpt><trkpt lat="43.1274813" lon="12.6623004"><ele>687.8</ele><time>2026-03-24T09:12:57.485Z</time></trkpt><trkpt lat="43.1273638" lon="12.662192"><ele>692.5999999999999</ele><time>2026-03-24T09:12:58.487Z</time></trkpt><trkpt lat="43.1272762" lon="12.6620904"><ele>697.4000000000001</ele><time>2026-03-24T09:12:59.487Z</time></trkpt><trkpt lat="43.1272122" lon="12.661979"><ele>702.2</ele><time>2026-03-24T09:13:00.487Z</time></trkpt><trkpt lat="43.1271865" lon="12.6618687"><ele>707.0</ele><time>2026-03-24T09:13:01.486Z</time></trkpt><trkpt lat="43.127178" lon="12.6617442"><ele>707.25</ele><time>2026-03-24T09:13:02.487Z</time></trkpt><trkpt lat="43.1272028" lon="12.6615651"><ele>707.5</ele><time>2026-03-24T09:13:03.486Z</time></trkpt><trkpt lat="43.1272407" lon="12.6614125"><ele>707.75</ele><time>2026-03-24T09:13:04.487Z</time></trkpt><trkpt lat="43.1272621" lon="12.6612608"><ele>708.0</ele><time>2026-03-24T09:13:05.486Z</time></trkpt><trkpt lat="43.1272951" lon="12.6610938"><ele>710.5</ele><time>2026-03-24T09:13:06.485Z</time></trkpt><trkpt lat="43.1273231" lon="12.6609296"><ele>713.0</ele><time>2026-03-24T09:13:07.486Z</time></trkpt><trkpt lat="43.1273572" lon="12.6607445"><ele>715.5</ele><time>2026-03-24T09:13:08.486Z</time></trkpt><trkpt lat="43.1273821" lon="12.6605571"><ele>718.0</ele><time>2026-03-24T09:13:09.486Z</time></trkpt><trkpt lat="43.1273848" lon="12.6603707"><ele>716.75</ele><time>2026-03-24T09:13:10.486Z</time></trkpt><trkpt lat="43.127401" lon="12.6601913"><ele>715.5</ele><time>2026-03-24T09:13:11.487Z</time></trkpt><trkpt lat="43.1274052" lon="12.6600363"><ele>714.25</ele><time>2026-03-24T09:13:12.485Z</time></trkpt><trkpt lat="43.127402" lon="12.6598789"><ele>713.0</ele><time>2026-03-24T09:13:13.486Z</time></trkpt><trkpt lat="43.1273923" lon="12.6597346"><ele>713.0</ele><time>2026-03-24T09:13:14.487Z</time></trkpt><trkpt lat="43.1273765" lon="12.6595894"><ele>713.0</ele><time>2026-03-24T09:13:15.487Z</time></trkpt><trkpt lat="43.1273566" lon="12.6594334"><ele>713.0</ele><time>2026-03-24T09:13:16.487Z</time></trkpt><trkpt lat="43.1273315" lon="12.6592787"><ele>713.0</ele><time>2026-03-24T09:13:17.486Z</time></trkpt><trkpt lat="43.1273097" lon="12.6591266"><ele>709.25</ele><time>2026-03-24T09:13:18.486Z</time></trkpt><trkpt lat="43.1272798" lon="12.658973"><ele>705.5</ele><time>2026-03-24T09:13:19.486Z</time></trkpt><trkpt lat="43.127243" lon="12.6588322"><ele>701.75</ele><time>2026-03-24T09:13:20.486Z</time></trkpt><trkpt lat="43.1272051" lon="12.6586849"><ele>698.0</ele><time>2026-03-24T09:13:21.487Z</time></trkpt><trkpt lat="43.1271711" lon="12.658536"><ele>695.75</ele><time>2026-03-24T09:13:22.487Z</time></trkpt><trkpt lat="43.127134" lon="12.6583959"><ele>693.5</ele><time>2026-03-24T09:13:23.486Z</time></trkpt><trkpt lat="43.127108" lon="12.6582412"><ele>691.25</ele><time>2026-03-24T09:13:24.485Z</time></trkpt><trkpt lat="43.1270933" lon="12.658082"><ele>689.0</ele><time>2026-03-24T09:13:25.486Z</time></trkpt><trkpt lat="43.1270861" lon="12.6579019"><ele>688.6666666666666</ele><time>2026-03-24T09:13:26.486Z</time></trkpt><trkpt lat="43.127074" lon="12.6577037"><ele>688.3333333333334</ele><time>2026-03-24T09:13:27.486Z</time></trkpt><trkpt lat="43.1270548" lon="12.6574996"><ele>688.0</ele><time>2026-03-24T09:13:28.486Z</time></trkpt><trkpt lat="43.1270251" lon="12.6572807"><ele>688.0</ele><time>2026-03-24T09:13:29.485Z</time></trkpt><trkpt lat="43.126991" lon="12.6570576"><ele>688.0</ele><time>2026-03-24T09:13:30.485Z</time></trkpt><trkpt lat="43.1269528" lon="12.6568289"><ele>688.0</ele><time>2026-03-24T09:13:31.486Z</time></trkpt><trkpt lat="43.1269105" lon="12.656596"><ele>691.0</ele><time>2026-03-24T09:13:32.486Z</time></trkpt><trkpt lat="43.1268802" lon="12.6563513"><ele>694.0</ele><time>2026-03-24T09:13:33.485Z</time></trkpt><trkpt lat="43.126837" lon="12.6561182"><ele>697.0</ele><time>2026-03-24T09:13:34.486Z</time></trkpt><trkpt lat="43.1268101" lon="12.6558853"><ele>700.3333333333334</ele><time>2026-03-24T09:13:35.487Z</time></trkpt><trkpt lat="43.1267851" lon="12.6556591"><ele>703.6666666666666</ele><time>2026-03-24T09:13:36.488Z</time></trkpt><trkpt lat="43.1267639" lon="12.6554482"><ele>707.0</ele><time>2026-03-24T09:13:37.486Z</time></trkpt><trkpt lat="43.1267392" lon="12.6552367"><ele>708.25</ele><time>2026-03-24T09:13:38.486Z</time></trkpt><trkpt lat="43.1267219" lon="12.6550229"><ele>709.5</ele><time>2026-03-24T09:13:39.486Z</time></trkpt><trkpt lat="43.1267013" lon="12.6548222"><ele>710.75</ele><time>2026-03-24T09:13:40.486Z</time></trkpt><trkpt lat="43.1266815" lon="12.6546338"><ele>712.0</ele><time>2026-03-24T09:13:41.486Z</time></trkpt><trkpt lat="43.1266656" lon="12.6544538"><ele>712.0</ele><time>2026-03-24T09:13:42.487Z</time></trkpt><trkpt lat="43.1266604" lon="12.6542718"><ele>712.0</ele><time>2026-03-24T09:13:43.485Z</time></trkpt><trkpt lat="43.1266626" lon="12.6540766"><ele>712.0</ele><time>2026-03-24T09:13:44.485Z</time></trkpt><trkpt lat="43.1266739" lon="12.6538765"><ele>712.0</ele><time>2026-03-24T09:13:45.487Z</time></trkpt><trkpt lat="43.1266845" lon="12.6536644"><ele>710.6666666666667</ele><time>2026-03-24T09:13:46.487Z</time></trkpt><trkpt lat="43.1266942" lon="12.6534413"><ele>709.3333333333334</ele><time>2026-03-24T09:13:47.486Z</time></trkpt><trkpt lat="43.1266937" lon="12.6532109"><ele>708.0</ele><time>2026-03-24T09:13:48.487Z</time></trkpt><trkpt lat="43.1266886" lon="12.6529904"><ele>707.0</ele><time>2026-03-24T09:13:49.486Z</time></trkpt><trkpt lat="43.1266686" lon="12.6527825"><ele>706.0</ele><time>2026-03-24T09:13:50.486Z</time></trkpt><trkpt lat="43.1266458" lon="12.6525819"><ele>705.0</ele><time>2026-03-24T09:13:51.486Z</time></trkpt><trkpt lat="43.1266239" lon="12.6524029"><ele>704.0</ele><time>2026-03-24T09:13:52.486Z</time></trkpt><trkpt lat="43.1265803" lon="12.6522364"><ele>701.6</ele><time>2026-03-24T09:13:53.486Z</time></trkpt><trkpt lat="43.1265522" lon="12.6520973"><ele>699.2</ele><time>2026-03-24T09:13:54.486Z</time></trkpt><trkpt lat="43.1265159" lon="12.6519436"><ele>696.8000000000001</ele><time>2026-03-24T09:13:55.486Z</time></trkpt><trkpt lat="43.1264951" lon="12.6517996"><ele>694.4000000000001</ele><time>2026-03-24T09:13:56.486Z</time></trkpt><trkpt lat="43.1264745" lon="12.6516704"><ele>692.0</ele><time>2026-03-24T09:13:57.486Z</time></trkpt><trkpt lat="43.1264724" lon="12.6515588"><ele>692.0</ele><time>2026-03-24T09:13:58.487Z</time></trkpt><trkpt lat="43.1264554" lon="12.6514479"><ele>692.0</ele><time>2026-03-24T09:13:59.485Z</time></trkpt><trkpt lat="43.126433" lon="12.6513368"><ele>692.0</ele><time>2026-03-24T09:14:00.485Z</time></trkpt><trkpt lat="43.1264193" lon="12.651228"><ele>692.0</ele><time>2026-03-24T09:14:01.487Z</time></trkpt><trkpt lat="43.1264096" lon="12.6511202"><ele>692.0</ele><time>2026-03-24T09:14:02.488Z</time></trkpt><trkpt lat="43.1264022" lon="12.6510103"><ele>692.0</ele><time>2026-03-24T09:14:03.486Z</time></trkpt><trkpt lat="43.1263845" lon="12.6509021"><ele>691.0</ele><time>2026-03-24T09:14:04.486Z</time></trkpt><trkpt lat="43.1263745" lon="12.650782"><ele>690.0</ele><time>2026-03-24T09:14:05.486Z</time></trkpt><trkpt lat="43.1263669" lon="12.6506554"><ele>689.0</ele><time>2026-03-24T09:14:06.486Z</time></trkpt><trkpt lat="43.1263595" lon="12.6505314"><ele>688.0</ele><time>2026-03-24T09:14:07.487Z</time></trkpt><trkpt lat="43.1263492" lon="12.6504027"><ele>687.0</ele><time>2026-03-24T09:14:08.486Z</time></trkpt><trkpt lat="43.126347" lon="12.6502849"><ele>686.8333333333334</ele><time>2026-03-24T09:14:09.487Z</time></trkpt><trkpt lat="43.1263719" lon="12.6501719"><ele>686.6666666666666</ele><time>2026-03-24T09:14:10.487Z</time></trkpt><trkpt lat="43.1264073" lon="12.6500607"><ele>686.5</ele><time>2026-03-24T09:14:11.487Z</time></trkpt><trkpt lat="43.1264411" lon="12.649952"><ele>686.3333333333333</ele><time>2026-03-24T09:14:12.485Z</time></trkpt><trkpt lat="43.1264647" lon="12.649831"><ele>686.1666666666666</ele><time>2026-03-24T09:14:13.485Z</time></trkpt><trkpt lat="43.1264822" lon="12.6497199"><ele>686.0</ele><time>2026-03-24T09:14:14.485Z</time></trkpt><trkpt lat="43.1264674" lon="12.6495937"><ele>686.0</ele><time>2026-03-24T09:14:15.486Z</time></trkpt><trkpt lat="43.1264277" lon="12.6494707"><ele>686.0</ele><time>2026-03-24T09:14:16.485Z</time></trkpt><trkpt lat="43.1263875" lon="12.6493551"><ele>686.0</ele><time>2026-03-24T09:14:17.485Z</time></trkpt><trkpt lat="43.1263298" lon="12.6492239"><ele>686.0</ele><time>2026-03-24T09:14:18.487Z</time></trkpt><trkpt lat="43.1262574" lon="12.6491176"><ele>686.0</ele><time>2026-03-24T09:14:19.486Z</time></trkpt><trkpt lat="43.1261786" lon="12.649024"><ele>684.8</ele><time>2026-03-24T09:14:20.486Z</time></trkpt><trkpt lat="43.1261074" lon="12.64894"><ele>683.5999999999999</ele><time>2026-03-24T09:14:21.487Z</time></trkpt><trkpt lat="43.1260199" lon="12.6488745"><ele>682.4</ele><time>2026-03-24T09:14:22.486Z</time></trkpt><trkpt lat="43.1259035" lon="12.6488017"><ele>681.2</ele><time>2026-03-24T09:14:23.487Z</time></trkpt><trkpt lat="43.1258015" lon="12.6487626"><ele>680.0</ele><time>2026-03-24T09:14:24.485Z</time></trkpt><trkpt lat="43.1256892" lon="12.6487367"><ele>680.0</ele><time>2026-03-24T09:14:25.486Z</time></trkpt><trkpt lat="43.1255799" lon="12.6487224"><ele>680.0</ele><time>2026-03-24T09:14:26.486Z</time></trkpt><trkpt lat="43.1254715" lon="12.6487047"><ele>680.0</ele><time>2026-03-24T09:14:27.485Z</time></trkpt><trkpt lat="43.1253683" lon="12.6486424"><ele>680.0</ele><time>2026-03-24T09:14:28.488Z</time></trkpt><trkpt lat="43.125281" lon="12.6485686"><ele>680.0</ele><time>2026-03-24T09:14:29.486Z</time></trkpt><trkpt lat="43.1251725" lon="12.6484927"><ele>681.0</ele><time>2026-03-24T09:14:30.486Z</time></trkpt><trkpt lat="43.1250728" lon="12.6483908"><ele>682.0</ele><time>2026-03-24T09:14:31.486Z</time></trkpt><trkpt lat="43.1249753" lon="12.6482941"><ele>683.0</ele><time>2026-03-24T09:14:32.486Z</time></trkpt><trkpt lat="43.1248563" lon="12.6481927"><ele>684.0</ele><time>2026-03-24T09:14:33.486Z</time></trkpt><trkpt lat="43.1247412" lon="12.648113"><ele>684.0</ele><time>2026-03-24T09:14:34.487Z</time></trkpt><trkpt lat="43.1246064" lon="12.6480429"><ele>684.0</ele><time>2026-03-24T09:14:35.486Z</time></trkpt><trkpt lat="43.1244837" lon="12.6479767"><ele>684.0</ele><time>2026-03-24T09:14:36.487Z</time></trkpt><trkpt lat="43.1243614" lon="12.6479129"><ele>684.0</ele><time>2026-03-24T09:14:37.486Z</time></trkpt><trkpt lat="43.1242465" lon="12.6478326"><ele>684.5</ele><time>2026-03-24T09:14:38.487Z</time></trkpt><trkpt lat="43.1241303" lon="12.6477488"><ele>685.0</ele><time>2026-03-24T09:14:39.486Z</time></trkpt><trkpt lat="43.1240295" lon="12.6476475"><ele>685.5</ele><time>2026-03-24T09:14:40.487Z</time></trkpt><trkpt lat="43.1239399" lon="12.6475189"><ele>686.0</ele><time>2026-03-24T09:14:41.486Z</time></trkpt><trkpt lat="43.123864" lon="12.6474103"><ele>686.0</ele><time>2026-03-24T09:14:42.486Z</time></trkpt><trkpt lat="43.1237812" lon="12.6472977"><ele>686.0</ele><time>2026-03-24T09:14:43.486Z</time></trkpt><trkpt lat="43.1236736" lon="12.6472313"><ele>686.0</ele><time>2026-03-24T09:14:44.488Z</time></trkpt><trkpt lat="43.1235778" lon="12.6471645"><ele>686.0</ele><time>2026-03-24T09:14:45.487Z</time></trkpt><trkpt lat="43.1234737" lon="12.6471768"><ele>686.0</ele><time>2026-03-24T09:14:46.488Z</time></trkpt><trkpt lat="43.1233117" lon="12.647211"><ele>685.75</ele><time>2026-03-24T09:14:47.486Z</time></trkpt><trkpt lat="43.1231518" lon="12.6472801"><ele>685.5</ele><time>2026-03-24T09:14:48.487Z</time></trkpt><trkpt lat="43.1230261" lon="12.6473693"><ele>685.25</ele><time>2026-03-24T09:14:49.486Z</time></trkpt><trkpt lat="43.122909" lon="12.647444"><ele>685.0</ele><time>2026-03-24T09:14:50.487Z</time></trkpt><trkpt lat="43.1227918" lon="12.6475142"><ele>685.0</ele><time>2026-03-24T09:14:51.486Z</time></trkpt><trkpt lat="43.1226816" lon="12.64757"><ele>685.0</ele><time>2026-03-24T09:14:52.486Z</time></trkpt><trkpt lat="43.1225597" lon="12.6475996"><ele>685.0</ele><time>2026-03-24T09:14:53.487Z</time></trkpt><trkpt lat="43.1224261" lon="12.6475824"><ele>685.0</ele><time>2026-03-24T09:14:54.486Z</time></trkpt><trkpt lat="43.1223156" lon="12.6475698"><ele>684.0</ele><time>2026-03-24T09:14:55.486Z</time></trkpt><trkpt lat="43.1221991" lon="12.6475443"><ele>683.0</ele><time>2026-03-24T09:14:56.485Z</time></trkpt><trkpt lat="43.1220708" lon="12.6475311"><ele>682.0</ele><time>2026-03-24T09:14:57.485Z</time></trkpt><trkpt lat="43.1219336" lon="12.6475335"><ele>681.0</ele><time>2026-03-24T09:14:58.486Z</time></trkpt><trkpt lat="43.1217886" lon="12.6475643"><ele>681.0</ele><time>2026-03-24T09:14:59.486Z</time></trkpt><trkpt lat="43.1216477" lon="12.6475837"><ele>681.0</ele><time>2026-03-24T09:15:00.486Z</time></trkpt><trkpt lat="43.121528" lon="12.6475526"><ele>681.0</ele><time>2026-03-24T09:15:01.487Z</time></trkpt><trkpt lat="43.1213928" lon="12.6475691"><ele>681.0</ele><time>2026-03-24T09:15:02.487Z</time></trkpt><trkpt lat="43.1212465" lon="12.6476271"><ele>680.75</ele><time>2026-03-24T09:15:03.486Z</time></trkpt><trkpt lat="43.1211087" lon="12.647688"><ele>680.5</ele><time>2026-03-24T09:15:04.486Z</time></trkpt><trkpt lat="43.1209697" lon="12.6477984"><ele>680.25</ele><time>2026-03-24T09:15:05.488Z</time></trkpt><trkpt lat="43.1208505" lon="12.6479061"><ele>680.0</ele><time>2026-03-24T09:15:06.486Z</time></trkpt><trkpt lat="43.120769" lon="12.6480555"><ele>679.5</ele><time>2026-03-24T09:15:07.487Z</time></trkpt><trkpt lat="43.120701" lon="12.6482235"><ele>679.0</ele><time>2026-03-24T09:15:08.486Z</time></trkpt><trkpt lat="43.1206242" lon="12.6484029"><ele>678.5</ele><time>2026-03-24T09:15:09.485Z</time></trkpt><trkpt lat="43.1205605" lon="12.6485823"><ele>678.0</ele><time>2026-03-24T09:15:10.487Z</time></trkpt><trkpt lat="43.1205055" lon="12.6487306"><ele>678.0</ele><time>2026-03-24T09:15:11.487Z</time></trkpt><trkpt lat="43.1204119" lon="12.6488878"><ele>678.0</ele><time>2026-03-24T09:15:12.485Z</time></trkpt><trkpt lat="43.1202929" lon="12.6490247"><ele>678.0</ele><time>2026-03-24T09:15:13.486Z</time></trkpt><trkpt lat="43.1201644" lon="12.6491686"><ele>678.0</ele><time>2026-03-24T09:15:14.487Z</time></trkpt><trkpt lat="43.1200473" lon="12.6493111"><ele>678.0</ele><time>2026-03-24T09:15:15.486Z</time></trkpt><trkpt lat="43.1199306" lon="12.6494549"><ele>678.0</ele><time>2026-03-24T09:15:16.485Z</time></trkpt><trkpt lat="43.119838" lon="12.6496197"><ele>675.5</ele><time>2026-03-24T09:15:17.485Z</time></trkpt><trkpt lat="43.1197273" lon="12.6497585"><ele>673.0</ele><time>2026-03-24T09:15:18.486Z</time></trkpt><trkpt lat="43.1196214" lon="12.6499039"><ele>670.5</ele><time>2026-03-24T09:15:19.486Z</time></trkpt><trkpt lat="43.1195133" lon="12.6500174"><ele>668.0</ele><time>2026-03-24T09:15:20.488Z</time></trkpt><trkpt lat="43.119405" lon="12.6501169"><ele>668.0</ele><time>2026-03-24T09:15:21.486Z</time></trkpt><trkpt lat="43.1193053" lon="12.6502425"><ele>668.0</ele><time>2026-03-24T09:15:22.486Z</time></trkpt><trkpt lat="43.1192293" lon="12.6503163"><ele>668.0</ele><time>2026-03-24T09:15:23.486Z</time></trkpt><trkpt lat="43.1191367" lon="12.6503546"><ele>668.0</ele><time>2026-03-24T09:15:24.486Z</time></trkpt><trkpt lat="43.1190241" lon="12.6503921"><ele>668.0</ele><time>2026-03-24T09:15:25.485Z</time></trkpt><trkpt lat="43.1189035" lon="12.6503675"><ele>664.25</ele><time>2026-03-24T09:15:26.486Z</time></trkpt><trkpt lat="43.1187795" lon="12.6503426"><ele>660.5</ele><time>2026-03-24T09:15:27.487Z</time></trkpt><trkpt lat="43.1186415" lon="12.6503072"><ele>656.75</ele><time>2026-03-24T09:15:28.486Z</time></trkpt><trkpt lat="43.1185031" lon="12.6502497"><ele>653.0</ele><time>2026-03-24T09:15:29.488Z</time></trkpt><trkpt lat="43.1183671" lon="12.650185"><ele>653.0</ele><time>2026-03-24T09:15:30.486Z</time></trkpt><trkpt lat="43.1182381" lon="12.6501655"><ele>653.0</ele><time>2026-03-24T09:15:31.486Z</time></trkpt><trkpt lat="43.118101" lon="12.650175"><ele>653.0</ele><time>2026-03-24T09:15:32.486Z</time></trkpt><trkpt lat="43.1179609" lon="12.6502469"><ele>653.0</ele><time>2026-03-24T09:15:33.487Z</time></trkpt><trkpt lat="43.1178044" lon="12.650327"><ele>649.6666666666666</ele><time>2026-03-24T09:15:34.487Z</time></trkpt><trkpt lat="43.1176411" lon="12.650427"><ele>646.3333333333334</ele><time>2026-03-24T09:15:35.486Z</time></trkpt><trkpt lat="43.1174841" lon="12.6505252"><ele>643.0</ele><time>2026-03-24T09:15:36.486Z</time></trkpt><trkpt lat="43.117339" lon="12.6506543"><ele>642.3333333333334</ele><time>2026-03-24T09:15:37.487Z</time></trkpt><trkpt lat="43.1171733" lon="12.6507677"><ele>641.6666666666666</ele><time>2026-03-24T09:15:38.486Z</time></trkpt><trkpt lat="43.1170022" lon="12.6508759"><ele>641.0</ele><time>2026-03-24T09:15:39.487Z</time></trkpt><trkpt lat="43.1168306" lon="12.6509771"><ele>641.0</ele><time>2026-03-24T09:15:40.486Z</time></trkpt><trkpt lat="43.1166646" lon="12.6510836"><ele>641.0</ele><time>2026-03-24T09:15:41.487Z</time></trkpt><trkpt lat="43.1165091" lon="12.6511863"><ele>641.0</ele><time>2026-03-24T09:15:42.487Z</time></trkpt><trkpt lat="43.1163535" lon="12.6512851"><ele>639.25</ele><time>2026-03-24T09:15:43.486Z</time></trkpt><trkpt lat="43.1162154" lon="12.6513745"><ele>637.5</ele><time>2026-03-24T09:15:44.486Z</time></trkpt><trkpt lat="43.1160845" lon="12.6514564"><ele>635.75</ele><time>2026-03-24T09:15:45.485Z</time></trkpt><trkpt lat="43.1159643" lon="12.6515407"><ele>634.0</ele><time>2026-03-24T09:15:46.486Z</time></trkpt><trkpt lat="43.1158486" lon="12.6516137"><ele>633.0</ele><time>2026-03-24T09:15:47.486Z</time></trkpt><trkpt lat="43.1157252" lon="12.6516942"><ele>632.0</ele><time>2026-03-24T09:15:48.485Z</time></trkpt><trkpt lat="43.1155907" lon="12.6517477"><ele>631.0</ele><time>2026-03-24T09:15:49.486Z</time></trkpt><trkpt lat="43.1154614" lon="12.6517822"><ele>630.0</ele><time>2026-03-24T09:15:50.487Z</time></trkpt><trkpt lat="43.1153189" lon="12.65181"><ele>630.0</ele><time>2026-03-24T09:15:51.487Z</time></trkpt><trkpt lat="43.1152012" lon="12.6518217"><ele>630.0</ele><time>2026-03-24T09:15:52.486Z</time></trkpt><trkpt lat="43.1150898" lon="12.6518358"><ele>630.0</ele><time>2026-03-24T09:15:53.487Z</time></trkpt><trkpt lat="43.1149963" lon="12.6518635"><ele>630.0</ele><time>2026-03-24T09:15:54.485Z</time></trkpt><trkpt lat="43.11494" lon="12.6519122"><ele>630.0</ele><time>2026-03-24T09:15:55.486Z</time></trkpt><trkpt lat="43.1148824" lon="12.6519636"><ele>629.2</ele><time>2026-03-24T09:15:56.487Z</time></trkpt><trkpt lat="43.114816" lon="12.6520465"><ele>628.4</ele><time>2026-03-24T09:15:57.486Z</time></trkpt><trkpt lat="43.1147608" lon="12.6521392"><ele>627.6</ele><time>2026-03-24T09:15:58.486Z</time></trkpt><trkpt lat="43.1146764" lon="12.6522413"><ele>626.8</ele><time>2026-03-24T09:15:59.486Z</time></trkpt><trkpt lat="43.1146296" lon="12.6523338"><ele>626.0</ele><time>2026-03-24T09:16:00.486Z</time></trkpt><trkpt lat="43.1145776" lon="12.6524399"><ele>626.0</ele><time>2026-03-24T09:16:01.487Z</time></trkpt><trkpt lat="43.114518" lon="12.6525495"><ele>626.0</ele><time>2026-03-24T09:16:02.485Z</time></trkpt><trkpt lat="43.1144663" lon="12.6526722"><ele>626.0</ele><time>2026-03-24T09:16:03.485Z</time></trkpt><trkpt lat="43.1144091" lon="12.6527834"><ele>626.0</ele><time>2026-03-24T09:16:04.486Z</time></trkpt><trkpt lat="43.1143546" lon="12.6528955"><ele>626.0</ele><time>2026-03-24T09:16:05.485Z</time></trkpt><trkpt lat="43.114315" lon="12.6529717"><ele>624.8</ele><time>2026-03-24T09:16:06.485Z</time></trkpt><trkpt lat="43.1142621" lon="12.6530614"><ele>623.6</ele><time>2026-03-24T09:16:07.485Z</time></trkpt><trkpt lat="43.1142154" lon="12.6531745"><ele>622.4</ele><time>2026-03-24T09:16:08.486Z</time></trkpt><trkpt lat="43.1141679" lon="12.6532759"><ele>621.2</ele><time>2026-03-24T09:16:09.485Z</time></trkpt><trkpt lat="43.1141252" lon="12.653405"><ele>620.0</ele><time>2026-03-24T09:16:10.486Z</time></trkpt><trkpt lat="43.114092" lon="12.6535197"><ele>620.8</ele><time>2026-03-24T09:16:11.485Z</time></trkpt><trkpt lat="43.1140673" lon="12.653618"><ele>621.6</ele><time>2026-03-24T09:16:12.485Z</time></trkpt><trkpt lat="43.1140419" lon="12.6537309"><ele>622.4</ele><time>2026-03-24T09:16:13.486Z</time></trkpt><trkpt lat="43.1139884" lon="12.6539083"><ele>623.2</ele><time>2026-03-24T09:16:15.485Z</time></trkpt><trkpt lat="43.1139641" lon="12.6540054"><ele>624.0</ele><time>2026-03-24T09:16:16.487Z</time></trkpt><trkpt lat="43.1139217" lon="12.6541004"><ele>622.0</ele><time>2026-03-24T09:16:17.486Z</time></trkpt><trkpt lat="43.1138758" lon="12.6542138"><ele>620.0</ele><time>2026-03-24T09:16:18.486Z</time></trkpt><trkpt lat="43.1138214" lon="12.6543177"><ele>618.0</ele><time>2026-03-24T09:16:19.485Z</time></trkpt><trkpt lat="43.1137701" lon="12.6544183"><ele>616.0</ele><time>2026-03-24T09:16:20.485Z</time></trkpt><trkpt lat="43.1137142" lon="12.6545127"><ele>614.0</ele><time>2026-03-24T09:16:21.486Z</time></trkpt><trkpt lat="43.1136296" lon="12.6546073"><ele>611.8333333333333</ele><time>2026-03-24T09:16:22.486Z</time></trkpt><trkpt lat="43.1135597" lon="12.6546944"><ele>609.6666666666666</ele><time>2026-03-24T09:16:23.485Z</time></trkpt><trkpt lat="43.1135027" lon="12.6547754"><ele>607.5</ele><time>2026-03-24T09:16:24.488Z</time></trkpt><trkpt lat="43.1134507" lon="12.6548677"><ele>605.3333333333334</ele><time>2026-03-24T09:16:25.485Z</time></trkpt><trkpt lat="43.113394" lon="12.6549551"><ele>603.1666666666667</ele><time>2026-03-24T09:16:26.487Z</time></trkpt><trkpt lat="43.1133319" lon="12.6550548"><ele>601.0</ele><time>2026-03-24T09:16:27.488Z</time></trkpt><trkpt lat="43.1132856" lon="12.655153"><ele>600.1666666666667</ele><time>2026-03-24T09:16:28.485Z</time></trkpt><trkpt lat="43.1132351" lon="12.6552584"><ele>599.3333333333334</ele><time>2026-03-24T09:16:29.488Z</time></trkpt><trkpt lat="43.1131954" lon="12.6553461"><ele>598.5</ele><time>2026-03-24T09:16:30.485Z</time></trkpt><trkpt lat="43.1131443" lon="12.6554403"><ele>597.6666666666666</ele><time>2026-03-24T09:16:31.485Z</time></trkpt><trkpt lat="43.1130981" lon="12.6555344"><ele>596.8333333333333</ele><time>2026-03-24T09:16:32.486Z</time></trkpt><trkpt lat="43.1130526" lon="12.6556075"><ele>596.0</ele><time>2026-03-24T09:16:33.487Z</time></trkpt><trkpt lat="43.1129924" lon="12.6556847"><ele>596.0</ele><time>2026-03-24T09:16:34.485Z</time></trkpt><trkpt lat="43.1129406" lon="12.6557481"><ele>596.0</ele><time>2026-03-24T09:16:35.486Z</time></trkpt><trkpt lat="43.1128852" lon="12.6558075"><ele>596.0</ele><time>2026-03-24T09:16:36.486Z</time></trkpt><trkpt lat="43.1128237" lon="12.6558646"><ele>596.0</ele><time>2026-03-24T09:16:37.487Z</time></trkpt><trkpt lat="43.1127718" lon="12.6559194"><ele>596.0</ele><time>2026-03-24T09:16:38.487Z</time></trkpt><trkpt lat="43.1127122" lon="12.6559727"><ele>596.0</ele><time>2026-03-24T09:16:39.486Z</time></trkpt><trkpt lat="43.1126502" lon="12.65602"><ele>596.0</ele><time>2026-03-24T09:16:40.485Z</time></trkpt><trkpt lat="43.1125867" lon="12.6560736"><ele>593.3333333333333</ele><time>2026-03-24T09:16:41.486Z</time></trkpt><trkpt lat="43.1125198" lon="12.656135"><ele>590.6666666666666</ele><time>2026-03-24T09:16:42.486Z</time></trkpt><trkpt lat="43.1124526" lon="12.656203"><ele>588.0</ele><time>2026-03-24T09:16:43.485Z</time></trkpt><trkpt lat="43.1123756" lon="12.6562679"><ele>585.3333333333334</ele><time>2026-03-24T09:16:44.486Z</time></trkpt><trkpt lat="43.1123133" lon="12.6562919"><ele>582.6666666666667</ele><time>2026-03-24T09:16:45.485Z</time></trkpt><trkpt lat="43.1122337" lon="12.6563111"><ele>580.0</ele><time>2026-03-24T09:16:46.487Z</time></trkpt><trkpt lat="43.1121636" lon="12.6563262"><ele>579.1666666666667</ele><time>2026-03-24T09:16:47.486Z</time></trkpt><trkpt lat="43.1120764" lon="12.6563575"><ele>578.3333333333334</ele><time>2026-03-24T09:16:48.486Z</time></trkpt><trkpt lat="43.111996" lon="12.6563668"><ele>577.5</ele><time>2026-03-24T09:16:49.487Z</time></trkpt><trkpt lat="43.1119116" lon="12.6563548"><ele>576.6666666666666</ele><time>2026-03-24T09:16:50.486Z</time></trkpt><trkpt lat="43.1118289" lon="12.656329"><ele>575.8333333333333</ele><time>2026-03-24T09:16:51.486Z</time></trkpt><trkpt lat="43.1117381" lon="12.656308"><ele>575.0</ele><time>2026-03-24T09:16:52.485Z</time></trkpt><trkpt lat="43.11165" lon="12.6562911"><ele>572.5</ele><time>2026-03-24T09:16:53.486Z</time></trkpt><trkpt lat="43.1115582" lon="12.6562838"><ele>570.0</ele><time>2026-03-24T09:16:54.485Z</time></trkpt><trkpt lat="43.1114706" lon="12.6562874"><ele>567.5</ele><time>2026-03-24T09:16:55.486Z</time></trkpt><trkpt lat="43.111387" lon="12.6563028"><ele>565.0</ele><time>2026-03-24T09:16:56.487Z</time></trkpt><trkpt lat="43.1113007" lon="12.6563306"><ele>562.5</ele><time>2026-03-24T09:16:57.486Z</time></trkpt><trkpt lat="43.1112082" lon="12.6563641"><ele>560.0</ele><time>2026-03-24T09:16:58.487Z</time></trkpt><trkpt lat="43.1111305" lon="12.6563925"><ele>560.0</ele><time>2026-03-24T09:16:59.487Z</time></trkpt><trkpt lat="43.1110663" lon="12.6563705"><ele>560.0</ele><time>2026-03-24T09:17:00.486Z</time></trkpt><trkpt lat="43.1110079" lon="12.6563242"><ele>560.0</ele><time>2026-03-24T09:17:01.486Z</time></trkpt><trkpt lat="43.1109509" lon="12.6562522"><ele>560.0</ele><time>2026-03-24T09:17:02.485Z</time></trkpt><trkpt lat="43.1108897" lon="12.6561239"><ele>560.0</ele><time>2026-03-24T09:17:03.486Z</time></trkpt><trkpt lat="43.1108426" lon="12.6559803"><ele>560.0</ele><time>2026-03-24T09:17:04.487Z</time></trkpt><trkpt lat="43.1107909" lon="12.6558509"><ele>561.0</ele><time>2026-03-24T09:17:05.487Z</time></trkpt><trkpt lat="43.1107429" lon="12.6557309"><ele>562.0</ele><time>2026-03-24T09:17:06.487Z</time></trkpt><trkpt lat="43.1106839" lon="12.6556287"><ele>563.0</ele><time>2026-03-24T09:17:07.485Z</time></trkpt><trkpt lat="43.11062" lon="12.6555495"><ele>564.0</ele><time>2026-03-24T09:17:08.487Z</time></trkpt><trkpt lat="43.1105488" lon="12.6554812"><ele>565.0</ele><time>2026-03-24T09:17:09.486Z</time></trkpt><trkpt lat="43.1104403" lon="12.6554424"><ele>561.25</ele><time>2026-03-24T09:17:10.486Z</time></trkpt><trkpt lat="43.1103284" lon="12.6554464"><ele>557.5</ele><time>2026-03-24T09:17:11.486Z</time></trkpt><trkpt lat="43.1102142" lon="12.6554647"><ele>553.75</ele><time>2026-03-24T09:17:12.486Z</time></trkpt><trkpt lat="43.1101122" lon="12.6554816"><ele>550.0</ele><time>2026-03-24T09:17:13.486Z</time></trkpt><trkpt lat="43.1099897" lon="12.6554966"><ele>547.4</ele><time>2026-03-24T09:17:14.487Z</time></trkpt><trkpt lat="43.1098903" lon="12.6554942"><ele>544.8</ele><time>2026-03-24T09:17:15.487Z</time></trkpt><trkpt lat="43.1097915" lon="12.6554885"><ele>542.2</ele><time>2026-03-24T09:17:16.486Z</time></trkpt><trkpt lat="43.1096727" lon="12.6554843"><ele>539.6</ele><time>2026-03-24T09:17:17.487Z</time></trkpt><trkpt lat="43.1095662" lon="12.6554609"><ele>537.0</ele><time>2026-03-24T09:17:18.485Z</time></trkpt><trkpt lat="43.1094567" lon="12.6554557"><ele>537.0</ele><time>2026-03-24T09:17:19.487Z</time></trkpt><trkpt lat="43.1093574" lon="12.655451"><ele>537.0</ele><time>2026-03-24T09:17:20.486Z</time></trkpt><trkpt lat="43.10927" lon="12.6554318"><ele>537.0</ele><time>2026-03-24T09:17:21.488Z</time></trkpt><trkpt lat="43.1091972" lon="12.6554276"><ele>537.0</ele><time>2026-03-24T09:17:22.486Z</time></trkpt><trkpt lat="43.1091199" lon="12.655439"><ele>537.0</ele><time>2026-03-24T09:17:23.485Z</time></trkpt><trkpt lat="43.1090384" lon="12.6554466"><ele>537.0</ele><time>2026-03-24T09:17:25.486Z</time></trkpt><trkpt lat="43.1089719" lon="12.6554852"><ele>534.2</ele><time>2026-03-24T09:17:31.487Z</time></trkpt><trkpt lat="43.108909" lon="12.655542"><ele>531.4000000000001</ele><time>2026-03-24T09:17:35.487Z</time></trkpt><trkpt lat="43.1088359" lon="12.6555874"><ele>528.5999999999999</ele><time>2026-03-24T09:17:37.487Z</time></trkpt><trkpt lat="43.1087225" lon="12.6556561"><ele>525.8</ele><time>2026-03-24T09:17:39.488Z</time></trkpt><trkpt lat="43.1085975" lon="12.6557056"><ele>523.0</ele><time>2026-03-24T09:17:41.486Z</time></trkpt><trkpt lat="43.108538" lon="12.655742"><ele>523.0</ele><time>2026-03-24T09:17:42.487Z</time></trkpt><trkpt lat="43.1084722" lon="12.6557719"><ele>523.0</ele><time>2026-03-24T09:17:43.487Z</time></trkpt><trkpt lat="43.1083599" lon="12.6558123"><ele>523.0</ele><time>2026-03-24T09:17:45.487Z</time></trkpt><trkpt lat="43.1082831" lon="12.6558607"><ele>523.0</ele><time>2026-03-24T09:17:47.486Z</time></trkpt><trkpt lat="43.1082056" lon="12.6559012"><ele>523.0</ele><time>2026-03-24T09:17:49.486Z</time></trkpt><trkpt lat="43.1081277" lon="12.6559377"><ele>523.0</ele><time>2026-03-24T09:17:51.486Z</time></trkpt><trkpt lat="43.1080306" lon="12.655995"><ele>522.9999999999999</ele><time>2026-03-24T09:17:53.488Z</time></trkpt><trkpt lat="43.107982" lon="12.6560533"><ele>523.0</ele><time>2026-03-24T09:17:54.487Z</time></trkpt><trkpt lat="43.1079223" lon="12.6560991"><ele>523.0</ele><time>2026-03-24T09:17:55.487Z</time></trkpt><trkpt lat="43.1078741" lon="12.6561556"><ele>523.0</ele><time>2026-03-24T09:17:56.487Z</time></trkpt><trkpt lat="43.1078236" lon="12.6562151"><ele>523.0</ele><time>2026-03-24T09:17:57.487Z</time></trkpt><trkpt lat="43.1077693" lon="12.6562719"><ele>522.9999999999999</ele><time>2026-03-24T09:17:58.486Z</time></trkpt><trkpt lat="43.1077025" lon="12.6563207"><ele>523.0</ele><time>2026-03-24T09:17:59.487Z</time></trkpt><trkpt lat="43.1076395" lon="12.6563716"><ele>523.0</ele><time>2026-03-24T09:18:00.487Z</time></trkpt><trkpt lat="43.1075844" lon="12.6564249"><ele>523.0</ele><time>2026-03-24T09:18:01.487Z</time></trkpt><trkpt lat="43.1075202" lon="12.6564445"><ele>523.0</ele><time>2026-03-24T09:18:02.486Z</time></trkpt><trkpt lat="43.1074298" lon="12.6564689"><ele>523.0</ele><time>2026-03-24T09:18:03.487Z</time></trkpt><trkpt lat="43.1073191" lon="12.6564704"><ele>523.0</ele><time>2026-03-24T09:18:04.486Z</time></trkpt><trkpt lat="43.1071874" lon="12.6564678"><ele>522.6666666666667</ele><time>2026-03-24T09:18:05.488Z</time></trkpt><trkpt lat="43.1070254" lon="12.6564768"><ele>522.3333333333334</ele><time>2026-03-24T09:18:06.487Z</time></trkpt><trkpt lat="43.1068778" lon="12.656498"><ele>522.0</ele><time>2026-03-24T09:18:07.487Z</time></trkpt><trkpt lat="43.1067289" lon="12.6565121"><ele>522.0</ele><time>2026-03-24T09:18:08.485Z</time></trkpt><trkpt lat="43.106588" lon="12.6565266"><ele>522.0</ele><time>2026-03-24T09:18:09.486Z</time></trkpt><trkpt lat="43.1064608" lon="12.6565227"><ele>522.0</ele><time>2026-03-24T09:18:10.486Z</time></trkpt><trkpt lat="43.1063351" lon="12.6565134"><ele>522.0</ele><time>2026-03-24T09:18:11.486Z</time></trkpt><trkpt lat="43.1062051" lon="12.6565339"><ele>520.75</ele><time>2026-03-24T09:18:12.487Z</time></trkpt><trkpt lat="43.1060963" lon="12.6565942"><ele>519.5</ele><time>2026-03-24T09:18:13.487Z</time></trkpt><trkpt lat="43.1060033" lon="12.6566875"><ele>518.25</ele><time>2026-03-24T09:18:14.485Z</time></trkpt><trkpt lat="43.1059156" lon="12.6567918"><ele>517.0</ele><time>2026-03-24T09:18:15.487Z</time></trkpt><trkpt lat="43.1058131" lon="12.6569179"><ele>516.75</ele><time>2026-03-24T09:18:16.486Z</time></trkpt><trkpt lat="43.1057077" lon="12.6570548"><ele>516.5</ele><time>2026-03-24T09:18:17.487Z</time></trkpt><trkpt lat="43.10559" lon="12.6571931"><ele>516.25</ele><time>2026-03-24T09:18:18.485Z</time></trkpt><trkpt lat="43.1054767" lon="12.6572892"><ele>516.0</ele><time>2026-03-24T09:18:19.486Z</time></trkpt><trkpt lat="43.1053468" lon="12.6573925"><ele>516.0</ele><time>2026-03-24T09:18:20.486Z</time></trkpt><trkpt lat="43.1052365" lon="12.6574775"><ele>516.0</ele><time>2026-03-24T09:18:21.486Z</time></trkpt><trkpt lat="43.1051102" lon="12.6575594"><ele>516.0</ele><time>2026-03-24T09:18:22.487Z</time></trkpt><trkpt lat="43.1049898" lon="12.6575987"><ele>516.0</ele><time>2026-03-24T09:18:23.486Z</time></trkpt><trkpt lat="43.1048746" lon="12.6576458"><ele>513.2</ele><time>2026-03-24T09:18:24.487Z</time></trkpt><trkpt lat="43.1047604" lon="12.6576674"><ele>510.40000000000003</ele><time>2026-03-24T09:18:25.487Z</time></trkpt><trkpt lat="43.1046533" lon="12.6576883"><ele>507.6</ele><time>2026-03-24T09:18:26.487Z</time></trkpt><trkpt lat="43.1045771" lon="12.6576442"><ele>504.8</ele><time>2026-03-24T09:18:27.487Z</time></trkpt><trkpt lat="43.1045075" lon="12.6575791"><ele>502.0</ele><time>2026-03-24T09:18:28.485Z</time></trkpt><trkpt lat="43.1044685" lon="12.6574604"><ele>502.0</ele><time>2026-03-24T09:18:29.486Z</time></trkpt><trkpt lat="43.1044571" lon="12.6573356"><ele>502.00000000000006</ele><time>2026-03-24T09:18:30.486Z</time></trkpt><trkpt lat="43.1044454" lon="12.6572073"><ele>502.00000000000006</ele><time>2026-03-24T09:18:31.487Z</time></trkpt><trkpt lat="43.1044219" lon="12.6570553"><ele>502.0</ele><time>2026-03-24T09:18:32.488Z</time></trkpt><trkpt lat="43.1044021" lon="12.6569085"><ele>502.0</ele><time>2026-03-24T09:18:33.487Z</time></trkpt><trkpt lat="43.1043758" lon="12.6567642"><ele>501.0</ele><time>2026-03-24T09:18:34.487Z</time></trkpt><trkpt lat="43.1043591" lon="12.6566205"><ele>500.00000000000006</ele><time>2026-03-24T09:18:35.487Z</time></trkpt><trkpt lat="43.1043112" lon="12.6564231"><ele>499.00000000000006</ele><time>2026-03-24T09:18:37.487Z</time></trkpt><trkpt lat="43.1042481" lon="12.6563927"><ele>498.0</ele><time>2026-03-24T09:18:38.486Z</time></trkpt><trkpt lat="43.1041862" lon="12.6564138"><ele>497.0</ele><time>2026-03-24T09:18:39.485Z</time></trkpt><trkpt lat="43.1041146" lon="12.6564412"><ele>492.25</ele><time>2026-03-24T09:18:40.487Z</time></trkpt><trkpt lat="43.1040585" lon="12.6564866"><ele>487.5</ele><time>2026-03-24T09:18:41.486Z</time></trkpt><trkpt lat="43.1039524" lon="12.6566172"><ele>482.75</ele><time>2026-03-24T09:18:42.487Z</time></trkpt><trkpt lat="43.1038545" lon="12.6567171"><ele>478.0</ele><time>2026-03-24T09:18:43.486Z</time></trkpt><trkpt lat="43.1037707" lon="12.6568607"><ele>479.0</ele><time>2026-03-24T09:18:44.487Z</time></trkpt><trkpt lat="43.1036996" lon="12.6569762"><ele>479.99999999999994</ele><time>2026-03-24T09:18:45.487Z</time></trkpt><trkpt lat="43.1036557" lon="12.6571003"><ele>480.99999999999994</ele><time>2026-03-24T09:18:46.487Z</time></trkpt><trkpt lat="43.1036096" lon="12.6572223"><ele>482.0</ele><time>2026-03-24T09:18:47.487Z</time></trkpt><trkpt lat="43.1035534" lon="12.6573557"><ele>483.0</ele><time>2026-03-24T09:18:48.487Z</time></trkpt><trkpt lat="43.1034852" lon="12.6574986"><ele>483.0</ele><time>2026-03-24T09:18:49.485Z</time></trkpt><trkpt lat="43.1033992" lon="12.6576337"><ele>483.0</ele><time>2026-03-24T09:18:50.486Z</time></trkpt><trkpt lat="43.1032814" lon="12.6577461"><ele>483.0</ele><time>2026-03-24T09:18:51.486Z</time></trkpt><trkpt lat="43.1031985" lon="12.6578234"><ele>483.0</ele><time>2026-03-24T09:18:52.487Z</time></trkpt><trkpt lat="43.1030755" lon="12.6578629"><ele>480.5</ele><time>2026-03-24T09:18:53.487Z</time></trkpt><trkpt lat="43.1029417" lon="12.6578894"><ele>478.0</ele><time>2026-03-24T09:18:54.487Z</time></trkpt><trkpt lat="43.1028149" lon="12.6578907"><ele>475.5</ele><time>2026-03-24T09:18:55.485Z</time></trkpt><trkpt lat="43.1026814" lon="12.6578726"><ele>473.0</ele><time>2026-03-24T09:18:56.486Z</time></trkpt><trkpt lat="43.1025496" lon="12.6578326"><ele>472.2</ele><time>2026-03-24T09:18:57.487Z</time></trkpt><trkpt lat="43.1024291" lon="12.6577817"><ele>471.4</ele><time>2026-03-24T09:18:58.486Z</time></trkpt><trkpt lat="43.1023354" lon="12.6576991"><ele>470.59999999999997</ele><time>2026-03-24T09:18:59.486Z</time></trkpt><trkpt lat="43.1022562" lon="12.6576065"><ele>469.79999999999995</ele><time>2026-03-24T09:19:00.486Z</time></trkpt><trkpt lat="43.1022105" lon="12.6574801"><ele>469.0</ele><time>2026-03-24T09:19:01.486Z</time></trkpt><trkpt lat="43.1022001" lon="12.6573362"><ele>465.5</ele><time>2026-03-24T09:19:02.485Z</time></trkpt><trkpt lat="43.1021985" lon="12.6571835"><ele>462.0</ele><time>2026-03-24T09:19:03.486Z</time></trkpt><trkpt lat="43.1022105" lon="12.6570228"><ele>458.5</ele><time>2026-03-24T09:19:04.486Z</time></trkpt><trkpt lat="43.1022235" lon="12.6568726"><ele>455.0</ele><time>2026-03-24T09:19:05.486Z</time></trkpt><trkpt lat="43.1022303" lon="12.6567219"><ele>455.0</ele><time>2026-03-24T09:19:06.487Z</time></trkpt><trkpt lat="43.1022049" lon="12.6566013"><ele>455.0</ele><time>2026-03-24T09:19:07.487Z</time></trkpt><trkpt lat="43.1021539" lon="12.6565074"><ele>455.0</ele><time>2026-03-24T09:19:08.487Z</time></trkpt><trkpt lat="43.102087" lon="12.656454"><ele>455.0</ele><time>2026-03-24T09:19:09.485Z</time></trkpt><trkpt lat="43.101986" lon="12.6564765"><ele>455.0</ele><time>2026-03-24T09:19:10.485Z</time></trkpt><trkpt lat="43.10189" lon="12.6564832"><ele>455.0</ele><time>2026-03-24T09:19:11.487Z</time></trkpt><trkpt lat="43.1017824" lon="12.6564969"><ele>455.0</ele><time>2026-03-24T09:19:12.486Z</time></trkpt><trkpt lat="43.1016546" lon="12.656485"><ele>455.0</ele><time>2026-03-24T09:19:13.486Z</time></trkpt><trkpt lat="43.1015102" lon="12.6564704"><ele>455.0</ele><time>2026-03-24T09:19:14.486Z</time></trkpt><trkpt lat="43.1013747" lon="12.6564323"><ele>453.0</ele><time>2026-03-24T09:19:15.487Z</time></trkpt><trkpt lat="43.1012485" lon="12.6564013"><ele>451.0</ele><time>2026-03-24T09:19:16.487Z</time></trkpt><trkpt lat="43.1011256" lon="12.6563845"><ele>449.0</ele><time>2026-03-24T09:19:17.486Z</time></trkpt><trkpt lat="43.1010057" lon="12.656378"><ele>447.0</ele><time>2026-03-24T09:19:18.485Z</time></trkpt><trkpt lat="43.1009009" lon="12.6563784"><ele>447.0</ele><time>2026-03-24T09:19:19.486Z</time></trkpt><trkpt lat="43.1007829" lon="12.6563938"><ele>447.0</ele><time>2026-03-24T09:19:20.486Z</time></trkpt><trkpt lat="43.1006683" lon="12.6564267"><ele>447.0</ele><time>2026-03-24T09:19:21.486Z</time></trkpt><trkpt lat="43.1005475" lon="12.6564722"><ele>447.0</ele><time>2026-03-24T09:19:22.486Z</time></trkpt><trkpt lat="43.1004273" lon="12.6565339"><ele>445.0</ele><time>2026-03-24T09:19:23.486Z</time></trkpt><trkpt lat="43.100301" lon="12.6565975"><ele>443.0</ele><time>2026-03-24T09:19:24.487Z</time></trkpt><trkpt lat="43.1001759" lon="12.6566534"><ele>441.0</ele><time>2026-03-24T09:19:25.486Z</time></trkpt><trkpt lat="43.1000577" lon="12.6567026"><ele>439.0</ele><time>2026-03-24T09:19:26.487Z</time></trkpt><trkpt lat="43.0999452" lon="12.6567407"><ele>437.0</ele><time>2026-03-24T09:19:27.485Z</time></trkpt><trkpt lat="43.0998267" lon="12.6567775"><ele>435.0</ele><time>2026-03-24T09:19:28.487Z</time></trkpt><trkpt lat="43.0996998" lon="12.656802"><ele>433.0</ele><time>2026-03-24T09:19:29.487Z</time></trkpt><trkpt lat="43.0995755" lon="12.65682"><ele>431.0</ele><time>2026-03-24T09:19:30.486Z</time></trkpt><trkpt lat="43.0994451" lon="12.6568382"><ele>431.0</ele><time>2026-03-24T09:19:31.486Z</time></trkpt><trkpt lat="43.0993209" lon="12.6568418"><ele>431.0</ele><time>2026-03-24T09:19:32.487Z</time></trkpt><trkpt lat="43.09919" lon="12.6568279"><ele>431.0</ele><time>2026-03-24T09:19:33.486Z</time></trkpt><trkpt lat="43.0990714" lon="12.6567793"><ele>431.0</ele><time>2026-03-24T09:19:34.487Z</time></trkpt><trkpt lat="43.0989435" lon="12.6567489"><ele>428.5</ele><time>2026-03-24T09:19:35.487Z</time></trkpt><trkpt lat="43.0988215" lon="12.6567429"><ele>426.0</ele><time>2026-03-24T09:19:36.487Z</time></trkpt><trkpt lat="43.0987083" lon="12.6567545"><ele>423.5</ele><time>2026-03-24T09:19:37.487Z</time></trkpt><trkpt lat="43.0985984" lon="12.6568077"><ele>421.0</ele><time>2026-03-24T09:19:38.486Z</time></trkpt><trkpt lat="43.098483" lon="12.6568672"><ele>420.8</ele><time>2026-03-24T09:19:39.487Z</time></trkpt><trkpt lat="43.0984079" lon="12.6569596"><ele>420.6</ele><time>2026-03-24T09:19:40.486Z</time></trkpt><trkpt lat="43.0983313" lon="12.6570503"><ele>420.4</ele><time>2026-03-24T09:19:41.487Z</time></trkpt><trkpt lat="43.0982478" lon="12.6570137"><ele>420.2</ele><time>2026-03-24T09:19:43.487Z</time></trkpt><trkpt lat="43.0981874" lon="12.6569651"><ele>420.0</ele><time>2026-03-24T09:19:44.487Z</time></trkpt><trkpt lat="43.0981192" lon="12.6568722"><ele>416.25</ele><time>2026-03-24T09:19:45.488Z</time></trkpt><trkpt lat="43.0980712" lon="12.656708"><ele>412.5</ele><time>2026-03-24T09:19:46.486Z</time></trkpt><trkpt lat="43.0980173" lon="12.656544"><ele>408.75</ele><time>2026-03-24T09:19:47.487Z</time></trkpt><trkpt lat="43.0979603" lon="12.6563826"><ele>405.0</ele><time>2026-03-24T09:19:48.487Z</time></trkpt><trkpt lat="43.097889" lon="12.6562178"><ele>404.25</ele><time>2026-03-24T09:19:49.487Z</time></trkpt><trkpt lat="43.0978013" lon="12.6560881"><ele>403.5</ele><time>2026-03-24T09:19:50.486Z</time></trkpt><trkpt lat="43.0977147" lon="12.6559373"><ele>402.75</ele><time>2026-03-24T09:19:51.486Z</time></trkpt><trkpt lat="43.0976312" lon="12.6558054"><ele>402.0</ele><time>2026-03-24T09:19:52.487Z</time></trkpt><trkpt lat="43.0975506" lon="12.6556735"><ele>402.0</ele><time>2026-03-24T09:19:53.488Z</time></trkpt><trkpt lat="43.0974844" lon="12.6555365"><ele>402.0</ele><time>2026-03-24T09:19:54.486Z</time></trkpt><trkpt lat="43.09742" lon="12.6553917"><ele>402.0</ele><time>2026-03-24T09:19:55.487Z</time></trkpt><trkpt lat="43.0973699" lon="12.6552471"><ele>402.0</ele><time>2026-03-24T09:19:56.488Z</time></trkpt><trkpt lat="43.0973288" lon="12.6550881"><ele>399.5</ele><time>2026-03-24T09:19:57.488Z</time></trkpt><trkpt lat="43.0973005" lon="12.6549302"><ele>397.0</ele><time>2026-03-24T09:19:58.487Z</time></trkpt><trkpt lat="43.0972932" lon="12.6547594"><ele>394.5</ele><time>2026-03-24T09:19:59.485Z</time></trkpt><trkpt lat="43.0972887" lon="12.6545858"><ele>392.0</ele><time>2026-03-24T09:20:00.487Z</time></trkpt><trkpt lat="43.0973061" lon="12.6544154"><ele>390.40000000000003</ele><time>2026-03-24T09:20:01.486Z</time></trkpt><trkpt lat="43.0973162" lon="12.6542474"><ele>388.8</ele><time>2026-03-24T09:20:02.488Z</time></trkpt><trkpt lat="43.0973398" lon="12.6541043"><ele>387.2</ele><time>2026-03-24T09:20:03.486Z</time></trkpt><trkpt lat="43.0973477" lon="12.6539515"><ele>385.6</ele><time>2026-03-24T09:20:04.487Z</time></trkpt><trkpt lat="43.0973604" lon="12.6538351"><ele>384.0</ele><time>2026-03-24T09:20:05.487Z</time></trkpt><trkpt lat="43.097303" lon="12.6537244"><ele>384.0</ele><time>2026-03-24T09:20:06.487Z</time></trkpt><trkpt lat="43.0972267" lon="12.6536483"><ele>384.0</ele><time>2026-03-24T09:20:07.487Z</time></trkpt><trkpt lat="43.0971438" lon="12.6535769"><ele>384.0</ele><time>2026-03-24T09:20:08.486Z</time></trkpt><trkpt lat="43.0970065" lon="12.6535814"><ele>384.0</ele><time>2026-03-24T09:20:09.487Z</time></trkpt><trkpt lat="43.0968986" lon="12.6536042"><ele>384.0</ele><time>2026-03-24T09:20:10.487Z</time></trkpt><trkpt lat="43.096801" lon="12.6536704"><ele>384.0</ele><time>2026-03-24T09:20:11.486Z</time></trkpt><trkpt lat="43.0966878" lon="12.6537044"><ele>384.0</ele><time>2026-03-24T09:20:12.486Z</time></trkpt><trkpt lat="43.0965716" lon="12.6537343"><ele>384.0</ele><time>2026-03-24T09:20:13.487Z</time></trkpt><trkpt lat="43.0964552" lon="12.6537635"><ele>384.0</ele><time>2026-03-24T09:20:14.487Z</time></trkpt><trkpt lat="43.0963283" lon="12.6537575"><ele>379.75</ele><time>2026-03-24T09:20:15.487Z</time></trkpt><trkpt lat="43.0961955" lon="12.6537601"><ele>375.5</ele><time>2026-03-24T09:20:16.487Z</time></trkpt><trkpt lat="43.096064" lon="12.6537579"><ele>371.25</ele><time>2026-03-24T09:20:17.486Z</time></trkpt><trkpt lat="43.0959545" lon="12.6537458"><ele>367.0</ele><time>2026-03-24T09:20:18.487Z</time></trkpt><trkpt lat="43.0958493" lon="12.6537338"><ele>367.0</ele><time>2026-03-24T09:20:19.487Z</time></trkpt><trkpt lat="43.0957692" lon="12.6537211"><ele>367.0</ele><time>2026-03-24T09:20:20.486Z</time></trkpt><trkpt lat="43.0956789" lon="12.6537191"><ele>367.0</ele><time>2026-03-24T09:20:22.486Z</time></trkpt><trkpt lat="43.0956506" lon="12.6538051"><ele>367.0</ele><time>2026-03-24T09:20:25.486Z</time></trkpt><trkpt lat="43.0956904" lon="12.6540074"><ele>367.0</ele><time>2026-03-24T09:20:27.487Z</time></trkpt><trkpt lat="43.0957308" lon="12.6541534"><ele>367.0</ele><time>2026-03-24T09:20:28.486Z</time></trkpt><trkpt lat="43.0957868" lon="12.6543314"><ele>367.0</ele><time>2026-03-24T09:20:29.486Z</time></trkpt><trkpt lat="43.0958405" lon="12.6545303"><ele>367.0</ele><time>2026-03-24T09:20:30.488Z</time></trkpt><trkpt lat="43.0958994" lon="12.6547549"><ele>368.0</ele><time>2026-03-24T09:20:31.487Z</time></trkpt><trkpt lat="43.0959631" lon="12.6550032"><ele>369.0</ele><time>2026-03-24T09:20:32.487Z</time></trkpt><trkpt lat="43.0960327" lon="12.6552673"><ele>370.0</ele><time>2026-03-24T09:20:33.487Z</time></trkpt><trkpt lat="43.0961064" lon="12.6555466"><ele>370.0</ele><time>2026-03-24T09:20:34.486Z</time></trkpt><trkpt lat="43.0961719" lon="12.6558306"><ele>370.0</ele><time>2026-03-24T09:20:35.487Z</time></trkpt><trkpt lat="43.0962376" lon="12.6561281"><ele>370.0</ele><time>2026-03-24T09:20:36.487Z</time></trkpt><trkpt lat="43.0962841" lon="12.6564444"><ele>370.0</ele><time>2026-03-24T09:20:37.487Z</time></trkpt><trkpt lat="43.0963349" lon="12.656742"><ele>370.0</ele><time>2026-03-24T09:20:38.487Z</time></trkpt><trkpt lat="43.0963786" lon="12.6570348"><ele>370.0</ele><time>2026-03-24T09:20:39.486Z</time></trkpt><trkpt lat="43.0964139" lon="12.6573178"><ele>371.66666666666663</ele><time>2026-03-24T09:20:40.486Z</time></trkpt><trkpt lat="43.0964586" lon="12.6575931"><ele>373.3333333333333</ele><time>2026-03-24T09:20:41.487Z</time></trkpt><trkpt lat="43.0965315" lon="12.6578932"><ele>375.0</ele><time>2026-03-24T09:20:42.487Z</time></trkpt><trkpt lat="43.0966191" lon="12.6581929"><ele>376.0</ele><time>2026-03-24T09:20:43.487Z</time></trkpt><trkpt lat="43.0967278" lon="12.6585084"><ele>377.0</ele><time>2026-03-24T09:20:44.487Z</time></trkpt><trkpt lat="43.0968497" lon="12.6588476"><ele>377.0</ele><time>2026-03-24T09:20:45.487Z</time></trkpt><trkpt lat="43.0969433" lon="12.659211"><ele>377.0</ele><time>2026-03-24T09:20:46.487Z</time></trkpt><trkpt lat="43.0970146" lon="12.6595845"><ele>375.5</ele><time>2026-03-24T09:20:47.487Z</time></trkpt><trkpt lat="43.0970714" lon="12.6599404"><ele>374.0</ele><time>2026-03-24T09:20:48.486Z</time></trkpt><trkpt lat="43.0971064" lon="12.6602726"><ele>373.33333333333337</ele><time>2026-03-24T09:20:49.486Z</time></trkpt><trkpt lat="43.0971478" lon="12.660585"><ele>372.6666666666667</ele><time>2026-03-24T09:20:50.486Z</time></trkpt><trkpt lat="43.0971789" lon="12.6608736"><ele>372.0</ele><time>2026-03-24T09:20:51.487Z</time></trkpt><trkpt lat="43.0971988" lon="12.6611257"><ele>373.3333333333333</ele><time>2026-03-24T09:20:52.486Z</time></trkpt><trkpt lat="43.0972696" lon="12.6613788"><ele>374.66666666666663</ele><time>2026-03-24T09:20:53.487Z</time></trkpt><trkpt lat="43.0973744" lon="12.6616295"><ele>376.0</ele><time>2026-03-24T09:20:54.486Z</time></trkpt><trkpt lat="43.097499" lon="12.6618682"><ele>376.0</ele><time>2026-03-24T09:20:55.487Z</time></trkpt><trkpt lat="43.0976546" lon="12.6621442"><ele>376.0</ele><time>2026-03-24T09:20:56.486Z</time></trkpt><trkpt lat="43.0978115" lon="12.6624274"><ele>376.0</ele><time>2026-03-24T09:20:57.486Z</time></trkpt><trkpt lat="43.09796" lon="12.6627145"><ele>376.0</ele><time>2026-03-24T09:20:58.486Z</time></trkpt><trkpt lat="43.0981008" lon="12.6629871"><ele>376.0</ele><time>2026-03-24T09:20:59.487Z</time></trkpt><trkpt lat="43.0982455" lon="12.6632516"><ele>376.0</ele><time>2026-03-24T09:21:00.486Z</time></trkpt><trkpt lat="43.0983687" lon="12.6634908"><ele>376.66666666666663</ele><time>2026-03-24T09:21:01.487Z</time></trkpt><trkpt lat="43.0984924" lon="12.6637331"><ele>377.3333333333333</ele><time>2026-03-24T09:21:02.486Z</time></trkpt><trkpt lat="43.0986191" lon="12.6639625"><ele>378.0</ele><time>2026-03-24T09:21:03.486Z</time></trkpt><trkpt lat="43.0987361" lon="12.6641761"><ele>378.0</ele><time>2026-03-24T09:21:04.487Z</time></trkpt><trkpt lat="43.0988379" lon="12.6643906"><ele>378.0</ele><time>2026-03-24T09:21:05.487Z</time></trkpt><trkpt lat="43.0988501" lon="12.6646165"><ele>378.0</ele><time>2026-03-24T09:21:06.487Z</time></trkpt><trkpt lat="43.0988423" lon="12.6648363"><ele>377.6666666666667</ele><time>2026-03-24T09:21:07.486Z</time></trkpt><trkpt lat="43.0987945" lon="12.6650314"><ele>377.33333333333337</ele><time>2026-03-24T09:21:08.487Z</time></trkpt><trkpt lat="43.0987013" lon="12.6651961"><ele>377.0</ele><time>2026-03-24T09:21:09.486Z</time></trkpt><trkpt lat="43.0985605" lon="12.6653129"><ele>378.33333333333337</ele><time>2026-03-24T09:21:10.486Z</time></trkpt><trkpt lat="43.0984278" lon="12.6654588"><ele>379.6666666666667</ele><time>2026-03-24T09:21:11.486Z</time></trkpt><trkpt lat="43.0983006" lon="12.6656144"><ele>381.0</ele><time>2026-03-24T09:21:12.486Z</time></trkpt><trkpt lat="43.0982105" lon="12.6658048"><ele>381.0</ele><time>2026-03-24T09:21:13.487Z</time></trkpt><trkpt lat="43.0982924" lon="12.6660585"><ele>381.0</ele><time>2026-03-24T09:21:14.487Z</time></trkpt><trkpt lat="43.0983518" lon="12.6662871"><ele>381.0</ele><time>2026-03-24T09:21:15.486Z</time></trkpt><trkpt lat="43.0984118" lon="12.666542"><ele>381.3333333333333</ele><time>2026-03-24T09:21:16.486Z</time></trkpt><trkpt lat="43.0985042" lon="12.6667672"><ele>381.66666666666663</ele><time>2026-03-24T09:21:17.486Z</time></trkpt><trkpt lat="43.0986095" lon="12.6669463"><ele>382.0</ele><time>2026-03-24T09:21:18.486Z</time></trkpt><trkpt lat="43.0987537" lon="12.6670896"><ele>382.0</ele><time>2026-03-24T09:21:19.487Z</time></trkpt><trkpt lat="43.0989388" lon="12.6671962"><ele>382.0</ele><time>2026-03-24T09:21:20.487Z</time></trkpt><trkpt lat="43.0991449" lon="12.6673086"><ele>382.0</ele><time>2026-03-24T09:21:21.488Z</time></trkpt><trkpt lat="43.0993473" lon="12.6674044"><ele>384.0</ele><time>2026-03-24T09:21:22.486Z</time></trkpt><trkpt lat="43.0995543" lon="12.6674788"><ele>386.0</ele><time>2026-03-24T09:21:23.487Z</time></trkpt><trkpt lat="43.099771" lon="12.667518"><ele>388.0</ele><time>2026-03-24T09:21:24.486Z</time></trkpt><trkpt lat="43.0999924" lon="12.6675435"><ele>390.0</ele><time>2026-03-24T09:21:25.487Z</time></trkpt><trkpt lat="43.1002295" lon="12.6675379"><ele>392.0</ele><time>2026-03-24T09:21:26.487Z</time></trkpt><trkpt lat="43.1004721" lon="12.6675466"><ele>392.0</ele><time>2026-03-24T09:21:27.487Z</time></trkpt><trkpt lat="43.1006927" lon="12.6675603"><ele>392.0</ele><time>2026-03-24T09:21:28.486Z</time></trkpt><trkpt lat="43.100913" lon="12.6675739"><ele>392.0</ele><time>2026-03-24T09:21:29.488Z</time></trkpt><trkpt lat="43.1011058" lon="12.6675998"><ele>392.66666666666663</ele><time>2026-03-24T09:21:30.486Z</time></trkpt><trkpt lat="43.101279" lon="12.6676059"><ele>393.33333333333337</ele><time>2026-03-24T09:21:31.487Z</time></trkpt><trkpt lat="43.1014595" lon="12.6675691"><ele>394.0</ele><time>2026-03-24T09:21:32.486Z</time></trkpt><trkpt lat="43.1016479" lon="12.6674541"><ele>395.33333333333337</ele><time>2026-03-24T09:21:33.487Z</time></trkpt><trkpt lat="43.1018373" lon="12.6673187"><ele>396.66666666666663</ele><time>2026-03-24T09:21:34.487Z</time></trkpt><trkpt lat="43.1020231" lon="12.6671761"><ele>398.0</ele><time>2026-03-24T09:21:35.486Z</time></trkpt><trkpt lat="43.1021976" lon="12.6670451"><ele>398.0</ele><time>2026-03-24T09:21:36.487Z</time></trkpt><trkpt lat="43.1023743" lon="12.6669268"><ele>398.0</ele><time>2026-03-24T09:21:37.487Z</time></trkpt><trkpt lat="43.1025499" lon="12.6668398"><ele>398.0</ele><time>2026-03-24T09:21:38.486Z</time></trkpt><trkpt lat="43.1027117" lon="12.6668057"><ele>401.0</ele><time>2026-03-24T09:21:39.487Z</time></trkpt><trkpt lat="43.1028654" lon="12.6668216"><ele>404.0</ele><time>2026-03-24T09:21:40.486Z</time></trkpt><trkpt lat="43.1030267" lon="12.666858"><ele>407.0</ele><time>2026-03-24T09:21:41.486Z</time></trkpt><trkpt lat="43.1032077" lon="12.6668858"><ele>409.0</ele><time>2026-03-24T09:21:42.487Z</time></trkpt><trkpt lat="43.1033983" lon="12.666852"><ele>411.0</ele><time>2026-03-24T09:21:43.488Z</time></trkpt><trkpt lat="43.1035899" lon="12.6667556"><ele>413.0</ele><time>2026-03-24T09:21:44.487Z</time></trkpt><trkpt lat="43.1037887" lon="12.6665869"><ele>413.0</ele><time>2026-03-24T09:21:45.486Z</time></trkpt><trkpt lat="43.1039829" lon="12.6663952"><ele>413.0</ele><time>2026-03-24T09:21:46.487Z</time></trkpt><trkpt lat="43.104183" lon="12.6661785"><ele>415.0</ele><time>2026-03-24T09:21:47.486Z</time></trkpt><trkpt lat="43.1043947" lon="12.6659621"><ele>417.0</ele><time>2026-03-24T09:21:48.487Z</time></trkpt><trkpt lat="43.1046131" lon="12.6657357"><ele>417.0</ele><time>2026-03-24T09:21:49.487Z</time></trkpt><trkpt lat="43.1048155" lon="12.6655051"><ele>417.0</ele><time>2026-03-24T09:21:50.488Z</time></trkpt><trkpt lat="43.105013" lon="12.6652897"><ele>420.5</ele><time>2026-03-24T09:21:51.487Z</time></trkpt><trkpt lat="43.1052168" lon="12.6650851"><ele>424.0</ele><time>2026-03-24T09:21:52.486Z</time></trkpt><trkpt lat="43.1054161" lon="12.6648775"><ele>424.0</ele><time>2026-03-24T09:21:53.487Z</time></trkpt><trkpt lat="43.1056192" lon="12.6646804"><ele>424.0</ele><time>2026-03-24T09:21:54.486Z</time></trkpt><trkpt lat="43.105802" lon="12.6644848"><ele>427.0</ele><time>2026-03-24T09:21:55.487Z</time></trkpt><trkpt lat="43.105979" lon="12.6642974"><ele>430.0</ele><time>2026-03-24T09:21:56.487Z</time></trkpt><trkpt lat="43.1061388" lon="12.6641317"><ele>433.0</ele><time>2026-03-24T09:21:57.487Z</time></trkpt><trkpt lat="43.1062884" lon="12.663977"><ele>433.0</ele><time>2026-03-24T09:21:58.487Z</time></trkpt><trkpt lat="43.1064299" lon="12.6638436"><ele>433.0</ele><time>2026-03-24T09:21:59.488Z</time></trkpt><trkpt lat="43.1065645" lon="12.6637353"><ele>433.0</ele><time>2026-03-24T09:22:00.487Z</time></trkpt><trkpt lat="43.1067174" lon="12.6636503"><ele>434.33333333333337</ele><time>2026-03-24T09:22:01.487Z</time></trkpt><trkpt lat="43.1068668" lon="12.6635943"><ele>435.66666666666663</ele><time>2026-03-24T09:22:02.486Z</time></trkpt><trkpt lat="43.1070184" lon="12.6635574"><ele>437.0</ele><time>2026-03-24T09:22:03.487Z</time></trkpt><trkpt lat="43.1071624" lon="12.6635289"><ele>437.0</ele><time>2026-03-24T09:22:04.487Z</time></trkpt><trkpt lat="43.1073045" lon="12.663484"><ele>437.0</ele><time>2026-03-24T09:22:05.486Z</time></trkpt><trkpt lat="43.1074373" lon="12.6634475"><ele>437.0</ele><time>2026-03-24T09:22:06.487Z</time></trkpt><trkpt lat="43.1075731" lon="12.6634146"><ele>437.0</ele><time>2026-03-24T09:22:07.487Z</time></trkpt><trkpt lat="43.1077034" lon="12.6633684"><ele>440.3333333333333</ele><time>2026-03-24T09:22:08.488Z</time></trkpt><trkpt lat="43.1078438" lon="12.6633078"><ele>443.66666666666663</ele><time>2026-03-24T09:22:09.488Z</time></trkpt><trkpt lat="43.1080524" lon="12.6632123"><ele>447.0</ele><time>2026-03-24T09:22:10.756Z</time></trkpt><trkpt lat="43.1084688" lon="12.6628473"><ele>446.33333333333337</ele><time>2026-03-24T09:22:13.756Z</time></trkpt><trkpt lat="43.1087639" lon="12.6628445"><ele>445.6666666666667</ele><time>2026-03-24T09:22:15.756Z</time></trkpt><trkpt lat="43.1088584" lon="12.6627629"><ele>445.0</ele><time>2026-03-24T09:22:16.756Z</time></trkpt><trkpt lat="43.1090445" lon="12.6629057"><ele>449.0</ele><time>2026-03-24T09:22:17.756Z</time></trkpt><trkpt lat="43.1090715" lon="12.6629883"><ele>453.0</ele><time>2026-03-24T09:22:18.756Z</time></trkpt><trkpt lat="43.1088932" lon="12.6631353"><ele>457.0</ele><time>2026-03-24T09:22:20.756Z</time></trkpt><trkpt lat="43.1086118" lon="12.6634296"><ele>457.0</ele><time>2026-03-24T09:22:22.488Z</time></trkpt><trkpt lat="43.1084481" lon="12.6635928"><ele>457.0</ele><time>2026-03-24T09:22:23.486Z</time></trkpt><trkpt lat="43.1082754" lon="12.6637702"><ele>457.0</ele><time>2026-03-24T09:22:24.486Z</time></trkpt><trkpt lat="43.1081067" lon="12.6639171"><ele>456.6666666666667</ele><time>2026-03-24T09:22:25.486Z</time></trkpt><trkpt lat="43.1079581" lon="12.6640421"><ele>456.33333333333337</ele><time>2026-03-24T09:22:26.487Z</time></trkpt><trkpt lat="43.1078011" lon="12.6641804"><ele>456.0</ele><time>2026-03-24T09:22:27.487Z</time></trkpt><trkpt lat="43.1077652" lon="12.6644079"><ele>459.0</ele><time>2026-03-24T09:22:28.487Z</time></trkpt><trkpt lat="43.1077354" lon="12.6646379"><ele>462.0</ele><time>2026-03-24T09:22:29.486Z</time></trkpt><trkpt lat="43.1077202" lon="12.6649046"><ele>465.0</ele><time>2026-03-24T09:22:30.486Z</time></trkpt><trkpt lat="43.1077113" lon="12.6651953"><ele>467.0</ele><time>2026-03-24T09:22:31.487Z</time></trkpt><trkpt lat="43.1076963" lon="12.665469"><ele>469.0</ele><time>2026-03-24T09:22:32.487Z</time></trkpt><trkpt lat="43.1076702" lon="12.6657305"><ele>471.0</ele><time>2026-03-24T09:22:33.487Z</time></trkpt><trkpt lat="43.1076177" lon="12.6659493"><ele>474.33333333333337</ele><time>2026-03-24T09:22:34.486Z</time></trkpt><trkpt lat="43.1075563" lon="12.6661329"><ele>477.6666666666667</ele><time>2026-03-24T09:22:35.486Z</time></trkpt><trkpt lat="43.107418" lon="12.666254"><ele>481.0</ele><time>2026-03-24T09:22:36.486Z</time></trkpt><trkpt lat="43.1071198" lon="12.6662059"><ele>481.0</ele><time>2026-03-24T09:22:37.487Z</time></trkpt><trkpt lat="43.1069139" lon="12.6662716"><ele>481.0</ele><time>2026-03-24T09:22:38.486Z</time></trkpt><trkpt lat="43.1067087" lon="12.6663417"><ele>481.0</ele><time>2026-03-24T09:22:39.487Z</time></trkpt><trkpt lat="43.106487" lon="12.6663931"><ele>479.0</ele><time>2026-03-24T09:22:40.487Z</time></trkpt><trkpt lat="43.1062969" lon="12.6664557"><ele>477.0</ele><time>2026-03-24T09:22:41.486Z</time></trkpt><trkpt lat="43.1061285" lon="12.6665647"><ele>475.0</ele><time>2026-03-24T09:22:42.486Z</time></trkpt><trkpt lat="43.1059807" lon="12.666731"><ele>475.0</ele><time>2026-03-24T09:22:43.486Z</time></trkpt><trkpt lat="43.1058008" lon="12.6669"><ele>475.0</ele><time>2026-03-24T09:22:44.487Z</time></trkpt><trkpt lat="43.1056181" lon="12.6670591"><ele>475.0</ele><time>2026-03-24T09:22:45.487Z</time></trkpt><trkpt lat="43.1054775" lon="12.6672139"><ele>475.0</ele><time>2026-03-24T09:22:46.486Z</time></trkpt><trkpt lat="43.1053564" lon="12.6673649"><ele>475.0</ele><time>2026-03-24T09:22:47.487Z</time></trkpt><trkpt lat="43.1053412" lon="12.6675202"><ele>475.0</ele><time>2026-03-24T09:22:48.486Z</time></trkpt><trkpt lat="43.1053501" lon="12.6676997"><ele>475.0</ele><time>2026-03-24T09:22:49.486Z</time></trkpt><trkpt lat="43.1054114" lon="12.6678822"><ele>472.33333333333337</ele><time>2026-03-24T09:22:50.487Z</time></trkpt><trkpt lat="43.1055005" lon="12.668097"><ele>469.66666666666663</ele><time>2026-03-24T09:22:51.486Z</time></trkpt><trkpt lat="43.1055838" lon="12.6683429"><ele>467.0</ele><time>2026-03-24T09:22:52.487Z</time></trkpt><trkpt lat="43.1056596" lon="12.6685997"><ele>472.66666666666663</ele><time>2026-03-24T09:22:53.487Z</time></trkpt><trkpt lat="43.1057206" lon="12.6688307"><ele>478.33333333333337</ele><time>2026-03-24T09:22:54.487Z</time></trkpt><trkpt lat="43.1058253" lon="12.6690284"><ele>484.0</ele><time>2026-03-24T09:22:55.486Z</time></trkpt><trkpt lat="43.1059758" lon="12.6691951"><ele>484.0</ele><time>2026-03-24T09:22:56.486Z</time></trkpt><trkpt lat="43.1061549" lon="12.6693427"><ele>484.0</ele><time>2026-03-24T09:22:57.487Z</time></trkpt><trkpt lat="43.1063556" lon="12.6695005"><ele>484.0</ele><time>2026-03-24T09:22:58.487Z</time></trkpt><trkpt lat="43.1065406" lon="12.669619"><ele>484.0</ele><time>2026-03-24T09:22:59.486Z</time></trkpt><trkpt lat="43.1067269" lon="12.6696788"><ele>484.0</ele><time>2026-03-24T09:23:00.487Z</time></trkpt><trkpt lat="43.1069245" lon="12.6696894"><ele>484.0</ele><time>2026-03-24T09:23:01.487Z</time></trkpt><trkpt lat="43.1071512" lon="12.6697028"><ele>484.0</ele><time>2026-03-24T09:23:02.488Z</time></trkpt><trkpt lat="43.1073703" lon="12.6697135"><ele>484.0</ele><time>2026-03-24T09:23:03.488Z</time></trkpt><trkpt lat="43.1075484" lon="12.6697587"><ele>484.0</ele><time>2026-03-24T09:23:04.488Z</time></trkpt><trkpt lat="43.1077143" lon="12.6697267"><ele>487.6666666666667</ele><time>2026-03-24T09:23:05.486Z</time></trkpt><trkpt lat="43.1078477" lon="12.6696364"><ele>491.33333333333337</ele><time>2026-03-24T09:23:06.487Z</time></trkpt><trkpt lat="43.1079718" lon="12.6694758"><ele>495.0</ele><time>2026-03-24T09:23:07.488Z</time></trkpt><trkpt lat="43.1080549" lon="12.6692473"><ele>500.66666666666663</ele><time>2026-03-24T09:23:08.487Z</time></trkpt><trkpt lat="43.1081204" lon="12.6689715"><ele>506.3333333333333</ele><time>2026-03-24T09:23:09.487Z</time></trkpt><trkpt lat="43.1081983" lon="12.6686787"><ele>512.0</ele><time>2026-03-24T09:23:10.486Z</time></trkpt><trkpt lat="43.1082787" lon="12.6684088"><ele>512.0</ele><time>2026-03-24T09:23:11.487Z</time></trkpt><trkpt lat="43.1083727" lon="12.6682237"><ele>512.0</ele><time>2026-03-24T09:23:12.486Z</time></trkpt><trkpt lat="43.1084969" lon="12.6680918"><ele>512.0</ele><time>2026-03-24T09:23:13.487Z</time></trkpt><trkpt lat="43.1086627" lon="12.6680597"><ele>512.0</ele><time>2026-03-24T09:23:14.487Z</time></trkpt><trkpt lat="43.1088124" lon="12.6680814"><ele>512.0</ele><time>2026-03-24T09:23:15.487Z</time></trkpt><trkpt lat="43.1089444" lon="12.6681503"><ele>512.0</ele><time>2026-03-24T09:23:16.487Z</time></trkpt><trkpt lat="43.1090727" lon="12.6682714"><ele>512.0</ele><time>2026-03-24T09:23:17.486Z</time></trkpt><trkpt lat="43.1092181" lon="12.6684331"><ele>510.0</ele><time>2026-03-24T09:23:18.488Z</time></trkpt><trkpt lat="43.1093803" lon="12.6685979"><ele>508.0</ele><time>2026-03-24T09:23:19.488Z</time></trkpt><trkpt lat="43.1095368" lon="12.6687243"><ele>506.0</ele><time>2026-03-24T09:23:20.487Z</time></trkpt><trkpt lat="43.1096961" lon="12.6688093"><ele>506.0</ele><time>2026-03-24T09:23:21.486Z</time></trkpt><trkpt lat="43.109866" lon="12.6688076"><ele>506.0</ele><time>2026-03-24T09:23:22.486Z</time></trkpt><trkpt lat="43.1100544" lon="12.6687464"><ele>506.0</ele><time>2026-03-24T09:23:23.486Z</time></trkpt><trkpt lat="43.1102436" lon="12.6686044"><ele>518.5</ele><time>2026-03-24T09:23:24.487Z</time></trkpt><trkpt lat="43.1104413" lon="12.6683968"><ele>531.0</ele><time>2026-03-24T09:23:25.486Z</time></trkpt><trkpt lat="43.1106618" lon="12.6681606"><ele>528.5</ele><time>2026-03-24T09:23:26.486Z</time></trkpt><trkpt lat="43.1108834" lon="12.6679662"><ele>526.0</ele><time>2026-03-24T09:23:27.486Z</time></trkpt><trkpt lat="43.1110548" lon="12.6678245"><ele>531.0</ele><time>2026-03-24T09:23:28.488Z</time></trkpt><trkpt lat="43.1112116" lon="12.6677406"><ele>536.0</ele><time>2026-03-24T09:23:29.486Z</time></trkpt><trkpt lat="43.111367" lon="12.6677207"><ele>541.0</ele><time>2026-03-24T09:23:30.487Z</time></trkpt><trkpt lat="43.1115286" lon="12.667725"><ele>541.0</ele><time>2026-03-24T09:23:31.487Z</time></trkpt><trkpt lat="43.111717" lon="12.667748"><ele>541.0</ele><time>2026-03-24T09:23:32.486Z</time></trkpt><trkpt lat="43.1119202" lon="12.667734"><ele>541.0</ele><time>2026-03-24T09:23:33.487Z</time></trkpt><trkpt lat="43.1121309" lon="12.6676572"><ele>541.0</ele><time>2026-03-24T09:23:34.488Z</time></trkpt><trkpt lat="43.1123168" lon="12.6675843"><ele>541.0</ele><time>2026-03-24T09:23:35.486Z</time></trkpt><trkpt lat="43.1124868" lon="12.6675568"><ele>541.0</ele><time>2026-03-24T09:23:36.487Z</time></trkpt><trkpt lat="43.1126482" lon="12.6675469"><ele>540.6666666666667</ele><time>2026-03-24T09:23:37.486Z</time></trkpt><trkpt lat="43.1128166" lon="12.6675951"><ele>540.3333333333334</ele><time>2026-03-24T09:23:38.488Z</time></trkpt><trkpt lat="43.1129572" lon="12.6676518"><ele>540.0</ele><time>2026-03-24T09:23:39.486Z</time></trkpt><trkpt lat="43.1127658" lon="12.6680568"><ele>540.0</ele><time>2026-03-24T09:23:40.487Z</time></trkpt><trkpt lat="43.112771" lon="12.6682932"><ele>540.0</ele><time>2026-03-24T09:23:41.486Z</time></trkpt><trkpt lat="43.1127399" lon="12.6685611"><ele>540.0</ele><time>2026-03-24T09:23:42.487Z</time></trkpt><trkpt lat="43.1127064" lon="12.6688428"><ele>540.0</ele><time>2026-03-24T09:23:43.487Z</time></trkpt><trkpt lat="43.1127577" lon="12.6690877"><ele>540.0</ele><time>2026-03-24T09:23:44.487Z</time></trkpt><trkpt lat="43.1127915" lon="12.6692604"><ele>540.0</ele><time>2026-03-24T09:23:45.488Z</time></trkpt><trkpt lat="43.1128584" lon="12.6694127"><ele>540.0</ele><time>2026-03-24T09:23:46.488Z</time></trkpt><trkpt lat="43.1129731" lon="12.6695202"><ele>541.6666666666666</ele><time>2026-03-24T09:23:47.487Z</time></trkpt><trkpt lat="43.113116" lon="12.6695661"><ele>543.3333333333333</ele><time>2026-03-24T09:23:48.486Z</time></trkpt><trkpt lat="43.1132656" lon="12.6696108"><ele>545.0</ele><time>2026-03-24T09:23:49.486Z</time></trkpt><trkpt lat="43.1134365" lon="12.6696187"><ele>545.0</ele><time>2026-03-24T09:23:50.487Z</time></trkpt><trkpt lat="43.1135993" lon="12.6696362"><ele>545.0</ele><time>2026-03-24T09:23:51.486Z</time></trkpt><trkpt lat="43.1137659" lon="12.6696872"><ele>545.0</ele><time>2026-03-24T09:23:52.487Z</time></trkpt><trkpt lat="43.1139282" lon="12.6697355"><ele>545.0</ele><time>2026-03-24T09:23:53.486Z</time></trkpt><trkpt lat="43.1140493" lon="12.6699214"><ele>545.0</ele><time>2026-03-24T09:23:54.488Z</time></trkpt><trkpt lat="43.1141163" lon="12.6701311"><ele>545.0</ele><time>2026-03-24T09:23:55.487Z</time></trkpt><trkpt lat="43.1141784" lon="12.6703516"><ele>549.0</ele><time>2026-03-24T09:23:56.487Z</time></trkpt><trkpt lat="43.1142402" lon="12.6705693"><ele>553.0</ele><time>2026-03-24T09:23:57.487Z</time></trkpt><trkpt lat="43.1143048" lon="12.6707533"><ele>557.0</ele><time>2026-03-24T09:23:58.487Z</time></trkpt><trkpt lat="43.1144091" lon="12.6708925"><ele>557.0</ele><time>2026-03-24T09:23:59.487Z</time></trkpt><trkpt lat="43.1145325" lon="12.6709712"><ele>557.0</ele><time>2026-03-24T09:24:00.486Z</time></trkpt><trkpt lat="43.1147078" lon="12.6710041"><ele>557.0</ele><time>2026-03-24T09:24:01.486Z</time></trkpt><trkpt lat="43.1149059" lon="12.6710267"><ele>554.0</ele><time>2026-03-24T09:24:02.487Z</time></trkpt><trkpt lat="43.1151288" lon="12.6710648"><ele>551.0</ele><time>2026-03-24T09:24:03.488Z</time></trkpt><trkpt lat="43.1153576" lon="12.6711647"><ele>551.0</ele><time>2026-03-24T09:24:04.488Z</time></trkpt><trkpt lat="43.1155702" lon="12.6712939"><ele>551.0</ele><time>2026-03-24T09:24:05.488Z</time></trkpt><trkpt lat="43.1157502" lon="12.6714437"><ele>551.0</ele><time>2026-03-24T09:24:06.489Z</time></trkpt><trkpt lat="43.1159286" lon="12.671565"><ele>558.0</ele><time>2026-03-24T09:24:07.487Z</time></trkpt><trkpt lat="43.1160852" lon="12.6717057"><ele>565.0</ele><time>2026-03-24T09:24:08.488Z</time></trkpt><trkpt lat="43.1162293" lon="12.6716899"><ele>572.0</ele><time>2026-03-24T09:24:09.486Z</time></trkpt><trkpt lat="43.1163765" lon="12.671681"><ele>572.0</ele><time>2026-03-24T09:24:10.487Z</time></trkpt><trkpt lat="43.1165251" lon="12.6716264"><ele>572.0</ele><time>2026-03-24T09:24:11.487Z</time></trkpt><trkpt lat="43.1166897" lon="12.671496"><ele>572.0</ele><time>2026-03-24T09:24:12.487Z</time></trkpt><trkpt lat="43.116855" lon="12.6713842"><ele>573.3333333333333</ele><time>2026-03-24T09:24:13.488Z</time></trkpt><trkpt lat="43.1170303" lon="12.6714197"><ele>574.6666666666666</ele><time>2026-03-24T09:24:14.489Z</time></trkpt><trkpt lat="43.1172106" lon="12.6714188"><ele>576.0</ele><time>2026-03-24T09:24:15.487Z</time></trkpt><trkpt lat="43.1174089" lon="12.6716717"><ele>572.5</ele><time>2026-03-24T09:24:16.486Z</time></trkpt><trkpt lat="43.1175871" lon="12.6718804"><ele>569.0</ele><time>2026-03-24T09:24:17.486Z</time></trkpt><trkpt lat="43.117738" lon="12.672135"><ele>569.0</ele><time>2026-03-24T09:24:18.487Z</time></trkpt><trkpt lat="43.1178824" lon="12.6724419"><ele>569.0</ele><time>2026-03-24T09:24:19.487Z</time></trkpt><trkpt lat="43.1179832" lon="12.6726776"><ele>570.75</ele><time>2026-03-24T09:24:20.487Z</time></trkpt><trkpt lat="43.1181024" lon="12.6728215"><ele>572.5</ele><time>2026-03-24T09:24:21.487Z</time></trkpt><trkpt lat="43.1182223" lon="12.6728805"><ele>574.25</ele><time>2026-03-24T09:24:22.487Z</time></trkpt><trkpt lat="43.1183545" lon="12.6728519"><ele>576.0</ele><time>2026-03-24T09:24:23.487Z</time></trkpt><trkpt lat="43.118478" lon="12.6727416"><ele>580.3333333333334</ele><time>2026-03-24T09:24:24.487Z</time></trkpt><trkpt lat="43.1186087" lon="12.672583"><ele>584.6666666666667</ele><time>2026-03-24T09:24:25.487Z</time></trkpt><trkpt lat="43.1187043" lon="12.6724072"><ele>589.0</ele><time>2026-03-24T09:24:26.488Z</time></trkpt><trkpt lat="43.1187367" lon="12.6722184"><ele>589.0</ele><time>2026-03-24T09:24:27.487Z</time></trkpt><trkpt lat="43.1187133" lon="12.6720123"><ele>589.0</ele><time>2026-03-24T09:24:28.488Z</time></trkpt><trkpt lat="43.1186315" lon="12.6717888"><ele>589.0</ele><time>2026-03-24T09:24:29.486Z</time></trkpt><trkpt lat="43.1185268" lon="12.6715563"><ele>592.6666666666667</ele><time>2026-03-24T09:24:30.488Z</time></trkpt><trkpt lat="43.1184127" lon="12.6713182"><ele>596.3333333333334</ele><time>2026-03-24T09:24:31.488Z</time></trkpt><trkpt lat="43.1183194" lon="12.6710537"><ele>600.0</ele><time>2026-03-24T09:24:32.487Z</time></trkpt><trkpt lat="43.118502" lon="12.6709362"><ele>602.5</ele><time>2026-03-24T09:24:33.487Z</time></trkpt><trkpt lat="43.1185434" lon="12.6707349"><ele>605.0</ele><time>2026-03-24T09:24:34.487Z</time></trkpt><trkpt lat="43.1186495" lon="12.6705675"><ele>607.5</ele><time>2026-03-24T09:24:35.488Z</time></trkpt><trkpt lat="43.1187693" lon="12.6705044"><ele>610.0</ele><time>2026-03-24T09:24:36.487Z</time></trkpt><trkpt lat="43.1189042" lon="12.6703721"><ele>609.0</ele><time>2026-03-24T09:24:37.488Z</time></trkpt><trkpt lat="43.1189945" lon="12.6702016"><ele>608.0</ele><time>2026-03-24T09:24:38.486Z</time></trkpt><trkpt lat="43.1190674" lon="12.6699663"><ele>607.0</ele><time>2026-03-24T09:24:39.489Z</time></trkpt><trkpt lat="43.1191557" lon="12.6697426"><ele>607.0</ele><time>2026-03-24T09:24:40.488Z</time></trkpt><trkpt lat="43.1192216" lon="12.6694935"><ele>607.0</ele><time>2026-03-24T09:24:41.487Z</time></trkpt><trkpt lat="43.1193315" lon="12.6693521"><ele>607.0</ele><time>2026-03-24T09:24:42.489Z</time></trkpt><trkpt lat="43.1194572" lon="12.6691875"><ele>605.0</ele><time>2026-03-24T09:24:43.487Z</time></trkpt><trkpt lat="43.1196533" lon="12.6690733"><ele>603.0</ele><time>2026-03-24T09:24:44.486Z</time></trkpt><trkpt lat="43.119836" lon="12.6689106"><ele>601.0</ele><time>2026-03-24T09:24:45.488Z</time></trkpt><trkpt lat="43.1199868" lon="12.6686753"><ele>607.6666666666667</ele><time>2026-03-24T09:24:46.488Z</time></trkpt><trkpt lat="43.1201353" lon="12.668426"><ele>614.3333333333334</ele><time>2026-03-24T09:24:47.487Z</time></trkpt><trkpt lat="43.1202619" lon="12.6682457"><ele>621.0</ele><time>2026-03-24T09:24:48.489Z</time></trkpt><trkpt lat="43.1204567" lon="12.6680954"><ele>621.0</ele><time>2026-03-24T09:24:49.486Z</time></trkpt><trkpt lat="43.1206743" lon="12.6679428"><ele>621.0</ele><time>2026-03-24T09:24:50.487Z</time></trkpt><trkpt lat="43.1209289" lon="12.6677883"><ele>625.0</ele><time>2026-03-24T09:24:51.488Z</time></trkpt><trkpt lat="43.1211374" lon="12.6676094"><ele>629.0</ele><time>2026-03-24T09:24:52.486Z</time></trkpt><trkpt lat="43.1213235" lon="12.6674311"><ele>629.0</ele><time>2026-03-24T09:24:53.487Z</time></trkpt><trkpt lat="43.1214846" lon="12.6672607"><ele>629.0</ele><time>2026-03-24T09:24:54.487Z</time></trkpt><trkpt lat="43.1216094" lon="12.6671114"><ele>629.0</ele><time>2026-03-24T09:24:55.489Z</time></trkpt><trkpt lat="43.1217228" lon="12.6670329"><ele>627.0</ele><time>2026-03-24T09:24:56.488Z</time></trkpt><trkpt lat="43.1218538" lon="12.6669974"><ele>625.0</ele><time>2026-03-24T09:24:57.488Z</time></trkpt><trkpt lat="43.1219769" lon="12.6669526"><ele>623.0</ele><time>2026-03-24T09:24:58.487Z</time></trkpt><trkpt lat="43.1221144" lon="12.6670993"><ele>621.0</ele><time>2026-03-24T09:24:59.487Z</time></trkpt><trkpt lat="43.1222553" lon="12.6672193"><ele>621.0</ele><time>2026-03-24T09:25:00.487Z</time></trkpt><trkpt lat="43.1223273" lon="12.6674967"><ele>621.0</ele><time>2026-03-24T09:25:01.486Z</time></trkpt><trkpt lat="43.1223094" lon="12.6676958"><ele>621.0</ele><time>2026-03-24T09:25:02.486Z</time></trkpt><trkpt lat="43.1221166" lon="12.6680955"><ele>617.0</ele><time>2026-03-24T09:25:03.488Z</time></trkpt><trkpt lat="43.1220597" lon="12.6684173"><ele>613.0</ele><time>2026-03-24T09:25:04.487Z</time></trkpt><trkpt lat="43.1219851" lon="12.6687688"><ele>613.0</ele><time>2026-03-24T09:25:05.487Z</time></trkpt><trkpt lat="43.1219256" lon="12.6690983"><ele>613.0</ele><time>2026-03-24T09:25:06.488Z</time></trkpt><trkpt lat="43.1219401" lon="12.6693802"><ele>613.6666666666667</ele><time>2026-03-24T09:25:07.488Z</time></trkpt><trkpt lat="43.1219622" lon="12.6696604"><ele>614.3333333333334</ele><time>2026-03-24T09:25:08.487Z</time></trkpt><trkpt lat="43.1220073" lon="12.6698482"><ele>615.0</ele><time>2026-03-24T09:25:09.487Z</time></trkpt><trkpt lat="43.1220917" lon="12.6699742"><ele>615.0</ele><time>2026-03-24T09:25:10.487Z</time></trkpt><trkpt lat="43.1222151" lon="12.6701098"><ele>615.0</ele><time>2026-03-24T09:25:11.487Z</time></trkpt><trkpt lat="43.1223523" lon="12.670264"><ele>615.0</ele><time>2026-03-24T09:25:12.487Z</time></trkpt><trkpt lat="43.1224258" lon="12.670544"><ele>619.5</ele><time>2026-03-24T09:25:13.486Z</time></trkpt><trkpt lat="43.1225156" lon="12.6707691"><ele>624.0</ele><time>2026-03-24T09:25:14.487Z</time></trkpt><trkpt lat="43.1226099" lon="12.670923"><ele>628.5</ele><time>2026-03-24T09:25:15.487Z</time></trkpt><trkpt lat="43.1226952" lon="12.6709887"><ele>633.0</ele><time>2026-03-24T09:25:16.488Z</time></trkpt><trkpt lat="43.1228084" lon="12.670981"><ele>633.0</ele><time>2026-03-24T09:25:17.488Z</time></trkpt><trkpt lat="43.1229261" lon="12.6709304"><ele>633.0</ele><time>2026-03-24T09:25:18.487Z</time></trkpt><trkpt lat="43.1230634" lon="12.6707615"><ele>633.0</ele><time>2026-03-24T09:25:19.487Z</time></trkpt><trkpt lat="43.1232116" lon="12.6705702"><ele>633.6666666666666</ele><time>2026-03-24T09:25:20.487Z</time></trkpt><trkpt lat="43.1233576" lon="12.6704134"><ele>634.3333333333333</ele><time>2026-03-24T09:25:21.486Z</time></trkpt><trkpt lat="43.1235001" lon="12.6702615"><ele>635.0</ele><time>2026-03-24T09:25:22.487Z</time></trkpt><trkpt lat="43.1237034" lon="12.6701519"><ele>635.0</ele><time>2026-03-24T09:25:23.489Z</time></trkpt><trkpt lat="43.1239115" lon="12.6700324"><ele>635.0</ele><time>2026-03-24T09:25:24.486Z</time></trkpt><trkpt lat="43.1239295" lon="12.6706289"><ele>635.0</ele><time>2026-03-24T09:25:25.488Z</time></trkpt><trkpt lat="43.1240425" lon="12.6708874"><ele>635.0</ele><time>2026-03-24T09:25:26.487Z</time></trkpt><trkpt lat="43.1241147" lon="12.6711326"><ele>635.0</ele><time>2026-03-24T09:25:27.488Z</time></trkpt><trkpt lat="43.1242303" lon="12.6712722"><ele>635.3333333333333</ele><time>2026-03-24T09:25:28.487Z</time></trkpt><trkpt lat="43.1243779" lon="12.6713709"><ele>635.6666666666666</ele><time>2026-03-24T09:25:29.486Z</time></trkpt><trkpt lat="43.1245559" lon="12.6714022"><ele>636.0</ele><time>2026-03-24T09:25:30.488Z</time></trkpt><trkpt lat="43.1247297" lon="12.6714409"><ele>640.0</ele><time>2026-03-24T09:25:31.488Z</time></trkpt><trkpt lat="43.1249006" lon="12.6714769"><ele>644.0</ele><time>2026-03-24T09:25:32.486Z</time></trkpt><trkpt lat="43.125072" lon="12.671495"><ele>648.0</ele><time>2026-03-24T09:25:33.487Z</time></trkpt><trkpt lat="43.1252423" lon="12.6715136"><ele>648.0</ele><time>2026-03-24T09:25:34.487Z</time></trkpt><trkpt lat="43.1253994" lon="12.6715338"><ele>648.0</ele><time>2026-03-24T09:25:35.487Z</time></trkpt><trkpt lat="43.1255448" lon="12.6715556"><ele>648.0</ele><time>2026-03-24T09:25:36.487Z</time></trkpt><trkpt lat="43.1256815" lon="12.6715782"><ele>648.0</ele><time>2026-03-24T09:25:37.487Z</time></trkpt><trkpt lat="43.1258133" lon="12.6715955"><ele>649.0</ele><time>2026-03-24T09:25:38.487Z</time></trkpt><trkpt lat="43.1259297" lon="12.6715829"><ele>650.0</ele><time>2026-03-24T09:25:39.487Z</time></trkpt><trkpt lat="43.1260434" lon="12.6715208"><ele>651.0</ele><time>2026-03-24T09:25:40.487Z</time></trkpt><trkpt lat="43.1261668" lon="12.6714038"><ele>652.0</ele><time>2026-03-24T09:25:41.486Z</time></trkpt><trkpt lat="43.1263072" lon="12.6712487"><ele>657.0</ele><time>2026-03-24T09:25:42.487Z</time></trkpt><trkpt lat="43.126468" lon="12.6710834"><ele>662.0</ele><time>2026-03-24T09:25:43.487Z</time></trkpt><trkpt lat="43.1266443" lon="12.6708846"><ele>667.0</ele><time>2026-03-24T09:25:44.488Z</time></trkpt><trkpt lat="43.1268305" lon="12.670667"><ele>667.0</ele><time>2026-03-24T09:25:45.487Z</time></trkpt><trkpt lat="43.1269965" lon="12.6704381"><ele>667.0</ele><time>2026-03-24T09:25:46.486Z</time></trkpt><trkpt lat="43.1271654" lon="12.6702262"><ele>669.6666666666667</ele><time>2026-03-24T09:25:47.487Z</time></trkpt><trkpt lat="43.1273283" lon="12.6700618"><ele>672.3333333333334</ele><time>2026-03-24T09:25:48.487Z</time></trkpt><trkpt lat="43.1274906" lon="12.669923"><ele>675.0</ele><time>2026-03-24T09:25:49.487Z</time></trkpt><trkpt lat="43.1276674" lon="12.6699542"><ele>675.0</ele><time>2026-03-24T09:25:50.487Z</time></trkpt><trkpt lat="43.127842" lon="12.6699455"><ele>675.0</ele><time>2026-03-24T09:25:51.487Z</time></trkpt><trkpt lat="43.128018" lon="12.6700987"><ele>675.0</ele><time>2026-03-24T09:25:52.489Z</time></trkpt><trkpt lat="43.1281957" lon="12.6701631"><ele>676.6666666666666</ele><time>2026-03-24T09:25:53.486Z</time></trkpt><trkpt lat="43.1283637" lon="12.6701927"><ele>678.3333333333333</ele><time>2026-03-24T09:25:54.487Z</time></trkpt><trkpt lat="43.1285252" lon="12.6702248"><ele>680.0</ele><time>2026-03-24T09:25:55.487Z</time></trkpt><trkpt lat="43.1286722" lon="12.6703155"><ele>674.0</ele><time>2026-03-24T09:25:56.487Z</time></trkpt><trkpt lat="43.1287993" lon="12.6704774"><ele>668.0</ele><time>2026-03-24T09:25:57.487Z</time></trkpt><trkpt lat="43.128891" lon="12.6706734"><ele>662.0</ele><time>2026-03-24T09:25:58.488Z</time></trkpt><trkpt lat="43.128987" lon="12.6708891"><ele>656.0</ele><time>2026-03-24T09:25:59.487Z</time></trkpt><trkpt lat="43.1290164" lon="12.6711411"><ele>650.0</ele><time>2026-03-24T09:26:00.488Z</time></trkpt><trkpt lat="43.1290391" lon="12.6715624"><ele>654.3333333333333</ele><time>2026-03-24T09:26:02.345Z</time></trkpt><trkpt lat="43.1290801" lon="12.6717893"><ele>658.6666666666666</ele><time>2026-03-24T09:26:03.489Z</time></trkpt><trkpt lat="43.1291158" lon="12.6719945"><ele>663.0</ele><time>2026-03-24T09:26:04.486Z</time></trkpt><trkpt lat="43.1292837" lon="12.6721242"><ele>663.0</ele><time>2026-03-24T09:26:05.487Z</time></trkpt><trkpt lat="43.1294907" lon="12.6722723"><ele>663.0</ele><time>2026-03-24T09:26:06.486Z</time></trkpt><trkpt lat="43.1297167" lon="12.6724282"><ele>669.5</ele><time>2026-03-24T09:26:07.486Z</time></trkpt><trkpt lat="43.129919" lon="12.6725756"><ele>676.0</ele><time>2026-03-24T09:26:08.487Z</time></trkpt><trkpt lat="43.1301439" lon="12.6726958"><ele>676.0</ele><time>2026-03-24T09:26:09.486Z</time></trkpt><trkpt lat="43.1303906" lon="12.6727725"><ele>676.0</ele><time>2026-03-24T09:26:10.487Z</time></trkpt><trkpt lat="43.1306141" lon="12.6728473"><ele>673.3333333333334</ele><time>2026-03-24T09:26:11.486Z</time></trkpt><trkpt lat="43.1308318" lon="12.6729114"><ele>670.6666666666666</ele><time>2026-03-24T09:26:12.487Z</time></trkpt><trkpt lat="43.130976" lon="12.6729874"><ele>668.0</ele><time>2026-03-24T09:26:13.487Z</time></trkpt><trkpt lat="43.1310965" lon="12.6730728"><ele>668.0</ele><time>2026-03-24T09:26:14.487Z</time></trkpt><trkpt lat="43.1312256" lon="12.6731694"><ele>668.0</ele><time>2026-03-24T09:26:15.486Z</time></trkpt><trkpt lat="43.1313214" lon="12.6732785"><ele>668.0</ele><time>2026-03-24T09:26:16.487Z</time></trkpt><trkpt lat="43.131388" lon="12.6734437"><ele>668.0</ele><time>2026-03-24T09:26:17.486Z</time></trkpt><trkpt lat="43.1314429" lon="12.6735438"><ele>667.4</ele><time>2026-03-24T09:26:18.488Z</time></trkpt><trkpt lat="43.1314655" lon="12.6736262"><ele>666.8</ele><time>2026-03-24T09:26:19.488Z</time></trkpt><trkpt lat="43.1315214" lon="12.6737312"><ele>666.2</ele><time>2026-03-24T09:26:20.487Z</time></trkpt><trkpt lat="43.1315778" lon="12.6738538"><ele>665.6</ele><time>2026-03-24T09:26:21.486Z</time></trkpt><trkpt lat="43.1316343" lon="12.6739836"><ele>665.0</ele><time>2026-03-24T09:26:22.486Z</time></trkpt><trkpt lat="43.1317081" lon="12.6741164"><ele>667.0</ele><time>2026-03-24T09:26:23.486Z</time></trkpt><trkpt lat="43.1317841" lon="12.674251"><ele>669.0</ele><time>2026-03-24T09:26:24.487Z</time></trkpt><trkpt lat="43.1318988" lon="12.6743799"><ele>671.0</ele><time>2026-03-24T09:26:25.487Z</time></trkpt><trkpt lat="43.1320425" lon="12.6744888"><ele>673.0</ele><time>2026-03-24T09:26:26.486Z</time></trkpt><trkpt lat="43.1322089" lon="12.6745832"><ele>678.0</ele><time>2026-03-24T09:26:27.488Z</time></trkpt><trkpt lat="43.1324139" lon="12.6746708"><ele>683.0</ele><time>2026-03-24T09:26:28.486Z</time></trkpt><trkpt lat="43.1326166" lon="12.6747629"><ele>688.0</ele><time>2026-03-24T09:26:29.488Z</time></trkpt><trkpt lat="43.132815" lon="12.6748837"><ele>688.0</ele><time>2026-03-24T09:26:30.488Z</time></trkpt><trkpt lat="43.1328998" lon="12.6749726"><ele>688.0</ele><time>2026-03-24T09:26:31.488Z</time></trkpt><trkpt lat="43.1330692" lon="12.6749718"><ele>688.0</ele><time>2026-03-24T09:26:32.488Z</time></trkpt><trkpt lat="43.1332067" lon="12.6748863"><ele>688.0</ele><time>2026-03-24T09:26:33.488Z</time></trkpt><trkpt lat="43.133356" lon="12.6747747"><ele>690.0</ele><time>2026-03-24T09:26:34.487Z</time></trkpt><trkpt lat="43.1335305" lon="12.6747015"><ele>692.0</ele><time>2026-03-24T09:26:35.49Z</time></trkpt><trkpt lat="43.1337758" lon="12.6746437"><ele>694.0</ele><time>2026-03-24T09:26:36.488Z</time></trkpt><trkpt lat="43.1340082" lon="12.6745938"><ele>699.0</ele><time>2026-03-24T09:26:37.488Z</time></trkpt><trkpt lat="43.134271" lon="12.6745616"><ele>704.0</ele><time>2026-03-24T09:26:38.488Z</time></trkpt><trkpt lat="43.1345218" lon="12.6745207"><ele>704.0</ele><time>2026-03-24T09:26:39.487Z</time></trkpt><trkpt lat="43.1347371" lon="12.6744835"><ele>704.0</ele><time>2026-03-24T09:26:40.486Z</time></trkpt><trkpt lat="43.1349419" lon="12.6744498"><ele>704.0</ele><time>2026-03-24T09:26:41.488Z</time></trkpt><trkpt lat="43.1351251" lon="12.6744328"><ele>706.3333333333333</ele><time>2026-03-24T09:26:42.488Z</time></trkpt><trkpt lat="43.1353046" lon="12.6744576"><ele>708.6666666666666</ele><time>2026-03-24T09:26:43.486Z</time></trkpt><trkpt lat="43.135472" lon="12.6745306"><ele>711.0</ele><time>2026-03-24T09:26:44.487Z</time></trkpt><trkpt lat="43.1356618" lon="12.6746579"><ele>710.0</ele><time>2026-03-24T09:26:45.487Z</time></trkpt><trkpt lat="43.1358313" lon="12.6747706"><ele>709.0</ele><time>2026-03-24T09:26:46.488Z</time></trkpt><trkpt lat="43.1360014" lon="12.6748906"><ele>708.0</ele><time>2026-03-24T09:26:47.486Z</time></trkpt><trkpt lat="43.1361641" lon="12.6750418"><ele>708.0</ele><time>2026-03-24T09:26:48.487Z</time></trkpt><trkpt lat="43.1363057" lon="12.6751991"><ele>708.0</ele><time>2026-03-24T09:26:49.487Z</time></trkpt><trkpt lat="43.1364065" lon="12.675338"><ele>708.0</ele><time>2026-03-24T09:26:50.487Z</time></trkpt><trkpt lat="43.1364872" lon="12.6754703"><ele>707.5</ele><time>2026-03-24T09:26:51.486Z</time></trkpt><trkpt lat="43.1365354" lon="12.675617"><ele>707.0</ele><time>2026-03-24T09:26:52.488Z</time></trkpt><trkpt lat="43.136579" lon="12.6757685"><ele>706.5</ele><time>2026-03-24T09:26:53.488Z</time></trkpt><trkpt lat="43.1366255" lon="12.6759286"><ele>706.0</ele><time>2026-03-24T09:26:54.488Z</time></trkpt><trkpt lat="43.136544" lon="12.676271"><ele>708.3333333333334</ele><time>2026-03-24T09:26:55.489Z</time></trkpt><trkpt lat="43.1365604" lon="12.6765279"><ele>710.6666666666666</ele><time>2026-03-24T09:26:56.488Z</time></trkpt><trkpt lat="43.1365963" lon="12.6768561"><ele>713.0</ele><time>2026-03-24T09:26:57.488Z</time></trkpt><trkpt lat="43.1366179" lon="12.6771858"><ele>719.3333333333333</ele><time>2026-03-24T09:26:58.487Z</time></trkpt><trkpt lat="43.1366484" lon="12.6774913"><ele>725.6666666666666</ele><time>2026-03-24T09:26:59.487Z</time></trkpt><trkpt lat="43.1367341" lon="12.6776862"><ele>732.0</ele><time>2026-03-24T09:27:00.488Z</time></trkpt><trkpt lat="43.1368425" lon="12.6778975"><ele>738.0</ele><time>2026-03-24T09:27:01.488Z</time></trkpt><trkpt lat="43.1369992" lon="12.678057"><ele>744.0</ele><time>2026-03-24T09:27:02.487Z</time></trkpt><trkpt lat="43.1371761" lon="12.6781494"><ele>750.0</ele><time>2026-03-24T09:27:03.487Z</time></trkpt><trkpt lat="43.1373564" lon="12.6782322"><ele>742.6666666666666</ele><time>2026-03-24T09:27:04.488Z</time></trkpt><trkpt lat="43.1375204" lon="12.6782604"><ele>735.3333333333333</ele><time>2026-03-24T09:27:05.488Z</time></trkpt><trkpt lat="43.1376724" lon="12.6783625"><ele>728.0</ele><time>2026-03-24T09:27:06.487Z</time></trkpt><trkpt lat="43.1378119" lon="12.6785153"><ele>734.6666666666666</ele><time>2026-03-24T09:27:07.487Z</time></trkpt><trkpt lat="43.1379384" lon="12.6787061"><ele>741.3333333333334</ele><time>2026-03-24T09:27:08.487Z</time></trkpt><trkpt lat="43.1380524" lon="12.6789306"><ele>748.0</ele><time>2026-03-24T09:27:09.487Z</time></trkpt><trkpt lat="43.1381714" lon="12.6791924"><ele>745.5</ele><time>2026-03-24T09:27:10.487Z</time></trkpt><trkpt lat="43.1383027" lon="12.6794659"><ele>743.0</ele><time>2026-03-24T09:27:11.487Z</time></trkpt><trkpt lat="43.1384416" lon="12.6797506"><ele>743.0</ele><time>2026-03-24T09:27:12.487Z</time></trkpt><trkpt lat="43.1385814" lon="12.6800343"><ele>743.0</ele><time>2026-03-24T09:27:13.487Z</time></trkpt><trkpt lat="43.1387142" lon="12.6802982"><ele>742.6666666666666</ele><time>2026-03-24T09:27:14.487Z</time></trkpt><trkpt lat="43.1388378" lon="12.6805511"><ele>742.3333333333334</ele><time>2026-03-24T09:27:15.487Z</time></trkpt><trkpt lat="43.1389674" lon="12.680767"><ele>742.0</ele><time>2026-03-24T09:27:16.488Z</time></trkpt><trkpt lat="43.1390941" lon="12.6809763"><ele>748.6666666666667</ele><time>2026-03-24T09:27:17.489Z</time></trkpt><trkpt lat="43.139251" lon="12.6811261"><ele>755.3333333333334</ele><time>2026-03-24T09:27:18.487Z</time></trkpt><trkpt lat="43.1393886" lon="12.6812789"><ele>762.0</ele><time>2026-03-24T09:27:19.487Z</time></trkpt><trkpt lat="43.1395032" lon="12.6814401"><ele>762.0</ele><time>2026-03-24T09:27:20.488Z</time></trkpt><trkpt lat="43.1395923" lon="12.6815962"><ele>762.0</ele><time>2026-03-24T09:27:21.488Z</time></trkpt><trkpt lat="43.139679" lon="12.681756"><ele>762.0</ele><time>2026-03-24T09:27:22.486Z</time></trkpt><trkpt lat="43.1397207" lon="12.6818877"><ele>762.0</ele><time>2026-03-24T09:27:23.489Z</time></trkpt><trkpt lat="43.1397998" lon="12.6819859"><ele>763.6</ele><time>2026-03-24T09:27:24.488Z</time></trkpt><trkpt lat="43.1398972" lon="12.6820623"><ele>765.2</ele><time>2026-03-24T09:27:25.488Z</time></trkpt><trkpt lat="43.1399875" lon="12.682084"><ele>766.8</ele><time>2026-03-24T09:27:26.488Z</time></trkpt><trkpt lat="43.1400802" lon="12.6820611"><ele>768.4</ele><time>2026-03-24T09:27:27.487Z</time></trkpt><trkpt lat="43.1401705" lon="12.6819992"><ele>770.0</ele><time>2026-03-24T09:27:28.488Z</time></trkpt><trkpt lat="43.1402612" lon="12.6819581"><ele>770.0</ele><time>2026-03-24T09:27:29.487Z</time></trkpt><trkpt lat="43.1403574" lon="12.6819076"><ele>770.0</ele><time>2026-03-24T09:27:30.488Z</time></trkpt><trkpt lat="43.1404671" lon="12.6819051"><ele>770.0</ele><time>2026-03-24T09:27:31.489Z</time></trkpt><trkpt lat="43.1405811" lon="12.6818575"><ele>770.0</ele><time>2026-03-24T09:27:32.486Z</time></trkpt><trkpt lat="43.1407054" lon="12.6821262"><ele>766.0</ele><time>2026-03-24T09:27:33.487Z</time></trkpt><trkpt lat="43.1408379" lon="12.6823162"><ele>762.0</ele><time>2026-03-24T09:27:34.487Z</time></trkpt><trkpt lat="43.1409504" lon="12.6824972"><ele>758.0</ele><time>2026-03-24T09:27:35.488Z</time></trkpt><trkpt lat="43.1410772" lon="12.6826695"><ele>763.0</ele><time>2026-03-24T09:27:36.488Z</time></trkpt><trkpt lat="43.1411664" lon="12.6828237"><ele>768.0</ele><time>2026-03-24T09:27:37.489Z</time></trkpt><trkpt lat="43.1412598" lon="12.6829315"><ele>773.0</ele><time>2026-03-24T09:27:38.489Z</time></trkpt><trkpt lat="43.141379" lon="12.6829851"><ele>778.0</ele><time>2026-03-24T09:27:39.489Z</time></trkpt><trkpt lat="43.1414984" lon="12.6830058"><ele>771.75</ele><time>2026-03-24T09:27:40.486Z</time></trkpt><trkpt lat="43.1416337" lon="12.6829782"><ele>765.5</ele><time>2026-03-24T09:27:41.487Z</time></trkpt><trkpt lat="43.141765" lon="12.6829445"><ele>759.25</ele><time>2026-03-24T09:27:42.487Z</time></trkpt><trkpt lat="43.1418984" lon="12.6829002"><ele>753.0</ele><time>2026-03-24T09:27:43.489Z</time></trkpt><trkpt lat="43.1421183" lon="12.6828287"><ele>753.0</ele><time>2026-03-24T09:27:44.488Z</time></trkpt><trkpt lat="43.1422946" lon="12.682812"><ele>753.0</ele><time>2026-03-24T09:27:45.487Z</time></trkpt><trkpt lat="43.142486" lon="12.6827916"><ele>753.0</ele><time>2026-03-24T09:27:46.488Z</time></trkpt><trkpt lat="43.1426669" lon="12.682797"><ele>751.3333333333334</ele><time>2026-03-24T09:27:47.487Z</time></trkpt><trkpt lat="43.1428538" lon="12.6827925"><ele>749.6666666666667</ele><time>2026-03-24T09:27:48.487Z</time></trkpt><trkpt lat="43.1430137" lon="12.6827932"><ele>748.0</ele><time>2026-03-24T09:27:49.487Z</time></trkpt><trkpt lat="43.1431713" lon="12.6827617"><ele>742.0</ele><time>2026-03-24T09:27:50.487Z</time></trkpt><trkpt lat="43.1433239" lon="12.6827216"><ele>736.0</ele><time>2026-03-24T09:27:51.487Z</time></trkpt><trkpt lat="43.1434326" lon="12.6825563"><ele>730.0</ele><time>2026-03-24T09:27:52.488Z</time></trkpt><trkpt lat="43.143532" lon="12.6824223"><ele>730.0</ele><time>2026-03-24T09:27:53.487Z</time></trkpt><trkpt lat="43.143634" lon="12.6823106"><ele>730.0</ele><time>2026-03-24T09:27:54.487Z</time></trkpt><trkpt lat="43.1437385" lon="12.6821928"><ele>730.0</ele><time>2026-03-24T09:27:55.487Z</time></trkpt><trkpt lat="43.1438539" lon="12.682245"><ele>730.0</ele><time>2026-03-24T09:27:56.488Z</time></trkpt><trkpt lat="43.1439599" lon="12.6822704"><ele>730.0</ele><time>2026-03-24T09:27:57.488Z</time></trkpt><trkpt lat="43.1440292" lon="12.6824326"><ele>730.0</ele><time>2026-03-24T09:27:58.489Z</time></trkpt><trkpt lat="43.1441043" lon="12.6825684"><ele>730.0</ele><time>2026-03-24T09:27:59.487Z</time></trkpt><trkpt lat="43.1441826" lon="12.6827254"><ele>730.0</ele><time>2026-03-24T09:28:00.486Z</time></trkpt><trkpt lat="43.1442058" lon="12.6829278"><ele>728.5</ele><time>2026-03-24T09:28:01.488Z</time></trkpt><trkpt lat="43.1441945" lon="12.6831083"><ele>727.0</ele><time>2026-03-24T09:28:02.487Z</time></trkpt><trkpt lat="43.1442321" lon="12.6833075"><ele>725.5</ele><time>2026-03-24T09:28:03.487Z</time></trkpt><trkpt lat="43.1442914" lon="12.6834944"><ele>724.0</ele><time>2026-03-24T09:28:04.487Z</time></trkpt><trkpt lat="43.144419" lon="12.6836768"><ele>721.3333333333334</ele><time>2026-03-24T09:28:05.487Z</time></trkpt><trkpt lat="43.1445754" lon="12.6838559"><ele>718.6666666666666</ele><time>2026-03-24T09:28:06.487Z</time></trkpt><trkpt lat="43.1447435" lon="12.6839873"><ele>716.0</ele><time>2026-03-24T09:28:07.488Z</time></trkpt><trkpt lat="43.1449126" lon="12.6841086"><ele>716.0</ele><time>2026-03-24T09:28:08.487Z</time></trkpt><trkpt lat="43.145085" lon="12.6841465"><ele>716.0</ele><time>2026-03-24T09:28:09.487Z</time></trkpt><trkpt lat="43.1452705" lon="12.6841133"><ele>716.0</ele><time>2026-03-24T09:28:10.488Z</time></trkpt><trkpt lat="43.1454483" lon="12.6840447"><ele>716.0</ele><time>2026-03-24T09:28:11.487Z</time></trkpt><trkpt lat="43.1456248" lon="12.6839868"><ele>716.0</ele><time>2026-03-24T09:28:12.487Z</time></trkpt><trkpt lat="43.1457892" lon="12.6839919"><ele>716.0</ele><time>2026-03-24T09:28:13.489Z</time></trkpt><trkpt lat="43.1459294" lon="12.6840133"><ele>715.0</ele><time>2026-03-24T09:28:14.488Z</time></trkpt><trkpt lat="43.1460736" lon="12.6840823"><ele>714.0</ele><time>2026-03-24T09:28:15.487Z</time></trkpt><trkpt lat="43.1462175" lon="12.6841477"><ele>713.0</ele><time>2026-03-24T09:28:16.488Z</time></trkpt><trkpt lat="43.1462738" lon="12.6842937"><ele>712.0</ele><time>2026-03-24T09:28:17.489Z</time></trkpt><trkpt lat="43.1463894" lon="12.6843384"><ele>712.0</ele><time>2026-03-24T09:28:18.487Z</time></trkpt><trkpt lat="43.1465128" lon="12.6843121"><ele>712.0</ele><time>2026-03-24T09:28:19.488Z</time></trkpt><trkpt lat="43.1466204" lon="12.6842249"><ele>712.0</ele><time>2026-03-24T09:28:20.487Z</time></trkpt><trkpt lat="43.1467294" lon="12.6840963"><ele>712.0</ele><time>2026-03-24T09:28:21.488Z</time></trkpt><trkpt lat="43.1468434" lon="12.6839602"><ele>712.6666666666667</ele><time>2026-03-24T09:28:22.488Z</time></trkpt><trkpt lat="43.1469713" lon="12.6838968"><ele>713.3333333333334</ele><time>2026-03-24T09:28:23.489Z</time></trkpt><trkpt lat="43.1470771" lon="12.6837076"><ele>714.0</ele><time>2026-03-24T09:28:24.488Z</time></trkpt><trkpt lat="43.1471771" lon="12.683497"><ele>710.3333333333334</ele><time>2026-03-24T09:28:25.488Z</time></trkpt><trkpt lat="43.1472671" lon="12.6832937"><ele>706.6666666666667</ele><time>2026-03-24T09:28:26.488Z</time></trkpt><trkpt lat="43.1472708" lon="12.6830256"><ele>703.0</ele><time>2026-03-24T09:28:27.489Z</time></trkpt><trkpt lat="43.1473579" lon="12.6828301"><ele>705.3333333333334</ele><time>2026-03-24T09:28:28.488Z</time></trkpt><trkpt lat="43.1474528" lon="12.6826477"><ele>707.6666666666666</ele><time>2026-03-24T09:28:29.487Z</time></trkpt><trkpt lat="43.1475627" lon="12.6824884"><ele>710.0</ele><time>2026-03-24T09:28:30.487Z</time></trkpt><trkpt lat="43.1476761" lon="12.6823622"><ele>710.0</ele><time>2026-03-24T09:28:31.488Z</time></trkpt><trkpt lat="43.1477968" lon="12.6822884"><ele>710.0</ele><time>2026-03-24T09:28:32.489Z</time></trkpt><trkpt lat="43.1479296" lon="12.6821928"><ele>710.0</ele><time>2026-03-24T09:28:33.488Z</time></trkpt><trkpt lat="43.1480737" lon="12.682108"><ele>710.0</ele><time>2026-03-24T09:28:34.488Z</time></trkpt><trkpt lat="43.1482145" lon="12.6820187"><ele>707.3333333333333</ele><time>2026-03-24T09:28:35.489Z</time></trkpt><trkpt lat="43.1483705" lon="12.6819287"><ele>704.6666666666666</ele><time>2026-03-24T09:28:36.488Z</time></trkpt><trkpt lat="43.1485487" lon="12.681872"><ele>702.0</ele><time>2026-03-24T09:28:37.488Z</time></trkpt><trkpt lat="43.1487292" lon="12.68182"><ele>702.0</ele><time>2026-03-24T09:28:38.487Z</time></trkpt><trkpt lat="43.1489134" lon="12.6817455"><ele>702.0</ele><time>2026-03-24T09:28:39.489Z</time></trkpt><trkpt lat="43.1491031" lon="12.6816866"><ele>702.0</ele><time>2026-03-24T09:28:40.488Z</time></trkpt><trkpt lat="43.1492432" lon="12.6816028"><ele>707.0</ele><time>2026-03-24T09:28:41.489Z</time></trkpt><trkpt lat="43.1493999" lon="12.681542"><ele>712.0</ele><time>2026-03-24T09:28:42.487Z</time></trkpt><trkpt lat="43.1495777" lon="12.6815109"><ele>717.0</ele><time>2026-03-24T09:28:43.487Z</time></trkpt><trkpt lat="43.1497557" lon="12.6814928"><ele>720.0</ele><time>2026-03-24T09:28:44.487Z</time></trkpt><trkpt lat="43.1499303" lon="12.681493"><ele>723.0</ele><time>2026-03-24T09:28:45.487Z</time></trkpt><trkpt lat="43.1500813" lon="12.6814739"><ele>726.0</ele><time>2026-03-24T09:28:46.488Z</time></trkpt><trkpt lat="43.150227" lon="12.6814529"><ele>726.0</ele><time>2026-03-24T09:28:47.487Z</time></trkpt><trkpt lat="43.1503804" lon="12.6814771"><ele>726.0</ele><time>2026-03-24T09:28:48.489Z</time></trkpt><trkpt lat="43.1505415" lon="12.6814516"><ele>726.0</ele><time>2026-03-24T09:28:49.488Z</time></trkpt><trkpt lat="43.1507088" lon="12.681409"><ele>728.0</ele><time>2026-03-24T09:28:50.487Z</time></trkpt><trkpt lat="43.1509014" lon="12.6813498"><ele>730.0</ele><time>2026-03-24T09:28:51.489Z</time></trkpt><trkpt lat="43.1510953" lon="12.6812851"><ele>732.0</ele><time>2026-03-24T09:28:52.488Z</time></trkpt><trkpt lat="43.1512926" lon="12.6812347"><ele>732.0</ele><time>2026-03-24T09:28:53.488Z</time></trkpt><trkpt lat="43.1515005" lon="12.6811883"><ele>732.0</ele><time>2026-03-24T09:28:54.488Z</time></trkpt><trkpt lat="43.1517012" lon="12.6811412"><ele>732.0</ele><time>2026-03-24T09:28:55.488Z</time></trkpt><trkpt lat="43.1518962" lon="12.6811046"><ele>728.3333333333334</ele><time>2026-03-24T09:28:56.488Z</time></trkpt><trkpt lat="43.1520551" lon="12.6810663"><ele>724.6666666666667</ele><time>2026-03-24T09:28:57.488Z</time></trkpt><trkpt lat="43.1521995" lon="12.6810309"><ele>721.0</ele><time>2026-03-24T09:28:58.487Z</time></trkpt><trkpt lat="43.1523394" lon="12.680961"><ele>722.0</ele><time>2026-03-24T09:28:59.487Z</time></trkpt><trkpt lat="43.1524721" lon="12.680829"><ele>723.0</ele><time>2026-03-24T09:29:00.487Z</time></trkpt><trkpt lat="43.1526106" lon="12.6806602"><ele>724.0</ele><time>2026-03-24T09:29:01.488Z</time></trkpt><trkpt lat="43.1527411" lon="12.6804842"><ele>724.0</ele><time>2026-03-24T09:29:02.488Z</time></trkpt><trkpt lat="43.1528804" lon="12.6803101"><ele>724.0</ele><time>2026-03-24T09:29:03.487Z</time></trkpt><trkpt lat="43.1530333" lon="12.6801874"><ele>724.0</ele><time>2026-03-24T09:29:04.489Z</time></trkpt><trkpt lat="43.1531869" lon="12.6800535"><ele>726.6666666666667</ele><time>2026-03-24T09:29:05.488Z</time></trkpt><trkpt lat="43.1533655" lon="12.6798979"><ele>729.3333333333334</ele><time>2026-03-24T09:29:06.489Z</time></trkpt><trkpt lat="43.1535246" lon="12.6797682"><ele>732.0</ele><time>2026-03-24T09:29:07.488Z</time></trkpt><trkpt lat="43.1536791" lon="12.6796386"><ele>732.0</ele><time>2026-03-24T09:29:08.488Z</time></trkpt><trkpt lat="43.1538086" lon="12.6794961"><ele>732.0</ele><time>2026-03-24T09:29:09.488Z</time></trkpt><trkpt lat="43.1539481" lon="12.6793647"><ele>732.0</ele><time>2026-03-24T09:29:10.487Z</time></trkpt><trkpt lat="43.1540679" lon="12.6792155"><ele>734.6666666666666</ele><time>2026-03-24T09:29:11.487Z</time></trkpt><trkpt lat="43.1541927" lon="12.6791069"><ele>737.3333333333333</ele><time>2026-03-24T09:29:12.488Z</time></trkpt><trkpt lat="43.1543484" lon="12.6789435"><ele>740.0</ele><time>2026-03-24T09:29:13.487Z</time></trkpt><trkpt lat="43.154518" lon="12.6788206"><ele>740.0</ele><time>2026-03-24T09:29:14.487Z</time></trkpt><trkpt lat="43.1546743" lon="12.6786665"><ele>740.0</ele><time>2026-03-24T09:29:15.488Z</time></trkpt><trkpt lat="43.1548295" lon="12.6785847"><ele>740.0</ele><time>2026-03-24T09:29:16.488Z</time></trkpt><trkpt lat="43.1549805" lon="12.6784827"><ele>737.6666666666666</ele><time>2026-03-24T09:29:17.488Z</time></trkpt><trkpt lat="43.1551417" lon="12.6784661"><ele>735.3333333333334</ele><time>2026-03-24T09:29:18.488Z</time></trkpt><trkpt lat="43.155301" lon="12.6784347"><ele>733.0</ele><time>2026-03-24T09:29:19.488Z</time></trkpt><trkpt lat="43.1554362" lon="12.6783174"><ele>733.0</ele><time>2026-03-24T09:29:20.488Z</time></trkpt><trkpt lat="43.1555466" lon="12.6781818"><ele>733.0</ele><time>2026-03-24T09:29:21.488Z</time></trkpt><trkpt lat="43.1556313" lon="12.678006"><ele>733.0</ele><time>2026-03-24T09:29:22.488Z</time></trkpt><trkpt lat="43.1557317" lon="12.6778492"><ele>732.3333333333334</ele><time>2026-03-24T09:29:23.487Z</time></trkpt><trkpt lat="43.1558288" lon="12.6776973"><ele>731.6666666666666</ele><time>2026-03-24T09:29:24.488Z</time></trkpt><trkpt lat="43.1559379" lon="12.6775489"><ele>731.0</ele><time>2026-03-24T09:29:25.488Z</time></trkpt><trkpt lat="43.1561189" lon="12.67754"><ele>731.0</ele><time>2026-03-24T09:29:26.489Z</time></trkpt><trkpt lat="43.1562594" lon="12.6774537"><ele>731.0</ele><time>2026-03-24T09:29:27.488Z</time></trkpt><trkpt lat="43.1564534" lon="12.6774999"><ele>731.0</ele><time>2026-03-24T09:29:28.489Z</time></trkpt><trkpt lat="43.1566266" lon="12.677471"><ele>731.6666666666666</ele><time>2026-03-24T09:29:29.488Z</time></trkpt><trkpt lat="43.1568156" lon="12.677405"><ele>732.3333333333334</ele><time>2026-03-24T09:29:30.487Z</time></trkpt><trkpt lat="43.1569509" lon="12.6772671"><ele>733.0</ele><time>2026-03-24T09:29:31.487Z</time></trkpt><trkpt lat="43.1570863" lon="12.6770385"><ele>731.6666666666667</ele><time>2026-03-24T09:29:32.488Z</time></trkpt><trkpt lat="43.1572159" lon="12.6769061"><ele>730.3333333333334</ele><time>2026-03-24T09:29:33.487Z</time></trkpt><trkpt lat="43.1573755" lon="12.6767972"><ele>729.0</ele><time>2026-03-24T09:29:34.488Z</time></trkpt><trkpt lat="43.1575435" lon="12.6766985"><ele>734.0</ele><time>2026-03-24T09:29:35.488Z</time></trkpt><trkpt lat="43.1577305" lon="12.6766017"><ele>739.0</ele><time>2026-03-24T09:29:36.488Z</time></trkpt><trkpt lat="43.1579044" lon="12.6764924"><ele>744.0</ele><time>2026-03-24T09:29:37.487Z</time></trkpt><trkpt lat="43.1580868" lon="12.6763514"><ele>744.6666666666666</ele><time>2026-03-24T09:29:38.488Z</time></trkpt><trkpt lat="43.1582581" lon="12.6761813"><ele>745.3333333333333</ele><time>2026-03-24T09:29:39.488Z</time></trkpt><trkpt lat="43.1584218" lon="12.6759841"><ele>746.0</ele><time>2026-03-24T09:29:40.488Z</time></trkpt><trkpt lat="43.1585637" lon="12.6757705"><ele>746.0</ele><time>2026-03-24T09:29:41.488Z</time></trkpt><trkpt lat="43.1587029" lon="12.6755764"><ele>746.0</ele><time>2026-03-24T09:29:42.487Z</time></trkpt><trkpt lat="43.1588209" lon="12.6753896"><ele>746.0</ele><time>2026-03-24T09:29:43.487Z</time></trkpt><trkpt lat="43.1589361" lon="12.6752078"><ele>747.0</ele><time>2026-03-24T09:29:44.488Z</time></trkpt><trkpt lat="43.1590528" lon="12.675043"><ele>748.0</ele><time>2026-03-24T09:29:45.488Z</time></trkpt><trkpt lat="43.1591804" lon="12.6748743"><ele>749.0</ele><time>2026-03-24T09:29:46.489Z</time></trkpt><trkpt lat="43.1593135" lon="12.6747221"><ele>749.0</ele><time>2026-03-24T09:29:47.487Z</time></trkpt><trkpt lat="43.1594586" lon="12.6746019"><ele>749.0</ele><time>2026-03-24T09:29:48.488Z</time></trkpt><trkpt lat="43.1596152" lon="12.674494"><ele>749.0</ele><time>2026-03-24T09:29:49.488Z</time></trkpt><trkpt lat="43.1597883" lon="12.6744107"><ele>747.0</ele><time>2026-03-24T09:29:50.489Z</time></trkpt><trkpt lat="43.1599643" lon="12.674346"><ele>745.0</ele><time>2026-03-24T09:29:51.488Z</time></trkpt><trkpt lat="43.1601703" lon="12.6742963"><ele>743.0</ele><time>2026-03-24T09:29:52.489Z</time></trkpt><trkpt lat="43.1603662" lon="12.6742492"><ele>743.0</ele><time>2026-03-24T09:29:53.488Z</time></trkpt><trkpt lat="43.1605916" lon="12.6742276"><ele>743.0</ele><time>2026-03-24T09:29:54.488Z</time></trkpt><trkpt lat="43.1608001" lon="12.6742036"><ele>743.0</ele><time>2026-03-24T09:29:55.489Z</time></trkpt><trkpt lat="43.1610189" lon="12.6741724"><ele>742.0</ele><time>2026-03-24T09:29:56.488Z</time></trkpt><trkpt lat="43.1612067" lon="12.6741119"><ele>741.0</ele><time>2026-03-24T09:29:57.488Z</time></trkpt><trkpt lat="43.1614004" lon="12.6740535"><ele>740.0</ele><time>2026-03-24T09:29:58.488Z</time></trkpt><trkpt lat="43.1615865" lon="12.6740075"><ele>740.0</ele><time>2026-03-24T09:29:59.488Z</time></trkpt><trkpt lat="43.1617686" lon="12.6739604"><ele>740.0</ele><time>2026-03-24T09:30:00.487Z</time></trkpt><trkpt lat="43.1619574" lon="12.6739039"><ele>740.0</ele><time>2026-03-24T09:30:01.487Z</time></trkpt><trkpt lat="43.1621286" lon="12.6738566"><ele>740.0</ele><time>2026-03-24T09:30:02.488Z</time></trkpt><trkpt lat="43.162299" lon="12.6738205"><ele>740.0</ele><time>2026-03-24T09:30:03.489Z</time></trkpt><trkpt lat="43.162477" lon="12.6737859"><ele>740.0</ele><time>2026-03-24T09:30:04.488Z</time></trkpt><trkpt lat="43.1626272" lon="12.6737525"><ele>735.0</ele><time>2026-03-24T09:30:05.488Z</time></trkpt><trkpt lat="43.1627904" lon="12.6737304"><ele>730.0</ele><time>2026-03-24T09:30:06.489Z</time></trkpt><trkpt lat="43.1629525" lon="12.6736895"><ele>725.0</ele><time>2026-03-24T09:30:07.487Z</time></trkpt><trkpt lat="43.1631059" lon="12.6736265"><ele>724.3333333333333</ele><time>2026-03-24T09:30:08.489Z</time></trkpt><trkpt lat="43.1632581" lon="12.6735489"><ele>723.6666666666666</ele><time>2026-03-24T09:30:09.487Z</time></trkpt><trkpt lat="43.1633937" lon="12.6734413"><ele>723.0</ele><time>2026-03-24T09:30:10.488Z</time></trkpt><trkpt lat="43.1635229" lon="12.6733192"><ele>723.0</ele><time>2026-03-24T09:30:11.489Z</time></trkpt><trkpt lat="43.1636564" lon="12.673209"><ele>723.0</ele><time>2026-03-24T09:30:12.488Z</time></trkpt><trkpt lat="43.1637957" lon="12.6731151"><ele>723.0</ele><time>2026-03-24T09:30:13.489Z</time></trkpt><trkpt lat="43.1639392" lon="12.6730156"><ele>722.6666666666666</ele><time>2026-03-24T09:30:14.489Z</time></trkpt><trkpt lat="43.1640967" lon="12.6729387"><ele>722.3333333333333</ele><time>2026-03-24T09:30:15.488Z</time></trkpt><trkpt lat="43.1642484" lon="12.6728867"><ele>722.0</ele><time>2026-03-24T09:30:16.487Z</time></trkpt><trkpt lat="43.1643951" lon="12.6728421"><ele>722.0</ele><time>2026-03-24T09:30:17.488Z</time></trkpt><trkpt lat="43.1645349" lon="12.672802"><ele>722.0</ele><time>2026-03-24T09:30:18.488Z</time></trkpt><trkpt lat="43.1646973" lon="12.6728239"><ele>722.0</ele><time>2026-03-24T09:30:19.488Z</time></trkpt><trkpt lat="43.164852" lon="12.6728258"><ele>717.6666666666666</ele><time>2026-03-24T09:30:20.488Z</time></trkpt><trkpt lat="43.165013" lon="12.6728287"><ele>713.3333333333334</ele><time>2026-03-24T09:30:21.488Z</time></trkpt><trkpt lat="43.1651727" lon="12.6728236"><ele>709.0</ele><time>2026-03-24T09:30:22.487Z</time></trkpt><trkpt lat="43.1653293" lon="12.6728116"><ele>709.0</ele><time>2026-03-24T09:30:23.488Z</time></trkpt><trkpt lat="43.165488" lon="12.6727952"><ele>709.0</ele><time>2026-03-24T09:30:24.489Z</time></trkpt><trkpt lat="43.1656532" lon="12.6727823"><ele>709.0</ele><time>2026-03-24T09:30:25.489Z</time></trkpt><trkpt lat="43.165833" lon="12.6727771"><ele>707.0</ele><time>2026-03-24T09:30:26.488Z</time></trkpt><trkpt lat="43.1660024" lon="12.6727612"><ele>705.0</ele><time>2026-03-24T09:30:27.488Z</time></trkpt><trkpt lat="43.1661648" lon="12.6727445"><ele>703.0</ele><time>2026-03-24T09:30:28.488Z</time></trkpt><trkpt lat="43.1663352" lon="12.6727096"><ele>703.0</ele><time>2026-03-24T09:30:29.488Z</time></trkpt><trkpt lat="43.1665068" lon="12.6726953"><ele>703.0</ele><time>2026-03-24T09:30:30.487Z</time></trkpt><trkpt lat="43.1666955" lon="12.6726746"><ele>703.0</ele><time>2026-03-24T09:30:31.487Z</time></trkpt><trkpt lat="43.1668683" lon="12.6726562"><ele>701.3333333333334</ele><time>2026-03-24T09:30:32.488Z</time></trkpt><trkpt lat="43.167033" lon="12.6726339"><ele>699.6666666666666</ele><time>2026-03-24T09:30:33.489Z</time></trkpt><trkpt lat="43.1671881" lon="12.6726073"><ele>698.0</ele><time>2026-03-24T09:30:34.487Z</time></trkpt><trkpt lat="43.167347" lon="12.6725754"><ele>697.3333333333333</ele><time>2026-03-24T09:30:35.487Z</time></trkpt><trkpt lat="43.1675141" lon="12.6725353"><ele>696.6666666666666</ele><time>2026-03-24T09:30:36.489Z</time></trkpt><trkpt lat="43.167679" lon="12.6724943"><ele>696.0</ele><time>2026-03-24T09:30:37.488Z</time></trkpt><trkpt lat="43.167848" lon="12.6724581"><ele>696.0</ele><time>2026-03-24T09:30:38.487Z</time></trkpt><trkpt lat="43.1680143" lon="12.6724368"><ele>696.0</ele><time>2026-03-24T09:30:39.487Z</time></trkpt><trkpt lat="43.1681678" lon="12.6724163"><ele>696.0</ele><time>2026-03-24T09:30:40.488Z</time></trkpt><trkpt lat="43.1683268" lon="12.6723961"><ele>694.0</ele><time>2026-03-24T09:30:41.488Z</time></trkpt><trkpt lat="43.1684793" lon="12.6723657"><ele>692.0</ele><time>2026-03-24T09:30:42.488Z</time></trkpt><trkpt lat="43.1686429" lon="12.6723037"><ele>690.0</ele><time>2026-03-24T09:30:43.488Z</time></trkpt><trkpt lat="43.1688062" lon="12.6722108"><ele>690.0</ele><time>2026-03-24T09:30:44.488Z</time></trkpt><trkpt lat="43.1689631" lon="12.6720922"><ele>690.0</ele><time>2026-03-24T09:30:45.487Z</time></trkpt><trkpt lat="43.1691108" lon="12.6719635"><ele>690.0</ele><time>2026-03-24T09:30:46.488Z</time></trkpt><trkpt lat="43.1692648" lon="12.6718792"><ele>691.5</ele><time>2026-03-24T09:30:47.487Z</time></trkpt><trkpt lat="43.1694022" lon="12.6718307"><ele>693.0</ele><time>2026-03-24T09:30:48.488Z</time></trkpt><trkpt lat="43.1695279" lon="12.6718267"><ele>694.5</ele><time>2026-03-24T09:30:49.488Z</time></trkpt><trkpt lat="43.1696476" lon="12.6718308"><ele>696.0</ele><time>2026-03-24T09:30:50.489Z</time></trkpt><trkpt lat="43.1697568" lon="12.6718001"><ele>696.0</ele><time>2026-03-24T09:30:51.489Z</time></trkpt><trkpt lat="43.1698535" lon="12.6717426"><ele>696.0</ele><time>2026-03-24T09:30:52.488Z</time></trkpt><trkpt lat="43.1699425" lon="12.6716787"><ele>696.0</ele><time>2026-03-24T09:30:53.488Z</time></trkpt><trkpt lat="43.1700062" lon="12.671617"><ele>696.0</ele><time>2026-03-24T09:30:54.487Z</time></trkpt><trkpt lat="43.1700641" lon="12.6715662"><ele>696.0</ele><time>2026-03-24T09:30:55.487Z</time></trkpt><trkpt lat="43.1701316" lon="12.6714927"><ele>696.0</ele><time>2026-03-24T09:30:57.488Z</time></trkpt><trkpt lat="43.1701695" lon="12.6714195"><ele>697.6666666666666</ele><time>2026-03-24T09:30:59.488Z</time></trkpt><trkpt lat="43.1701635" lon="12.6713189"><ele>699.3333333333334</ele><time>2026-03-24T09:31:02.488Z</time></trkpt><trkpt lat="43.1702133" lon="12.6712303"><ele>701.0</ele><time>2026-03-24T09:32:00.487Z</time></trkpt><trkpt lat="43.1703052" lon="12.6711133"><ele>702.6666666666667</ele><time>2026-03-24T09:32:02.489Z</time></trkpt><trkpt lat="43.1703508" lon="12.6710448"><ele>704.3333333333334</ele><time>2026-03-24T09:32:03.487Z</time></trkpt><trkpt lat="43.1703945" lon="12.6709571"><ele>706.0</ele><time>2026-03-24T09:32:04.489Z</time></trkpt><trkpt lat="43.1704307" lon="12.6707908"><ele>706.0</ele><time>2026-03-24T09:32:05.49Z</time></trkpt><trkpt lat="43.1704614" lon="12.6706279"><ele>706.0</ele><time>2026-03-24T09:32:06.488Z</time></trkpt><trkpt lat="43.1705145" lon="12.6704074"><ele>706.0</ele><time>2026-03-24T09:32:07.489Z</time></trkpt><trkpt lat="43.1705731" lon="12.6702248"><ele>706.0</ele><time>2026-03-24T09:32:08.488Z</time></trkpt><trkpt lat="43.1706272" lon="12.6700342"><ele>711.75</ele><time>2026-03-24T09:32:09.489Z</time></trkpt><trkpt lat="43.1706942" lon="12.6698659"><ele>717.5</ele><time>2026-03-24T09:32:10.488Z</time></trkpt><trkpt lat="43.1707661" lon="12.6697081"><ele>723.25</ele><time>2026-03-24T09:32:11.488Z</time></trkpt><trkpt lat="43.1708564" lon="12.6695693"><ele>729.0</ele><time>2026-03-24T09:32:12.49Z</time></trkpt><trkpt lat="43.1709658" lon="12.6694514"><ele>727.0</ele><time>2026-03-24T09:32:13.487Z</time></trkpt><trkpt lat="43.171078" lon="12.6693383"><ele>725.0</ele><time>2026-03-24T09:32:14.489Z</time></trkpt><trkpt lat="43.1711754" lon="12.6692193"><ele>723.0</ele><time>2026-03-24T09:32:15.488Z</time></trkpt><trkpt lat="43.1712782" lon="12.6691157"><ele>721.0</ele><time>2026-03-24T09:32:16.488Z</time></trkpt><trkpt lat="43.1713901" lon="12.6690192"><ele>721.0</ele><time>2026-03-24T09:32:17.488Z</time></trkpt><trkpt lat="43.1714992" lon="12.66891"><ele>721.0</ele><time>2026-03-24T09:32:18.489Z</time></trkpt><trkpt lat="43.1716129" lon="12.668764"><ele>721.0</ele><time>2026-03-24T09:32:19.488Z</time></trkpt><trkpt lat="43.1717225" lon="12.6686278"><ele>721.0</ele><time>2026-03-24T09:32:20.488Z</time></trkpt><trkpt lat="43.1718395" lon="12.6684726"><ele>722.3333333333334</ele><time>2026-03-24T09:32:21.488Z</time></trkpt><trkpt lat="43.171955" lon="12.6683176"><ele>723.6666666666666</ele><time>2026-03-24T09:32:22.488Z</time></trkpt><trkpt lat="43.1720705" lon="12.6681561"><ele>725.0</ele><time>2026-03-24T09:32:23.488Z</time></trkpt><trkpt lat="43.172187" lon="12.6680044"><ele>725.0</ele><time>2026-03-24T09:32:24.487Z</time></trkpt><trkpt lat="43.1722898" lon="12.6678424"><ele>725.0</ele><time>2026-03-24T09:32:25.487Z</time></trkpt><trkpt lat="43.1723955" lon="12.6676877"><ele>725.0</ele><time>2026-03-24T09:32:26.489Z</time></trkpt><trkpt lat="43.1724963" lon="12.6674953"><ele>719.6666666666666</ele><time>2026-03-24T09:32:27.489Z</time></trkpt><trkpt lat="43.1725735" lon="12.6672729"><ele>714.3333333333334</ele><time>2026-03-24T09:32:28.488Z</time></trkpt><trkpt lat="43.1726562" lon="12.6670427"><ele>709.0</ele><time>2026-03-24T09:32:29.488Z</time></trkpt><trkpt lat="43.1727566" lon="12.6668187"><ele>706.6666666666667</ele><time>2026-03-24T09:32:30.49Z</time></trkpt><trkpt lat="43.1728658" lon="12.666615"><ele>704.3333333333334</ele><time>2026-03-24T09:32:31.488Z</time></trkpt><trkpt lat="43.1729633" lon="12.6664056"><ele>702.0</ele><time>2026-03-24T09:32:32.489Z</time></trkpt><trkpt lat="43.1730496" lon="12.6661937"><ele>701.0</ele><time>2026-03-24T09:32:33.489Z</time></trkpt><trkpt lat="43.1731127" lon="12.6659707"><ele>700.0</ele><time>2026-03-24T09:32:34.489Z</time></trkpt><trkpt lat="43.173161" lon="12.665744"><ele>699.0</ele><time>2026-03-24T09:32:35.488Z</time></trkpt><trkpt lat="43.1732084" lon="12.6655056"><ele>698.6666666666666</ele><time>2026-03-24T09:32:36.488Z</time></trkpt><trkpt lat="43.1732757" lon="12.6652727"><ele>698.3333333333333</ele><time>2026-03-24T09:32:37.489Z</time></trkpt><trkpt lat="43.1733584" lon="12.6650428"><ele>698.0</ele><time>2026-03-24T09:32:38.489Z</time></trkpt><trkpt lat="43.1734765" lon="12.6648244"><ele>698.0</ele><time>2026-03-24T09:32:39.487Z</time></trkpt><trkpt lat="43.1735962" lon="12.6645992"><ele>698.0</ele><time>2026-03-24T09:32:40.488Z</time></trkpt><trkpt lat="43.1737166" lon="12.6643855"><ele>698.0</ele><time>2026-03-24T09:32:41.489Z</time></trkpt><trkpt lat="43.1738305" lon="12.6641867"><ele>696.6666666666666</ele><time>2026-03-24T09:32:42.488Z</time></trkpt><trkpt lat="43.1739209" lon="12.6639871"><ele>695.3333333333334</ele><time>2026-03-24T09:32:43.489Z</time></trkpt><trkpt lat="43.1740073" lon="12.6637739"><ele>694.0</ele><time>2026-03-24T09:32:44.489Z</time></trkpt><trkpt lat="43.1740832" lon="12.6635527"><ele>693.6666666666667</ele><time>2026-03-24T09:32:45.488Z</time></trkpt><trkpt lat="43.1741672" lon="12.6633222"><ele>693.3333333333334</ele><time>2026-03-24T09:32:46.488Z</time></trkpt><trkpt lat="43.1742456" lon="12.6631006"><ele>693.0</ele><time>2026-03-24T09:32:47.488Z</time></trkpt><trkpt lat="43.1743104" lon="12.6628924"><ele>689.0</ele><time>2026-03-24T09:32:48.488Z</time></trkpt><trkpt lat="43.1744101" lon="12.6627035"><ele>685.0</ele><time>2026-03-24T09:32:49.488Z</time></trkpt><trkpt lat="43.1745112" lon="12.6625272"><ele>681.0</ele><time>2026-03-24T09:32:50.489Z</time></trkpt><trkpt lat="43.1746423" lon="12.6623566"><ele>681.0</ele><time>2026-03-24T09:32:51.487Z</time></trkpt><trkpt lat="43.1747616" lon="12.662205"><ele>681.0</ele><time>2026-03-24T09:32:52.488Z</time></trkpt><trkpt lat="43.1748874" lon="12.6620343"><ele>681.0</ele><time>2026-03-24T09:32:53.489Z</time></trkpt><trkpt lat="43.1750165" lon="12.661858"><ele>682.0</ele><time>2026-03-24T09:32:54.488Z</time></trkpt><trkpt lat="43.1751526" lon="12.6616814"><ele>683.0</ele><time>2026-03-24T09:32:55.489Z</time></trkpt><trkpt lat="43.1752825" lon="12.6614954"><ele>684.0</ele><time>2026-03-24T09:32:56.488Z</time></trkpt><trkpt lat="43.1754037" lon="12.6613184"><ele>684.0</ele><time>2026-03-24T09:32:57.488Z</time></trkpt><trkpt lat="43.1755239" lon="12.6611503"><ele>684.0</ele><time>2026-03-24T09:32:58.488Z</time></trkpt><trkpt lat="43.1756581" lon="12.6610438"><ele>684.0</ele><time>2026-03-24T09:32:59.49Z</time></trkpt><trkpt lat="43.1757994" lon="12.6609563"><ele>682.3333333333334</ele><time>2026-03-24T09:33:00.489Z</time></trkpt><trkpt lat="43.1759417" lon="12.6608698"><ele>680.6666666666667</ele><time>2026-03-24T09:33:01.488Z</time></trkpt><trkpt lat="43.176099" lon="12.6608037"><ele>679.0</ele><time>2026-03-24T09:33:02.489Z</time></trkpt><trkpt lat="43.1762562" lon="12.6607105"><ele>679.0</ele><time>2026-03-24T09:33:03.489Z</time></trkpt><trkpt lat="43.1763914" lon="12.6605822"><ele>679.0</ele><time>2026-03-24T09:33:04.487Z</time></trkpt><trkpt lat="43.1765359" lon="12.6604421"><ele>679.0</ele><time>2026-03-24T09:33:05.488Z</time></trkpt><trkpt lat="43.1766968" lon="12.6603382"><ele>681.25</ele><time>2026-03-24T09:33:06.488Z</time></trkpt><trkpt lat="43.1768463" lon="12.6602422"><ele>683.5</ele><time>2026-03-24T09:33:07.489Z</time></trkpt><trkpt lat="43.1769629" lon="12.6601603"><ele>685.75</ele><time>2026-03-24T09:33:08.487Z</time></trkpt><trkpt lat="43.1770437" lon="12.6600653"><ele>688.0</ele><time>2026-03-24T09:33:09.489Z</time></trkpt><trkpt lat="43.1771191" lon="12.6600159"><ele>688.0</ele><time>2026-03-24T09:33:10.489Z</time></trkpt><trkpt lat="43.1772147" lon="12.6599606"><ele>688.0</ele><time>2026-03-24T09:33:11.489Z</time></trkpt><trkpt lat="43.177339" lon="12.6599021"><ele>688.0</ele><time>2026-03-24T09:33:12.489Z</time></trkpt><trkpt lat="43.1774866" lon="12.6598997"><ele>688.0</ele><time>2026-03-24T09:33:13.488Z</time></trkpt><trkpt lat="43.1776596" lon="12.6599039"><ele>688.0</ele><time>2026-03-24T09:33:14.489Z</time></trkpt><trkpt lat="43.1778342" lon="12.659908"><ele>688.0</ele><time>2026-03-24T09:33:15.49Z</time></trkpt><trkpt lat="43.1780071" lon="12.6598923"><ele>688.0</ele><time>2026-03-24T09:33:16.488Z</time></trkpt><trkpt lat="43.1782003" lon="12.6598924"><ele>688.0</ele><time>2026-03-24T09:33:17.489Z</time></trkpt><trkpt lat="43.1784007" lon="12.6599447"><ele>688.0</ele><time>2026-03-24T09:33:18.488Z</time></trkpt><trkpt lat="43.1785771" lon="12.6600216"><ele>688.0</ele><time>2026-03-24T09:33:19.488Z</time></trkpt><trkpt lat="43.1787254" lon="12.6601643"><ele>686.6666666666667</ele><time>2026-03-24T09:33:20.488Z</time></trkpt><trkpt lat="43.1788815" lon="12.6603234"><ele>685.3333333333334</ele><time>2026-03-24T09:33:21.488Z</time></trkpt><trkpt lat="43.1790222" lon="12.6604957"><ele>684.0</ele><time>2026-03-24T09:33:22.489Z</time></trkpt><trkpt lat="43.1791522" lon="12.6606822"><ele>682.3333333333334</ele><time>2026-03-24T09:33:23.488Z</time></trkpt><trkpt lat="43.1792734" lon="12.6608658"><ele>680.6666666666667</ele><time>2026-03-24T09:33:24.488Z</time></trkpt><trkpt lat="43.1793725" lon="12.6610486"><ele>679.0</ele><time>2026-03-24T09:33:25.487Z</time></trkpt><trkpt lat="43.1794745" lon="12.661209"><ele>679.0</ele><time>2026-03-24T09:33:26.489Z</time></trkpt><trkpt lat="43.1795862" lon="12.6613611"><ele>679.0</ele><time>2026-03-24T09:33:27.488Z</time></trkpt><trkpt lat="43.1797063" lon="12.6614934"><ele>679.0</ele><time>2026-03-24T09:33:28.488Z</time></trkpt><trkpt lat="43.1798106" lon="12.6616193"><ele>682.25</ele><time>2026-03-24T09:33:29.488Z</time></trkpt><trkpt lat="43.1798929" lon="12.6617413"><ele>685.5</ele><time>2026-03-24T09:33:30.488Z</time></trkpt><trkpt lat="43.1799779" lon="12.6618453"><ele>688.75</ele><time>2026-03-24T09:33:31.489Z</time></trkpt><trkpt lat="43.1800824" lon="12.6619077"><ele>692.0</ele><time>2026-03-24T09:33:32.488Z</time></trkpt><trkpt lat="43.1802031" lon="12.6619414"><ele>689.0</ele><time>2026-03-24T09:33:33.488Z</time></trkpt><trkpt lat="43.1803366" lon="12.6619769"><ele>686.0</ele><time>2026-03-24T09:33:34.489Z</time></trkpt><trkpt lat="43.1804773" lon="12.6620294"><ele>683.0</ele><time>2026-03-24T09:33:35.488Z</time></trkpt><trkpt lat="43.180607" lon="12.6621252"><ele>680.0</ele><time>2026-03-24T09:33:36.488Z</time></trkpt><trkpt lat="43.1807356" lon="12.6622491"><ele>680.0</ele><time>2026-03-24T09:33:37.489Z</time></trkpt><trkpt lat="43.18085" lon="12.6623855"><ele>680.0</ele><time>2026-03-24T09:33:38.488Z</time></trkpt><trkpt lat="43.1809551" lon="12.6625043"><ele>680.0</ele><time>2026-03-24T09:33:39.487Z</time></trkpt><trkpt lat="43.1810525" lon="12.6626263"><ele>680.0</ele><time>2026-03-24T09:33:40.489Z</time></trkpt><trkpt lat="43.1811308" lon="12.6627506"><ele>677.5</ele><time>2026-03-24T09:33:41.489Z</time></trkpt><trkpt lat="43.1811804" lon="12.662897"><ele>675.0</ele><time>2026-03-24T09:33:42.488Z</time></trkpt><trkpt lat="43.1811904" lon="12.6630611"><ele>672.5</ele><time>2026-03-24T09:33:43.488Z</time></trkpt><trkpt lat="43.1811765" lon="12.6632324"><ele>670.0</ele><time>2026-03-24T09:33:44.488Z</time></trkpt><trkpt lat="43.1811398" lon="12.6633842"><ele>670.0</ele><time>2026-03-24T09:33:45.489Z</time></trkpt><trkpt lat="43.1811334" lon="12.6635537"><ele>670.0</ele><time>2026-03-24T09:33:46.489Z</time></trkpt><trkpt lat="43.1811719" lon="12.6637214"><ele>670.0</ele><time>2026-03-24T09:33:47.489Z</time></trkpt><trkpt lat="43.1812215" lon="12.663893"><ele>670.0</ele><time>2026-03-24T09:33:48.489Z</time></trkpt><trkpt lat="43.1812755" lon="12.6640383"><ele>669.5</ele><time>2026-03-24T09:33:49.489Z</time></trkpt><trkpt lat="43.181345" lon="12.6641631"><ele>669.0</ele><time>2026-03-24T09:33:50.489Z</time></trkpt><trkpt lat="43.1814216" lon="12.6642258"><ele>668.5</ele><time>2026-03-24T09:33:51.488Z</time></trkpt><trkpt lat="43.18149" lon="12.664216"><ele>668.0</ele><time>2026-03-24T09:33:52.488Z</time></trkpt><trkpt lat="43.1815479" lon="12.6641493"><ele>667.5</ele><time>2026-03-24T09:33:53.489Z</time></trkpt><trkpt lat="43.1815908" lon="12.664028"><ele>667.0</ele><time>2026-03-24T09:33:54.489Z</time></trkpt><trkpt lat="43.1816426" lon="12.6638881"><ele>667.0</ele><time>2026-03-24T09:33:55.489Z</time></trkpt><trkpt lat="43.1817229" lon="12.6637255"><ele>667.0</ele><time>2026-03-24T09:33:56.488Z</time></trkpt><trkpt lat="43.1818257" lon="12.6635814"><ele>667.0</ele><time>2026-03-24T09:33:57.488Z</time></trkpt><trkpt lat="43.181943" lon="12.6634586"><ele>667.0</ele><time>2026-03-24T09:33:58.489Z</time></trkpt><trkpt lat="43.1820663" lon="12.6633673"><ele>667.0</ele><time>2026-03-24T09:33:59.489Z</time></trkpt><trkpt lat="43.1821979" lon="12.6633047"><ele>667.0</ele><time>2026-03-24T09:34:00.489Z</time></trkpt><trkpt lat="43.1823353" lon="12.6632514"><ele>667.0</ele><time>2026-03-24T09:34:01.489Z</time></trkpt><trkpt lat="43.1824704" lon="12.6632192"><ele>667.0</ele><time>2026-03-24T09:34:02.489Z</time></trkpt><trkpt lat="43.1825978" lon="12.6632169"><ele>664.75</ele><time>2026-03-24T09:34:03.488Z</time></trkpt><trkpt lat="43.1827291" lon="12.6632576"><ele>662.5</ele><time>2026-03-24T09:34:04.489Z</time></trkpt><trkpt lat="43.1828565" lon="12.6633581"><ele>660.25</ele><time>2026-03-24T09:34:05.487Z</time></trkpt><trkpt lat="43.1829777" lon="12.6634689"><ele>658.0</ele><time>2026-03-24T09:34:06.489Z</time></trkpt><trkpt lat="43.1830729" lon="12.6636191"><ele>657.5</ele><time>2026-03-24T09:34:07.487Z</time></trkpt><trkpt lat="43.1831549" lon="12.6637431"><ele>657.0</ele><time>2026-03-24T09:34:08.489Z</time></trkpt><trkpt lat="43.1832459" lon="12.6638267"><ele>656.5</ele><time>2026-03-24T09:34:09.489Z</time></trkpt><trkpt lat="43.1833664" lon="12.6638725"><ele>656.0</ele><time>2026-03-24T09:34:10.489Z</time></trkpt><trkpt lat="43.1835034" lon="12.6638709"><ele>652.0</ele><time>2026-03-24T09:34:11.487Z</time></trkpt><trkpt lat="43.183659" lon="12.6638743"><ele>648.0</ele><time>2026-03-24T09:34:12.489Z</time></trkpt><trkpt lat="43.1838225" lon="12.6639084"><ele>644.0</ele><time>2026-03-24T09:34:13.488Z</time></trkpt><trkpt lat="43.1839891" lon="12.6640018"><ele>644.3333333333333</ele><time>2026-03-24T09:34:14.489Z</time></trkpt><trkpt lat="43.1841349" lon="12.6641355"><ele>644.6666666666666</ele><time>2026-03-24T09:34:15.488Z</time></trkpt><trkpt lat="43.1842511" lon="12.664276"><ele>645.0</ele><time>2026-03-24T09:34:16.489Z</time></trkpt><trkpt lat="43.1843406" lon="12.6644346"><ele>642.6666666666666</ele><time>2026-03-24T09:34:17.488Z</time></trkpt><trkpt lat="43.1844057" lon="12.6646057"><ele>640.3333333333333</ele><time>2026-03-24T09:34:18.488Z</time></trkpt><trkpt lat="43.1844401" lon="12.66481"><ele>638.0</ele><time>2026-03-24T09:34:19.49Z</time></trkpt><trkpt lat="43.184475" lon="12.6650298"><ele>638.0</ele><time>2026-03-24T09:34:20.489Z</time></trkpt><trkpt lat="43.1844969" lon="12.6652558"><ele>638.0</ele><time>2026-03-24T09:34:21.489Z</time></trkpt><trkpt lat="43.184533" lon="12.665469"><ele>638.0</ele><time>2026-03-24T09:34:22.489Z</time></trkpt><trkpt lat="43.1845684" lon="12.6656609"><ele>637.5</ele><time>2026-03-24T09:34:23.489Z</time></trkpt><trkpt lat="43.1846202" lon="12.6658374"><ele>637.0</ele><time>2026-03-24T09:34:24.488Z</time></trkpt><trkpt lat="43.1846895" lon="12.6659957"><ele>636.5</ele><time>2026-03-24T09:34:25.488Z</time></trkpt><trkpt lat="43.1847854" lon="12.666146"><ele>636.0</ele><time>2026-03-24T09:34:26.489Z</time></trkpt><trkpt lat="43.1848937" lon="12.6662738"><ele>637.0</ele><time>2026-03-24T09:34:27.489Z</time></trkpt><trkpt lat="43.1850121" lon="12.6663908"><ele>638.0</ele><time>2026-03-24T09:34:28.489Z</time></trkpt><trkpt lat="43.1851164" lon="12.6664754"><ele>639.0</ele><time>2026-03-24T09:34:29.489Z</time></trkpt><trkpt lat="43.1852202" lon="12.6665247"><ele>640.0</ele><time>2026-03-24T09:34:30.488Z</time></trkpt><trkpt lat="43.1853275" lon="12.6665122"><ele>640.0</ele><time>2026-03-24T09:34:31.489Z</time></trkpt><trkpt lat="43.1854493" lon="12.6664574"><ele>640.0</ele><time>2026-03-24T09:34:32.489Z</time></trkpt><trkpt lat="43.1855698" lon="12.6664224"><ele>640.0</ele><time>2026-03-24T09:34:33.488Z</time></trkpt><trkpt lat="43.1856815" lon="12.6664194"><ele>640.0</ele><time>2026-03-24T09:34:34.488Z</time></trkpt><trkpt lat="43.1857948" lon="12.66645"><ele>639.75</ele><time>2026-03-24T09:34:35.488Z</time></trkpt><trkpt lat="43.1858989" lon="12.6665359"><ele>639.5</ele><time>2026-03-24T09:34:36.489Z</time></trkpt><trkpt lat="43.1859946" lon="12.6666564"><ele>639.25</ele><time>2026-03-24T09:34:37.488Z</time></trkpt><trkpt lat="43.1861019" lon="12.6667817"><ele>639.0</ele><time>2026-03-24T09:34:38.489Z</time></trkpt><trkpt lat="43.1862117" lon="12.6668912"><ele>637.25</ele><time>2026-03-24T09:34:39.488Z</time></trkpt><trkpt lat="43.1863165" lon="12.6669839"><ele>635.5</ele><time>2026-03-24T09:34:40.488Z</time></trkpt><trkpt lat="43.1864208" lon="12.6670596"><ele>633.75</ele><time>2026-03-24T09:34:41.488Z</time></trkpt><trkpt lat="43.1865285" lon="12.6671219"><ele>632.0</ele><time>2026-03-24T09:34:42.489Z</time></trkpt><trkpt lat="43.1866429" lon="12.6672024"><ele>632.0</ele><time>2026-03-24T09:34:43.489Z</time></trkpt><trkpt lat="43.1867469" lon="12.6672879"><ele>632.0</ele><time>2026-03-24T09:34:44.489Z</time></trkpt><trkpt lat="43.1868636" lon="12.6673454"><ele>632.0</ele><time>2026-03-24T09:34:45.489Z</time></trkpt><trkpt lat="43.1870055" lon="12.6673754"><ele>632.0</ele><time>2026-03-24T09:34:46.49Z</time></trkpt><trkpt lat="43.1871629" lon="12.667405"><ele>632.0</ele><time>2026-03-24T09:34:47.489Z</time></trkpt><trkpt lat="43.187324" lon="12.6674478"><ele>632.0</ele><time>2026-03-24T09:34:48.489Z</time></trkpt><trkpt lat="43.1874818" lon="12.6674943"><ele>632.0</ele><time>2026-03-24T09:34:49.488Z</time></trkpt><trkpt lat="43.187626" lon="12.6675627"><ele>631.2</ele><time>2026-03-24T09:34:50.488Z</time></trkpt><trkpt lat="43.1877591" lon="12.6676093"><ele>630.4000000000001</ele><time>2026-03-24T09:34:51.489Z</time></trkpt><trkpt lat="43.1878857" lon="12.6676638"><ele>629.5999999999999</ele><time>2026-03-24T09:34:52.489Z</time></trkpt><trkpt lat="43.187968" lon="12.6676964"><ele>628.8</ele><time>2026-03-24T09:34:53.489Z</time></trkpt><trkpt lat="43.1880478" lon="12.6676789"><ele>628.0</ele><time>2026-03-24T09:34:54.488Z</time></trkpt><trkpt lat="43.1881006" lon="12.667605"><ele>628.0</ele><time>2026-03-24T09:34:55.489Z</time></trkpt><trkpt lat="43.1881194" lon="12.6674943"><ele>628.0</ele><time>2026-03-24T09:34:56.488Z</time></trkpt><trkpt lat="43.1881166" lon="12.6673544"><ele>628.0</ele><time>2026-03-24T09:34:57.489Z</time></trkpt><trkpt lat="43.1880881" lon="12.6672241"><ele>628.0</ele><time>2026-03-24T09:34:58.489Z</time></trkpt><trkpt lat="43.1880147" lon="12.6670968"><ele>628.0</ele><time>2026-03-24T09:34:59.489Z</time></trkpt><trkpt lat="43.1879259" lon="12.6669764"><ele>627.75</ele><time>2026-03-24T09:35:00.489Z</time></trkpt><trkpt lat="43.1878625" lon="12.6668371"><ele>627.5</ele><time>2026-03-24T09:35:01.489Z</time></trkpt><trkpt lat="43.1878338" lon="12.6666646"><ele>627.25</ele><time>2026-03-24T09:35:02.489Z</time></trkpt><trkpt lat="43.1878562" lon="12.6664805"><ele>627.0</ele><time>2026-03-24T09:35:03.489Z</time></trkpt><trkpt lat="43.1878959" lon="12.6662862"><ele>629.0</ele><time>2026-03-24T09:35:04.489Z</time></trkpt><trkpt lat="43.1879323" lon="12.6660729"><ele>631.0</ele><time>2026-03-24T09:35:05.489Z</time></trkpt><trkpt lat="43.1880772" lon="12.6658878"><ele>633.0</ele><time>2026-03-24T09:35:06.488Z</time></trkpt><trkpt lat="43.1881858" lon="12.6657033"><ele>626.0</ele><time>2026-03-24T09:35:07.489Z</time></trkpt><trkpt lat="43.1882535" lon="12.6655337"><ele>619.0</ele><time>2026-03-24T09:35:08.488Z</time></trkpt><trkpt lat="43.1882856" lon="12.6653332"><ele>612.0</ele><time>2026-03-24T09:35:09.488Z</time></trkpt><trkpt lat="43.1883084" lon="12.665119"><ele>605.0</ele><time>2026-03-24T09:35:10.489Z</time></trkpt><trkpt lat="43.1883632" lon="12.6649261"><ele>605.0</ele><time>2026-03-24T09:35:11.489Z</time></trkpt><trkpt lat="43.1884549" lon="12.6647709"><ele>605.0</ele><time>2026-03-24T09:35:12.489Z</time></trkpt><trkpt lat="43.188538" lon="12.664619"><ele>605.0</ele><time>2026-03-24T09:35:13.489Z</time></trkpt><trkpt lat="43.1885979" lon="12.6644502"><ele>605.0</ele><time>2026-03-24T09:35:14.489Z</time></trkpt><trkpt lat="43.1886408" lon="12.6642263"><ele>605.6666666666666</ele><time>2026-03-24T09:35:15.489Z</time></trkpt><trkpt lat="43.1886677" lon="12.6640099"><ele>606.3333333333334</ele><time>2026-03-24T09:35:16.488Z</time></trkpt><trkpt lat="43.1886988" lon="12.6637902"><ele>607.0</ele><time>2026-03-24T09:35:17.488Z</time></trkpt><trkpt lat="43.1887056" lon="12.6635854"><ele>608.0</ele><time>2026-03-24T09:35:18.489Z</time></trkpt><trkpt lat="43.1886796" lon="12.6634058"><ele>609.0</ele><time>2026-03-24T09:35:19.489Z</time></trkpt><trkpt lat="43.1886715" lon="12.6632507"><ele>610.0</ele><time>2026-03-24T09:35:20.489Z</time></trkpt><trkpt lat="43.1886663" lon="12.6631115"><ele>611.0</ele><time>2026-03-24T09:35:21.489Z</time></trkpt><trkpt lat="43.1887823" lon="12.6630607"><ele>611.0</ele><time>2026-03-24T09:35:22.49Z</time></trkpt><trkpt lat="43.1888752" lon="12.6631156"><ele>611.0</ele><time>2026-03-24T09:35:23.489Z</time></trkpt><trkpt lat="43.1889946" lon="12.6632287"><ele>611.0</ele><time>2026-03-24T09:35:24.489Z</time></trkpt><trkpt lat="43.189107" lon="12.6633566"><ele>611.0</ele><time>2026-03-24T09:35:25.489Z</time></trkpt><trkpt lat="43.1892163" lon="12.6634823"><ele>607.25</ele><time>2026-03-24T09:35:26.49Z</time></trkpt><trkpt lat="43.1892994" lon="12.6636001"><ele>603.5</ele><time>2026-03-24T09:35:27.488Z</time></trkpt><trkpt lat="43.1893905" lon="12.6636228"><ele>599.75</ele><time>2026-03-24T09:35:28.489Z</time></trkpt><trkpt lat="43.1894886" lon="12.6636585"><ele>596.0</ele><time>2026-03-24T09:35:29.488Z</time></trkpt><trkpt lat="43.1896101" lon="12.663545"><ele>596.0</ele><time>2026-03-24T09:35:30.489Z</time></trkpt><trkpt lat="43.1897733" lon="12.6634733"><ele>596.0</ele><time>2026-03-24T09:35:31.489Z</time></trkpt><trkpt lat="43.1899457" lon="12.6634052"><ele>596.0</ele><time>2026-03-24T09:35:32.489Z</time></trkpt><trkpt lat="43.1901369" lon="12.6633782"><ele>591.3333333333333</ele><time>2026-03-24T09:35:33.489Z</time></trkpt><trkpt lat="43.1903251" lon="12.6633604"><ele>586.6666666666666</ele><time>2026-03-24T09:35:34.488Z</time></trkpt><trkpt lat="43.1905044" lon="12.6633204"><ele>582.0</ele><time>2026-03-24T09:35:35.489Z</time></trkpt><trkpt lat="43.190691" lon="12.6632139"><ele>577.6666666666666</ele><time>2026-03-24T09:35:36.489Z</time></trkpt><trkpt lat="43.1908847" lon="12.6630902"><ele>573.3333333333333</ele><time>2026-03-24T09:35:37.488Z</time></trkpt><trkpt lat="43.1910413" lon="12.662971"><ele>569.0</ele><time>2026-03-24T09:35:38.489Z</time></trkpt><trkpt lat="43.1911827" lon="12.6628658"><ele>572.25</ele><time>2026-03-24T09:35:39.489Z</time></trkpt><trkpt lat="43.1912858" lon="12.6627536"><ele>575.5</ele><time>2026-03-24T09:35:40.489Z</time></trkpt><trkpt lat="43.1913626" lon="12.6626348"><ele>578.75</ele><time>2026-03-24T09:35:41.488Z</time></trkpt><trkpt lat="43.1913993" lon="12.6624743"><ele>582.0</ele><time>2026-03-24T09:35:42.49Z</time></trkpt><trkpt lat="43.1914147" lon="12.6623029"><ele>582.0</ele><time>2026-03-24T09:35:43.488Z</time></trkpt><trkpt lat="43.1914246" lon="12.6621091"><ele>582.0</ele><time>2026-03-24T09:35:44.488Z</time></trkpt><trkpt lat="43.191468" lon="12.6619276"><ele>582.0</ele><time>2026-03-24T09:35:45.489Z</time></trkpt><trkpt lat="43.1915372" lon="12.6617249"><ele>582.0</ele><time>2026-03-24T09:35:46.489Z</time></trkpt><trkpt lat="43.191629" lon="12.6615437"><ele>580.0</ele><time>2026-03-24T09:35:47.49Z</time></trkpt><trkpt lat="43.1917276" lon="12.6613742"><ele>578.0</ele><time>2026-03-24T09:35:48.489Z</time></trkpt><trkpt lat="43.191834" lon="12.6612032"><ele>576.0</ele><time>2026-03-24T09:35:49.489Z</time></trkpt><trkpt lat="43.191925" lon="12.6610481"><ele>576.0</ele><time>2026-03-24T09:35:50.488Z</time></trkpt><trkpt lat="43.1920102" lon="12.6609039"><ele>576.0</ele><time>2026-03-24T09:35:51.488Z</time></trkpt><trkpt lat="43.1920702" lon="12.6607423"><ele>576.0</ele><time>2026-03-24T09:35:52.488Z</time></trkpt><trkpt lat="43.192093" lon="12.6605641"><ele>576.0</ele><time>2026-03-24T09:35:53.488Z</time></trkpt><trkpt lat="43.1920786" lon="12.6603846"><ele>574.25</ele><time>2026-03-24T09:35:54.489Z</time></trkpt><trkpt lat="43.1920384" lon="12.6602197"><ele>572.5</ele><time>2026-03-24T09:35:55.488Z</time></trkpt><trkpt lat="43.1919788" lon="12.6600642"><ele>570.75</ele><time>2026-03-24T09:35:56.489Z</time></trkpt><trkpt lat="43.1918842" lon="12.6599129"><ele>569.0</ele><time>2026-03-24T09:35:57.488Z</time></trkpt><trkpt lat="43.1917796" lon="12.6597748"><ele>569.0</ele><time>2026-03-24T09:35:58.489Z</time></trkpt><trkpt lat="43.1916766" lon="12.6596298"><ele>569.0</ele><time>2026-03-24T09:35:59.489Z</time></trkpt><trkpt lat="43.1916463" lon="12.6594831"><ele>569.0</ele><time>2026-03-24T09:36:00.489Z</time></trkpt><trkpt lat="43.1916539" lon="12.6593102"><ele>569.0</ele><time>2026-03-24T09:36:01.489Z</time></trkpt><trkpt lat="43.1916636" lon="12.6591361"><ele>570.6666666666666</ele><time>2026-03-24T09:36:02.489Z</time></trkpt><trkpt lat="43.1917929" lon="12.6589338"><ele>572.3333333333334</ele><time>2026-03-24T09:36:03.49Z</time></trkpt><trkpt lat="43.1918804" lon="12.6587448"><ele>574.0</ele><time>2026-03-24T09:36:04.488Z</time></trkpt><trkpt lat="43.1919889" lon="12.6585916"><ele>574.0</ele><time>2026-03-24T09:36:05.488Z</time></trkpt><trkpt lat="43.1920995" lon="12.6584933"><ele>574.0</ele><time>2026-03-24T09:36:06.489Z</time></trkpt><trkpt lat="43.1922372" lon="12.6584071"><ele>574.0</ele><time>2026-03-24T09:36:07.489Z</time></trkpt><trkpt lat="43.1923794" lon="12.6583825"><ele>574.0</ele><time>2026-03-24T09:36:08.489Z</time></trkpt><trkpt lat="43.1925253" lon="12.6583814"><ele>570.25</ele><time>2026-03-24T09:36:09.489Z</time></trkpt><trkpt lat="43.1926577" lon="12.6583719"><ele>566.5</ele><time>2026-03-24T09:36:10.488Z</time></trkpt><trkpt lat="43.1927887" lon="12.6583588"><ele>562.75</ele><time>2026-03-24T09:36:11.489Z</time></trkpt><trkpt lat="43.1928962" lon="12.6582965"><ele>559.0</ele><time>2026-03-24T09:36:12.489Z</time></trkpt><trkpt lat="43.1929825" lon="12.6581887"><ele>559.0</ele><time>2026-03-24T09:36:13.49Z</time></trkpt><trkpt lat="43.1930395" lon="12.6580346"><ele>559.0</ele><time>2026-03-24T09:36:14.488Z</time></trkpt><trkpt lat="43.1930771" lon="12.6578698"><ele>559.0</ele><time>2026-03-24T09:36:15.49Z</time></trkpt><trkpt lat="43.193113" lon="12.6576859"><ele>559.0</ele><time>2026-03-24T09:36:16.49Z</time></trkpt><trkpt lat="43.1931964" lon="12.6575107"><ele>555.5</ele><time>2026-03-24T09:36:17.491Z</time></trkpt><trkpt lat="43.193306" lon="12.6573758"><ele>552.0</ele><time>2026-03-24T09:36:18.488Z</time></trkpt><trkpt lat="43.1934156" lon="12.6572541"><ele>548.5</ele><time>2026-03-24T09:36:19.488Z</time></trkpt><trkpt lat="43.1934953" lon="12.6571309"><ele>545.0</ele><time>2026-03-24T09:36:20.489Z</time></trkpt><trkpt lat="43.1935447" lon="12.656994"><ele>545.75</ele><time>2026-03-24T09:36:21.489Z</time></trkpt><trkpt lat="43.1935502" lon="12.6568324"><ele>546.5</ele><time>2026-03-24T09:36:22.49Z</time></trkpt><trkpt lat="43.193581" lon="12.6566539"><ele>547.25</ele><time>2026-03-24T09:36:23.488Z</time></trkpt><trkpt lat="43.1935999" lon="12.6564773"><ele>548.0</ele><time>2026-03-24T09:36:24.488Z</time></trkpt><trkpt lat="43.1936059" lon="12.6563182"><ele>548.0</ele><time>2026-03-24T09:36:25.488Z</time></trkpt><trkpt lat="43.1935894" lon="12.6561343"><ele>548.0</ele><time>2026-03-24T09:36:26.49Z</time></trkpt><trkpt lat="43.1935408" lon="12.655989"><ele>548.0</ele><time>2026-03-24T09:36:27.489Z</time></trkpt><trkpt lat="43.1935111" lon="12.6558059"><ele>548.0</ele><time>2026-03-24T09:36:28.491Z</time></trkpt><trkpt lat="43.1934958" lon="12.6556073"><ele>546.25</ele><time>2026-03-24T09:36:29.488Z</time></trkpt><trkpt lat="43.1935207" lon="12.6554306"><ele>544.5</ele><time>2026-03-24T09:36:30.488Z</time></trkpt><trkpt lat="43.1935557" lon="12.6552668"><ele>542.75</ele><time>2026-03-24T09:36:31.488Z</time></trkpt><trkpt lat="43.1936072" lon="12.6551243"><ele>541.0</ele><time>2026-03-24T09:36:32.489Z</time></trkpt><trkpt lat="43.1936883" lon="12.6549822"><ele>539.75</ele><time>2026-03-24T09:36:33.489Z</time></trkpt><trkpt lat="43.1937922" lon="12.6548526"><ele>538.5</ele><time>2026-03-24T09:36:34.49Z</time></trkpt><trkpt lat="43.1938885" lon="12.6547101"><ele>537.25</ele><time>2026-03-24T09:36:35.489Z</time></trkpt><trkpt lat="43.1939725" lon="12.6545655"><ele>536.0</ele><time>2026-03-24T09:36:36.489Z</time></trkpt><trkpt lat="43.1940586" lon="12.6544022"><ele>533.3333333333333</ele><time>2026-03-24T09:36:37.49Z</time></trkpt><trkpt lat="43.1941313" lon="12.6542181"><ele>530.6666666666666</ele><time>2026-03-24T09:36:38.49Z</time></trkpt><trkpt lat="43.1942094" lon="12.6540231"><ele>528.0</ele><time>2026-03-24T09:36:39.489Z</time></trkpt><trkpt lat="43.1942939" lon="12.653829"><ele>528.0</ele><time>2026-03-24T09:36:40.489Z</time></trkpt><trkpt lat="43.1943795" lon="12.6536341"><ele>528.0</ele><time>2026-03-24T09:36:41.488Z</time></trkpt><trkpt lat="43.1944557" lon="12.6534551"><ele>528.0</ele><time>2026-03-24T09:36:42.488Z</time></trkpt><trkpt lat="43.1945251" lon="12.6532611"><ele>527.6666666666666</ele><time>2026-03-24T09:36:43.49Z</time></trkpt><trkpt lat="43.1945775" lon="12.6530605"><ele>527.3333333333333</ele><time>2026-03-24T09:36:44.489Z</time></trkpt><trkpt lat="43.1946124" lon="12.652851"><ele>527.0</ele><time>2026-03-24T09:36:45.488Z</time></trkpt><trkpt lat="43.1946456" lon="12.6526361"><ele>525.25</ele><time>2026-03-24T09:36:46.488Z</time></trkpt><trkpt lat="43.1946695" lon="12.6524489"><ele>523.5</ele><time>2026-03-24T09:36:47.489Z</time></trkpt><trkpt lat="43.1947061" lon="12.6522794"><ele>521.75</ele><time>2026-03-24T09:36:48.489Z</time></trkpt><trkpt lat="43.1947569" lon="12.6521253"><ele>520.0</ele><time>2026-03-24T09:36:49.49Z</time></trkpt><trkpt lat="43.1948322" lon="12.6519951"><ele>522.6666666666667</ele><time>2026-03-24T09:36:50.488Z</time></trkpt><trkpt lat="43.1949342" lon="12.6518718"><ele>525.3333333333334</ele><time>2026-03-24T09:36:51.489Z</time></trkpt><trkpt lat="43.1950579" lon="12.6517571"><ele>528.0</ele><time>2026-03-24T09:36:52.49Z</time></trkpt><trkpt lat="43.195204" lon="12.6516376"><ele>528.0</ele><time>2026-03-24T09:36:53.489Z</time></trkpt><trkpt lat="43.1953437" lon="12.6514862"><ele>528.0</ele><time>2026-03-24T09:36:54.49Z</time></trkpt><trkpt lat="43.1954961" lon="12.6513356"><ele>528.0</ele><time>2026-03-24T09:36:55.489Z</time></trkpt><trkpt lat="43.1956351" lon="12.6511984"><ele>525.6666666666666</ele><time>2026-03-24T09:36:56.489Z</time></trkpt><trkpt lat="43.1957654" lon="12.6510694"><ele>523.3333333333333</ele><time>2026-03-24T09:36:57.489Z</time></trkpt><trkpt lat="43.1958943" lon="12.6509443"><ele>521.0</ele><time>2026-03-24T09:36:58.489Z</time></trkpt><trkpt lat="43.19602" lon="12.6508334"><ele>521.0</ele><time>2026-03-24T09:36:59.489Z</time></trkpt><trkpt lat="43.1961479" lon="12.6507403"><ele>521.0</ele><time>2026-03-24T09:37:00.488Z</time></trkpt><trkpt lat="43.1962729" lon="12.6506806"><ele>521.0</ele><time>2026-03-24T09:37:01.49Z</time></trkpt><trkpt lat="43.1963893" lon="12.6506233"><ele>521.0</ele><time>2026-03-24T09:37:02.488Z</time></trkpt><trkpt lat="43.1964719" lon="12.6505787"><ele>520.8</ele><time>2026-03-24T09:37:03.489Z</time></trkpt><trkpt lat="43.196562" lon="12.6505203"><ele>520.6</ele><time>2026-03-24T09:37:04.488Z</time></trkpt><trkpt lat="43.1966171" lon="12.650445"><ele>520.4</ele><time>2026-03-24T09:37:05.49Z</time></trkpt><trkpt lat="43.1966259" lon="12.6502845"><ele>520.2</ele><time>2026-03-24T09:37:06.489Z</time></trkpt><trkpt lat="43.1966267" lon="12.6501317"><ele>520.0</ele><time>2026-03-24T09:37:07.489Z</time></trkpt><trkpt lat="43.1966233" lon="12.6499661"><ele>519.1666666666667</ele><time>2026-03-24T09:37:08.489Z</time></trkpt><trkpt lat="43.1966278" lon="12.6498208"><ele>518.3333333333334</ele><time>2026-03-24T09:37:09.49Z</time></trkpt><trkpt lat="43.1966374" lon="12.6496987"><ele>517.5</ele><time>2026-03-24T09:37:10.489Z</time></trkpt><trkpt lat="43.196644" lon="12.6495827"><ele>516.6666666666666</ele><time>2026-03-24T09:37:11.49Z</time></trkpt><trkpt lat="43.1966643" lon="12.6494644"><ele>515.8333333333333</ele><time>2026-03-24T09:37:12.49Z</time></trkpt><trkpt lat="43.1966643" lon="12.6493621"><ele>515.0</ele><time>2026-03-24T09:37:13.49Z</time></trkpt><trkpt lat="43.1966896" lon="12.649252"><ele>515.0</ele><time>2026-03-24T09:37:14.49Z</time></trkpt><trkpt lat="43.1967018" lon="12.6491231"><ele>515.0</ele><time>2026-03-24T09:37:15.489Z</time></trkpt><trkpt lat="43.1967209" lon="12.6489946"><ele>515.0</ele><time>2026-03-24T09:37:16.489Z</time></trkpt><trkpt lat="43.1967366" lon="12.6488887"><ele>515.0</ele><time>2026-03-24T09:37:17.49Z</time></trkpt><trkpt lat="43.1967563" lon="12.6488047"><ele>515.0</ele><time>2026-03-24T09:37:18.49Z</time></trkpt><trkpt lat="43.19676" lon="12.6486462"><ele>515.0</ele><time>2026-03-24T09:37:20.489Z</time></trkpt><trkpt lat="43.1966967" lon="12.6485429"><ele>514.8</ele><time>2026-03-24T09:37:22.49Z</time></trkpt><trkpt lat="43.1965963" lon="12.648567"><ele>514.6</ele><time>2026-03-24T09:37:24.489Z</time></trkpt><trkpt lat="43.196434" lon="12.6485861"><ele>514.4</ele><time>2026-03-24T09:37:26.491Z</time></trkpt><trkpt lat="43.1963527" lon="12.6485994"><ele>514.2</ele><time>2026-03-24T09:37:27.49Z</time></trkpt><trkpt lat="43.1962823" lon="12.6485669"><ele>514.0</ele><time>2026-03-24T09:37:28.489Z</time></trkpt><trkpt lat="43.1962162" lon="12.6485285"><ele>514.0</ele><time>2026-03-24T09:37:29.489Z</time></trkpt><trkpt lat="43.1961453" lon="12.648472"><ele>514.0</ele><time>2026-03-24T09:37:30.49Z</time></trkpt><trkpt lat="43.1960769" lon="12.6484185"><ele>514.0</ele><time>2026-03-24T09:37:31.489Z</time></trkpt><trkpt lat="43.1960132" lon="12.6483556"><ele>514.0</ele><time>2026-03-24T09:37:32.49Z</time></trkpt><trkpt lat="43.1959749" lon="12.6482775"><ele>514.0</ele><time>2026-03-24T09:37:33.489Z</time></trkpt><trkpt lat="43.1959356" lon="12.648205"><ele>514.0</ele><time>2026-03-24T09:37:34.489Z</time></trkpt><trkpt lat="43.1959135" lon="12.6480516"><ele>514.0</ele><time>2026-03-24T09:37:36.488Z</time></trkpt><trkpt lat="43.1959237" lon="12.6478801"><ele>514.0</ele><time>2026-03-24T09:37:38.489Z</time></trkpt><trkpt lat="43.195958" lon="12.6477127"><ele>514.0</ele><time>2026-03-24T09:37:40.49Z</time></trkpt><trkpt lat="43.1959879" lon="12.6476253"><ele>514.0</ele><time>2026-03-24T09:37:41.489Z</time></trkpt><trkpt lat="43.196028" lon="12.6475317"><ele>514.0</ele><time>2026-03-24T09:37:42.488Z</time></trkpt><trkpt lat="43.1960717" lon="12.6474388"><ele>513.7142857142857</ele><time>2026-03-24T09:37:43.489Z</time></trkpt><trkpt lat="43.1961123" lon="12.6473587"><ele>513.4285714285714</ele><time>2026-03-24T09:37:44.489Z</time></trkpt><trkpt lat="43.1961568" lon="12.6472793"><ele>513.1428571428571</ele><time>2026-03-24T09:37:45.488Z</time></trkpt><trkpt lat="43.1961991" lon="12.6471904"><ele>512.8571428571429</ele><time>2026-03-24T09:37:46.489Z</time></trkpt><trkpt lat="43.1962411" lon="12.6471036"><ele>512.5714285714286</ele><time>2026-03-24T09:37:47.49Z</time></trkpt><trkpt lat="43.1962859" lon="12.647036"><ele>512.2857142857142</ele><time>2026-03-24T09:37:48.49Z</time></trkpt><trkpt lat="43.1963474" lon="12.6469754"><ele>512.0</ele><time>2026-03-24T09:37:49.49Z</time></trkpt><trkpt lat="43.1964258" lon="12.6469231"><ele>513.8000000000001</ele><time>2026-03-24T09:37:50.49Z</time></trkpt><trkpt lat="43.1965229" lon="12.6468542"><ele>515.6</ele><time>2026-03-24T09:37:51.489Z</time></trkpt><trkpt lat="43.1966108" lon="12.6467838"><ele>517.4000000000001</ele><time>2026-03-24T09:37:52.49Z</time></trkpt><trkpt lat="43.1966884" lon="12.646697"><ele>519.2</ele><time>2026-03-24T09:37:53.489Z</time></trkpt><trkpt lat="43.1967863" lon="12.646594"><ele>521.0</ele><time>2026-03-24T09:37:54.49Z</time></trkpt><trkpt lat="43.1968996" lon="12.646517"><ele>521.0</ele><time>2026-03-24T09:37:55.489Z</time></trkpt><trkpt lat="43.1970158" lon="12.6464564"><ele>521.0</ele><time>2026-03-24T09:37:56.489Z</time></trkpt><trkpt lat="43.1971984" lon="12.6464088"><ele>521.0</ele><time>2026-03-24T09:37:57.49Z</time></trkpt><trkpt lat="43.1973512" lon="12.6463587"><ele>521.5</ele><time>2026-03-24T09:37:58.49Z</time></trkpt><trkpt lat="43.197497" lon="12.6463049"><ele>522.0</ele><time>2026-03-24T09:37:59.49Z</time></trkpt><trkpt lat="43.1976237" lon="12.6462588"><ele>522.5</ele><time>2026-03-24T09:38:00.491Z</time></trkpt><trkpt lat="43.1977651" lon="12.6462247"><ele>523.0</ele><time>2026-03-24T09:38:01.489Z</time></trkpt><trkpt lat="43.1978741" lon="12.6462223"><ele>523.0</ele><time>2026-03-24T09:38:02.489Z</time></trkpt><trkpt lat="43.1979957" lon="12.6462304"><ele>523.0</ele><time>2026-03-24T09:38:03.49Z</time></trkpt><trkpt lat="43.1981018" lon="12.6462639"><ele>523.0</ele><time>2026-03-24T09:38:04.489Z</time></trkpt><trkpt lat="43.1982028" lon="12.6462867"><ele>523.0</ele><time>2026-03-24T09:38:05.489Z</time></trkpt><trkpt lat="43.1983028" lon="12.6463215"><ele>523.0</ele><time>2026-03-24T09:38:06.49Z</time></trkpt><trkpt lat="43.1984114" lon="12.646345"><ele>522.1999999999999</ele><time>2026-03-24T09:38:07.489Z</time></trkpt><trkpt lat="43.1984992" lon="12.6463917"><ele>521.4</ele><time>2026-03-24T09:38:08.489Z</time></trkpt><trkpt lat="43.1985961" lon="12.6464218"><ele>520.5999999999999</ele><time>2026-03-24T09:38:09.488Z</time></trkpt><trkpt lat="43.1987017" lon="12.6464586"><ele>519.8</ele><time>2026-03-24T09:38:10.489Z</time></trkpt><trkpt lat="43.1987974" lon="12.6464975"><ele>519.0</ele><time>2026-03-24T09:38:11.489Z</time></trkpt><trkpt lat="43.1988954" lon="12.646533"><ele>519.6</ele><time>2026-03-24T09:38:12.49Z</time></trkpt><trkpt lat="43.1990024" lon="12.6465643"><ele>520.2</ele><time>2026-03-24T09:38:13.489Z</time></trkpt><trkpt lat="43.199108" lon="12.6466004"><ele>520.8000000000001</ele><time>2026-03-24T09:38:14.488Z</time></trkpt><trkpt lat="43.1992214" lon="12.6466251"><ele>521.4</ele><time>2026-03-24T09:38:15.49Z</time></trkpt><trkpt lat="43.1993243" lon="12.646656"><ele>522.0</ele><time>2026-03-24T09:38:16.489Z</time></trkpt><trkpt lat="43.199446" lon="12.6466669"><ele>522.0</ele><time>2026-03-24T09:38:17.49Z</time></trkpt><trkpt lat="43.1995608" lon="12.6466705"><ele>522.0</ele><time>2026-03-24T09:38:18.49Z</time></trkpt><trkpt lat="43.1996755" lon="12.6466711"><ele>522.0</ele><time>2026-03-24T09:38:19.488Z</time></trkpt><trkpt lat="43.1998057" lon="12.6466538"><ele>522.0</ele><time>2026-03-24T09:38:20.49Z</time></trkpt><trkpt lat="43.199934" lon="12.6466268"><ele>523.3333333333334</ele><time>2026-03-24T09:38:21.488Z</time></trkpt><trkpt lat="43.2000736" lon="12.646566"><ele>524.6666666666667</ele><time>2026-03-24T09:38:22.49Z</time></trkpt><trkpt lat="43.2002206" lon="12.646474"><ele>526.0</ele><time>2026-03-24T09:38:23.489Z</time></trkpt><trkpt lat="43.2003745" lon="12.6463555"><ele>526.0</ele><time>2026-03-24T09:38:24.49Z</time></trkpt><trkpt lat="43.2005485" lon="12.6462351"><ele>526.0</ele><time>2026-03-24T09:38:25.489Z</time></trkpt><trkpt lat="43.2007154" lon="12.6460961"><ele>526.0</ele><time>2026-03-24T09:38:26.49Z</time></trkpt><trkpt lat="43.2008907" lon="12.646003"><ele>528.6666666666667</ele><time>2026-03-24T09:38:27.49Z</time></trkpt><trkpt lat="43.201079" lon="12.6459181"><ele>531.3333333333334</ele><time>2026-03-24T09:38:28.49Z</time></trkpt><trkpt lat="43.2012752" lon="12.6458518"><ele>534.0</ele><time>2026-03-24T09:38:29.488Z</time></trkpt><trkpt lat="43.2014623" lon="12.6457809"><ele>534.6666666666666</ele><time>2026-03-24T09:38:30.489Z</time></trkpt><trkpt lat="43.201655" lon="12.6457976"><ele>535.3333333333333</ele><time>2026-03-24T09:38:31.489Z</time></trkpt><trkpt lat="43.201862" lon="12.6457642"><ele>536.0</ele><time>2026-03-24T09:38:32.489Z</time></trkpt><trkpt lat="43.2020043" lon="12.6457106"><ele>536.0</ele><time>2026-03-24T09:38:33.489Z</time></trkpt><trkpt lat="43.2021217" lon="12.6456182"><ele>536.0</ele><time>2026-03-24T09:38:34.49Z</time></trkpt><trkpt lat="43.2022143" lon="12.6454861"><ele>536.0</ele><time>2026-03-24T09:38:35.489Z</time></trkpt><trkpt lat="43.202261" lon="12.6453249"><ele>536.0</ele><time>2026-03-24T09:38:36.489Z</time></trkpt><trkpt lat="43.2022538" lon="12.6451303"><ele>538.6666666666666</ele><time>2026-03-24T09:38:37.489Z</time></trkpt><trkpt lat="43.2022114" lon="12.6449161"><ele>541.3333333333334</ele><time>2026-03-24T09:38:38.489Z</time></trkpt><trkpt lat="43.2021807" lon="12.6447083"><ele>544.0</ele><time>2026-03-24T09:38:39.488Z</time></trkpt><trkpt lat="43.2021696" lon="12.6444766"><ele>543.5</ele><time>2026-03-24T09:38:40.489Z</time></trkpt><trkpt lat="43.2022109" lon="12.6442763"><ele>543.0</ele><time>2026-03-24T09:38:41.488Z</time></trkpt><trkpt lat="43.2022386" lon="12.6440829"><ele>542.5</ele><time>2026-03-24T09:38:42.49Z</time></trkpt><trkpt lat="43.2022207" lon="12.6438875"><ele>542.0</ele><time>2026-03-24T09:38:43.49Z</time></trkpt><trkpt lat="43.2021548" lon="12.6437108"><ele>543.25</ele><time>2026-03-24T09:38:44.489Z</time></trkpt><trkpt lat="43.2020422" lon="12.6435699"><ele>544.5</ele><time>2026-03-24T09:38:45.49Z</time></trkpt><trkpt lat="43.2019366" lon="12.6434295"><ele>545.75</ele><time>2026-03-24T09:38:46.49Z</time></trkpt><trkpt lat="43.2018581" lon="12.643263"><ele>547.0</ele><time>2026-03-24T09:38:47.489Z</time></trkpt><trkpt lat="43.2018243" lon="12.6430374"><ele>548.0</ele><time>2026-03-24T09:38:48.489Z</time></trkpt><trkpt lat="43.2018344" lon="12.6427842"><ele>549.0</ele><time>2026-03-24T09:38:49.49Z</time></trkpt><trkpt lat="43.2018643" lon="12.6425085"><ele>550.0</ele><time>2026-03-24T09:38:50.49Z</time></trkpt><trkpt lat="43.2018886" lon="12.6422525"><ele>550.0</ele><time>2026-03-24T09:38:51.49Z</time></trkpt><trkpt lat="43.2019144" lon="12.6420173"><ele>550.0</ele><time>2026-03-24T09:38:52.49Z</time></trkpt><trkpt lat="43.2019416" lon="12.6418195"><ele>550.0</ele><time>2026-03-24T09:38:53.489Z</time></trkpt><trkpt lat="43.2019769" lon="12.6416632"><ele>550.0</ele><time>2026-03-24T09:38:54.49Z</time></trkpt><trkpt lat="43.2020043" lon="12.6415299"><ele>551.3333333333334</ele><time>2026-03-24T09:38:55.489Z</time></trkpt><trkpt lat="43.2020583" lon="12.6414479"><ele>552.6666666666667</ele><time>2026-03-24T09:38:57.49Z</time></trkpt><trkpt lat="43.2020696" lon="12.6413518"><ele>554.0</ele><time>2026-03-24T09:38:59.489Z</time></trkpt><trkpt lat="43.2020762" lon="12.6412456"><ele>555.3333333333334</ele><time>2026-03-24T09:39:01.49Z</time></trkpt><trkpt lat="43.2020763" lon="12.641105"><ele>556.6666666666666</ele><time>2026-03-24T09:39:03.49Z</time></trkpt><trkpt lat="43.2020327" lon="12.6409999"><ele>558.0</ele><time>2026-03-24T09:39:05.49Z</time></trkpt><trkpt lat="43.2019639" lon="12.6409145"><ele>558.0</ele><time>2026-03-24T09:39:07.49Z</time></trkpt><trkpt lat="43.2019039" lon="12.6408374"><ele>558.0</ele><time>2026-03-24T09:39:09.49Z</time></trkpt><trkpt lat="43.2018461" lon="12.6407985"><ele>558.0</ele><time>2026-03-24T09:39:32.489Z</time></trkpt><trkpt lat="43.2019321" lon="12.6409069"><ele>558.0</ele><time>2026-03-24T09:39:43.49Z</time></trkpt><trkpt lat="43.2019922" lon="12.6410188"><ele>558.0</ele><time>2026-03-24T09:39:45.49Z</time></trkpt><trkpt lat="43.2020342" lon="12.6411588"><ele>558.0</ele><time>2026-03-24T09:39:47.489Z</time></trkpt><trkpt lat="43.2020401" lon="12.6412867"><ele>558.0</ele><time>2026-03-24T09:39:49.489Z</time></trkpt><trkpt lat="43.2020631" lon="12.6413847"><ele>558.0</ele><time>2026-03-24T09:39:52.489Z</time></trkpt><trkpt lat="43.2021636" lon="12.6413729"><ele>558.0</ele><time>2026-03-24T09:39:55.49Z</time></trkpt><trkpt lat="43.2022264" lon="12.641346"><ele>558.0</ele><time>2026-03-24T09:39:57.489Z</time></trkpt><trkpt lat="43.2023007" lon="12.6413257"><ele>558.0</ele><time>2026-03-24T09:39:59.49Z</time></trkpt><trkpt lat="43.2023744" lon="12.6412761"><ele>559.5</ele><time>2026-03-24T09:40:01.49Z</time></trkpt><trkpt lat="43.2023983" lon="12.6411914"><ele>561.0</ele><time>2026-03-24T09:40:03.489Z</time></trkpt><trkpt lat="43.2023832" lon="12.6410939"><ele>562.5</ele><time>2026-03-24T09:40:05.49Z</time></trkpt><trkpt lat="43.2023749" lon="12.6409888"><ele>564.0</ele><time>2026-03-24T09:40:07.49Z</time></trkpt><trkpt lat="43.2023524" lon="12.6408414"><ele>565.5</ele><time>2026-03-24T09:40:09.489Z</time></trkpt><trkpt lat="43.2023195" lon="12.6406904"><ele>567.0</ele><time>2026-03-24T09:40:11.489Z</time></trkpt><trkpt lat="43.2022814" lon="12.6405852"><ele>567.6666666666666</ele><time>2026-03-24T09:40:13.49Z</time></trkpt><trkpt lat="43.2022489" lon="12.6404868"><ele>568.3333333333334</ele><time>2026-03-24T09:40:15.49Z</time></trkpt><trkpt lat="43.2022162" lon="12.6404032"><ele>569.0</ele><time>2026-03-24T09:40:18.489Z</time></trkpt><trkpt lat="43.2021717" lon="12.6402817"><ele>569.6666666666667</ele><time>2026-03-24T09:40:20.489Z</time></trkpt><trkpt lat="43.2021271" lon="12.6401941"><ele>570.3333333333334</ele><time>2026-03-24T09:40:21.49Z</time></trkpt><trkpt lat="43.202101" lon="12.6401001"><ele>571.0</ele><time>2026-03-24T09:40:22.49Z</time></trkpt><trkpt lat="43.2020827" lon="12.640013"><ele>574.0</ele><time>2026-03-24T09:40:23.49Z</time></trkpt><trkpt lat="43.2020676" lon="12.6398377"><ele>577.0</ele><time>2026-03-24T09:40:25.489Z</time></trkpt><trkpt lat="43.2020729" lon="12.6397274"><ele>580.0</ele><time>2026-03-24T09:40:26.49Z</time></trkpt><trkpt lat="43.2020948" lon="12.6396283"><ele>583.0</ele><time>2026-03-24T09:40:27.491Z</time></trkpt><trkpt lat="43.2021171" lon="12.6395265"><ele>586.0</ele><time>2026-03-24T09:40:28.489Z</time></trkpt><trkpt lat="43.2021476" lon="12.6394004"><ele>587.5</ele><time>2026-03-24T09:40:29.49Z</time></trkpt><trkpt lat="43.2021706" lon="12.6392669"><ele>589.0</ele><time>2026-03-24T09:40:30.489Z</time></trkpt><trkpt lat="43.2021792" lon="12.6390971"><ele>590.5</ele><time>2026-03-24T09:40:31.49Z</time></trkpt><trkpt lat="43.2021682" lon="12.6389216"><ele>592.0</ele><time>2026-03-24T09:40:32.491Z</time></trkpt><trkpt lat="43.2021561" lon="12.6387486"><ele>594.0</ele><time>2026-03-24T09:40:33.49Z</time></trkpt><trkpt lat="43.2021414" lon="12.6385597"><ele>596.0</ele><time>2026-03-24T09:40:34.491Z</time></trkpt><trkpt lat="43.202143" lon="12.6383682"><ele>598.0</ele><time>2026-03-24T09:40:35.489Z</time></trkpt><trkpt lat="43.2021365" lon="12.6381865"><ele>600.0</ele><time>2026-03-24T09:40:36.489Z</time></trkpt><trkpt lat="43.2021112" lon="12.6380039"><ele>600.0</ele><time>2026-03-24T09:40:37.49Z</time></trkpt><trkpt lat="43.2020966" lon="12.6378185"><ele>600.0</ele><time>2026-03-24T09:40:38.49Z</time></trkpt><trkpt lat="43.2020785" lon="12.6376234"><ele>600.0</ele><time>2026-03-24T09:40:39.491Z</time></trkpt><trkpt lat="43.2020597" lon="12.6374428"><ele>600.0</ele><time>2026-03-24T09:40:40.49Z</time></trkpt><trkpt lat="43.2020511" lon="12.6372742"><ele>601.75</ele><time>2026-03-24T09:40:41.489Z</time></trkpt><trkpt lat="43.2020557" lon="12.6371111"><ele>603.5</ele><time>2026-03-24T09:40:42.491Z</time></trkpt><trkpt lat="43.20205" lon="12.6369549"><ele>605.25</ele><time>2026-03-24T09:40:43.491Z</time></trkpt><trkpt lat="43.2020593" lon="12.6368004"><ele>607.0</ele><time>2026-03-24T09:40:44.49Z</time></trkpt><trkpt lat="43.2020736" lon="12.6366473"><ele>608.6</ele><time>2026-03-24T09:40:45.489Z</time></trkpt><trkpt lat="43.2020865" lon="12.6365077"><ele>610.2</ele><time>2026-03-24T09:40:46.49Z</time></trkpt><trkpt lat="43.2020958" lon="12.636393"><ele>611.8</ele><time>2026-03-24T09:40:47.489Z</time></trkpt><trkpt lat="43.2020951" lon="12.6362113"><ele>613.4</ele><time>2026-03-24T09:40:49.489Z</time></trkpt><trkpt lat="43.2020317" lon="12.6360786"><ele>615.0</ele><time>2026-03-24T09:40:51.49Z</time></trkpt><trkpt lat="43.2019929" lon="12.6360055"><ele>616.6</ele><time>2026-03-24T09:40:52.489Z</time></trkpt><trkpt lat="43.201922" lon="12.635918"><ele>618.2</ele><time>2026-03-24T09:40:53.489Z</time></trkpt><trkpt lat="43.2018469" lon="12.6358115"><ele>619.8</ele><time>2026-03-24T09:40:54.489Z</time></trkpt><trkpt lat="43.2017789" lon="12.6357096"><ele>621.4</ele><time>2026-03-24T09:40:55.489Z</time></trkpt><trkpt lat="43.2017003" lon="12.6355941"><ele>623.0</ele><time>2026-03-24T09:40:56.49Z</time></trkpt><trkpt lat="43.2016195" lon="12.6354859"><ele>623.0</ele><time>2026-03-24T09:40:57.489Z</time></trkpt><trkpt lat="43.2015465" lon="12.6353908"><ele>623.0</ele><time>2026-03-24T09:40:58.49Z</time></trkpt><trkpt lat="43.201499" lon="12.635306"><ele>623.0</ele><time>2026-03-24T09:40:59.49Z</time></trkpt><trkpt lat="43.2014438" lon="12.6352052"><ele>623.0</ele><time>2026-03-24T09:41:01.49Z</time></trkpt><trkpt lat="43.2013766" lon="12.6350752"><ele>623.0</ele><time>2026-03-24T09:41:07.49Z</time></trkpt><trkpt lat="43.2013139" lon="12.6349479"><ele>623.4285714285714</ele><time>2026-03-24T09:41:09.489Z</time></trkpt><trkpt lat="43.2012749" lon="12.6348709"><ele>623.8571428571429</ele><time>2026-03-24T09:41:10.489Z</time></trkpt><trkpt lat="43.2012454" lon="12.6347916"><ele>624.2857142857142</ele><time>2026-03-24T09:41:11.489Z</time></trkpt><trkpt lat="43.2012063" lon="12.634711"><ele>624.7142857142858</ele><time>2026-03-24T09:41:12.489Z</time></trkpt><trkpt lat="43.2011743" lon="12.6346247"><ele>625.1428571428571</ele><time>2026-03-24T09:41:13.49Z</time></trkpt><trkpt lat="43.201131" lon="12.634531"><ele>625.5714285714286</ele><time>2026-03-24T09:41:14.489Z</time></trkpt><trkpt lat="43.2010834" lon="12.6344301"><ele>626.0</ele><time>2026-03-24T09:41:15.489Z</time></trkpt><trkpt lat="43.2010474" lon="12.6343271"><ele>628.1666666666666</ele><time>2026-03-24T09:41:16.491Z</time></trkpt><trkpt lat="43.2009991" lon="12.6342223"><ele>630.3333333333333</ele><time>2026-03-24T09:41:17.49Z</time></trkpt><trkpt lat="43.200953" lon="12.6341202"><ele>632.5</ele><time>2026-03-24T09:41:18.489Z</time></trkpt><trkpt lat="43.2009007" lon="12.6340187"><ele>634.6666666666666</ele><time>2026-03-24T09:41:19.49Z</time></trkpt><trkpt lat="43.20085" lon="12.6339161"><ele>636.8333333333334</ele><time>2026-03-24T09:41:20.49Z</time></trkpt><trkpt lat="43.2008048" lon="12.6338161"><ele>639.0</ele><time>2026-03-24T09:41:21.49Z</time></trkpt><trkpt lat="43.2007554" lon="12.6337145"><ele>640.2</ele><time>2026-03-24T09:41:22.489Z</time></trkpt><trkpt lat="43.2007099" lon="12.633602"><ele>641.4</ele><time>2026-03-24T09:41:23.49Z</time></trkpt><trkpt lat="43.2006597" lon="12.6334943"><ele>642.6</ele><time>2026-03-24T09:41:24.489Z</time></trkpt><trkpt lat="43.200603" lon="12.6333876"><ele>643.8</ele><time>2026-03-24T09:41:25.49Z</time></trkpt><trkpt lat="43.2005443" lon="12.6332927"><ele>645.0</ele><time>2026-03-24T09:41:26.49Z</time></trkpt><trkpt lat="43.2004886" lon="12.6332044"><ele>645.8333333333334</ele><time>2026-03-24T09:41:27.491Z</time></trkpt><trkpt lat="43.200429" lon="12.6331262"><ele>646.6666666666666</ele><time>2026-03-24T09:41:28.49Z</time></trkpt><trkpt lat="43.2003682" lon="12.6330482"><ele>647.5</ele><time>2026-03-24T09:41:29.49Z</time></trkpt><trkpt lat="43.2003147" lon="12.632988"><ele>648.3333333333333</ele><time>2026-03-24T09:41:30.49Z</time></trkpt><trkpt lat="43.2002591" lon="12.632934"><ele>649.1666666666666</ele><time>2026-03-24T09:41:31.489Z</time></trkpt><trkpt lat="43.2001865" lon="12.6328527"><ele>650.0</ele><time>2026-03-24T09:41:33.49Z</time></trkpt><trkpt lat="43.2001063" lon="12.6327382"><ele>650.8</ele><time>2026-03-24T09:41:35.489Z</time></trkpt><trkpt lat="43.2000406" lon="12.6326243"><ele>651.6</ele><time>2026-03-24T09:41:37.49Z</time></trkpt><trkpt lat="43.199995" lon="12.6325394"><ele>652.4000000000001</ele><time>2026-03-24T09:41:38.489Z</time></trkpt><trkpt lat="43.1999454" lon="12.6324628"><ele>653.2</ele><time>2026-03-24T09:41:39.49Z</time></trkpt><trkpt lat="43.199871" lon="12.6323341"><ele>654.0</ele><time>2026-03-24T09:41:41.49Z</time></trkpt><trkpt lat="43.1998203" lon="12.6321869"><ele>649.8000000000001</ele><time>2026-03-24T09:41:43.492Z</time></trkpt><trkpt lat="43.1997726" lon="12.6320373"><ele>645.6</ele><time>2026-03-24T09:41:45.49Z</time></trkpt><trkpt lat="43.1997139" lon="12.6319014"><ele>641.4</ele><time>2026-03-24T09:41:47.49Z</time></trkpt><trkpt lat="43.1996496" lon="12.6317551"><ele>637.2</ele><time>2026-03-24T09:41:49.489Z</time></trkpt><trkpt lat="43.1996148" lon="12.6316655"><ele>633.0</ele><time>2026-03-24T09:41:50.491Z</time></trkpt><trkpt lat="43.1995833" lon="12.631565"><ele>633.0</ele><time>2026-03-24T09:41:51.489Z</time></trkpt><trkpt lat="43.1995448" lon="12.6314887"><ele>633.0</ele><time>2026-03-24T09:41:52.489Z</time></trkpt><trkpt lat="43.1995154" lon="12.6313881"><ele>633.0</ele><time>2026-03-24T09:41:53.489Z</time></trkpt><trkpt lat="43.1994856" lon="12.6312864"><ele>633.0</ele><time>2026-03-24T09:41:54.49Z</time></trkpt><trkpt lat="43.1994679" lon="12.6311817"><ele>633.0</ele><time>2026-03-24T09:41:55.49Z</time></trkpt><trkpt lat="43.1994564" lon="12.6310758"><ele>633.0</ele><time>2026-03-24T09:41:56.492Z</time></trkpt><trkpt lat="43.199434" lon="12.6309519"><ele>632.4</ele><time>2026-03-24T09:41:57.49Z</time></trkpt><trkpt lat="43.1994039" lon="12.6308335"><ele>631.8</ele><time>2026-03-24T09:41:58.49Z</time></trkpt><trkpt lat="43.1993723" lon="12.6307218"><ele>631.2</ele><time>2026-03-24T09:41:59.49Z</time></trkpt><trkpt lat="43.1993471" lon="12.6305804"><ele>630.6</ele><time>2026-03-24T09:42:00.49Z</time></trkpt><trkpt lat="43.1993349" lon="12.630454"><ele>630.0</ele><time>2026-03-24T09:42:01.489Z</time></trkpt><trkpt lat="43.1993204" lon="12.630336"><ele>630.0</ele><time>2026-03-24T09:42:02.49Z</time></trkpt><trkpt lat="43.1992943" lon="12.6302131"><ele>630.0</ele><time>2026-03-24T09:42:03.49Z</time></trkpt><trkpt lat="43.1992577" lon="12.6301127"><ele>630.0</ele><time>2026-03-24T09:42:04.489Z</time></trkpt><trkpt lat="43.1992254" lon="12.6300033"><ele>630.0</ele><time>2026-03-24T09:42:05.489Z</time></trkpt><trkpt lat="43.199201" lon="12.6298972"><ele>630.0</ele><time>2026-03-24T09:42:06.491Z</time></trkpt><trkpt lat="43.1991821" lon="12.6298075"><ele>630.0</ele><time>2026-03-24T09:42:07.489Z</time></trkpt><trkpt lat="43.1991727" lon="12.6297221"><ele>630.0</ele><time>2026-03-24T09:42:08.489Z</time></trkpt><trkpt lat="43.1991572" lon="12.6296238"><ele>630.0</ele><time>2026-03-24T09:42:09.489Z</time></trkpt><trkpt lat="43.1991275" lon="12.629534"><ele>630.0</ele><time>2026-03-24T09:42:10.49Z</time></trkpt><trkpt lat="43.1991013" lon="12.6294362"><ele>630.0</ele><time>2026-03-24T09:42:11.49Z</time></trkpt><trkpt lat="43.1990751" lon="12.6293316"><ele>630.0</ele><time>2026-03-24T09:42:12.491Z</time></trkpt><trkpt lat="43.1990321" lon="12.6292325"><ele>630.0</ele><time>2026-03-24T09:42:13.491Z</time></trkpt><trkpt lat="43.1989917" lon="12.6291197"><ele>628.1666666666666</ele><time>2026-03-24T09:42:14.489Z</time></trkpt><trkpt lat="43.1989517" lon="12.6290063"><ele>626.3333333333334</ele><time>2026-03-24T09:42:15.49Z</time></trkpt><trkpt lat="43.1989205" lon="12.6288935"><ele>624.5</ele><time>2026-03-24T09:42:16.491Z</time></trkpt><trkpt lat="43.1988959" lon="12.6287852"><ele>622.6666666666667</ele><time>2026-03-24T09:42:17.49Z</time></trkpt><trkpt lat="43.198878" lon="12.6286755"><ele>620.8333333333334</ele><time>2026-03-24T09:42:18.49Z</time></trkpt><trkpt lat="43.1988575" lon="12.6285872"><ele>619.0</ele><time>2026-03-24T09:42:19.49Z</time></trkpt><trkpt lat="43.1988217" lon="12.6284175"><ele>619.0</ele><time>2026-03-24T09:42:21.491Z</time></trkpt><trkpt lat="43.1988052" lon="12.6283157"><ele>619.0</ele><time>2026-03-24T09:42:22.49Z</time></trkpt><trkpt lat="43.1987785" lon="12.628196"><ele>619.0</ele><time>2026-03-24T09:42:23.489Z</time></trkpt><trkpt lat="43.1987676" lon="12.6280724"><ele>619.0</ele><time>2026-03-24T09:42:24.49Z</time></trkpt><trkpt lat="43.198758" lon="12.6279485"><ele>619.0</ele><time>2026-03-24T09:42:25.489Z</time></trkpt><trkpt lat="43.198742" lon="12.6278294"><ele>619.0</ele><time>2026-03-24T09:42:26.489Z</time></trkpt><trkpt lat="43.1987328" lon="12.6277034"><ele>619.0</ele><time>2026-03-24T09:42:27.49Z</time></trkpt><trkpt lat="43.19872" lon="12.627579"><ele>619.0</ele><time>2026-03-24T09:42:28.491Z</time></trkpt><trkpt lat="43.1987159" lon="12.6274583"><ele>619.0</ele><time>2026-03-24T09:42:29.49Z</time></trkpt><trkpt lat="43.1987077" lon="12.6273581"><ele>619.0</ele><time>2026-03-24T09:42:30.491Z</time></trkpt><trkpt lat="43.1986992" lon="12.6272509"><ele>619.0</ele><time>2026-03-24T09:42:31.487Z</time></trkpt><trkpt lat="43.1986934" lon="12.6271496"><ele>619.0</ele><time>2026-03-24T09:42:32.49Z</time></trkpt><trkpt lat="43.1986812" lon="12.6270457"><ele>618.3333333333334</ele><time>2026-03-24T09:42:33.491Z</time></trkpt><trkpt lat="43.1986616" lon="12.6269467"><ele>617.6666666666667</ele><time>2026-03-24T09:42:34.491Z</time></trkpt><trkpt lat="43.1986483" lon="12.6268567"><ele>617.0</ele><time>2026-03-24T09:42:35.49Z</time></trkpt><trkpt lat="43.198621" lon="12.6267142"><ele>616.3333333333334</ele><time>2026-03-24T09:42:37.491Z</time></trkpt><trkpt lat="43.1986378" lon="12.6266111"><ele>615.6666666666666</ele><time>2026-03-24T09:42:39.49Z</time></trkpt><trkpt lat="43.198627" lon="12.6265104"><ele>615.0</ele><time>2026-03-24T09:42:41.49Z</time></trkpt><trkpt lat="43.1986374" lon="12.6264048"><ele>615.0</ele><time>2026-03-24T09:42:43.489Z</time></trkpt><trkpt lat="43.1986571" lon="12.6263019"><ele>615.0</ele><time>2026-03-24T09:42:45.491Z</time></trkpt><trkpt lat="43.1986792" lon="12.6261628"><ele>615.0</ele><time>2026-03-24T09:42:47.49Z</time></trkpt><trkpt lat="43.1986972" lon="12.6260068"><ele>615.0</ele><time>2026-03-24T09:42:49.49Z</time></trkpt><trkpt lat="43.1986883" lon="12.6258384"><ele>615.0</ele><time>2026-03-24T09:42:51.49Z</time></trkpt><trkpt lat="43.1986323" lon="12.6256896"><ele>614.6</ele><time>2026-03-24T09:42:53.491Z</time></trkpt><trkpt lat="43.1986051" lon="12.6255988"><ele>614.2</ele><time>2026-03-24T09:42:54.489Z</time></trkpt><trkpt lat="43.1985087" lon="12.6253983"><ele>613.8</ele><time>2026-03-24T09:42:56.492Z</time></trkpt><trkpt lat="43.1984505" lon="12.6253005"><ele>613.4</ele><time>2026-03-24T09:42:57.491Z</time></trkpt><trkpt lat="43.1983925" lon="12.6252149"><ele>613.0</ele><time>2026-03-24T09:42:58.491Z</time></trkpt><trkpt lat="43.198324" lon="12.6251204"><ele>611.6</ele><time>2026-03-24T09:42:59.49Z</time></trkpt><trkpt lat="43.1982647" lon="12.625023"><ele>610.1999999999999</ele><time>2026-03-24T09:43:00.49Z</time></trkpt><trkpt lat="43.1982097" lon="12.624919"><ele>608.8</ele><time>2026-03-24T09:43:01.491Z</time></trkpt><trkpt lat="43.1981908" lon="12.6247909"><ele>607.4</ele><time>2026-03-24T09:43:02.491Z</time></trkpt><trkpt lat="43.1981663" lon="12.6246783"><ele>606.0</ele><time>2026-03-24T09:43:03.489Z</time></trkpt><trkpt lat="43.1981386" lon="12.624557"><ele>603.8</ele><time>2026-03-24T09:43:04.49Z</time></trkpt><trkpt lat="43.198106" lon="12.6244325"><ele>601.6</ele><time>2026-03-24T09:43:05.491Z</time></trkpt><trkpt lat="43.1980607" lon="12.6243236"><ele>599.4</ele><time>2026-03-24T09:43:06.491Z</time></trkpt><trkpt lat="43.1979792" lon="12.6242309"><ele>597.2</ele><time>2026-03-24T09:43:07.491Z</time></trkpt><trkpt lat="43.1979154" lon="12.6240949"><ele>595.0</ele><time>2026-03-24T09:43:08.489Z</time></trkpt><trkpt lat="43.1978392" lon="12.6240031"><ele>595.0</ele><time>2026-03-24T09:43:09.491Z</time></trkpt><trkpt lat="43.1977541" lon="12.6238792"><ele>595.0</ele><time>2026-03-24T09:43:10.49Z</time></trkpt><trkpt lat="43.1976773" lon="12.6237701"><ele>595.0</ele><time>2026-03-24T09:43:11.49Z</time></trkpt><trkpt lat="43.1975947" lon="12.6236593"><ele>595.0</ele><time>2026-03-24T09:43:12.49Z</time></trkpt><trkpt lat="43.1975198" lon="12.6235712"><ele>595.0</ele><time>2026-03-24T09:43:13.491Z</time></trkpt><trkpt lat="43.1974615" lon="12.6234927"><ele>595.0</ele><time>2026-03-24T09:43:14.49Z</time></trkpt><trkpt lat="43.1974151" lon="12.6234291"><ele>595.0</ele><time>2026-03-24T09:43:15.49Z</time></trkpt><trkpt lat="43.1973581" lon="12.6233579"><ele>595.0</ele><time>2026-03-24T09:43:16.49Z</time></trkpt><trkpt lat="43.1972983" lon="12.6232875"><ele>595.0</ele><time>2026-03-24T09:43:17.491Z</time></trkpt><trkpt lat="43.1972058" lon="12.6231723"><ele>595.0</ele><time>2026-03-24T09:43:19.489Z</time></trkpt><trkpt lat="43.1971437" lon="12.6230053"><ele>593.0</ele><time>2026-03-24T09:43:21.49Z</time></trkpt><trkpt lat="43.197101" lon="12.622917"><ele>591.0</ele><time>2026-03-24T09:43:22.491Z</time></trkpt><trkpt lat="43.1970448" lon="12.6228337"><ele>589.0</ele><time>2026-03-24T09:43:23.49Z</time></trkpt><trkpt lat="43.1970016" lon="12.6227488"><ele>587.0</ele><time>2026-03-24T09:43:24.489Z</time></trkpt><trkpt lat="43.1969604" lon="12.62267"><ele>585.0</ele><time>2026-03-24T09:43:25.489Z</time></trkpt><trkpt lat="43.1969231" lon="12.6225855"><ele>583.0</ele><time>2026-03-24T09:43:26.491Z</time></trkpt><trkpt lat="43.1969038" lon="12.6224932"><ele>581.0</ele><time>2026-03-24T09:43:27.49Z</time></trkpt><trkpt lat="43.1968576" lon="12.6223343"><ele>581.0</ele><time>2026-03-24T09:43:29.49Z</time></trkpt><trkpt lat="43.1968359" lon="12.6222476"><ele>581.0</ele><time>2026-03-24T09:43:30.492Z</time></trkpt><trkpt lat="43.196824" lon="12.6220889"><ele>581.0</ele><time>2026-03-24T09:43:32.49Z</time></trkpt><trkpt lat="43.1968205" lon="12.6219981"><ele>581.0</ele><time>2026-03-24T09:43:33.489Z</time></trkpt><trkpt lat="43.1968282" lon="12.6218326"><ele>581.0</ele><time>2026-03-24T09:43:35.49Z</time></trkpt><trkpt lat="43.196857" lon="12.6216712"><ele>580.2857142857143</ele><time>2026-03-24T09:43:37.49Z</time></trkpt><trkpt lat="43.1968721" lon="12.6215793"><ele>579.5714285714286</ele><time>2026-03-24T09:43:38.489Z</time></trkpt><trkpt lat="43.1968956" lon="12.6214737"><ele>578.8571428571429</ele><time>2026-03-24T09:43:39.49Z</time></trkpt><trkpt lat="43.1969071" lon="12.6213757"><ele>578.1428571428571</ele><time>2026-03-24T09:43:40.491Z</time></trkpt><trkpt lat="43.1968946" lon="12.6212774"><ele>577.4285714285714</ele><time>2026-03-24T09:43:41.49Z</time></trkpt><trkpt lat="43.1968659" lon="12.6211737"><ele>576.7142857142858</ele><time>2026-03-24T09:43:42.49Z</time></trkpt><trkpt lat="43.1968395" lon="12.6210821"><ele>576.0</ele><time>2026-03-24T09:43:43.49Z</time></trkpt><trkpt lat="43.1968051" lon="12.6209786"><ele>574.8333333333334</ele><time>2026-03-24T09:43:44.491Z</time></trkpt><trkpt lat="43.1967824" lon="12.6208775"><ele>573.6666666666666</ele><time>2026-03-24T09:43:45.49Z</time></trkpt><trkpt lat="43.1967519" lon="12.6207705"><ele>572.5</ele><time>2026-03-24T09:43:46.489Z</time></trkpt><trkpt lat="43.1967264" lon="12.6206658"><ele>571.3333333333333</ele><time>2026-03-24T09:43:47.49Z</time></trkpt><trkpt lat="43.1966958" lon="12.6205734"><ele>570.1666666666666</ele><time>2026-03-24T09:43:48.491Z</time></trkpt><trkpt lat="43.1966669" lon="12.6204902"><ele>569.0</ele><time>2026-03-24T09:43:49.491Z</time></trkpt><trkpt lat="43.1965853" lon="12.6203553"><ele>567.3333333333333</ele><time>2026-03-24T09:43:51.489Z</time></trkpt><trkpt lat="43.1965436" lon="12.6202823"><ele>565.6666666666666</ele><time>2026-03-24T09:43:52.489Z</time></trkpt><trkpt lat="43.1964997" lon="12.6202035"><ele>564.0</ele><time>2026-03-24T09:43:53.49Z</time></trkpt><trkpt lat="43.196459" lon="12.620132"><ele>562.3333333333334</ele><time>2026-03-24T09:43:54.49Z</time></trkpt><trkpt lat="43.1964132" lon="12.6200719"><ele>560.6666666666667</ele><time>2026-03-24T09:43:55.49Z</time></trkpt><trkpt lat="43.1963286" lon="12.6199725"><ele>559.0</ele><time>2026-03-24T09:43:57.49Z</time></trkpt><trkpt lat="43.1962388" lon="12.6199432"><ele>558.2</ele><time>2026-03-24T09:43:59.49Z</time></trkpt><trkpt lat="43.1961574" lon="12.6199996"><ele>557.4</ele><time>2026-03-24T09:44:01.49Z</time></trkpt><trkpt lat="43.196086" lon="12.620092"><ele>556.6</ele><time>2026-03-24T09:44:03.49Z</time></trkpt><trkpt lat="43.196006" lon="12.6202316"><ele>555.8</ele><time>2026-03-24T09:44:05.491Z</time></trkpt><trkpt lat="43.1959768" lon="12.6203156"><ele>555.0</ele><time>2026-03-24T09:44:06.49Z</time></trkpt><trkpt lat="43.1959333" lon="12.6204048"><ele>555.0000000000001</ele><time>2026-03-24T09:44:07.491Z</time></trkpt><trkpt lat="43.1958822" lon="12.6204895"><ele>555.0</ele><time>2026-03-24T09:44:08.491Z</time></trkpt><trkpt lat="43.1958303" lon="12.6205648"><ele>555.0</ele><time>2026-03-24T09:44:09.49Z</time></trkpt><trkpt lat="43.1957797" lon="12.6206457"><ele>555.0</ele><time>2026-03-24T09:44:10.49Z</time></trkpt><trkpt lat="43.1957358" lon="12.6207125"><ele>555.0</ele><time>2026-03-24T09:44:11.489Z</time></trkpt><trkpt lat="43.195698" lon="12.6207969"><ele>555.0000000000001</ele><time>2026-03-24T09:44:12.489Z</time></trkpt><trkpt lat="43.1956527" lon="12.6208752"><ele>555.0</ele><time>2026-03-24T09:44:13.491Z</time></trkpt><trkpt lat="43.1956097" lon="12.6209456"><ele>552.1666666666666</ele><time>2026-03-24T09:44:14.491Z</time></trkpt><trkpt lat="43.1955499" lon="12.6210603"><ele>549.3333333333334</ele><time>2026-03-24T09:44:16.491Z</time></trkpt><trkpt lat="43.1955062" lon="12.6211467"><ele>546.5</ele><time>2026-03-24T09:44:18.49Z</time></trkpt><trkpt lat="43.1954469" lon="12.6211006"><ele>543.6666666666667</ele><time>2026-03-24T09:44:22.491Z</time></trkpt><trkpt lat="43.1954658" lon="12.6210173"><ele>540.8333333333334</ele><time>2026-03-24T09:44:23.492Z</time></trkpt><trkpt lat="43.1954914" lon="12.62085"><ele>538.0</ele><time>2026-03-24T09:44:25.489Z</time></trkpt><trkpt lat="43.1954735" lon="12.6207287"><ele>538.0</ele><time>2026-03-24T09:44:26.492Z</time></trkpt><trkpt lat="43.1954308" lon="12.6206073"><ele>538.0</ele><time>2026-03-24T09:44:27.491Z</time></trkpt><trkpt lat="43.1953877" lon="12.6204954"><ele>538.0</ele><time>2026-03-24T09:44:28.491Z</time></trkpt><trkpt lat="43.195306" lon="12.6203955"><ele>538.0</ele><time>2026-03-24T09:44:29.49Z</time></trkpt><trkpt lat="43.1952273" lon="12.620298"><ele>538.0</ele><time>2026-03-24T09:44:30.489Z</time></trkpt><trkpt lat="43.1951499" lon="12.6202195"><ele>537.6</ele><time>2026-03-24T09:44:31.49Z</time></trkpt><trkpt lat="43.1950774" lon="12.6201345"><ele>537.1999999999999</ele><time>2026-03-24T09:44:32.491Z</time></trkpt><trkpt lat="43.1950066" lon="12.6200484"><ele>536.8</ele><time>2026-03-24T09:44:33.491Z</time></trkpt><trkpt lat="43.1949399" lon="12.6199648"><ele>536.4</ele><time>2026-03-24T09:44:34.491Z</time></trkpt><trkpt lat="43.1948793" lon="12.6198441"><ele>536.0</ele><time>2026-03-24T09:44:35.49Z</time></trkpt><trkpt lat="43.1948196" lon="12.6197428"><ele>531.4</ele><time>2026-03-24T09:44:36.491Z</time></trkpt><trkpt lat="43.1947758" lon="12.6196268"><ele>526.8</ele><time>2026-03-24T09:44:37.49Z</time></trkpt><trkpt lat="43.1947236" lon="12.6195295"><ele>522.1999999999999</ele><time>2026-03-24T09:44:38.49Z</time></trkpt><trkpt lat="43.1946815" lon="12.6194141"><ele>517.6</ele><time>2026-03-24T09:44:39.491Z</time></trkpt><trkpt lat="43.1946469" lon="12.6192999"><ele>513.0</ele><time>2026-03-24T09:44:40.489Z</time></trkpt><trkpt lat="43.194607" lon="12.619171"><ele>513.0</ele><time>2026-03-24T09:44:41.489Z</time></trkpt><trkpt lat="43.1945738" lon="12.619045"><ele>513.0</ele><time>2026-03-24T09:44:42.49Z</time></trkpt><trkpt lat="43.1945415" lon="12.6189378"><ele>513.0</ele><time>2026-03-24T09:44:43.49Z</time></trkpt><trkpt lat="43.1945188" lon="12.6187889"><ele>513.0</ele><time>2026-03-24T09:44:44.49Z</time></trkpt><trkpt lat="43.1945117" lon="12.618608"><ele>513.0</ele><time>2026-03-24T09:44:45.491Z</time></trkpt><trkpt lat="43.1944851" lon="12.6184635"><ele>514.5</ele><time>2026-03-24T09:44:46.49Z</time></trkpt><trkpt lat="43.1944439" lon="12.6183253"><ele>516.0</ele><time>2026-03-24T09:44:47.49Z</time></trkpt><trkpt lat="43.1943824" lon="12.6181947"><ele>517.5</ele><time>2026-03-24T09:44:48.49Z</time></trkpt><trkpt lat="43.1943059" lon="12.6180499"><ele>519.0</ele><time>2026-03-24T09:44:49.491Z</time></trkpt><trkpt lat="43.194209" lon="12.6179083"><ele>520.0</ele><time>2026-03-24T09:44:50.491Z</time></trkpt><trkpt lat="43.1941201" lon="12.6177883"><ele>521.0</ele><time>2026-03-24T09:44:51.489Z</time></trkpt><trkpt lat="43.1940489" lon="12.6176727"><ele>522.0</ele><time>2026-03-24T09:44:52.489Z</time></trkpt><trkpt lat="43.1939989" lon="12.6175437"><ele>523.0</ele><time>2026-03-24T09:44:53.491Z</time></trkpt><trkpt lat="43.1939834" lon="12.6174263"><ele>524.0</ele><time>2026-03-24T09:44:54.491Z</time></trkpt><trkpt lat="43.1940139" lon="12.6173217"><ele>524.0</ele><time>2026-03-24T09:44:55.49Z</time></trkpt><trkpt lat="43.1940745" lon="12.6171995"><ele>524.0</ele><time>2026-03-24T09:44:56.489Z</time></trkpt><trkpt lat="43.1941438" lon="12.6170685"><ele>524.0</ele><time>2026-03-24T09:44:57.492Z</time></trkpt><trkpt lat="43.1942155" lon="12.6169337"><ele>524.0</ele><time>2026-03-24T09:44:58.49Z</time></trkpt><trkpt lat="43.1942911" lon="12.6168154"><ele>522.2</ele><time>2026-03-24T09:44:59.49Z</time></trkpt><trkpt lat="43.1943668" lon="12.6167015"><ele>520.4</ele><time>2026-03-24T09:45:00.489Z</time></trkpt><trkpt lat="43.1944508" lon="12.6166136"><ele>518.6</ele><time>2026-03-24T09:45:01.492Z</time></trkpt><trkpt lat="43.1945383" lon="12.6165298"><ele>516.8</ele><time>2026-03-24T09:45:02.49Z</time></trkpt><trkpt lat="43.1946364" lon="12.6164629"><ele>515.0</ele><time>2026-03-24T09:45:03.491Z</time></trkpt><trkpt lat="43.1947221" lon="12.6164034"><ele>515.0</ele><time>2026-03-24T09:45:04.491Z</time></trkpt><trkpt lat="43.1948312" lon="12.6163369"><ele>515.0</ele><time>2026-03-24T09:45:05.49Z</time></trkpt><trkpt lat="43.1949223" lon="12.6162646"><ele>515.0</ele><time>2026-03-24T09:45:06.49Z</time></trkpt><trkpt lat="43.1949977" lon="12.6161715"><ele>515.0</ele><time>2026-03-24T09:45:07.49Z</time></trkpt><trkpt lat="43.1950627" lon="12.6160452"><ele>515.0</ele><time>2026-03-24T09:45:08.49Z</time></trkpt><trkpt lat="43.1951119" lon="12.6158988"><ele>513.6</ele><time>2026-03-24T09:45:09.491Z</time></trkpt><trkpt lat="43.1951607" lon="12.6157713"><ele>512.2</ele><time>2026-03-24T09:45:10.49Z</time></trkpt><trkpt lat="43.1951904" lon="12.615625"><ele>510.79999999999995</ele><time>2026-03-24T09:45:11.491Z</time></trkpt><trkpt lat="43.1952048" lon="12.6154629"><ele>509.4</ele><time>2026-03-24T09:45:12.49Z</time></trkpt><trkpt lat="43.1952157" lon="12.6153327"><ele>508.0</ele><time>2026-03-24T09:45:13.49Z</time></trkpt><trkpt lat="43.1951808" lon="12.6151911"><ele>507.2</ele><time>2026-03-24T09:45:14.491Z</time></trkpt><trkpt lat="43.1951393" lon="12.6150725"><ele>506.4</ele><time>2026-03-24T09:45:15.49Z</time></trkpt><trkpt lat="43.1950888" lon="12.6149535"><ele>505.59999999999997</ele><time>2026-03-24T09:45:16.49Z</time></trkpt><trkpt lat="43.1950321" lon="12.614849"><ele>504.79999999999995</ele><time>2026-03-24T09:45:17.489Z</time></trkpt><trkpt lat="43.1949686" lon="12.6147552"><ele>504.0</ele><time>2026-03-24T09:45:18.491Z</time></trkpt><trkpt lat="43.1948992" lon="12.614685"><ele>503.6</ele><time>2026-03-24T09:45:19.489Z</time></trkpt><trkpt lat="43.1948323" lon="12.6146111"><ele>503.2</ele><time>2026-03-24T09:45:20.491Z</time></trkpt><trkpt lat="43.194768" lon="12.6145025"><ele>502.80000000000007</ele><time>2026-03-24T09:45:21.491Z</time></trkpt><trkpt lat="43.1947146" lon="12.6143996"><ele>502.40000000000003</ele><time>2026-03-24T09:45:22.49Z</time></trkpt><trkpt lat="43.1946656" lon="12.6142806"><ele>502.0</ele><time>2026-03-24T09:45:23.49Z</time></trkpt><trkpt lat="43.1946158" lon="12.6141621"><ele>502.0</ele><time>2026-03-24T09:45:24.491Z</time></trkpt><trkpt lat="43.1945741" lon="12.6140358"><ele>502.00000000000006</ele><time>2026-03-24T09:45:25.49Z</time></trkpt><trkpt lat="43.1945383" lon="12.6139166"><ele>502.00000000000006</ele><time>2026-03-24T09:45:26.489Z</time></trkpt><trkpt lat="43.1945157" lon="12.6137951"><ele>502.0</ele><time>2026-03-24T09:45:27.491Z</time></trkpt><trkpt lat="43.1944908" lon="12.6136593"><ele>502.0</ele><time>2026-03-24T09:45:28.489Z</time></trkpt><trkpt lat="43.194475" lon="12.6135351"><ele>503.33333333333337</ele><time>2026-03-24T09:45:29.491Z</time></trkpt><trkpt lat="43.1944574" lon="12.613419"><ele>504.6666666666667</ele><time>2026-03-24T09:45:30.491Z</time></trkpt><trkpt lat="43.1944239" lon="12.6133225"><ele>506.0</ele><time>2026-03-24T09:45:31.492Z</time></trkpt><trkpt lat="43.194382" lon="12.6132179"><ele>507.33333333333337</ele><time>2026-03-24T09:45:32.49Z</time></trkpt><trkpt lat="43.1943424" lon="12.6131207"><ele>508.6666666666667</ele><time>2026-03-24T09:45:33.492Z</time></trkpt><trkpt lat="43.1942974" lon="12.6130354"><ele>510.0</ele><time>2026-03-24T09:45:34.491Z</time></trkpt><trkpt lat="43.1942452" lon="12.6129797"><ele>510.0</ele><time>2026-03-24T09:45:35.49Z</time></trkpt><trkpt lat="43.1941584" lon="12.6129268"><ele>510.0</ele><time>2026-03-24T09:45:37.489Z</time></trkpt><trkpt lat="43.1941878" lon="12.6130115"><ele>510.0</ele><time>2026-03-24T09:45:41.492Z</time></trkpt><trkpt lat="43.1942798" lon="12.6131175"><ele>510.0</ele><time>2026-03-24T09:45:43.491Z</time></trkpt><trkpt lat="43.1943288" lon="12.6132167"><ele>510.0</ele><time>2026-03-24T09:45:44.49Z</time></trkpt><trkpt lat="43.1943785" lon="12.6133011"><ele>510.0</ele><time>2026-03-24T09:45:45.491Z</time></trkpt><trkpt lat="43.194405" lon="12.6133853"><ele>510.00000000000006</ele><time>2026-03-24T09:45:46.491Z</time></trkpt><trkpt lat="43.1944243" lon="12.6134784"><ele>510.0</ele><time>2026-03-24T09:45:47.49Z</time></trkpt><trkpt lat="43.1944321" lon="12.6135756"><ele>510.0</ele><time>2026-03-24T09:45:48.491Z</time></trkpt><trkpt lat="43.1944617" lon="12.6136607"><ele>510.00000000000006</ele><time>2026-03-24T09:45:49.49Z</time></trkpt><trkpt lat="43.1944691" lon="12.6137727"><ele>510.0</ele><time>2026-03-24T09:45:51.49Z</time></trkpt><trkpt lat="43.1945449" lon="12.6138003"><ele>510.0</ele><time>2026-03-24T09:45:54.491Z</time></trkpt><trkpt lat="43.1945391" lon="12.6137077"><ele>510.0</ele><time>2026-03-24T09:45:57.491Z</time></trkpt><trkpt lat="43.1945386" lon="12.6135704"><ele>510.0</ele><time>2026-03-24T09:45:59.49Z</time></trkpt><trkpt lat="43.1945313" lon="12.613395"><ele>510.0</ele><time>2026-03-24T09:46:01.491Z</time></trkpt><trkpt lat="43.1945059" lon="12.613216"><ele>510.0</ele><time>2026-03-24T09:46:03.491Z</time></trkpt><trkpt lat="43.1944847" lon="12.613082"><ele>510.0</ele><time>2026-03-24T09:46:05.491Z</time></trkpt><trkpt lat="43.1944437" lon="12.6129851"><ele>510.0</ele><time>2026-03-24T09:46:06.491Z</time></trkpt><trkpt lat="43.1943789" lon="12.6128861"><ele>510.0</ele><time>2026-03-24T09:46:07.491Z</time></trkpt><trkpt lat="43.1943444" lon="12.6127769"><ele>510.0</ele><time>2026-03-24T09:46:08.491Z</time></trkpt><trkpt lat="43.1943142" lon="12.6126764"><ele>510.0</ele><time>2026-03-24T09:46:09.49Z</time></trkpt><trkpt lat="43.1942759" lon="12.6125487"><ele>510.0</ele><time>2026-03-24T09:46:10.49Z</time></trkpt><trkpt lat="43.1942673" lon="12.6124388"><ele>509.6666666666667</ele><time>2026-03-24T09:46:11.49Z</time></trkpt><trkpt lat="43.1942587" lon="12.612324"><ele>509.33333333333337</ele><time>2026-03-24T09:46:12.49Z</time></trkpt><trkpt lat="43.1942887" lon="12.6122348"><ele>509.0</ele><time>2026-03-24T09:46:13.492Z</time></trkpt><trkpt lat="43.194336" lon="12.6121346"><ele>508.6666666666667</ele><time>2026-03-24T09:46:14.491Z</time></trkpt><trkpt lat="43.1943911" lon="12.612056"><ele>508.33333333333337</ele><time>2026-03-24T09:46:15.491Z</time></trkpt><trkpt lat="43.1944822" lon="12.6119796"><ele>508.0</ele><time>2026-03-24T09:46:16.491Z</time></trkpt><trkpt lat="43.1946222" lon="12.611897"><ele>509.00000000000006</ele><time>2026-03-24T09:46:17.491Z</time></trkpt><trkpt lat="43.1947255" lon="12.6118388"><ele>510.0</ele><time>2026-03-24T09:46:18.491Z</time></trkpt><trkpt lat="43.194809" lon="12.6118112"><ele>511.0</ele><time>2026-03-24T09:46:19.491Z</time></trkpt><trkpt lat="43.1948744" lon="12.611765"><ele>512.0</ele><time>2026-03-24T09:46:20.491Z</time></trkpt><trkpt lat="43.1949325" lon="12.6116861"><ele>513.0</ele><time>2026-03-24T09:46:21.491Z</time></trkpt><trkpt lat="43.1949933" lon="12.6115868"><ele>514.0</ele><time>2026-03-24T09:46:22.491Z</time></trkpt><trkpt lat="43.1950394" lon="12.6114934"><ele>512.0</ele><time>2026-03-24T09:46:23.491Z</time></trkpt><trkpt lat="43.1950661" lon="12.6113796"><ele>510.0</ele><time>2026-03-24T09:46:24.491Z</time></trkpt><trkpt lat="43.1951056" lon="12.6112241"><ele>508.0</ele><time>2026-03-24T09:46:25.49Z</time></trkpt><trkpt lat="43.1951489" lon="12.6110518"><ele>506.0</ele><time>2026-03-24T09:46:26.491Z</time></trkpt><trkpt lat="43.1952167" lon="12.6108933"><ele>506.0</ele><time>2026-03-24T09:46:27.49Z</time></trkpt><trkpt lat="43.1952603" lon="12.6107617"><ele>506.0</ele><time>2026-03-24T09:46:28.491Z</time></trkpt><trkpt lat="43.1953387" lon="12.6106386"><ele>506.0</ele><time>2026-03-24T09:46:29.49Z</time></trkpt><trkpt lat="43.1954273" lon="12.6105222"><ele>506.0</ele><time>2026-03-24T09:46:30.49Z</time></trkpt><trkpt lat="43.1955391" lon="12.6104187"><ele>504.0</ele><time>2026-03-24T09:46:31.49Z</time></trkpt><trkpt lat="43.1956612" lon="12.6103094"><ele>502.0</ele><time>2026-03-24T09:46:32.491Z</time></trkpt><trkpt lat="43.1957443" lon="12.6101894"><ele>500.0</ele><time>2026-03-24T09:46:33.49Z</time></trkpt><trkpt lat="43.1958353" lon="12.6100872"><ele>498.0</ele><time>2026-03-24T09:46:34.491Z</time></trkpt><trkpt lat="43.195929" lon="12.6099928"><ele>498.0</ele><time>2026-03-24T09:46:35.491Z</time></trkpt><trkpt lat="43.1960163" lon="12.6099241"><ele>497.99999999999994</ele><time>2026-03-24T09:46:36.491Z</time></trkpt><trkpt lat="43.1960951" lon="12.6099625"><ele>497.99999999999994</ele><time>2026-03-24T09:46:37.491Z</time></trkpt><trkpt lat="43.196201" lon="12.6099849"><ele>498.0</ele><time>2026-03-24T09:46:38.491Z</time></trkpt><trkpt lat="43.1963089" lon="12.6099998"><ele>498.0</ele><time>2026-03-24T09:46:39.49Z</time></trkpt><trkpt lat="43.1964217" lon="12.610004"><ele>494.75</ele><time>2026-03-24T09:46:40.491Z</time></trkpt><trkpt lat="43.1965522" lon="12.6099841"><ele>491.5</ele><time>2026-03-24T09:46:41.492Z</time></trkpt><trkpt lat="43.1966809" lon="12.6099667"><ele>488.25</ele><time>2026-03-24T09:46:42.491Z</time></trkpt><trkpt lat="43.1967891" lon="12.6099469"><ele>485.0</ele><time>2026-03-24T09:46:43.49Z</time></trkpt><trkpt lat="43.1968847" lon="12.6099344"><ele>485.0</ele><time>2026-03-24T09:46:44.49Z</time></trkpt><trkpt lat="43.1969685" lon="12.6098945"><ele>485.0</ele><time>2026-03-24T09:46:45.491Z</time></trkpt><trkpt lat="43.1970413" lon="12.609859"><ele>485.0</ele><time>2026-03-24T09:46:46.491Z</time></trkpt><trkpt lat="43.1971312" lon="12.6097618"><ele>485.0</ele><time>2026-03-24T09:46:47.49Z</time></trkpt><trkpt lat="43.1972353" lon="12.6096634"><ele>485.0</ele><time>2026-03-24T09:46:48.49Z</time></trkpt><trkpt lat="43.1973269" lon="12.6095737"><ele>484.6</ele><time>2026-03-24T09:46:49.491Z</time></trkpt><trkpt lat="43.197427" lon="12.6094819"><ele>484.2</ele><time>2026-03-24T09:46:50.49Z</time></trkpt><trkpt lat="43.197526" lon="12.609423"><ele>483.79999999999995</ele><time>2026-03-24T09:46:51.491Z</time></trkpt><trkpt lat="43.19762" lon="12.6093829"><ele>483.4</ele><time>2026-03-24T09:46:52.492Z</time></trkpt><trkpt lat="43.1976986" lon="12.6093838"><ele>483.0</ele><time>2026-03-24T09:46:53.491Z</time></trkpt><trkpt lat="43.1977904" lon="12.6093451"><ele>483.0</ele><time>2026-03-24T09:46:54.491Z</time></trkpt><trkpt lat="43.1978406" lon="12.6092666"><ele>483.0</ele><time>2026-03-24T09:46:55.492Z</time></trkpt><trkpt lat="43.1978715" lon="12.6091685"><ele>483.0</ele><time>2026-03-24T09:46:56.492Z</time></trkpt><trkpt lat="43.1979282" lon="12.609087"><ele>483.0</ele><time>2026-03-24T09:46:57.491Z</time></trkpt><trkpt lat="43.1979532" lon="12.6089961"><ele>483.0</ele><time>2026-03-24T09:46:58.491Z</time></trkpt><trkpt lat="43.1979811" lon="12.6089115"><ele>483.0</ele><time>2026-03-24T09:46:59.491Z</time></trkpt><trkpt lat="43.1980162" lon="12.6088301"><ele>483.0</ele><time>2026-03-24T09:47:00.491Z</time></trkpt><trkpt lat="43.1980086" lon="12.6087348"><ele>480.59999999999997</ele><time>2026-03-24T09:47:01.49Z</time></trkpt><trkpt lat="43.1979522" lon="12.6086505"><ele>478.19999999999993</ele><time>2026-03-24T09:47:02.491Z</time></trkpt><trkpt lat="43.1978487" lon="12.6085664"><ele>475.8</ele><time>2026-03-24T09:47:03.49Z</time></trkpt><trkpt lat="43.1977771" lon="12.6084797"><ele>473.4</ele><time>2026-03-24T09:47:04.491Z</time></trkpt><trkpt lat="43.197696" lon="12.6083855"><ele>471.0</ele><time>2026-03-24T09:47:05.491Z</time></trkpt><trkpt lat="43.1975547" lon="12.6082874"><ele>471.0</ele><time>2026-03-24T09:47:06.492Z</time></trkpt><trkpt lat="43.1974504" lon="12.608231"><ele>471.0</ele><time>2026-03-24T09:47:07.492Z</time></trkpt><trkpt lat="43.1973356" lon="12.6081475"><ele>471.0</ele><time>2026-03-24T09:47:08.491Z</time></trkpt><trkpt lat="43.1972175" lon="12.6080823"><ele>471.0</ele><time>2026-03-24T09:47:09.49Z</time></trkpt><trkpt lat="43.1971159" lon="12.6079852"><ele>469.20000000000005</ele><time>2026-03-24T09:47:10.491Z</time></trkpt><trkpt lat="43.197017" lon="12.6078881"><ele>467.40000000000003</ele><time>2026-03-24T09:47:11.492Z</time></trkpt><trkpt lat="43.1969371" lon="12.6078208"><ele>465.6</ele><time>2026-03-24T09:47:12.491Z</time></trkpt><trkpt lat="43.1968378" lon="12.6077477"><ele>463.8</ele><time>2026-03-24T09:47:13.491Z</time></trkpt><trkpt lat="43.196725" lon="12.6077027"><ele>462.0</ele><time>2026-03-24T09:47:14.491Z</time></trkpt><trkpt lat="43.1966232" lon="12.6076872"><ele>462.0</ele><time>2026-03-24T09:47:15.49Z</time></trkpt><trkpt lat="43.1965042" lon="12.6076553"><ele>462.0</ele><time>2026-03-24T09:47:16.491Z</time></trkpt><trkpt lat="43.1963987" lon="12.6076302"><ele>462.0</ele><time>2026-03-24T09:47:17.491Z</time></trkpt><trkpt lat="43.1962785" lon="12.6075686"><ele>462.0</ele><time>2026-03-24T09:47:18.49Z</time></trkpt><trkpt lat="43.1961892" lon="12.6074796"><ele>461.75</ele><time>2026-03-24T09:47:19.49Z</time></trkpt><trkpt lat="43.1961049" lon="12.6073532"><ele>461.5</ele><time>2026-03-24T09:47:20.492Z</time></trkpt><trkpt lat="43.196032" lon="12.6072177"><ele>461.25</ele><time>2026-03-24T09:47:21.491Z</time></trkpt><trkpt lat="43.1959601" lon="12.6071059"><ele>461.0</ele><time>2026-03-24T09:47:22.492Z</time></trkpt><trkpt lat="43.1958742" lon="12.6069859"><ele>461.0</ele><time>2026-03-24T09:47:23.49Z</time></trkpt><trkpt lat="43.1957948" lon="12.6068593"><ele>461.0</ele><time>2026-03-24T09:47:24.49Z</time></trkpt><trkpt lat="43.1957119" lon="12.6067459"><ele>461.0</ele><time>2026-03-24T09:47:25.491Z</time></trkpt><trkpt lat="43.1956536" lon="12.606631"><ele>461.0</ele><time>2026-03-24T09:47:26.49Z</time></trkpt><trkpt lat="43.1956013" lon="12.606538"><ele>461.0</ele><time>2026-03-24T09:47:27.491Z</time></trkpt><trkpt lat="43.1955684" lon="12.6064242"><ele>462.8333333333333</ele><time>2026-03-24T09:47:28.491Z</time></trkpt><trkpt lat="43.1955466" lon="12.6063129"><ele>464.66666666666663</ele><time>2026-03-24T09:47:29.491Z</time></trkpt><trkpt lat="43.1955258" lon="12.6061969"><ele>466.5</ele><time>2026-03-24T09:47:30.491Z</time></trkpt><trkpt lat="43.1955252" lon="12.6060809"><ele>468.33333333333337</ele><time>2026-03-24T09:47:31.49Z</time></trkpt><trkpt lat="43.1955214" lon="12.6059633"><ele>470.1666666666667</ele><time>2026-03-24T09:47:32.491Z</time></trkpt><trkpt lat="43.1955517" lon="12.6058335"><ele>472.0</ele><time>2026-03-24T09:47:33.491Z</time></trkpt><trkpt lat="43.1956311" lon="12.6057218"><ele>469.75</ele><time>2026-03-24T09:47:34.49Z</time></trkpt><trkpt lat="43.195688" lon="12.6055606"><ele>467.5</ele><time>2026-03-24T09:47:35.492Z</time></trkpt><trkpt lat="43.1957581" lon="12.6054221"><ele>465.25</ele><time>2026-03-24T09:47:36.49Z</time></trkpt><trkpt lat="43.1958418" lon="12.6052865"><ele>463.0</ele><time>2026-03-24T09:47:37.491Z</time></trkpt><trkpt lat="43.1959072" lon="12.6051353"><ele>463.0</ele><time>2026-03-24T09:47:38.491Z</time></trkpt><trkpt lat="43.1959866" lon="12.6050215"><ele>463.0</ele><time>2026-03-24T09:47:39.49Z</time></trkpt><trkpt lat="43.1960746" lon="12.6049149"><ele>463.0</ele><time>2026-03-24T09:47:40.491Z</time></trkpt><trkpt lat="43.1961958" lon="12.6048219"><ele>463.0</ele><time>2026-03-24T09:47:41.491Z</time></trkpt><trkpt lat="43.196308" lon="12.6047317"><ele>463.0</ele><time>2026-03-24T09:47:42.49Z</time></trkpt><trkpt lat="43.1964148" lon="12.604639"><ele>463.0</ele><time>2026-03-24T09:47:43.49Z</time></trkpt><trkpt lat="43.1965156" lon="12.6045633"><ele>463.0</ele><time>2026-03-24T09:47:44.49Z</time></trkpt><trkpt lat="43.1966187" lon="12.6044893"><ele>463.0</ele><time>2026-03-24T09:47:45.49Z</time></trkpt><trkpt lat="43.1967133" lon="12.6044254"><ele>461.5</ele><time>2026-03-24T09:47:46.491Z</time></trkpt><trkpt lat="43.1968144" lon="12.6043819"><ele>460.0</ele><time>2026-03-24T09:47:47.491Z</time></trkpt><trkpt lat="43.1969326" lon="12.60436"><ele>458.5</ele><time>2026-03-24T09:47:48.492Z</time></trkpt><trkpt lat="43.197055" lon="12.6043565"><ele>457.0</ele><time>2026-03-24T09:47:49.491Z</time></trkpt><trkpt lat="43.1971816" lon="12.6043411"><ele>457.0</ele><time>2026-03-24T09:47:50.491Z</time></trkpt><trkpt lat="43.1972901" lon="12.604343"><ele>457.00000000000006</ele><time>2026-03-24T09:47:51.49Z</time></trkpt><trkpt lat="43.197385" lon="12.6043288"><ele>457.00000000000006</ele><time>2026-03-24T09:47:52.49Z</time></trkpt><trkpt lat="43.1974736" lon="12.6042931"><ele>457.0</ele><time>2026-03-24T09:47:53.491Z</time></trkpt><trkpt lat="43.1975628" lon="12.6042382"><ele>457.0</ele><time>2026-03-24T09:47:54.49Z</time></trkpt><trkpt lat="43.1976394" lon="12.6041728"><ele>455.40000000000003</ele><time>2026-03-24T09:47:55.491Z</time></trkpt><trkpt lat="43.1977049" lon="12.6040996"><ele>453.80000000000007</ele><time>2026-03-24T09:47:56.491Z</time></trkpt><trkpt lat="43.1977643" lon="12.6040205"><ele>452.2</ele><time>2026-03-24T09:47:57.491Z</time></trkpt><trkpt lat="43.1977942" lon="12.6038852"><ele>450.6</ele><time>2026-03-24T09:47:59.492Z</time></trkpt><trkpt lat="43.1977616" lon="12.6037213"><ele>449.0</ele><time>2026-03-24T09:48:01.491Z</time></trkpt><trkpt lat="43.1977152" lon="12.6036342"><ele>449.0</ele><time>2026-03-24T09:48:02.49Z</time></trkpt><trkpt lat="43.1976658" lon="12.603507"><ele>449.0</ele><time>2026-03-24T09:48:03.49Z</time></trkpt><trkpt lat="43.1976279" lon="12.6033408"><ele>449.0</ele><time>2026-03-24T09:48:04.491Z</time></trkpt><trkpt lat="43.1975966" lon="12.6031799"><ele>449.0</ele><time>2026-03-24T09:48:05.491Z</time></trkpt><trkpt lat="43.1975799" lon="12.6030244"><ele>448.99999999999994</ele><time>2026-03-24T09:48:06.49Z</time></trkpt><trkpt lat="43.1975722" lon="12.6028698"><ele>449.0</ele><time>2026-03-24T09:48:07.49Z</time></trkpt><trkpt lat="43.1975817" lon="12.6027677"><ele>449.0</ele><time>2026-03-24T09:48:08.491Z</time></trkpt><trkpt lat="43.1975454" lon="12.6026786"><ele>449.0</ele><time>2026-03-24T09:48:09.491Z</time></trkpt><trkpt lat="43.1975493" lon="12.6025785"><ele>448.99999999999994</ele><time>2026-03-24T09:48:10.491Z</time></trkpt><trkpt lat="43.1975315" lon="12.6024734"><ele>449.0</ele><time>2026-03-24T09:48:11.491Z</time></trkpt><trkpt lat="43.1974953" lon="12.6023811"><ele>447.79999999999995</ele><time>2026-03-24T09:48:12.49Z</time></trkpt><trkpt lat="43.1974313" lon="12.6023037"><ele>446.59999999999997</ele><time>2026-03-24T09:48:13.493Z</time></trkpt><trkpt lat="43.1973883" lon="12.6022072"><ele>445.4</ele><time>2026-03-24T09:48:14.491Z</time></trkpt><trkpt lat="43.1973283" lon="12.6021155"><ele>444.2</ele><time>2026-03-24T09:48:15.491Z</time></trkpt><trkpt lat="43.1972461" lon="12.6020142"><ele>443.0</ele><time>2026-03-24T09:48:16.489Z</time></trkpt><trkpt lat="43.1971575" lon="12.6019231"><ele>442.4</ele><time>2026-03-24T09:48:17.491Z</time></trkpt><trkpt lat="43.1970768" lon="12.6018258"><ele>441.79999999999995</ele><time>2026-03-24T09:48:18.491Z</time></trkpt><trkpt lat="43.1969973" lon="12.6017605"><ele>441.2</ele><time>2026-03-24T09:48:19.491Z</time></trkpt><trkpt lat="43.1969031" lon="12.6016619"><ele>440.6</ele><time>2026-03-24T09:48:20.491Z</time></trkpt><trkpt lat="43.1967993" lon="12.6015921"><ele>440.0</ele><time>2026-03-24T09:48:21.491Z</time></trkpt><trkpt lat="43.1967062" lon="12.6015167"><ele>440.0</ele><time>2026-03-24T09:48:22.491Z</time></trkpt><trkpt lat="43.1966239" lon="12.6014415"><ele>440.0</ele><time>2026-03-24T09:48:23.491Z</time></trkpt><trkpt lat="43.1965413" lon="12.6013723"><ele>440.0</ele><time>2026-03-24T09:48:24.491Z</time></trkpt><trkpt lat="43.1964524" lon="12.6013158"><ele>440.0</ele><time>2026-03-24T09:48:25.49Z</time></trkpt><trkpt lat="43.1963875" lon="12.6012639"><ele>440.0</ele><time>2026-03-24T09:48:26.492Z</time></trkpt><trkpt lat="43.1963043" lon="12.6012054"><ele>436.6</ele><time>2026-03-24T09:48:27.492Z</time></trkpt><trkpt lat="43.1962079" lon="12.601128"><ele>433.2</ele><time>2026-03-24T09:48:28.491Z</time></trkpt><trkpt lat="43.1961268" lon="12.6010768"><ele>429.79999999999995</ele><time>2026-03-24T09:48:29.491Z</time></trkpt><trkpt lat="43.1960276" lon="12.6010102"><ele>426.4</ele><time>2026-03-24T09:48:30.491Z</time></trkpt><trkpt lat="43.1959582" lon="12.6009638"><ele>423.0</ele><time>2026-03-24T09:48:31.491Z</time></trkpt><trkpt lat="43.1958794" lon="12.6009421"><ele>423.0</ele><time>2026-03-24T09:48:32.491Z</time></trkpt><trkpt lat="43.1958042" lon="12.6009428"><ele>423.0</ele><time>2026-03-24T09:48:33.491Z</time></trkpt><trkpt lat="43.1957205" lon="12.6009762"><ele>423.0</ele><time>2026-03-24T09:48:34.49Z</time></trkpt><trkpt lat="43.1956349" lon="12.6010182"><ele>423.0</ele><time>2026-03-24T09:48:35.491Z</time></trkpt><trkpt lat="43.1955326" lon="12.6010652"><ele>423.0</ele><time>2026-03-24T09:48:36.49Z</time></trkpt><trkpt lat="43.1954332" lon="12.6011134"><ele>422.1428571428571</ele><time>2026-03-24T09:48:37.491Z</time></trkpt><trkpt lat="43.1953605" lon="12.6011455"><ele>421.28571428571433</ele><time>2026-03-24T09:48:38.492Z</time></trkpt><trkpt lat="43.1952971" lon="12.6011049"><ele>420.42857142857144</ele><time>2026-03-24T09:48:39.492Z</time></trkpt><trkpt lat="43.1952386" lon="12.6010408"><ele>419.57142857142856</ele><time>2026-03-24T09:48:40.491Z</time></trkpt><trkpt lat="43.1951729" lon="12.6009972"><ele>418.71428571428567</ele><time>2026-03-24T09:48:41.49Z</time></trkpt><trkpt lat="43.1951088" lon="12.6009529"><ele>417.8571428571429</ele><time>2026-03-24T09:48:42.491Z</time></trkpt><trkpt lat="43.1950374" lon="12.600936"><ele>417.0</ele><time>2026-03-24T09:48:43.492Z</time></trkpt><trkpt lat="43.1949706" lon="12.6009398"><ele>417.0</ele><time>2026-03-24T09:48:44.49Z</time></trkpt><trkpt lat="43.1949021" lon="12.6009564"><ele>417.0</ele><time>2026-03-24T09:48:45.491Z</time></trkpt><trkpt lat="43.1947962" lon="12.6010469"><ele>417.0</ele><time>2026-03-24T09:48:47.491Z</time></trkpt><trkpt lat="43.1947149" lon="12.6011138"><ele>417.0</ele><time>2026-03-24T09:48:48.491Z</time></trkpt><trkpt lat="43.1946422" lon="12.6011613"><ele>417.0</ele><time>2026-03-24T09:48:49.491Z</time></trkpt><trkpt lat="43.1945621" lon="12.6012189"><ele>416.8</ele><time>2026-03-24T09:48:50.492Z</time></trkpt><trkpt lat="43.1944877" lon="12.6011873"><ele>416.6</ele><time>2026-03-24T09:48:51.491Z</time></trkpt><trkpt lat="43.1943943" lon="12.6011349"><ele>416.40000000000003</ele><time>2026-03-24T09:48:52.49Z</time></trkpt><trkpt lat="43.1943044" lon="12.6010654"><ele>416.20000000000005</ele><time>2026-03-24T09:48:53.49Z</time></trkpt><trkpt lat="43.1942129" lon="12.6009936"><ele>416.0</ele><time>2026-03-24T09:48:54.49Z</time></trkpt><trkpt lat="43.1941136" lon="12.6009069"><ele>416.0</ele><time>2026-03-24T09:48:55.491Z</time></trkpt><trkpt lat="43.1940347" lon="12.600838"><ele>416.0</ele><time>2026-03-24T09:48:56.491Z</time></trkpt><trkpt lat="43.1939782" lon="12.6007293"><ele>416.0</ele><time>2026-03-24T09:48:57.491Z</time></trkpt><trkpt lat="43.1939292" lon="12.6005717"><ele>416.0</ele><time>2026-03-24T09:48:58.491Z</time></trkpt><trkpt lat="43.1938757" lon="12.6004339"><ele>416.0</ele><time>2026-03-24T09:48:59.49Z</time></trkpt><trkpt lat="43.1938565" lon="12.6002872"><ele>416.20000000000005</ele><time>2026-03-24T09:49:01.491Z</time></trkpt><trkpt lat="43.1937924" lon="12.6001358"><ele>416.40000000000003</ele><time>2026-03-24T09:49:03.49Z</time></trkpt><trkpt lat="43.1937359" lon="12.6000709"><ele>416.6</ele><time>2026-03-24T09:49:04.49Z</time></trkpt><trkpt lat="43.1936692" lon="12.600018"><ele>416.8</ele><time>2026-03-24T09:49:05.491Z</time></trkpt><trkpt lat="43.1935916" lon="12.5999722"><ele>417.0</ele><time>2026-03-24T09:49:06.49Z</time></trkpt><trkpt lat="43.193495" lon="12.5999127"><ele>417.0</ele><time>2026-03-24T09:49:07.49Z</time></trkpt><trkpt lat="43.1933963" lon="12.599869"><ele>417.0</ele><time>2026-03-24T09:49:08.491Z</time></trkpt><trkpt lat="43.1932957" lon="12.5998035"><ele>417.0</ele><time>2026-03-24T09:49:09.491Z</time></trkpt><trkpt lat="43.1931964" lon="12.599736"><ele>417.0</ele><time>2026-03-24T09:49:10.49Z</time></trkpt><trkpt lat="43.1931003" lon="12.5996835"><ele>417.0</ele><time>2026-03-24T09:49:11.491Z</time></trkpt><trkpt lat="43.1930038" lon="12.5996345"><ele>416.40000000000003</ele><time>2026-03-24T09:49:12.49Z</time></trkpt><trkpt lat="43.192892" lon="12.5995818"><ele>415.8</ele><time>2026-03-24T09:49:13.492Z</time></trkpt><trkpt lat="43.192778" lon="12.5995571"><ele>415.2</ele><time>2026-03-24T09:49:14.491Z</time></trkpt><trkpt lat="43.1926688" lon="12.5995701"><ele>414.6</ele><time>2026-03-24T09:49:15.491Z</time></trkpt><trkpt lat="43.1925782" lon="12.5996025"><ele>414.0</ele><time>2026-03-24T09:49:16.49Z</time></trkpt><trkpt lat="43.1924839" lon="12.5996415"><ele>414.0</ele><time>2026-03-24T09:49:17.49Z</time></trkpt><trkpt lat="43.1923871" lon="12.5997023"><ele>414.0</ele><time>2026-03-24T09:49:18.491Z</time></trkpt><trkpt lat="43.1922923" lon="12.5997853"><ele>414.0</ele><time>2026-03-24T09:49:19.491Z</time></trkpt><trkpt lat="43.1921952" lon="12.5999028"><ele>414.0</ele><time>2026-03-24T09:49:20.49Z</time></trkpt><trkpt lat="43.1920896" lon="12.6000145"><ele>415.25</ele><time>2026-03-24T09:49:21.49Z</time></trkpt><trkpt lat="43.1919952" lon="12.6001178"><ele>416.5</ele><time>2026-03-24T09:49:22.491Z</time></trkpt><trkpt lat="43.1918942" lon="12.6002207"><ele>417.75</ele><time>2026-03-24T09:49:23.491Z</time></trkpt><trkpt lat="43.1917795" lon="12.6003118"><ele>419.0</ele><time>2026-03-24T09:49:24.49Z</time></trkpt><trkpt lat="43.1916647" lon="12.6003784"><ele>419.0</ele><time>2026-03-24T09:49:25.491Z</time></trkpt><trkpt lat="43.1915499" lon="12.6004499"><ele>419.0</ele><time>2026-03-24T09:49:26.49Z</time></trkpt><trkpt lat="43.1914404" lon="12.6004907"><ele>419.0</ele><time>2026-03-24T09:49:27.49Z</time></trkpt><trkpt lat="43.1913289" lon="12.6005213"><ele>419.0</ele><time>2026-03-24T09:49:28.491Z</time></trkpt><trkpt lat="43.191228" lon="12.6005396"><ele>418.2</ele><time>2026-03-24T09:49:29.491Z</time></trkpt><trkpt lat="43.1911341" lon="12.6005515"><ele>417.4</ele><time>2026-03-24T09:49:30.491Z</time></trkpt><trkpt lat="43.1910393" lon="12.6005513"><ele>416.6</ele><time>2026-03-24T09:49:31.491Z</time></trkpt><trkpt lat="43.1909456" lon="12.6005408"><ele>415.8</ele><time>2026-03-24T09:49:32.49Z</time></trkpt><trkpt lat="43.1908404" lon="12.6004899"><ele>415.0</ele><time>2026-03-24T09:49:33.492Z</time></trkpt><trkpt lat="43.1907387" lon="12.6004358"><ele>415.33333333333337</ele><time>2026-03-24T09:49:34.491Z</time></trkpt><trkpt lat="43.1906388" lon="12.6003809"><ele>415.6666666666667</ele><time>2026-03-24T09:49:35.49Z</time></trkpt><trkpt lat="43.1905607" lon="12.6003278"><ele>416.0</ele><time>2026-03-24T09:49:36.49Z</time></trkpt><trkpt lat="43.1904849" lon="12.6002669"><ele>416.33333333333337</ele><time>2026-03-24T09:49:37.491Z</time></trkpt><trkpt lat="43.1904438" lon="12.6001811"><ele>416.6666666666667</ele><time>2026-03-24T09:49:38.492Z</time></trkpt><trkpt lat="43.1904045" lon="12.6001053"><ele>417.0</ele><time>2026-03-24T09:49:39.49Z</time></trkpt><trkpt lat="43.1903746" lon="12.5999606"><ele>415.6</ele><time>2026-03-24T09:49:40.492Z</time></trkpt><trkpt lat="43.1903422" lon="12.5998182"><ele>414.20000000000005</ele><time>2026-03-24T09:49:41.491Z</time></trkpt><trkpt lat="43.1903161" lon="12.599691"><ele>412.8</ele><time>2026-03-24T09:49:42.491Z</time></trkpt><trkpt lat="43.1902898" lon="12.5995561"><ele>411.4</ele><time>2026-03-24T09:49:43.49Z</time></trkpt><trkpt lat="43.1902571" lon="12.5994568"><ele>410.0</ele><time>2026-03-24T09:49:44.491Z</time></trkpt><trkpt lat="43.1902417" lon="12.5993406"><ele>407.99999999999994</ele><time>2026-03-24T09:49:45.491Z</time></trkpt><trkpt lat="43.1902045" lon="12.5992497"><ele>406.0</ele><time>2026-03-24T09:49:46.49Z</time></trkpt><trkpt lat="43.190145" lon="12.5991595"><ele>404.0</ele><time>2026-03-24T09:49:47.491Z</time></trkpt><trkpt lat="43.1900898" lon="12.5991121"><ele>402.0</ele><time>2026-03-24T09:49:48.492Z</time></trkpt><trkpt lat="43.1900234" lon="12.5990661"><ele>399.99999999999994</ele><time>2026-03-24T09:49:49.49Z</time></trkpt><trkpt lat="43.1899506" lon="12.5990396"><ele>398.0</ele><time>2026-03-24T09:49:50.49Z</time></trkpt><trkpt lat="43.1898707" lon="12.599006"><ele>394.8333333333333</ele><time>2026-03-24T09:49:51.491Z</time></trkpt><trkpt lat="43.1897951" lon="12.5989745"><ele>391.66666666666663</ele><time>2026-03-24T09:49:52.49Z</time></trkpt><trkpt lat="43.1897269" lon="12.5989636"><ele>388.5</ele><time>2026-03-24T09:49:53.491Z</time></trkpt><trkpt lat="43.189657" lon="12.5989946"><ele>385.3333333333333</ele><time>2026-03-24T09:49:54.49Z</time></trkpt><trkpt lat="43.1896037" lon="12.5990546"><ele>382.16666666666663</ele><time>2026-03-24T09:49:55.491Z</time></trkpt><trkpt lat="43.1895705" lon="12.5991294"><ele>379.0</ele><time>2026-03-24T09:49:56.491Z</time></trkpt><trkpt lat="43.1895154" lon="12.5992796"><ele>379.0</ele><time>2026-03-24T09:49:58.49Z</time></trkpt><trkpt lat="43.1894905" lon="12.599377"><ele>379.0</ele><time>2026-03-24T09:49:59.491Z</time></trkpt><trkpt lat="43.1894749" lon="12.5994834"><ele>379.0</ele><time>2026-03-24T09:50:00.491Z</time></trkpt><trkpt lat="43.1894657" lon="12.5995849"><ele>379.0</ele><time>2026-03-24T09:50:01.49Z</time></trkpt><trkpt lat="43.1894447" lon="12.5997274"><ele>379.0</ele><time>2026-03-24T09:50:02.492Z</time></trkpt><trkpt lat="43.1894324" lon="12.5998568"><ele>379.0</ele><time>2026-03-24T09:50:03.49Z</time></trkpt><trkpt lat="43.1894188" lon="12.5999777"><ele>380.79999999999995</ele><time>2026-03-24T09:50:04.491Z</time></trkpt><trkpt lat="43.189401" lon="12.6000748"><ele>382.59999999999997</ele><time>2026-03-24T09:50:05.491Z</time></trkpt><trkpt lat="43.1893279" lon="12.6002218"><ele>384.4</ele><time>2026-03-24T09:50:07.491Z</time></trkpt><trkpt lat="43.1892228" lon="12.6002418"><ele>386.2</ele><time>2026-03-24T09:50:08.492Z</time></trkpt><trkpt lat="43.1891275" lon="12.600292"><ele>388.0</ele><time>2026-03-24T09:50:09.491Z</time></trkpt><trkpt lat="43.1890394" lon="12.6003432"><ele>384.4</ele><time>2026-03-24T09:50:10.491Z</time></trkpt><trkpt lat="43.1889654" lon="12.600394"><ele>380.79999999999995</ele><time>2026-03-24T09:50:11.49Z</time></trkpt><trkpt lat="43.1888827" lon="12.6004544"><ele>377.2</ele><time>2026-03-24T09:50:12.49Z</time></trkpt><trkpt lat="43.1887914" lon="12.6005207"><ele>373.6</ele><time>2026-03-24T09:50:13.49Z</time></trkpt><trkpt lat="43.1887096" lon="12.60059"><ele>370.0</ele><time>2026-03-24T09:50:14.491Z</time></trkpt><trkpt lat="43.1886392" lon="12.6006595"><ele>370.0</ele><time>2026-03-24T09:50:15.491Z</time></trkpt><trkpt lat="43.1885727" lon="12.6007323"><ele>370.0</ele><time>2026-03-24T09:50:16.492Z</time></trkpt><trkpt lat="43.1885188" lon="12.6008124"><ele>370.0</ele><time>2026-03-24T09:50:17.492Z</time></trkpt><trkpt lat="43.1884698" lon="12.6008987"><ele>370.0</ele><time>2026-03-24T09:50:18.491Z</time></trkpt><trkpt lat="43.1884316" lon="12.6010027"><ele>370.0</ele><time>2026-03-24T09:50:19.491Z</time></trkpt><trkpt lat="43.1884074" lon="12.601107"><ele>370.0</ele><time>2026-03-24T09:50:20.49Z</time></trkpt><trkpt lat="43.1883835" lon="12.6013119"><ele>370.75</ele><time>2026-03-24T09:50:21.492Z</time></trkpt><trkpt lat="43.1883682" lon="12.6014818"><ele>371.5</ele><time>2026-03-24T09:50:22.491Z</time></trkpt><trkpt lat="43.1883415" lon="12.6016887"><ele>372.25</ele><time>2026-03-24T09:50:23.492Z</time></trkpt><trkpt lat="43.1883075" lon="12.6018694"><ele>373.0</ele><time>2026-03-24T09:50:24.49Z</time></trkpt><trkpt lat="43.1882714" lon="12.6020391"><ele>373.75</ele><time>2026-03-24T09:50:25.491Z</time></trkpt><trkpt lat="43.1882348" lon="12.6021962"><ele>374.5</ele><time>2026-03-24T09:50:26.492Z</time></trkpt><trkpt lat="43.1881891" lon="12.6023414"><ele>375.25</ele><time>2026-03-24T09:50:27.491Z</time></trkpt><trkpt lat="43.1881128" lon="12.6024753"><ele>376.0</ele><time>2026-03-24T09:50:28.491Z</time></trkpt><trkpt lat="43.1880173" lon="12.6025968"><ele>371.5</ele><time>2026-03-24T09:50:29.493Z</time></trkpt><trkpt lat="43.187899" lon="12.6027204"><ele>367.0</ele><time>2026-03-24T09:50:30.491Z</time></trkpt><trkpt lat="43.1877884" lon="12.6028386"><ele>362.5</ele><time>2026-03-24T09:50:31.492Z</time></trkpt><trkpt lat="43.1876816" lon="12.6029529"><ele>358.0</ele><time>2026-03-24T09:50:32.492Z</time></trkpt><trkpt lat="43.1875862" lon="12.6030521"><ele>358.0</ele><time>2026-03-24T09:50:33.492Z</time></trkpt><trkpt lat="43.1874942" lon="12.6031339"><ele>358.0</ele><time>2026-03-24T09:50:34.492Z</time></trkpt><trkpt lat="43.1874227" lon="12.6032198"><ele>358.0</ele><time>2026-03-24T09:50:35.491Z</time></trkpt><trkpt lat="43.1873464" lon="12.6033015"><ele>358.0</ele><time>2026-03-24T09:50:36.491Z</time></trkpt><trkpt lat="43.187291" lon="12.6033945"><ele>358.0</ele><time>2026-03-24T09:50:37.492Z</time></trkpt><trkpt lat="43.1872401" lon="12.6035024"><ele>354.25</ele><time>2026-03-24T09:50:38.491Z</time></trkpt><trkpt lat="43.1872056" lon="12.6036351"><ele>350.5</ele><time>2026-03-24T09:50:39.491Z</time></trkpt><trkpt lat="43.1871769" lon="12.6037689"><ele>346.75</ele><time>2026-03-24T09:50:40.492Z</time></trkpt><trkpt lat="43.1871442" lon="12.6039365"><ele>343.0</ele><time>2026-03-24T09:50:41.49Z</time></trkpt><trkpt lat="43.1871205" lon="12.604106"><ele>343.0</ele><time>2026-03-24T09:50:42.491Z</time></trkpt><trkpt lat="43.187112" lon="12.6042727"><ele>343.0</ele><time>2026-03-24T09:50:43.491Z</time></trkpt><trkpt lat="43.1871049" lon="12.6044321"><ele>343.0</ele><time>2026-03-24T09:50:44.49Z</time></trkpt><trkpt lat="43.1871066" lon="12.6045582"><ele>343.0</ele><time>2026-03-24T09:50:45.493Z</time></trkpt><trkpt lat="43.1871137" lon="12.604689"><ele>343.0</ele><time>2026-03-24T09:50:46.493Z</time></trkpt><trkpt lat="43.1871064" lon="12.6048108"><ele>344.8333333333333</ele><time>2026-03-24T09:50:47.491Z</time></trkpt><trkpt lat="43.18709" lon="12.6049489"><ele>346.66666666666663</ele><time>2026-03-24T09:50:48.492Z</time></trkpt><trkpt lat="43.1870541" lon="12.6050478"><ele>348.5</ele><time>2026-03-24T09:50:49.491Z</time></trkpt><trkpt lat="43.1870085" lon="12.6051486"><ele>350.3333333333333</ele><time>2026-03-24T09:50:50.491Z</time></trkpt><trkpt lat="43.1869354" lon="12.6052408"><ele>352.1666666666667</ele><time>2026-03-24T09:50:51.494Z</time></trkpt><trkpt lat="43.1868715" lon="12.6053046"><ele>354.0</ele><time>2026-03-24T09:50:52.492Z</time></trkpt><trkpt lat="43.1867899" lon="12.6053712"><ele>354.5</ele><time>2026-03-24T09:50:53.492Z</time></trkpt><trkpt lat="43.1866846" lon="12.6054189"><ele>355.0</ele><time>2026-03-24T09:50:54.491Z</time></trkpt><trkpt lat="43.1865626" lon="12.6054927"><ele>355.5</ele><time>2026-03-24T09:50:55.49Z</time></trkpt><trkpt lat="43.1864607" lon="12.6055604"><ele>356.0</ele><time>2026-03-24T09:50:56.492Z</time></trkpt><trkpt lat="43.1863548" lon="12.605644"><ele>352.5</ele><time>2026-03-24T09:50:57.491Z</time></trkpt><trkpt lat="43.1862461" lon="12.6057372"><ele>349.0</ele><time>2026-03-24T09:50:58.491Z</time></trkpt><trkpt lat="43.1861413" lon="12.6058328"><ele>345.5</ele><time>2026-03-24T09:50:59.49Z</time></trkpt><trkpt lat="43.1860502" lon="12.6059455"><ele>342.0</ele><time>2026-03-24T09:51:00.492Z</time></trkpt><trkpt lat="43.185967" lon="12.6060557"><ele>343.20000000000005</ele><time>2026-03-24T09:51:01.49Z</time></trkpt><trkpt lat="43.1858789" lon="12.6061694"><ele>344.4</ele><time>2026-03-24T09:51:02.492Z</time></trkpt><trkpt lat="43.1858124" lon="12.6062722"><ele>345.6</ele><time>2026-03-24T09:51:03.492Z</time></trkpt><trkpt lat="43.1857603" lon="12.6063801"><ele>346.79999999999995</ele><time>2026-03-24T09:51:04.491Z</time></trkpt><trkpt lat="43.1857044" lon="12.6064841"><ele>348.0</ele><time>2026-03-24T09:51:05.491Z</time></trkpt><trkpt lat="43.1856457" lon="12.6065878"><ele>348.0</ele><time>2026-03-24T09:51:06.491Z</time></trkpt><trkpt lat="43.1855917" lon="12.6067093"><ele>348.0</ele><time>2026-03-24T09:51:07.491Z</time></trkpt><trkpt lat="43.185548" lon="12.6068131"><ele>348.0</ele><time>2026-03-24T09:51:08.493Z</time></trkpt><trkpt lat="43.1854959" lon="12.6069051"><ele>348.0</ele><time>2026-03-24T09:51:09.49Z</time></trkpt><trkpt lat="43.1854068" lon="12.6069278"><ele>348.0</ele><time>2026-03-24T09:51:11.491Z</time></trkpt><trkpt lat="43.1853054" lon="12.6068999"><ele>348.0</ele><time>2026-03-24T09:51:13.491Z</time></trkpt><trkpt lat="43.1851901" lon="12.6067116"><ele>348.0</ele><time>2026-03-24T09:51:14.492Z</time></trkpt><trkpt lat="43.1851523" lon="12.606587"><ele>348.0</ele><time>2026-03-24T09:51:15.49Z</time></trkpt><trkpt lat="43.1851232" lon="12.6064586"><ele>348.0</ele><time>2026-03-24T09:51:16.491Z</time></trkpt><trkpt lat="43.1851044" lon="12.6063635"><ele>348.0</ele><time>2026-03-24T09:51:17.49Z</time></trkpt><trkpt lat="43.1850491" lon="12.6062185"><ele>345.8333333333333</ele><time>2026-03-24T09:51:19.49Z</time></trkpt><trkpt lat="43.1849739" lon="12.6060894"><ele>343.6666666666667</ele><time>2026-03-24T09:51:21.49Z</time></trkpt><trkpt lat="43.184904" lon="12.6060717"><ele>341.5</ele><time>2026-03-24T09:51:22.49Z</time></trkpt><trkpt lat="43.1848396" lon="12.6061014"><ele>339.33333333333337</ele><time>2026-03-24T09:51:23.492Z</time></trkpt><trkpt lat="43.1847504" lon="12.6061098"><ele>337.1666666666667</ele><time>2026-03-24T09:51:24.49Z</time></trkpt><trkpt lat="43.1846554" lon="12.6061121"><ele>335.0</ele><time>2026-03-24T09:51:25.49Z</time></trkpt><trkpt lat="43.1845647" lon="12.6061143"><ele>334.33333333333337</ele><time>2026-03-24T09:51:26.49Z</time></trkpt><trkpt lat="43.1844797" lon="12.6060437"><ele>333.6666666666667</ele><time>2026-03-24T09:51:27.492Z</time></trkpt><trkpt lat="43.1843966" lon="12.6060169"><ele>333.0</ele><time>2026-03-24T09:51:28.492Z</time></trkpt><trkpt lat="43.1843541" lon="12.6059061"><ele>332.3333333333333</ele><time>2026-03-24T09:51:29.49Z</time></trkpt><trkpt lat="43.1842835" lon="12.6058497"><ele>331.66666666666663</ele><time>2026-03-24T09:51:30.492Z</time></trkpt><trkpt lat="43.1842215" lon="12.6057697"><ele>331.0</ele><time>2026-03-24T09:51:31.49Z</time></trkpt><trkpt lat="43.1841751" lon="12.6056805"><ele>331.0</ele><time>2026-03-24T09:51:32.492Z</time></trkpt><trkpt lat="43.1840726" lon="12.6056569"><ele>331.0</ele><time>2026-03-24T09:51:33.491Z</time></trkpt><trkpt lat="43.1839557" lon="12.6057118"><ele>331.0</ele><time>2026-03-24T09:51:34.491Z</time></trkpt><trkpt lat="43.1838711" lon="12.6057794"><ele>331.0</ele><time>2026-03-24T09:51:35.491Z</time></trkpt><trkpt lat="43.1837735" lon="12.6058233"><ele>331.0</ele><time>2026-03-24T09:51:36.492Z</time></trkpt><trkpt lat="43.1836913" lon="12.6058437"><ele>330.8</ele><time>2026-03-24T09:51:37.491Z</time></trkpt><trkpt lat="43.1836055" lon="12.6058891"><ele>330.6</ele><time>2026-03-24T09:51:38.491Z</time></trkpt><trkpt lat="43.1835239" lon="12.6059878"><ele>330.4</ele><time>2026-03-24T09:51:39.491Z</time></trkpt><trkpt lat="43.1834594" lon="12.6060989"><ele>330.2</ele><time>2026-03-24T09:51:40.491Z</time></trkpt><trkpt lat="43.1833744" lon="12.6062019"><ele>330.0</ele><time>2026-03-24T09:51:41.492Z</time></trkpt><trkpt lat="43.1832637" lon="12.6062958"><ele>328.6</ele><time>2026-03-24T09:51:42.49Z</time></trkpt><trkpt lat="43.1831742" lon="12.606338"><ele>327.2</ele><time>2026-03-24T09:51:43.491Z</time></trkpt><trkpt lat="43.183076" lon="12.6063755"><ele>325.79999999999995</ele><time>2026-03-24T09:51:44.491Z</time></trkpt><trkpt lat="43.1829674" lon="12.6062943"><ele>324.4</ele><time>2026-03-24T09:51:46.491Z</time></trkpt><trkpt lat="43.1828886" lon="12.6062634"><ele>323.0</ele><time>2026-03-24T09:51:47.492Z</time></trkpt><trkpt lat="43.182822" lon="12.6062372"><ele>323.0</ele><time>2026-03-24T09:51:48.492Z</time></trkpt><trkpt lat="43.1827117" lon="12.6062796"><ele>323.0</ele><time>2026-03-24T09:51:50.49Z</time></trkpt><trkpt lat="43.1826354" lon="12.6064263"><ele>323.0</ele><time>2026-03-24T09:51:52.491Z</time></trkpt><trkpt lat="43.1825956" lon="12.6065168"><ele>323.0</ele><time>2026-03-24T09:51:53.491Z</time></trkpt><trkpt lat="43.1824972" lon="12.606604"><ele>323.0</ele><time>2026-03-24T09:51:55.492Z</time></trkpt><trkpt lat="43.1824176" lon="12.606599"><ele>321.0</ele><time>2026-03-24T09:51:56.491Z</time></trkpt><trkpt lat="43.1823418" lon="12.6065656"><ele>319.0</ele><time>2026-03-24T09:51:57.492Z</time></trkpt><trkpt lat="43.1822738" lon="12.6065"><ele>317.0</ele><time>2026-03-24T09:51:58.493Z</time></trkpt><trkpt lat="43.1821986" lon="12.6064768"><ele>315.0</ele><time>2026-03-24T09:51:59.491Z</time></trkpt><trkpt lat="43.1821144" lon="12.6064709"><ele>313.0</ele><time>2026-03-24T09:52:00.491Z</time></trkpt><trkpt lat="43.182004" lon="12.6064973"><ele>311.0</ele><time>2026-03-24T09:52:01.492Z</time></trkpt><trkpt lat="43.1818816" lon="12.6065339"><ele>311.0</ele><time>2026-03-24T09:52:02.49Z</time></trkpt><trkpt lat="43.1817585" lon="12.6065812"><ele>311.0</ele><time>2026-03-24T09:52:03.49Z</time></trkpt><trkpt lat="43.181622" lon="12.6066437"><ele>311.0</ele><time>2026-03-24T09:52:04.49Z</time></trkpt><trkpt lat="43.1814857" lon="12.6067069"><ele>311.0</ele><time>2026-03-24T09:52:05.49Z</time></trkpt><trkpt lat="43.1813561" lon="12.6067786"><ele>309.5</ele><time>2026-03-24T09:52:06.491Z</time></trkpt><trkpt lat="43.1812311" lon="12.6068475"><ele>308.0</ele><time>2026-03-24T09:52:07.492Z</time></trkpt><trkpt lat="43.1811166" lon="12.6069195"><ele>306.5</ele><time>2026-03-24T09:52:08.49Z</time></trkpt><trkpt lat="43.181005" lon="12.6069927"><ele>305.0</ele><time>2026-03-24T09:52:09.49Z</time></trkpt><trkpt lat="43.1809018" lon="12.6070614"><ele>305.0</ele><time>2026-03-24T09:52:10.491Z</time></trkpt><trkpt lat="43.1808162" lon="12.6071199"><ele>305.0</ele><time>2026-03-24T09:52:11.492Z</time></trkpt><trkpt lat="43.1807386" lon="12.6071715"><ele>305.0</ele><time>2026-03-24T09:52:12.492Z</time></trkpt><trkpt lat="43.1806835" lon="12.6072233"><ele>305.0</ele><time>2026-03-24T09:52:13.492Z</time></trkpt><trkpt lat="43.1806574" lon="12.6073566"><ele>305.0</ele><time>2026-03-24T09:52:15.49Z</time></trkpt><trkpt lat="43.1807037" lon="12.6075238"><ele>305.0</ele><time>2026-03-24T09:52:17.491Z</time></trkpt><trkpt lat="43.1807353" lon="12.6076483"><ele>305.0</ele><time>2026-03-24T09:52:18.491Z</time></trkpt><trkpt lat="43.1807657" lon="12.6077667"><ele>305.0</ele><time>2026-03-24T09:52:19.491Z</time></trkpt><trkpt lat="43.1807482" lon="12.6078824"><ele>305.0</ele><time>2026-03-24T09:52:20.492Z</time></trkpt><trkpt lat="43.1807079" lon="12.6079734"><ele>305.0</ele><time>2026-03-24T09:52:21.491Z</time></trkpt><trkpt lat="43.1806596" lon="12.6080584"><ele>305.0</ele><time>2026-03-24T09:52:22.492Z</time></trkpt><trkpt lat="43.1805972" lon="12.6081278"><ele>302.1666666666667</ele><time>2026-03-24T09:52:23.491Z</time></trkpt><trkpt lat="43.1805348" lon="12.608194"><ele>299.33333333333337</ele><time>2026-03-24T09:52:24.49Z</time></trkpt><trkpt lat="43.1804815" lon="12.6082708"><ele>296.5</ele><time>2026-03-24T09:52:25.492Z</time></trkpt><trkpt lat="43.1804245" lon="12.6083346"><ele>293.6666666666667</ele><time>2026-03-24T09:52:26.492Z</time></trkpt><trkpt lat="43.1803611" lon="12.6083861"><ele>290.8333333333333</ele><time>2026-03-24T09:52:28.49Z</time></trkpt><trkpt lat="43.1802868" lon="12.608347"><ele>288.0</ele><time>2026-03-24T09:52:31.492Z</time></trkpt><trkpt lat="43.1802693" lon="12.6081732"><ele>288.0</ele><time>2026-03-24T09:52:33.491Z</time></trkpt><trkpt lat="43.1802587" lon="12.6080655"><ele>288.0</ele><time>2026-03-24T09:52:34.493Z</time></trkpt><trkpt lat="43.1802248" lon="12.607914"><ele>288.0</ele><time>2026-03-24T09:52:35.492Z</time></trkpt><trkpt lat="43.1802101" lon="12.6077818"><ele>288.0</ele><time>2026-03-24T09:52:36.493Z</time></trkpt><trkpt lat="43.1802749" lon="12.6075033"><ele>285.6666666666667</ele><time>2026-03-24T09:52:37.493Z</time></trkpt><trkpt lat="43.1803286" lon="12.6072997"><ele>283.33333333333337</ele><time>2026-03-24T09:52:38.491Z</time></trkpt><trkpt lat="43.1803479" lon="12.6071001"><ele>281.0</ele><time>2026-03-24T09:52:39.491Z</time></trkpt><trkpt lat="43.1803876" lon="12.6068277"><ele>278.0</ele><time>2026-03-24T09:52:40.491Z</time></trkpt><trkpt lat="43.1804406" lon="12.6065915"><ele>275.0</ele><time>2026-03-24T09:52:41.491Z</time></trkpt><trkpt lat="43.1805054" lon="12.6063541"><ele>272.0</ele><time>2026-03-24T09:52:42.492Z</time></trkpt><trkpt lat="43.1805616" lon="12.6061069"><ele>271.6666666666667</ele><time>2026-03-24T09:52:43.491Z</time></trkpt><trkpt lat="43.1806268" lon="12.6058942"><ele>271.3333333333333</ele><time>2026-03-24T09:52:44.491Z</time></trkpt><trkpt lat="43.1807035" lon="12.6056673"><ele>271.0</ele><time>2026-03-24T09:52:45.49Z</time></trkpt><trkpt lat="43.1807659" lon="12.6054511"><ele>269.0</ele><time>2026-03-24T09:52:46.492Z</time></trkpt><trkpt lat="43.1808286" lon="12.6052438"><ele>267.0</ele><time>2026-03-24T09:52:47.491Z</time></trkpt><trkpt lat="43.1808812" lon="12.6050495"><ele>265.0</ele><time>2026-03-24T09:52:48.492Z</time></trkpt><trkpt lat="43.1809528" lon="12.6048339"><ele>265.0</ele><time>2026-03-24T09:52:49.491Z</time></trkpt><trkpt lat="43.1810272" lon="12.6046139"><ele>265.0</ele><time>2026-03-24T09:52:50.491Z</time></trkpt><trkpt lat="43.1811075" lon="12.6043885"><ele>265.0</ele><time>2026-03-24T09:52:51.492Z</time></trkpt><trkpt lat="43.1811903" lon="12.6041511"><ele>265.3333333333333</ele><time>2026-03-24T09:52:52.492Z</time></trkpt><trkpt lat="43.1812727" lon="12.603914"><ele>265.6666666666667</ele><time>2026-03-24T09:52:53.492Z</time></trkpt><trkpt lat="43.1813585" lon="12.603672"><ele>266.0</ele><time>2026-03-24T09:52:54.491Z</time></trkpt><trkpt lat="43.1814395" lon="12.6034293"><ele>267.0</ele><time>2026-03-24T09:52:55.49Z</time></trkpt><trkpt lat="43.1815181" lon="12.6031912"><ele>268.0</ele><time>2026-03-24T09:52:56.491Z</time></trkpt><trkpt lat="43.1816053" lon="12.6029471"><ele>269.0</ele><time>2026-03-24T09:52:57.491Z</time></trkpt><trkpt lat="43.1817065" lon="12.6027036"><ele>270.6666666666667</ele><time>2026-03-24T09:52:58.491Z</time></trkpt><trkpt lat="43.1818029" lon="12.6024683"><ele>272.3333333333333</ele><time>2026-03-24T09:52:59.49Z</time></trkpt><trkpt lat="43.1819301" lon="12.6022231"><ele>274.0</ele><time>2026-03-24T09:53:00.49Z</time></trkpt><trkpt lat="43.1820652" lon="12.601966"><ele>278.5</ele><time>2026-03-24T09:53:01.491Z</time></trkpt><trkpt lat="43.1822274" lon="12.6017249"><ele>283.0</ele><time>2026-03-24T09:53:02.49Z</time></trkpt><trkpt lat="43.1824074" lon="12.6014762"><ele>283.0</ele><time>2026-03-24T09:53:03.492Z</time></trkpt><trkpt lat="43.1825832" lon="12.6012149"><ele>283.0</ele><time>2026-03-24T09:53:04.491Z</time></trkpt><trkpt lat="43.1827687" lon="12.6009509"><ele>288.0</ele><time>2026-03-24T09:53:05.491Z</time></trkpt><trkpt lat="43.1829566" lon="12.6007092"><ele>293.0</ele><time>2026-03-24T09:53:06.491Z</time></trkpt><trkpt lat="43.1831248" lon="12.6004751"><ele>295.0</ele><time>2026-03-24T09:53:07.492Z</time></trkpt><trkpt lat="43.1832676" lon="12.6002645"><ele>297.0</ele><time>2026-03-24T09:53:08.49Z</time></trkpt><trkpt lat="43.183399" lon="12.6000612"><ele>299.0</ele><time>2026-03-24T09:53:09.491Z</time></trkpt><trkpt lat="43.1835169" lon="12.5998498"><ele>299.0</ele><time>2026-03-24T09:53:10.492Z</time></trkpt><trkpt lat="43.1836138" lon="12.5996104"><ele>299.0</ele><time>2026-03-24T09:53:11.49Z</time></trkpt><trkpt lat="43.1836892" lon="12.5993686"><ele>299.0</ele><time>2026-03-24T09:53:12.49Z</time></trkpt><trkpt lat="43.1837796" lon="12.5991447"><ele>303.0</ele><time>2026-03-24T09:53:13.49Z</time></trkpt><trkpt lat="43.1838943" lon="12.5989393"><ele>307.0</ele><time>2026-03-24T09:53:14.491Z</time></trkpt><trkpt lat="43.1840054" lon="12.5987391"><ele>311.0</ele><time>2026-03-24T09:53:15.491Z</time></trkpt><trkpt lat="43.184144" lon="12.5985482"><ele>312.33333333333337</ele><time>2026-03-24T09:53:16.492Z</time></trkpt><trkpt lat="43.184263" lon="12.5983636"><ele>313.6666666666667</ele><time>2026-03-24T09:53:17.491Z</time></trkpt><trkpt lat="43.1843715" lon="12.5982132"><ele>315.0</ele><time>2026-03-24T09:53:18.491Z</time></trkpt><trkpt lat="43.1844444" lon="12.5980743"><ele>315.0</ele><time>2026-03-24T09:53:19.491Z</time></trkpt><trkpt lat="43.1845098" lon="12.5979124"><ele>315.0</ele><time>2026-03-24T09:53:20.49Z</time></trkpt><trkpt lat="43.1845375" lon="12.5977423"><ele>315.0</ele><time>2026-03-24T09:53:21.491Z</time></trkpt><trkpt lat="43.1845469" lon="12.5975779"><ele>315.0</ele><time>2026-03-24T09:53:22.492Z</time></trkpt><trkpt lat="43.1845283" lon="12.5973745"><ele>321.6666666666667</ele><time>2026-03-24T09:53:23.492Z</time></trkpt><trkpt lat="43.1845129" lon="12.5971464"><ele>328.33333333333337</ele><time>2026-03-24T09:53:24.491Z</time></trkpt><trkpt lat="43.1845071" lon="12.5969204"><ele>335.0</ele><time>2026-03-24T09:53:25.49Z</time></trkpt><trkpt lat="43.184496" lon="12.5966856"><ele>335.33333333333337</ele><time>2026-03-24T09:53:26.492Z</time></trkpt><trkpt lat="43.1844883" lon="12.5964587"><ele>335.6666666666667</ele><time>2026-03-24T09:53:27.491Z</time></trkpt><trkpt lat="43.1844835" lon="12.5962206"><ele>336.0</ele><time>2026-03-24T09:53:28.49Z</time></trkpt><trkpt lat="43.184474" lon="12.5959717"><ele>337.6666666666667</ele><time>2026-03-24T09:53:29.491Z</time></trkpt><trkpt lat="43.1844576" lon="12.5957643"><ele>339.33333333333337</ele><time>2026-03-24T09:53:30.491Z</time></trkpt><trkpt lat="43.1844471" lon="12.595553"><ele>341.0</ele><time>2026-03-24T09:53:31.491Z</time></trkpt><trkpt lat="43.1844457" lon="12.5953473"><ele>344.33333333333337</ele><time>2026-03-24T09:53:32.491Z</time></trkpt><trkpt lat="43.1844563" lon="12.5951402"><ele>347.6666666666667</ele><time>2026-03-24T09:53:33.492Z</time></trkpt><trkpt lat="43.1844825" lon="12.5949375"><ele>351.0</ele><time>2026-03-24T09:53:34.49Z</time></trkpt><trkpt lat="43.1845309" lon="12.594716"><ele>356.0</ele><time>2026-03-24T09:53:35.491Z</time></trkpt><trkpt lat="43.1845879" lon="12.5944847"><ele>361.0</ele><time>2026-03-24T09:53:36.491Z</time></trkpt><trkpt lat="43.184654" lon="12.5942541"><ele>366.0</ele><time>2026-03-24T09:53:37.492Z</time></trkpt><trkpt lat="43.1847291" lon="12.5940487"><ele>366.0</ele><time>2026-03-24T09:53:38.491Z</time></trkpt><trkpt lat="43.1847969" lon="12.593845"><ele>366.0</ele><time>2026-03-24T09:53:39.492Z</time></trkpt><trkpt lat="43.1848544" lon="12.5936614"><ele>366.0</ele><time>2026-03-24T09:53:40.491Z</time></trkpt><trkpt lat="43.1849118" lon="12.5934976"><ele>366.0</ele><time>2026-03-24T09:53:41.492Z</time></trkpt><trkpt lat="43.1849746" lon="12.5933647"><ele>364.20000000000005</ele><time>2026-03-24T09:53:42.491Z</time></trkpt><trkpt lat="43.1850441" lon="12.5932529"><ele>362.40000000000003</ele><time>2026-03-24T09:53:43.492Z</time></trkpt><trkpt lat="43.1850827" lon="12.593133"><ele>360.6</ele><time>2026-03-24T09:53:44.492Z</time></trkpt><trkpt lat="43.1851054" lon="12.5930216"><ele>358.8</ele><time>2026-03-24T09:53:45.491Z</time></trkpt><trkpt lat="43.1851182" lon="12.5929186"><ele>357.0</ele><time>2026-03-24T09:53:46.492Z</time></trkpt><trkpt lat="43.1851451" lon="12.5927766"><ele>357.0</ele><time>2026-03-24T09:53:48.491Z</time></trkpt><trkpt lat="43.1851498" lon="12.5926796"><ele>357.0</ele><time>2026-03-24T09:53:49.492Z</time></trkpt><trkpt lat="43.1851621" lon="12.5925477"><ele>357.0</ele><time>2026-03-24T09:53:51.491Z</time></trkpt><trkpt lat="43.1851275" lon="12.5924271"><ele>357.0</ele><time>2026-03-24T09:53:53.492Z</time></trkpt><trkpt lat="43.1850946" lon="12.5923416"><ele>357.0</ele><time>2026-03-24T09:53:54.49Z</time></trkpt><trkpt lat="43.1850386" lon="12.5922134"><ele>357.0</ele><time>2026-03-24T09:53:55.49Z</time></trkpt><trkpt lat="43.1849649" lon="12.5920648"><ele>357.6666666666667</ele><time>2026-03-24T09:53:56.492Z</time></trkpt><trkpt lat="43.184867" lon="12.591896"><ele>358.33333333333337</ele><time>2026-03-24T09:53:57.49Z</time></trkpt><trkpt lat="43.1847499" lon="12.5917142"><ele>359.0</ele><time>2026-03-24T09:53:58.49Z</time></trkpt><trkpt lat="43.1846251" lon="12.5915289"><ele>360.0</ele><time>2026-03-24T09:53:59.49Z</time></trkpt><trkpt lat="43.1844855" lon="12.5913219"><ele>361.0</ele><time>2026-03-24T09:54:00.491Z</time></trkpt><trkpt lat="43.1843386" lon="12.5911107"><ele>362.0</ele><time>2026-03-24T09:54:01.492Z</time></trkpt><trkpt lat="43.1841953" lon="12.5908875"><ele>362.0</ele><time>2026-03-24T09:54:02.49Z</time></trkpt><trkpt lat="43.1840495" lon="12.590676"><ele>362.0</ele><time>2026-03-24T09:54:03.491Z</time></trkpt><trkpt lat="43.1839184" lon="12.5904754"><ele>362.0</ele><time>2026-03-24T09:54:04.491Z</time></trkpt><trkpt lat="43.1838081" lon="12.5903037"><ele>362.6666666666667</ele><time>2026-03-24T09:54:05.491Z</time></trkpt><trkpt lat="43.1836932" lon="12.590134"><ele>363.3333333333333</ele><time>2026-03-24T09:54:06.491Z</time></trkpt><trkpt lat="43.1835797" lon="12.5899902"><ele>364.0</ele><time>2026-03-24T09:54:07.492Z</time></trkpt><trkpt lat="43.1834499" lon="12.589898"><ele>364.0</ele><time>2026-03-24T09:54:08.492Z</time></trkpt><trkpt lat="43.1832879" lon="12.5898571"><ele>364.0</ele><time>2026-03-24T09:54:09.491Z</time></trkpt><trkpt lat="43.1831103" lon="12.5898614"><ele>364.0</ele><time>2026-03-24T09:54:10.491Z</time></trkpt><trkpt lat="43.1829216" lon="12.5898929"><ele>368.3333333333333</ele><time>2026-03-24T09:54:11.492Z</time></trkpt><trkpt lat="43.1827424" lon="12.5899067"><ele>372.6666666666667</ele><time>2026-03-24T09:54:12.49Z</time></trkpt><trkpt lat="43.1825847" lon="12.5898908"><ele>377.0</ele><time>2026-03-24T09:54:13.49Z</time></trkpt><trkpt lat="43.1824541" lon="12.5898324"><ele>377.0</ele><time>2026-03-24T09:54:14.491Z</time></trkpt><trkpt lat="43.1823611" lon="12.5897193"><ele>377.0</ele><time>2026-03-24T09:54:15.49Z</time></trkpt><trkpt lat="43.1823106" lon="12.5895681"><ele>377.0</ele><time>2026-03-24T09:54:16.491Z</time></trkpt><trkpt lat="43.1822897" lon="12.5893748"><ele>377.0</ele><time>2026-03-24T09:54:17.491Z</time></trkpt><trkpt lat="43.1822874" lon="12.5891586"><ele>374.6666666666667</ele><time>2026-03-24T09:54:18.492Z</time></trkpt><trkpt lat="43.182293" lon="12.5889334"><ele>372.3333333333333</ele><time>2026-03-24T09:54:19.492Z</time></trkpt><trkpt lat="43.1823068" lon="12.5887261"><ele>370.0</ele><time>2026-03-24T09:54:20.491Z</time></trkpt><trkpt lat="43.1823576" lon="12.5885326"><ele>370.0</ele><time>2026-03-24T09:54:21.491Z</time></trkpt><trkpt lat="43.1824267" lon="12.5883618"><ele>370.0</ele><time>2026-03-24T09:54:22.492Z</time></trkpt><trkpt lat="43.182543" lon="12.588222"><ele>370.0</ele><time>2026-03-24T09:54:23.492Z</time></trkpt><trkpt lat="43.1826809" lon="12.5881156"><ele>370.0</ele><time>2026-03-24T09:54:24.492Z</time></trkpt><trkpt lat="43.1828382" lon="12.5880213"><ele>370.0</ele><time>2026-03-24T09:54:25.49Z</time></trkpt><trkpt lat="43.1830091" lon="12.5879254"><ele>370.0</ele><time>2026-03-24T09:54:26.492Z</time></trkpt><trkpt lat="43.183171" lon="12.5878358"><ele>371.66666666666663</ele><time>2026-03-24T09:54:27.492Z</time></trkpt><trkpt lat="43.1833355" lon="12.5877415"><ele>373.3333333333333</ele><time>2026-03-24T09:54:28.49Z</time></trkpt><trkpt lat="43.1835074" lon="12.5876482"><ele>375.0</ele><time>2026-03-24T09:54:29.491Z</time></trkpt><trkpt lat="43.1836723" lon="12.5875396"><ele>375.0</ele><time>2026-03-24T09:54:30.491Z</time></trkpt><trkpt lat="43.1838465" lon="12.5874323"><ele>375.0</ele><time>2026-03-24T09:54:31.492Z</time></trkpt><trkpt lat="43.183998" lon="12.5873017"><ele>375.0</ele><time>2026-03-24T09:54:32.492Z</time></trkpt><trkpt lat="43.1841496" lon="12.5871607"><ele>371.6666666666667</ele><time>2026-03-24T09:54:33.492Z</time></trkpt><trkpt lat="43.1842849" lon="12.5870276"><ele>368.33333333333337</ele><time>2026-03-24T09:54:34.49Z</time></trkpt><trkpt lat="43.1844274" lon="12.5868892"><ele>365.0</ele><time>2026-03-24T09:54:35.49Z</time></trkpt><trkpt lat="43.1845518" lon="12.586767"><ele>365.0</ele><time>2026-03-24T09:54:36.492Z</time></trkpt><trkpt lat="43.1846782" lon="12.5866556"><ele>365.0</ele><time>2026-03-24T09:54:37.49Z</time></trkpt><trkpt lat="43.1847957" lon="12.5865499"><ele>365.0</ele><time>2026-03-24T09:54:38.491Z</time></trkpt><trkpt lat="43.1849088" lon="12.586437"><ele>365.0</ele><time>2026-03-24T09:54:39.492Z</time></trkpt><trkpt lat="43.1850094" lon="12.5863127"><ele>367.5</ele><time>2026-03-24T09:54:40.492Z</time></trkpt><trkpt lat="43.1850843" lon="12.586163"><ele>370.0</ele><time>2026-03-24T09:54:41.492Z</time></trkpt><trkpt lat="43.1851347" lon="12.5859746"><ele>372.5</ele><time>2026-03-24T09:54:42.49Z</time></trkpt><trkpt lat="43.1851511" lon="12.5857745"><ele>375.0</ele><time>2026-03-24T09:54:43.49Z</time></trkpt><trkpt lat="43.1851499" lon="12.5855393"><ele>375.0</ele><time>2026-03-24T09:54:44.491Z</time></trkpt><trkpt lat="43.1851359" lon="12.5852943"><ele>375.0</ele><time>2026-03-24T09:54:45.49Z</time></trkpt><trkpt lat="43.1851144" lon="12.5850503"><ele>375.0</ele><time>2026-03-24T09:54:46.492Z</time></trkpt><trkpt lat="43.1850936" lon="12.5847907"><ele>375.0</ele><time>2026-03-24T09:54:47.492Z</time></trkpt><trkpt lat="43.1850673" lon="12.5845383"><ele>375.0</ele><time>2026-03-24T09:54:48.491Z</time></trkpt><trkpt lat="43.1850602" lon="12.5842951"><ele>375.0</ele><time>2026-03-24T09:54:49.491Z</time></trkpt><trkpt lat="43.185069" lon="12.5840805"><ele>374.0</ele><time>2026-03-24T09:54:50.49Z</time></trkpt><trkpt lat="43.1850966" lon="12.5838969"><ele>373.0</ele><time>2026-03-24T09:54:51.492Z</time></trkpt><trkpt lat="43.1851468" lon="12.5837494"><ele>372.0</ele><time>2026-03-24T09:54:52.491Z</time></trkpt><trkpt lat="43.1852077" lon="12.583622"><ele>371.0</ele><time>2026-03-24T09:54:53.492Z</time></trkpt><trkpt lat="43.1852666" lon="12.583497"><ele>372.5</ele><time>2026-03-24T09:54:54.491Z</time></trkpt><trkpt lat="43.1853089" lon="12.5833539"><ele>374.0</ele><time>2026-03-24T09:54:55.491Z</time></trkpt><trkpt lat="43.1853326" lon="12.5831928"><ele>375.5</ele><time>2026-03-24T09:54:56.491Z</time></trkpt><trkpt lat="43.1853295" lon="12.583016"><ele>377.0</ele><time>2026-03-24T09:54:57.491Z</time></trkpt><trkpt lat="43.1853088" lon="12.582822"><ele>377.0</ele><time>2026-03-24T09:54:58.49Z</time></trkpt><trkpt lat="43.1852724" lon="12.5826216"><ele>377.0</ele><time>2026-03-24T09:54:59.491Z</time></trkpt><trkpt lat="43.1851988" lon="12.5824328"><ele>377.0</ele><time>2026-03-24T09:55:00.491Z</time></trkpt><trkpt lat="43.1851368" lon="12.5822436"><ele>377.0</ele><time>2026-03-24T09:55:01.492Z</time></trkpt><trkpt lat="43.1851143" lon="12.5820456"><ele>377.0</ele><time>2026-03-24T09:55:02.492Z</time></trkpt><trkpt lat="43.1850997" lon="12.5818624"><ele>377.0</ele><time>2026-03-24T09:55:03.491Z</time></trkpt><trkpt lat="43.1850724" lon="12.5816894"><ele>377.0</ele><time>2026-03-24T09:55:04.491Z</time></trkpt><trkpt lat="43.1850153" lon="12.5815235"><ele>377.0</ele><time>2026-03-24T09:55:05.492Z</time></trkpt><trkpt lat="43.1849332" lon="12.581372"><ele>377.0</ele><time>2026-03-24T09:55:06.492Z</time></trkpt><trkpt lat="43.18481" lon="12.5812396"><ele>377.0</ele><time>2026-03-24T09:55:07.491Z</time></trkpt><trkpt lat="43.1846862" lon="12.5811201"><ele>377.0</ele><time>2026-03-24T09:55:08.491Z</time></trkpt><trkpt lat="43.1845867" lon="12.5809695"><ele>377.0</ele><time>2026-03-24T09:55:09.492Z</time></trkpt><trkpt lat="43.1845265" lon="12.5808065"><ele>377.0</ele><time>2026-03-24T09:55:10.492Z</time></trkpt><trkpt lat="43.184514" lon="12.5806235"><ele>377.0</ele><time>2026-03-24T09:55:11.491Z</time></trkpt><trkpt lat="43.1845403" lon="12.5804391"><ele>377.0</ele><time>2026-03-24T09:55:12.491Z</time></trkpt><trkpt lat="43.1845769" lon="12.5802342"><ele>375.0</ele><time>2026-03-24T09:55:13.492Z</time></trkpt><trkpt lat="43.1846154" lon="12.5800414"><ele>373.0</ele><time>2026-03-24T09:55:14.491Z</time></trkpt><trkpt lat="43.1846355" lon="12.5798485"><ele>371.0</ele><time>2026-03-24T09:55:15.492Z</time></trkpt><trkpt lat="43.1846492" lon="12.5796875"><ele>369.0</ele><time>2026-03-24T09:55:16.49Z</time></trkpt><trkpt lat="43.1846253" lon="12.5795304"><ele>364.75</ele><time>2026-03-24T09:55:17.492Z</time></trkpt><trkpt lat="43.1845555" lon="12.5793774"><ele>360.5</ele><time>2026-03-24T09:55:18.492Z</time></trkpt><trkpt lat="43.1844507" lon="12.5792473"><ele>356.25</ele><time>2026-03-24T09:55:19.491Z</time></trkpt><trkpt lat="43.1843189" lon="12.5791469"><ele>352.0</ele><time>2026-03-24T09:55:20.491Z</time></trkpt><trkpt lat="43.1841587" lon="12.579073"><ele>358.0</ele><time>2026-03-24T09:55:21.491Z</time></trkpt><trkpt lat="43.1839947" lon="12.5790022"><ele>364.0</ele><time>2026-03-24T09:55:22.492Z</time></trkpt><trkpt lat="43.1838413" lon="12.5789224"><ele>370.0</ele><time>2026-03-24T09:55:23.492Z</time></trkpt><trkpt lat="43.1836907" lon="12.5788511"><ele>370.0</ele><time>2026-03-24T09:55:24.492Z</time></trkpt><trkpt lat="43.1835386" lon="12.5787766"><ele>370.0</ele><time>2026-03-24T09:55:25.492Z</time></trkpt><trkpt lat="43.1834159" lon="12.5786866"><ele>370.0</ele><time>2026-03-24T09:55:26.491Z</time></trkpt><trkpt lat="43.1833225" lon="12.5785643"><ele>370.0</ele><time>2026-03-24T09:55:27.492Z</time></trkpt><trkpt lat="43.1832775" lon="12.578418"><ele>365.0</ele><time>2026-03-24T09:55:28.492Z</time></trkpt><trkpt lat="43.1832346" lon="12.5782696"><ele>360.0</ele><time>2026-03-24T09:55:29.492Z</time></trkpt><trkpt lat="43.1832736" lon="12.5780907"><ele>355.0</ele><time>2026-03-24T09:55:30.493Z</time></trkpt><trkpt lat="43.1833335" lon="12.5779329"><ele>350.0</ele><time>2026-03-24T09:55:31.491Z</time></trkpt><trkpt lat="43.1834006" lon="12.5777585"><ele>348.0</ele><time>2026-03-24T09:55:32.491Z</time></trkpt><trkpt lat="43.1834704" lon="12.5775851"><ele>346.0</ele><time>2026-03-24T09:55:33.491Z</time></trkpt><trkpt lat="43.183535" lon="12.5774183"><ele>344.0</ele><time>2026-03-24T09:55:34.491Z</time></trkpt><trkpt lat="43.1835907" lon="12.5772663"><ele>342.0</ele><time>2026-03-24T09:55:35.492Z</time></trkpt><trkpt lat="43.1836551" lon="12.5771455"><ele>342.0</ele><time>2026-03-24T09:55:36.49Z</time></trkpt><trkpt lat="43.1837215" lon="12.577025"><ele>342.0</ele><time>2026-03-24T09:55:37.492Z</time></trkpt><trkpt lat="43.1838351" lon="12.5769808"><ele>342.0</ele><time>2026-03-24T09:55:38.493Z</time></trkpt><trkpt lat="43.1839294" lon="12.5769058"><ele>342.0</ele><time>2026-03-24T09:55:39.492Z</time></trkpt><trkpt lat="43.1840743" lon="12.5769463"><ele>341.25</ele><time>2026-03-24T09:55:40.491Z</time></trkpt><trkpt lat="43.1842155" lon="12.5769738"><ele>340.5</ele><time>2026-03-24T09:55:41.49Z</time></trkpt><trkpt lat="43.1843396" lon="12.5770101"><ele>339.75</ele><time>2026-03-24T09:55:42.49Z</time></trkpt><trkpt lat="43.1844609" lon="12.5770372"><ele>339.0</ele><time>2026-03-24T09:55:43.492Z</time></trkpt><trkpt lat="43.1845681" lon="12.5770438"><ele>339.75</ele><time>2026-03-24T09:55:44.491Z</time></trkpt><trkpt lat="43.1846718" lon="12.5770055"><ele>340.5</ele><time>2026-03-24T09:55:45.492Z</time></trkpt><trkpt lat="43.1847741" lon="12.5769369"><ele>341.25</ele><time>2026-03-24T09:55:46.492Z</time></trkpt><trkpt lat="43.18486" lon="12.5768286"><ele>342.0</ele><time>2026-03-24T09:55:47.491Z</time></trkpt><trkpt lat="43.1849224" lon="12.5766831"><ele>342.0</ele><time>2026-03-24T09:55:48.492Z</time></trkpt><trkpt lat="43.1849542" lon="12.5764988"><ele>342.0</ele><time>2026-03-24T09:55:49.491Z</time></trkpt><trkpt lat="43.1849496" lon="12.576273"><ele>342.0</ele><time>2026-03-24T09:55:50.492Z</time></trkpt><trkpt lat="43.1849225" lon="12.5760272"><ele>343.3333333333333</ele><time>2026-03-24T09:55:51.491Z</time></trkpt><trkpt lat="43.184899" lon="12.5757471"><ele>344.66666666666663</ele><time>2026-03-24T09:55:52.491Z</time></trkpt><trkpt lat="43.1848665" lon="12.5754562"><ele>346.0</ele><time>2026-03-24T09:55:53.492Z</time></trkpt><trkpt lat="43.1848334" lon="12.575168"><ele>346.66666666666663</ele><time>2026-03-24T09:55:54.492Z</time></trkpt><trkpt lat="43.1848274" lon="12.5749337"><ele>347.3333333333333</ele><time>2026-03-24T09:55:55.492Z</time></trkpt><trkpt lat="43.184821" lon="12.5747026"><ele>348.0</ele><time>2026-03-24T09:55:56.491Z</time></trkpt><trkpt lat="43.184898" lon="12.5745429"><ele>349.3333333333333</ele><time>2026-03-24T09:55:57.491Z</time></trkpt><trkpt lat="43.1849403" lon="12.5743497"><ele>350.66666666666663</ele><time>2026-03-24T09:55:58.491Z</time></trkpt><trkpt lat="43.1850392" lon="12.5741506"><ele>352.0</ele><time>2026-03-24T09:55:59.492Z</time></trkpt><trkpt lat="43.1852268" lon="12.5740685"><ele>352.0</ele><time>2026-03-24T09:56:00.49Z</time></trkpt><trkpt lat="43.1853558" lon="12.5739589"><ele>352.0</ele><time>2026-03-24T09:56:01.49Z</time></trkpt><trkpt lat="43.185518" lon="12.5738526"><ele>352.0</ele><time>2026-03-24T09:56:02.491Z</time></trkpt><trkpt lat="43.1856704" lon="12.5737639"><ele>348.3333333333333</ele><time>2026-03-24T09:56:03.491Z</time></trkpt><trkpt lat="43.1858181" lon="12.5736761"><ele>344.6666666666667</ele><time>2026-03-24T09:56:04.491Z</time></trkpt><trkpt lat="43.1859609" lon="12.573599"><ele>341.0</ele><time>2026-03-24T09:56:05.491Z</time></trkpt><trkpt lat="43.1860894" lon="12.5735359"><ele>341.0</ele><time>2026-03-24T09:56:06.491Z</time></trkpt><trkpt lat="43.1862167" lon="12.5735209"><ele>341.0</ele><time>2026-03-24T09:56:07.492Z</time></trkpt><trkpt lat="43.1863236" lon="12.5735439"><ele>341.0</ele><time>2026-03-24T09:56:08.492Z</time></trkpt><trkpt lat="43.1864383" lon="12.5736267"><ele>341.0</ele><time>2026-03-24T09:56:09.491Z</time></trkpt><trkpt lat="43.1865245" lon="12.5737533"><ele>343.0</ele><time>2026-03-24T09:56:10.492Z</time></trkpt><trkpt lat="43.1866019" lon="12.5739237"><ele>345.0</ele><time>2026-03-24T09:56:11.491Z</time></trkpt><trkpt lat="43.1866979" lon="12.5741139"><ele>347.0</ele><time>2026-03-24T09:56:12.492Z</time></trkpt><trkpt lat="43.1868014" lon="12.574325"><ele>344.33333333333337</ele><time>2026-03-24T09:56:13.492Z</time></trkpt><trkpt lat="43.1869116" lon="12.57453"><ele>341.6666666666667</ele><time>2026-03-24T09:56:14.491Z</time></trkpt><trkpt lat="43.1870274" lon="12.5746929"><ele>339.0</ele><time>2026-03-24T09:56:15.492Z</time></trkpt><trkpt lat="43.1871119" lon="12.5748865"><ele>339.0</ele><time>2026-03-24T09:56:16.492Z</time></trkpt><trkpt lat="43.1871842" lon="12.5750969"><ele>339.0</ele><time>2026-03-24T09:56:17.49Z</time></trkpt><trkpt lat="43.1872388" lon="12.5753383"><ele>339.0</ele><time>2026-03-24T09:56:18.492Z</time></trkpt><trkpt lat="43.187284" lon="12.5755997"><ele>336.6666666666667</ele><time>2026-03-24T09:56:19.491Z</time></trkpt><trkpt lat="43.1873269" lon="12.5758764"><ele>334.33333333333337</ele><time>2026-03-24T09:56:20.492Z</time></trkpt><trkpt lat="43.1873719" lon="12.5761537"><ele>332.0</ele><time>2026-03-24T09:56:21.491Z</time></trkpt><trkpt lat="43.1874117" lon="12.5764194"><ele>340.0</ele><time>2026-03-24T09:56:22.49Z</time></trkpt><trkpt lat="43.1874549" lon="12.5766825"><ele>348.0</ele><time>2026-03-24T09:56:23.492Z</time></trkpt><trkpt lat="43.1874969" lon="12.5769552"><ele>356.0</ele><time>2026-03-24T09:56:24.491Z</time></trkpt><trkpt lat="43.1875426" lon="12.5772191"><ele>356.0</ele><time>2026-03-24T09:56:25.491Z</time></trkpt><trkpt lat="43.1875777" lon="12.5774715"><ele>356.0</ele><time>2026-03-24T09:56:26.492Z</time></trkpt><trkpt lat="43.1876216" lon="12.5776958"><ele>356.0</ele><time>2026-03-24T09:56:27.492Z</time></trkpt><trkpt lat="43.1876703" lon="12.5779003"><ele>353.0</ele><time>2026-03-24T09:56:28.491Z</time></trkpt><trkpt lat="43.187742" lon="12.578094"><ele>350.0</ele><time>2026-03-24T09:56:29.491Z</time></trkpt><trkpt lat="43.1878564" lon="12.5782618"><ele>347.0</ele><time>2026-03-24T09:56:30.491Z</time></trkpt><trkpt lat="43.1880012" lon="12.5783981"><ele>347.0</ele><time>2026-03-24T09:56:31.491Z</time></trkpt><trkpt lat="43.188156" lon="12.5784975"><ele>347.0</ele><time>2026-03-24T09:56:32.491Z</time></trkpt><trkpt lat="43.1883143" lon="12.5785962"><ele>347.0</ele><time>2026-03-24T09:56:33.491Z</time></trkpt><trkpt lat="43.1884356" lon="12.5787128"><ele>348.25</ele><time>2026-03-24T09:56:34.492Z</time></trkpt><trkpt lat="43.1885219" lon="12.5788709"><ele>349.5</ele><time>2026-03-24T09:56:35.491Z</time></trkpt><trkpt lat="43.1885779" lon="12.5790458"><ele>350.75</ele><time>2026-03-24T09:56:36.491Z</time></trkpt><trkpt lat="43.1885901" lon="12.5792486"><ele>352.0</ele><time>2026-03-24T09:56:37.491Z</time></trkpt><trkpt lat="43.1885632" lon="12.5794783"><ele>351.3333333333333</ele><time>2026-03-24T09:56:38.49Z</time></trkpt><trkpt lat="43.1885251" lon="12.5797128"><ele>350.6666666666667</ele><time>2026-03-24T09:56:39.49Z</time></trkpt><trkpt lat="43.1884919" lon="12.5799362"><ele>350.0</ele><time>2026-03-24T09:56:40.492Z</time></trkpt><trkpt lat="43.1884872" lon="12.5801365"><ele>350.0</ele><time>2026-03-24T09:56:41.492Z</time></trkpt><trkpt lat="43.1885223" lon="12.5803084"><ele>350.0</ele><time>2026-03-24T09:56:42.492Z</time></trkpt><trkpt lat="43.1886071" lon="12.58045"><ele>350.0</ele><time>2026-03-24T09:56:43.492Z</time></trkpt><trkpt lat="43.1887299" lon="12.5805477"><ele>350.0</ele><time>2026-03-24T09:56:44.492Z</time></trkpt><trkpt lat="43.1888796" lon="12.5805876"><ele>349.6666666666667</ele><time>2026-03-24T09:56:45.491Z</time></trkpt><trkpt lat="43.1890425" lon="12.5806138"><ele>349.3333333333333</ele><time>2026-03-24T09:56:46.492Z</time></trkpt><trkpt lat="43.1892109" lon="12.5806277"><ele>349.0</ele><time>2026-03-24T09:56:47.492Z</time></trkpt><trkpt lat="43.1893726" lon="12.5806376"><ele>349.0</ele><time>2026-03-24T09:56:48.49Z</time></trkpt><trkpt lat="43.1895201" lon="12.5806594"><ele>349.0</ele><time>2026-03-24T09:56:49.493Z</time></trkpt><trkpt lat="43.1896508" lon="12.5806839"><ele>349.0</ele><time>2026-03-24T09:56:50.491Z</time></trkpt><trkpt lat="43.1897583" lon="12.5807123"><ele>349.0</ele><time>2026-03-24T09:56:51.492Z</time></trkpt><trkpt lat="43.1898437" lon="12.5807541"><ele>350.4</ele><time>2026-03-24T09:56:52.491Z</time></trkpt><trkpt lat="43.1899134" lon="12.5808023"><ele>351.79999999999995</ele><time>2026-03-24T09:56:53.492Z</time></trkpt><trkpt lat="43.1899805" lon="12.580841"><ele>353.20000000000005</ele><time>2026-03-24T09:56:55.492Z</time></trkpt><trkpt lat="43.1900162" lon="12.5807659"><ele>354.6</ele><time>2026-03-24T09:56:57.49Z</time></trkpt><trkpt lat="43.1900348" lon="12.5806182"><ele>356.0</ele><time>2026-03-24T09:56:59.491Z</time></trkpt><trkpt lat="43.1900547" lon="12.5804502"><ele>358.4</ele><time>2026-03-24T09:57:01.491Z</time></trkpt><trkpt lat="43.1900668" lon="12.580332"><ele>360.8</ele><time>2026-03-24T09:57:02.491Z</time></trkpt><trkpt lat="43.1900845" lon="12.5801874"><ele>363.2</ele><time>2026-03-24T09:57:03.491Z</time></trkpt><trkpt lat="43.1901095" lon="12.5800401"><ele>365.59999999999997</ele><time>2026-03-24T09:57:04.492Z</time></trkpt><trkpt lat="43.1901406" lon="12.5798956"><ele>368.0</ele><time>2026-03-24T09:57:05.492Z</time></trkpt><trkpt lat="43.1902329" lon="12.5798252"><ele>368.0</ele><time>2026-03-24T09:57:07.492Z</time></trkpt><trkpt lat="43.1903176" lon="12.5798724"><ele>368.0</ele><time>2026-03-24T09:57:09.493Z</time></trkpt><trkpt lat="43.1904191" lon="12.580064"><ele>368.0</ele><time>2026-03-24T09:57:11.491Z</time></trkpt><trkpt lat="43.1904594" lon="12.580199"><ele>368.0</ele><time>2026-03-24T09:57:12.492Z</time></trkpt><trkpt lat="43.1904713" lon="12.5803098"><ele>365.59999999999997</ele><time>2026-03-24T09:57:13.491Z</time></trkpt><trkpt lat="43.1904653" lon="12.5804266"><ele>363.2</ele><time>2026-03-24T09:57:14.493Z</time></trkpt><trkpt lat="43.190448" lon="12.580579"><ele>360.8</ele><time>2026-03-24T09:57:15.491Z</time></trkpt><trkpt lat="43.1904244" lon="12.5807309"><ele>358.4</ele><time>2026-03-24T09:57:16.491Z</time></trkpt><trkpt lat="43.1903918" lon="12.5808722"><ele>356.0</ele><time>2026-03-24T09:57:17.492Z</time></trkpt><trkpt lat="43.1903476" lon="12.5810076"><ele>356.0</ele><time>2026-03-24T09:57:18.492Z</time></trkpt><trkpt lat="43.1902987" lon="12.5811461"><ele>356.0</ele><time>2026-03-24T09:57:19.491Z</time></trkpt><trkpt lat="43.190263" lon="12.5812759"><ele>356.0</ele><time>2026-03-24T09:57:20.491Z</time></trkpt><trkpt lat="43.1902246" lon="12.5814117"><ele>356.0</ele><time>2026-03-24T09:57:21.491Z</time></trkpt><trkpt lat="43.1901904" lon="12.5815426"><ele>356.0</ele><time>2026-03-24T09:57:22.492Z</time></trkpt><trkpt lat="43.1901686" lon="12.5816652"><ele>355.33333333333337</ele><time>2026-03-24T09:57:23.491Z</time></trkpt><trkpt lat="43.1901571" lon="12.5817584"><ele>354.6666666666667</ele><time>2026-03-24T09:57:24.493Z</time></trkpt><trkpt lat="43.19014" lon="12.581875"><ele>354.0</ele><time>2026-03-24T09:57:26.491Z</time></trkpt><trkpt lat="43.1902222" lon="12.581917"><ele>353.3333333333333</ele><time>2026-03-24T09:57:30.491Z</time></trkpt><trkpt lat="43.1903401" lon="12.5818468"><ele>352.66666666666663</ele><time>2026-03-24T09:57:32.492Z</time></trkpt><trkpt lat="43.1904013" lon="12.5817873"><ele>352.0</ele><time>2026-03-24T09:57:33.491Z</time></trkpt><trkpt lat="43.1904714" lon="12.5817186"><ele>352.0</ele><time>2026-03-24T09:57:34.491Z</time></trkpt><trkpt lat="43.1905542" lon="12.5816578"><ele>352.0</ele><time>2026-03-24T09:57:35.493Z</time></trkpt><trkpt lat="43.1906378" lon="12.5815752"><ele>352.0</ele><time>2026-03-24T09:57:36.491Z</time></trkpt><trkpt lat="43.1907346" lon="12.5815049"><ele>352.0</ele><time>2026-03-24T09:57:37.491Z</time></trkpt><trkpt lat="43.190886" lon="12.5814769"><ele>355.75</ele><time>2026-03-24T09:57:38.492Z</time></trkpt><trkpt lat="43.1910065" lon="12.581417"><ele>359.5</ele><time>2026-03-24T09:57:39.493Z</time></trkpt><trkpt lat="43.1911462" lon="12.5813879"><ele>363.25</ele><time>2026-03-24T09:57:40.491Z</time></trkpt><trkpt lat="43.1912998" lon="12.5813449"><ele>367.0</ele><time>2026-03-24T09:57:41.491Z</time></trkpt><trkpt lat="43.1914588" lon="12.5813081"><ele>367.5</ele><time>2026-03-24T09:57:42.491Z</time></trkpt><trkpt lat="43.1915808" lon="12.5812751"><ele>368.0</ele><time>2026-03-24T09:57:43.492Z</time></trkpt><trkpt lat="43.1916948" lon="12.5812164"><ele>368.5</ele><time>2026-03-24T09:57:44.491Z</time></trkpt><trkpt lat="43.1917998" lon="12.5811855"><ele>369.0</ele><time>2026-03-24T09:57:45.492Z</time></trkpt><trkpt lat="43.1918971" lon="12.5811521"><ele>373.4</ele><time>2026-03-24T09:57:46.491Z</time></trkpt><trkpt lat="43.1919495" lon="12.581102"><ele>377.79999999999995</ele><time>2026-03-24T09:57:47.491Z</time></trkpt><trkpt lat="43.1920247" lon="12.5809587"><ele>382.20000000000005</ele><time>2026-03-24T09:57:49.491Z</time></trkpt><trkpt lat="43.1920339" lon="12.580856"><ele>386.6</ele><time>2026-03-24T09:57:50.492Z</time></trkpt><trkpt lat="43.1920178" lon="12.5807335"><ele>391.0</ele><time>2026-03-24T09:57:51.491Z</time></trkpt><trkpt lat="43.1919837" lon="12.5805984"><ele>391.0</ele><time>2026-03-24T09:57:52.492Z</time></trkpt><trkpt lat="43.1919574" lon="12.5804529"><ele>391.0</ele><time>2026-03-24T09:57:53.492Z</time></trkpt><trkpt lat="43.1919458" lon="12.5803053"><ele>391.0</ele><time>2026-03-24T09:57:54.492Z</time></trkpt><trkpt lat="43.1919454" lon="12.5801623"><ele>391.0</ele><time>2026-03-24T09:57:55.491Z</time></trkpt><trkpt lat="43.1919922" lon="12.5800343"><ele>391.0</ele><time>2026-03-24T09:57:56.492Z</time></trkpt><trkpt lat="43.1919884" lon="12.5799076"><ele>393.8</ele><time>2026-03-24T09:57:57.491Z</time></trkpt><trkpt lat="43.1919515" lon="12.5797903"><ele>396.6</ele><time>2026-03-24T09:57:58.491Z</time></trkpt><trkpt lat="43.1918994" lon="12.5796729"><ele>399.4</ele><time>2026-03-24T09:57:59.492Z</time></trkpt><trkpt lat="43.1918254" lon="12.5795662"><ele>402.2</ele><time>2026-03-24T09:58:00.492Z</time></trkpt><trkpt lat="43.1917387" lon="12.5794365"><ele>405.0</ele><time>2026-03-24T09:58:01.491Z</time></trkpt><trkpt lat="43.1916473" lon="12.5793027"><ele>405.0</ele><time>2026-03-24T09:58:02.492Z</time></trkpt><trkpt lat="43.1915461" lon="12.5791587"><ele>405.0</ele><time>2026-03-24T09:58:03.491Z</time></trkpt><trkpt lat="43.1914503" lon="12.5789931"><ele>405.0</ele><time>2026-03-24T09:58:04.493Z</time></trkpt><trkpt lat="43.1913614" lon="12.5788353"><ele>405.0</ele><time>2026-03-24T09:58:05.492Z</time></trkpt><trkpt lat="43.1912968" lon="12.5786553"><ele>409.25</ele><time>2026-03-24T09:58:06.491Z</time></trkpt><trkpt lat="43.1912533" lon="12.578463"><ele>413.5</ele><time>2026-03-24T09:58:07.491Z</time></trkpt><trkpt lat="43.1911944" lon="12.578293"><ele>417.75</ele><time>2026-03-24T09:58:08.492Z</time></trkpt><trkpt lat="43.1911316" lon="12.5781544"><ele>422.0</ele><time>2026-03-24T09:58:09.491Z</time></trkpt><trkpt lat="43.1910508" lon="12.5780393"><ele>421.99999999999994</ele><time>2026-03-24T09:58:10.492Z</time></trkpt><trkpt lat="43.1909803" lon="12.5779578"><ele>422.0</ele><time>2026-03-24T09:58:11.491Z</time></trkpt><trkpt lat="43.1909416" lon="12.5778683"><ele>422.0</ele><time>2026-03-24T09:58:12.492Z</time></trkpt><trkpt lat="43.1909208" lon="12.5777735"><ele>422.0</ele><time>2026-03-24T09:58:13.492Z</time></trkpt><trkpt lat="43.1909129" lon="12.5776791"><ele>421.99999999999994</ele><time>2026-03-24T09:58:14.492Z</time></trkpt><trkpt lat="43.1909878" lon="12.5775889"><ele>422.0</ele><time>2026-03-24T09:58:15.493Z</time></trkpt><trkpt lat="43.191031" lon="12.5774577"><ele>426.5</ele><time>2026-03-24T09:58:16.492Z</time></trkpt><trkpt lat="43.1910827" lon="12.5773167"><ele>431.0</ele><time>2026-03-24T09:58:17.492Z</time></trkpt><trkpt lat="43.1911238" lon="12.5771439"><ele>435.5</ele><time>2026-03-24T09:58:18.492Z</time></trkpt><trkpt lat="43.1911621" lon="12.5769759"><ele>440.0</ele><time>2026-03-24T09:58:19.492Z</time></trkpt><trkpt lat="43.1911967" lon="12.5768044"><ele>441.0</ele><time>2026-03-24T09:58:20.492Z</time></trkpt><trkpt lat="43.1912766" lon="12.5766649"><ele>442.0</ele><time>2026-03-24T09:58:21.492Z</time></trkpt><trkpt lat="43.1913545" lon="12.5765098"><ele>443.0</ele><time>2026-03-24T09:58:22.492Z</time></trkpt><trkpt lat="43.1914319" lon="12.5763942"><ele>444.0</ele><time>2026-03-24T09:58:23.492Z</time></trkpt><trkpt lat="43.191508" lon="12.5762798"><ele>446.3333333333333</ele><time>2026-03-24T09:58:24.492Z</time></trkpt><trkpt lat="43.1915653" lon="12.5761826"><ele>448.66666666666663</ele><time>2026-03-24T09:58:25.492Z</time></trkpt><trkpt lat="43.1916084" lon="12.5761002"><ele>451.0</ele><time>2026-03-24T09:58:26.492Z</time></trkpt><trkpt lat="43.1916418" lon="12.5760058"><ele>453.3333333333333</ele><time>2026-03-24T09:58:27.492Z</time></trkpt><trkpt lat="43.1916548" lon="12.5759106"><ele>455.66666666666663</ele><time>2026-03-24T09:58:28.492Z</time></trkpt><trkpt lat="43.1916402" lon="12.5757998"><ele>458.0</ele><time>2026-03-24T09:58:29.491Z</time></trkpt><trkpt lat="43.1915935" lon="12.5756839"><ele>458.0</ele><time>2026-03-24T09:58:30.491Z</time></trkpt><trkpt lat="43.1915195" lon="12.575552"><ele>458.0</ele><time>2026-03-24T09:58:31.492Z</time></trkpt><trkpt lat="43.1914251" lon="12.5753916"><ele>458.0</ele><time>2026-03-24T09:58:32.492Z</time></trkpt><trkpt lat="43.1913291" lon="12.5752034"><ele>458.0</ele><time>2026-03-24T09:58:33.492Z</time></trkpt><trkpt lat="43.1912477" lon="12.5750073"><ele>467.3333333333333</ele><time>2026-03-24T09:58:34.491Z</time></trkpt><trkpt lat="43.191186" lon="12.5748185"><ele>476.66666666666663</ele><time>2026-03-24T09:58:35.492Z</time></trkpt><trkpt lat="43.1911358" lon="12.5746257"><ele>486.0</ele><time>2026-03-24T09:58:36.492Z</time></trkpt><trkpt lat="43.1910952" lon="12.574412"><ele>486.33333333333337</ele><time>2026-03-24T09:58:37.492Z</time></trkpt><trkpt lat="43.1910628" lon="12.5741631"><ele>486.6666666666667</ele><time>2026-03-24T09:58:38.491Z</time></trkpt><trkpt lat="43.1910403" lon="12.5739368"><ele>487.0</ele><time>2026-03-24T09:58:39.492Z</time></trkpt><trkpt lat="43.1910324" lon="12.5737356"><ele>487.0</ele><time>2026-03-24T09:58:40.491Z</time></trkpt><trkpt lat="43.1910332" lon="12.5735342"><ele>487.0</ele><time>2026-03-24T09:58:41.492Z</time></trkpt><trkpt lat="43.1910255" lon="12.5733591"><ele>487.0</ele><time>2026-03-24T09:58:42.491Z</time></trkpt><trkpt lat="43.1910191" lon="12.5731908"><ele>487.0</ele><time>2026-03-24T09:58:43.491Z</time></trkpt><trkpt lat="43.1910327" lon="12.5730285"><ele>487.0</ele><time>2026-03-24T09:58:44.492Z</time></trkpt><trkpt lat="43.1910582" lon="12.572863"><ele>487.0</ele><time>2026-03-24T09:58:45.491Z</time></trkpt><trkpt lat="43.1910813" lon="12.5727056"><ele>487.0</ele><time>2026-03-24T09:58:46.491Z</time></trkpt><trkpt lat="43.1911073" lon="12.5725476"><ele>487.0</ele><time>2026-03-24T09:58:47.491Z</time></trkpt><trkpt lat="43.1911296" lon="12.5724057"><ele>489.20000000000005</ele><time>2026-03-24T09:58:48.494Z</time></trkpt><trkpt lat="43.1911473" lon="12.5722708"><ele>491.40000000000003</ele><time>2026-03-24T09:58:49.492Z</time></trkpt><trkpt lat="43.1911718" lon="12.572134"><ele>493.59999999999997</ele><time>2026-03-24T09:58:50.492Z</time></trkpt><trkpt lat="43.1911879" lon="12.571996"><ele>495.79999999999995</ele><time>2026-03-24T09:58:51.492Z</time></trkpt><trkpt lat="43.1911886" lon="12.5718519"><ele>498.0</ele><time>2026-03-24T09:58:52.492Z</time></trkpt><trkpt lat="43.1911955" lon="12.5717157"><ele>499.4</ele><time>2026-03-24T09:58:53.492Z</time></trkpt><trkpt lat="43.1911901" lon="12.5715725"><ele>500.79999999999995</ele><time>2026-03-24T09:58:54.492Z</time></trkpt><trkpt lat="43.1911656" lon="12.5714241"><ele>502.2</ele><time>2026-03-24T09:58:55.491Z</time></trkpt><trkpt lat="43.1911455" lon="12.5712783"><ele>503.6</ele><time>2026-03-24T09:58:56.492Z</time></trkpt><trkpt lat="43.1911434" lon="12.5711627"><ele>505.0</ele><time>2026-03-24T09:58:57.492Z</time></trkpt><trkpt lat="43.1911468" lon="12.5710592"><ele>505.33333333333337</ele><time>2026-03-24T09:58:58.491Z</time></trkpt><trkpt lat="43.1912065" lon="12.5709239"><ele>505.6666666666667</ele><time>2026-03-24T09:59:00.493Z</time></trkpt><trkpt lat="43.1912617" lon="12.5708685"><ele>506.0</ele><time>2026-03-24T09:59:01.491Z</time></trkpt><trkpt lat="43.1913185" lon="12.5708178"><ele>506.33333333333337</ele><time>2026-03-24T09:59:02.492Z</time></trkpt><trkpt lat="43.1914272" lon="12.5708103"><ele>506.6666666666667</ele><time>2026-03-24T09:59:04.491Z</time></trkpt><trkpt lat="43.1914869" lon="12.5708463"><ele>507.0</ele><time>2026-03-24T09:59:06.492Z</time></trkpt><trkpt lat="43.191548" lon="12.5709124"><ele>511.1666666666667</ele><time>2026-03-24T09:59:08.492Z</time></trkpt><trkpt lat="43.1916026" lon="12.5709972"><ele>515.3333333333334</ele><time>2026-03-24T09:59:10.491Z</time></trkpt><trkpt lat="43.1916814" lon="12.5710216"><ele>519.5</ele><time>2026-03-24T09:59:12.492Z</time></trkpt><trkpt lat="43.1917926" lon="12.5709821"><ele>523.6666666666667</ele><time>2026-03-24T09:59:14.492Z</time></trkpt><trkpt lat="43.1918603" lon="12.5709484"><ele>527.8333333333334</ele><time>2026-03-24T09:59:15.491Z</time></trkpt><trkpt lat="43.1919423" lon="12.5708996"><ele>532.0</ele><time>2026-03-24T09:59:16.492Z</time></trkpt><trkpt lat="43.1920379" lon="12.5708595"><ele>532.0</ele><time>2026-03-24T09:59:17.492Z</time></trkpt><trkpt lat="43.1921441" lon="12.5708243"><ele>532.0</ele><time>2026-03-24T09:59:18.492Z</time></trkpt><trkpt lat="43.1922596" lon="12.5708078"><ele>532.0</ele><time>2026-03-24T09:59:19.492Z</time></trkpt><trkpt lat="43.192377" lon="12.5708058"><ele>532.0</ele><time>2026-03-24T09:59:20.492Z</time></trkpt><trkpt lat="43.1924932" lon="12.5708221"><ele>534.3333333333334</ele><time>2026-03-24T09:59:21.492Z</time></trkpt><trkpt lat="43.1925953" lon="12.5708195"><ele>536.6666666666667</ele><time>2026-03-24T09:59:22.492Z</time></trkpt><trkpt lat="43.1926924" lon="12.5708449"><ele>539.0</ele><time>2026-03-24T09:59:23.491Z</time></trkpt><trkpt lat="43.1927625" lon="12.5708407"><ele>541.3333333333334</ele><time>2026-03-24T09:59:24.493Z</time></trkpt><trkpt lat="43.1928344" lon="12.570862"><ele>543.6666666666666</ele><time>2026-03-24T09:59:25.492Z</time></trkpt><trkpt lat="43.1929144" lon="12.5708985"><ele>546.0</ele><time>2026-03-24T09:59:26.491Z</time></trkpt><trkpt lat="43.1929973" lon="12.570913"><ele>546.0</ele><time>2026-03-24T09:59:27.491Z</time></trkpt><trkpt lat="43.193088" lon="12.570911"><ele>546.0</ele><time>2026-03-24T09:59:28.492Z</time></trkpt><trkpt lat="43.1931907" lon="12.5708874"><ele>546.0</ele><time>2026-03-24T09:59:29.492Z</time></trkpt><trkpt lat="43.1932586" lon="12.5708353"><ele>546.0</ele><time>2026-03-24T09:59:30.492Z</time></trkpt><trkpt lat="43.1933133" lon="12.570784"><ele>546.0</ele><time>2026-03-24T09:59:31.492Z</time></trkpt><trkpt lat="43.193388" lon="12.5706761"><ele>546.0</ele><time>2026-03-24T09:59:33.493Z</time></trkpt><trkpt lat="43.1934249" lon="12.5706021"><ele>547.5</ele><time>2026-03-24T09:59:34.491Z</time></trkpt><trkpt lat="43.1934412" lon="12.5705095"><ele>549.0</ele><time>2026-03-24T09:59:35.492Z</time></trkpt><trkpt lat="43.1934406" lon="12.5704072"><ele>550.5</ele><time>2026-03-24T09:59:36.491Z</time></trkpt><trkpt lat="43.1934404" lon="12.5702882"><ele>552.0</ele><time>2026-03-24T09:59:37.492Z</time></trkpt><trkpt lat="43.1934287" lon="12.5701593"><ele>553.5</ele><time>2026-03-24T09:59:38.492Z</time></trkpt><trkpt lat="43.1934105" lon="12.5700208"><ele>555.0</ele><time>2026-03-24T09:59:39.493Z</time></trkpt><trkpt lat="43.1933924" lon="12.5698732"><ele>557.8</ele><time>2026-03-24T09:59:40.491Z</time></trkpt><trkpt lat="43.1933677" lon="12.5697324"><ele>560.6</ele><time>2026-03-24T09:59:41.492Z</time></trkpt><trkpt lat="43.1933575" lon="12.5695992"><ele>563.4</ele><time>2026-03-24T09:59:42.491Z</time></trkpt><trkpt lat="43.1933516" lon="12.5694594"><ele>566.2</ele><time>2026-03-24T09:59:43.491Z</time></trkpt><trkpt lat="43.1933682" lon="12.5693337"><ele>569.0</ele><time>2026-03-24T09:59:44.492Z</time></trkpt><trkpt lat="43.193404" lon="12.5692411"><ele>569.8</ele><time>2026-03-24T09:59:45.493Z</time></trkpt><trkpt lat="43.1934583" lon="12.5691554"><ele>570.5999999999999</ele><time>2026-03-24T09:59:46.492Z</time></trkpt><trkpt lat="43.193545" lon="12.569082"><ele>571.4</ele><time>2026-03-24T09:59:47.492Z</time></trkpt><trkpt lat="43.1936501" lon="12.568997"><ele>572.1999999999999</ele><time>2026-03-24T09:59:48.492Z</time></trkpt><trkpt lat="43.1937536" lon="12.5689142"><ele>573.0</ele><time>2026-03-24T09:59:49.493Z</time></trkpt><trkpt lat="43.1938486" lon="12.5688342"><ele>573.0</ele><time>2026-03-24T09:59:50.492Z</time></trkpt><trkpt lat="43.1939318" lon="12.5687542"><ele>573.0</ele><time>2026-03-24T09:59:51.492Z</time></trkpt><trkpt lat="43.1939986" lon="12.5686443"><ele>573.0</ele><time>2026-03-24T09:59:52.492Z</time></trkpt><trkpt lat="43.1940723" lon="12.5685123"><ele>573.0</ele><time>2026-03-24T09:59:53.491Z</time></trkpt><trkpt lat="43.194134" lon="12.5683664"><ele>575.75</ele><time>2026-03-24T09:59:54.492Z</time></trkpt><trkpt lat="43.1941912" lon="12.5681935"><ele>578.5</ele><time>2026-03-24T09:59:55.492Z</time></trkpt><trkpt lat="43.1942595" lon="12.5680245"><ele>581.25</ele><time>2026-03-24T09:59:56.492Z</time></trkpt><trkpt lat="43.1942957" lon="12.5678528"><ele>584.0</ele><time>2026-03-24T09:59:57.493Z</time></trkpt><trkpt lat="43.1943225" lon="12.5676782"><ele>586.25</ele><time>2026-03-24T09:59:58.491Z</time></trkpt><trkpt lat="43.1943499" lon="12.5674987"><ele>588.5</ele><time>2026-03-24T09:59:59.492Z</time></trkpt><trkpt lat="43.1943737" lon="12.5673082"><ele>590.75</ele><time>2026-03-24T10:00:00.491Z</time></trkpt><trkpt lat="43.1943966" lon="12.5670944"><ele>593.0</ele><time>2026-03-24T10:00:01.492Z</time></trkpt><trkpt lat="43.1944308" lon="12.5668979"><ele>594.75</ele><time>2026-03-24T10:00:02.492Z</time></trkpt><trkpt lat="43.1944589" lon="12.5666994"><ele>596.5</ele><time>2026-03-24T10:00:03.491Z</time></trkpt><trkpt lat="43.1945012" lon="12.5664883"><ele>598.25</ele><time>2026-03-24T10:00:04.492Z</time></trkpt><trkpt lat="43.1945214" lon="12.5663066"><ele>600.0</ele><time>2026-03-24T10:00:05.493Z</time></trkpt><trkpt lat="43.1945608" lon="12.5661059"><ele>601.5</ele><time>2026-03-24T10:00:06.493Z</time></trkpt><trkpt lat="43.1945943" lon="12.5659474"><ele>603.0</ele><time>2026-03-24T10:00:07.492Z</time></trkpt><trkpt lat="43.1946345" lon="12.5657721"><ele>604.5</ele><time>2026-03-24T10:00:08.492Z</time></trkpt><trkpt lat="43.1946814" lon="12.5655903"><ele>606.0</ele><time>2026-03-24T10:00:09.493Z</time></trkpt><trkpt lat="43.1947419" lon="12.5654143"><ele>605.0</ele><time>2026-03-24T10:00:10.493Z</time></trkpt><trkpt lat="43.1948233" lon="12.5652285"><ele>604.0</ele><time>2026-03-24T10:00:11.492Z</time></trkpt><trkpt lat="43.1949047" lon="12.565037"><ele>603.0</ele><time>2026-03-24T10:00:12.491Z</time></trkpt><trkpt lat="43.194993" lon="12.5648591"><ele>603.0</ele><time>2026-03-24T10:00:13.491Z</time></trkpt><trkpt lat="43.1950443" lon="12.5646849"><ele>603.0</ele><time>2026-03-24T10:00:14.492Z</time></trkpt><trkpt lat="43.1951112" lon="12.5645215"><ele>603.0</ele><time>2026-03-24T10:00:15.492Z</time></trkpt><trkpt lat="43.1951965" lon="12.5643812"><ele>603.0</ele><time>2026-03-24T10:00:16.493Z</time></trkpt><trkpt lat="43.195309" lon="12.5642635"><ele>603.25</ele><time>2026-03-24T10:00:17.492Z</time></trkpt><trkpt lat="43.1954192" lon="12.5641738"><ele>603.5</ele><time>2026-03-24T10:00:18.492Z</time></trkpt><trkpt lat="43.1955683" lon="12.5641308"><ele>603.75</ele><time>2026-03-24T10:00:19.492Z</time></trkpt><trkpt lat="43.1957168" lon="12.5640666"><ele>604.0</ele><time>2026-03-24T10:00:20.492Z</time></trkpt><trkpt lat="43.1958855" lon="12.5639901"><ele>604.0</ele><time>2026-03-24T10:00:21.492Z</time></trkpt><trkpt lat="43.1960505" lon="12.5639196"><ele>604.0</ele><time>2026-03-24T10:00:22.492Z</time></trkpt><trkpt lat="43.196212" lon="12.5638563"><ele>604.0</ele><time>2026-03-24T10:00:23.491Z</time></trkpt><trkpt lat="43.1963651" lon="12.5637922"><ele>604.0</ele><time>2026-03-24T10:00:24.492Z</time></trkpt><trkpt lat="43.1965205" lon="12.5637329"><ele>604.0</ele><time>2026-03-24T10:00:25.492Z</time></trkpt><trkpt lat="43.1966703" lon="12.5636691"><ele>604.0</ele><time>2026-03-24T10:00:26.491Z</time></trkpt><trkpt lat="43.1968" lon="12.5636126"><ele>605.25</ele><time>2026-03-24T10:00:27.494Z</time></trkpt><trkpt lat="43.1969515" lon="12.5635444"><ele>606.5</ele><time>2026-03-24T10:00:28.492Z</time></trkpt><trkpt lat="43.1970848" lon="12.5634923"><ele>607.75</ele><time>2026-03-24T10:00:29.491Z</time></trkpt><trkpt lat="43.1972229" lon="12.5634422"><ele>609.0</ele><time>2026-03-24T10:00:30.491Z</time></trkpt><trkpt lat="43.19736" lon="12.5634103"><ele>610.75</ele><time>2026-03-24T10:00:31.493Z</time></trkpt><trkpt lat="43.1974938" lon="12.563373"><ele>612.5</ele><time>2026-03-24T10:00:32.493Z</time></trkpt><trkpt lat="43.1976207" lon="12.5633654"><ele>614.25</ele><time>2026-03-24T10:00:33.493Z</time></trkpt><trkpt lat="43.197759" lon="12.5633693"><ele>616.0</ele><time>2026-03-24T10:00:34.492Z</time></trkpt><trkpt lat="43.1979042" lon="12.5633941"><ele>616.0</ele><time>2026-03-24T10:00:35.493Z</time></trkpt><trkpt lat="43.1980569" lon="12.5634476"><ele>616.0</ele><time>2026-03-24T10:00:36.493Z</time></trkpt><trkpt lat="43.1982029" lon="12.563528"><ele>616.0</ele><time>2026-03-24T10:00:37.493Z</time></trkpt><trkpt lat="43.1983392" lon="12.5636125"><ele>617.0</ele><time>2026-03-24T10:00:38.492Z</time></trkpt><trkpt lat="43.1984487" lon="12.5636452"><ele>618.0</ele><time>2026-03-24T10:00:39.492Z</time></trkpt><trkpt lat="43.1985455" lon="12.5636602"><ele>619.0</ele><time>2026-03-24T10:00:40.494Z</time></trkpt><trkpt lat="43.1986297" lon="12.5636218"><ele>620.0</ele><time>2026-03-24T10:00:41.492Z</time></trkpt><trkpt lat="43.1987025" lon="12.5635452"><ele>621.0</ele><time>2026-03-24T10:00:42.491Z</time></trkpt><trkpt lat="43.1987757" lon="12.5634425"><ele>621.0</ele><time>2026-03-24T10:00:43.492Z</time></trkpt><trkpt lat="43.1988451" lon="12.5633235"><ele>621.0</ele><time>2026-03-24T10:00:44.491Z</time></trkpt><trkpt lat="43.1989261" lon="12.5632002"><ele>621.0</ele><time>2026-03-24T10:00:45.491Z</time></trkpt><trkpt lat="43.1990148" lon="12.5630787"><ele>621.0</ele><time>2026-03-24T10:00:46.493Z</time></trkpt><trkpt lat="43.1991143" lon="12.5629095"><ele>623.5</ele><time>2026-03-24T10:00:47.492Z</time></trkpt><trkpt lat="43.1992091" lon="12.5627556"><ele>626.0</ele><time>2026-03-24T10:00:48.492Z</time></trkpt><trkpt lat="43.1992935" lon="12.5625513"><ele>628.5</ele><time>2026-03-24T10:00:49.492Z</time></trkpt><trkpt lat="43.199366" lon="12.5624162"><ele>631.0</ele><time>2026-03-24T10:00:50.492Z</time></trkpt><trkpt lat="43.199443" lon="12.5622695"><ele>631.0</ele><time>2026-03-24T10:00:51.492Z</time></trkpt><trkpt lat="43.1994958" lon="12.5621393"><ele>631.0</ele><time>2026-03-24T10:00:52.492Z</time></trkpt><trkpt lat="43.1995413" lon="12.5620257"><ele>631.0</ele><time>2026-03-24T10:00:53.492Z</time></trkpt><trkpt lat="43.1995859" lon="12.5618975"><ele>631.0</ele><time>2026-03-24T10:00:54.492Z</time></trkpt><trkpt lat="43.1996635" lon="12.5618418"><ele>631.0</ele><time>2026-03-24T10:00:55.491Z</time></trkpt><trkpt lat="43.1997223" lon="12.5617679"><ele>630.6</ele><time>2026-03-24T10:00:56.492Z</time></trkpt><trkpt lat="43.1997752" lon="12.5617101"><ele>630.2</ele><time>2026-03-24T10:00:57.492Z</time></trkpt><trkpt lat="43.1998348" lon="12.5616634"><ele>629.8</ele><time>2026-03-24T10:00:58.493Z</time></trkpt><trkpt lat="43.19993" lon="12.5615947"><ele>629.4</ele><time>2026-03-24T10:00:59.493Z</time></trkpt><trkpt lat="43.2000152" lon="12.5615438"><ele>629.0</ele><time>2026-03-24T10:01:00.492Z</time></trkpt><trkpt lat="43.2001377" lon="12.561503"><ele>630.2</ele><time>2026-03-24T10:01:01.492Z</time></trkpt><trkpt lat="43.2002269" lon="12.5614293"><ele>631.4</ele><time>2026-03-24T10:01:02.491Z</time></trkpt><trkpt lat="43.2003168" lon="12.5613345"><ele>632.6</ele><time>2026-03-24T10:01:03.492Z</time></trkpt><trkpt lat="43.2003711" lon="12.5612219"><ele>633.8</ele><time>2026-03-24T10:01:04.492Z</time></trkpt><trkpt lat="43.2004358" lon="12.561112"><ele>635.0</ele><time>2026-03-24T10:01:05.492Z</time></trkpt><trkpt lat="43.2004926" lon="12.5610282"><ele>634.8</ele><time>2026-03-24T10:01:06.492Z</time></trkpt><trkpt lat="43.2005488" lon="12.5609628"><ele>634.6</ele><time>2026-03-24T10:01:07.492Z</time></trkpt><trkpt lat="43.2006051" lon="12.5609018"><ele>634.4</ele><time>2026-03-24T10:01:09.491Z</time></trkpt><trkpt lat="43.200678" lon="12.5609811"><ele>634.2</ele><time>2026-03-24T10:01:43.492Z</time></trkpt><trkpt lat="43.2007394" lon="12.5611596"><ele>634.0</ele><time>2026-03-24T10:01:45.492Z</time></trkpt><trkpt lat="43.2008036" lon="12.5612867"><ele>634.0</ele><time>2026-03-24T10:01:46.492Z</time></trkpt><trkpt lat="43.2008799" lon="12.561402"><ele>634.0</ele><time>2026-03-24T10:01:47.491Z</time></trkpt><trkpt lat="43.2009748" lon="12.5615125"><ele>634.0</ele><time>2026-03-24T10:01:48.492Z</time></trkpt><trkpt lat="43.2010793" lon="12.5616173"><ele>634.0</ele><time>2026-03-24T10:01:49.492Z</time></trkpt><trkpt lat="43.2012133" lon="12.5617143"><ele>634.0</ele><time>2026-03-24T10:01:50.492Z</time></trkpt><trkpt lat="43.2013535" lon="12.5617976"><ele>634.0</ele><time>2026-03-24T10:01:51.492Z</time></trkpt><trkpt lat="43.2015005" lon="12.5618756"><ele>634.0</ele><time>2026-03-24T10:01:52.492Z</time></trkpt><trkpt lat="43.2016389" lon="12.5619145"><ele>631.75</ele><time>2026-03-24T10:01:53.493Z</time></trkpt><trkpt lat="43.2017611" lon="12.5619901"><ele>629.5</ele><time>2026-03-24T10:01:54.492Z</time></trkpt><trkpt lat="43.2018866" lon="12.5620547"><ele>627.25</ele><time>2026-03-24T10:01:55.492Z</time></trkpt><trkpt lat="43.2020387" lon="12.5621858"><ele>625.0</ele><time>2026-03-24T10:01:56.492Z</time></trkpt><trkpt lat="43.2021796" lon="12.56229"><ele>625.0</ele><time>2026-03-24T10:01:57.493Z</time></trkpt><trkpt lat="43.2022321" lon="12.5625842"><ele>625.0</ele><time>2026-03-24T10:01:58.493Z</time></trkpt><trkpt lat="43.2023593" lon="12.5627942"><ele>625.0</ele><time>2026-03-24T10:01:59.492Z</time></trkpt><trkpt lat="43.2025001" lon="12.5629712"><ele>621.0</ele><time>2026-03-24T10:02:00.492Z</time></trkpt><trkpt lat="43.2026442" lon="12.5631456"><ele>617.0</ele><time>2026-03-24T10:02:01.491Z</time></trkpt><trkpt lat="43.2027853" lon="12.5633122"><ele>613.0</ele><time>2026-03-24T10:02:02.491Z</time></trkpt><trkpt lat="43.2028977" lon="12.5634912"><ele>613.0</ele><time>2026-03-24T10:02:03.491Z</time></trkpt><trkpt lat="43.2029877" lon="12.5636497"><ele>613.0</ele><time>2026-03-24T10:02:04.492Z</time></trkpt><trkpt lat="43.203033" lon="12.5637964"><ele>613.0</ele><time>2026-03-24T10:02:05.492Z</time></trkpt><trkpt lat="43.2030612" lon="12.5639126"><ele>613.0</ele><time>2026-03-24T10:02:06.491Z</time></trkpt><trkpt lat="43.203067" lon="12.5640213"><ele>613.0</ele><time>2026-03-24T10:02:07.492Z</time></trkpt><trkpt lat="43.2030755" lon="12.5641858"><ele>611.4</ele><time>2026-03-24T10:02:09.491Z</time></trkpt><trkpt lat="43.2030976" lon="12.5643374"><ele>609.8</ele><time>2026-03-24T10:02:11.492Z</time></trkpt><trkpt lat="43.2031048" lon="12.5644267"><ele>608.2</ele><time>2026-03-24T10:02:13.492Z</time></trkpt><trkpt lat="43.203152" lon="12.5643646"><ele>606.6</ele><time>2026-03-24T10:02:17.492Z</time></trkpt><trkpt lat="43.2030977" lon="12.5641905"><ele>605.0</ele><time>2026-03-24T10:02:19.493Z</time></trkpt><trkpt lat="43.2030716" lon="12.5640565"><ele>605.0</ele><time>2026-03-24T10:02:20.492Z</time></trkpt><trkpt lat="43.2030434" lon="12.5639166"><ele>605.0</ele><time>2026-03-24T10:02:21.492Z</time></trkpt><trkpt lat="43.2030188" lon="12.5637818"><ele>605.0</ele><time>2026-03-24T10:02:22.493Z</time></trkpt><trkpt lat="43.2029743" lon="12.5636753"><ele>605.0</ele><time>2026-03-24T10:02:23.492Z</time></trkpt><trkpt lat="43.2029307" lon="12.563603"><ele>605.0</ele><time>2026-03-24T10:02:24.492Z</time></trkpt><trkpt lat="43.2028506" lon="12.5635988"><ele>605.0</ele><time>2026-03-24T10:02:27.492Z</time></trkpt><trkpt lat="43.2028879" lon="12.5637091"><ele>605.0</ele><time>2026-03-24T10:02:30.492Z</time></trkpt><trkpt lat="43.2028909" lon="12.5637989"><ele>605.0</ele><time>2026-03-24T10:02:31.493Z</time></trkpt><trkpt lat="43.2029094" lon="12.5639928"><ele>605.0</ele><time>2026-03-24T10:02:33.492Z</time></trkpt><trkpt lat="43.2029061" lon="12.5641154"><ele>605.0</ele><time>2026-03-24T10:02:34.491Z</time></trkpt><trkpt lat="43.2029112" lon="12.5642297"><ele>605.0</ele><time>2026-03-24T10:02:35.492Z</time></trkpt><trkpt lat="43.2029079" lon="12.5643402"><ele>605.0</ele><time>2026-03-24T10:02:36.492Z</time></trkpt><trkpt lat="43.2029006" lon="12.5644316"><ele>605.0</ele><time>2026-03-24T10:02:37.492Z</time></trkpt><trkpt lat="43.2029021" lon="12.5645358"><ele>605.0</ele><time>2026-03-24T10:02:38.491Z</time></trkpt><trkpt lat="43.2028982" lon="12.5646257"><ele>605.0</ele><time>2026-03-24T10:02:39.491Z</time></trkpt><trkpt lat="43.202912" lon="12.5647165"><ele>605.0</ele><time>2026-03-24T10:02:40.491Z</time></trkpt><trkpt lat="43.202983" lon="12.56486"><ele>605.0</ele><time>2026-03-24T10:02:42.491Z</time></trkpt><trkpt lat="43.20308" lon="12.5649674"><ele>604.1666666666666</ele><time>2026-03-24T10:02:44.492Z</time></trkpt><trkpt lat="43.2031491" lon="12.5649991"><ele>603.3333333333333</ele><time>2026-03-24T10:02:45.492Z</time></trkpt><trkpt lat="43.2032262" lon="12.5650261"><ele>602.5</ele><time>2026-03-24T10:02:46.491Z</time></trkpt><trkpt lat="43.2033078" lon="12.5650601"><ele>601.6666666666666</ele><time>2026-03-24T10:02:47.492Z</time></trkpt><trkpt lat="43.2033911" lon="12.5651023"><ele>600.8333333333334</ele><time>2026-03-24T10:02:48.492Z</time></trkpt><trkpt lat="43.2034636" lon="12.5651487"><ele>600.0</ele><time>2026-03-24T10:02:49.493Z</time></trkpt><trkpt lat="43.2035423" lon="12.5651874"><ele>598.6666666666666</ele><time>2026-03-24T10:02:50.492Z</time></trkpt><trkpt lat="43.2036298" lon="12.565234"><ele>597.3333333333334</ele><time>2026-03-24T10:02:51.493Z</time></trkpt><trkpt lat="43.2036851" lon="12.5653014"><ele>596.0</ele><time>2026-03-24T10:02:52.492Z</time></trkpt><trkpt lat="43.2037243" lon="12.5653714"><ele>594.6666666666667</ele><time>2026-03-24T10:02:53.493Z</time></trkpt><trkpt lat="43.2037699" lon="12.5655469"><ele>593.3333333333334</ele><time>2026-03-24T10:02:55.491Z</time></trkpt><trkpt lat="43.2037985" lon="12.5656246"><ele>592.0</ele><time>2026-03-24T10:02:56.494Z</time></trkpt><trkpt lat="43.2038351" lon="12.5656971"><ele>592.0</ele><time>2026-03-24T10:02:57.492Z</time></trkpt><trkpt lat="43.2038935" lon="12.5657643"><ele>592.0</ele><time>2026-03-24T10:02:58.491Z</time></trkpt><trkpt lat="43.2040014" lon="12.5658749"><ele>592.0</ele><time>2026-03-24T10:03:00.491Z</time></trkpt><trkpt lat="43.2040865" lon="12.565929"><ele>592.0</ele><time>2026-03-24T10:03:01.492Z</time></trkpt><trkpt lat="43.2041743" lon="12.5659867"><ele>592.0</ele><time>2026-03-24T10:03:02.492Z</time></trkpt><trkpt lat="43.2042551" lon="12.5660376"><ele>592.0</ele><time>2026-03-24T10:03:03.491Z</time></trkpt><trkpt lat="43.2043423" lon="12.5661065"><ele>592.0</ele><time>2026-03-24T10:03:04.492Z</time></trkpt><trkpt lat="43.204432" lon="12.5661896"><ele>592.0</ele><time>2026-03-24T10:03:05.492Z</time></trkpt><trkpt lat="43.204519" lon="12.5662827"><ele>592.0</ele><time>2026-03-24T10:03:06.493Z</time></trkpt><trkpt lat="43.2045934" lon="12.5663862"><ele>592.0</ele><time>2026-03-24T10:03:07.492Z</time></trkpt><trkpt lat="43.2046581" lon="12.5664945"><ele>592.0</ele><time>2026-03-24T10:03:08.492Z</time></trkpt><trkpt lat="43.2047159" lon="12.5665897"><ele>592.0</ele><time>2026-03-24T10:03:09.494Z</time></trkpt><trkpt lat="43.2047646" lon="12.5666711"><ele>592.0</ele><time>2026-03-24T10:03:10.492Z</time></trkpt><trkpt lat="43.2048026" lon="12.5667408"><ele>592.0</ele><time>2026-03-24T10:03:11.491Z</time></trkpt><trkpt lat="43.2048384" lon="12.566837"><ele>592.0</ele><time>2026-03-24T10:03:12.492Z</time></trkpt><trkpt lat="43.2048445" lon="12.5669305"><ele>592.0</ele><time>2026-03-24T10:03:13.493Z</time></trkpt><trkpt lat="43.2048431" lon="12.567024"><ele>592.0</ele><time>2026-03-24T10:03:14.493Z</time></trkpt><trkpt lat="43.2048021" lon="12.5671095"><ele>590.1666666666667</ele><time>2026-03-24T10:03:15.494Z</time></trkpt><trkpt lat="43.2047563" lon="12.5672049"><ele>588.3333333333334</ele><time>2026-03-24T10:03:16.492Z</time></trkpt><trkpt lat="43.2047072" lon="12.567306"><ele>586.5</ele><time>2026-03-24T10:03:17.491Z</time></trkpt><trkpt lat="43.2046607" lon="12.5674086"><ele>584.6666666666666</ele><time>2026-03-24T10:03:18.492Z</time></trkpt><trkpt lat="43.2046484" lon="12.5674934"><ele>582.8333333333333</ele><time>2026-03-24T10:03:19.492Z</time></trkpt><trkpt lat="43.2046368" lon="12.5675793"><ele>581.0</ele><time>2026-03-24T10:03:20.491Z</time></trkpt><trkpt lat="43.2046466" lon="12.5676677"><ele>581.0</ele><time>2026-03-24T10:03:21.492Z</time></trkpt><trkpt lat="43.2047037" lon="12.5678161"><ele>581.0</ele><time>2026-03-24T10:03:23.492Z</time></trkpt><trkpt lat="43.2047794" lon="12.5678997"><ele>581.0</ele><time>2026-03-24T10:03:24.491Z</time></trkpt><trkpt lat="43.2048606" lon="12.5679831"><ele>581.0</ele><time>2026-03-24T10:03:25.491Z</time></trkpt><trkpt lat="43.2049316" lon="12.5680708"><ele>581.0</ele><time>2026-03-24T10:03:26.491Z</time></trkpt><trkpt lat="43.2050054" lon="12.5681514"><ele>582.0</ele><time>2026-03-24T10:03:27.491Z</time></trkpt><trkpt lat="43.2050799" lon="12.5682209"><ele>583.0</ele><time>2026-03-24T10:03:28.491Z</time></trkpt><trkpt lat="43.205149" lon="12.56828"><ele>584.0</ele><time>2026-03-24T10:03:29.492Z</time></trkpt><trkpt lat="43.2052219" lon="12.5683215"><ele>585.0</ele><time>2026-03-24T10:03:30.492Z</time></trkpt><trkpt lat="43.2052812" lon="12.5683802"><ele>586.0</ele><time>2026-03-24T10:03:31.491Z</time></trkpt><trkpt lat="43.2053256" lon="12.5685227"><ele>587.0</ele><time>2026-03-24T10:03:33.492Z</time></trkpt><trkpt lat="43.2053362" lon="12.5686363"><ele>584.2</ele><time>2026-03-24T10:03:34.491Z</time></trkpt><trkpt lat="43.205343" lon="12.5687536"><ele>581.4000000000001</ele><time>2026-03-24T10:03:35.492Z</time></trkpt><trkpt lat="43.2053382" lon="12.5688759"><ele>578.5999999999999</ele><time>2026-03-24T10:03:36.493Z</time></trkpt><trkpt lat="43.2053099" lon="12.5689896"><ele>575.8</ele><time>2026-03-24T10:03:37.492Z</time></trkpt><trkpt lat="43.2052865" lon="12.5691078"><ele>573.0</ele><time>2026-03-24T10:03:38.492Z</time></trkpt><trkpt lat="43.2052289" lon="12.5692441"><ele>573.0</ele><time>2026-03-24T10:03:39.493Z</time></trkpt><trkpt lat="43.205161" lon="12.5693444"><ele>573.0</ele><time>2026-03-24T10:03:40.492Z</time></trkpt><trkpt lat="43.2051011" lon="12.5694609"><ele>573.0</ele><time>2026-03-24T10:03:41.493Z</time></trkpt><trkpt lat="43.2050514" lon="12.5695582"><ele>573.0</ele><time>2026-03-24T10:03:42.492Z</time></trkpt><trkpt lat="43.2049997" lon="12.5696344"><ele>573.0</ele><time>2026-03-24T10:03:43.494Z</time></trkpt><trkpt lat="43.2049553" lon="12.5697122"><ele>573.0</ele><time>2026-03-24T10:03:44.493Z</time></trkpt><trkpt lat="43.2048775" lon="12.5698217"><ele>572.1666666666666</ele><time>2026-03-24T10:03:46.493Z</time></trkpt><trkpt lat="43.2047753" lon="12.569903"><ele>571.3333333333334</ele><time>2026-03-24T10:03:48.493Z</time></trkpt><trkpt lat="43.2047174" lon="12.5699374"><ele>570.5</ele><time>2026-03-24T10:03:49.492Z</time></trkpt><trkpt lat="43.2046591" lon="12.5699794"><ele>569.6666666666667</ele><time>2026-03-24T10:03:50.493Z</time></trkpt><trkpt lat="43.2045895" lon="12.5700197"><ele>568.8333333333334</ele><time>2026-03-24T10:03:51.492Z</time></trkpt><trkpt lat="43.2045142" lon="12.5700573"><ele>568.0</ele><time>2026-03-24T10:03:52.492Z</time></trkpt><trkpt lat="43.2044347" lon="12.5700819"><ele>568.0</ele><time>2026-03-24T10:03:53.492Z</time></trkpt><trkpt lat="43.2043693" lon="12.5701222"><ele>568.0</ele><time>2026-03-24T10:03:54.493Z</time></trkpt><trkpt lat="43.2043133" lon="12.5701772"><ele>568.0</ele><time>2026-03-24T10:03:55.492Z</time></trkpt><trkpt lat="43.2042488" lon="12.5702477"><ele>568.0</ele><time>2026-03-24T10:03:56.492Z</time></trkpt><trkpt lat="43.2041905" lon="12.5703279"><ele>568.0</ele><time>2026-03-24T10:03:57.493Z</time></trkpt><trkpt lat="43.204128" lon="12.5704194"><ele>568.0</ele><time>2026-03-24T10:03:58.492Z</time></trkpt><trkpt lat="43.2040652" lon="12.5705153"><ele>569.8</ele><time>2026-03-24T10:03:59.492Z</time></trkpt><trkpt lat="43.2039938" lon="12.5706157"><ele>571.5999999999999</ele><time>2026-03-24T10:04:00.492Z</time></trkpt><trkpt lat="43.2039195" lon="12.5706988"><ele>573.4000000000001</ele><time>2026-03-24T10:04:01.491Z</time></trkpt><trkpt lat="43.2038516" lon="12.5707892"><ele>575.2</ele><time>2026-03-24T10:04:02.492Z</time></trkpt><trkpt lat="43.2037751" lon="12.5708753"><ele>577.0</ele><time>2026-03-24T10:04:03.492Z</time></trkpt><trkpt lat="43.2037137" lon="12.5709595"><ele>577.0</ele><time>2026-03-24T10:04:04.493Z</time></trkpt><trkpt lat="43.2036513" lon="12.571032"><ele>577.0</ele><time>2026-03-24T10:04:05.493Z</time></trkpt><trkpt lat="43.2035921" lon="12.5711006"><ele>577.0</ele><time>2026-03-24T10:04:06.492Z</time></trkpt><trkpt lat="43.2035272" lon="12.571136"><ele>577.0</ele><time>2026-03-24T10:04:07.493Z</time></trkpt><trkpt lat="43.203403" lon="12.5711344"><ele>577.0</ele><time>2026-03-24T10:04:09.493Z</time></trkpt><trkpt lat="43.2033365" lon="12.5711037"><ele>577.0</ele><time>2026-03-24T10:04:10.492Z</time></trkpt><trkpt lat="43.2032706" lon="12.5710712"><ele>577.0</ele><time>2026-03-24T10:04:11.491Z</time></trkpt><trkpt lat="43.2031918" lon="12.5710307"><ele>577.0</ele><time>2026-03-24T10:04:12.494Z</time></trkpt><trkpt lat="43.2031256" lon="12.5710124"><ele>577.0</ele><time>2026-03-24T10:04:13.491Z</time></trkpt><trkpt lat="43.2030337" lon="12.5709978"><ele>577.0</ele><time>2026-03-24T10:04:15.492Z</time></trkpt><trkpt lat="43.2029662" lon="12.5709787"><ele>577.0</ele><time>2026-03-24T10:04:18.493Z</time></trkpt><trkpt lat="43.2028828" lon="12.5709226"><ele>577.0</ele><time>2026-03-24T10:04:21.492Z</time></trkpt><trkpt lat="43.2027879" lon="12.57089"><ele>576.6</ele><time>2026-03-24T10:04:23.493Z</time></trkpt><trkpt lat="43.202705" lon="12.5708949"><ele>576.2</ele><time>2026-03-24T10:04:25.491Z</time></trkpt><trkpt lat="43.202635" lon="12.5709589"><ele>575.8</ele><time>2026-03-24T10:04:27.492Z</time></trkpt><trkpt lat="43.2025935" lon="12.5711075"><ele>575.4</ele><time>2026-03-24T10:04:29.491Z</time></trkpt><trkpt lat="43.2025724" lon="12.571219"><ele>575.0</ele><time>2026-03-24T10:04:30.492Z</time></trkpt><trkpt lat="43.2025479" lon="12.5713506"><ele>575.0</ele><time>2026-03-24T10:04:31.491Z</time></trkpt><trkpt lat="43.2025113" lon="12.5714835"><ele>575.0</ele><time>2026-03-24T10:04:32.491Z</time></trkpt><trkpt lat="43.2024678" lon="12.5716203"><ele>575.0</ele><time>2026-03-24T10:04:33.493Z</time></trkpt><trkpt lat="43.2024216" lon="12.5717494"><ele>575.0</ele><time>2026-03-24T10:04:34.491Z</time></trkpt><trkpt lat="43.2023967" lon="12.5718714"><ele>575.0</ele><time>2026-03-24T10:04:35.492Z</time></trkpt><trkpt lat="43.2023722" lon="12.5719775"><ele>574.6666666666666</ele><time>2026-03-24T10:04:36.492Z</time></trkpt><trkpt lat="43.2023674" lon="12.5720768"><ele>574.3333333333333</ele><time>2026-03-24T10:04:37.491Z</time></trkpt><trkpt lat="43.202368" lon="12.5721879"><ele>574.0</ele><time>2026-03-24T10:04:38.493Z</time></trkpt><trkpt lat="43.2023722" lon="12.5722936"><ele>573.6666666666666</ele><time>2026-03-24T10:04:39.494Z</time></trkpt><trkpt lat="43.2023822" lon="12.5724015"><ele>573.3333333333334</ele><time>2026-03-24T10:04:40.491Z</time></trkpt><trkpt lat="43.2023838" lon="12.5725107"><ele>573.0</ele><time>2026-03-24T10:04:41.492Z</time></trkpt><trkpt lat="43.2023712" lon="12.5726089"><ele>573.0</ele><time>2026-03-24T10:04:42.492Z</time></trkpt><trkpt lat="43.2023535" lon="12.5727208"><ele>573.0</ele><time>2026-03-24T10:04:43.492Z</time></trkpt><trkpt lat="43.2023335" lon="12.5728409"><ele>573.0</ele><time>2026-03-24T10:04:44.492Z</time></trkpt><trkpt lat="43.2023176" lon="12.5729566"><ele>573.0</ele><time>2026-03-24T10:04:45.492Z</time></trkpt><trkpt lat="43.2022953" lon="12.5730516"><ele>573.0</ele><time>2026-03-24T10:04:46.491Z</time></trkpt><trkpt lat="43.2022741" lon="12.5731511"><ele>573.0</ele><time>2026-03-24T10:04:47.492Z</time></trkpt><trkpt lat="43.2022416" lon="12.5732931"><ele>571.0</ele><time>2026-03-24T10:04:49.492Z</time></trkpt><trkpt lat="43.2022307" lon="12.5733995"><ele>569.0</ele><time>2026-03-24T10:04:51.492Z</time></trkpt><trkpt lat="43.2022384" lon="12.5735456"><ele>567.0</ele><time>2026-03-24T10:04:53.493Z</time></trkpt><trkpt lat="43.2022308" lon="12.5736706"><ele>565.0</ele><time>2026-03-24T10:04:55.493Z</time></trkpt><trkpt lat="43.2022328" lon="12.5737835"><ele>563.0</ele><time>2026-03-24T10:04:58.491Z</time></trkpt><trkpt lat="43.202317" lon="12.5737865"><ele>561.0</ele><time>2026-03-24T10:05:03.492Z</time></trkpt><trkpt lat="43.2023738" lon="12.5737442"><ele>561.0</ele><time>2026-03-24T10:05:07.493Z</time></trkpt></trkseg><trkseg><trkpt lat="43.2023555" lon="12.5737118"><ele>558.6666666666666</ele><time>2026-03-24T10:16:17.493Z</time></trkpt><trkpt lat="43.2023263" lon="12.5738073"><ele>556.3333333333334</ele><time>2026-03-24T10:20:52.459Z</time></trkpt><trkpt lat="43.202249" lon="12.5738471"><ele>554.0</ele><time>2026-03-24T10:20:54.492Z</time></trkpt><trkpt lat="43.2022041" lon="12.5739126"><ele>551.6666666666667</ele><time>2026-03-24T10:20:56.493Z</time></trkpt><trkpt lat="43.2021621" lon="12.5740057"><ele>549.3333333333334</ele><time>2026-03-24T10:20:58.492Z</time></trkpt><trkpt lat="43.2020856" lon="12.5740991"><ele>547.0</ele><time>2026-03-24T10:21:00.493Z</time></trkpt><trkpt lat="43.2019972" lon="12.5741867"><ele>547.0</ele><time>2026-03-24T10:21:02.491Z</time></trkpt><trkpt lat="43.201901" lon="12.5742442"><ele>547.0</ele><time>2026-03-24T10:21:04.491Z</time></trkpt><trkpt lat="43.2018594" lon="12.5743164"><ele>547.0</ele><time>2026-03-24T10:21:06.492Z</time></trkpt><trkpt lat="43.2018544" lon="12.5744062"><ele>547.0</ele><time>2026-03-24T10:21:08.491Z</time></trkpt><trkpt lat="43.2018953" lon="12.5744845"><ele>547.0</ele><time>2026-03-24T10:21:10.492Z</time></trkpt><trkpt lat="43.201994" lon="12.574573"><ele>547.0</ele><time>2026-03-24T10:21:12.491Z</time></trkpt><trkpt lat="43.2020887" lon="12.574634"><ele>546.2</ele><time>2026-03-24T10:21:14.493Z</time></trkpt><trkpt lat="43.2021502" lon="12.5747295"><ele>545.4000000000001</ele><time>2026-03-24T10:21:16.492Z</time></trkpt><trkpt lat="43.2021175" lon="12.5748448"><ele>544.5999999999999</ele><time>2026-03-24T10:21:18.491Z</time></trkpt><trkpt lat="43.2020493" lon="12.57492"><ele>543.8</ele><time>2026-03-24T10:21:20.493Z</time></trkpt><trkpt lat="43.2019521" lon="12.5749283"><ele>543.0</ele><time>2026-03-24T10:21:22.493Z</time></trkpt><trkpt lat="43.2018237" lon="12.574933"><ele>543.0</ele><time>2026-03-24T10:21:24.493Z</time></trkpt><trkpt lat="43.2016999" lon="12.574917"><ele>543.0</ele><time>2026-03-24T10:21:26.492Z</time></trkpt><trkpt lat="43.2016276" lon="12.5749045"><ele>543.0</ele><time>2026-03-24T10:21:27.492Z</time></trkpt><trkpt lat="43.2015591" lon="12.5748812"><ele>543.0</ele><time>2026-03-24T10:21:29.493Z</time></trkpt><trkpt lat="43.2015084" lon="12.5749402"><ele>543.0</ele><time>2026-03-24T10:21:31.494Z</time></trkpt><trkpt lat="43.2014956" lon="12.575027"><ele>543.0</ele><time>2026-03-24T10:21:33.493Z</time></trkpt><trkpt lat="43.2015465" lon="12.5751498"><ele>543.0</ele><time>2026-03-24T10:21:35.493Z</time></trkpt><trkpt lat="43.2015775" lon="12.5752357"><ele>543.0</ele><time>2026-03-24T10:21:36.493Z</time></trkpt><trkpt lat="43.2016074" lon="12.5753174"><ele>543.0</ele><time>2026-03-24T10:21:37.493Z</time></trkpt><trkpt lat="43.2016335" lon="12.5754116"><ele>543.0</ele><time>2026-03-24T10:21:38.493Z</time></trkpt><trkpt lat="43.201701" lon="12.5755414"><ele>543.0</ele><time>2026-03-24T10:21:40.492Z</time></trkpt><trkpt lat="43.2016931" lon="12.5756997"><ele>543.0</ele><time>2026-03-24T10:21:42.492Z</time></trkpt><trkpt lat="43.2016702" lon="12.5757869"><ele>540.1999999999999</ele><time>2026-03-24T10:21:43.493Z</time></trkpt><trkpt lat="43.2016086" lon="12.575955"><ele>537.4</ele><time>2026-03-24T10:21:45.493Z</time></trkpt><trkpt lat="43.2015808" lon="12.5760531"><ele>534.5999999999999</ele><time>2026-03-24T10:21:46.492Z</time></trkpt><trkpt lat="43.2015437" lon="12.576144"><ele>531.8</ele><time>2026-03-24T10:21:47.493Z</time></trkpt><trkpt lat="43.2015058" lon="12.5762558"><ele>529.0</ele><time>2026-03-24T10:21:48.493Z</time></trkpt><trkpt lat="43.2014699" lon="12.5763685"><ele>528.0</ele><time>2026-03-24T10:21:49.492Z</time></trkpt><trkpt lat="43.2014342" lon="12.5764523"><ele>527.0</ele><time>2026-03-24T10:21:50.492Z</time></trkpt><trkpt lat="43.2014016" lon="12.5765413"><ele>526.0</ele><time>2026-03-24T10:21:51.494Z</time></trkpt><trkpt lat="43.2013802" lon="12.5766227"><ele>525.0</ele><time>2026-03-24T10:21:52.492Z</time></trkpt><trkpt lat="43.2013572" lon="12.5767062"><ele>524.0</ele><time>2026-03-24T10:21:53.491Z</time></trkpt><trkpt lat="43.2013431" lon="12.5767937"><ele>523.0</ele><time>2026-03-24T10:21:54.492Z</time></trkpt><trkpt lat="43.201326" lon="12.5768791"><ele>522.0</ele><time>2026-03-24T10:21:55.491Z</time></trkpt><trkpt lat="43.201295" lon="12.5769659"><ele>522.6</ele><time>2026-03-24T10:21:56.491Z</time></trkpt><trkpt lat="43.2012443" lon="12.5771159"><ele>523.2</ele><time>2026-03-24T10:21:58.492Z</time></trkpt><trkpt lat="43.2011814" lon="12.5772746"><ele>523.8</ele><time>2026-03-24T10:22:00.493Z</time></trkpt><trkpt lat="43.2011579" lon="12.5773597"><ele>524.4</ele><time>2026-03-24T10:22:01.492Z</time></trkpt><trkpt lat="43.2011485" lon="12.5774504"><ele>525.0</ele><time>2026-03-24T10:22:02.492Z</time></trkpt><trkpt lat="43.2011296" lon="12.5775354"><ele>525.0</ele><time>2026-03-24T10:22:03.492Z</time></trkpt><trkpt lat="43.2011063" lon="12.577621"><ele>525.0</ele><time>2026-03-24T10:22:04.491Z</time></trkpt><trkpt lat="43.2010627" lon="12.5777062"><ele>525.0</ele><time>2026-03-24T10:22:05.492Z</time></trkpt><trkpt lat="43.2010268" lon="12.5777978"><ele>525.0</ele><time>2026-03-24T10:22:06.493Z</time></trkpt><trkpt lat="43.2009718" lon="12.5779621"><ele>525.0</ele><time>2026-03-24T10:22:08.493Z</time></trkpt><trkpt lat="43.2009462" lon="12.5780411"><ele>525.0</ele><time>2026-03-24T10:22:09.491Z</time></trkpt><trkpt lat="43.2009136" lon="12.5781394"><ele>522.2</ele><time>2026-03-24T10:22:10.492Z</time></trkpt><trkpt lat="43.2008864" lon="12.578232"><ele>519.4</ele><time>2026-03-24T10:22:11.493Z</time></trkpt><trkpt lat="43.2008381" lon="12.5783756"><ele>516.6</ele><time>2026-03-24T10:22:13.494Z</time></trkpt><trkpt lat="43.2007985" lon="12.5785056"><ele>513.8</ele><time>2026-03-24T10:22:15.491Z</time></trkpt><trkpt lat="43.2007482" lon="12.5786335"><ele>511.0</ele><time>2026-03-24T10:22:17.492Z</time></trkpt><trkpt lat="43.2007076" lon="12.5787558"><ele>506.6</ele><time>2026-03-24T10:22:19.491Z</time></trkpt><trkpt lat="43.2007367" lon="12.5788876"><ele>502.20000000000005</ele><time>2026-03-24T10:22:21.492Z</time></trkpt><trkpt lat="43.2007796" lon="12.5789673"><ele>497.79999999999995</ele><time>2026-03-24T10:22:23.492Z</time></trkpt><trkpt lat="43.2008739" lon="12.5789935"><ele>493.4</ele><time>2026-03-24T10:22:25.492Z</time></trkpt><trkpt lat="43.2010158" lon="12.5790556"><ele>489.0</ele><time>2026-03-24T10:22:27.491Z</time></trkpt><trkpt lat="43.2010849" lon="12.5790834"><ele>489.0</ele><time>2026-03-24T10:22:28.492Z</time></trkpt><trkpt lat="43.201146" lon="12.5791067"><ele>489.0</ele><time>2026-03-24T10:22:29.493Z</time></trkpt><trkpt lat="43.2012574" lon="12.5791303"><ele>489.0</ele><time>2026-03-24T10:22:31.492Z</time></trkpt><trkpt lat="43.2013541" lon="12.5791644"><ele>489.0</ele><time>2026-03-24T10:22:33.492Z</time></trkpt><trkpt lat="43.2014548" lon="12.5791983"><ele>489.0</ele><time>2026-03-24T10:22:35.492Z</time></trkpt><trkpt lat="43.2015673" lon="12.5792414"><ele>487.0</ele><time>2026-03-24T10:22:37.491Z</time></trkpt><trkpt lat="43.2016301" lon="12.5792723"><ele>485.00000000000006</ele><time>2026-03-24T10:22:38.493Z</time></trkpt><trkpt lat="43.2016976" lon="12.5792979"><ele>483.0</ele><time>2026-03-24T10:22:39.492Z</time></trkpt><trkpt lat="43.201763" lon="12.5793382"><ele>481.0</ele><time>2026-03-24T10:22:40.493Z</time></trkpt><trkpt lat="43.2018342" lon="12.5793862"><ele>479.00000000000006</ele><time>2026-03-24T10:22:41.492Z</time></trkpt><trkpt lat="43.2019022" lon="12.5794247"><ele>477.0</ele><time>2026-03-24T10:22:42.492Z</time></trkpt><trkpt lat="43.201964" lon="12.5794511"><ele>475.0</ele><time>2026-03-24T10:22:43.491Z</time></trkpt><trkpt lat="43.2020792" lon="12.5794974"><ele>475.0</ele><time>2026-03-24T10:22:45.493Z</time></trkpt><trkpt lat="43.2021923" lon="12.5795098"><ele>475.0</ele><time>2026-03-24T10:22:47.491Z</time></trkpt><trkpt lat="43.2022902" lon="12.5794893"><ele>475.0</ele><time>2026-03-24T10:22:49.493Z</time></trkpt><trkpt lat="43.202351" lon="12.5794593"><ele>475.0</ele><time>2026-03-24T10:22:50.491Z</time></trkpt><trkpt lat="43.2024325" lon="12.5793964"><ele>475.0</ele><time>2026-03-24T10:22:52.493Z</time></trkpt><trkpt lat="43.2025202" lon="12.579327"><ele>472.83333333333337</ele><time>2026-03-24T10:22:54.492Z</time></trkpt><trkpt lat="43.2026241" lon="12.579248"><ele>470.6666666666667</ele><time>2026-03-24T10:22:56.494Z</time></trkpt><trkpt lat="43.2026803" lon="12.5792037"><ele>468.5</ele><time>2026-03-24T10:22:57.492Z</time></trkpt><trkpt lat="43.20273" lon="12.5791293"><ele>466.33333333333337</ele><time>2026-03-24T10:22:58.492Z</time></trkpt><trkpt lat="43.2027871" lon="12.5790703"><ele>464.1666666666667</ele><time>2026-03-24T10:22:59.491Z</time></trkpt><trkpt lat="43.2028525" lon="12.5789912"><ele>462.0</ele><time>2026-03-24T10:23:00.493Z</time></trkpt><trkpt lat="43.2029169" lon="12.5789189"><ele>462.0</ele><time>2026-03-24T10:23:01.493Z</time></trkpt><trkpt lat="43.2029797" lon="12.5788504"><ele>462.0</ele><time>2026-03-24T10:23:02.493Z</time></trkpt><trkpt lat="43.203043" lon="12.5788287"><ele>462.0</ele><time>2026-03-24T10:23:03.493Z</time></trkpt><trkpt lat="43.2031199" lon="12.5787962"><ele>462.0</ele><time>2026-03-24T10:23:04.493Z</time></trkpt><trkpt lat="43.203197" lon="12.5787595"><ele>462.0</ele><time>2026-03-24T10:23:05.493Z</time></trkpt><trkpt lat="43.203272" lon="12.5787188"><ele>462.0</ele><time>2026-03-24T10:23:06.492Z</time></trkpt><trkpt lat="43.2033493" lon="12.5786937"><ele>461.3333333333333</ele><time>2026-03-24T10:23:07.491Z</time></trkpt><trkpt lat="43.2034153" lon="12.5786759"><ele>460.66666666666663</ele><time>2026-03-24T10:23:08.492Z</time></trkpt><trkpt lat="43.2034861" lon="12.5786614"><ele>460.0</ele><time>2026-03-24T10:23:09.492Z</time></trkpt><trkpt lat="43.2035604" lon="12.5786482"><ele>459.3333333333333</ele><time>2026-03-24T10:23:10.492Z</time></trkpt><trkpt lat="43.2036343" lon="12.5786487"><ele>458.66666666666663</ele><time>2026-03-24T10:23:11.492Z</time></trkpt><trkpt lat="43.2037599" lon="12.5786418"><ele>458.0</ele><time>2026-03-24T10:23:13.493Z</time></trkpt><trkpt lat="43.2038823" lon="12.57866"><ele>456.59999999999997</ele><time>2026-03-24T10:23:15.492Z</time></trkpt><trkpt lat="43.2040059" lon="12.5786741"><ele>455.19999999999993</ele><time>2026-03-24T10:23:17.491Z</time></trkpt><trkpt lat="43.2041398" lon="12.5786195"><ele>453.8</ele><time>2026-03-24T10:23:19.492Z</time></trkpt><trkpt lat="43.204212" lon="12.5785847"><ele>452.4</ele><time>2026-03-24T10:23:20.491Z</time></trkpt><trkpt lat="43.2042727" lon="12.5785364"><ele>451.0</ele><time>2026-03-24T10:23:21.493Z</time></trkpt><trkpt lat="43.2043349" lon="12.5784821"><ele>451.00000000000006</ele><time>2026-03-24T10:23:22.493Z</time></trkpt><trkpt lat="43.2043906" lon="12.5784121"><ele>451.0</ele><time>2026-03-24T10:23:23.492Z</time></trkpt><trkpt lat="43.2044444" lon="12.5783518"><ele>451.0</ele><time>2026-03-24T10:23:24.492Z</time></trkpt><trkpt lat="43.2044989" lon="12.5782776"><ele>451.0</ele><time>2026-03-24T10:23:25.492Z</time></trkpt><trkpt lat="43.2045606" lon="12.5782181"><ele>451.00000000000006</ele><time>2026-03-24T10:23:26.492Z</time></trkpt><trkpt lat="43.2046831" lon="12.578179"><ele>451.0</ele><time>2026-03-24T10:23:28.492Z</time></trkpt><trkpt lat="43.2047451" lon="12.5782034"><ele>450.0</ele><time>2026-03-24T10:23:29.492Z</time></trkpt><trkpt lat="43.2048616" lon="12.578264"><ele>449.0</ele><time>2026-03-24T10:23:31.492Z</time></trkpt><trkpt lat="43.2049658" lon="12.5783339"><ele>448.0</ele><time>2026-03-24T10:23:33.492Z</time></trkpt><trkpt lat="43.2050928" lon="12.5783498"><ele>447.0</ele><time>2026-03-24T10:23:35.492Z</time></trkpt><trkpt lat="43.2051593" lon="12.578342"><ele>446.0</ele><time>2026-03-24T10:23:36.492Z</time></trkpt><trkpt lat="43.2052198" lon="12.5783169"><ele>446.0</ele><time>2026-03-24T10:23:37.493Z</time></trkpt><trkpt lat="43.2053268" lon="12.5782518"><ele>446.0</ele><time>2026-03-24T10:23:39.493Z</time></trkpt><trkpt lat="43.2054485" lon="12.5781714"><ele>446.0</ele><time>2026-03-24T10:23:41.492Z</time></trkpt><trkpt lat="43.2055004" lon="12.5781093"><ele>446.0</ele><time>2026-03-24T10:23:42.493Z</time></trkpt><trkpt lat="43.2055609" lon="12.578054"><ele>446.0</ele><time>2026-03-24T10:23:43.493Z</time></trkpt><trkpt lat="43.2056255" lon="12.5779983"><ele>445.4</ele><time>2026-03-24T10:23:44.493Z</time></trkpt><trkpt lat="43.2056754" lon="12.5779439"><ele>444.8</ele><time>2026-03-24T10:23:45.492Z</time></trkpt><trkpt lat="43.2057446" lon="12.577812"><ele>444.19999999999993</ele><time>2026-03-24T10:23:47.492Z</time></trkpt><trkpt lat="43.2057545" lon="12.5776618"><ele>443.59999999999997</ele><time>2026-03-24T10:23:49.492Z</time></trkpt><trkpt lat="43.2057224" lon="12.577514"><ele>443.0</ele><time>2026-03-24T10:23:51.492Z</time></trkpt><trkpt lat="43.2056861" lon="12.5773889"><ele>442.99999999999994</ele><time>2026-03-24T10:23:53.492Z</time></trkpt><trkpt lat="43.2057661" lon="12.5773307"><ele>443.0</ele><time>2026-03-24T10:23:55.491Z</time></trkpt><trkpt lat="43.2058391" lon="12.5773101"><ele>443.0</ele><time>2026-03-24T10:23:57.493Z</time></trkpt><trkpt lat="43.2059422" lon="12.5772866"><ele>443.0</ele><time>2026-03-24T10:23:59.491Z</time></trkpt><trkpt lat="43.2060463" lon="12.5772235"><ele>442.99999999999994</ele><time>2026-03-24T10:24:01.492Z</time></trkpt><trkpt lat="43.2060908" lon="12.57716"><ele>443.0</ele><time>2026-03-24T10:24:02.492Z</time></trkpt><trkpt lat="43.2061387" lon="12.5770854"><ele>441.75</ele><time>2026-03-24T10:24:03.493Z</time></trkpt><trkpt lat="43.2062222" lon="12.5769648"><ele>440.5</ele><time>2026-03-24T10:24:05.492Z</time></trkpt><trkpt lat="43.2063086" lon="12.5768747"><ele>439.25</ele><time>2026-03-24T10:24:07.492Z</time></trkpt><trkpt lat="43.206416" lon="12.5767903"><ele>438.0</ele><time>2026-03-24T10:24:09.492Z</time></trkpt><trkpt lat="43.2065187" lon="12.5767399"><ele>438.0</ele><time>2026-03-24T10:24:11.492Z</time></trkpt><trkpt lat="43.2065818" lon="12.5767114"><ele>437.99999999999994</ele><time>2026-03-24T10:24:12.493Z</time></trkpt><trkpt lat="43.2066879" lon="12.5766567"><ele>437.99999999999994</ele><time>2026-03-24T10:24:14.491Z</time></trkpt><trkpt lat="43.2067732" lon="12.5766412"><ele>438.0</ele><time>2026-03-24T10:24:16.492Z</time></trkpt><trkpt lat="43.206905" lon="12.5766065"><ele>438.0</ele><time>2026-03-24T10:24:18.492Z</time></trkpt><trkpt lat="43.2069686" lon="12.5765747"><ele>438.0</ele><time>2026-03-24T10:24:19.493Z</time></trkpt><trkpt lat="43.2070358" lon="12.5765494"><ele>438.0</ele><time>2026-03-24T10:24:20.493Z</time></trkpt><trkpt lat="43.2071053" lon="12.576519"><ele>438.0</ele><time>2026-03-24T10:24:21.493Z</time></trkpt><trkpt lat="43.2071663" lon="12.5764583"><ele>438.0</ele><time>2026-03-24T10:24:22.492Z</time></trkpt><trkpt lat="43.2072206" lon="12.5763872"><ele>438.0</ele><time>2026-03-24T10:24:23.492Z</time></trkpt><trkpt lat="43.2072718" lon="12.5762979"><ele>438.0</ele><time>2026-03-24T10:24:24.492Z</time></trkpt><trkpt lat="43.2073034" lon="12.5761922"><ele>438.6666666666667</ele><time>2026-03-24T10:24:25.492Z</time></trkpt><trkpt lat="43.2073291" lon="12.5760796"><ele>439.33333333333337</ele><time>2026-03-24T10:24:26.491Z</time></trkpt><trkpt lat="43.2073504" lon="12.5759728"><ele>440.0</ele><time>2026-03-24T10:24:27.492Z</time></trkpt><trkpt lat="43.207369" lon="12.5758822"><ele>440.6666666666667</ele><time>2026-03-24T10:24:28.494Z</time></trkpt><trkpt lat="43.2074454" lon="12.575814"><ele>441.33333333333337</ele><time>2026-03-24T10:24:30.492Z</time></trkpt><trkpt lat="43.207518" lon="12.575859"><ele>442.0</ele><time>2026-03-24T10:24:32.493Z</time></trkpt><trkpt lat="43.2075546" lon="12.5759594"><ele>442.0</ele><time>2026-03-24T10:24:34.492Z</time></trkpt><trkpt lat="43.207556" lon="12.5761561"><ele>442.0</ele><time>2026-03-24T10:24:36.491Z</time></trkpt><trkpt lat="43.2075557" lon="12.5762939"><ele>442.0</ele><time>2026-03-24T10:24:37.492Z</time></trkpt><trkpt lat="43.2075612" lon="12.5764582"><ele>442.0</ele><time>2026-03-24T10:24:38.493Z</time></trkpt><trkpt lat="43.2075977" lon="12.5765977"><ele>440.6</ele><time>2026-03-24T10:24:39.493Z</time></trkpt><trkpt lat="43.2076427" lon="12.5767572"><ele>439.20000000000005</ele><time>2026-03-24T10:24:40.492Z</time></trkpt><trkpt lat="43.2076891" lon="12.5769012"><ele>437.8</ele><time>2026-03-24T10:24:41.493Z</time></trkpt><trkpt lat="43.2077179" lon="12.577043"><ele>436.4</ele><time>2026-03-24T10:24:42.491Z</time></trkpt><trkpt lat="43.2077291" lon="12.5771621"><ele>435.0</ele><time>2026-03-24T10:24:43.492Z</time></trkpt><trkpt lat="43.2077441" lon="12.5772679"><ele>432.6</ele><time>2026-03-24T10:24:44.492Z</time></trkpt><trkpt lat="43.2078145" lon="12.5774101"><ele>430.2</ele><time>2026-03-24T10:24:46.493Z</time></trkpt><trkpt lat="43.2078844" lon="12.5774632"><ele>427.79999999999995</ele><time>2026-03-24T10:24:47.491Z</time></trkpt><trkpt lat="43.207963" lon="12.5775093"><ele>425.4</ele><time>2026-03-24T10:24:48.491Z</time></trkpt><trkpt lat="43.2080619" lon="12.5775621"><ele>423.0</ele><time>2026-03-24T10:24:49.492Z</time></trkpt><trkpt lat="43.2081713" lon="12.5775997"><ele>428.0</ele><time>2026-03-24T10:24:50.493Z</time></trkpt><trkpt lat="43.2082828" lon="12.5776476"><ele>433.0</ele><time>2026-03-24T10:24:51.494Z</time></trkpt><trkpt lat="43.2083772" lon="12.5776965"><ele>437.99999999999994</ele><time>2026-03-24T10:24:52.492Z</time></trkpt><trkpt lat="43.2084721" lon="12.5777697"><ele>443.0</ele><time>2026-03-24T10:24:54.492Z</time></trkpt><trkpt lat="43.2084913" lon="12.577892"><ele>448.0</ele><time>2026-03-24T10:24:56.492Z</time></trkpt><trkpt lat="43.2084399" lon="12.5780656"><ele>448.0</ele><time>2026-03-24T10:24:58.492Z</time></trkpt><trkpt lat="43.2083956" lon="12.5781727"><ele>448.0</ele><time>2026-03-24T10:24:59.492Z</time></trkpt><trkpt lat="43.2083258" lon="12.5782924"><ele>448.0</ele><time>2026-03-24T10:25:00.492Z</time></trkpt><trkpt lat="43.2082474" lon="12.5784142"><ele>448.0</ele><time>2026-03-24T10:25:01.491Z</time></trkpt><trkpt lat="43.2081521" lon="12.5785406"><ele>444.50000000000006</ele><time>2026-03-24T10:25:02.493Z</time></trkpt><trkpt lat="43.2080701" lon="12.578645"><ele>441.0</ele><time>2026-03-24T10:25:03.492Z</time></trkpt><trkpt lat="43.2080145" lon="12.5787415"><ele>437.5</ele><time>2026-03-24T10:25:04.492Z</time></trkpt><trkpt lat="43.2079776" lon="12.5788249"><ele>434.0</ele><time>2026-03-24T10:25:05.492Z</time></trkpt><trkpt lat="43.2079628" lon="12.5789199"><ele>430.50000000000006</ele><time>2026-03-24T10:25:06.491Z</time></trkpt><trkpt lat="43.2079648" lon="12.5790303"><ele>427.0</ele><time>2026-03-24T10:25:07.492Z</time></trkpt><trkpt lat="43.2079915" lon="12.5791601"><ele>427.0</ele><time>2026-03-24T10:25:08.491Z</time></trkpt><trkpt lat="43.2080432" lon="12.5793001"><ele>427.00000000000006</ele><time>2026-03-24T10:25:09.491Z</time></trkpt><trkpt lat="43.2081077" lon="12.5794411"><ele>427.00000000000006</ele><time>2026-03-24T10:25:10.493Z</time></trkpt><trkpt lat="43.2081489" lon="12.5795708"><ele>427.0</ele><time>2026-03-24T10:25:11.493Z</time></trkpt><trkpt lat="43.20817" lon="12.5796817"><ele>427.0</ele><time>2026-03-24T10:25:12.492Z</time></trkpt><trkpt lat="43.2081659" lon="12.5797768"><ele>430.6</ele><time>2026-03-24T10:25:13.491Z</time></trkpt><trkpt lat="43.2081349" lon="12.5798521"><ele>434.20000000000005</ele><time>2026-03-24T10:25:14.492Z</time></trkpt><trkpt lat="43.2080625" lon="12.5799099"><ele>437.8</ele><time>2026-03-24T10:25:15.493Z</time></trkpt><trkpt lat="43.2079743" lon="12.5799863"><ele>441.4</ele><time>2026-03-24T10:25:16.493Z</time></trkpt><trkpt lat="43.2078849" lon="12.5800877"><ele>445.0</ele><time>2026-03-24T10:25:17.493Z</time></trkpt><trkpt lat="43.2077819" lon="12.5801842"><ele>445.00000000000006</ele><time>2026-03-24T10:25:18.491Z</time></trkpt><trkpt lat="43.2076962" lon="12.5802769"><ele>445.0</ele><time>2026-03-24T10:25:19.492Z</time></trkpt><trkpt lat="43.2076341" lon="12.5803621"><ele>445.0</ele><time>2026-03-24T10:25:20.493Z</time></trkpt><trkpt lat="43.2075892" lon="12.5804554"><ele>445.0</ele><time>2026-03-24T10:25:21.492Z</time></trkpt><trkpt lat="43.2075732" lon="12.5805494"><ele>445.00000000000006</ele><time>2026-03-24T10:25:22.491Z</time></trkpt><trkpt lat="43.2075803" lon="12.5806546"><ele>445.0</ele><time>2026-03-24T10:25:23.492Z</time></trkpt><trkpt lat="43.2076051" lon="12.5807757"><ele>448.8</ele><time>2026-03-24T10:25:24.494Z</time></trkpt><trkpt lat="43.2076227" lon="12.5809149"><ele>452.6</ele><time>2026-03-24T10:25:25.492Z</time></trkpt><trkpt lat="43.2076227" lon="12.5810456"><ele>456.4</ele><time>2026-03-24T10:25:26.492Z</time></trkpt><trkpt lat="43.2075968" lon="12.5811575"><ele>460.2</ele><time>2026-03-24T10:25:27.492Z</time></trkpt><trkpt lat="43.2075491" lon="12.5812686"><ele>464.0</ele><time>2026-03-24T10:25:28.492Z</time></trkpt><trkpt lat="43.2074636" lon="12.5813628"><ele>465.3333333333333</ele><time>2026-03-24T10:25:29.492Z</time></trkpt><trkpt lat="43.2073813" lon="12.5814488"><ele>466.66666666666663</ele><time>2026-03-24T10:25:30.492Z</time></trkpt><trkpt lat="43.2073264" lon="12.5815368"><ele>468.0</ele><time>2026-03-24T10:25:31.491Z</time></trkpt><trkpt lat="43.2072879" lon="12.5816181"><ele>469.33333333333337</ele><time>2026-03-24T10:25:32.492Z</time></trkpt><trkpt lat="43.2072805" lon="12.5817106"><ele>470.6666666666667</ele><time>2026-03-24T10:25:33.493Z</time></trkpt><trkpt lat="43.2072966" lon="12.5818062"><ele>472.0</ele><time>2026-03-24T10:25:34.494Z</time></trkpt><trkpt lat="43.2073188" lon="12.5819094"><ele>474.50000000000006</ele><time>2026-03-24T10:25:35.493Z</time></trkpt><trkpt lat="43.2073349" lon="12.5820198"><ele>477.0</ele><time>2026-03-24T10:25:36.492Z</time></trkpt><trkpt lat="43.2073072" lon="12.5821014"><ele>479.5</ele><time>2026-03-24T10:25:37.492Z</time></trkpt><trkpt lat="43.2072741" lon="12.582183"><ele>482.0</ele><time>2026-03-24T10:25:38.493Z</time></trkpt><trkpt lat="43.2072265" lon="12.5822696"><ele>484.50000000000006</ele><time>2026-03-24T10:25:39.493Z</time></trkpt><trkpt lat="43.2071954" lon="12.5823685"><ele>487.0</ele><time>2026-03-24T10:25:40.491Z</time></trkpt><trkpt lat="43.2071756" lon="12.5824911"><ele>480.33333333333337</ele><time>2026-03-24T10:25:41.492Z</time></trkpt><trkpt lat="43.2071673" lon="12.5826011"><ele>473.6666666666667</ele><time>2026-03-24T10:25:42.491Z</time></trkpt><trkpt lat="43.2071802" lon="12.5827136"><ele>467.0</ele><time>2026-03-24T10:25:43.492Z</time></trkpt><trkpt lat="43.2071901" lon="12.582822"><ele>460.33333333333337</ele><time>2026-03-24T10:25:44.491Z</time></trkpt><trkpt lat="43.2072128" lon="12.582942"><ele>453.6666666666667</ele><time>2026-03-24T10:25:45.492Z</time></trkpt><trkpt lat="43.2072397" lon="12.5830703"><ele>447.0</ele><time>2026-03-24T10:25:46.492Z</time></trkpt><trkpt lat="43.2072551" lon="12.5831813"><ele>447.0</ele><time>2026-03-24T10:25:47.492Z</time></trkpt><trkpt lat="43.2072472" lon="12.583354"><ele>447.00000000000006</ele><time>2026-03-24T10:25:49.493Z</time></trkpt><trkpt lat="43.2072429" lon="12.5834419"><ele>447.00000000000006</ele><time>2026-03-24T10:25:50.492Z</time></trkpt><trkpt lat="43.2072618" lon="12.5835806"><ele>447.0</ele><time>2026-03-24T10:25:52.492Z</time></trkpt><trkpt lat="43.2073432" lon="12.5836535"><ele>447.0</ele><time>2026-03-24T10:25:54.493Z</time></trkpt><trkpt lat="43.2074072" lon="12.5836759"><ele>451.20000000000005</ele><time>2026-03-24T10:25:55.492Z</time></trkpt><trkpt lat="43.2074822" lon="12.583701"><ele>455.40000000000003</ele><time>2026-03-24T10:25:56.492Z</time></trkpt><trkpt lat="43.2075525" lon="12.5837409"><ele>459.59999999999997</ele><time>2026-03-24T10:25:57.492Z</time></trkpt><trkpt lat="43.2076538" lon="12.5837776"><ele>463.79999999999995</ele><time>2026-03-24T10:25:58.492Z</time></trkpt><trkpt lat="43.2077343" lon="12.5838434"><ele>468.0</ele><time>2026-03-24T10:25:59.492Z</time></trkpt><trkpt lat="43.2078158" lon="12.5839319"><ele>468.0</ele><time>2026-03-24T10:26:00.492Z</time></trkpt><trkpt lat="43.2079018" lon="12.5840132"><ele>468.0</ele><time>2026-03-24T10:26:01.491Z</time></trkpt><trkpt lat="43.2079709" lon="12.5840799"><ele>468.0</ele><time>2026-03-24T10:26:02.492Z</time></trkpt><trkpt lat="43.2080385" lon="12.5841184"><ele>468.0</ele><time>2026-03-24T10:26:03.491Z</time></trkpt><trkpt lat="43.2081103" lon="12.584111"><ele>468.0</ele><time>2026-03-24T10:26:04.491Z</time></trkpt><trkpt lat="43.2081932" lon="12.5840697"><ele>468.0</ele><time>2026-03-24T10:26:05.492Z</time></trkpt><trkpt lat="43.2082775" lon="12.5840136"><ele>472.0</ele><time>2026-03-24T10:26:06.493Z</time></trkpt><trkpt lat="43.2083628" lon="12.5839623"><ele>475.99999999999994</ele><time>2026-03-24T10:26:07.493Z</time></trkpt><trkpt lat="43.2084386" lon="12.5839353"><ele>479.99999999999994</ele><time>2026-03-24T10:26:08.492Z</time></trkpt><trkpt lat="43.2085172" lon="12.583985"><ele>484.0</ele><time>2026-03-24T10:26:09.492Z</time></trkpt><trkpt lat="43.2086011" lon="12.5840606"><ele>488.0</ele><time>2026-03-24T10:26:10.493Z</time></trkpt><trkpt lat="43.208668" lon="12.5841468"><ele>487.99999999999994</ele><time>2026-03-24T10:26:11.492Z</time></trkpt><trkpt lat="43.2087344" lon="12.5842145"><ele>488.0</ele><time>2026-03-24T10:26:12.492Z</time></trkpt><trkpt lat="43.2088091" lon="12.5842414"><ele>488.0</ele><time>2026-03-24T10:26:13.492Z</time></trkpt><trkpt lat="43.2088889" lon="12.5842313"><ele>488.0</ele><time>2026-03-24T10:26:14.493Z</time></trkpt><trkpt lat="43.2089831" lon="12.5842107"><ele>487.99999999999994</ele><time>2026-03-24T10:26:15.493Z</time></trkpt><trkpt lat="43.2090684" lon="12.5841738"><ele>488.0</ele><time>2026-03-24T10:26:16.491Z</time></trkpt><trkpt lat="43.2091401" lon="12.5841518"><ele>489.42857142857133</ele><time>2026-03-24T10:26:17.492Z</time></trkpt><trkpt lat="43.2092111" lon="12.5841345"><ele>490.85714285714283</ele><time>2026-03-24T10:26:18.492Z</time></trkpt><trkpt lat="43.2092886" lon="12.5841303"><ele>492.2857142857142</ele><time>2026-03-24T10:26:19.493Z</time></trkpt><trkpt lat="43.20936" lon="12.5841496"><ele>493.71428571428567</ele><time>2026-03-24T10:26:20.493Z</time></trkpt><trkpt lat="43.2094293" lon="12.5841662"><ele>495.1428571428571</ele><time>2026-03-24T10:26:21.491Z</time></trkpt><trkpt lat="43.209503" lon="12.5842048"><ele>496.57142857142856</ele><time>2026-03-24T10:26:22.492Z</time></trkpt><trkpt lat="43.2095589" lon="12.5842605"><ele>498.0</ele><time>2026-03-24T10:26:23.492Z</time></trkpt><trkpt lat="43.209615" lon="12.5843225"><ele>498.0</ele><time>2026-03-24T10:26:24.492Z</time></trkpt><trkpt lat="43.2096671" lon="12.584404"><ele>498.0</ele><time>2026-03-24T10:26:25.493Z</time></trkpt><trkpt lat="43.2097213" lon="12.5844931"><ele>498.0</ele><time>2026-03-24T10:26:26.492Z</time></trkpt><trkpt lat="43.2097679" lon="12.584594"><ele>498.0</ele><time>2026-03-24T10:26:27.492Z</time></trkpt><trkpt lat="43.2098157" lon="12.5847024"><ele>498.0</ele><time>2026-03-24T10:26:28.491Z</time></trkpt><trkpt lat="43.2098557" lon="12.5848178"><ele>498.0</ele><time>2026-03-24T10:26:29.491Z</time></trkpt><trkpt lat="43.2098919" lon="12.5849398"><ele>500.5</ele><time>2026-03-24T10:26:30.492Z</time></trkpt><trkpt lat="43.2099312" lon="12.5850413"><ele>503.0</ele><time>2026-03-24T10:26:31.491Z</time></trkpt><trkpt lat="43.2099551" lon="12.585153"><ele>505.5</ele><time>2026-03-24T10:26:32.491Z</time></trkpt><trkpt lat="43.2099742" lon="12.5852519"><ele>508.0</ele><time>2026-03-24T10:26:33.491Z</time></trkpt><trkpt lat="43.209978" lon="12.5853609"><ele>510.5</ele><time>2026-03-24T10:26:34.493Z</time></trkpt><trkpt lat="43.2099731" lon="12.5854521"><ele>513.0</ele><time>2026-03-24T10:26:35.492Z</time></trkpt><trkpt lat="43.2099486" lon="12.5855455"><ele>513.3333333333334</ele><time>2026-03-24T10:26:36.492Z</time></trkpt><trkpt lat="43.2099042" lon="12.5856491"><ele>513.6666666666666</ele><time>2026-03-24T10:26:37.493Z</time></trkpt><trkpt lat="43.2098537" lon="12.5857364"><ele>514.0</ele><time>2026-03-24T10:26:38.492Z</time></trkpt><trkpt lat="43.2097941" lon="12.5858156"><ele>514.3333333333333</ele><time>2026-03-24T10:26:39.494Z</time></trkpt><trkpt lat="43.2097191" lon="12.5858945"><ele>514.6666666666666</ele><time>2026-03-24T10:26:40.494Z</time></trkpt><trkpt lat="43.2096379" lon="12.5859735"><ele>515.0</ele><time>2026-03-24T10:26:41.492Z</time></trkpt><trkpt lat="43.2095678" lon="12.5860443"><ele>510.16666666666663</ele><time>2026-03-24T10:26:42.492Z</time></trkpt><trkpt lat="43.2095014" lon="12.5861108"><ele>505.3333333333333</ele><time>2026-03-24T10:26:43.492Z</time></trkpt><trkpt lat="43.2094487" lon="12.586234"><ele>500.5</ele><time>2026-03-24T10:26:45.492Z</time></trkpt><trkpt lat="43.2094647" lon="12.5863261"><ele>495.66666666666663</ele><time>2026-03-24T10:26:47.493Z</time></trkpt><trkpt lat="43.2095266" lon="12.5863765"><ele>490.8333333333333</ele><time>2026-03-24T10:26:49.491Z</time></trkpt><trkpt lat="43.2095942" lon="12.5864061"><ele>486.0</ele><time>2026-03-24T10:26:50.493Z</time></trkpt><trkpt lat="43.2096738" lon="12.5864483"><ele>485.8</ele><time>2026-03-24T10:26:51.493Z</time></trkpt><trkpt lat="43.2097464" lon="12.5864964"><ele>485.6</ele><time>2026-03-24T10:26:52.492Z</time></trkpt><trkpt lat="43.2098359" lon="12.5865737"><ele>485.4</ele><time>2026-03-24T10:26:53.493Z</time></trkpt><trkpt lat="43.2099284" lon="12.5866558"><ele>485.2</ele><time>2026-03-24T10:26:54.493Z</time></trkpt><trkpt lat="43.2100119" lon="12.5867513"><ele>485.0</ele><time>2026-03-24T10:26:55.494Z</time></trkpt><trkpt lat="43.2100905" lon="12.5868266"><ele>485.6</ele><time>2026-03-24T10:26:56.493Z</time></trkpt><trkpt lat="43.2101689" lon="12.5869071"><ele>486.2</ele><time>2026-03-24T10:26:57.492Z</time></trkpt><trkpt lat="43.2102644" lon="12.5870523"><ele>486.79999999999995</ele><time>2026-03-24T10:26:58.494Z</time></trkpt><trkpt lat="43.2103443" lon="12.5871587"><ele>487.4</ele><time>2026-03-24T10:26:59.493Z</time></trkpt><trkpt lat="43.2103835" lon="12.5872612"><ele>488.0</ele><time>2026-03-24T10:27:00.493Z</time></trkpt><trkpt lat="43.2104526" lon="12.5873279"><ele>488.0</ele><time>2026-03-24T10:27:01.493Z</time></trkpt><trkpt lat="43.2105144" lon="12.5873913"><ele>487.99999999999994</ele><time>2026-03-24T10:27:02.492Z</time></trkpt><trkpt lat="43.2106374" lon="12.5874413"><ele>487.99999999999994</ele><time>2026-03-24T10:27:04.492Z</time></trkpt><trkpt lat="43.2107091" lon="12.5874095"><ele>488.0</ele><time>2026-03-24T10:27:05.492Z</time></trkpt><trkpt lat="43.2107893" lon="12.5873326"><ele>488.0</ele><time>2026-03-24T10:27:06.492Z</time></trkpt><trkpt lat="43.2108802" lon="12.5872646"><ele>492.0</ele><time>2026-03-24T10:27:07.491Z</time></trkpt><trkpt lat="43.2109655" lon="12.5871972"><ele>495.99999999999994</ele><time>2026-03-24T10:27:08.493Z</time></trkpt><trkpt lat="43.2110435" lon="12.5871309"><ele>499.99999999999994</ele><time>2026-03-24T10:27:09.492Z</time></trkpt><trkpt lat="43.2111223" lon="12.5870358"><ele>504.0</ele><time>2026-03-24T10:27:10.492Z</time></trkpt><trkpt lat="43.211181" lon="12.5869454"><ele>508.0</ele><time>2026-03-24T10:27:11.493Z</time></trkpt><trkpt lat="43.2112536" lon="12.586866"><ele>511.83333333333337</ele><time>2026-03-24T10:27:12.491Z</time></trkpt><trkpt lat="43.2113335" lon="12.5867332"><ele>515.6666666666667</ele><time>2026-03-24T10:27:14.491Z</time></trkpt><trkpt lat="43.211378" lon="12.586664"><ele>519.5</ele><time>2026-03-24T10:27:15.493Z</time></trkpt><trkpt lat="43.2114088" lon="12.5865668"><ele>523.3333333333334</ele><time>2026-03-24T10:27:16.492Z</time></trkpt><trkpt lat="43.2114289" lon="12.5864617"><ele>527.1666666666666</ele><time>2026-03-24T10:27:17.491Z</time></trkpt><trkpt lat="43.2114315" lon="12.5863511"><ele>531.0</ele><time>2026-03-24T10:27:18.492Z</time></trkpt><trkpt lat="43.2114305" lon="12.5862256"><ele>532.2</ele><time>2026-03-24T10:27:19.491Z</time></trkpt><trkpt lat="43.2114231" lon="12.5861082"><ele>533.4000000000001</ele><time>2026-03-24T10:27:20.494Z</time></trkpt><trkpt lat="43.2113973" lon="12.5859878"><ele>534.6</ele><time>2026-03-24T10:27:21.492Z</time></trkpt><trkpt lat="43.2113884" lon="12.5858626"><ele>535.8000000000001</ele><time>2026-03-24T10:27:22.492Z</time></trkpt><trkpt lat="43.21142" lon="12.5857535"><ele>537.0</ele><time>2026-03-24T10:27:23.494Z</time></trkpt><trkpt lat="43.2114409" lon="12.5856122"><ele>537.0</ele><time>2026-03-24T10:27:25.492Z</time></trkpt><trkpt lat="43.2114281" lon="12.5855253"><ele>537.0</ele><time>2026-03-24T10:27:27.491Z</time></trkpt><trkpt lat="43.211386" lon="12.585411"><ele>537.0</ele><time>2026-03-24T10:27:29.491Z</time></trkpt><trkpt lat="43.2113755" lon="12.5853242"><ele>537.0</ele><time>2026-03-24T10:27:30.493Z</time></trkpt><trkpt lat="43.21136" lon="12.5852113"><ele>537.0</ele><time>2026-03-24T10:27:31.492Z</time></trkpt><trkpt lat="43.2113276" lon="12.585075"><ele>537.0</ele><time>2026-03-24T10:27:32.492Z</time></trkpt><trkpt lat="43.2113329" lon="12.5849811"><ele>537.0</ele><time>2026-03-24T10:27:33.492Z</time></trkpt><trkpt lat="43.21131" lon="12.5848818"><ele>537.0</ele><time>2026-03-24T10:27:34.493Z</time></trkpt><trkpt lat="43.2112881" lon="12.5847527"><ele>537.0</ele><time>2026-03-24T10:27:35.494Z</time></trkpt><trkpt lat="43.2112459" lon="12.5846191"><ele>537.0</ele><time>2026-03-24T10:27:36.492Z</time></trkpt><trkpt lat="43.2112016" lon="12.5844396"><ele>537.0</ele><time>2026-03-24T10:27:37.492Z</time></trkpt><trkpt lat="43.2111358" lon="12.5842431"><ele>537.0</ele><time>2026-03-24T10:27:38.492Z</time></trkpt><trkpt lat="43.211079" lon="12.5840586"><ele>537.0</ele><time>2026-03-24T10:27:39.493Z</time></trkpt><trkpt lat="43.2110212" lon="12.5838806"><ele>537.0</ele><time>2026-03-24T10:27:40.493Z</time></trkpt><trkpt lat="43.210965" lon="12.5837166"><ele>537.0</ele><time>2026-03-24T10:27:41.492Z</time></trkpt><trkpt lat="43.2108982" lon="12.5835679"><ele>537.25</ele><time>2026-03-24T10:27:42.491Z</time></trkpt><trkpt lat="43.2108555" lon="12.5834206"><ele>537.5</ele><time>2026-03-24T10:27:43.492Z</time></trkpt><trkpt lat="43.210807" lon="12.5832667"><ele>537.75</ele><time>2026-03-24T10:27:44.492Z</time></trkpt><trkpt lat="43.2107673" lon="12.5831003"><ele>538.0</ele><time>2026-03-24T10:27:45.494Z</time></trkpt><trkpt lat="43.2107381" lon="12.5829396"><ele>538.5</ele><time>2026-03-24T10:27:46.492Z</time></trkpt><trkpt lat="43.210711" lon="12.5827554"><ele>539.0</ele><time>2026-03-24T10:27:47.493Z</time></trkpt><trkpt lat="43.210716" lon="12.582578"><ele>539.5</ele><time>2026-03-24T10:27:48.493Z</time></trkpt><trkpt lat="43.2107302" lon="12.5823984"><ele>540.0</ele><time>2026-03-24T10:27:49.491Z</time></trkpt><trkpt lat="43.2107439" lon="12.5822162"><ele>540.0</ele><time>2026-03-24T10:27:50.492Z</time></trkpt><trkpt lat="43.2107609" lon="12.5820385"><ele>540.0</ele><time>2026-03-24T10:27:51.494Z</time></trkpt><trkpt lat="43.210772" lon="12.5818731"><ele>540.0</ele><time>2026-03-24T10:27:52.492Z</time></trkpt><trkpt lat="43.2108466" lon="12.5817436"><ele>540.0</ele><time>2026-03-24T10:27:53.492Z</time></trkpt><trkpt lat="43.2109158" lon="12.5816167"><ele>542.0</ele><time>2026-03-24T10:27:54.492Z</time></trkpt><trkpt lat="43.2109839" lon="12.581512"><ele>544.0</ele><time>2026-03-24T10:27:55.492Z</time></trkpt><trkpt lat="43.2110439" lon="12.5813966"><ele>546.0</ele><time>2026-03-24T10:27:56.492Z</time></trkpt><trkpt lat="43.2110327" lon="12.581242"><ele>548.0</ele><time>2026-03-24T10:27:57.493Z</time></trkpt><trkpt lat="43.2110383" lon="12.5811029"><ele>550.0</ele><time>2026-03-24T10:27:58.492Z</time></trkpt><trkpt lat="43.2110216" lon="12.5809703"><ele>551.0</ele><time>2026-03-24T10:27:59.492Z</time></trkpt><trkpt lat="43.210993" lon="12.5808381"><ele>552.0</ele><time>2026-03-24T10:28:00.491Z</time></trkpt><trkpt lat="43.2109019" lon="12.5807399"><ele>553.0</ele><time>2026-03-24T10:28:01.493Z</time></trkpt><trkpt lat="43.2108287" lon="12.5806199"><ele>554.0</ele><time>2026-03-24T10:28:02.492Z</time></trkpt><trkpt lat="43.2107538" lon="12.5804862"><ele>554.0</ele><time>2026-03-24T10:28:03.494Z</time></trkpt><trkpt lat="43.2106672" lon="12.580358"><ele>554.0</ele><time>2026-03-24T10:28:04.493Z</time></trkpt><trkpt lat="43.2106192" lon="12.5801937"><ele>554.0</ele><time>2026-03-24T10:28:05.492Z</time></trkpt><trkpt lat="43.2106072" lon="12.5800284"><ele>554.0</ele><time>2026-03-24T10:28:06.493Z</time></trkpt><trkpt lat="43.2106052" lon="12.5798517"><ele>553.0</ele><time>2026-03-24T10:28:07.492Z</time></trkpt><trkpt lat="43.210605" lon="12.5796793"><ele>552.0</ele><time>2026-03-24T10:28:08.494Z</time></trkpt><trkpt lat="43.2106976" lon="12.5795367"><ele>551.0</ele><time>2026-03-24T10:28:09.494Z</time></trkpt><trkpt lat="43.2107372" lon="12.5793705"><ele>550.0</ele><time>2026-03-24T10:28:10.492Z</time></trkpt><trkpt lat="43.2107774" lon="12.5791992"><ele>548.0</ele><time>2026-03-24T10:28:11.493Z</time></trkpt><trkpt lat="43.2108134" lon="12.5790091"><ele>546.0</ele><time>2026-03-24T10:28:12.491Z</time></trkpt><trkpt lat="43.210847" lon="12.5788141"><ele>544.0</ele><time>2026-03-24T10:28:13.493Z</time></trkpt><trkpt lat="43.210876" lon="12.5786433"><ele>542.0</ele><time>2026-03-24T10:28:14.492Z</time></trkpt><trkpt lat="43.2109123" lon="12.5784731"><ele>541.6</ele><time>2026-03-24T10:28:15.492Z</time></trkpt><trkpt lat="43.2109429" lon="12.5783261"><ele>541.2</ele><time>2026-03-24T10:28:16.492Z</time></trkpt><trkpt lat="43.2109648" lon="12.5781791"><ele>540.8</ele><time>2026-03-24T10:28:17.493Z</time></trkpt><trkpt lat="43.2109732" lon="12.5780426"><ele>540.4</ele><time>2026-03-24T10:28:18.492Z</time></trkpt><trkpt lat="43.2109782" lon="12.5779097"><ele>540.0</ele><time>2026-03-24T10:28:19.493Z</time></trkpt><trkpt lat="43.2109819" lon="12.577767"><ele>540.0</ele><time>2026-03-24T10:28:20.491Z</time></trkpt><trkpt lat="43.2109702" lon="12.5776206"><ele>540.0</ele><time>2026-03-24T10:28:21.491Z</time></trkpt><trkpt lat="43.2109641" lon="12.5774386"><ele>540.0</ele><time>2026-03-24T10:28:22.494Z</time></trkpt><trkpt lat="43.2109264" lon="12.5772565"><ele>540.0</ele><time>2026-03-24T10:28:23.493Z</time></trkpt><trkpt lat="43.2108722" lon="12.577056"><ele>541.6666666666666</ele><time>2026-03-24T10:28:24.493Z</time></trkpt><trkpt lat="43.2108183" lon="12.5768588"><ele>543.3333333333333</ele><time>2026-03-24T10:28:25.492Z</time></trkpt><trkpt lat="43.2107729" lon="12.5766544"><ele>545.0</ele><time>2026-03-24T10:28:26.492Z</time></trkpt><trkpt lat="43.2107425" lon="12.5764652"><ele>545.0</ele><time>2026-03-24T10:28:27.491Z</time></trkpt><trkpt lat="43.2107316" lon="12.5762695"><ele>545.0</ele><time>2026-03-24T10:28:28.491Z</time></trkpt><trkpt lat="43.2107489" lon="12.5760935"><ele>545.0</ele><time>2026-03-24T10:28:29.492Z</time></trkpt><trkpt lat="43.2107657" lon="12.5758872"><ele>545.0</ele><time>2026-03-24T10:28:30.493Z</time></trkpt><trkpt lat="43.2108066" lon="12.5757005"><ele>544.5</ele><time>2026-03-24T10:28:31.491Z</time></trkpt><trkpt lat="43.2108533" lon="12.5755204"><ele>544.0</ele><time>2026-03-24T10:28:32.493Z</time></trkpt><trkpt lat="43.210907" lon="12.5753691"><ele>543.5</ele><time>2026-03-24T10:28:33.493Z</time></trkpt><trkpt lat="43.2109745" lon="12.5752405"><ele>543.0</ele><time>2026-03-24T10:28:34.493Z</time></trkpt><trkpt lat="43.211051" lon="12.5751133"><ele>543.0</ele><time>2026-03-24T10:28:35.491Z</time></trkpt><trkpt lat="43.2111503" lon="12.5749827"><ele>543.0</ele><time>2026-03-24T10:28:36.493Z</time></trkpt><trkpt lat="43.2112582" lon="12.5748725"><ele>543.0</ele><time>2026-03-24T10:28:37.492Z</time></trkpt><trkpt lat="43.2113829" lon="12.5747992"><ele>543.0</ele><time>2026-03-24T10:28:38.493Z</time></trkpt><trkpt lat="43.2115112" lon="12.5747266"><ele>545.6666666666666</ele><time>2026-03-24T10:28:39.492Z</time></trkpt><trkpt lat="43.2116747" lon="12.5746812"><ele>548.3333333333333</ele><time>2026-03-24T10:28:40.495Z</time></trkpt><trkpt lat="43.2118481" lon="12.5746632"><ele>551.0</ele><time>2026-03-24T10:28:41.492Z</time></trkpt><trkpt lat="43.2120189" lon="12.5746499"><ele>551.0</ele><time>2026-03-24T10:28:42.493Z</time></trkpt><trkpt lat="43.2121904" lon="12.5746372"><ele>551.0</ele><time>2026-03-24T10:28:43.492Z</time></trkpt><trkpt lat="43.2123363" lon="12.57463"><ele>551.0</ele><time>2026-03-24T10:28:44.493Z</time></trkpt><trkpt lat="43.21246" lon="12.5746107"><ele>551.0</ele><time>2026-03-24T10:28:45.492Z</time></trkpt><trkpt lat="43.2125682" lon="12.5745895"><ele>551.6</ele><time>2026-03-24T10:28:46.492Z</time></trkpt><trkpt lat="43.2126792" lon="12.574602"><ele>552.2</ele><time>2026-03-24T10:28:47.491Z</time></trkpt><trkpt lat="43.2127738" lon="12.5746257"><ele>552.8</ele><time>2026-03-24T10:28:48.491Z</time></trkpt><trkpt lat="43.2128871" lon="12.5746407"><ele>553.4</ele><time>2026-03-24T10:28:49.492Z</time></trkpt><trkpt lat="43.2130062" lon="12.5746246"><ele>554.0</ele><time>2026-03-24T10:28:50.492Z</time></trkpt><trkpt lat="43.2131324" lon="12.5745782"><ele>553.0</ele><time>2026-03-24T10:28:51.492Z</time></trkpt><trkpt lat="43.2132582" lon="12.5745341"><ele>552.0</ele><time>2026-03-24T10:28:52.491Z</time></trkpt><trkpt lat="43.2134529" lon="12.5744832"><ele>551.0</ele><time>2026-03-24T10:28:53.494Z</time></trkpt><trkpt lat="43.2136305" lon="12.574433"><ele>558.3333333333333</ele><time>2026-03-24T10:28:54.493Z</time></trkpt><trkpt lat="43.2138141" lon="12.5743779"><ele>565.6666666666666</ele><time>2026-03-24T10:28:55.492Z</time></trkpt><trkpt lat="43.213975" lon="12.5743063"><ele>573.0</ele><time>2026-03-24T10:28:56.492Z</time></trkpt><trkpt lat="43.2141238" lon="12.5742342"><ele>573.0</ele><time>2026-03-24T10:28:57.492Z</time></trkpt><trkpt lat="43.2142529" lon="12.5741448"><ele>573.0</ele><time>2026-03-24T10:28:58.492Z</time></trkpt><trkpt lat="43.214379" lon="12.5740181"><ele>573.0</ele><time>2026-03-24T10:28:59.491Z</time></trkpt><trkpt lat="43.2144998" lon="12.5738562"><ele>573.0</ele><time>2026-03-24T10:29:00.492Z</time></trkpt><trkpt lat="43.2146216" lon="12.5736752"><ele>573.0</ele><time>2026-03-24T10:29:01.493Z</time></trkpt><trkpt lat="43.2147495" lon="12.573483"><ele>573.0</ele><time>2026-03-24T10:29:02.492Z</time></trkpt><trkpt lat="43.2148908" lon="12.5732768"><ele>573.0</ele><time>2026-03-24T10:29:03.493Z</time></trkpt><trkpt lat="43.215042" lon="12.5730853"><ele>573.0</ele><time>2026-03-24T10:29:04.492Z</time></trkpt><trkpt lat="43.2151845" lon="12.5729156"><ele>573.0</ele><time>2026-03-24T10:29:05.493Z</time></trkpt><trkpt lat="43.215322" lon="12.5727591"><ele>572.25</ele><time>2026-03-24T10:29:06.491Z</time></trkpt><trkpt lat="43.2154448" lon="12.5726092"><ele>571.5</ele><time>2026-03-24T10:29:07.492Z</time></trkpt><trkpt lat="43.2155477" lon="12.5725004"><ele>570.75</ele><time>2026-03-24T10:29:08.493Z</time></trkpt><trkpt lat="43.2156256" lon="12.572388"><ele>570.0</ele><time>2026-03-24T10:29:09.492Z</time></trkpt><trkpt lat="43.2156803" lon="12.5722449"><ele>570.0</ele><time>2026-03-24T10:29:10.493Z</time></trkpt><trkpt lat="43.2157114" lon="12.572098"><ele>570.0</ele><time>2026-03-24T10:29:11.491Z</time></trkpt><trkpt lat="43.2157172" lon="12.5719208"><ele>570.0</ele><time>2026-03-24T10:29:12.492Z</time></trkpt><trkpt lat="43.2157128" lon="12.5717183"><ele>570.0</ele><time>2026-03-24T10:29:13.492Z</time></trkpt><trkpt lat="43.2157035" lon="12.5714997"><ele>570.0</ele><time>2026-03-24T10:29:14.492Z</time></trkpt><trkpt lat="43.2157159" lon="12.5713053"><ele>570.0</ele><time>2026-03-24T10:29:15.493Z</time></trkpt><trkpt lat="43.2157291" lon="12.5711339"><ele>570.0</ele><time>2026-03-24T10:29:16.493Z</time></trkpt><trkpt lat="43.215759" lon="12.5709851"><ele>570.0</ele><time>2026-03-24T10:29:17.493Z</time></trkpt><trkpt lat="43.2158198" lon="12.570846"><ele>572.0</ele><time>2026-03-24T10:29:18.491Z</time></trkpt><trkpt lat="43.2158909" lon="12.5707319"><ele>574.0</ele><time>2026-03-24T10:29:19.492Z</time></trkpt><trkpt lat="43.2159869" lon="12.5706566"><ele>576.0</ele><time>2026-03-24T10:29:20.493Z</time></trkpt><trkpt lat="43.2161202" lon="12.5706349"><ele>578.0</ele><time>2026-03-24T10:29:21.493Z</time></trkpt><trkpt lat="43.2162384" lon="12.5705749"><ele>578.0</ele><time>2026-03-24T10:29:22.492Z</time></trkpt><trkpt lat="43.2163506" lon="12.570501"><ele>578.0</ele><time>2026-03-24T10:29:23.493Z</time></trkpt><trkpt lat="43.2164378" lon="12.5704025"><ele>578.0</ele><time>2026-03-24T10:29:24.493Z</time></trkpt><trkpt lat="43.2165175" lon="12.570277"><ele>578.0</ele><time>2026-03-24T10:29:25.491Z</time></trkpt><trkpt lat="43.2165991" lon="12.5701345"><ele>578.5</ele><time>2026-03-24T10:29:26.492Z</time></trkpt><trkpt lat="43.2166767" lon="12.5699776"><ele>579.0</ele><time>2026-03-24T10:29:27.493Z</time></trkpt><trkpt lat="43.2167549" lon="12.5698077"><ele>579.5</ele><time>2026-03-24T10:29:28.493Z</time></trkpt><trkpt lat="43.2168329" lon="12.5696386"><ele>580.0</ele><time>2026-03-24T10:29:29.492Z</time></trkpt><trkpt lat="43.2169117" lon="12.5694846"><ele>580.2</ele><time>2026-03-24T10:29:30.493Z</time></trkpt><trkpt lat="43.2170154" lon="12.569423"><ele>580.4</ele><time>2026-03-24T10:29:31.493Z</time></trkpt><trkpt lat="43.2171051" lon="12.5693454"><ele>580.6</ele><time>2026-03-24T10:29:32.493Z</time></trkpt><trkpt lat="43.2172064" lon="12.5692911"><ele>580.8</ele><time>2026-03-24T10:29:33.491Z</time></trkpt><trkpt lat="43.2172995" lon="12.5693544"><ele>581.0</ele><time>2026-03-24T10:29:34.493Z</time></trkpt><trkpt lat="43.2173901" lon="12.5693923"><ele>581.0</ele><time>2026-03-24T10:29:35.492Z</time></trkpt><trkpt lat="43.2174931" lon="12.5694193"><ele>581.0</ele><time>2026-03-24T10:29:36.493Z</time></trkpt><trkpt lat="43.2176128" lon="12.5694456"><ele>581.0</ele><time>2026-03-24T10:29:37.492Z</time></trkpt><trkpt lat="43.2177447" lon="12.5694561"><ele>581.0</ele><time>2026-03-24T10:29:38.493Z</time></trkpt><trkpt lat="43.2178703" lon="12.5694688"><ele>581.0</ele><time>2026-03-24T10:29:39.492Z</time></trkpt><trkpt lat="43.2179876" lon="12.5694623"><ele>581.0</ele><time>2026-03-24T10:29:40.491Z</time></trkpt><trkpt lat="43.2180964" lon="12.5694145"><ele>581.0</ele><time>2026-03-24T10:29:41.492Z</time></trkpt><trkpt lat="43.2181866" lon="12.5693341"><ele>581.0</ele><time>2026-03-24T10:29:42.492Z</time></trkpt><trkpt lat="43.2182865" lon="12.5692345"><ele>581.25</ele><time>2026-03-24T10:29:43.492Z</time></trkpt><trkpt lat="43.218383" lon="12.5691368"><ele>581.5</ele><time>2026-03-24T10:29:44.493Z</time></trkpt><trkpt lat="43.2184954" lon="12.5690334"><ele>581.75</ele><time>2026-03-24T10:29:45.492Z</time></trkpt><trkpt lat="43.2186175" lon="12.5689557"><ele>582.0</ele><time>2026-03-24T10:29:46.492Z</time></trkpt><trkpt lat="43.2187478" lon="12.5689059"><ele>582.0</ele><time>2026-03-24T10:29:47.492Z</time></trkpt><trkpt lat="43.2188646" lon="12.5688583"><ele>582.0</ele><time>2026-03-24T10:29:48.492Z</time></trkpt><trkpt lat="43.2189685" lon="12.5687965"><ele>582.0</ele><time>2026-03-24T10:29:49.493Z</time></trkpt><trkpt lat="43.21906" lon="12.5686934"><ele>582.0</ele><time>2026-03-24T10:29:50.493Z</time></trkpt><trkpt lat="43.2191372" lon="12.5685515"><ele>586.0</ele><time>2026-03-24T10:29:51.492Z</time></trkpt><trkpt lat="43.2192098" lon="12.5683886"><ele>590.0</ele><time>2026-03-24T10:29:52.492Z</time></trkpt><trkpt lat="43.2192975" lon="12.5681847"><ele>594.0</ele><time>2026-03-24T10:29:53.493Z</time></trkpt><trkpt lat="43.2193917" lon="12.5679562"><ele>596.6666666666666</ele><time>2026-03-24T10:29:54.492Z</time></trkpt><trkpt lat="43.2194912" lon="12.5677128"><ele>599.3333333333333</ele><time>2026-03-24T10:29:55.492Z</time></trkpt><trkpt lat="43.2195908" lon="12.5674541"><ele>602.0</ele><time>2026-03-24T10:29:56.493Z</time></trkpt><trkpt lat="43.2196785" lon="12.5672258"><ele>602.0</ele><time>2026-03-24T10:29:57.491Z</time></trkpt><trkpt lat="43.2197518" lon="12.5670329"><ele>602.0</ele><time>2026-03-24T10:29:58.493Z</time></trkpt><trkpt lat="43.2198598" lon="12.566859"><ele>602.0</ele><time>2026-03-24T10:29:59.492Z</time></trkpt><trkpt lat="43.2199773" lon="12.5667477"><ele>601.0</ele><time>2026-03-24T10:30:00.491Z</time></trkpt><trkpt lat="43.2200945" lon="12.5666927"><ele>600.0</ele><time>2026-03-24T10:30:01.493Z</time></trkpt><trkpt lat="43.2202172" lon="12.566679"><ele>599.0</ele><time>2026-03-24T10:30:02.491Z</time></trkpt><trkpt lat="43.2203413" lon="12.5666996"><ele>598.0</ele><time>2026-03-24T10:30:03.492Z</time></trkpt><trkpt lat="43.2204897" lon="12.5667728"><ele>598.0</ele><time>2026-03-24T10:30:04.493Z</time></trkpt><trkpt lat="43.2206477" lon="12.56683"><ele>598.0</ele><time>2026-03-24T10:30:05.491Z</time></trkpt><trkpt lat="43.2207993" lon="12.56685"><ele>598.0</ele><time>2026-03-24T10:30:06.492Z</time></trkpt><trkpt lat="43.2209452" lon="12.5668536"><ele>599.5</ele><time>2026-03-24T10:30:07.493Z</time></trkpt><trkpt lat="43.221073" lon="12.5668378"><ele>601.0</ele><time>2026-03-24T10:30:08.493Z</time></trkpt><trkpt lat="43.221203" lon="12.5667876"><ele>602.5</ele><time>2026-03-24T10:30:09.492Z</time></trkpt><trkpt lat="43.2213191" lon="12.5666897"><ele>604.0</ele><time>2026-03-24T10:30:10.492Z</time></trkpt><trkpt lat="43.2214165" lon="12.5666164"><ele>603.8</ele><time>2026-03-24T10:30:11.493Z</time></trkpt><trkpt lat="43.2215163" lon="12.5665351"><ele>603.5999999999999</ele><time>2026-03-24T10:30:12.492Z</time></trkpt><trkpt lat="43.2216122" lon="12.5664829"><ele>603.4</ele><time>2026-03-24T10:30:13.493Z</time></trkpt><trkpt lat="43.2217082" lon="12.5664174"><ele>603.1999999999999</ele><time>2026-03-24T10:30:14.493Z</time></trkpt><trkpt lat="43.2217959" lon="12.5663594"><ele>603.0</ele><time>2026-03-24T10:30:15.493Z</time></trkpt><trkpt lat="43.2219022" lon="12.5663195"><ele>603.0</ele><time>2026-03-24T10:30:16.493Z</time></trkpt><trkpt lat="43.2219931" lon="12.5663203"><ele>603.0</ele><time>2026-03-24T10:30:17.492Z</time></trkpt><trkpt lat="43.2220874" lon="12.5663177"><ele>603.0</ele><time>2026-03-24T10:30:18.492Z</time></trkpt><trkpt lat="43.2221601" lon="12.5663026"><ele>603.0</ele><time>2026-03-24T10:30:19.493Z</time></trkpt><trkpt lat="43.222251" lon="12.5663372"><ele>603.0</ele><time>2026-03-24T10:30:20.492Z</time></trkpt><trkpt lat="43.2223123" lon="12.566406"><ele>603.0</ele><time>2026-03-24T10:30:21.491Z</time></trkpt><trkpt lat="43.2223294" lon="12.5664952"><ele>604.4</ele><time>2026-03-24T10:30:22.493Z</time></trkpt><trkpt lat="43.2223442" lon="12.5666059"><ele>605.8</ele><time>2026-03-24T10:30:23.493Z</time></trkpt><trkpt lat="43.2223708" lon="12.5667467"><ele>607.2</ele><time>2026-03-24T10:30:24.493Z</time></trkpt><trkpt lat="43.2224393" lon="12.5668705"><ele>608.6</ele><time>2026-03-24T10:30:25.493Z</time></trkpt><trkpt lat="43.2225412" lon="12.5669961"><ele>610.0</ele><time>2026-03-24T10:30:26.493Z</time></trkpt><trkpt lat="43.2226712" lon="12.5670778"><ele>610.0</ele><time>2026-03-24T10:30:27.491Z</time></trkpt><trkpt lat="43.2228326" lon="12.5671576"><ele>610.0</ele><time>2026-03-24T10:30:28.493Z</time></trkpt><trkpt lat="43.2229855" lon="12.5672202"><ele>610.0</ele><time>2026-03-24T10:30:29.493Z</time></trkpt><trkpt lat="43.2231167" lon="12.5672475"><ele>611.5</ele><time>2026-03-24T10:30:30.494Z</time></trkpt><trkpt lat="43.2232245" lon="12.5672259"><ele>613.0</ele><time>2026-03-24T10:30:31.492Z</time></trkpt><trkpt lat="43.2233321" lon="12.5671447"><ele>614.5</ele><time>2026-03-24T10:30:32.493Z</time></trkpt><trkpt lat="43.2234372" lon="12.5670403"><ele>616.0</ele><time>2026-03-24T10:30:33.492Z</time></trkpt><trkpt lat="43.2235478" lon="12.5669302"><ele>618.6666666666667</ele><time>2026-03-24T10:30:34.492Z</time></trkpt><trkpt lat="43.2236389" lon="12.5667933"><ele>621.3333333333334</ele><time>2026-03-24T10:30:35.494Z</time></trkpt><trkpt lat="43.2237268" lon="12.5666053"><ele>624.0</ele><time>2026-03-24T10:30:36.492Z</time></trkpt><trkpt lat="43.2239121" lon="12.5664149"><ele>624.0</ele><time>2026-03-24T10:30:37.493Z</time></trkpt><trkpt lat="43.2240216" lon="12.5661771"><ele>624.0</ele><time>2026-03-24T10:30:38.492Z</time></trkpt><trkpt lat="43.2241358" lon="12.5659379"><ele>624.0</ele><time>2026-03-24T10:30:39.492Z</time></trkpt><trkpt lat="43.2242391" lon="12.5657081"><ele>624.0</ele><time>2026-03-24T10:30:40.493Z</time></trkpt><trkpt lat="43.2243422" lon="12.5654924"><ele>624.0</ele><time>2026-03-24T10:30:41.493Z</time></trkpt><trkpt lat="43.2244435" lon="12.5653099"><ele>624.0</ele><time>2026-03-24T10:30:42.493Z</time></trkpt><trkpt lat="43.2245534" lon="12.5651634"><ele>625.5</ele><time>2026-03-24T10:30:43.491Z</time></trkpt><trkpt lat="43.2246635" lon="12.5650742"><ele>627.0</ele><time>2026-03-24T10:30:44.492Z</time></trkpt><trkpt lat="43.2247936" lon="12.5650115"><ele>628.5</ele><time>2026-03-24T10:30:45.493Z</time></trkpt><trkpt lat="43.224916" lon="12.5649984"><ele>630.0</ele><time>2026-03-24T10:30:46.492Z</time></trkpt><trkpt lat="43.2250452" lon="12.5650708"><ele>632.0</ele><time>2026-03-24T10:30:47.493Z</time></trkpt><trkpt lat="43.2251495" lon="12.5652137"><ele>634.0</ele><time>2026-03-24T10:30:48.492Z</time></trkpt><trkpt lat="43.2252496" lon="12.5653122"><ele>636.0</ele><time>2026-03-24T10:30:49.492Z</time></trkpt><trkpt lat="43.2253628" lon="12.5653479"><ele>638.0</ele><time>2026-03-24T10:30:50.491Z</time></trkpt><trkpt lat="43.2254857" lon="12.5653388"><ele>638.0</ele><time>2026-03-24T10:30:51.492Z</time></trkpt><trkpt lat="43.2256243" lon="12.565268"><ele>638.0</ele><time>2026-03-24T10:30:52.493Z</time></trkpt><trkpt lat="43.2257711" lon="12.5651804"><ele>638.0</ele><time>2026-03-24T10:30:53.491Z</time></trkpt><trkpt lat="43.2259532" lon="12.5650118"><ele>639.5</ele><time>2026-03-24T10:30:54.492Z</time></trkpt><trkpt lat="43.2261339" lon="12.5648191"><ele>641.0</ele><time>2026-03-24T10:30:55.492Z</time></trkpt><trkpt lat="43.2262959" lon="12.5645927"><ele>642.6666666666666</ele><time>2026-03-24T10:30:56.493Z</time></trkpt><trkpt lat="43.2264635" lon="12.5643897"><ele>644.3333333333334</ele><time>2026-03-24T10:30:57.492Z</time></trkpt><trkpt lat="43.2265915" lon="12.5641522"><ele>646.0</ele><time>2026-03-24T10:30:58.493Z</time></trkpt><trkpt lat="43.2267084" lon="12.5639573"><ele>646.0</ele><time>2026-03-24T10:30:59.493Z</time></trkpt><trkpt lat="43.226823" lon="12.5637707"><ele>646.0</ele><time>2026-03-24T10:31:00.493Z</time></trkpt><trkpt lat="43.2269321" lon="12.5636182"><ele>646.0</ele><time>2026-03-24T10:31:01.491Z</time></trkpt><trkpt lat="43.2270247" lon="12.5634582"><ele>648.6666666666667</ele><time>2026-03-24T10:31:02.493Z</time></trkpt><trkpt lat="43.2271169" lon="12.5632879"><ele>651.3333333333334</ele><time>2026-03-24T10:31:03.493Z</time></trkpt><trkpt lat="43.2271874" lon="12.5631122"><ele>654.0</ele><time>2026-03-24T10:31:04.493Z</time></trkpt><trkpt lat="43.2272477" lon="12.5629195"><ele>655.6666666666666</ele><time>2026-03-24T10:31:05.493Z</time></trkpt><trkpt lat="43.2273021" lon="12.5627378"><ele>657.3333333333333</ele><time>2026-03-24T10:31:06.493Z</time></trkpt><trkpt lat="43.2273431" lon="12.5625496"><ele>659.0</ele><time>2026-03-24T10:31:07.493Z</time></trkpt><trkpt lat="43.2273476" lon="12.562315"><ele>654.3333333333333</ele><time>2026-03-24T10:31:08.492Z</time></trkpt><trkpt lat="43.2273568" lon="12.5620798"><ele>649.6666666666666</ele><time>2026-03-24T10:31:09.493Z</time></trkpt><trkpt lat="43.2273594" lon="12.5618306"><ele>645.0</ele><time>2026-03-24T10:31:10.492Z</time></trkpt><trkpt lat="43.2273839" lon="12.5616218"><ele>645.0</ele><time>2026-03-24T10:31:11.492Z</time></trkpt><trkpt lat="43.2273969" lon="12.5614384"><ele>645.0</ele><time>2026-03-24T10:31:12.492Z</time></trkpt><trkpt lat="43.2274144" lon="12.5613051"><ele>645.0</ele><time>2026-03-24T10:31:13.491Z</time></trkpt><trkpt lat="43.2274393" lon="12.5611612"><ele>645.0</ele><time>2026-03-24T10:31:15.493Z</time></trkpt><trkpt lat="43.2274597" lon="12.5610235"><ele>645.0</ele><time>2026-03-24T10:31:17.492Z</time></trkpt><trkpt lat="43.2274764" lon="12.5609345"><ele>646.25</ele><time>2026-03-24T10:31:18.492Z</time></trkpt><trkpt lat="43.2274929" lon="12.5608247"><ele>647.5</ele><time>2026-03-24T10:31:19.493Z</time></trkpt><trkpt lat="43.2275108" lon="12.5606666"><ele>648.75</ele><time>2026-03-24T10:31:20.493Z</time></trkpt><trkpt lat="43.2275342" lon="12.5604883"><ele>650.0</ele><time>2026-03-24T10:31:21.491Z</time></trkpt><trkpt lat="43.2275715" lon="12.5602761"><ele>650.0</ele><time>2026-03-24T10:31:22.492Z</time></trkpt><trkpt lat="43.2276293" lon="12.5600816"><ele>650.0</ele><time>2026-03-24T10:31:23.493Z</time></trkpt><trkpt lat="43.2277193" lon="12.5598881"><ele>650.0</ele><time>2026-03-24T10:31:24.492Z</time></trkpt><trkpt lat="43.2278243" lon="12.5597237"><ele>650.0</ele><time>2026-03-24T10:31:25.493Z</time></trkpt><trkpt lat="43.2279298" lon="12.5595642"><ele>650.0</ele><time>2026-03-24T10:31:26.492Z</time></trkpt><trkpt lat="43.2280354" lon="12.5594501"><ele>650.0</ele><time>2026-03-24T10:31:27.493Z</time></trkpt><trkpt lat="43.2281342" lon="12.5593158"><ele>650.0</ele><time>2026-03-24T10:31:28.492Z</time></trkpt><trkpt lat="43.2282588" lon="12.5592633"><ele>651.25</ele><time>2026-03-24T10:31:29.492Z</time></trkpt><trkpt lat="43.228389" lon="12.5592303"><ele>652.5</ele><time>2026-03-24T10:31:30.493Z</time></trkpt><trkpt lat="43.2285364" lon="12.5592194"><ele>653.75</ele><time>2026-03-24T10:31:31.492Z</time></trkpt><trkpt lat="43.228697" lon="12.5592308"><ele>655.0</ele><time>2026-03-24T10:31:32.493Z</time></trkpt><trkpt lat="43.2288711" lon="12.5592229"><ele>655.3333333333334</ele><time>2026-03-24T10:31:33.493Z</time></trkpt><trkpt lat="43.2290483" lon="12.5591898"><ele>655.6666666666666</ele><time>2026-03-24T10:31:34.492Z</time></trkpt><trkpt lat="43.2292297" lon="12.5591472"><ele>656.0</ele><time>2026-03-24T10:31:35.492Z</time></trkpt><trkpt lat="43.2293761" lon="12.5590931"><ele>656.0</ele><time>2026-03-24T10:31:36.492Z</time></trkpt><trkpt lat="43.2295106" lon="12.5590339"><ele>656.0</ele><time>2026-03-24T10:31:37.492Z</time></trkpt><trkpt lat="43.229625" lon="12.5589662"><ele>656.0</ele><time>2026-03-24T10:31:38.492Z</time></trkpt><trkpt lat="43.2297299" lon="12.5589154"><ele>656.0</ele><time>2026-03-24T10:31:39.492Z</time></trkpt><trkpt lat="43.2298171" lon="12.5588805"><ele>656.4</ele><time>2026-03-24T10:31:40.493Z</time></trkpt><trkpt lat="43.2298927" lon="12.5588546"><ele>656.8</ele><time>2026-03-24T10:31:41.492Z</time></trkpt><trkpt lat="43.229991" lon="12.5588323"><ele>657.1999999999999</ele><time>2026-03-24T10:31:43.493Z</time></trkpt><trkpt lat="43.2300831" lon="12.5588126"><ele>657.5999999999999</ele><time>2026-03-24T10:31:45.493Z</time></trkpt><trkpt lat="43.2302151" lon="12.558843"><ele>658.0</ele><time>2026-03-24T10:31:47.493Z</time></trkpt><trkpt lat="43.230315" lon="12.5588781"><ele>658.0</ele><time>2026-03-24T10:31:48.492Z</time></trkpt><trkpt lat="43.2304234" lon="12.5589184"><ele>658.0</ele><time>2026-03-24T10:31:49.493Z</time></trkpt><trkpt lat="43.2305688" lon="12.5589835"><ele>658.0</ele><time>2026-03-24T10:31:50.493Z</time></trkpt><trkpt lat="43.2307319" lon="12.559055"><ele>658.0</ele><time>2026-03-24T10:31:51.492Z</time></trkpt><trkpt lat="43.2309105" lon="12.5591327"><ele>656.6666666666667</ele><time>2026-03-24T10:31:52.493Z</time></trkpt><trkpt lat="43.2310955" lon="12.559205"><ele>655.3333333333334</ele><time>2026-03-24T10:31:53.493Z</time></trkpt><trkpt lat="43.2312826" lon="12.5592878"><ele>654.0</ele><time>2026-03-24T10:31:54.492Z</time></trkpt><trkpt lat="43.2314517" lon="12.5593674"><ele>655.0</ele><time>2026-03-24T10:31:55.492Z</time></trkpt><trkpt lat="43.2316239" lon="12.5594449"><ele>656.0</ele><time>2026-03-24T10:31:56.493Z</time></trkpt><trkpt lat="43.2317922" lon="12.5595091"><ele>657.0</ele><time>2026-03-24T10:31:57.492Z</time></trkpt><trkpt lat="43.2319628" lon="12.5595762"><ele>653.0</ele><time>2026-03-24T10:31:58.492Z</time></trkpt><trkpt lat="43.2321434" lon="12.5596282"><ele>649.0</ele><time>2026-03-24T10:31:59.492Z</time></trkpt><trkpt lat="43.2323605" lon="12.5596332"><ele>645.0</ele><time>2026-03-24T10:32:00.492Z</time></trkpt><trkpt lat="43.2325977" lon="12.5596389"><ele>645.0</ele><time>2026-03-24T10:32:01.493Z</time></trkpt><trkpt lat="43.2328331" lon="12.5596512"><ele>645.0</ele><time>2026-03-24T10:32:02.492Z</time></trkpt><trkpt lat="43.2330647" lon="12.5596606"><ele>645.6666666666666</ele><time>2026-03-24T10:32:03.492Z</time></trkpt><trkpt lat="43.2332785" lon="12.5596952"><ele>646.3333333333333</ele><time>2026-03-24T10:32:04.493Z</time></trkpt><trkpt lat="43.2334872" lon="12.5597442"><ele>647.0</ele><time>2026-03-24T10:32:05.493Z</time></trkpt><trkpt lat="43.2336922" lon="12.5598423"><ele>647.0</ele><time>2026-03-24T10:32:06.492Z</time></trkpt><trkpt lat="43.2338814" lon="12.5599657"><ele>647.0</ele><time>2026-03-24T10:32:07.493Z</time></trkpt><trkpt lat="43.2340649" lon="12.560087"><ele>647.0</ele><time>2026-03-24T10:32:08.493Z</time></trkpt><trkpt lat="43.2342489" lon="12.560189"><ele>649.0</ele><time>2026-03-24T10:32:09.493Z</time></trkpt><trkpt lat="43.2344428" lon="12.5602442"><ele>651.0</ele><time>2026-03-24T10:32:10.492Z</time></trkpt><trkpt lat="43.2346376" lon="12.5602809"><ele>653.0</ele><time>2026-03-24T10:32:11.493Z</time></trkpt><trkpt lat="43.2348427" lon="12.5602038"><ele>653.0</ele><time>2026-03-24T10:32:12.492Z</time></trkpt><trkpt lat="43.2350342" lon="12.5601406"><ele>653.0</ele><time>2026-03-24T10:32:13.492Z</time></trkpt><trkpt lat="43.2352086" lon="12.5601434"><ele>653.0</ele><time>2026-03-24T10:32:14.492Z</time></trkpt><trkpt lat="43.2353959" lon="12.5601442"><ele>653.0</ele><time>2026-03-24T10:32:15.492Z</time></trkpt><trkpt lat="43.2355785" lon="12.5602727"><ele>653.0</ele><time>2026-03-24T10:32:16.494Z</time></trkpt><trkpt lat="43.2357436" lon="12.5603592"><ele>653.0</ele><time>2026-03-24T10:32:17.492Z</time></trkpt><trkpt lat="43.2358869" lon="12.5604227"><ele>651.0</ele><time>2026-03-24T10:32:18.493Z</time></trkpt><trkpt lat="43.236024" lon="12.560479"><ele>649.0</ele><time>2026-03-24T10:32:19.492Z</time></trkpt><trkpt lat="43.2361487" lon="12.5604913"><ele>647.0</ele><time>2026-03-24T10:32:20.493Z</time></trkpt><trkpt lat="43.2362613" lon="12.5604367"><ele>645.0</ele><time>2026-03-24T10:32:21.494Z</time></trkpt><trkpt lat="43.2363748" lon="12.5603602"><ele>645.0</ele><time>2026-03-24T10:32:22.492Z</time></trkpt><trkpt lat="43.2363889" lon="12.5601473"><ele>645.0</ele><time>2026-03-24T10:32:23.491Z</time></trkpt><trkpt lat="43.2364144" lon="12.5599404"><ele>645.0</ele><time>2026-03-24T10:32:24.492Z</time></trkpt><trkpt lat="43.2364235" lon="12.5596913"><ele>646.6666666666666</ele><time>2026-03-24T10:32:25.491Z</time></trkpt><trkpt lat="43.2364384" lon="12.5594283"><ele>648.3333333333333</ele><time>2026-03-24T10:32:26.493Z</time></trkpt><trkpt lat="43.2364526" lon="12.5591813"><ele>650.0</ele><time>2026-03-24T10:32:27.493Z</time></trkpt><trkpt lat="43.2364726" lon="12.5589382"><ele>641.6666666666666</ele><time>2026-03-24T10:32:28.492Z</time></trkpt><trkpt lat="43.2364859" lon="12.5586832"><ele>633.3333333333334</ele><time>2026-03-24T10:32:29.492Z</time></trkpt><trkpt lat="43.2364981" lon="12.5584396"><ele>625.0</ele><time>2026-03-24T10:32:30.493Z</time></trkpt><trkpt lat="43.236519" lon="12.5582116"><ele>625.0</ele><time>2026-03-24T10:32:31.493Z</time></trkpt><trkpt lat="43.236543" lon="12.5579752"><ele>625.0</ele><time>2026-03-24T10:32:32.493Z</time></trkpt><trkpt lat="43.2365736" lon="12.5577477"><ele>625.0</ele><time>2026-03-24T10:32:33.493Z</time></trkpt><trkpt lat="43.2366159" lon="12.5575269"><ele>625.3333333333334</ele><time>2026-03-24T10:32:34.493Z</time></trkpt><trkpt lat="43.2367386" lon="12.557334"><ele>625.6666666666666</ele><time>2026-03-24T10:32:35.494Z</time></trkpt><trkpt lat="43.2368728" lon="12.5571571"><ele>626.0</ele><time>2026-03-24T10:32:36.493Z</time></trkpt><trkpt lat="43.2370083" lon="12.5570121"><ele>628.3333333333333</ele><time>2026-03-24T10:32:37.493Z</time></trkpt><trkpt lat="43.2371381" lon="12.5568612"><ele>630.6666666666666</ele><time>2026-03-24T10:32:38.493Z</time></trkpt><trkpt lat="43.2372588" lon="12.5566754"><ele>633.0</ele><time>2026-03-24T10:32:39.492Z</time></trkpt><trkpt lat="43.2373279" lon="12.5564647"><ele>626.3333333333334</ele><time>2026-03-24T10:32:40.492Z</time></trkpt><trkpt lat="43.2374116" lon="12.556237"><ele>619.6666666666667</ele><time>2026-03-24T10:32:41.493Z</time></trkpt><trkpt lat="43.2374982" lon="12.5560229"><ele>613.0</ele><time>2026-03-24T10:32:42.492Z</time></trkpt><trkpt lat="43.2375688" lon="12.5558029"><ele>613.0</ele><time>2026-03-24T10:32:43.493Z</time></trkpt><trkpt lat="43.237618" lon="12.5555938"><ele>613.0</ele><time>2026-03-24T10:32:44.492Z</time></trkpt><trkpt lat="43.2376266" lon="12.5553768"><ele>613.0</ele><time>2026-03-24T10:32:45.493Z</time></trkpt><trkpt lat="43.2375946" lon="12.555165"><ele>612.75</ele><time>2026-03-24T10:32:46.493Z</time></trkpt><trkpt lat="43.2375136" lon="12.5549836"><ele>612.5</ele><time>2026-03-24T10:32:47.492Z</time></trkpt><trkpt lat="43.2374207" lon="12.5548605"><ele>612.25</ele><time>2026-03-24T10:32:48.493Z</time></trkpt><trkpt lat="43.2373486" lon="12.5547269"><ele>612.0</ele><time>2026-03-24T10:32:49.493Z</time></trkpt><trkpt lat="43.2373302" lon="12.5545817"><ele>609.5</ele><time>2026-03-24T10:32:50.493Z</time></trkpt><trkpt lat="43.2373777" lon="12.5544479"><ele>607.0</ele><time>2026-03-24T10:32:51.492Z</time></trkpt><trkpt lat="43.2374378" lon="12.5543253"><ele>604.5</ele><time>2026-03-24T10:32:52.493Z</time></trkpt><trkpt lat="43.2375465" lon="12.5544109"><ele>602.0</ele><time>2026-03-24T10:32:53.492Z</time></trkpt><trkpt lat="43.2376511" lon="12.5545109"><ele>605.3333333333333</ele><time>2026-03-24T10:32:54.493Z</time></trkpt><trkpt lat="43.2377741" lon="12.5546519"><ele>608.6666666666666</ele><time>2026-03-24T10:32:55.492Z</time></trkpt><trkpt lat="43.237899" lon="12.5547827"><ele>612.0</ele><time>2026-03-24T10:32:56.492Z</time></trkpt><trkpt lat="43.2380325" lon="12.5549325"><ele>607.0</ele><time>2026-03-24T10:32:57.492Z</time></trkpt><trkpt lat="43.2381586" lon="12.5550658"><ele>602.0</ele><time>2026-03-24T10:32:58.492Z</time></trkpt><trkpt lat="43.2382658" lon="12.5551899"><ele>597.0</ele><time>2026-03-24T10:32:59.492Z</time></trkpt><trkpt lat="43.2383461" lon="12.5552797"><ele>592.0</ele><time>2026-03-24T10:33:00.492Z</time></trkpt><trkpt lat="43.2384003" lon="12.5553581"><ele>592.0</ele><time>2026-03-24T10:33:01.493Z</time></trkpt><trkpt lat="43.238463" lon="12.5554304"><ele>592.0</ele><time>2026-03-24T10:33:03.493Z</time></trkpt><trkpt lat="43.2384321" lon="12.5553177"><ele>592.0</ele><time>2026-03-24T10:33:08.493Z</time></trkpt><trkpt lat="43.2383198" lon="12.5552261"><ele>592.0</ele><time>2026-03-24T10:33:10.493Z</time></trkpt><trkpt lat="43.238251" lon="12.5551536"><ele>592.0</ele><time>2026-03-24T10:33:11.492Z</time></trkpt><trkpt lat="43.2381748" lon="12.5550545"><ele>596.0</ele><time>2026-03-24T10:33:12.492Z</time></trkpt><trkpt lat="43.2380948" lon="12.5549534"><ele>600.0</ele><time>2026-03-24T10:33:13.493Z</time></trkpt><trkpt lat="43.238028" lon="12.5548637"><ele>604.0</ele><time>2026-03-24T10:33:14.493Z</time></trkpt><trkpt lat="43.2379704" lon="12.5547796"><ele>608.0</ele><time>2026-03-24T10:33:15.492Z</time></trkpt><trkpt lat="43.2379261" lon="12.5547033"><ele>612.0</ele><time>2026-03-24T10:33:16.493Z</time></trkpt><trkpt lat="43.2378372" lon="12.5545763"><ele>610.0</ele><time>2026-03-24T10:33:18.493Z</time></trkpt><trkpt lat="43.237785" lon="12.5544841"><ele>608.0</ele><time>2026-03-24T10:33:19.493Z</time></trkpt><trkpt lat="43.2377359" lon="12.5543668"><ele>606.0</ele><time>2026-03-24T10:33:20.493Z</time></trkpt><trkpt lat="43.2376775" lon="12.5542243"><ele>604.0</ele><time>2026-03-24T10:33:21.493Z</time></trkpt><trkpt lat="43.2376027" lon="12.5540802"><ele>602.0</ele><time>2026-03-24T10:33:22.493Z</time></trkpt><trkpt lat="43.2375239" lon="12.5539359"><ele>602.0</ele><time>2026-03-24T10:33:23.492Z</time></trkpt><trkpt lat="43.2374181" lon="12.5537836"><ele>602.0</ele><time>2026-03-24T10:33:24.494Z</time></trkpt><trkpt lat="43.2373252" lon="12.5536398"><ele>602.0</ele><time>2026-03-24T10:33:25.492Z</time></trkpt><trkpt lat="43.2372258" lon="12.5535071"><ele>602.0</ele><time>2026-03-24T10:33:26.493Z</time></trkpt><trkpt lat="43.2371561" lon="12.5533673"><ele>604.5</ele><time>2026-03-24T10:33:27.493Z</time></trkpt><trkpt lat="43.2370907" lon="12.5532143"><ele>607.0</ele><time>2026-03-24T10:33:28.493Z</time></trkpt><trkpt lat="43.2370562" lon="12.5530528"><ele>609.5</ele><time>2026-03-24T10:33:29.491Z</time></trkpt><trkpt lat="43.237024" lon="12.5528911"><ele>612.0</ele><time>2026-03-24T10:33:30.492Z</time></trkpt><trkpt lat="43.2369894" lon="12.5527259"><ele>612.8000000000001</ele><time>2026-03-24T10:33:31.492Z</time></trkpt><trkpt lat="43.2369453" lon="12.5525865"><ele>613.6</ele><time>2026-03-24T10:33:32.492Z</time></trkpt><trkpt lat="43.2368887" lon="12.5524955"><ele>614.4000000000001</ele><time>2026-03-24T10:33:33.492Z</time></trkpt><trkpt lat="43.2368077" lon="12.5524154"><ele>615.2</ele><time>2026-03-24T10:33:34.492Z</time></trkpt><trkpt lat="43.2367066" lon="12.5523809"><ele>616.0</ele><time>2026-03-24T10:33:35.493Z</time></trkpt><trkpt lat="43.2366015" lon="12.5523482"><ele>619.0</ele><time>2026-03-24T10:33:36.494Z</time></trkpt><trkpt lat="43.2364573" lon="12.5523081"><ele>622.0</ele><time>2026-03-24T10:33:37.494Z</time></trkpt><trkpt lat="43.2363322" lon="12.5522497"><ele>625.0</ele><time>2026-03-24T10:33:38.492Z</time></trkpt><trkpt lat="43.2362296" lon="12.5521825"><ele>628.0</ele><time>2026-03-24T10:33:39.492Z</time></trkpt><trkpt lat="43.2361328" lon="12.5521104"><ele>629.5</ele><time>2026-03-24T10:33:40.493Z</time></trkpt><trkpt lat="43.2360507" lon="12.551997"><ele>631.0</ele><time>2026-03-24T10:33:41.493Z</time></trkpt><trkpt lat="43.2359766" lon="12.5518675"><ele>632.5</ele><time>2026-03-24T10:33:42.492Z</time></trkpt><trkpt lat="43.2359054" lon="12.5517197"><ele>634.0</ele><time>2026-03-24T10:33:43.492Z</time></trkpt><trkpt lat="43.235835" lon="12.5515835"><ele>634.0</ele><time>2026-03-24T10:33:44.493Z</time></trkpt><trkpt lat="43.2357763" lon="12.5514451"><ele>634.0</ele><time>2026-03-24T10:33:45.493Z</time></trkpt><trkpt lat="43.2357026" lon="12.5513202"><ele>634.0</ele><time>2026-03-24T10:33:46.493Z</time></trkpt><trkpt lat="43.2356253" lon="12.5512006"><ele>634.0</ele><time>2026-03-24T10:33:47.491Z</time></trkpt><trkpt lat="43.2355406" lon="12.551088"><ele>635.8</ele><time>2026-03-24T10:33:48.493Z</time></trkpt><trkpt lat="43.2354604" lon="12.5509958"><ele>637.5999999999999</ele><time>2026-03-24T10:33:49.493Z</time></trkpt><trkpt lat="43.235375" lon="12.5509194"><ele>639.4</ele><time>2026-03-24T10:33:50.493Z</time></trkpt><trkpt lat="43.2353109" lon="12.5508664"><ele>641.1999999999999</ele><time>2026-03-24T10:33:51.493Z</time></trkpt><trkpt lat="43.2352033" lon="12.5508086"><ele>643.0</ele><time>2026-03-24T10:33:53.493Z</time></trkpt><trkpt lat="43.2351203" lon="12.5507708"><ele>643.0</ele><time>2026-03-24T10:33:55.492Z</time></trkpt><trkpt lat="43.235023" lon="12.5507482"><ele>643.0</ele><time>2026-03-24T10:33:57.492Z</time></trkpt><trkpt lat="43.2349077" lon="12.5507262"><ele>643.0</ele><time>2026-03-24T10:33:59.492Z</time></trkpt><trkpt lat="43.2348367" lon="12.5507131"><ele>643.0</ele><time>2026-03-24T10:34:01.492Z</time></trkpt><trkpt lat="43.2349245" lon="12.5507226"><ele>643.0</ele><time>2026-03-24T10:34:15.492Z</time></trkpt><trkpt lat="43.2350496" lon="12.5507345"><ele>643.0</ele><time>2026-03-24T10:34:17.493Z</time></trkpt><trkpt lat="43.2351277" lon="12.5507651"><ele>643.0</ele><time>2026-03-24T10:34:18.492Z</time></trkpt><trkpt lat="43.2351899" lon="12.5507854"><ele>643.0</ele><time>2026-03-24T10:34:19.492Z</time></trkpt><trkpt lat="43.2352541" lon="12.5508193"><ele>643.0</ele><time>2026-03-24T10:34:20.493Z</time></trkpt><trkpt lat="43.2353573" lon="12.5508697"><ele>643.0</ele><time>2026-03-24T10:34:22.492Z</time></trkpt><trkpt lat="43.2354246" lon="12.5508812"><ele>643.0</ele><time>2026-03-24T10:34:24.493Z</time></trkpt><trkpt lat="43.2355037" lon="12.5508344"><ele>643.0</ele><time>2026-03-24T10:34:27.491Z</time></trkpt><trkpt lat="43.235577" lon="12.5507428"><ele>643.0</ele><time>2026-03-24T10:34:29.492Z</time></trkpt><trkpt lat="43.2356659" lon="12.5506329"><ele>643.0</ele><time>2026-03-24T10:34:31.493Z</time></trkpt><trkpt lat="43.2357496" lon="12.5505244"><ele>643.0</ele><time>2026-03-24T10:34:33.493Z</time></trkpt><trkpt lat="43.2357961" lon="12.5504619"><ele>643.0</ele><time>2026-03-24T10:34:34.492Z</time></trkpt><trkpt lat="43.2358423" lon="12.5504014"><ele>642.1666666666667</ele><time>2026-03-24T10:34:35.493Z</time></trkpt><trkpt lat="43.2359294" lon="12.5502769"><ele>641.3333333333334</ele><time>2026-03-24T10:34:37.492Z</time></trkpt><trkpt lat="43.2360032" lon="12.5501668"><ele>640.5</ele><time>2026-03-24T10:34:39.492Z</time></trkpt><trkpt lat="43.2360564" lon="12.5500977"><ele>639.6666666666666</ele><time>2026-03-24T10:34:41.493Z</time></trkpt><trkpt lat="43.2361073" lon="12.5500365"><ele>638.8333333333333</ele><time>2026-03-24T10:34:43.493Z</time></trkpt><trkpt lat="43.236158" lon="12.5499697"><ele>638.0</ele><time>2026-03-24T10:34:45.493Z</time></trkpt><trkpt lat="43.2362156" lon="12.5498824"><ele>638.0</ele><time>2026-03-24T10:34:47.492Z</time></trkpt><trkpt lat="43.2362629" lon="12.5498124"><ele>638.0</ele><time>2026-03-24T10:34:49.493Z</time></trkpt><trkpt lat="43.2363221" lon="12.5497372"><ele>638.0</ele><time>2026-03-24T10:34:51.493Z</time></trkpt><trkpt lat="43.2363739" lon="12.5496717"><ele>638.0</ele><time>2026-03-24T10:34:53.492Z</time></trkpt><trkpt lat="43.236422" lon="12.5495912"><ele>638.0</ele><time>2026-03-24T10:34:55.492Z</time></trkpt><trkpt lat="43.2364577" lon="12.5495124"><ele>638.0</ele><time>2026-03-24T10:34:57.492Z</time></trkpt><trkpt lat="43.2365086" lon="12.5494215"><ele>638.0</ele><time>2026-03-24T10:35:00.493Z</time></trkpt><trkpt lat="43.2364503" lon="12.5494875"><ele>638.0</ele><time>2026-03-24T10:35:07.492Z</time></trkpt><trkpt lat="43.2364143" lon="12.5496217"><ele>638.0</ele><time>2026-03-24T10:35:09.492Z</time></trkpt><trkpt lat="43.2363285" lon="12.5497158"><ele>638.0</ele><time>2026-03-24T10:35:11.493Z</time></trkpt><trkpt lat="43.2362521" lon="12.5498082"><ele>638.0</ele><time>2026-03-24T10:35:13.493Z</time></trkpt><trkpt lat="43.2361836" lon="12.5499163"><ele>638.0</ele><time>2026-03-24T10:35:15.492Z</time></trkpt><trkpt lat="43.2361282" lon="12.5499939"><ele>638.0</ele><time>2026-03-24T10:35:17.494Z</time></trkpt><trkpt lat="43.2360641" lon="12.5500015"><ele>638.0</ele><time>2026-03-24T10:35:19.493Z</time></trkpt><trkpt lat="43.2361506" lon="12.5499731"><ele>638.0</ele><time>2026-03-24T10:35:31.493Z</time></trkpt><trkpt lat="43.2362405" lon="12.5498985"><ele>638.0</ele><time>2026-03-24T10:35:33.494Z</time></trkpt><trkpt lat="43.2363474" lon="12.5498199"><ele>638.0</ele><time>2026-03-24T10:35:35.492Z</time></trkpt><trkpt lat="43.2364388" lon="12.549745"><ele>636.0</ele><time>2026-03-24T10:35:37.492Z</time></trkpt><trkpt lat="43.2365241" lon="12.5496525"><ele>634.0</ele><time>2026-03-24T10:35:39.493Z</time></trkpt><trkpt lat="43.236613" lon="12.5495507"><ele>632.0</ele><time>2026-03-24T10:35:41.493Z</time></trkpt><trkpt lat="43.2367045" lon="12.5494587"><ele>630.0</ele><time>2026-03-24T10:35:43.493Z</time></trkpt><trkpt lat="43.2368004" lon="12.5493691"><ele>630.0</ele><time>2026-03-24T10:35:45.493Z</time></trkpt><trkpt lat="43.2368926" lon="12.549261"><ele>630.0</ele><time>2026-03-24T10:35:47.493Z</time></trkpt><trkpt lat="43.2369447" lon="12.5492093"><ele>630.0</ele><time>2026-03-24T10:35:48.492Z</time></trkpt><trkpt lat="43.2370488" lon="12.5491215"><ele>630.0</ele><time>2026-03-24T10:35:50.494Z</time></trkpt><trkpt lat="43.2371473" lon="12.5490252"><ele>630.0</ele><time>2026-03-24T10:35:52.493Z</time></trkpt><trkpt lat="43.2371992" lon="12.5489621"><ele>630.0</ele><time>2026-03-24T10:35:53.493Z</time></trkpt><trkpt lat="43.2372586" lon="12.5488844"><ele>630.0</ele><time>2026-03-24T10:35:54.493Z</time></trkpt><trkpt lat="43.2373289" lon="12.5487974"><ele>630.0</ele><time>2026-03-24T10:35:55.493Z</time></trkpt><trkpt lat="43.2373965" lon="12.5487169"><ele>630.0</ele><time>2026-03-24T10:35:56.493Z</time></trkpt><trkpt lat="43.2374556" lon="12.5486537"><ele>630.0</ele><time>2026-03-24T10:35:57.493Z</time></trkpt><trkpt lat="43.237515" lon="12.5485886"><ele>630.0</ele><time>2026-03-24T10:35:58.493Z</time></trkpt><trkpt lat="43.2375714" lon="12.5485307"><ele>628.0</ele><time>2026-03-24T10:35:59.493Z</time></trkpt><trkpt lat="43.2376237" lon="12.5484705"><ele>626.0</ele><time>2026-03-24T10:36:00.493Z</time></trkpt><trkpt lat="43.23774" lon="12.5483892"><ele>624.0</ele><time>2026-03-24T10:36:02.493Z</time></trkpt><trkpt lat="43.2378117" lon="12.5483274"><ele>622.0</ele><time>2026-03-24T10:36:03.492Z</time></trkpt><trkpt lat="43.2378755" lon="12.5482865"><ele>620.0</ele><time>2026-03-24T10:36:04.493Z</time></trkpt><trkpt lat="43.2379512" lon="12.5482447"><ele>618.0</ele><time>2026-03-24T10:36:05.492Z</time></trkpt><trkpt lat="43.2380229" lon="12.5482039"><ele>618.0</ele><time>2026-03-24T10:36:06.493Z</time></trkpt><trkpt lat="43.2381003" lon="12.5481474"><ele>618.0</ele><time>2026-03-24T10:36:07.493Z</time></trkpt><trkpt lat="43.23819" lon="12.5481161"><ele>618.0</ele><time>2026-03-24T10:36:08.493Z</time></trkpt><trkpt lat="43.23827" lon="12.548081"><ele>618.0</ele><time>2026-03-24T10:36:09.492Z</time></trkpt><trkpt lat="43.2383648" lon="12.5479808"><ele>618.0</ele><time>2026-03-24T10:36:11.493Z</time></trkpt><trkpt lat="43.2384189" lon="12.547914"><ele>615.0</ele><time>2026-03-24T10:36:12.493Z</time></trkpt><trkpt lat="43.2384724" lon="12.5478294"><ele>612.0</ele><time>2026-03-24T10:36:13.493Z</time></trkpt><trkpt lat="43.2385216" lon="12.5477284"><ele>609.0</ele><time>2026-03-24T10:36:14.493Z</time></trkpt><trkpt lat="43.2385636" lon="12.5476324"><ele>606.0</ele><time>2026-03-24T10:36:15.492Z</time></trkpt><trkpt lat="43.2386006" lon="12.5475365"><ele>603.0</ele><time>2026-03-24T10:36:16.494Z</time></trkpt><trkpt lat="43.2386337" lon="12.5474501"><ele>600.0</ele><time>2026-03-24T10:36:17.493Z</time></trkpt><trkpt lat="43.2386184" lon="12.5473128"><ele>600.0</ele><time>2026-03-24T10:36:19.493Z</time></trkpt><trkpt lat="43.2385442" lon="12.5472142"><ele>600.0</ele><time>2026-03-24T10:36:21.494Z</time></trkpt><trkpt lat="43.238497" lon="12.5471567"><ele>600.0</ele><time>2026-03-24T10:36:22.495Z</time></trkpt><trkpt lat="43.2384449" lon="12.5470993"><ele>600.0</ele><time>2026-03-24T10:36:23.493Z</time></trkpt><trkpt lat="43.2383285" lon="12.5470741"><ele>600.0</ele><time>2026-03-24T10:36:25.493Z</time></trkpt><trkpt lat="43.2382301" lon="12.5470625"><ele>599.1666666666666</ele><time>2026-03-24T10:36:27.493Z</time></trkpt><trkpt lat="43.2381591" lon="12.5470001"><ele>598.3333333333334</ele><time>2026-03-24T10:36:29.493Z</time></trkpt><trkpt lat="43.2380576" lon="12.5469538"><ele>597.5</ele><time>2026-03-24T10:36:31.494Z</time></trkpt><trkpt lat="43.2380345" lon="12.5468539"><ele>596.6666666666667</ele><time>2026-03-24T10:36:34.493Z</time></trkpt><trkpt lat="43.2380342" lon="12.5469453"><ele>595.8333333333334</ele><time>2026-03-24T10:37:10.493Z</time></trkpt><trkpt lat="43.2380859" lon="12.5470096"><ele>595.0</ele><time>2026-03-24T10:37:12.493Z</time></trkpt><trkpt lat="43.2381621" lon="12.5470408"><ele>595.0</ele><time>2026-03-24T10:37:14.493Z</time></trkpt><trkpt lat="43.238237" lon="12.5470594"><ele>595.0</ele><time>2026-03-24T10:37:16.492Z</time></trkpt><trkpt lat="43.238318" lon="12.5470328"><ele>595.0</ele><time>2026-03-24T10:37:18.493Z</time></trkpt><trkpt lat="43.2384123" lon="12.5470575"><ele>595.0</ele><time>2026-03-24T10:37:20.493Z</time></trkpt><trkpt lat="43.2384704" lon="12.5471021"><ele>595.0</ele><time>2026-03-24T10:37:21.493Z</time></trkpt><trkpt lat="43.2385521" lon="12.5472014"><ele>595.0</ele><time>2026-03-24T10:37:23.494Z</time></trkpt><trkpt lat="43.2386221" lon="12.5473018"><ele>596.0</ele><time>2026-03-24T10:37:25.494Z</time></trkpt><trkpt lat="43.2386589" lon="12.5474143"><ele>597.0</ele><time>2026-03-24T10:37:27.493Z</time></trkpt><trkpt lat="43.2386278" lon="12.5475331"><ele>598.0</ele><time>2026-03-24T10:37:29.492Z</time></trkpt><trkpt lat="43.238568" lon="12.5476664"><ele>599.0</ele><time>2026-03-24T10:37:31.495Z</time></trkpt><trkpt lat="43.2384937" lon="12.5477898"><ele>600.0</ele><time>2026-03-24T10:37:33.493Z</time></trkpt><trkpt lat="43.238408" lon="12.54789"><ele>600.4</ele><time>2026-03-24T10:37:35.493Z</time></trkpt><trkpt lat="43.2383285" lon="12.5479891"><ele>600.8</ele><time>2026-03-24T10:37:37.493Z</time></trkpt><trkpt lat="43.2382305" lon="12.5480614"><ele>601.2</ele><time>2026-03-24T10:37:39.493Z</time></trkpt><trkpt lat="43.2381188" lon="12.548103"><ele>601.6</ele><time>2026-03-24T10:37:41.493Z</time></trkpt><trkpt lat="43.2380522" lon="12.5481375"><ele>602.0</ele><time>2026-03-24T10:37:42.494Z</time></trkpt><trkpt lat="43.2379819" lon="12.5481765"><ele>604.6666666666666</ele><time>2026-03-24T10:37:43.493Z</time></trkpt><trkpt lat="43.2379177" lon="12.5482144"><ele>607.3333333333333</ele><time>2026-03-24T10:37:44.494Z</time></trkpt><trkpt lat="43.2378577" lon="12.5482608"><ele>610.0</ele><time>2026-03-24T10:37:45.494Z</time></trkpt><trkpt lat="43.2377944" lon="12.5483147"><ele>612.6666666666666</ele><time>2026-03-24T10:37:46.493Z</time></trkpt><trkpt lat="43.2377291" lon="12.5483707"><ele>615.3333333333334</ele><time>2026-03-24T10:37:47.494Z</time></trkpt><trkpt lat="43.2376206" lon="12.5484719"><ele>618.0</ele><time>2026-03-24T10:37:49.492Z</time></trkpt><trkpt lat="43.237551" lon="12.5485129"><ele>618.0</ele><time>2026-03-24T10:37:50.493Z</time></trkpt><trkpt lat="43.2374912" lon="12.5485872"><ele>618.0</ele><time>2026-03-24T10:37:51.493Z</time></trkpt><trkpt lat="43.2374275" lon="12.5486754"><ele>618.0</ele><time>2026-03-24T10:37:52.493Z</time></trkpt><trkpt lat="43.2373575" lon="12.5487484"><ele>618.0</ele><time>2026-03-24T10:37:53.493Z</time></trkpt><trkpt lat="43.2372972" lon="12.5488172"><ele>618.0</ele><time>2026-03-24T10:37:54.493Z</time></trkpt><trkpt lat="43.2372416" lon="12.5488882"><ele>618.0</ele><time>2026-03-24T10:37:55.493Z</time></trkpt><trkpt lat="43.2371782" lon="12.5489619"><ele>620.0</ele><time>2026-03-24T10:37:56.492Z</time></trkpt><trkpt lat="43.2371194" lon="12.5490376"><ele>622.0</ele><time>2026-03-24T10:37:57.493Z</time></trkpt><trkpt lat="43.2370538" lon="12.5491082"><ele>624.0</ele><time>2026-03-24T10:37:58.493Z</time></trkpt><trkpt lat="43.2369945" lon="12.5491739"><ele>626.0</ele><time>2026-03-24T10:37:59.493Z</time></trkpt><trkpt lat="43.2369278" lon="12.5492395"><ele>628.0</ele><time>2026-03-24T10:38:00.493Z</time></trkpt><trkpt lat="43.2368668" lon="12.5493015"><ele>630.0</ele><time>2026-03-24T10:38:01.495Z</time></trkpt><trkpt lat="43.2368049" lon="12.5493663"><ele>630.0</ele><time>2026-03-24T10:38:02.495Z</time></trkpt><trkpt lat="43.2367527" lon="12.5494257"><ele>630.0</ele><time>2026-03-24T10:38:03.493Z</time></trkpt><trkpt lat="43.2367019" lon="12.549477"><ele>630.0</ele><time>2026-03-24T10:38:04.494Z</time></trkpt><trkpt lat="43.2366512" lon="12.5495396"><ele>630.0</ele><time>2026-03-24T10:38:05.493Z</time></trkpt><trkpt lat="43.2365455" lon="12.5496543"><ele>630.0</ele><time>2026-03-24T10:38:07.493Z</time></trkpt><trkpt lat="43.2364799" lon="12.5497107"><ele>630.0</ele><time>2026-03-24T10:38:08.493Z</time></trkpt><trkpt lat="43.2364067" lon="12.5497734"><ele>631.3333333333334</ele><time>2026-03-24T10:38:09.492Z</time></trkpt><trkpt lat="43.2363357" lon="12.5498329"><ele>632.6666666666666</ele><time>2026-03-24T10:38:10.493Z</time></trkpt><trkpt lat="43.2362595" lon="12.5498896"><ele>634.0</ele><time>2026-03-24T10:38:11.492Z</time></trkpt><trkpt lat="43.2361785" lon="12.5499438"><ele>635.3333333333333</ele><time>2026-03-24T10:38:12.493Z</time></trkpt><trkpt lat="43.2361037" lon="12.5500255"><ele>636.6666666666666</ele><time>2026-03-24T10:38:13.494Z</time></trkpt><trkpt lat="43.2360405" lon="12.5500933"><ele>638.0</ele><time>2026-03-24T10:38:14.494Z</time></trkpt><trkpt lat="43.2359702" lon="12.5501825"><ele>638.0</ele><time>2026-03-24T10:38:15.493Z</time></trkpt><trkpt lat="43.2359041" lon="12.5502745"><ele>638.0</ele><time>2026-03-24T10:38:16.493Z</time></trkpt><trkpt lat="43.2358376" lon="12.5503639"><ele>638.0</ele><time>2026-03-24T10:38:17.494Z</time></trkpt><trkpt lat="43.2357844" lon="12.550446"><ele>638.0</ele><time>2026-03-24T10:38:18.494Z</time></trkpt><trkpt lat="43.2357269" lon="12.5505284"><ele>638.0</ele><time>2026-03-24T10:38:19.492Z</time></trkpt><trkpt lat="43.2356461" lon="12.5506512"><ele>639.0</ele><time>2026-03-24T10:38:21.493Z</time></trkpt><trkpt lat="43.2355699" lon="12.5507513"><ele>640.0</ele><time>2026-03-24T10:38:23.492Z</time></trkpt><trkpt lat="43.2354841" lon="12.5508593"><ele>641.0</ele><time>2026-03-24T10:38:25.493Z</time></trkpt><trkpt lat="43.2354165" lon="12.5508941"><ele>642.0</ele><time>2026-03-24T10:38:27.494Z</time></trkpt><trkpt lat="43.2353336" lon="12.5508606"><ele>643.0</ele><time>2026-03-24T10:38:29.494Z</time></trkpt><trkpt lat="43.2352395" lon="12.5507899"><ele>643.0</ele><time>2026-03-24T10:38:31.493Z</time></trkpt><trkpt lat="43.2351337" lon="12.5507386"><ele>643.0</ele><time>2026-03-24T10:38:33.493Z</time></trkpt><trkpt lat="43.2350716" lon="12.550715"><ele>643.0</ele><time>2026-03-24T10:38:34.492Z</time></trkpt><trkpt lat="43.2349768" lon="12.5507152"><ele>643.0</ele><time>2026-03-24T10:38:35.494Z</time></trkpt><trkpt lat="43.2348783" lon="12.550697"><ele>643.0</ele><time>2026-03-24T10:38:36.493Z</time></trkpt><trkpt lat="43.2347994" lon="12.5506834"><ele>645.0</ele><time>2026-03-24T10:38:37.494Z</time></trkpt><trkpt lat="43.2346964" lon="12.5506709"><ele>647.0</ele><time>2026-03-24T10:38:38.493Z</time></trkpt><trkpt lat="43.2345833" lon="12.5506635"><ele>649.0</ele><time>2026-03-24T10:38:39.492Z</time></trkpt><trkpt lat="43.2344809" lon="12.5506487"><ele>651.0</ele><time>2026-03-24T10:38:40.493Z</time></trkpt><trkpt lat="43.2343794" lon="12.5506448"><ele>653.0</ele><time>2026-03-24T10:38:41.493Z</time></trkpt><trkpt lat="43.2342599" lon="12.5506539"><ele>653.0</ele><time>2026-03-24T10:38:42.494Z</time></trkpt><trkpt lat="43.2341625" lon="12.550642"><ele>653.0</ele><time>2026-03-24T10:38:43.493Z</time></trkpt><trkpt lat="43.2340659" lon="12.5506249"><ele>653.0</ele><time>2026-03-24T10:38:44.494Z</time></trkpt><trkpt lat="43.2339622" lon="12.5506314"><ele>653.0</ele><time>2026-03-24T10:38:45.492Z</time></trkpt><trkpt lat="43.2338668" lon="12.5505826"><ele>653.0</ele><time>2026-03-24T10:38:46.493Z</time></trkpt><trkpt lat="43.2337791" lon="12.550545"><ele>654.2</ele><time>2026-03-24T10:38:47.493Z</time></trkpt><trkpt lat="43.2336844" lon="12.5505012"><ele>655.4</ele><time>2026-03-24T10:38:48.492Z</time></trkpt><trkpt lat="43.2335882" lon="12.550452"><ele>656.6</ele><time>2026-03-24T10:38:49.493Z</time></trkpt><trkpt lat="43.233493" lon="12.5504314"><ele>657.8000000000001</ele><time>2026-03-24T10:38:50.493Z</time></trkpt><trkpt lat="43.2334044" lon="12.5504213"><ele>659.0</ele><time>2026-03-24T10:38:51.494Z</time></trkpt><trkpt lat="43.233305" lon="12.5504489"><ele>659.0</ele><time>2026-03-24T10:38:52.492Z</time></trkpt><trkpt lat="43.2332138" lon="12.5504584"><ele>659.0</ele><time>2026-03-24T10:38:53.492Z</time></trkpt><trkpt lat="43.2331106" lon="12.5504687"><ele>659.0</ele><time>2026-03-24T10:38:54.493Z</time></trkpt><trkpt lat="43.2330152" lon="12.5504459"><ele>659.0</ele><time>2026-03-24T10:38:55.493Z</time></trkpt><trkpt lat="43.2329194" lon="12.5504185"><ele>659.0</ele><time>2026-03-24T10:38:56.493Z</time></trkpt><trkpt lat="43.2328318" lon="12.5503784"><ele>657.5</ele><time>2026-03-24T10:38:57.494Z</time></trkpt><trkpt lat="43.2327605" lon="12.5503371"><ele>656.0</ele><time>2026-03-24T10:38:58.492Z</time></trkpt><trkpt lat="43.2326911" lon="12.5502821"><ele>654.5</ele><time>2026-03-24T10:38:59.492Z</time></trkpt><trkpt lat="43.2326608" lon="12.5502041"><ele>653.0</ele><time>2026-03-24T10:39:00.495Z</time></trkpt><trkpt lat="43.2326201" lon="12.5501079"><ele>651.5</ele><time>2026-03-24T10:39:01.494Z</time></trkpt><trkpt lat="43.2325746" lon="12.5500065"><ele>650.0</ele><time>2026-03-24T10:39:02.494Z</time></trkpt><trkpt lat="43.2325395" lon="12.5499214"><ele>650.0</ele><time>2026-03-24T10:39:03.493Z</time></trkpt><trkpt lat="43.2324985" lon="12.5498518"><ele>650.0</ele><time>2026-03-24T10:39:04.493Z</time></trkpt><trkpt lat="43.2324286" lon="12.5497936"><ele>650.0</ele><time>2026-03-24T10:39:06.492Z</time></trkpt><trkpt lat="43.2323481" lon="12.5497106"><ele>650.0</ele><time>2026-03-24T10:39:09.493Z</time></trkpt><trkpt lat="43.2322615" lon="12.5495782"><ele>650.0</ele><time>2026-03-24T10:39:11.494Z</time></trkpt><trkpt lat="43.2322267" lon="12.5494897"><ele>650.1666666666666</ele><time>2026-03-24T10:39:12.493Z</time></trkpt><trkpt lat="43.2321462" lon="12.5493601"><ele>650.3333333333333</ele><time>2026-03-24T10:39:14.493Z</time></trkpt><trkpt lat="43.2320946" lon="12.5493014"><ele>650.5</ele><time>2026-03-24T10:39:15.493Z</time></trkpt><trkpt lat="43.2320061" lon="12.5492331"><ele>650.6666666666666</ele><time>2026-03-24T10:39:17.493Z</time></trkpt><trkpt lat="43.231953" lon="12.5491672"><ele>650.8333333333334</ele><time>2026-03-24T10:39:19.494Z</time></trkpt><trkpt lat="43.2318835" lon="12.5491831"><ele>651.0</ele><time>2026-03-24T10:39:21.494Z</time></trkpt><trkpt lat="43.2318293" lon="12.5492284"><ele>651.0</ele><time>2026-03-24T10:39:22.494Z</time></trkpt><trkpt lat="43.231728" lon="12.5493292"><ele>651.0</ele><time>2026-03-24T10:39:24.493Z</time></trkpt><trkpt lat="43.2316197" lon="12.5494075"><ele>651.0</ele><time>2026-03-24T10:39:26.494Z</time></trkpt><trkpt lat="43.2315506" lon="12.5494518"><ele>651.0</ele><time>2026-03-24T10:39:28.492Z</time></trkpt><trkpt lat="43.231476" lon="12.5494645"><ele>651.0</ele><time>2026-03-24T10:39:30.494Z</time></trkpt><trkpt lat="43.231379" lon="12.5494501"><ele>652.1666666666666</ele><time>2026-03-24T10:39:32.493Z</time></trkpt><trkpt lat="43.2313136" lon="12.5494393"><ele>653.3333333333334</ele><time>2026-03-24T10:39:33.492Z</time></trkpt><trkpt lat="43.2311737" lon="12.5493852"><ele>654.5</ele><time>2026-03-24T10:39:35.494Z</time></trkpt><trkpt lat="43.231117" lon="12.5493329"><ele>655.6666666666667</ele><time>2026-03-24T10:39:36.494Z</time></trkpt><trkpt lat="43.231053" lon="12.549286"><ele>656.8333333333334</ele><time>2026-03-24T10:39:37.492Z</time></trkpt><trkpt lat="43.2309902" lon="12.5492626"><ele>658.0</ele><time>2026-03-24T10:39:38.492Z</time></trkpt><trkpt lat="43.2308625" lon="12.5492297"><ele>658.0</ele><time>2026-03-24T10:39:40.493Z</time></trkpt><trkpt lat="43.2307744" lon="12.549229"><ele>658.0</ele><time>2026-03-24T10:39:41.494Z</time></trkpt><trkpt lat="43.2306934" lon="12.5492314"><ele>658.0</ele><time>2026-03-24T10:39:42.494Z</time></trkpt><trkpt lat="43.2306123" lon="12.5492618"><ele>658.0</ele><time>2026-03-24T10:39:43.494Z</time></trkpt><trkpt lat="43.2305392" lon="12.5492264"><ele>658.0</ele><time>2026-03-24T10:39:44.493Z</time></trkpt><trkpt lat="43.2304675" lon="12.5491978"><ele>658.0</ele><time>2026-03-24T10:39:45.494Z</time></trkpt><trkpt lat="43.230344" lon="12.5491127"><ele>657.4</ele><time>2026-03-24T10:39:47.493Z</time></trkpt><trkpt lat="43.2302788" lon="12.5490461"><ele>656.8</ele><time>2026-03-24T10:39:48.494Z</time></trkpt><trkpt lat="43.2302339" lon="12.5489803"><ele>656.2</ele><time>2026-03-24T10:39:49.493Z</time></trkpt><trkpt lat="43.2301497" lon="12.5488698"><ele>655.6</ele><time>2026-03-24T10:39:51.494Z</time></trkpt><trkpt lat="43.2300627" lon="12.5487419"><ele>655.0</ele><time>2026-03-24T10:39:53.492Z</time></trkpt><trkpt lat="43.2299596" lon="12.5486675"><ele>655.0</ele><time>2026-03-24T10:39:55.493Z</time></trkpt><trkpt lat="43.2298877" lon="12.5486295"><ele>655.0</ele><time>2026-03-24T10:39:57.495Z</time></trkpt><trkpt lat="43.2298051" lon="12.5486123"><ele>655.0</ele><time>2026-03-24T10:39:59.493Z</time></trkpt><trkpt lat="43.2297254" lon="12.5486183"><ele>655.0</ele><time>2026-03-24T10:40:01.493Z</time></trkpt><trkpt lat="43.229641" lon="12.5486058"><ele>655.0</ele><time>2026-03-24T10:40:03.493Z</time></trkpt><trkpt lat="43.2295588" lon="12.5486287"><ele>655.0</ele><time>2026-03-24T10:40:05.493Z</time></trkpt><trkpt lat="43.2294711" lon="12.5485807"><ele>655.1666666666667</ele><time>2026-03-24T10:40:07.493Z</time></trkpt><trkpt lat="43.2294082" lon="12.5485495"><ele>655.3333333333334</ele><time>2026-03-24T10:40:09.493Z</time></trkpt><trkpt lat="43.229343" lon="12.548539"><ele>655.5</ele><time>2026-03-24T10:40:11.493Z</time></trkpt><trkpt lat="43.2293771" lon="12.5484627"><ele>655.6666666666666</ele><time>2026-03-24T10:40:27.492Z</time></trkpt><trkpt lat="43.2294425" lon="12.5485265"><ele>655.8333333333333</ele><time>2026-03-24T10:40:54.494Z</time></trkpt><trkpt lat="43.2295291" lon="12.5485783"><ele>656.0</ele><time>2026-03-24T10:40:56.495Z</time></trkpt><trkpt lat="43.2296108" lon="12.5486136"><ele>656.0</ele><time>2026-03-24T10:40:58.494Z</time></trkpt><trkpt lat="43.2297272" lon="12.5485986"><ele>656.0</ele><time>2026-03-24T10:41:00.494Z</time></trkpt><trkpt lat="43.2298169" lon="12.5486047"><ele>656.0</ele><time>2026-03-24T10:41:02.493Z</time></trkpt><trkpt lat="43.2299015" lon="12.5486419"><ele>656.0</ele><time>2026-03-24T10:41:04.493Z</time></trkpt><trkpt lat="43.2299978" lon="12.5487172"><ele>656.0</ele><time>2026-03-24T10:41:06.494Z</time></trkpt><trkpt lat="43.2300837" lon="12.548827"><ele>658.5999999999999</ele><time>2026-03-24T10:41:08.494Z</time></trkpt><trkpt lat="43.2301727" lon="12.5489454"><ele>661.2</ele><time>2026-03-24T10:41:10.494Z</time></trkpt><trkpt lat="43.2302621" lon="12.5490177"><ele>663.8</ele><time>2026-03-24T10:41:12.493Z</time></trkpt><trkpt lat="43.2303593" lon="12.5490985"><ele>666.4000000000001</ele><time>2026-03-24T10:41:14.492Z</time></trkpt><trkpt lat="43.2304118" lon="12.5491496"><ele>669.0</ele><time>2026-03-24T10:41:15.493Z</time></trkpt><trkpt lat="43.230514" lon="12.5492282"><ele>669.0</ele><time>2026-03-24T10:41:17.494Z</time></trkpt><trkpt lat="43.2305795" lon="12.5492359"><ele>669.0</ele><time>2026-03-24T10:41:18.494Z</time></trkpt><trkpt lat="43.2306576" lon="12.5492364"><ele>669.0</ele><time>2026-03-24T10:41:19.493Z</time></trkpt><trkpt lat="43.2307304" lon="12.5492309"><ele>669.0</ele><time>2026-03-24T10:41:20.494Z</time></trkpt><trkpt lat="43.2307959" lon="12.5492283"><ele>669.0</ele><time>2026-03-24T10:41:21.493Z</time></trkpt><trkpt lat="43.2309026" lon="12.549248"><ele>669.0</ele><time>2026-03-24T10:41:23.493Z</time></trkpt><trkpt lat="43.2310211" lon="12.5493061"><ele>666.8000000000001</ele><time>2026-03-24T10:41:25.494Z</time></trkpt><trkpt lat="43.2311292" lon="12.5493677"><ele>664.6</ele><time>2026-03-24T10:41:27.492Z</time></trkpt><trkpt lat="43.2311888" lon="12.5493968"><ele>662.4</ele><time>2026-03-24T10:41:28.493Z</time></trkpt><trkpt lat="43.2312626" lon="12.5494155"><ele>660.2</ele><time>2026-03-24T10:41:29.494Z</time></trkpt><trkpt lat="43.2313917" lon="12.549455"><ele>658.0</ele><time>2026-03-24T10:41:31.494Z</time></trkpt><trkpt lat="43.2315165" lon="12.5493988"><ele>656.5999999999999</ele><time>2026-03-24T10:41:33.493Z</time></trkpt><trkpt lat="43.2315953" lon="12.5493456"><ele>655.1999999999999</ele><time>2026-03-24T10:41:34.493Z</time></trkpt><trkpt lat="43.2316699" lon="12.5492974"><ele>653.8</ele><time>2026-03-24T10:41:35.492Z</time></trkpt><trkpt lat="43.2317309" lon="12.549243"><ele>652.4</ele><time>2026-03-24T10:41:36.493Z</time></trkpt><trkpt lat="43.2318208" lon="12.5491562"><ele>651.0</ele><time>2026-03-24T10:41:38.492Z</time></trkpt><trkpt lat="43.2319182" lon="12.5491487"><ele>651.0</ele><time>2026-03-24T10:41:40.493Z</time></trkpt><trkpt lat="43.232006" lon="12.5492191"><ele>651.0</ele><time>2026-03-24T10:41:42.494Z</time></trkpt><trkpt lat="43.2320998" lon="12.5493419"><ele>651.0</ele><time>2026-03-24T10:41:44.494Z</time></trkpt><trkpt lat="43.2321481" lon="12.5494005"><ele>651.0</ele><time>2026-03-24T10:41:45.493Z</time></trkpt><trkpt lat="43.2321868" lon="12.5494703"><ele>651.0</ele><time>2026-03-24T10:41:46.494Z</time></trkpt><trkpt lat="43.2322545" lon="12.549605"><ele>650.8333333333334</ele><time>2026-03-24T10:41:48.494Z</time></trkpt><trkpt lat="43.232314" lon="12.5497561"><ele>650.6666666666666</ele><time>2026-03-24T10:41:50.492Z</time></trkpt><trkpt lat="43.2323729" lon="12.5497972"><ele>650.5</ele><time>2026-03-24T10:41:51.494Z</time></trkpt><trkpt lat="43.232431" lon="12.5498527"><ele>650.3333333333333</ele><time>2026-03-24T10:41:52.492Z</time></trkpt><trkpt lat="43.2324858" lon="12.5499065"><ele>650.1666666666666</ele><time>2026-03-24T10:41:53.493Z</time></trkpt><trkpt lat="43.2325364" lon="12.5499802"><ele>650.0</ele><time>2026-03-24T10:41:54.494Z</time></trkpt><trkpt lat="43.2325803" lon="12.5500861"><ele>650.0</ele><time>2026-03-24T10:41:55.495Z</time></trkpt><trkpt lat="43.2326367" lon="12.5501855"><ele>650.0</ele><time>2026-03-24T10:41:56.493Z</time></trkpt><trkpt lat="43.2326888" lon="12.5502702"><ele>650.0</ele><time>2026-03-24T10:41:57.494Z</time></trkpt><trkpt lat="43.2327378" lon="12.5503316"><ele>650.0</ele><time>2026-03-24T10:41:58.495Z</time></trkpt><trkpt lat="43.2328239" lon="12.5503641"><ele>650.0</ele><time>2026-03-24T10:41:59.494Z</time></trkpt><trkpt lat="43.2329159" lon="12.5503827"><ele>650.0</ele><time>2026-03-24T10:42:00.494Z</time></trkpt><trkpt lat="43.2330042" lon="12.5504189"><ele>651.5</ele><time>2026-03-24T10:42:01.494Z</time></trkpt><trkpt lat="43.2331028" lon="12.5504313"><ele>653.0</ele><time>2026-03-24T10:42:02.494Z</time></trkpt><trkpt lat="43.2331761" lon="12.5504576"><ele>654.5</ele><time>2026-03-24T10:42:03.494Z</time></trkpt><trkpt lat="43.2332676" lon="12.5504279"><ele>656.0</ele><time>2026-03-24T10:42:04.493Z</time></trkpt><trkpt lat="43.2333513" lon="12.5504089"><ele>657.5</ele><time>2026-03-24T10:42:05.493Z</time></trkpt><trkpt lat="43.2334381" lon="12.5503993"><ele>659.0</ele><time>2026-03-24T10:42:06.494Z</time></trkpt><trkpt lat="43.2335076" lon="12.5503907"><ele>659.0</ele><time>2026-03-24T10:42:07.494Z</time></trkpt><trkpt lat="43.2335841" lon="12.5503965"><ele>659.0</ele><time>2026-03-24T10:42:08.494Z</time></trkpt><trkpt lat="43.2336693" lon="12.5504252"><ele>659.0</ele><time>2026-03-24T10:42:09.494Z</time></trkpt><trkpt lat="43.2337452" lon="12.5504903"><ele>659.0</ele><time>2026-03-24T10:42:10.494Z</time></trkpt><trkpt lat="43.2338329" lon="12.550526"><ele>659.0</ele><time>2026-03-24T10:42:11.493Z</time></trkpt><trkpt lat="43.2339303" lon="12.5505631"><ele>659.0</ele><time>2026-03-24T10:42:12.494Z</time></trkpt><trkpt lat="43.2340328" lon="12.5505903"><ele>657.8000000000001</ele><time>2026-03-24T10:42:13.493Z</time></trkpt><trkpt lat="43.2341413" lon="12.5506238"><ele>656.6</ele><time>2026-03-24T10:42:14.493Z</time></trkpt><trkpt lat="43.2342397" lon="12.5506249"><ele>655.4</ele><time>2026-03-24T10:42:15.494Z</time></trkpt><trkpt lat="43.2343363" lon="12.5506212"><ele>654.2</ele><time>2026-03-24T10:42:16.494Z</time></trkpt><trkpt lat="43.234439" lon="12.5506171"><ele>653.0</ele><time>2026-03-24T10:42:17.492Z</time></trkpt><trkpt lat="43.2345594" lon="12.5506052"><ele>653.0</ele><time>2026-03-24T10:42:18.493Z</time></trkpt><trkpt lat="43.23468" lon="12.5506181"><ele>653.0</ele><time>2026-03-24T10:42:19.492Z</time></trkpt><trkpt lat="43.2347851" lon="12.5506445"><ele>653.0</ele><time>2026-03-24T10:42:20.493Z</time></trkpt><trkpt lat="43.2348871" lon="12.5506549"><ele>653.0</ele><time>2026-03-24T10:42:21.494Z</time></trkpt><trkpt lat="43.2349831" lon="12.5506643"><ele>653.0</ele><time>2026-03-24T10:42:22.494Z</time></trkpt><trkpt lat="43.2350733" lon="12.5506762"><ele>651.3333333333333</ele><time>2026-03-24T10:42:23.494Z</time></trkpt><trkpt lat="43.2351398" lon="12.5507052"><ele>649.6666666666666</ele><time>2026-03-24T10:42:24.494Z</time></trkpt><trkpt lat="43.2352091" lon="12.5507508"><ele>648.0</ele><time>2026-03-24T10:42:25.493Z</time></trkpt><trkpt lat="43.2352919" lon="12.5508077"><ele>646.3333333333334</ele><time>2026-03-24T10:42:27.494Z</time></trkpt><trkpt lat="43.2353658" lon="12.5508666"><ele>644.6666666666667</ele><time>2026-03-24T10:42:30.494Z</time></trkpt><trkpt lat="43.2354691" lon="12.550931"><ele>643.0</ele><time>2026-03-24T10:42:32.493Z</time></trkpt><trkpt lat="43.2355314" lon="12.5510095"><ele>643.0</ele><time>2026-03-24T10:42:33.494Z</time></trkpt><trkpt lat="43.2356072" lon="12.5510925"><ele>643.0</ele><time>2026-03-24T10:42:34.494Z</time></trkpt><trkpt lat="43.2356771" lon="12.5512045"><ele>643.0</ele><time>2026-03-24T10:42:35.493Z</time></trkpt><trkpt lat="43.2357434" lon="12.5513327"><ele>643.0</ele><time>2026-03-24T10:42:36.493Z</time></trkpt><trkpt lat="43.2358005" lon="12.551453"><ele>643.0</ele><time>2026-03-24T10:42:37.493Z</time></trkpt><trkpt lat="43.2358561" lon="12.5515845"><ele>641.1999999999999</ele><time>2026-03-24T10:42:38.493Z</time></trkpt><trkpt lat="43.2359059" lon="12.5516963"><ele>639.4</ele><time>2026-03-24T10:42:39.493Z</time></trkpt><trkpt lat="43.235962" lon="12.5518102"><ele>637.5999999999999</ele><time>2026-03-24T10:42:40.493Z</time></trkpt><trkpt lat="43.2360246" lon="12.5519108"><ele>635.8</ele><time>2026-03-24T10:42:41.494Z</time></trkpt><trkpt lat="43.2360864" lon="12.5519931"><ele>634.0</ele><time>2026-03-24T10:42:42.494Z</time></trkpt><trkpt lat="43.2361496" lon="12.5520687"><ele>632.8</ele><time>2026-03-24T10:42:43.495Z</time></trkpt><trkpt lat="43.2362139" lon="12.552126"><ele>631.5999999999999</ele><time>2026-03-24T10:42:44.493Z</time></trkpt><trkpt lat="43.2362886" lon="12.5521845"><ele>630.4</ele><time>2026-03-24T10:42:45.493Z</time></trkpt><trkpt lat="43.2363825" lon="12.5522433"><ele>629.1999999999999</ele><time>2026-03-24T10:42:46.494Z</time></trkpt><trkpt lat="43.2364894" lon="12.5522818"><ele>628.0</ele><time>2026-03-24T10:42:47.493Z</time></trkpt><trkpt lat="43.2365849" lon="12.5523208"><ele>625.6</ele><time>2026-03-24T10:42:48.493Z</time></trkpt><trkpt lat="43.2366776" lon="12.552338"><ele>623.1999999999999</ele><time>2026-03-24T10:42:49.493Z</time></trkpt><trkpt lat="43.2367695" lon="12.5523948"><ele>620.8</ele><time>2026-03-24T10:42:50.494Z</time></trkpt><trkpt lat="43.2368494" lon="12.5524533"><ele>618.4</ele><time>2026-03-24T10:42:51.493Z</time></trkpt><trkpt lat="43.2369237" lon="12.5525293"><ele>616.0</ele><time>2026-03-24T10:42:52.494Z</time></trkpt><trkpt lat="43.236974" lon="12.5526545"><ele>616.0</ele><time>2026-03-24T10:42:53.493Z</time></trkpt><trkpt lat="43.2370052" lon="12.552758"><ele>616.0</ele><time>2026-03-24T10:42:54.493Z</time></trkpt><trkpt lat="43.2370299" lon="12.552882"><ele>616.0</ele><time>2026-03-24T10:42:55.494Z</time></trkpt><trkpt lat="43.2370463" lon="12.5530101"><ele>616.0</ele><time>2026-03-24T10:42:56.493Z</time></trkpt><trkpt lat="43.2370612" lon="12.5531341"><ele>616.0</ele><time>2026-03-24T10:42:57.493Z</time></trkpt><trkpt lat="43.2371073" lon="12.5532233"><ele>616.0</ele><time>2026-03-24T10:42:58.494Z</time></trkpt><trkpt lat="43.2371753" lon="12.5533258"><ele>615.0</ele><time>2026-03-24T10:42:59.494Z</time></trkpt><trkpt lat="43.2372574" lon="12.5534462"><ele>614.0</ele><time>2026-03-24T10:43:00.494Z</time></trkpt><trkpt lat="43.2373393" lon="12.5535619"><ele>613.0</ele><time>2026-03-24T10:43:01.493Z</time></trkpt><trkpt lat="43.2374148" lon="12.5536936"><ele>612.0</ele><time>2026-03-24T10:43:02.494Z</time></trkpt><trkpt lat="43.2374919" lon="12.5538014"><ele>610.0</ele><time>2026-03-24T10:43:03.493Z</time></trkpt><trkpt lat="43.2375652" lon="12.5539113"><ele>608.0</ele><time>2026-03-24T10:43:04.494Z</time></trkpt><trkpt lat="43.2376345" lon="12.5540289"><ele>606.0</ele><time>2026-03-24T10:43:05.494Z</time></trkpt><trkpt lat="43.2376905" lon="12.554139"><ele>604.0</ele><time>2026-03-24T10:43:06.493Z</time></trkpt><trkpt lat="43.2377399" lon="12.5542414"><ele>602.0</ele><time>2026-03-24T10:43:07.493Z</time></trkpt><trkpt lat="43.2377803" lon="12.5543334"><ele>602.0</ele><time>2026-03-24T10:43:08.493Z</time></trkpt><trkpt lat="43.2378175" lon="12.5544264"><ele>602.0</ele><time>2026-03-24T10:43:09.493Z</time></trkpt><trkpt lat="43.2378579" lon="12.5544945"><ele>602.0</ele><time>2026-03-24T10:43:10.493Z</time></trkpt><trkpt lat="43.2379488" lon="12.5545879"><ele>602.0</ele><time>2026-03-24T10:43:12.493Z</time></trkpt><trkpt lat="43.2379918" lon="12.5546559"><ele>602.0</ele><time>2026-03-24T10:43:15.494Z</time></trkpt><trkpt lat="43.2379355" lon="12.5547063"><ele>602.0</ele><time>2026-03-24T10:43:18.494Z</time></trkpt><trkpt lat="43.2378505" lon="12.5546441"><ele>602.0</ele><time>2026-03-24T10:43:20.494Z</time></trkpt><trkpt lat="43.2377542" lon="12.5545033"><ele>602.0</ele><time>2026-03-24T10:43:22.493Z</time></trkpt><trkpt lat="43.2376915" lon="12.5544012"><ele>602.0</ele><time>2026-03-24T10:43:23.494Z</time></trkpt><trkpt lat="43.2376171" lon="12.5543018"><ele>602.0</ele><time>2026-03-24T10:43:24.493Z</time></trkpt><trkpt lat="43.2375306" lon="12.5542497"><ele>602.0</ele><time>2026-03-24T10:43:25.493Z</time></trkpt><trkpt lat="43.2374441" lon="12.5542617"><ele>602.0</ele><time>2026-03-24T10:43:26.493Z</time></trkpt><trkpt lat="43.2373649" lon="12.5543346"><ele>602.0</ele><time>2026-03-24T10:43:27.493Z</time></trkpt><trkpt lat="43.2372923" lon="12.5544222"><ele>602.0</ele><time>2026-03-24T10:43:28.494Z</time></trkpt><trkpt lat="43.2373151" lon="12.5545948"><ele>602.0</ele><time>2026-03-24T10:43:29.494Z</time></trkpt><trkpt lat="43.2373652" lon="12.5547343"><ele>602.0</ele><time>2026-03-24T10:43:30.495Z</time></trkpt><trkpt lat="43.2374464" lon="12.5548509"><ele>604.5</ele><time>2026-03-24T10:43:31.494Z</time></trkpt><trkpt lat="43.2375282" lon="12.5549796"><ele>607.0</ele><time>2026-03-24T10:43:32.494Z</time></trkpt><trkpt lat="43.2375839" lon="12.5551292"><ele>609.5</ele><time>2026-03-24T10:43:33.493Z</time></trkpt><trkpt lat="43.2376196" lon="12.5552753"><ele>612.0</ele><time>2026-03-24T10:43:34.493Z</time></trkpt><trkpt lat="43.2376312" lon="12.5554114"><ele>612.3333333333334</ele><time>2026-03-24T10:43:35.493Z</time></trkpt><trkpt lat="43.2376094" lon="12.5555782"><ele>612.6666666666667</ele><time>2026-03-24T10:43:36.493Z</time></trkpt><trkpt lat="43.2375549" lon="12.5557698"><ele>613.0</ele><time>2026-03-24T10:43:37.494Z</time></trkpt><trkpt lat="43.2374919" lon="12.5559984"><ele>610.6666666666667</ele><time>2026-03-24T10:43:38.494Z</time></trkpt><trkpt lat="43.2373879" lon="12.5562446"><ele>608.3333333333334</ele><time>2026-03-24T10:43:39.494Z</time></trkpt><trkpt lat="43.2372924" lon="12.5564797"><ele>606.0</ele><time>2026-03-24T10:43:40.494Z</time></trkpt><trkpt lat="43.2371838" lon="12.5566881"><ele>612.6666666666666</ele><time>2026-03-24T10:43:41.495Z</time></trkpt><trkpt lat="43.2370759" lon="12.5568955"><ele>619.3333333333333</ele><time>2026-03-24T10:43:42.494Z</time></trkpt><trkpt lat="43.2368916" lon="12.5570383"><ele>626.0</ele><time>2026-03-24T10:43:43.495Z</time></trkpt><trkpt lat="43.236752" lon="12.5572233"><ele>626.0</ele><time>2026-03-24T10:43:44.493Z</time></trkpt><trkpt lat="43.2366203" lon="12.5574186"><ele>626.0</ele><time>2026-03-24T10:43:45.494Z</time></trkpt><trkpt lat="43.2365512" lon="12.5576872"><ele>626.0</ele><time>2026-03-24T10:43:46.494Z</time></trkpt><trkpt lat="43.2365081" lon="12.5579799"><ele>625.5</ele><time>2026-03-24T10:43:47.494Z</time></trkpt><trkpt lat="43.2364789" lon="12.558291"><ele>625.0</ele><time>2026-03-24T10:43:48.494Z</time></trkpt><trkpt lat="43.2364485" lon="12.5586133"><ele>633.3333333333334</ele><time>2026-03-24T10:43:49.494Z</time></trkpt><trkpt lat="43.2364303" lon="12.5589012"><ele>641.6666666666666</ele><time>2026-03-24T10:43:50.493Z</time></trkpt><trkpt lat="43.2364164" lon="12.5591627"><ele>650.0</ele><time>2026-03-24T10:43:51.494Z</time></trkpt><trkpt lat="43.2364085" lon="12.5594016"><ele>648.75</ele><time>2026-03-24T10:43:52.493Z</time></trkpt><trkpt lat="43.2364018" lon="12.5596301"><ele>647.5</ele><time>2026-03-24T10:43:53.496Z</time></trkpt><trkpt lat="43.236405" lon="12.559827"><ele>646.25</ele><time>2026-03-24T10:43:54.495Z</time></trkpt><trkpt lat="43.2363744" lon="12.5600101"><ele>645.0</ele><time>2026-03-24T10:43:55.494Z</time></trkpt><trkpt lat="43.2363382" lon="12.5601961"><ele>645.0</ele><time>2026-03-24T10:43:56.494Z</time></trkpt><trkpt lat="43.2362747" lon="12.5603281"><ele>645.0</ele><time>2026-03-24T10:43:57.495Z</time></trkpt><trkpt lat="43.2361989" lon="12.5604542"><ele>645.0</ele><time>2026-03-24T10:43:58.493Z</time></trkpt><trkpt lat="43.2360845" lon="12.5605018"><ele>645.0</ele><time>2026-03-24T10:43:59.495Z</time></trkpt><trkpt lat="43.2359103" lon="12.5603522"><ele>645.0</ele><time>2026-03-24T10:44:00.494Z</time></trkpt><trkpt lat="43.2357539" lon="12.5602817"><ele>645.0</ele><time>2026-03-24T10:44:01.494Z</time></trkpt><trkpt lat="43.2355897" lon="12.5602067"><ele>645.0</ele><time>2026-03-24T10:44:02.494Z</time></trkpt><trkpt lat="43.2353951" lon="12.5601274"><ele>647.6666666666666</ele><time>2026-03-24T10:44:03.495Z</time></trkpt><trkpt lat="43.2352065" lon="12.5600725"><ele>650.3333333333333</ele><time>2026-03-24T10:44:04.493Z</time></trkpt><trkpt lat="43.2350175" lon="12.5600351"><ele>653.0</ele><time>2026-03-24T10:44:05.494Z</time></trkpt><trkpt lat="43.2348395" lon="12.5600495"><ele>654.0</ele><time>2026-03-24T10:44:06.493Z</time></trkpt><trkpt lat="43.234665" lon="12.560112"><ele>655.0</ele><time>2026-03-24T10:44:07.494Z</time></trkpt><trkpt lat="43.2345022" lon="12.5601421"><ele>656.0</ele><time>2026-03-24T10:44:08.494Z</time></trkpt><trkpt lat="43.2343282" lon="12.5601502"><ele>656.0</ele><time>2026-03-24T10:44:09.494Z</time></trkpt><trkpt lat="43.234203" lon="12.560033"><ele>656.0</ele><time>2026-03-24T10:44:10.496Z</time></trkpt><trkpt lat="43.2340502" lon="12.5599555"><ele>656.0</ele><time>2026-03-24T10:44:11.494Z</time></trkpt><trkpt lat="43.2338866" lon="12.5598414"><ele>653.75</ele><time>2026-03-24T10:44:12.495Z</time></trkpt><trkpt lat="43.2337238" lon="12.559778"><ele>651.5</ele><time>2026-03-24T10:44:13.494Z</time></trkpt><trkpt lat="43.2335798" lon="12.5596967"><ele>649.25</ele><time>2026-03-24T10:44:14.493Z</time></trkpt><trkpt lat="43.2334711" lon="12.5596636"><ele>647.0</ele><time>2026-03-24T10:44:15.495Z</time></trkpt><trkpt lat="43.2333477" lon="12.5596326"><ele>647.0</ele><time>2026-03-24T10:44:16.495Z</time></trkpt><trkpt lat="43.2332091" lon="12.5596403"><ele>647.0</ele><time>2026-03-24T10:44:17.493Z</time></trkpt><trkpt lat="43.2330921" lon="12.5596313"><ele>647.0</ele><time>2026-03-24T10:44:18.493Z</time></trkpt><trkpt lat="43.2329969" lon="12.5596245"><ele>647.0</ele><time>2026-03-24T10:44:19.495Z</time></trkpt><trkpt lat="43.2329133" lon="12.5596196"><ele>647.0</ele><time>2026-03-24T10:44:20.494Z</time></trkpt><trkpt lat="43.2328104" lon="12.5596103"><ele>646.5</ele><time>2026-03-24T10:44:21.494Z</time></trkpt><trkpt lat="43.2326848" lon="12.5596079"><ele>646.0</ele><time>2026-03-24T10:44:22.495Z</time></trkpt><trkpt lat="43.2325701" lon="12.5596"><ele>645.5</ele><time>2026-03-24T10:44:23.495Z</time></trkpt><trkpt lat="43.2324739" lon="12.5595971"><ele>645.0</ele><time>2026-03-24T10:44:24.494Z</time></trkpt><trkpt lat="43.2323597" lon="12.5595794"><ele>644.75</ele><time>2026-03-24T10:44:25.493Z</time></trkpt><trkpt lat="43.2322287" lon="12.5595792"><ele>644.5</ele><time>2026-03-24T10:44:26.494Z</time></trkpt><trkpt lat="43.2321148" lon="12.5595571"><ele>644.25</ele><time>2026-03-24T10:44:27.494Z</time></trkpt><trkpt lat="43.2320079" lon="12.5595205"><ele>644.0</ele><time>2026-03-24T10:44:28.494Z</time></trkpt><trkpt lat="43.2318745" lon="12.5594861"><ele>646.5</ele><time>2026-03-24T10:44:29.494Z</time></trkpt><trkpt lat="43.2317521" lon="12.5594376"><ele>649.0</ele><time>2026-03-24T10:44:30.493Z</time></trkpt><trkpt lat="43.2316315" lon="12.5593828"><ele>651.5</ele><time>2026-03-24T10:44:31.493Z</time></trkpt><trkpt lat="43.2315015" lon="12.5593282"><ele>654.0</ele><time>2026-03-24T10:44:32.494Z</time></trkpt><trkpt lat="43.2313692" lon="12.5592705"><ele>654.0</ele><time>2026-03-24T10:44:33.493Z</time></trkpt><trkpt lat="43.2312239" lon="12.5592216"><ele>654.0</ele><time>2026-03-24T10:44:34.495Z</time></trkpt><trkpt lat="43.2310806" lon="12.5591427"><ele>654.0</ele><time>2026-03-24T10:44:35.494Z</time></trkpt><trkpt lat="43.2309358" lon="12.5590816"><ele>654.0</ele><time>2026-03-24T10:44:36.493Z</time></trkpt><trkpt lat="43.2307869" lon="12.5590248"><ele>654.0</ele><time>2026-03-24T10:44:37.494Z</time></trkpt><trkpt lat="43.230624" lon="12.5589698"><ele>654.0</ele><time>2026-03-24T10:44:38.493Z</time></trkpt><trkpt lat="43.2304931" lon="12.5589079"><ele>655.0</ele><time>2026-03-24T10:44:39.494Z</time></trkpt><trkpt lat="43.2303656" lon="12.5588543"><ele>656.0</ele><time>2026-03-24T10:44:40.493Z</time></trkpt><trkpt lat="43.2302375" lon="12.5587908"><ele>657.0</ele><time>2026-03-24T10:44:41.494Z</time></trkpt><trkpt lat="43.2301077" lon="12.5587279"><ele>658.0</ele><time>2026-03-24T10:44:42.493Z</time></trkpt><trkpt lat="43.2299796" lon="12.5586723"><ele>658.25</ele><time>2026-03-24T10:44:43.494Z</time></trkpt><trkpt lat="43.2298353" lon="12.5586259"><ele>658.5</ele><time>2026-03-24T10:44:44.493Z</time></trkpt><trkpt lat="43.2297211" lon="12.5585484"><ele>658.75</ele><time>2026-03-24T10:44:45.494Z</time></trkpt><trkpt lat="43.2296073" lon="12.5584555"><ele>659.0</ele><time>2026-03-24T10:44:46.494Z</time></trkpt><trkpt lat="43.2294997" lon="12.5583245"><ele>659.0</ele><time>2026-03-24T10:44:47.494Z</time></trkpt><trkpt lat="43.229401" lon="12.558182"><ele>659.0</ele><time>2026-03-24T10:44:48.495Z</time></trkpt><trkpt lat="43.22931" lon="12.5580203"><ele>659.0</ele><time>2026-03-24T10:44:49.493Z</time></trkpt><trkpt lat="43.2292419" lon="12.557747"><ele>660.0</ele><time>2026-03-24T10:44:50.495Z</time></trkpt><trkpt lat="43.2291799" lon="12.5575102"><ele>661.0</ele><time>2026-03-24T10:44:51.494Z</time></trkpt><trkpt lat="43.2291563" lon="12.5572676"><ele>662.0</ele><time>2026-03-24T10:44:52.494Z</time></trkpt><trkpt lat="43.2291556" lon="12.5570403"><ele>663.3333333333333</ele><time>2026-03-24T10:44:53.494Z</time></trkpt><trkpt lat="43.2291602" lon="12.5568128"><ele>664.6666666666666</ele><time>2026-03-24T10:44:54.494Z</time></trkpt><trkpt lat="43.2292223" lon="12.5565954"><ele>666.0</ele><time>2026-03-24T10:44:55.495Z</time></trkpt><trkpt lat="43.2293057" lon="12.5563847"><ele>662.6666666666666</ele><time>2026-03-24T10:44:56.493Z</time></trkpt><trkpt lat="43.2294206" lon="12.5561537"><ele>659.3333333333333</ele><time>2026-03-24T10:44:57.495Z</time></trkpt><trkpt lat="43.2295045" lon="12.555883"><ele>656.0</ele><time>2026-03-24T10:44:58.495Z</time></trkpt><trkpt lat="43.2295819" lon="12.5556285"><ele>655.0</ele><time>2026-03-24T10:44:59.493Z</time></trkpt><trkpt lat="43.2296433" lon="12.5553324"><ele>654.0</ele><time>2026-03-24T10:45:00.494Z</time></trkpt><trkpt lat="43.2296905" lon="12.5550494"><ele>653.0</ele><time>2026-03-24T10:45:01.495Z</time></trkpt><trkpt lat="43.2297656" lon="12.5547786"><ele>653.0</ele><time>2026-03-24T10:45:02.494Z</time></trkpt><trkpt lat="43.2297658" lon="12.5545432"><ele>653.0</ele><time>2026-03-24T10:45:03.494Z</time></trkpt><trkpt lat="43.2297018" lon="12.5543009"><ele>653.0</ele><time>2026-03-24T10:45:04.494Z</time></trkpt><trkpt lat="43.229589" lon="12.5540795"><ele>654.3333333333333</ele><time>2026-03-24T10:45:05.495Z</time></trkpt><trkpt lat="43.2294363" lon="12.5538631"><ele>655.6666666666666</ele><time>2026-03-24T10:45:06.493Z</time></trkpt><trkpt lat="43.2292688" lon="12.5536741"><ele>657.0</ele><time>2026-03-24T10:45:07.493Z</time></trkpt><trkpt lat="43.2290693" lon="12.5534864"><ele>655.0</ele><time>2026-03-24T10:45:08.493Z</time></trkpt><trkpt lat="43.2288784" lon="12.5532829"><ele>653.0</ele><time>2026-03-24T10:45:09.494Z</time></trkpt><trkpt lat="43.228692" lon="12.5530836"><ele>653.0</ele><time>2026-03-24T10:45:10.495Z</time></trkpt><trkpt lat="43.228517" lon="12.5529573"><ele>653.0</ele><time>2026-03-24T10:45:11.495Z</time></trkpt><trkpt lat="43.2282979" lon="12.5528643"><ele>653.0</ele><time>2026-03-24T10:45:12.495Z</time></trkpt><trkpt lat="43.2280483" lon="12.5528129"><ele>658.0</ele><time>2026-03-24T10:45:13.494Z</time></trkpt><trkpt lat="43.2278071" lon="12.5528135"><ele>663.0</ele><time>2026-03-24T10:45:14.494Z</time></trkpt><trkpt lat="43.2275428" lon="12.5528228"><ele>663.5</ele><time>2026-03-24T10:45:15.494Z</time></trkpt><trkpt lat="43.2272699" lon="12.5528183"><ele>664.0</ele><time>2026-03-24T10:45:16.493Z</time></trkpt><trkpt lat="43.2269914" lon="12.5528158"><ele>664.0</ele><time>2026-03-24T10:45:17.493Z</time></trkpt><trkpt lat="43.2267224" lon="12.5528391"><ele>664.0</ele><time>2026-03-24T10:45:18.495Z</time></trkpt><trkpt lat="43.2264699" lon="12.5528711"><ele>657.5</ele><time>2026-03-24T10:45:19.494Z</time></trkpt><trkpt lat="43.2262287" lon="12.5529111"><ele>651.0</ele><time>2026-03-24T10:45:20.496Z</time></trkpt><trkpt lat="43.2260008" lon="12.5529456"><ele>651.0</ele><time>2026-03-24T10:45:21.496Z</time></trkpt><trkpt lat="43.2258024" lon="12.5529703"><ele>651.0</ele><time>2026-03-24T10:45:22.494Z</time></trkpt><trkpt lat="43.2256097" lon="12.5529354"><ele>651.0</ele><time>2026-03-24T10:45:23.494Z</time></trkpt><trkpt lat="43.2254054" lon="12.5528664"><ele>656.5</ele><time>2026-03-24T10:45:24.494Z</time></trkpt><trkpt lat="43.2251916" lon="12.552748"><ele>662.0</ele><time>2026-03-24T10:45:25.493Z</time></trkpt><trkpt lat="43.2249926" lon="12.5525701"><ele>654.5</ele><time>2026-03-24T10:45:26.494Z</time></trkpt><trkpt lat="43.2247817" lon="12.5523849"><ele>647.0</ele><time>2026-03-24T10:45:27.495Z</time></trkpt><trkpt lat="43.2245702" lon="12.5521971"><ele>647.0</ele><time>2026-03-24T10:45:28.493Z</time></trkpt><trkpt lat="43.2243706" lon="12.5520542"><ele>647.0</ele><time>2026-03-24T10:45:29.494Z</time></trkpt><trkpt lat="43.2241999" lon="12.5519159"><ele>647.0</ele><time>2026-03-24T10:45:30.494Z</time></trkpt><trkpt lat="43.2240276" lon="12.5517892"><ele>649.6666666666666</ele><time>2026-03-24T10:45:31.495Z</time></trkpt><trkpt lat="43.2238794" lon="12.5516525"><ele>652.3333333333334</ele><time>2026-03-24T10:45:32.493Z</time></trkpt><trkpt lat="43.2237506" lon="12.5515082"><ele>655.0</ele><time>2026-03-24T10:45:33.495Z</time></trkpt><trkpt lat="43.2236743" lon="12.551309"><ele>656.3333333333334</ele><time>2026-03-24T10:45:34.494Z</time></trkpt><trkpt lat="43.2236107" lon="12.5510959"><ele>657.6666666666666</ele><time>2026-03-24T10:45:35.494Z</time></trkpt><trkpt lat="43.2235537" lon="12.5508709"><ele>659.0</ele><time>2026-03-24T10:45:36.494Z</time></trkpt><trkpt lat="43.2235344" lon="12.5505998"><ele>659.3333333333333</ele><time>2026-03-24T10:45:37.495Z</time></trkpt><trkpt lat="43.2234916" lon="12.5503701"><ele>659.6666666666666</ele><time>2026-03-24T10:45:38.493Z</time></trkpt><trkpt lat="43.2234534" lon="12.5501514"><ele>660.0</ele><time>2026-03-24T10:45:39.493Z</time></trkpt><trkpt lat="43.2233927" lon="12.5499477"><ele>660.0</ele><time>2026-03-24T10:45:40.493Z</time></trkpt><trkpt lat="43.2233404" lon="12.5497635"><ele>660.0</ele><time>2026-03-24T10:45:41.493Z</time></trkpt><trkpt lat="43.2232818" lon="12.5495746"><ele>660.0</ele><time>2026-03-24T10:45:42.493Z</time></trkpt><trkpt lat="43.2232169" lon="12.5493913"><ele>660.0</ele><time>2026-03-24T10:45:43.495Z</time></trkpt><trkpt lat="43.2231351" lon="12.5491873"><ele>656.0</ele><time>2026-03-24T10:45:44.495Z</time></trkpt><trkpt lat="43.2230642" lon="12.5489782"><ele>652.0</ele><time>2026-03-24T10:45:45.495Z</time></trkpt><trkpt lat="43.22301" lon="12.548764"><ele>648.0</ele><time>2026-03-24T10:45:46.495Z</time></trkpt><trkpt lat="43.2229592" lon="12.5485459"><ele>648.0</ele><time>2026-03-24T10:45:47.493Z</time></trkpt><trkpt lat="43.2229123" lon="12.5483198"><ele>648.0</ele><time>2026-03-24T10:45:48.494Z</time></trkpt><trkpt lat="43.2228875" lon="12.5480739"><ele>648.0</ele><time>2026-03-24T10:45:49.493Z</time></trkpt><trkpt lat="43.2228904" lon="12.5478033"><ele>647.0</ele><time>2026-03-24T10:45:50.494Z</time></trkpt><trkpt lat="43.2228901" lon="12.5475195"><ele>646.0</ele><time>2026-03-24T10:45:51.493Z</time></trkpt><trkpt lat="43.2228916" lon="12.5472274"><ele>645.0</ele><time>2026-03-24T10:45:52.494Z</time></trkpt><trkpt lat="43.2228913" lon="12.5469502"><ele>644.0</ele><time>2026-03-24T10:45:53.494Z</time></trkpt><trkpt lat="43.2228536" lon="12.546685"><ele>643.0</ele><time>2026-03-24T10:45:54.493Z</time></trkpt><trkpt lat="43.2227723" lon="12.546428"><ele>642.0</ele><time>2026-03-24T10:45:55.495Z</time></trkpt><trkpt lat="43.2226751" lon="12.546175"><ele>642.0</ele><time>2026-03-24T10:45:56.494Z</time></trkpt><trkpt lat="43.2225641" lon="12.545937"><ele>642.0</ele><time>2026-03-24T10:45:57.495Z</time></trkpt><trkpt lat="43.2224653" lon="12.5457063"><ele>642.0</ele><time>2026-03-24T10:45:58.494Z</time></trkpt><trkpt lat="43.2223984" lon="12.5454603"><ele>641.3333333333334</ele><time>2026-03-24T10:45:59.494Z</time></trkpt><trkpt lat="43.2223525" lon="12.5452337"><ele>640.6666666666667</ele><time>2026-03-24T10:46:00.494Z</time></trkpt><trkpt lat="43.2223669" lon="12.5450021"><ele>640.0</ele><time>2026-03-24T10:46:01.494Z</time></trkpt><trkpt lat="43.222418" lon="12.5447865"><ele>640.0</ele><time>2026-03-24T10:46:02.495Z</time></trkpt><trkpt lat="43.2224712" lon="12.5445642"><ele>640.0</ele><time>2026-03-24T10:46:03.496Z</time></trkpt><trkpt lat="43.2225802" lon="12.544376"><ele>640.0</ele><time>2026-03-24T10:46:04.495Z</time></trkpt><trkpt lat="43.2226052" lon="12.5441677"><ele>636.6666666666667</ele><time>2026-03-24T10:46:05.493Z</time></trkpt><trkpt lat="43.2225883" lon="12.5439694"><ele>633.3333333333334</ele><time>2026-03-24T10:46:06.493Z</time></trkpt><trkpt lat="43.2225189" lon="12.5437688"><ele>630.0</ele><time>2026-03-24T10:46:07.495Z</time></trkpt><trkpt lat="43.2224098" lon="12.5435343"><ele>625.0</ele><time>2026-03-24T10:46:08.493Z</time></trkpt><trkpt lat="43.2222938" lon="12.543289"><ele>620.0</ele><time>2026-03-24T10:46:09.494Z</time></trkpt><trkpt lat="43.2221811" lon="12.5430377"><ele>615.0</ele><time>2026-03-24T10:46:10.494Z</time></trkpt><trkpt lat="43.2220534" lon="12.5427768"><ele>615.0</ele><time>2026-03-24T10:46:11.494Z</time></trkpt><trkpt lat="43.2219163" lon="12.5425268"><ele>615.0</ele><time>2026-03-24T10:46:12.494Z</time></trkpt><trkpt lat="43.2217597" lon="12.5423011"><ele>615.0</ele><time>2026-03-24T10:46:13.494Z</time></trkpt><trkpt lat="43.2215826" lon="12.5421046"><ele>615.0</ele><time>2026-03-24T10:46:14.494Z</time></trkpt><trkpt lat="43.2214001" lon="12.5419134"><ele>618.0</ele><time>2026-03-24T10:46:15.494Z</time></trkpt><trkpt lat="43.2212635" lon="12.5417153"><ele>621.0</ele><time>2026-03-24T10:46:16.494Z</time></trkpt><trkpt lat="43.2211411" lon="12.5414651"><ele>624.0</ele><time>2026-03-24T10:46:17.494Z</time></trkpt><trkpt lat="43.2210339" lon="12.5411925"><ele>625.0</ele><time>2026-03-24T10:46:18.494Z</time></trkpt><trkpt lat="43.2209354" lon="12.5409225"><ele>626.0</ele><time>2026-03-24T10:46:19.495Z</time></trkpt><trkpt lat="43.2208717" lon="12.540689"><ele>627.0</ele><time>2026-03-24T10:46:20.494Z</time></trkpt><trkpt lat="43.2207932" lon="12.5404531"><ele>625.6666666666666</ele><time>2026-03-24T10:46:21.495Z</time></trkpt><trkpt lat="43.2207189" lon="12.5402204"><ele>624.3333333333333</ele><time>2026-03-24T10:46:22.494Z</time></trkpt><trkpt lat="43.2206492" lon="12.5400079"><ele>623.0</ele><time>2026-03-24T10:46:23.494Z</time></trkpt><trkpt lat="43.2205449" lon="12.5398199"><ele>623.0</ele><time>2026-03-24T10:46:24.493Z</time></trkpt><trkpt lat="43.2204249" lon="12.5396335"><ele>623.0</ele><time>2026-03-24T10:46:25.494Z</time></trkpt><trkpt lat="43.2202878" lon="12.5394421"><ele>623.0</ele><time>2026-03-24T10:46:26.493Z</time></trkpt><trkpt lat="43.2201516" lon="12.5392392"><ele>622.6666666666666</ele><time>2026-03-24T10:46:27.494Z</time></trkpt><trkpt lat="43.2200362" lon="12.5390536"><ele>622.3333333333334</ele><time>2026-03-24T10:46:28.494Z</time></trkpt><trkpt lat="43.219937" lon="12.5388639"><ele>622.0</ele><time>2026-03-24T10:46:29.494Z</time></trkpt><trkpt lat="43.2198299" lon="12.5386605"><ele>622.6666666666667</ele><time>2026-03-24T10:46:30.494Z</time></trkpt><trkpt lat="43.2197453" lon="12.538486"><ele>623.3333333333334</ele><time>2026-03-24T10:46:31.494Z</time></trkpt><trkpt lat="43.2196626" lon="12.5383035"><ele>624.0</ele><time>2026-03-24T10:46:32.495Z</time></trkpt><trkpt lat="43.2195885" lon="12.5381342"><ele>624.0</ele><time>2026-03-24T10:46:33.493Z</time></trkpt><trkpt lat="43.2195033" lon="12.5379737"><ele>624.0</ele><time>2026-03-24T10:46:34.494Z</time></trkpt><trkpt lat="43.2194116" lon="12.5378479"><ele>624.0</ele><time>2026-03-24T10:46:35.494Z</time></trkpt><trkpt lat="43.219319" lon="12.5377081"><ele>624.0</ele><time>2026-03-24T10:46:36.495Z</time></trkpt><trkpt lat="43.2192237" lon="12.5375999"><ele>624.8</ele><time>2026-03-24T10:46:37.494Z</time></trkpt><trkpt lat="43.2191278" lon="12.5374954"><ele>625.5999999999999</ele><time>2026-03-24T10:46:38.494Z</time></trkpt><trkpt lat="43.2190475" lon="12.5374068"><ele>626.4</ele><time>2026-03-24T10:46:39.494Z</time></trkpt><trkpt lat="43.2189713" lon="12.5373427"><ele>627.1999999999999</ele><time>2026-03-24T10:46:40.494Z</time></trkpt><trkpt lat="43.2188952" lon="12.5372745"><ele>628.0</ele><time>2026-03-24T10:46:41.493Z</time></trkpt><trkpt lat="43.2188318" lon="12.5372148"><ele>628.0</ele><time>2026-03-24T10:46:42.494Z</time></trkpt><trkpt lat="43.2187332" lon="12.5371278"><ele>628.0</ele><time>2026-03-24T10:46:44.493Z</time></trkpt><trkpt lat="43.2186589" lon="12.5370551"><ele>628.0</ele><time>2026-03-24T10:46:46.493Z</time></trkpt><trkpt lat="43.2185986" lon="12.5369926"><ele>628.0</ele><time>2026-03-24T10:46:48.495Z</time></trkpt><trkpt lat="43.2185212" lon="12.5369267"><ele>628.0</ele><time>2026-03-24T10:46:51.493Z</time></trkpt><trkpt lat="43.2184365" lon="12.5368307"><ele>629.25</ele><time>2026-03-24T10:46:53.493Z</time></trkpt><trkpt lat="43.2183635" lon="12.5367631"><ele>630.5</ele><time>2026-03-24T10:46:54.495Z</time></trkpt><trkpt lat="43.2182822" lon="12.536682"><ele>631.75</ele><time>2026-03-24T10:46:55.493Z</time></trkpt><trkpt lat="43.2181796" lon="12.5365748"><ele>633.0</ele><time>2026-03-24T10:46:56.493Z</time></trkpt><trkpt lat="43.2180637" lon="12.5364542"><ele>633.3333333333334</ele><time>2026-03-24T10:46:57.494Z</time></trkpt><trkpt lat="43.2179428" lon="12.5363115"><ele>633.6666666666667</ele><time>2026-03-24T10:46:58.494Z</time></trkpt><trkpt lat="43.2178275" lon="12.5361458"><ele>634.0</ele><time>2026-03-24T10:46:59.495Z</time></trkpt><trkpt lat="43.2176969" lon="12.5359621"><ele>634.3333333333334</ele><time>2026-03-24T10:47:00.495Z</time></trkpt><trkpt lat="43.2175565" lon="12.5357797"><ele>634.6666666666666</ele><time>2026-03-24T10:47:01.493Z</time></trkpt><trkpt lat="43.21739" lon="12.5356068"><ele>635.0</ele><time>2026-03-24T10:47:02.495Z</time></trkpt><trkpt lat="43.2172191" lon="12.5354377"><ele>629.5</ele><time>2026-03-24T10:47:03.493Z</time></trkpt><trkpt lat="43.2170284" lon="12.5352637"><ele>624.0</ele><time>2026-03-24T10:47:04.494Z</time></trkpt><trkpt lat="43.2168282" lon="12.5350713"><ele>624.0</ele><time>2026-03-24T10:47:05.494Z</time></trkpt><trkpt lat="43.2166332" lon="12.5348935"><ele>624.0</ele><time>2026-03-24T10:47:06.495Z</time></trkpt><trkpt lat="43.216448" lon="12.5347193"><ele>624.6666666666666</ele><time>2026-03-24T10:47:07.493Z</time></trkpt><trkpt lat="43.2162744" lon="12.5345548"><ele>625.3333333333333</ele><time>2026-03-24T10:47:08.494Z</time></trkpt><trkpt lat="43.2160911" lon="12.5343749"><ele>626.0</ele><time>2026-03-24T10:47:09.495Z</time></trkpt><trkpt lat="43.2159087" lon="12.5341784"><ele>626.0</ele><time>2026-03-24T10:47:10.495Z</time></trkpt><trkpt lat="43.2157262" lon="12.5339647"><ele>626.0</ele><time>2026-03-24T10:47:11.495Z</time></trkpt><trkpt lat="43.2155472" lon="12.5337563"><ele>621.5</ele><time>2026-03-24T10:47:12.494Z</time></trkpt><trkpt lat="43.2153744" lon="12.5335505"><ele>617.0</ele><time>2026-03-24T10:47:13.494Z</time></trkpt><trkpt lat="43.2152185" lon="12.5333338"><ele>617.0</ele><time>2026-03-24T10:47:14.494Z</time></trkpt><trkpt lat="43.2150782" lon="12.5330815"><ele>617.0</ele><time>2026-03-24T10:47:15.495Z</time></trkpt><trkpt lat="43.2149469" lon="12.5328295"><ele>611.0</ele><time>2026-03-24T10:47:16.495Z</time></trkpt><trkpt lat="43.2148129" lon="12.5325759"><ele>605.0</ele><time>2026-03-24T10:47:17.494Z</time></trkpt><trkpt lat="43.2146596" lon="12.5323302"><ele>605.0</ele><time>2026-03-24T10:47:18.495Z</time></trkpt><trkpt lat="43.2144961" lon="12.532116"><ele>605.0</ele><time>2026-03-24T10:47:19.493Z</time></trkpt><trkpt lat="43.2143277" lon="12.5319215"><ele>605.0</ele><time>2026-03-24T10:47:20.495Z</time></trkpt><trkpt lat="43.214129" lon="12.5317612"><ele>606.5</ele><time>2026-03-24T10:47:21.495Z</time></trkpt><trkpt lat="43.213917" lon="12.5316301"><ele>608.0</ele><time>2026-03-24T10:47:22.495Z</time></trkpt><trkpt lat="43.2136811" lon="12.5315275"><ele>608.0</ele><time>2026-03-24T10:47:23.495Z</time></trkpt><trkpt lat="43.2134451" lon="12.531448"><ele>608.0</ele><time>2026-03-24T10:47:24.495Z</time></trkpt><trkpt lat="43.2132151" lon="12.531373"><ele>608.0</ele><time>2026-03-24T10:47:25.494Z</time></trkpt><trkpt lat="43.2129933" lon="12.5313009"><ele>608.0</ele><time>2026-03-24T10:47:26.494Z</time></trkpt><trkpt lat="43.212789" lon="12.5312265"><ele>608.0</ele><time>2026-03-24T10:47:27.495Z</time></trkpt><trkpt lat="43.2125626" lon="12.5311577"><ele>608.0</ele><time>2026-03-24T10:47:28.494Z</time></trkpt><trkpt lat="43.212362" lon="12.5310438"><ele>608.0</ele><time>2026-03-24T10:47:29.494Z</time></trkpt><trkpt lat="43.2121807" lon="12.5308729"><ele>608.0</ele><time>2026-03-24T10:47:30.494Z</time></trkpt><trkpt lat="43.2119911" lon="12.530658"><ele>609.5</ele><time>2026-03-24T10:47:31.495Z</time></trkpt><trkpt lat="43.2118173" lon="12.5304085"><ele>611.0</ele><time>2026-03-24T10:47:32.496Z</time></trkpt><trkpt lat="43.2116359" lon="12.5301607"><ele>613.0</ele><time>2026-03-24T10:47:33.495Z</time></trkpt><trkpt lat="43.2114414" lon="12.5299465"><ele>615.0</ele><time>2026-03-24T10:47:34.495Z</time></trkpt><trkpt lat="43.2112615" lon="12.5297496"><ele>615.0</ele><time>2026-03-24T10:47:35.495Z</time></trkpt><trkpt lat="43.2110868" lon="12.5295695"><ele>615.0</ele><time>2026-03-24T10:47:36.493Z</time></trkpt><trkpt lat="43.2109016" lon="12.52942"><ele>615.0</ele><time>2026-03-24T10:47:37.495Z</time></trkpt><trkpt lat="43.2107037" lon="12.5292952"><ele>610.0</ele><time>2026-03-24T10:47:38.494Z</time></trkpt><trkpt lat="43.2104977" lon="12.5291888"><ele>605.0</ele><time>2026-03-24T10:47:39.494Z</time></trkpt><trkpt lat="43.2102718" lon="12.5290895"><ele>605.0</ele><time>2026-03-24T10:47:40.494Z</time></trkpt><trkpt lat="43.2100347" lon="12.529006"><ele>605.0</ele><time>2026-03-24T10:47:41.495Z</time></trkpt><trkpt lat="43.2097917" lon="12.5288984"><ele>601.5</ele><time>2026-03-24T10:47:42.495Z</time></trkpt><trkpt lat="43.2095326" lon="12.5287947"><ele>598.0</ele><time>2026-03-24T10:47:43.494Z</time></trkpt><trkpt lat="43.2092865" lon="12.5286919"><ele>597.0</ele><time>2026-03-24T10:47:44.494Z</time></trkpt><trkpt lat="43.2090246" lon="12.528591"><ele>596.0</ele><time>2026-03-24T10:47:45.494Z</time></trkpt><trkpt lat="43.20879" lon="12.5285038"><ele>594.5</ele><time>2026-03-24T10:47:46.494Z</time></trkpt><trkpt lat="43.2085676" lon="12.5284115"><ele>593.0</ele><time>2026-03-24T10:47:47.494Z</time></trkpt><trkpt lat="43.2083458" lon="12.5282946"><ele>584.5</ele><time>2026-03-24T10:47:48.496Z</time></trkpt><trkpt lat="43.2081399" lon="12.5281534"><ele>576.0</ele><time>2026-03-24T10:47:49.495Z</time></trkpt><trkpt lat="43.2079741" lon="12.5279006"><ele>577.0</ele><time>2026-03-24T10:47:50.494Z</time></trkpt><trkpt lat="43.2078347" lon="12.5276515"><ele>578.0</ele><time>2026-03-24T10:47:51.495Z</time></trkpt><trkpt lat="43.2077151" lon="12.5273909"><ele>578.0</ele><time>2026-03-24T10:47:52.495Z</time></trkpt><trkpt lat="43.2075784" lon="12.527176"><ele>578.0</ele><time>2026-03-24T10:47:53.495Z</time></trkpt><trkpt lat="43.2074013" lon="12.5270267"><ele>578.0</ele><time>2026-03-24T10:47:54.495Z</time></trkpt><trkpt lat="43.2072158" lon="12.526892"><ele>580.5</ele><time>2026-03-24T10:47:55.494Z</time></trkpt><trkpt lat="43.2069742" lon="12.5269054"><ele>583.0</ele><time>2026-03-24T10:47:56.494Z</time></trkpt><trkpt lat="43.2067305" lon="12.5268622"><ele>582.5</ele><time>2026-03-24T10:47:57.494Z</time></trkpt><trkpt lat="43.2064766" lon="12.5268145"><ele>582.0</ele><time>2026-03-24T10:47:58.495Z</time></trkpt><trkpt lat="43.2062432" lon="12.5267605"><ele>582.0</ele><time>2026-03-24T10:47:59.494Z</time></trkpt><trkpt lat="43.2060252" lon="12.5266715"><ele>582.0</ele><time>2026-03-24T10:48:00.493Z</time></trkpt><trkpt lat="43.2058069" lon="12.5265535"><ele>576.5</ele><time>2026-03-24T10:48:01.494Z</time></trkpt><trkpt lat="43.2055762" lon="12.5263934"><ele>571.0</ele><time>2026-03-24T10:48:02.494Z</time></trkpt><trkpt lat="43.2053488" lon="12.5262232"><ele>570.0</ele><time>2026-03-24T10:48:03.494Z</time></trkpt><trkpt lat="43.2051127" lon="12.5260438"><ele>569.0</ele><time>2026-03-24T10:48:04.494Z</time></trkpt><trkpt lat="43.2048761" lon="12.5258644"><ele>565.0</ele><time>2026-03-24T10:48:05.493Z</time></trkpt><trkpt lat="43.2046554" lon="12.5256936"><ele>561.0</ele><time>2026-03-24T10:48:06.494Z</time></trkpt><trkpt lat="43.2044378" lon="12.5255318"><ele>563.5</ele><time>2026-03-24T10:48:07.494Z</time></trkpt><trkpt lat="43.2042549" lon="12.5253505"><ele>566.0</ele><time>2026-03-24T10:48:08.495Z</time></trkpt><trkpt lat="43.2040905" lon="12.5251402"><ele>570.5</ele><time>2026-03-24T10:48:09.494Z</time></trkpt><trkpt lat="43.2039806" lon="12.5248784"><ele>575.0</ele><time>2026-03-24T10:48:10.493Z</time></trkpt><trkpt lat="43.203898" lon="12.5245823"><ele>579.0</ele><time>2026-03-24T10:48:11.493Z</time></trkpt><trkpt lat="43.203798" lon="12.5242758"><ele>583.0</ele><time>2026-03-24T10:48:12.495Z</time></trkpt><trkpt lat="43.2036602" lon="12.5239867"><ele>583.0</ele><time>2026-03-24T10:48:13.493Z</time></trkpt><trkpt lat="43.2034823" lon="12.523734"><ele>583.0</ele><time>2026-03-24T10:48:14.494Z</time></trkpt><trkpt lat="43.2033051" lon="12.5234815"><ele>576.5</ele><time>2026-03-24T10:48:15.493Z</time></trkpt><trkpt lat="43.2031719" lon="12.5232261"><ele>570.0</ele><time>2026-03-24T10:48:16.494Z</time></trkpt><trkpt lat="43.2030745" lon="12.5229383"><ele>583.0</ele><time>2026-03-24T10:48:17.494Z</time></trkpt><trkpt lat="43.2030258" lon="12.5226191"><ele>596.0</ele><time>2026-03-24T10:48:18.494Z</time></trkpt><trkpt lat="43.2030049" lon="12.5222721"><ele>593.0</ele><time>2026-03-24T10:48:19.495Z</time></trkpt><trkpt lat="43.2029987" lon="12.5219587"><ele>590.0</ele><time>2026-03-24T10:48:20.494Z</time></trkpt><trkpt lat="43.2029753" lon="12.5216504"><ele>590.0</ele><time>2026-03-24T10:48:21.493Z</time></trkpt><trkpt lat="43.2029327" lon="12.5213464"><ele>590.0</ele><time>2026-03-24T10:48:22.494Z</time></trkpt><trkpt lat="43.2028516" lon="12.5210664"><ele>590.0</ele><time>2026-03-24T10:48:23.495Z</time></trkpt><trkpt lat="43.202739" lon="12.5208132"><ele>585.5</ele><time>2026-03-24T10:48:24.494Z</time></trkpt><trkpt lat="43.2025791" lon="12.5206072"><ele>581.0</ele><time>2026-03-24T10:48:25.495Z</time></trkpt><trkpt lat="43.2023799" lon="12.5204441"><ele>580.5</ele><time>2026-03-24T10:48:26.494Z</time></trkpt><trkpt lat="43.2021535" lon="12.5203295"><ele>580.0</ele><time>2026-03-24T10:48:27.496Z</time></trkpt><trkpt lat="43.2019309" lon="12.5202689"><ele>580.0</ele><time>2026-03-24T10:48:28.495Z</time></trkpt><trkpt lat="43.2017011" lon="12.5202387"><ele>580.0</ele><time>2026-03-24T10:48:29.495Z</time></trkpt><trkpt lat="43.2015085" lon="12.5201669"><ele>580.0</ele><time>2026-03-24T10:48:30.495Z</time></trkpt><trkpt lat="43.201351" lon="12.5200678"><ele>583.6666666666667</ele><time>2026-03-24T10:48:31.495Z</time></trkpt><trkpt lat="43.2012428" lon="12.5199118"><ele>587.3333333333334</ele><time>2026-03-24T10:48:32.494Z</time></trkpt><trkpt lat="43.2011894" lon="12.5197061"><ele>591.0</ele><time>2026-03-24T10:48:33.495Z</time></trkpt><trkpt lat="43.2011722" lon="12.5194611"><ele>591.0</ele><time>2026-03-24T10:48:34.494Z</time></trkpt><trkpt lat="43.2011916" lon="12.5191817"><ele>591.0</ele><time>2026-03-24T10:48:35.495Z</time></trkpt><trkpt lat="43.2012162" lon="12.5189092"><ele>591.0</ele><time>2026-03-24T10:48:36.494Z</time></trkpt><trkpt lat="43.2012024" lon="12.5186373"><ele>587.6666666666666</ele><time>2026-03-24T10:48:37.495Z</time></trkpt><trkpt lat="43.2011357" lon="12.5183826"><ele>584.3333333333333</ele><time>2026-03-24T10:48:38.494Z</time></trkpt><trkpt lat="43.2010209" lon="12.5181476"><ele>581.0</ele><time>2026-03-24T10:48:39.494Z</time></trkpt><trkpt lat="43.2008534" lon="12.5179402"><ele>579.5</ele><time>2026-03-24T10:48:40.494Z</time></trkpt><trkpt lat="43.2006442" lon="12.5177637"><ele>578.0</ele><time>2026-03-24T10:48:41.495Z</time></trkpt><trkpt lat="43.2004106" lon="12.5175964"><ele>578.0</ele><time>2026-03-24T10:48:42.494Z</time></trkpt><trkpt lat="43.2001736" lon="12.5174311"><ele>578.0</ele><time>2026-03-24T10:48:43.495Z</time></trkpt><trkpt lat="43.1999484" lon="12.5172901"><ele>577.0</ele><time>2026-03-24T10:48:44.494Z</time></trkpt><trkpt lat="43.1997215" lon="12.5171915"><ele>576.0</ele><time>2026-03-24T10:48:45.494Z</time></trkpt><trkpt lat="43.1994714" lon="12.5171418"><ele>576.0</ele><time>2026-03-24T10:48:46.494Z</time></trkpt><trkpt lat="43.1992241" lon="12.5171148"><ele>576.0</ele><time>2026-03-24T10:48:47.495Z</time></trkpt><trkpt lat="43.1989778" lon="12.5170942"><ele>568.5</ele><time>2026-03-24T10:48:48.495Z</time></trkpt><trkpt lat="43.198738" lon="12.517013"><ele>561.0</ele><time>2026-03-24T10:48:49.495Z</time></trkpt><trkpt lat="43.1984843" lon="12.5168777"><ele>561.0</ele><time>2026-03-24T10:48:50.494Z</time></trkpt><trkpt lat="43.1982401" lon="12.5166996"><ele>561.0</ele><time>2026-03-24T10:48:51.494Z</time></trkpt><trkpt lat="43.1979926" lon="12.5164883"><ele>557.5</ele><time>2026-03-24T10:48:52.495Z</time></trkpt><trkpt lat="43.197759" lon="12.5162632"><ele>554.0</ele><time>2026-03-24T10:48:53.494Z</time></trkpt><trkpt lat="43.1975148" lon="12.5160778"><ele>551.0</ele><time>2026-03-24T10:48:54.495Z</time></trkpt><trkpt lat="43.1972682" lon="12.5159091"><ele>548.0</ele><time>2026-03-24T10:48:55.494Z</time></trkpt><trkpt lat="43.1970048" lon="12.5157725"><ele>548.0</ele><time>2026-03-24T10:48:56.496Z</time></trkpt><trkpt lat="43.1967565" lon="12.5156589"><ele>548.0</ele><time>2026-03-24T10:48:57.494Z</time></trkpt><trkpt lat="43.1964973" lon="12.5155476"><ele>544.5</ele><time>2026-03-24T10:48:58.494Z</time></trkpt><trkpt lat="43.1962809" lon="12.515349"><ele>541.0</ele><time>2026-03-24T10:48:59.494Z</time></trkpt><trkpt lat="43.1960487" lon="12.5151246"><ele>541.0</ele><time>2026-03-24T10:49:00.495Z</time></trkpt><trkpt lat="43.1958365" lon="12.5148663"><ele>541.0</ele><time>2026-03-24T10:49:01.495Z</time></trkpt><trkpt lat="43.1956365" lon="12.5145652"><ele>536.0</ele><time>2026-03-24T10:49:02.494Z</time></trkpt><trkpt lat="43.1954654" lon="12.5142404"><ele>531.0</ele><time>2026-03-24T10:49:03.494Z</time></trkpt><trkpt lat="43.1953084" lon="12.5139425"><ele>532.5</ele><time>2026-03-24T10:49:04.495Z</time></trkpt><trkpt lat="43.1951647" lon="12.5136765"><ele>534.0</ele><time>2026-03-24T10:49:05.495Z</time></trkpt><trkpt lat="43.1950077" lon="12.5134506"><ele>531.5</ele><time>2026-03-24T10:49:06.495Z</time></trkpt><trkpt lat="43.1948127" lon="12.5132856"><ele>529.0</ele><time>2026-03-24T10:49:07.493Z</time></trkpt><trkpt lat="43.194597" lon="12.513144"><ele>529.0</ele><time>2026-03-24T10:49:08.494Z</time></trkpt><trkpt lat="43.1943455" lon="12.5130689"><ele>529.0</ele><time>2026-03-24T10:49:09.494Z</time></trkpt><trkpt lat="43.1940793" lon="12.5130762"><ele>527.5</ele><time>2026-03-24T10:49:10.495Z</time></trkpt><trkpt lat="43.1937915" lon="12.5131498"><ele>526.0</ele><time>2026-03-24T10:49:11.494Z</time></trkpt><trkpt lat="43.1934993" lon="12.5132371"><ele>526.0</ele><time>2026-03-24T10:49:12.495Z</time></trkpt><trkpt lat="43.1932193" lon="12.5133217"><ele>526.0</ele><time>2026-03-24T10:49:13.495Z</time></trkpt><trkpt lat="43.1929596" lon="12.5134074"><ele>523.3333333333334</ele><time>2026-03-24T10:49:14.495Z</time></trkpt><trkpt lat="43.192746" lon="12.5134764"><ele>520.6666666666666</ele><time>2026-03-24T10:49:15.494Z</time></trkpt><trkpt lat="43.1925641" lon="12.513533"><ele>518.0</ele><time>2026-03-24T10:49:16.494Z</time></trkpt><trkpt lat="43.1924072" lon="12.5135491"><ele>515.75</ele><time>2026-03-24T10:49:17.496Z</time></trkpt><trkpt lat="43.1922585" lon="12.5135507"><ele>513.5</ele><time>2026-03-24T10:49:18.495Z</time></trkpt><trkpt lat="43.1921796" lon="12.5133992"><ele>511.25</ele><time>2026-03-24T10:49:19.494Z</time></trkpt><trkpt lat="43.1921251" lon="12.5132386"><ele>509.0</ele><time>2026-03-24T10:49:20.495Z</time></trkpt><trkpt lat="43.192137" lon="12.5130564"><ele>510.0</ele><time>2026-03-24T10:49:21.494Z</time></trkpt><trkpt lat="43.1922127" lon="12.5128996"><ele>511.0</ele><time>2026-03-24T10:49:22.495Z</time></trkpt><trkpt lat="43.1923505" lon="12.512762"><ele>512.0</ele><time>2026-03-24T10:49:23.494Z</time></trkpt><trkpt lat="43.1925272" lon="12.5126138"><ele>512.0</ele><time>2026-03-24T10:49:24.494Z</time></trkpt><trkpt lat="43.1927047" lon="12.5125116"><ele>512.0</ele><time>2026-03-24T10:49:25.495Z</time></trkpt><trkpt lat="43.1928592" lon="12.5124337"><ele>512.0</ele><time>2026-03-24T10:49:26.494Z</time></trkpt><trkpt lat="43.1929744" lon="12.5123464"><ele>512.0</ele><time>2026-03-24T10:49:27.495Z</time></trkpt><trkpt lat="43.1930349" lon="12.5122052"><ele>512.0</ele><time>2026-03-24T10:49:28.495Z</time></trkpt><trkpt lat="43.1930432" lon="12.5120507"><ele>512.0</ele><time>2026-03-24T10:49:29.495Z</time></trkpt><trkpt lat="43.1929875" lon="12.5119094"><ele>512.0</ele><time>2026-03-24T10:49:30.494Z</time></trkpt><trkpt lat="43.1928779" lon="12.511776"><ele>508.0</ele><time>2026-03-24T10:49:31.495Z</time></trkpt><trkpt lat="43.1927195" lon="12.5116967"><ele>504.0</ele><time>2026-03-24T10:49:32.494Z</time></trkpt><trkpt lat="43.1925319" lon="12.5116938"><ele>500.0</ele><time>2026-03-24T10:49:33.495Z</time></trkpt><trkpt lat="43.1923243" lon="12.5117282"><ele>496.0</ele><time>2026-03-24T10:49:34.493Z</time></trkpt><trkpt lat="43.1921072" lon="12.5117753"><ele>492.0</ele><time>2026-03-24T10:49:35.494Z</time></trkpt><trkpt lat="43.1918938" lon="12.5118306"><ele>488.0</ele><time>2026-03-24T10:49:36.494Z</time></trkpt><trkpt lat="43.1916832" lon="12.5118751"><ele>487.3333333333333</ele><time>2026-03-24T10:49:37.495Z</time></trkpt><trkpt lat="43.1914856" lon="12.5119291"><ele>486.66666666666663</ele><time>2026-03-24T10:49:38.494Z</time></trkpt><trkpt lat="43.191307" lon="12.5120082"><ele>486.0</ele><time>2026-03-24T10:49:39.494Z</time></trkpt><trkpt lat="43.1911468" lon="12.5121451"><ele>486.0</ele><time>2026-03-24T10:49:40.495Z</time></trkpt><trkpt lat="43.1909989" lon="12.512344"><ele>486.0</ele><time>2026-03-24T10:49:41.495Z</time></trkpt><trkpt lat="43.1908538" lon="12.5125781"><ele>486.0</ele><time>2026-03-24T10:49:42.494Z</time></trkpt><trkpt lat="43.1907131" lon="12.5128322"><ele>480.5</ele><time>2026-03-24T10:49:43.494Z</time></trkpt><trkpt lat="43.1905586" lon="12.5130757"><ele>475.0</ele><time>2026-03-24T10:49:44.495Z</time></trkpt><trkpt lat="43.1903985" lon="12.5133016"><ele>475.0</ele><time>2026-03-24T10:49:45.495Z</time></trkpt><trkpt lat="43.1902375" lon="12.5135019"><ele>475.0</ele><time>2026-03-24T10:49:46.494Z</time></trkpt><trkpt lat="43.1900917" lon="12.5136562"><ele>475.0</ele><time>2026-03-24T10:49:47.495Z</time></trkpt><trkpt lat="43.1899603" lon="12.5137493"><ele>473.5</ele><time>2026-03-24T10:49:48.494Z</time></trkpt><trkpt lat="43.1898191" lon="12.5137782"><ele>472.0</ele><time>2026-03-24T10:49:49.494Z</time></trkpt><trkpt lat="43.1896972" lon="12.5137278"><ele>470.5</ele><time>2026-03-24T10:49:50.495Z</time></trkpt><trkpt lat="43.1895987" lon="12.513613"><ele>469.0</ele><time>2026-03-24T10:49:51.496Z</time></trkpt><trkpt lat="43.1895508" lon="12.5134361"><ele>465.6666666666667</ele><time>2026-03-24T10:49:52.494Z</time></trkpt><trkpt lat="43.1895666" lon="12.5132199"><ele>462.33333333333337</ele><time>2026-03-24T10:49:53.495Z</time></trkpt><trkpt lat="43.1896403" lon="12.5130311"><ele>459.0</ele><time>2026-03-24T10:49:54.495Z</time></trkpt><trkpt lat="43.1897405" lon="12.512834"><ele>461.33333333333337</ele><time>2026-03-24T10:49:55.494Z</time></trkpt><trkpt lat="43.1898388" lon="12.5126403"><ele>463.6666666666667</ele><time>2026-03-24T10:49:56.494Z</time></trkpt><trkpt lat="43.1899271" lon="12.5124501"><ele>466.0</ele><time>2026-03-24T10:49:57.494Z</time></trkpt><trkpt lat="43.1900047" lon="12.5122559"><ele>464.33333333333337</ele><time>2026-03-24T10:49:58.494Z</time></trkpt><trkpt lat="43.1900522" lon="12.5120443"><ele>462.66666666666663</ele><time>2026-03-24T10:49:59.494Z</time></trkpt><trkpt lat="43.1900493" lon="12.5118187"><ele>461.0</ele><time>2026-03-24T10:50:00.494Z</time></trkpt><trkpt lat="43.1900077" lon="12.5116095"><ele>461.0</ele><time>2026-03-24T10:50:01.494Z</time></trkpt><trkpt lat="43.1899154" lon="12.5114286"><ele>461.0</ele><time>2026-03-24T10:50:02.495Z</time></trkpt><trkpt lat="43.1897843" lon="12.511285"><ele>461.0</ele><time>2026-03-24T10:50:03.494Z</time></trkpt><trkpt lat="43.1896304" lon="12.5112073"><ele>456.66666666666663</ele><time>2026-03-24T10:50:04.494Z</time></trkpt><trkpt lat="43.1894642" lon="12.5111913"><ele>452.33333333333337</ele><time>2026-03-24T10:50:05.494Z</time></trkpt><trkpt lat="43.1892971" lon="12.5112447"><ele>448.0</ele><time>2026-03-24T10:50:06.495Z</time></trkpt><trkpt lat="43.1891477" lon="12.5113795"><ele>448.0</ele><time>2026-03-24T10:50:07.495Z</time></trkpt><trkpt lat="43.1890131" lon="12.5115577"><ele>448.0</ele><time>2026-03-24T10:50:08.495Z</time></trkpt><trkpt lat="43.1889218" lon="12.5118638"><ele>448.0</ele><time>2026-03-24T10:50:09.495Z</time></trkpt><trkpt lat="43.1888121" lon="12.5121646"><ele>444.0</ele><time>2026-03-24T10:50:10.495Z</time></trkpt><trkpt lat="43.1886798" lon="12.5124878"><ele>440.0</ele><time>2026-03-24T10:50:11.495Z</time></trkpt><trkpt lat="43.188487" lon="12.5128075"><ele>441.0</ele><time>2026-03-24T10:50:12.494Z</time></trkpt><trkpt lat="43.1883195" lon="12.5131248"><ele>442.0</ele><time>2026-03-24T10:50:13.495Z</time></trkpt><trkpt lat="43.1881695" lon="12.5134229"><ele>436.0</ele><time>2026-03-24T10:50:14.494Z</time></trkpt><trkpt lat="43.188061" lon="12.5136512"><ele>430.0</ele><time>2026-03-24T10:50:15.495Z</time></trkpt><trkpt lat="43.1879416" lon="12.5138495"><ele>424.0</ele><time>2026-03-24T10:50:16.495Z</time></trkpt><trkpt lat="43.1878093" lon="12.5139913"><ele>424.0</ele><time>2026-03-24T10:50:17.494Z</time></trkpt><trkpt lat="43.187668" lon="12.5140616"><ele>424.0</ele><time>2026-03-24T10:50:18.495Z</time></trkpt><trkpt lat="43.1875094" lon="12.5141231"><ele>424.0</ele><time>2026-03-24T10:50:19.494Z</time></trkpt><trkpt lat="43.1873075" lon="12.5139895"><ele>419.6666666666667</ele><time>2026-03-24T10:50:20.495Z</time></trkpt><trkpt lat="43.1871223" lon="12.5138812"><ele>415.33333333333337</ele><time>2026-03-24T10:50:21.495Z</time></trkpt><trkpt lat="43.1869453" lon="12.5137349"><ele>411.0</ele><time>2026-03-24T10:50:22.494Z</time></trkpt><trkpt lat="43.1867896" lon="12.5135666"><ele>411.0</ele><time>2026-03-24T10:50:23.494Z</time></trkpt><trkpt lat="43.1866741" lon="12.5133365"><ele>411.0</ele><time>2026-03-24T10:50:24.495Z</time></trkpt><trkpt lat="43.1866013" lon="12.5130774"><ele>411.0</ele><time>2026-03-24T10:50:25.495Z</time></trkpt><trkpt lat="43.1865437" lon="12.5128025"><ele>411.0</ele><time>2026-03-24T10:50:26.495Z</time></trkpt><trkpt lat="43.1865166" lon="12.5125057"><ele>411.0</ele><time>2026-03-24T10:50:27.496Z</time></trkpt><trkpt lat="43.1865006" lon="12.512165"><ele>397.0</ele><time>2026-03-24T10:50:28.495Z</time></trkpt><trkpt lat="43.1864981" lon="12.5117819"><ele>383.0</ele><time>2026-03-24T10:50:29.495Z</time></trkpt><trkpt lat="43.1864682" lon="12.5114324"><ele>379.0</ele><time>2026-03-24T10:50:30.494Z</time></trkpt><trkpt lat="43.1864515" lon="12.5110967"><ele>375.0</ele><time>2026-03-24T10:50:31.496Z</time></trkpt><trkpt lat="43.1864571" lon="12.5107369"><ele>370.5</ele><time>2026-03-24T10:50:32.494Z</time></trkpt><trkpt lat="43.186452" lon="12.5104003"><ele>366.0</ele><time>2026-03-24T10:50:33.495Z</time></trkpt><trkpt lat="43.1865324" lon="12.510102"><ele>378.0</ele><time>2026-03-24T10:50:34.497Z</time></trkpt><trkpt lat="43.1868223" lon="12.5100245"><ele>390.0</ele><time>2026-03-24T10:50:35.494Z</time></trkpt><trkpt lat="43.1869709" lon="12.5098132"><ele>390.0</ele><time>2026-03-24T10:50:36.494Z</time></trkpt><trkpt lat="43.1870939" lon="12.5096032"><ele>390.0</ele><time>2026-03-24T10:50:37.495Z</time></trkpt><trkpt lat="43.1871662" lon="12.5093537"><ele>390.0</ele><time>2026-03-24T10:50:38.495Z</time></trkpt><trkpt lat="43.1871925" lon="12.5091014"><ele>384.5</ele><time>2026-03-24T10:50:39.494Z</time></trkpt><trkpt lat="43.1871611" lon="12.5087997"><ele>379.0</ele><time>2026-03-24T10:50:40.495Z</time></trkpt><trkpt lat="43.1870963" lon="12.5084693"><ele>378.5</ele><time>2026-03-24T10:50:41.494Z</time></trkpt><trkpt lat="43.18702" lon="12.5081255"><ele>378.0</ele><time>2026-03-24T10:50:42.494Z</time></trkpt><trkpt lat="43.1869344" lon="12.5077923"><ele>377.5</ele><time>2026-03-24T10:50:43.496Z</time></trkpt><trkpt lat="43.1868601" lon="12.5074463"><ele>377.0</ele><time>2026-03-24T10:50:44.495Z</time></trkpt><trkpt lat="43.1867971" lon="12.5071109"><ele>376.0</ele><time>2026-03-24T10:50:45.495Z</time></trkpt><trkpt lat="43.1867441" lon="12.5067776"><ele>375.0</ele><time>2026-03-24T10:50:46.495Z</time></trkpt><trkpt lat="43.1866925" lon="12.5064319"><ele>374.0</ele><time>2026-03-24T10:50:47.495Z</time></trkpt><trkpt lat="43.1866555" lon="12.5061102"><ele>373.0</ele><time>2026-03-24T10:50:48.494Z</time></trkpt><trkpt lat="43.1866151" lon="12.5057796"><ele>373.0</ele><time>2026-03-24T10:50:49.495Z</time></trkpt><trkpt lat="43.1865812" lon="12.505455"><ele>373.0</ele><time>2026-03-24T10:50:50.495Z</time></trkpt><trkpt lat="43.1865397" lon="12.505148"><ele>372.5</ele><time>2026-03-24T10:50:51.495Z</time></trkpt><trkpt lat="43.1864982" lon="12.5048336"><ele>372.0</ele><time>2026-03-24T10:50:52.495Z</time></trkpt><trkpt lat="43.1864681" lon="12.5045256"><ele>371.3333333333333</ele><time>2026-03-24T10:50:53.495Z</time></trkpt><trkpt lat="43.1864394" lon="12.5042116"><ele>370.66666666666663</ele><time>2026-03-24T10:50:54.495Z</time></trkpt><trkpt lat="43.1864036" lon="12.5039198"><ele>370.0</ele><time>2026-03-24T10:50:55.495Z</time></trkpt><trkpt lat="43.1863804" lon="12.5036554"><ele>367.66666666666663</ele><time>2026-03-24T10:50:56.495Z</time></trkpt><trkpt lat="43.1863468" lon="12.5034292"><ele>365.3333333333333</ele><time>2026-03-24T10:50:57.495Z</time></trkpt><trkpt lat="43.1863038" lon="12.5032223"><ele>363.0</ele><time>2026-03-24T10:50:58.496Z</time></trkpt><trkpt lat="43.1862465" lon="12.5030413"><ele>360.6666666666667</ele><time>2026-03-24T10:50:59.495Z</time></trkpt><trkpt lat="43.1861655" lon="12.5028787"><ele>358.33333333333337</ele><time>2026-03-24T10:51:00.495Z</time></trkpt><trkpt lat="43.1860528" lon="12.5027389"><ele>356.0</ele><time>2026-03-24T10:51:01.495Z</time></trkpt><trkpt lat="43.185911" lon="12.5026461"><ele>356.0</ele><time>2026-03-24T10:51:02.496Z</time></trkpt><trkpt lat="43.1857375" lon="12.5025919"><ele>356.0</ele><time>2026-03-24T10:51:03.495Z</time></trkpt><trkpt lat="43.1855361" lon="12.5025529"><ele>356.0</ele><time>2026-03-24T10:51:04.494Z</time></trkpt><trkpt lat="43.1853227" lon="12.5025198"><ele>353.0</ele><time>2026-03-24T10:51:05.494Z</time></trkpt><trkpt lat="43.1850847" lon="12.5025028"><ele>350.0</ele><time>2026-03-24T10:51:06.494Z</time></trkpt><trkpt lat="43.1848324" lon="12.5024863"><ele>348.0</ele><time>2026-03-24T10:51:07.494Z</time></trkpt><trkpt lat="43.1845815" lon="12.5024659"><ele>346.0</ele><time>2026-03-24T10:51:08.496Z</time></trkpt><trkpt lat="43.1843104" lon="12.5024324"><ele>346.0</ele><time>2026-03-24T10:51:09.496Z</time></trkpt><trkpt lat="43.1840391" lon="12.5024049"><ele>346.0</ele><time>2026-03-24T10:51:10.494Z</time></trkpt><trkpt lat="43.1837717" lon="12.5023767"><ele>340.5</ele><time>2026-03-24T10:51:11.494Z</time></trkpt><trkpt lat="43.1835326" lon="12.502356"><ele>335.0</ele><time>2026-03-24T10:51:12.495Z</time></trkpt><trkpt lat="43.1832968" lon="12.5023315"><ele>331.5</ele><time>2026-03-24T10:51:13.494Z</time></trkpt><trkpt lat="43.183066" lon="12.5023047"><ele>328.0</ele><time>2026-03-24T10:51:14.495Z</time></trkpt><trkpt lat="43.1828378" lon="12.5022786"><ele>328.0</ele><time>2026-03-24T10:51:15.495Z</time></trkpt><trkpt lat="43.1826182" lon="12.5022605"><ele>328.0</ele><time>2026-03-24T10:51:16.494Z</time></trkpt><trkpt lat="43.1824215" lon="12.5022455"><ele>328.0</ele><time>2026-03-24T10:51:17.494Z</time></trkpt><trkpt lat="43.1822357" lon="12.5022298"><ele>325.3333333333333</ele><time>2026-03-24T10:51:18.495Z</time></trkpt><trkpt lat="43.1820594" lon="12.5022191"><ele>322.6666666666667</ele><time>2026-03-24T10:51:19.495Z</time></trkpt><trkpt lat="43.1818779" lon="12.5022349"><ele>320.0</ele><time>2026-03-24T10:51:20.495Z</time></trkpt><trkpt lat="43.181688" lon="12.5022913"><ele>318.0</ele><time>2026-03-24T10:51:21.495Z</time></trkpt><trkpt lat="43.1814954" lon="12.5023551"><ele>316.0</ele><time>2026-03-24T10:51:22.495Z</time></trkpt><trkpt lat="43.1813057" lon="12.5024451"><ele>314.0</ele><time>2026-03-24T10:51:23.496Z</time></trkpt><trkpt lat="43.1811374" lon="12.5025273"><ele>314.0</ele><time>2026-03-24T10:51:24.495Z</time></trkpt><trkpt lat="43.1809695" lon="12.5026073"><ele>314.0</ele><time>2026-03-24T10:51:25.494Z</time></trkpt><trkpt lat="43.1808451" lon="12.5026625"><ele>314.0</ele><time>2026-03-24T10:51:26.495Z</time></trkpt><trkpt lat="43.1807357" lon="12.5027176"><ele>314.0</ele><time>2026-03-24T10:51:27.495Z</time></trkpt><trkpt lat="43.1806358" lon="12.5027682"><ele>312.5</ele><time>2026-03-24T10:51:28.495Z</time></trkpt><trkpt lat="43.1805459" lon="12.5028152"><ele>311.0</ele><time>2026-03-24T10:51:29.495Z</time></trkpt><trkpt lat="43.180457" lon="12.5028546"><ele>309.5</ele><time>2026-03-24T10:51:30.495Z</time></trkpt><trkpt lat="43.1803937" lon="12.5028869"><ele>308.0</ele><time>2026-03-24T10:51:31.495Z</time></trkpt><trkpt lat="43.180484" lon="12.5029047"><ele>306.5</ele><time>2026-03-24T10:51:37.494Z</time></trkpt><trkpt lat="43.1805695" lon="12.5028565"><ele>305.0</ele><time>2026-03-24T10:51:38.495Z</time></trkpt><trkpt lat="43.1806814" lon="12.5027957"><ele>308.0</ele><time>2026-03-24T10:51:39.494Z</time></trkpt><trkpt lat="43.1808143" lon="12.5027307"><ele>311.0</ele><time>2026-03-24T10:51:40.495Z</time></trkpt><trkpt lat="43.1809636" lon="12.5026491"><ele>314.0</ele><time>2026-03-24T10:51:41.494Z</time></trkpt><trkpt lat="43.1811218" lon="12.5025573"><ele>314.0</ele><time>2026-03-24T10:51:42.495Z</time></trkpt><trkpt lat="43.1812966" lon="12.5024727"><ele>314.0</ele><time>2026-03-24T10:51:43.494Z</time></trkpt><trkpt lat="43.1814798" lon="12.5023949"><ele>314.0</ele><time>2026-03-24T10:51:44.496Z</time></trkpt><trkpt lat="43.1816392" lon="12.5023328"><ele>315.5</ele><time>2026-03-24T10:51:45.495Z</time></trkpt><trkpt lat="43.1817944" lon="12.5022817"><ele>317.0</ele><time>2026-03-24T10:51:46.495Z</time></trkpt><trkpt lat="43.1819458" lon="12.5022423"><ele>318.5</ele><time>2026-03-24T10:51:47.494Z</time></trkpt><trkpt lat="43.1820488" lon="12.5022441"><ele>320.0</ele><time>2026-03-24T10:51:48.496Z</time></trkpt><trkpt lat="43.1821481" lon="12.5022382"><ele>320.0</ele><time>2026-03-24T10:51:49.494Z</time></trkpt><trkpt lat="43.182243" lon="12.5022404"><ele>320.0</ele><time>2026-03-24T10:51:50.496Z</time></trkpt><trkpt lat="43.1823263" lon="12.5022085"><ele>320.0</ele><time>2026-03-24T10:51:51.495Z</time></trkpt><trkpt lat="43.1823728" lon="12.5021408"><ele>320.0</ele><time>2026-03-24T10:51:52.494Z</time></trkpt><trkpt lat="43.1824045" lon="12.5020402"><ele>320.0</ele><time>2026-03-24T10:51:53.495Z</time></trkpt><trkpt lat="43.1824272" lon="12.5019262"><ele>320.0</ele><time>2026-03-24T10:51:54.494Z</time></trkpt><trkpt lat="43.1824795" lon="12.5017989"><ele>321.6666666666667</ele><time>2026-03-24T10:51:55.495Z</time></trkpt><trkpt lat="43.1825569" lon="12.5016684"><ele>323.3333333333333</ele><time>2026-03-24T10:51:56.495Z</time></trkpt><trkpt lat="43.1826829" lon="12.5015304"><ele>325.0</ele><time>2026-03-24T10:51:57.494Z</time></trkpt><trkpt lat="43.1828359" lon="12.5013842"><ele>325.0</ele><time>2026-03-24T10:51:58.494Z</time></trkpt><trkpt lat="43.1829956" lon="12.5012333"><ele>325.0</ele><time>2026-03-24T10:51:59.496Z</time></trkpt><trkpt lat="43.1831501" lon="12.5010875"><ele>325.0</ele><time>2026-03-24T10:52:00.495Z</time></trkpt><trkpt lat="43.183306" lon="12.5009266"><ele>324.0</ele><time>2026-03-24T10:52:01.496Z</time></trkpt><trkpt lat="43.1834638" lon="12.500744"><ele>323.0</ele><time>2026-03-24T10:52:02.496Z</time></trkpt><trkpt lat="43.183637" lon="12.5005489"><ele>322.0</ele><time>2026-03-24T10:52:03.495Z</time></trkpt><trkpt lat="43.183832" lon="12.5003273"><ele>322.0</ele><time>2026-03-24T10:52:04.495Z</time></trkpt><trkpt lat="43.1840207" lon="12.5000984"><ele>322.0</ele><time>2026-03-24T10:52:05.496Z</time></trkpt><trkpt lat="43.1842262" lon="12.4998628"><ele>322.0</ele><time>2026-03-24T10:52:06.495Z</time></trkpt><trkpt lat="43.1844301" lon="12.4996297"><ele>322.0</ele><time>2026-03-24T10:52:07.494Z</time></trkpt><trkpt lat="43.1845978" lon="12.4994202"><ele>322.5</ele><time>2026-03-24T10:52:08.495Z</time></trkpt><trkpt lat="43.1847657" lon="12.4992195"><ele>323.0</ele><time>2026-03-24T10:52:09.495Z</time></trkpt><trkpt lat="43.1849351" lon="12.4990089"><ele>323.0</ele><time>2026-03-24T10:52:10.495Z</time></trkpt><trkpt lat="43.1851005" lon="12.498802"><ele>323.0</ele><time>2026-03-24T10:52:11.495Z</time></trkpt><trkpt lat="43.1852423" lon="12.4985974"><ele>323.0</ele><time>2026-03-24T10:52:12.496Z</time></trkpt><trkpt lat="43.1853293" lon="12.4983662"><ele>321.33333333333337</ele><time>2026-03-24T10:52:13.496Z</time></trkpt><trkpt lat="43.1853714" lon="12.498117"><ele>319.6666666666667</ele><time>2026-03-24T10:52:14.495Z</time></trkpt><trkpt lat="43.1853714" lon="12.4978724"><ele>318.0</ele><time>2026-03-24T10:52:15.495Z</time></trkpt><trkpt lat="43.1853194" lon="12.4976117"><ele>317.3333333333333</ele><time>2026-03-24T10:52:16.494Z</time></trkpt><trkpt lat="43.185265" lon="12.4973475"><ele>316.66666666666663</ele><time>2026-03-24T10:52:17.495Z</time></trkpt><trkpt lat="43.1852201" lon="12.4970691"><ele>316.0</ele><time>2026-03-24T10:52:18.494Z</time></trkpt><trkpt lat="43.1852018" lon="12.4968028"><ele>315.66666666666663</ele><time>2026-03-24T10:52:19.496Z</time></trkpt><trkpt lat="43.1852157" lon="12.4965675"><ele>315.3333333333333</ele><time>2026-03-24T10:52:20.495Z</time></trkpt><trkpt lat="43.1852552" lon="12.4963666"><ele>315.0</ele><time>2026-03-24T10:52:21.495Z</time></trkpt><trkpt lat="43.1853275" lon="12.4962026"><ele>315.0</ele><time>2026-03-24T10:52:22.495Z</time></trkpt><trkpt lat="43.1854249" lon="12.4960859"><ele>315.0</ele><time>2026-03-24T10:52:23.495Z</time></trkpt><trkpt lat="43.1855642" lon="12.4960226"><ele>315.0</ele><time>2026-03-24T10:52:24.495Z</time></trkpt><trkpt lat="43.1857368" lon="12.4959845"><ele>315.0</ele><time>2026-03-24T10:52:25.496Z</time></trkpt><trkpt lat="43.1859113" lon="12.4959506"><ele>315.0</ele><time>2026-03-24T10:52:26.496Z</time></trkpt><trkpt lat="43.1860802" lon="12.4959092"><ele>315.0</ele><time>2026-03-24T10:52:27.495Z</time></trkpt><trkpt lat="43.186218" lon="12.4958643"><ele>315.0</ele><time>2026-03-24T10:52:28.495Z</time></trkpt><trkpt lat="43.1863313" lon="12.4957789"><ele>315.0</ele><time>2026-03-24T10:52:29.496Z</time></trkpt><trkpt lat="43.1864122" lon="12.4956608"><ele>315.0</ele><time>2026-03-24T10:52:30.495Z</time></trkpt><trkpt lat="43.1864589" lon="12.4955022"><ele>315.0</ele><time>2026-03-24T10:52:31.496Z</time></trkpt><trkpt lat="43.1864716" lon="12.4953047"><ele>315.0</ele><time>2026-03-24T10:52:32.495Z</time></trkpt><trkpt lat="43.1864633" lon="12.4950751"><ele>315.0</ele><time>2026-03-24T10:52:33.495Z</time></trkpt><trkpt lat="43.1864243" lon="12.4948098"><ele>315.0</ele><time>2026-03-24T10:52:34.495Z</time></trkpt><trkpt lat="43.1863901" lon="12.4945247"><ele>316.3333333333333</ele><time>2026-03-24T10:52:35.496Z</time></trkpt><trkpt lat="43.1863596" lon="12.4942448"><ele>317.66666666666663</ele><time>2026-03-24T10:52:36.496Z</time></trkpt><trkpt lat="43.1863915" lon="12.4940313"><ele>319.0</ele><time>2026-03-24T10:52:37.495Z</time></trkpt><trkpt lat="43.1864416" lon="12.4938216"><ele>319.0</ele><time>2026-03-24T10:52:38.495Z</time></trkpt><trkpt lat="43.1865259" lon="12.4936197"><ele>319.0</ele><time>2026-03-24T10:52:39.495Z</time></trkpt><trkpt lat="43.1866304" lon="12.4934288"><ele>319.0</ele><time>2026-03-24T10:52:40.494Z</time></trkpt><trkpt lat="43.1867628" lon="12.4932909"><ele>319.0</ele><time>2026-03-24T10:52:41.495Z</time></trkpt><trkpt lat="43.186857" lon="12.4931527"><ele>319.0</ele><time>2026-03-24T10:52:42.496Z</time></trkpt><trkpt lat="43.1869216" lon="12.4929988"><ele>319.0</ele><time>2026-03-24T10:52:43.495Z</time></trkpt><trkpt lat="43.1869402" lon="12.4928369"><ele>319.0</ele><time>2026-03-24T10:52:44.495Z</time></trkpt><trkpt lat="43.1869041" lon="12.4926943"><ele>317.0</ele><time>2026-03-24T10:52:45.495Z</time></trkpt><trkpt lat="43.1868156" lon="12.4925658"><ele>315.0</ele><time>2026-03-24T10:52:46.494Z</time></trkpt><trkpt lat="43.1866694" lon="12.4924573"><ele>313.0</ele><time>2026-03-24T10:52:47.496Z</time></trkpt><trkpt lat="43.1864934" lon="12.4923439"><ele>313.0</ele><time>2026-03-24T10:52:48.496Z</time></trkpt><trkpt lat="43.1863007" lon="12.4922081"><ele>313.0</ele><time>2026-03-24T10:52:49.496Z</time></trkpt><trkpt lat="43.1861139" lon="12.4920614"><ele>313.0</ele><time>2026-03-24T10:52:50.494Z</time></trkpt><trkpt lat="43.1859347" lon="12.4919358"><ele>313.3333333333333</ele><time>2026-03-24T10:52:51.494Z</time></trkpt><trkpt lat="43.1857663" lon="12.4918337"><ele>313.6666666666667</ele><time>2026-03-24T10:52:52.495Z</time></trkpt><trkpt lat="43.1856518" lon="12.4917104"><ele>314.0</ele><time>2026-03-24T10:52:53.496Z</time></trkpt><trkpt lat="43.1855816" lon="12.4915767"><ele>314.0</ele><time>2026-03-24T10:52:54.495Z</time></trkpt><trkpt lat="43.1855618" lon="12.4914257"><ele>314.0</ele><time>2026-03-24T10:52:55.495Z</time></trkpt><trkpt lat="43.1856004" lon="12.4912969"><ele>314.0</ele><time>2026-03-24T10:52:56.494Z</time></trkpt><trkpt lat="43.1856873" lon="12.4912163"><ele>314.0</ele><time>2026-03-24T10:52:57.495Z</time></trkpt><trkpt lat="43.1858051" lon="12.4912135"><ele>314.0</ele><time>2026-03-24T10:52:58.495Z</time></trkpt><trkpt lat="43.1859318" lon="12.4912516"><ele>312.0</ele><time>2026-03-24T10:52:59.494Z</time></trkpt><trkpt lat="43.186116" lon="12.4913566"><ele>310.0</ele><time>2026-03-24T10:53:00.497Z</time></trkpt><trkpt lat="43.1862753" lon="12.4914579"><ele>308.0</ele><time>2026-03-24T10:53:01.495Z</time></trkpt><trkpt lat="43.1864083" lon="12.4915353"><ele>307.0</ele><time>2026-03-24T10:53:02.495Z</time></trkpt><trkpt lat="43.1865285" lon="12.4915518"><ele>306.0</ele><time>2026-03-24T10:53:03.496Z</time></trkpt><trkpt lat="43.1866387" lon="12.4915075"><ele>305.0</ele><time>2026-03-24T10:53:04.495Z</time></trkpt><trkpt lat="43.1867187" lon="12.4914163"><ele>304.0</ele><time>2026-03-24T10:53:05.495Z</time></trkpt><trkpt lat="43.1867574" lon="12.491263"><ele>301.3333333333333</ele><time>2026-03-24T10:53:06.495Z</time></trkpt><trkpt lat="43.1867509" lon="12.4910588"><ele>298.6666666666667</ele><time>2026-03-24T10:53:07.494Z</time></trkpt><trkpt lat="43.1867168" lon="12.4908114"><ele>296.0</ele><time>2026-03-24T10:53:08.496Z</time></trkpt><trkpt lat="43.1866747" lon="12.4905232"><ele>294.0</ele><time>2026-03-24T10:53:09.495Z</time></trkpt><trkpt lat="43.1866311" lon="12.4901757"><ele>292.0</ele><time>2026-03-24T10:53:10.496Z</time></trkpt><trkpt lat="43.1865781" lon="12.4898095"><ele>291.0</ele><time>2026-03-24T10:53:11.496Z</time></trkpt><trkpt lat="43.186525" lon="12.4894392"><ele>290.0</ele><time>2026-03-24T10:53:12.494Z</time></trkpt><trkpt lat="43.1864787" lon="12.4890734"><ele>291.5</ele><time>2026-03-24T10:53:13.495Z</time></trkpt><trkpt lat="43.1864348" lon="12.4887231"><ele>293.0</ele><time>2026-03-24T10:53:14.495Z</time></trkpt><trkpt lat="43.1864018" lon="12.4883838"><ele>293.0</ele><time>2026-03-24T10:53:15.496Z</time></trkpt><trkpt lat="43.1863685" lon="12.4880522"><ele>293.0</ele><time>2026-03-24T10:53:16.496Z</time></trkpt><trkpt lat="43.1863413" lon="12.4877597"><ele>293.33333333333337</ele><time>2026-03-24T10:53:17.497Z</time></trkpt><trkpt lat="43.1863178" lon="12.4874637"><ele>293.6666666666667</ele><time>2026-03-24T10:53:18.496Z</time></trkpt><trkpt lat="43.1862997" lon="12.4871938"><ele>294.0</ele><time>2026-03-24T10:53:19.496Z</time></trkpt><trkpt lat="43.1863006" lon="12.4869323"><ele>294.0</ele><time>2026-03-24T10:53:20.495Z</time></trkpt><trkpt lat="43.1863269" lon="12.4866877"><ele>294.0</ele><time>2026-03-24T10:53:21.496Z</time></trkpt><trkpt lat="43.1863845" lon="12.4864599"><ele>294.0</ele><time>2026-03-24T10:53:22.495Z</time></trkpt><trkpt lat="43.1864583" lon="12.4862447"><ele>288.3333333333333</ele><time>2026-03-24T10:53:23.496Z</time></trkpt><trkpt lat="43.1865281" lon="12.486027"><ele>282.66666666666663</ele><time>2026-03-24T10:53:24.495Z</time></trkpt><trkpt lat="43.186572" lon="12.4857802"><ele>277.0</ele><time>2026-03-24T10:53:25.496Z</time></trkpt><trkpt lat="43.1866101" lon="12.4855059"><ele>277.0</ele><time>2026-03-24T10:53:26.495Z</time></trkpt><trkpt lat="43.186635" lon="12.4852048"><ele>277.0</ele><time>2026-03-24T10:53:27.494Z</time></trkpt><trkpt lat="43.186658" lon="12.4848909"><ele>277.0</ele><time>2026-03-24T10:53:28.495Z</time></trkpt><trkpt lat="43.1866727" lon="12.4846037"><ele>277.0</ele><time>2026-03-24T10:53:29.494Z</time></trkpt><trkpt lat="43.1866977" lon="12.4843087"><ele>277.0</ele><time>2026-03-24T10:53:30.495Z</time></trkpt><trkpt lat="43.1867206" lon="12.4840261"><ele>278.0</ele><time>2026-03-24T10:53:31.494Z</time></trkpt><trkpt lat="43.1867609" lon="12.4837825"><ele>279.0</ele><time>2026-03-24T10:53:32.494Z</time></trkpt><trkpt lat="43.1867924" lon="12.483527"><ele>280.0</ele><time>2026-03-24T10:53:33.496Z</time></trkpt><trkpt lat="43.1868515" lon="12.4832911"><ele>280.3333333333333</ele><time>2026-03-24T10:53:34.496Z</time></trkpt><trkpt lat="43.1869074" lon="12.4830936"><ele>280.6666666666667</ele><time>2026-03-24T10:53:35.496Z</time></trkpt><trkpt lat="43.1869749" lon="12.4828853"><ele>281.0</ele><time>2026-03-24T10:53:36.495Z</time></trkpt><trkpt lat="43.1870326" lon="12.4827038"><ele>281.25</ele><time>2026-03-24T10:53:37.494Z</time></trkpt><trkpt lat="43.1871007" lon="12.4825112"><ele>281.5</ele><time>2026-03-24T10:53:38.496Z</time></trkpt><trkpt lat="43.187172" lon="12.4823246"><ele>281.75</ele><time>2026-03-24T10:53:39.495Z</time></trkpt><trkpt lat="43.187222" lon="12.4821658"><ele>282.0</ele><time>2026-03-24T10:53:40.495Z</time></trkpt><trkpt lat="43.1872863" lon="12.4819906"><ele>279.25</ele><time>2026-03-24T10:53:41.495Z</time></trkpt><trkpt lat="43.1873466" lon="12.4818219"><ele>276.5</ele><time>2026-03-24T10:53:42.495Z</time></trkpt><trkpt lat="43.18741" lon="12.481675"><ele>273.75</ele><time>2026-03-24T10:53:43.496Z</time></trkpt><trkpt lat="43.1874685" lon="12.4815224"><ele>271.0</ele><time>2026-03-24T10:53:44.496Z</time></trkpt><trkpt lat="43.1874998" lon="12.4813747"><ele>270.0</ele><time>2026-03-24T10:53:45.496Z</time></trkpt><trkpt lat="43.187547" lon="12.4812064"><ele>269.0</ele><time>2026-03-24T10:53:46.494Z</time></trkpt><trkpt lat="43.1875859" lon="12.4810459"><ele>268.0</ele><time>2026-03-24T10:53:47.496Z</time></trkpt><trkpt lat="43.1876441" lon="12.4808813"><ele>267.0</ele><time>2026-03-24T10:53:48.495Z</time></trkpt><trkpt lat="43.1876749" lon="12.4807152"><ele>267.0</ele><time>2026-03-24T10:53:49.495Z</time></trkpt><trkpt lat="43.1877068" lon="12.480548"><ele>267.0</ele><time>2026-03-24T10:53:50.496Z</time></trkpt><trkpt lat="43.1877151" lon="12.4803731"><ele>267.0</ele><time>2026-03-24T10:53:51.495Z</time></trkpt><trkpt lat="43.1877395" lon="12.4801941"><ele>267.0</ele><time>2026-03-24T10:53:52.496Z</time></trkpt><trkpt lat="43.1877643" lon="12.4800163"><ele>266.5</ele><time>2026-03-24T10:53:53.495Z</time></trkpt><trkpt lat="43.1877961" lon="12.4798318"><ele>266.0</ele><time>2026-03-24T10:53:54.496Z</time></trkpt><trkpt lat="43.1878251" lon="12.4796435"><ele>265.5</ele><time>2026-03-24T10:53:55.494Z</time></trkpt><trkpt lat="43.1878627" lon="12.4794576"><ele>265.0</ele><time>2026-03-24T10:53:56.497Z</time></trkpt><trkpt lat="43.1878961" lon="12.4792644"><ele>264.3333333333333</ele><time>2026-03-24T10:53:57.495Z</time></trkpt><trkpt lat="43.1879204" lon="12.4790632"><ele>263.6666666666667</ele><time>2026-03-24T10:53:58.496Z</time></trkpt><trkpt lat="43.1879505" lon="12.4788426"><ele>263.0</ele><time>2026-03-24T10:53:59.495Z</time></trkpt><trkpt lat="43.1879781" lon="12.4786197"><ele>262.6666666666667</ele><time>2026-03-24T10:54:00.494Z</time></trkpt><trkpt lat="43.1880064" lon="12.478381"><ele>262.3333333333333</ele><time>2026-03-24T10:54:01.495Z</time></trkpt><trkpt lat="43.1880441" lon="12.478142"><ele>262.0</ele><time>2026-03-24T10:54:02.495Z</time></trkpt><trkpt lat="43.1880841" lon="12.4779013"><ele>262.0</ele><time>2026-03-24T10:54:03.495Z</time></trkpt><trkpt lat="43.188127" lon="12.4776611"><ele>262.0</ele><time>2026-03-24T10:54:04.495Z</time></trkpt><trkpt lat="43.1881715" lon="12.4774098"><ele>262.0</ele><time>2026-03-24T10:54:05.494Z</time></trkpt><trkpt lat="43.1882062" lon="12.4771692"><ele>261.0</ele><time>2026-03-24T10:54:06.496Z</time></trkpt><trkpt lat="43.1882356" lon="12.4769458"><ele>260.0</ele><time>2026-03-24T10:54:07.495Z</time></trkpt><trkpt lat="43.1882334" lon="12.4767321"><ele>259.0</ele><time>2026-03-24T10:54:08.496Z</time></trkpt><trkpt lat="43.1882146" lon="12.476546"><ele>258.75</ele><time>2026-03-24T10:54:09.495Z</time></trkpt><trkpt lat="43.1881735" lon="12.4763652"><ele>258.5</ele><time>2026-03-24T10:54:10.496Z</time></trkpt><trkpt lat="43.1881046" lon="12.4761952"><ele>258.25</ele><time>2026-03-24T10:54:11.495Z</time></trkpt><trkpt lat="43.1880068" lon="12.4760362"><ele>258.0</ele><time>2026-03-24T10:54:12.495Z</time></trkpt><trkpt lat="43.1878915" lon="12.47589"><ele>258.0</ele><time>2026-03-24T10:54:13.494Z</time></trkpt><trkpt lat="43.1877707" lon="12.4757451"><ele>258.0</ele><time>2026-03-24T10:54:14.495Z</time></trkpt><trkpt lat="43.1876561" lon="12.475575"><ele>258.0</ele><time>2026-03-24T10:54:15.495Z</time></trkpt><trkpt lat="43.18755" lon="12.4753648"><ele>258.0</ele><time>2026-03-24T10:54:16.494Z</time></trkpt><trkpt lat="43.1874464" lon="12.4751094"><ele>258.0</ele><time>2026-03-24T10:54:17.495Z</time></trkpt><trkpt lat="43.1873366" lon="12.4748294"><ele>258.0</ele><time>2026-03-24T10:54:18.495Z</time></trkpt><trkpt lat="43.187209" lon="12.4745257"><ele>255.0</ele><time>2026-03-24T10:54:19.495Z</time></trkpt><trkpt lat="43.1870826" lon="12.4742138"><ele>252.0</ele><time>2026-03-24T10:54:20.494Z</time></trkpt><trkpt lat="43.1869482" lon="12.4738867"><ele>253.0</ele><time>2026-03-24T10:54:21.495Z</time></trkpt><trkpt lat="43.1868156" lon="12.4735656"><ele>254.0</ele><time>2026-03-24T10:54:22.496Z</time></trkpt><trkpt lat="43.1866949" lon="12.4732551"><ele>254.0</ele><time>2026-03-24T10:54:23.496Z</time></trkpt><trkpt lat="43.1865818" lon="12.472951"><ele>254.0</ele><time>2026-03-24T10:54:24.497Z</time></trkpt><trkpt lat="43.1864706" lon="12.4726443"><ele>252.0</ele><time>2026-03-24T10:54:25.494Z</time></trkpt><trkpt lat="43.1863733" lon="12.4723332"><ele>250.0</ele><time>2026-03-24T10:54:26.494Z</time></trkpt><trkpt lat="43.1862697" lon="12.4720135"><ele>249.0</ele><time>2026-03-24T10:54:27.494Z</time></trkpt><trkpt lat="43.1861633" lon="12.4716743"><ele>248.0</ele><time>2026-03-24T10:54:28.495Z</time></trkpt><trkpt lat="43.1860582" lon="12.4713289"><ele>249.5</ele><time>2026-03-24T10:54:29.495Z</time></trkpt><trkpt lat="43.1859572" lon="12.4709854"><ele>251.0</ele><time>2026-03-24T10:54:30.495Z</time></trkpt><trkpt lat="43.1858602" lon="12.4706543"><ele>252.0</ele><time>2026-03-24T10:54:31.496Z</time></trkpt><trkpt lat="43.1857602" lon="12.4703441"><ele>253.0</ele><time>2026-03-24T10:54:32.495Z</time></trkpt><trkpt lat="43.1856662" lon="12.4700392"><ele>251.0</ele><time>2026-03-24T10:54:33.496Z</time></trkpt><trkpt lat="43.1855634" lon="12.4697416"><ele>249.0</ele><time>2026-03-24T10:54:34.495Z</time></trkpt><trkpt lat="43.1854431" lon="12.4694534"><ele>249.0</ele><time>2026-03-24T10:54:35.495Z</time></trkpt><trkpt lat="43.1852936" lon="12.4691735"><ele>249.0</ele><time>2026-03-24T10:54:36.496Z</time></trkpt><trkpt lat="43.1851413" lon="12.4689071"><ele>249.5</ele><time>2026-03-24T10:54:37.494Z</time></trkpt><trkpt lat="43.1849746" lon="12.4686409"><ele>250.0</ele><time>2026-03-24T10:54:38.495Z</time></trkpt><trkpt lat="43.1848052" lon="12.4683728"><ele>246.5</ele><time>2026-03-24T10:54:39.496Z</time></trkpt><trkpt lat="43.1846526" lon="12.4681074"><ele>243.0</ele><time>2026-03-24T10:54:40.495Z</time></trkpt><trkpt lat="43.1844986" lon="12.467835"><ele>243.0</ele><time>2026-03-24T10:54:41.496Z</time></trkpt><trkpt lat="43.1843508" lon="12.467575"><ele>243.0</ele><time>2026-03-24T10:54:42.495Z</time></trkpt><trkpt lat="43.1842015" lon="12.4673097"><ele>241.5</ele><time>2026-03-24T10:54:43.494Z</time></trkpt><trkpt lat="43.1840414" lon="12.4670372"><ele>240.0</ele><time>2026-03-24T10:54:44.495Z</time></trkpt><trkpt lat="43.1838766" lon="12.4667777"><ele>240.0</ele><time>2026-03-24T10:54:45.494Z</time></trkpt><trkpt lat="43.183704" lon="12.4665204"><ele>240.0</ele><time>2026-03-24T10:54:46.495Z</time></trkpt><trkpt lat="43.1835129" lon="12.4662564"><ele>239.5</ele><time>2026-03-24T10:54:47.495Z</time></trkpt><trkpt lat="43.1833211" lon="12.4659955"><ele>239.0</ele><time>2026-03-24T10:54:48.495Z</time></trkpt><trkpt lat="43.1831354" lon="12.4657338"><ele>239.0</ele><time>2026-03-24T10:54:49.495Z</time></trkpt><trkpt lat="43.1829504" lon="12.4654688"><ele>239.0</ele><time>2026-03-24T10:54:50.496Z</time></trkpt><trkpt lat="43.1827625" lon="12.4652325"><ele>240.5</ele><time>2026-03-24T10:54:51.496Z</time></trkpt><trkpt lat="43.182584" lon="12.4649958"><ele>242.0</ele><time>2026-03-24T10:54:52.496Z</time></trkpt><trkpt lat="43.1824142" lon="12.4647589"><ele>239.0</ele><time>2026-03-24T10:54:53.495Z</time></trkpt><trkpt lat="43.1822475" lon="12.4645263"><ele>236.0</ele><time>2026-03-24T10:54:54.495Z</time></trkpt><trkpt lat="43.182087" lon="12.4642841"><ele>236.0</ele><time>2026-03-24T10:54:55.494Z</time></trkpt><trkpt lat="43.1819291" lon="12.4640493"><ele>236.0</ele><time>2026-03-24T10:54:56.495Z</time></trkpt><trkpt lat="43.18179" lon="12.4638212"><ele>236.0</ele><time>2026-03-24T10:54:57.495Z</time></trkpt><trkpt lat="43.1816452" lon="12.4635834"><ele>236.0</ele><time>2026-03-24T10:54:58.496Z</time></trkpt><trkpt lat="43.181523" lon="12.4633288"><ele>236.0</ele><time>2026-03-24T10:54:59.496Z</time></trkpt><trkpt lat="43.1814025" lon="12.4630701"><ele>234.0</ele><time>2026-03-24T10:55:00.495Z</time></trkpt><trkpt lat="43.1812849" lon="12.4628014"><ele>232.0</ele><time>2026-03-24T10:55:01.495Z</time></trkpt><trkpt lat="43.1811657" lon="12.4625284"><ele>232.0</ele><time>2026-03-24T10:55:02.494Z</time></trkpt><trkpt lat="43.1810479" lon="12.46225"><ele>232.0</ele><time>2026-03-24T10:55:03.496Z</time></trkpt><trkpt lat="43.1809308" lon="12.4619706"><ele>232.5</ele><time>2026-03-24T10:55:04.495Z</time></trkpt><trkpt lat="43.1808003" lon="12.4616889"><ele>233.0</ele><time>2026-03-24T10:55:05.495Z</time></trkpt><trkpt lat="43.1806733" lon="12.4614122"><ele>232.0</ele><time>2026-03-24T10:55:06.496Z</time></trkpt><trkpt lat="43.1805449" lon="12.4611294"><ele>231.0</ele><time>2026-03-24T10:55:07.496Z</time></trkpt><trkpt lat="43.1804042" lon="12.4608349"><ele>231.0</ele><time>2026-03-24T10:55:08.495Z</time></trkpt><trkpt lat="43.1802672" lon="12.4605467"><ele>231.0</ele><time>2026-03-24T10:55:09.494Z</time></trkpt><trkpt lat="43.1801339" lon="12.4602536"><ele>231.5</ele><time>2026-03-24T10:55:10.494Z</time></trkpt><trkpt lat="43.1800065" lon="12.4599645"><ele>232.0</ele><time>2026-03-24T10:55:11.495Z</time></trkpt><trkpt lat="43.1798751" lon="12.4596795"><ele>231.0</ele><time>2026-03-24T10:55:12.495Z</time></trkpt><trkpt lat="43.1797564" lon="12.4594042"><ele>230.0</ele><time>2026-03-24T10:55:13.495Z</time></trkpt><trkpt lat="43.1796434" lon="12.4591427"><ele>230.0</ele><time>2026-03-24T10:55:14.495Z</time></trkpt><trkpt lat="43.1795413" lon="12.4588959"><ele>230.0</ele><time>2026-03-24T10:55:15.495Z</time></trkpt><trkpt lat="43.1794495" lon="12.4587262"><ele>230.0</ele><time>2026-03-24T10:55:16.494Z</time></trkpt><trkpt lat="43.1793945" lon="12.4585966"><ele>230.2</ele><time>2026-03-24T10:55:17.495Z</time></trkpt><trkpt lat="43.1793547" lon="12.4585072"><ele>230.4</ele><time>2026-03-24T10:55:18.495Z</time></trkpt><trkpt lat="43.179344" lon="12.4584079"><ele>230.60000000000002</ele><time>2026-03-24T10:55:20.496Z</time></trkpt><trkpt lat="43.1794267" lon="12.4583207"><ele>230.8</ele><time>2026-03-24T10:55:22.496Z</time></trkpt><trkpt lat="43.1795216" lon="12.458267"><ele>231.0</ele><time>2026-03-24T10:55:23.497Z</time></trkpt><trkpt lat="43.1796521" lon="12.4582016"><ele>231.0</ele><time>2026-03-24T10:55:24.496Z</time></trkpt><trkpt lat="43.179797" lon="12.4581361"><ele>231.0</ele><time>2026-03-24T10:55:25.496Z</time></trkpt><trkpt lat="43.1799674" lon="12.4580429"><ele>231.0</ele><time>2026-03-24T10:55:26.495Z</time></trkpt><trkpt lat="43.1801392" lon="12.4579432"><ele>232.66666666666669</ele><time>2026-03-24T10:55:27.494Z</time></trkpt><trkpt lat="43.1803464" lon="12.4578199"><ele>234.33333333333334</ele><time>2026-03-24T10:55:28.495Z</time></trkpt><trkpt lat="43.1805429" lon="12.4576896"><ele>236.0</ele><time>2026-03-24T10:55:29.495Z</time></trkpt><trkpt lat="43.1807408" lon="12.4575364"><ele>236.66666666666669</ele><time>2026-03-24T10:55:30.495Z</time></trkpt><trkpt lat="43.1809306" lon="12.4574032"><ele>237.33333333333331</ele><time>2026-03-24T10:55:31.497Z</time></trkpt><trkpt lat="43.1811346" lon="12.4572935"><ele>238.0</ele><time>2026-03-24T10:55:32.496Z</time></trkpt><trkpt lat="43.1813576" lon="12.4572367"><ele>236.0</ele><time>2026-03-24T10:55:33.496Z</time></trkpt><trkpt lat="43.1815813" lon="12.4571587"><ele>234.0</ele><time>2026-03-24T10:55:34.495Z</time></trkpt><trkpt lat="43.1818012" lon="12.4570495"><ele>232.5</ele><time>2026-03-24T10:55:35.495Z</time></trkpt><trkpt lat="43.1820222" lon="12.4569172"><ele>231.0</ele><time>2026-03-24T10:55:36.495Z</time></trkpt><trkpt lat="43.1822212" lon="12.4567571"><ele>230.0</ele><time>2026-03-24T10:55:37.495Z</time></trkpt><trkpt lat="43.182422" lon="12.456579"><ele>229.0</ele><time>2026-03-24T10:55:38.496Z</time></trkpt><trkpt lat="43.1826217" lon="12.4563889"><ele>227.5</ele><time>2026-03-24T10:55:39.495Z</time></trkpt><trkpt lat="43.1828187" lon="12.4561953"><ele>226.0</ele><time>2026-03-24T10:55:40.496Z</time></trkpt><trkpt lat="43.1830179" lon="12.4560016"><ele>227.0</ele><time>2026-03-24T10:55:41.497Z</time></trkpt><trkpt lat="43.1832138" lon="12.4558153"><ele>228.0</ele><time>2026-03-24T10:55:42.495Z</time></trkpt><trkpt lat="43.1834138" lon="12.455604"><ele>226.0</ele><time>2026-03-24T10:55:43.496Z</time></trkpt><trkpt lat="43.1835829" lon="12.4553814"><ele>224.0</ele><time>2026-03-24T10:55:44.495Z</time></trkpt><trkpt lat="43.1837457" lon="12.4551396"><ele>224.0</ele><time>2026-03-24T10:55:45.496Z</time></trkpt><trkpt lat="43.1838978" lon="12.4548687"><ele>224.0</ele><time>2026-03-24T10:55:46.495Z</time></trkpt><trkpt lat="43.1840546" lon="12.4546129"><ele>225.66666666666669</ele><time>2026-03-24T10:55:47.496Z</time></trkpt><trkpt lat="43.1842121" lon="12.4543569"><ele>227.33333333333331</ele><time>2026-03-24T10:55:48.496Z</time></trkpt><trkpt lat="43.1843344" lon="12.4541484"><ele>229.0</ele><time>2026-03-24T10:55:49.497Z</time></trkpt><trkpt lat="43.184457" lon="12.45394"><ele>229.0</ele><time>2026-03-24T10:55:50.496Z</time></trkpt><trkpt lat="43.1845751" lon="12.453739"><ele>229.0</ele><time>2026-03-24T10:55:51.494Z</time></trkpt><trkpt lat="43.1846958" lon="12.4535419"><ele>229.0</ele><time>2026-03-24T10:55:52.495Z</time></trkpt><trkpt lat="43.1848002" lon="12.4533649"><ele>229.66666666666666</ele><time>2026-03-24T10:55:53.494Z</time></trkpt><trkpt lat="43.1849136" lon="12.4531872"><ele>230.33333333333331</ele><time>2026-03-24T10:55:54.497Z</time></trkpt><trkpt lat="43.1850282" lon="12.4530334"><ele>231.0</ele><time>2026-03-24T10:55:55.495Z</time></trkpt><trkpt lat="43.185144" lon="12.4528909"><ele>231.0</ele><time>2026-03-24T10:55:56.495Z</time></trkpt><trkpt lat="43.1852815" lon="12.4527545"><ele>231.0</ele><time>2026-03-24T10:55:57.496Z</time></trkpt><trkpt lat="43.1854256" lon="12.4526375"><ele>231.0</ele><time>2026-03-24T10:55:58.495Z</time></trkpt><trkpt lat="43.1855732" lon="12.4525397"><ele>232.33333333333331</ele><time>2026-03-24T10:55:59.497Z</time></trkpt><trkpt lat="43.1857306" lon="12.4524477"><ele>233.66666666666666</ele><time>2026-03-24T10:56:00.496Z</time></trkpt><trkpt lat="43.1858988" lon="12.4523659"><ele>235.0</ele><time>2026-03-24T10:56:01.496Z</time></trkpt><trkpt lat="43.1860726" lon="12.4522712"><ele>235.0</ele><time>2026-03-24T10:56:02.495Z</time></trkpt><trkpt lat="43.1862446" lon="12.4521726"><ele>235.0</ele><time>2026-03-24T10:56:03.496Z</time></trkpt><trkpt lat="43.1864217" lon="12.452077"><ele>235.0</ele><time>2026-03-24T10:56:04.495Z</time></trkpt><trkpt lat="43.186594" lon="12.4519826"><ele>236.0</ele><time>2026-03-24T10:56:05.494Z</time></trkpt><trkpt lat="43.1867297" lon="12.4519037"><ele>237.0</ele><time>2026-03-24T10:56:06.497Z</time></trkpt><trkpt lat="43.1868781" lon="12.4518224"><ele>238.0</ele><time>2026-03-24T10:56:07.495Z</time></trkpt><trkpt lat="43.1870252" lon="12.4517509"><ele>238.0</ele><time>2026-03-24T10:56:08.494Z</time></trkpt><trkpt lat="43.1871617" lon="12.4516759"><ele>238.0</ele><time>2026-03-24T10:56:09.495Z</time></trkpt><trkpt lat="43.1872776" lon="12.4516053"><ele>238.0</ele><time>2026-03-24T10:56:10.497Z</time></trkpt><trkpt lat="43.1873749" lon="12.4515315"><ele>238.0</ele><time>2026-03-24T10:56:11.494Z</time></trkpt><trkpt lat="43.1874733" lon="12.451435"><ele>238.8</ele><time>2026-03-24T10:56:12.494Z</time></trkpt><trkpt lat="43.1875644" lon="12.4513419"><ele>239.60000000000002</ele><time>2026-03-24T10:56:13.495Z</time></trkpt><trkpt lat="43.187604" lon="12.4511759"><ele>240.39999999999998</ele><time>2026-03-24T10:56:15.496Z</time></trkpt><trkpt lat="43.1875844" lon="12.4510925"><ele>241.2</ele><time>2026-03-24T10:56:16.495Z</time></trkpt><trkpt lat="43.187534" lon="12.4510135"><ele>242.0</ele><time>2026-03-24T10:56:17.495Z</time></trkpt><trkpt lat="43.1874449" lon="12.4509165"><ele>242.0</ele><time>2026-03-24T10:56:18.495Z</time></trkpt><trkpt lat="43.1873448" lon="12.4508166"><ele>242.0</ele><time>2026-03-24T10:56:19.494Z</time></trkpt><trkpt lat="43.1872297" lon="12.4507009"><ele>242.0</ele><time>2026-03-24T10:56:20.495Z</time></trkpt><trkpt lat="43.187094" lon="12.4505546"><ele>242.0</ele><time>2026-03-24T10:56:21.495Z</time></trkpt><trkpt lat="43.1869498" lon="12.4503967"><ele>240.33333333333334</ele><time>2026-03-24T10:56:22.496Z</time></trkpt><trkpt lat="43.186788" lon="12.4502183"><ele>238.66666666666669</ele><time>2026-03-24T10:56:23.494Z</time></trkpt><trkpt lat="43.1866329" lon="12.4500493"><ele>237.0</ele><time>2026-03-24T10:56:24.495Z</time></trkpt><trkpt lat="43.1864587" lon="12.4498797"><ele>236.66666666666669</ele><time>2026-03-24T10:56:25.496Z</time></trkpt><trkpt lat="43.1862965" lon="12.4497098"><ele>236.33333333333334</ele><time>2026-03-24T10:56:26.495Z</time></trkpt><trkpt lat="43.1861365" lon="12.4495413"><ele>236.0</ele><time>2026-03-24T10:56:27.496Z</time></trkpt><trkpt lat="43.1859787" lon="12.4493609"><ele>235.0</ele><time>2026-03-24T10:56:28.494Z</time></trkpt><trkpt lat="43.1858272" lon="12.4491995"><ele>234.0</ele><time>2026-03-24T10:56:29.495Z</time></trkpt><trkpt lat="43.18568" lon="12.4490438"><ele>233.0</ele><time>2026-03-24T10:56:30.495Z</time></trkpt><trkpt lat="43.1855462" lon="12.4488987"><ele>232.25</ele><time>2026-03-24T10:56:31.496Z</time></trkpt><trkpt lat="43.1854463" lon="12.448756"><ele>231.5</ele><time>2026-03-24T10:56:32.496Z</time></trkpt><trkpt lat="43.185376" lon="12.4486059"><ele>230.75</ele><time>2026-03-24T10:56:33.495Z</time></trkpt><trkpt lat="43.1853361" lon="12.4484599"><ele>230.0</ele><time>2026-03-24T10:56:34.496Z</time></trkpt><trkpt lat="43.1853246" lon="12.4482945"><ele>230.0</ele><time>2026-03-24T10:56:35.496Z</time></trkpt><trkpt lat="43.1853191" lon="12.4481185"><ele>230.0</ele><time>2026-03-24T10:56:36.496Z</time></trkpt><trkpt lat="43.1853437" lon="12.4479176"><ele>230.0</ele><time>2026-03-24T10:56:37.494Z</time></trkpt><trkpt lat="43.1853633" lon="12.4477232"><ele>230.0</ele><time>2026-03-24T10:56:38.495Z</time></trkpt><trkpt lat="43.1853583" lon="12.4475243"><ele>229.33333333333334</ele><time>2026-03-24T10:56:39.496Z</time></trkpt><trkpt lat="43.18532" lon="12.4473245"><ele>228.66666666666669</ele><time>2026-03-24T10:56:40.495Z</time></trkpt><trkpt lat="43.1852468" lon="12.4471241"><ele>228.0</ele><time>2026-03-24T10:56:41.495Z</time></trkpt><trkpt lat="43.1851567" lon="12.4469406"><ele>227.66666666666669</ele><time>2026-03-24T10:56:42.496Z</time></trkpt><trkpt lat="43.1850556" lon="12.4467601"><ele>227.33333333333334</ele><time>2026-03-24T10:56:43.496Z</time></trkpt><trkpt lat="43.184954" lon="12.4465855"><ele>227.0</ele><time>2026-03-24T10:56:44.496Z</time></trkpt><trkpt lat="43.18484" lon="12.4464095"><ele>226.66666666666669</ele><time>2026-03-24T10:56:45.495Z</time></trkpt><trkpt lat="43.1847353" lon="12.4462275"><ele>226.33333333333331</ele><time>2026-03-24T10:56:46.496Z</time></trkpt><trkpt lat="43.184632" lon="12.4460595"><ele>226.0</ele><time>2026-03-24T10:56:47.495Z</time></trkpt><trkpt lat="43.1845261" lon="12.4458905"><ele>226.0</ele><time>2026-03-24T10:56:48.495Z</time></trkpt><trkpt lat="43.1844185" lon="12.4457177"><ele>226.0</ele><time>2026-03-24T10:56:49.494Z</time></trkpt><trkpt lat="43.1843089" lon="12.4455341"><ele>226.0</ele><time>2026-03-24T10:56:50.496Z</time></trkpt><trkpt lat="43.1841977" lon="12.4453407"><ele>225.66666666666666</ele><time>2026-03-24T10:56:51.494Z</time></trkpt><trkpt lat="43.1840796" lon="12.4451525"><ele>225.33333333333331</ele><time>2026-03-24T10:56:52.494Z</time></trkpt><trkpt lat="43.1839623" lon="12.4449601"><ele>225.0</ele><time>2026-03-24T10:56:53.495Z</time></trkpt><trkpt lat="43.1838473" lon="12.4447731"><ele>224.66666666666669</ele><time>2026-03-24T10:56:54.496Z</time></trkpt><trkpt lat="43.1837411" lon="12.4445825"><ele>224.33333333333334</ele><time>2026-03-24T10:56:55.497Z</time></trkpt><trkpt lat="43.1836115" lon="12.4443907"><ele>224.0</ele><time>2026-03-24T10:56:56.495Z</time></trkpt><trkpt lat="43.1834942" lon="12.4441968"><ele>224.0</ele><time>2026-03-24T10:56:57.495Z</time></trkpt><trkpt lat="43.1833699" lon="12.4439918"><ele>224.0</ele><time>2026-03-24T10:56:58.494Z</time></trkpt><trkpt lat="43.1832416" lon="12.4437884"><ele>224.0</ele><time>2026-03-24T10:56:59.496Z</time></trkpt><trkpt lat="43.1831247" lon="12.4435887"><ele>223.33333333333334</ele><time>2026-03-24T10:57:00.496Z</time></trkpt><trkpt lat="43.1830119" lon="12.4434018"><ele>222.66666666666669</ele><time>2026-03-24T10:57:01.496Z</time></trkpt><trkpt lat="43.1828934" lon="12.4432227"><ele>222.0</ele><time>2026-03-24T10:57:02.496Z</time></trkpt><trkpt lat="43.1827844" lon="12.4430517"><ele>221.0</ele><time>2026-03-24T10:57:03.495Z</time></trkpt><trkpt lat="43.1826847" lon="12.442871"><ele>220.0</ele><time>2026-03-24T10:57:04.495Z</time></trkpt><trkpt lat="43.1825789" lon="12.4427073"><ele>219.0</ele><time>2026-03-24T10:57:05.496Z</time></trkpt><trkpt lat="43.1824795" lon="12.4425199"><ele>219.0</ele><time>2026-03-24T10:57:06.495Z</time></trkpt><trkpt lat="43.1823694" lon="12.4423476"><ele>219.0</ele><time>2026-03-24T10:57:07.496Z</time></trkpt><trkpt lat="43.1822694" lon="12.442186"><ele>219.0</ele><time>2026-03-24T10:57:08.494Z</time></trkpt><trkpt lat="43.1821645" lon="12.4420149"><ele>218.66666666666669</ele><time>2026-03-24T10:57:09.495Z</time></trkpt><trkpt lat="43.1820764" lon="12.44185"><ele>218.33333333333334</ele><time>2026-03-24T10:57:10.496Z</time></trkpt><trkpt lat="43.1819729" lon="12.4416868"><ele>218.0</ele><time>2026-03-24T10:57:11.495Z</time></trkpt><trkpt lat="43.1818748" lon="12.4415189"><ele>218.0</ele><time>2026-03-24T10:57:12.496Z</time></trkpt><trkpt lat="43.1817656" lon="12.4413572"><ele>218.0</ele><time>2026-03-24T10:57:13.496Z</time></trkpt><trkpt lat="43.1816599" lon="12.4411859"><ele>218.0</ele><time>2026-03-24T10:57:14.496Z</time></trkpt><trkpt lat="43.1815586" lon="12.4410131"><ele>217.33333333333334</ele><time>2026-03-24T10:57:15.494Z</time></trkpt><trkpt lat="43.181449" lon="12.4408444"><ele>216.66666666666669</ele><time>2026-03-24T10:57:16.496Z</time></trkpt><trkpt lat="43.1813474" lon="12.4406667"><ele>216.0</ele><time>2026-03-24T10:57:17.496Z</time></trkpt><trkpt lat="43.1812463" lon="12.4405123"><ele>217.33333333333331</ele><time>2026-03-24T10:57:18.495Z</time></trkpt><trkpt lat="43.1811441" lon="12.4403395"><ele>218.66666666666666</ele><time>2026-03-24T10:57:19.496Z</time></trkpt><trkpt lat="43.1810421" lon="12.4401789"><ele>220.0</ele><time>2026-03-24T10:57:20.496Z</time></trkpt><trkpt lat="43.1809363" lon="12.4400083"><ele>220.0</ele><time>2026-03-24T10:57:21.496Z</time></trkpt><trkpt lat="43.1808302" lon="12.4398454"><ele>220.0</ele><time>2026-03-24T10:57:22.496Z</time></trkpt><trkpt lat="43.1807222" lon="12.4396897"><ele>220.0</ele><time>2026-03-24T10:57:23.496Z</time></trkpt><trkpt lat="43.1806174" lon="12.4395181"><ele>218.66666666666666</ele><time>2026-03-24T10:57:24.496Z</time></trkpt><trkpt lat="43.1805133" lon="12.439349"><ele>217.33333333333331</ele><time>2026-03-24T10:57:25.496Z</time></trkpt><trkpt lat="43.1804206" lon="12.4391856"><ele>216.0</ele><time>2026-03-24T10:57:26.495Z</time></trkpt><trkpt lat="43.1803099" lon="12.4390037"><ele>216.0</ele><time>2026-03-24T10:57:27.495Z</time></trkpt><trkpt lat="43.1802" lon="12.4388158"><ele>216.0</ele><time>2026-03-24T10:57:28.495Z</time></trkpt><trkpt lat="43.1800902" lon="12.4386379"><ele>216.0</ele><time>2026-03-24T10:57:29.497Z</time></trkpt><trkpt lat="43.1799903" lon="12.4384752"><ele>216.0</ele><time>2026-03-24T10:57:30.496Z</time></trkpt><trkpt lat="43.1798801" lon="12.4383022"><ele>216.0</ele><time>2026-03-24T10:57:31.495Z</time></trkpt><trkpt lat="43.1797726" lon="12.4381322"><ele>216.0</ele><time>2026-03-24T10:57:32.496Z</time></trkpt><trkpt lat="43.1796628" lon="12.4379682"><ele>216.66666666666669</ele><time>2026-03-24T10:57:33.496Z</time></trkpt><trkpt lat="43.1795567" lon="12.4377943"><ele>217.33333333333334</ele><time>2026-03-24T10:57:34.496Z</time></trkpt><trkpt lat="43.1794534" lon="12.4376228"><ele>218.0</ele><time>2026-03-24T10:57:35.496Z</time></trkpt><trkpt lat="43.1793541" lon="12.4374451"><ele>218.0</ele><time>2026-03-24T10:57:36.495Z</time></trkpt><trkpt lat="43.1792438" lon="12.4372774"><ele>218.0</ele><time>2026-03-24T10:57:37.496Z</time></trkpt><trkpt lat="43.1791375" lon="12.4371108"><ele>218.0</ele><time>2026-03-24T10:57:38.495Z</time></trkpt><trkpt lat="43.1790355" lon="12.4369409"><ele>217.0</ele><time>2026-03-24T10:57:39.496Z</time></trkpt><trkpt lat="43.1789384" lon="12.4367643"><ele>216.0</ele><time>2026-03-24T10:57:40.496Z</time></trkpt><trkpt lat="43.1788333" lon="12.4365906"><ele>215.0</ele><time>2026-03-24T10:57:41.495Z</time></trkpt><trkpt lat="43.1787242" lon="12.4364257"><ele>214.66666666666669</ele><time>2026-03-24T10:57:42.496Z</time></trkpt><trkpt lat="43.1786195" lon="12.4362572"><ele>214.33333333333331</ele><time>2026-03-24T10:57:43.496Z</time></trkpt><trkpt lat="43.1785092" lon="12.4360922"><ele>214.0</ele><time>2026-03-24T10:57:44.495Z</time></trkpt><trkpt lat="43.178408" lon="12.4359199"><ele>214.0</ele><time>2026-03-24T10:57:45.495Z</time></trkpt><trkpt lat="43.1783014" lon="12.4357534"><ele>214.0</ele><time>2026-03-24T10:57:46.496Z</time></trkpt><trkpt lat="43.1781979" lon="12.4355845"><ele>214.0</ele><time>2026-03-24T10:57:47.495Z</time></trkpt><trkpt lat="43.1780923" lon="12.4354026"><ele>213.66666666666666</ele><time>2026-03-24T10:57:48.496Z</time></trkpt><trkpt lat="43.1779905" lon="12.4352348"><ele>213.33333333333331</ele><time>2026-03-24T10:57:49.495Z</time></trkpt><trkpt lat="43.1778942" lon="12.4350673"><ele>213.0</ele><time>2026-03-24T10:57:50.496Z</time></trkpt><trkpt lat="43.1778011" lon="12.4349074"><ele>213.0</ele><time>2026-03-24T10:57:51.495Z</time></trkpt><trkpt lat="43.1777074" lon="12.434757"><ele>213.0</ele><time>2026-03-24T10:57:52.495Z</time></trkpt><trkpt lat="43.1776285" lon="12.4346187"><ele>213.0</ele><time>2026-03-24T10:57:53.495Z</time></trkpt><trkpt lat="43.1775478" lon="12.4344845"><ele>213.0</ele><time>2026-03-24T10:57:54.494Z</time></trkpt><trkpt lat="43.1774675" lon="12.4343668"><ele>213.25</ele><time>2026-03-24T10:57:55.495Z</time></trkpt><trkpt lat="43.1773876" lon="12.4342591"><ele>213.5</ele><time>2026-03-24T10:57:56.496Z</time></trkpt><trkpt lat="43.17731" lon="12.4341452"><ele>213.75</ele><time>2026-03-24T10:57:57.495Z</time></trkpt><trkpt lat="43.177232" lon="12.4340184"><ele>214.0</ele><time>2026-03-24T10:57:58.497Z</time></trkpt><trkpt lat="43.1771576" lon="12.4338853"><ele>213.75</ele><time>2026-03-24T10:57:59.497Z</time></trkpt><trkpt lat="43.1770885" lon="12.4337583"><ele>213.5</ele><time>2026-03-24T10:58:00.496Z</time></trkpt><trkpt lat="43.1770102" lon="12.4336216"><ele>213.25</ele><time>2026-03-24T10:58:01.495Z</time></trkpt><trkpt lat="43.1769355" lon="12.4334968"><ele>213.0</ele><time>2026-03-24T10:58:02.496Z</time></trkpt><trkpt lat="43.1768617" lon="12.4333782"><ele>213.0</ele><time>2026-03-24T10:58:03.496Z</time></trkpt><trkpt lat="43.1767895" lon="12.4332609"><ele>213.0</ele><time>2026-03-24T10:58:04.496Z</time></trkpt><trkpt lat="43.176723" lon="12.4331473"><ele>213.0</ele><time>2026-03-24T10:58:05.496Z</time></trkpt><trkpt lat="43.1766553" lon="12.4330447"><ele>213.0</ele><time>2026-03-24T10:58:06.496Z</time></trkpt><trkpt lat="43.1765914" lon="12.4329311"><ele>213.0</ele><time>2026-03-24T10:58:07.496Z</time></trkpt><trkpt lat="43.1765195" lon="12.4327997"><ele>212.5</ele><time>2026-03-24T10:58:08.497Z</time></trkpt><trkpt lat="43.1764499" lon="12.4326831"><ele>212.0</ele><time>2026-03-24T10:58:09.495Z</time></trkpt><trkpt lat="43.1763586" lon="12.4325654"><ele>211.5</ele><time>2026-03-24T10:58:10.496Z</time></trkpt><trkpt lat="43.1762757" lon="12.4324566"><ele>211.0</ele><time>2026-03-24T10:58:11.496Z</time></trkpt><trkpt lat="43.1761963" lon="12.4323358"><ele>211.0</ele><time>2026-03-24T10:58:12.495Z</time></trkpt><trkpt lat="43.1761162" lon="12.4322019"><ele>211.0</ele><time>2026-03-24T10:58:13.497Z</time></trkpt><trkpt lat="43.1760386" lon="12.4320776"><ele>211.0</ele><time>2026-03-24T10:58:14.495Z</time></trkpt><trkpt lat="43.1759751" lon="12.4319824"><ele>211.0</ele><time>2026-03-24T10:58:15.496Z</time></trkpt><trkpt lat="43.1759259" lon="12.4318946"><ele>211.0</ele><time>2026-03-24T10:58:16.495Z</time></trkpt><trkpt lat="43.175866" lon="12.4317764"><ele>211.0</ele><time>2026-03-24T10:58:17.495Z</time></trkpt><trkpt lat="43.175801" lon="12.4316737"><ele>211.0</ele><time>2026-03-24T10:58:18.496Z</time></trkpt><trkpt lat="43.1757512" lon="12.4315738"><ele>211.0</ele><time>2026-03-24T10:58:19.495Z</time></trkpt><trkpt lat="43.1756894" lon="12.4314792"><ele>211.0</ele><time>2026-03-24T10:58:20.497Z</time></trkpt><trkpt lat="43.1756329" lon="12.4313893"><ele>211.0</ele><time>2026-03-24T10:58:21.496Z</time></trkpt><trkpt lat="43.1755753" lon="12.4312917"><ele>210.75</ele><time>2026-03-24T10:58:22.496Z</time></trkpt><trkpt lat="43.1755088" lon="12.4311855"><ele>210.5</ele><time>2026-03-24T10:58:23.496Z</time></trkpt><trkpt lat="43.1754441" lon="12.4310687"><ele>210.25</ele><time>2026-03-24T10:58:24.496Z</time></trkpt><trkpt lat="43.1753695" lon="12.4309412"><ele>210.0</ele><time>2026-03-24T10:58:25.496Z</time></trkpt><trkpt lat="43.1752924" lon="12.4308101"><ele>210.0</ele><time>2026-03-24T10:58:26.495Z</time></trkpt><trkpt lat="43.175213" lon="12.4306612"><ele>210.0</ele><time>2026-03-24T10:58:27.495Z</time></trkpt><trkpt lat="43.1751266" lon="12.4305194"><ele>210.0</ele><time>2026-03-24T10:58:28.496Z</time></trkpt><trkpt lat="43.1750478" lon="12.4303841"><ele>210.0</ele><time>2026-03-24T10:58:29.495Z</time></trkpt><trkpt lat="43.1749676" lon="12.4302515"><ele>209.8</ele><time>2026-03-24T10:58:30.495Z</time></trkpt><trkpt lat="43.1749018" lon="12.4301357"><ele>209.6</ele><time>2026-03-24T10:58:31.496Z</time></trkpt><trkpt lat="43.1748391" lon="12.4300342"><ele>209.39999999999998</ele><time>2026-03-24T10:58:32.496Z</time></trkpt><trkpt lat="43.1747775" lon="12.4299415"><ele>209.2</ele><time>2026-03-24T10:58:33.496Z</time></trkpt><trkpt lat="43.1747238" lon="12.429841"><ele>209.0</ele><time>2026-03-24T10:58:34.496Z</time></trkpt><trkpt lat="43.1746614" lon="12.429745"><ele>209.00000000000003</ele><time>2026-03-24T10:58:35.496Z</time></trkpt><trkpt lat="43.1746158" lon="12.4296537"><ele>209.0</ele><time>2026-03-24T10:58:36.495Z</time></trkpt><trkpt lat="43.174563" lon="12.4295686"><ele>209.0</ele><time>2026-03-24T10:58:37.495Z</time></trkpt><trkpt lat="43.1745192" lon="12.4294819"><ele>209.0</ele><time>2026-03-24T10:58:38.495Z</time></trkpt><trkpt lat="43.1744901" lon="12.4293963"><ele>209.00000000000003</ele><time>2026-03-24T10:58:40.496Z</time></trkpt><trkpt lat="43.1743844" lon="12.4293766"><ele>209.0</ele><time>2026-03-24T10:58:43.495Z</time></trkpt><trkpt lat="43.1742779" lon="12.4294705"><ele>209.0</ele><time>2026-03-24T10:58:45.495Z</time></trkpt><trkpt lat="43.1742183" lon="12.4295432"><ele>209.0</ele><time>2026-03-24T10:58:46.497Z</time></trkpt><trkpt lat="43.1741435" lon="12.4296368"><ele>209.0</ele><time>2026-03-24T10:58:47.496Z</time></trkpt><trkpt lat="43.1740626" lon="12.4297364"><ele>209.0</ele><time>2026-03-24T10:58:48.496Z</time></trkpt><trkpt lat="43.173976" lon="12.4298496"><ele>209.0</ele><time>2026-03-24T10:58:49.495Z</time></trkpt><trkpt lat="43.1738723" lon="12.4299496"><ele>209.0</ele><time>2026-03-24T10:58:50.495Z</time></trkpt><trkpt lat="43.1737572" lon="12.4300269"><ele>209.0</ele><time>2026-03-24T10:58:51.496Z</time></trkpt><trkpt lat="43.1736343" lon="12.4301152"><ele>209.0</ele><time>2026-03-24T10:58:52.497Z</time></trkpt><trkpt lat="43.1734891" lon="12.4301574"><ele>209.0</ele><time>2026-03-24T10:58:53.495Z</time></trkpt><trkpt lat="43.1733557" lon="12.4301987"><ele>209.0</ele><time>2026-03-24T10:58:54.496Z</time></trkpt><trkpt lat="43.1732203" lon="12.4302368"><ele>209.0</ele><time>2026-03-24T10:58:55.495Z</time></trkpt><trkpt lat="43.1730761" lon="12.4302871"><ele>209.0</ele><time>2026-03-24T10:58:56.495Z</time></trkpt><trkpt lat="43.1729236" lon="12.4303491"><ele>209.0</ele><time>2026-03-24T10:58:57.495Z</time></trkpt><trkpt lat="43.1727448" lon="12.4304071"><ele>208.0</ele><time>2026-03-24T10:58:58.496Z</time></trkpt><trkpt lat="43.1725645" lon="12.4304786"><ele>207.0</ele><time>2026-03-24T10:58:59.496Z</time></trkpt><trkpt lat="43.1723896" lon="12.430524"><ele>206.0</ele><time>2026-03-24T10:59:00.495Z</time></trkpt><trkpt lat="43.1722338" lon="12.4305338"><ele>206.0</ele><time>2026-03-24T10:59:01.495Z</time></trkpt><trkpt lat="43.1720922" lon="12.4304867"><ele>206.0</ele><time>2026-03-24T10:59:02.495Z</time></trkpt><trkpt lat="43.1719687" lon="12.4303866"><ele>206.0</ele><time>2026-03-24T10:59:03.497Z</time></trkpt><trkpt lat="43.1718754" lon="12.4302442"><ele>206.0</ele><time>2026-03-24T10:59:04.495Z</time></trkpt><trkpt lat="43.1718108" lon="12.430082"><ele>206.0</ele><time>2026-03-24T10:59:05.496Z</time></trkpt><trkpt lat="43.1717645" lon="12.4299154"><ele>206.0</ele><time>2026-03-24T10:59:06.496Z</time></trkpt><trkpt lat="43.171728" lon="12.4297388"><ele>206.0</ele><time>2026-03-24T10:59:07.496Z</time></trkpt><trkpt lat="43.1717059" lon="12.4295608"><ele>206.0</ele><time>2026-03-24T10:59:08.496Z</time></trkpt><trkpt lat="43.1716843" lon="12.4294067"><ele>206.0</ele><time>2026-03-24T10:59:09.496Z</time></trkpt><trkpt lat="43.1716533" lon="12.4292528"><ele>206.0</ele><time>2026-03-24T10:59:10.496Z</time></trkpt><trkpt lat="43.1716116" lon="12.4290941"><ele>206.0</ele><time>2026-03-24T10:59:11.495Z</time></trkpt><trkpt lat="43.1715806" lon="12.4289351"><ele>206.0</ele><time>2026-03-24T10:59:12.496Z</time></trkpt><trkpt lat="43.1715568" lon="12.4287682"><ele>205.5</ele><time>2026-03-24T10:59:13.497Z</time></trkpt><trkpt lat="43.1715166" lon="12.4285894"><ele>205.0</ele><time>2026-03-24T10:59:14.496Z</time></trkpt><trkpt lat="43.1714702" lon="12.4283853"><ele>204.5</ele><time>2026-03-24T10:59:15.496Z</time></trkpt><trkpt lat="43.171437" lon="12.4281898"><ele>204.0</ele><time>2026-03-24T10:59:16.496Z</time></trkpt><trkpt lat="43.1714012" lon="12.428"><ele>204.25</ele><time>2026-03-24T10:59:17.495Z</time></trkpt><trkpt lat="43.1713684" lon="12.4278048"><ele>204.5</ele><time>2026-03-24T10:59:18.495Z</time></trkpt><trkpt lat="43.1713411" lon="12.4276271"><ele>204.75</ele><time>2026-03-24T10:59:19.496Z</time></trkpt><trkpt lat="43.171312" lon="12.4274477"><ele>205.0</ele><time>2026-03-24T10:59:20.497Z</time></trkpt><trkpt lat="43.1712798" lon="12.4272929"><ele>205.0</ele><time>2026-03-24T10:59:21.495Z</time></trkpt><trkpt lat="43.1712347" lon="12.4271639"><ele>205.0</ele><time>2026-03-24T10:59:22.495Z</time></trkpt><trkpt lat="43.1712249" lon="12.4269966"><ele>205.0</ele><time>2026-03-24T10:59:24.495Z</time></trkpt><trkpt lat="43.1712843" lon="12.4268837"><ele>205.0</ele><time>2026-03-24T10:59:26.496Z</time></trkpt><trkpt lat="43.1713837" lon="12.4269697"><ele>205.0</ele><time>2026-03-24T10:59:27.497Z</time></trkpt><trkpt lat="43.1714479" lon="12.4269385"><ele>205.6</ele><time>2026-03-24T10:59:28.495Z</time></trkpt><trkpt lat="43.1715284" lon="12.4268199"><ele>206.2</ele><time>2026-03-24T10:59:30.495Z</time></trkpt><trkpt lat="43.1715711" lon="12.426658"><ele>206.8</ele><time>2026-03-24T10:59:32.495Z</time></trkpt><trkpt lat="43.1716127" lon="12.4265464"><ele>207.4</ele><time>2026-03-24T10:59:33.496Z</time></trkpt><trkpt lat="43.1716455" lon="12.4264343"><ele>208.0</ele><time>2026-03-24T10:59:34.495Z</time></trkpt><trkpt lat="43.1716809" lon="12.4263261"><ele>208.0</ele><time>2026-03-24T10:59:35.497Z</time></trkpt><trkpt lat="43.1717119" lon="12.4262114"><ele>208.0</ele><time>2026-03-24T10:59:36.495Z</time></trkpt><trkpt lat="43.1717756" lon="12.4260859"><ele>208.0</ele><time>2026-03-24T10:59:37.497Z</time></trkpt><trkpt lat="43.1718154" lon="12.4259686"><ele>208.0</ele><time>2026-03-24T10:59:38.497Z</time></trkpt><trkpt lat="43.1718412" lon="12.4258299"><ele>208.0</ele><time>2026-03-24T10:59:40.495Z</time></trkpt><trkpt lat="43.1717779" lon="12.4256798"><ele>208.0</ele><time>2026-03-24T10:59:42.497Z</time></trkpt><trkpt lat="43.1717091" lon="12.4255992"><ele>208.0</ele><time>2026-03-24T10:59:43.496Z</time></trkpt><trkpt lat="43.1716404" lon="12.4255033"><ele>208.0</ele><time>2026-03-24T10:59:44.496Z</time></trkpt><trkpt lat="43.1715733" lon="12.425384"><ele>208.0</ele><time>2026-03-24T10:59:45.496Z</time></trkpt><trkpt lat="43.1715081" lon="12.4252417"><ele>208.0</ele><time>2026-03-24T10:59:46.496Z</time></trkpt><trkpt lat="43.1714391" lon="12.4250557"><ele>209.66666666666666</ele><time>2026-03-24T10:59:47.496Z</time></trkpt><trkpt lat="43.1713442" lon="12.4248707"><ele>211.33333333333331</ele><time>2026-03-24T10:59:48.496Z</time></trkpt><trkpt lat="43.1712557" lon="12.4246781"><ele>213.0</ele><time>2026-03-24T10:59:49.496Z</time></trkpt><trkpt lat="43.1711789" lon="12.4245083"><ele>214.4</ele><time>2026-03-24T10:59:50.496Z</time></trkpt><trkpt lat="43.1711361" lon="12.4243565"><ele>215.8</ele><time>2026-03-24T10:59:51.496Z</time></trkpt><trkpt lat="43.1711022" lon="12.4242103"><ele>217.2</ele><time>2026-03-24T10:59:52.495Z</time></trkpt><trkpt lat="43.1711079" lon="12.4240553"><ele>218.6</ele><time>2026-03-24T10:59:53.496Z</time></trkpt><trkpt lat="43.1711423" lon="12.423926"><ele>220.0</ele><time>2026-03-24T10:59:54.496Z</time></trkpt><trkpt lat="43.1711788" lon="12.4238171"><ele>222.33333333333331</ele><time>2026-03-24T10:59:55.496Z</time></trkpt><trkpt lat="43.171319" lon="12.4237127"><ele>224.66666666666669</ele><time>2026-03-24T10:59:56.496Z</time></trkpt><trkpt lat="43.1713994" lon="12.4236094"><ele>227.0</ele><time>2026-03-24T10:59:57.496Z</time></trkpt><trkpt lat="43.1716377" lon="12.4233611"><ele>227.0</ele><time>2026-03-24T10:59:58.497Z</time></trkpt><trkpt lat="43.1717287" lon="12.4233219"><ele>227.0</ele><time>2026-03-24T10:59:59.496Z</time></trkpt><trkpt lat="43.1718694" lon="12.4232529"><ele>227.0</ele><time>2026-03-24T11:00:00.496Z</time></trkpt><trkpt lat="43.171955" lon="12.4231741"><ele>227.0</ele><time>2026-03-24T11:00:01.496Z</time></trkpt><trkpt lat="43.1719985" lon="12.4230786"><ele>227.0</ele><time>2026-03-24T11:00:02.495Z</time></trkpt><trkpt lat="43.1719394" lon="12.4229542"><ele>230.5</ele><time>2026-03-24T11:00:04.495Z</time></trkpt><trkpt lat="43.1718667" lon="12.4229281"><ele>234.0</ele><time>2026-03-24T11:00:05.496Z</time></trkpt><trkpt lat="43.1717855" lon="12.4229229"><ele>237.5</ele><time>2026-03-24T11:00:06.497Z</time></trkpt><trkpt lat="43.1715742" lon="12.4229761"><ele>241.0</ele><time>2026-03-24T11:00:07.498Z</time></trkpt><trkpt lat="43.1714286" lon="12.4229953"><ele>241.0</ele><time>2026-03-24T11:00:08.496Z</time></trkpt><trkpt lat="43.1713144" lon="12.4229926"><ele>241.00000000000003</ele><time>2026-03-24T11:00:09.497Z</time></trkpt><trkpt lat="43.1711891" lon="12.4229928"><ele>241.00000000000003</ele><time>2026-03-24T11:00:10.495Z</time></trkpt><trkpt lat="43.1711245" lon="12.4229937"><ele>241.0</ele><time>2026-03-24T11:00:11.496Z</time></trkpt><trkpt lat="43.1710343" lon="12.4229245"><ele>241.0</ele><time>2026-03-24T11:00:13.497Z</time></trkpt><trkpt lat="43.1711894" lon="12.4228368"><ele>244.20000000000002</ele><time>2026-03-24T11:00:16.497Z</time></trkpt><trkpt lat="43.1712446" lon="12.4227631"><ele>247.40000000000003</ele><time>2026-03-24T11:00:17.497Z</time></trkpt><trkpt lat="43.1713257" lon="12.4226179"><ele>250.6</ele><time>2026-03-24T11:00:18.497Z</time></trkpt><trkpt lat="43.1713866" lon="12.4225087"><ele>253.8</ele><time>2026-03-24T11:00:19.497Z</time></trkpt><trkpt lat="43.1714174" lon="12.4224041"><ele>257.0</ele><time>2026-03-24T11:00:20.497Z</time></trkpt><trkpt lat="43.1714508" lon="12.4223113"><ele>257.0</ele><time>2026-03-24T11:00:21.496Z</time></trkpt><trkpt lat="43.1714818" lon="12.4221821"><ele>257.0</ele><time>2026-03-24T11:00:23.496Z</time></trkpt><trkpt lat="43.1714706" lon="12.4220866"><ele>257.0</ele><time>2026-03-24T11:01:37.497Z</time></trkpt><trkpt lat="43.1714227" lon="12.4220254"><ele>257.0</ele><time>2026-03-24T11:01:43.495Z</time></trkpt><trkpt lat="43.1713718" lon="12.4219691"><ele>257.0</ele><time>2026-03-24T11:01:55.495Z</time></trkpt><trkpt lat="43.1713202" lon="12.4219182"><ele>257.0</ele><time>2026-03-24T11:02:00.495Z</time></trkpt><trkpt lat="43.1713634" lon="12.4218532"><ele>257.0</ele><time>2026-03-24T11:04:03.497Z</time></trkpt><trkpt lat="43.1713752" lon="12.421943"><ele>257.0</ele><time>2026-03-24T11:05:29.496Z</time></trkpt><trkpt lat="43.1714378" lon="12.421994"><ele>257.0</ele><time>2026-03-24T11:05:35.496Z</time></trkpt><trkpt lat="43.1714936" lon="12.4220492"><ele>257.0</ele><time>2026-03-24T11:05:42.496Z</time></trkpt><trkpt lat="43.1715376" lon="12.4221152"><ele>257.0</ele><time>2026-03-24T11:05:50.495Z</time></trkpt><trkpt lat="43.1714495" lon="12.4222726"><ele>257.0</ele><time>2026-03-24T11:07:17.496Z</time></trkpt><trkpt lat="43.1714074" lon="12.4224196"><ele>257.0</ele><time>2026-03-24T11:07:19.495Z</time></trkpt><trkpt lat="43.1713787" lon="12.4225295"><ele>257.0</ele><time>2026-03-24T11:07:20.496Z</time></trkpt><trkpt lat="43.1713059" lon="12.4226634"><ele>257.0</ele><time>2026-03-24T11:07:22.497Z</time></trkpt><trkpt lat="43.1712648" lon="12.422732"><ele>257.0</ele><time>2026-03-24T11:07:23.496Z</time></trkpt><trkpt lat="43.1711622" lon="12.4228322"><ele>257.0</ele><time>2026-03-24T11:07:25.495Z</time></trkpt><trkpt lat="43.1710776" lon="12.4228868"><ele>254.33333333333334</ele><time>2026-03-24T11:07:27.495Z</time></trkpt><trkpt lat="43.1711018" lon="12.4229845"><ele>251.66666666666669</ele><time>2026-03-24T11:07:30.495Z</time></trkpt><trkpt lat="43.1712092" lon="12.4230397"><ele>249.0</ele><time>2026-03-24T11:07:32.495Z</time></trkpt><trkpt lat="43.1712993" lon="12.4230436"><ele>246.33333333333331</ele><time>2026-03-24T11:07:33.495Z</time></trkpt><trkpt lat="43.1713789" lon="12.4230598"><ele>243.66666666666666</ele><time>2026-03-24T11:07:34.495Z</time></trkpt><trkpt lat="43.1714662" lon="12.4230549"><ele>241.0</ele><time>2026-03-24T11:07:35.495Z</time></trkpt><trkpt lat="43.1715529" lon="12.4230565"><ele>238.66666666666666</ele><time>2026-03-24T11:07:36.496Z</time></trkpt><trkpt lat="43.1716514" lon="12.4230484"><ele>236.33333333333331</ele><time>2026-03-24T11:07:37.496Z</time></trkpt><trkpt lat="43.17174" lon="12.4230351"><ele>234.0</ele><time>2026-03-24T11:07:38.497Z</time></trkpt><trkpt lat="43.1718262" lon="12.4230193"><ele>231.66666666666669</ele><time>2026-03-24T11:07:39.497Z</time></trkpt><trkpt lat="43.171897" lon="12.4230131"><ele>229.33333333333334</ele><time>2026-03-24T11:07:40.495Z</time></trkpt><trkpt lat="43.1719692" lon="12.4230011"><ele>227.0</ele><time>2026-03-24T11:07:41.496Z</time></trkpt><trkpt lat="43.1720443" lon="12.4230091"><ele>227.0</ele><time>2026-03-24T11:07:42.496Z</time></trkpt><trkpt lat="43.1720574" lon="12.4231411"><ele>227.0</ele><time>2026-03-24T11:07:44.497Z</time></trkpt><trkpt lat="43.171941" lon="12.4232531"><ele>227.0</ele><time>2026-03-24T11:07:46.497Z</time></trkpt><trkpt lat="43.1718346" lon="12.423323"><ele>227.0</ele><time>2026-03-24T11:07:47.497Z</time></trkpt><trkpt lat="43.1717477" lon="12.4233745"><ele>227.0</ele><time>2026-03-24T11:07:48.497Z</time></trkpt><trkpt lat="43.1716433" lon="12.4234561"><ele>227.0</ele><time>2026-03-24T11:07:49.496Z</time></trkpt><trkpt lat="43.1715467" lon="12.423541"><ele>227.0</ele><time>2026-03-24T11:07:50.497Z</time></trkpt><trkpt lat="43.1714353" lon="12.4236353"><ele>227.0</ele><time>2026-03-24T11:07:51.497Z</time></trkpt><trkpt lat="43.1713358" lon="12.4237279"><ele>225.6</ele><time>2026-03-24T11:07:52.496Z</time></trkpt><trkpt lat="43.1712279" lon="12.4238531"><ele>224.2</ele><time>2026-03-24T11:07:53.498Z</time></trkpt><trkpt lat="43.1711554" lon="12.4239529"><ele>222.8</ele><time>2026-03-24T11:07:54.497Z</time></trkpt><trkpt lat="43.171074" lon="12.4240576"><ele>221.4</ele><time>2026-03-24T11:07:55.496Z</time></trkpt><trkpt lat="43.1710409" lon="12.4241517"><ele>220.0</ele><time>2026-03-24T11:07:56.498Z</time></trkpt><trkpt lat="43.1711273" lon="12.4243392"><ele>217.66666666666666</ele><time>2026-03-24T11:07:57.498Z</time></trkpt><trkpt lat="43.1712716" lon="12.4247465"><ele>215.33333333333331</ele><time>2026-03-24T11:08:00.497Z</time></trkpt><trkpt lat="43.1713123" lon="12.4248489"><ele>213.0</ele><time>2026-03-24T11:08:01.497Z</time></trkpt><trkpt lat="43.1713624" lon="12.4249178"><ele>213.0</ele><time>2026-03-24T11:08:02.497Z</time></trkpt><trkpt lat="43.1714563" lon="12.4250011"><ele>213.0</ele><time>2026-03-24T11:08:04.497Z</time></trkpt><trkpt lat="43.1715222" lon="12.4249037"><ele>213.0</ele><time>2026-03-24T11:08:05.497Z</time></trkpt><trkpt lat="43.1716345" lon="12.424741"><ele>213.0</ele><time>2026-03-24T11:08:07.497Z</time></trkpt><trkpt lat="43.171727" lon="12.4245975"><ele>212.66666666666669</ele><time>2026-03-24T11:08:08.497Z</time></trkpt><trkpt lat="43.1718421" lon="12.4244691"><ele>212.33333333333334</ele><time>2026-03-24T11:08:09.495Z</time></trkpt><trkpt lat="43.171964" lon="12.42433"><ele>212.0</ele><time>2026-03-24T11:08:10.497Z</time></trkpt><trkpt lat="43.1720929" lon="12.4241918"><ele>212.0</ele><time>2026-03-24T11:08:11.495Z</time></trkpt><trkpt lat="43.1722305" lon="12.4240423"><ele>212.0</ele><time>2026-03-24T11:08:12.496Z</time></trkpt><trkpt lat="43.1723619" lon="12.4238784"><ele>212.0</ele><time>2026-03-24T11:08:13.496Z</time></trkpt><trkpt lat="43.1725059" lon="12.4237127"><ele>212.33333333333334</ele><time>2026-03-24T11:08:14.495Z</time></trkpt><trkpt lat="43.1726565" lon="12.4235311"><ele>212.66666666666669</ele><time>2026-03-24T11:08:15.497Z</time></trkpt><trkpt lat="43.1727946" lon="12.4233604"><ele>213.0</ele><time>2026-03-24T11:08:16.497Z</time></trkpt><trkpt lat="43.1729346" lon="12.4231941"><ele>213.0</ele><time>2026-03-24T11:08:17.497Z</time></trkpt><trkpt lat="43.1730623" lon="12.4230357"><ele>213.0</ele><time>2026-03-24T11:08:18.497Z</time></trkpt><trkpt lat="43.1731888" lon="12.4229152"><ele>213.0</ele><time>2026-03-24T11:08:19.497Z</time></trkpt><trkpt lat="43.1733181" lon="12.4228283"><ele>213.33333333333331</ele><time>2026-03-24T11:08:20.497Z</time></trkpt><trkpt lat="43.1734641" lon="12.4227601"><ele>213.66666666666666</ele><time>2026-03-24T11:08:21.496Z</time></trkpt><trkpt lat="43.1736289" lon="12.4227208"><ele>214.0</ele><time>2026-03-24T11:08:22.496Z</time></trkpt><trkpt lat="43.173795" lon="12.4227117"><ele>214.0</ele><time>2026-03-24T11:08:23.496Z</time></trkpt><trkpt lat="43.1739602" lon="12.4227079"><ele>214.0</ele><time>2026-03-24T11:08:24.497Z</time></trkpt><trkpt lat="43.1741268" lon="12.4226879"><ele>214.0</ele><time>2026-03-24T11:08:25.498Z</time></trkpt><trkpt lat="43.1742968" lon="12.4226528"><ele>212.75</ele><time>2026-03-24T11:08:26.496Z</time></trkpt><trkpt lat="43.1744375" lon="12.4225955"><ele>211.5</ele><time>2026-03-24T11:08:27.496Z</time></trkpt><trkpt lat="43.1745555" lon="12.422508"><ele>210.25</ele><time>2026-03-24T11:08:28.496Z</time></trkpt><trkpt lat="43.1746645" lon="12.4223807"><ele>209.0</ele><time>2026-03-24T11:08:29.497Z</time></trkpt><trkpt lat="43.1747683" lon="12.4221962"><ele>207.66666666666669</ele><time>2026-03-24T11:08:30.497Z</time></trkpt><trkpt lat="43.1748793" lon="12.4219819"><ele>206.33333333333331</ele><time>2026-03-24T11:08:31.497Z</time></trkpt><trkpt lat="43.1750007" lon="12.4217544"><ele>205.0</ele><time>2026-03-24T11:08:32.497Z</time></trkpt><trkpt lat="43.1751279" lon="12.4215115"><ele>206.5</ele><time>2026-03-24T11:08:33.496Z</time></trkpt><trkpt lat="43.1752594" lon="12.421252"><ele>208.0</ele><time>2026-03-24T11:08:34.497Z</time></trkpt><trkpt lat="43.1754019" lon="12.4209946"><ele>208.0</ele><time>2026-03-24T11:08:35.496Z</time></trkpt><trkpt lat="43.175531" lon="12.4207491"><ele>208.0</ele><time>2026-03-24T11:08:36.497Z</time></trkpt><trkpt lat="43.1756443" lon="12.4205144"><ele>208.0</ele><time>2026-03-24T11:08:37.497Z</time></trkpt><trkpt lat="43.1757598" lon="12.4202958"><ele>212.0</ele><time>2026-03-24T11:08:38.496Z</time></trkpt><trkpt lat="43.1758582" lon="12.420098"><ele>216.0</ele><time>2026-03-24T11:08:39.496Z</time></trkpt><trkpt lat="43.1759543" lon="12.4199097"><ele>220.0</ele><time>2026-03-24T11:08:40.496Z</time></trkpt><trkpt lat="43.1760315" lon="12.4197388"><ele>225.75</ele><time>2026-03-24T11:08:41.496Z</time></trkpt><trkpt lat="43.1761145" lon="12.4195778"><ele>231.5</ele><time>2026-03-24T11:08:42.497Z</time></trkpt><trkpt lat="43.1762087" lon="12.4196364"><ele>237.25</ele><time>2026-03-24T11:08:43.496Z</time></trkpt><trkpt lat="43.1763133" lon="12.419603"><ele>243.0</ele><time>2026-03-24T11:08:44.496Z</time></trkpt><trkpt lat="43.1764173" lon="12.4195856"><ele>241.5</ele><time>2026-03-24T11:08:45.497Z</time></trkpt><trkpt lat="43.1765302" lon="12.4195671"><ele>240.0</ele><time>2026-03-24T11:08:46.497Z</time></trkpt><trkpt lat="43.1766512" lon="12.4195118"><ele>238.5</ele><time>2026-03-24T11:08:47.497Z</time></trkpt><trkpt lat="43.1767778" lon="12.4194498"><ele>237.0</ele><time>2026-03-24T11:08:48.497Z</time></trkpt><trkpt lat="43.1769306" lon="12.4193879"><ele>237.0</ele><time>2026-03-24T11:08:49.497Z</time></trkpt><trkpt lat="43.1770882" lon="12.4193429"><ele>237.0</ele><time>2026-03-24T11:08:50.496Z</time></trkpt><trkpt lat="43.1772447" lon="12.4193047"><ele>237.0</ele><time>2026-03-24T11:08:51.496Z</time></trkpt><trkpt lat="43.177423" lon="12.4193589"><ele>233.75</ele><time>2026-03-24T11:08:52.498Z</time></trkpt><trkpt lat="43.1775632" lon="12.4193712"><ele>230.5</ele><time>2026-03-24T11:08:53.496Z</time></trkpt><trkpt lat="43.1777021" lon="12.4193644"><ele>227.25</ele><time>2026-03-24T11:08:54.497Z</time></trkpt><trkpt lat="43.1778287" lon="12.4193677"><ele>224.0</ele><time>2026-03-24T11:08:55.497Z</time></trkpt><trkpt lat="43.1779476" lon="12.4193565"><ele>224.0</ele><time>2026-03-24T11:08:56.496Z</time></trkpt><trkpt lat="43.1780747" lon="12.4193218"><ele>224.0</ele><time>2026-03-24T11:08:57.497Z</time></trkpt><trkpt lat="43.1782008" lon="12.4192729"><ele>224.0</ele><time>2026-03-24T11:08:58.496Z</time></trkpt><trkpt lat="43.1783439" lon="12.4192115"><ele>224.0</ele><time>2026-03-24T11:08:59.496Z</time></trkpt><trkpt lat="43.1784642" lon="12.4191652"><ele>222.79999999999998</ele><time>2026-03-24T11:09:00.497Z</time></trkpt><trkpt lat="43.178592" lon="12.4191166"><ele>221.59999999999997</ele><time>2026-03-24T11:09:01.497Z</time></trkpt><trkpt lat="43.1787071" lon="12.4190674"><ele>220.4</ele><time>2026-03-24T11:09:02.497Z</time></trkpt><trkpt lat="43.1788005" lon="12.4190321"><ele>219.2</ele><time>2026-03-24T11:09:03.496Z</time></trkpt><trkpt lat="43.1788648" lon="12.4190056"><ele>218.0</ele><time>2026-03-24T11:09:04.496Z</time></trkpt><trkpt lat="43.1789456" lon="12.4189238"><ele>218.0</ele><time>2026-03-24T11:09:06.497Z</time></trkpt><trkpt lat="43.1789451" lon="12.4188225"><ele>218.0</ele><time>2026-03-24T11:09:08.496Z</time></trkpt><trkpt lat="43.1789289" lon="12.4186556"><ele>218.0</ele><time>2026-03-24T11:09:10.496Z</time></trkpt><trkpt lat="43.1789146" lon="12.4185171"><ele>218.0</ele><time>2026-03-24T11:09:11.496Z</time></trkpt><trkpt lat="43.1789177" lon="12.4183256"><ele>218.0</ele><time>2026-03-24T11:09:12.496Z</time></trkpt><trkpt lat="43.1789542" lon="12.4181156"><ele>220.33333333333334</ele><time>2026-03-24T11:09:13.496Z</time></trkpt><trkpt lat="43.178987" lon="12.4179159"><ele>222.66666666666669</ele><time>2026-03-24T11:09:14.496Z</time></trkpt><trkpt lat="43.1790518" lon="12.4177016"><ele>225.0</ele><time>2026-03-24T11:09:15.497Z</time></trkpt><trkpt lat="43.1791199" lon="12.4174692"><ele>226.33333333333331</ele><time>2026-03-24T11:09:16.497Z</time></trkpt><trkpt lat="43.1791627" lon="12.4172481"><ele>227.66666666666666</ele><time>2026-03-24T11:09:17.497Z</time></trkpt><trkpt lat="43.1791547" lon="12.4169681"><ele>229.0</ele><time>2026-03-24T11:09:18.497Z</time></trkpt><trkpt lat="43.1790907" lon="12.4166711"><ele>226.66666666666666</ele><time>2026-03-24T11:09:19.497Z</time></trkpt><trkpt lat="43.1790605" lon="12.4163987"><ele>224.33333333333331</ele><time>2026-03-24T11:09:20.497Z</time></trkpt><trkpt lat="43.1790208" lon="12.4161308"><ele>222.0</ele><time>2026-03-24T11:09:21.498Z</time></trkpt><trkpt lat="43.1789589" lon="12.4158928"><ele>222.0</ele><time>2026-03-24T11:09:22.497Z</time></trkpt><trkpt lat="43.1789128" lon="12.4156657"><ele>222.0</ele><time>2026-03-24T11:09:23.498Z</time></trkpt><trkpt lat="43.1788908" lon="12.4154387"><ele>222.0</ele><time>2026-03-24T11:09:24.497Z</time></trkpt><trkpt lat="43.178869" lon="12.4152018"><ele>223.0</ele><time>2026-03-24T11:09:25.496Z</time></trkpt><trkpt lat="43.1788364" lon="12.4149415"><ele>224.0</ele><time>2026-03-24T11:09:26.498Z</time></trkpt><trkpt lat="43.1788473" lon="12.4147232"><ele>225.0</ele><time>2026-03-24T11:09:27.497Z</time></trkpt><trkpt lat="43.1788467" lon="12.4145291"><ele>226.0</ele><time>2026-03-24T11:09:28.497Z</time></trkpt><trkpt lat="43.1788572" lon="12.4143031"><ele>227.0</ele><time>2026-03-24T11:09:29.497Z</time></trkpt><trkpt lat="43.1788608" lon="12.4140933"><ele>228.0</ele><time>2026-03-24T11:09:30.496Z</time></trkpt><trkpt lat="43.1788724" lon="12.4138956"><ele>229.0</ele><time>2026-03-24T11:09:31.497Z</time></trkpt><trkpt lat="43.178894" lon="12.4137009"><ele>230.0</ele><time>2026-03-24T11:09:32.497Z</time></trkpt><trkpt lat="43.1789144" lon="12.4135167"><ele>231.0</ele><time>2026-03-24T11:09:33.496Z</time></trkpt><trkpt lat="43.1790066" lon="12.4133282"><ele>232.0</ele><time>2026-03-24T11:09:34.497Z</time></trkpt><trkpt lat="43.1790621" lon="12.4131248"><ele>236.66666666666666</ele><time>2026-03-24T11:09:35.497Z</time></trkpt><trkpt lat="43.1791417" lon="12.4128833"><ele>241.33333333333331</ele><time>2026-03-24T11:09:36.497Z</time></trkpt><trkpt lat="43.1791997" lon="12.4126718"><ele>246.0</ele><time>2026-03-24T11:09:37.496Z</time></trkpt><trkpt lat="43.1793166" lon="12.4122514"><ele>245.66666666666669</ele><time>2026-03-24T11:09:39.496Z</time></trkpt><trkpt lat="43.1793526" lon="12.4120526"><ele>245.33333333333334</ele><time>2026-03-24T11:09:40.497Z</time></trkpt><trkpt lat="43.1793877" lon="12.4118523"><ele>245.0</ele><time>2026-03-24T11:09:41.497Z</time></trkpt><trkpt lat="43.1794251" lon="12.4116461"><ele>245.0</ele><time>2026-03-24T11:09:42.497Z</time></trkpt><trkpt lat="43.1795029" lon="12.4115096"><ele>245.0</ele><time>2026-03-24T11:09:43.496Z</time></trkpt><trkpt lat="43.179662" lon="12.4112062"><ele>245.0</ele><time>2026-03-24T11:09:45.496Z</time></trkpt><trkpt lat="43.1797612" lon="12.411075"><ele>242.5</ele><time>2026-03-24T11:09:46.497Z</time></trkpt><trkpt lat="43.1798483" lon="12.4109057"><ele>240.0</ele><time>2026-03-24T11:09:47.497Z</time></trkpt><trkpt lat="43.1800199" lon="12.4105248"><ele>245.25</ele><time>2026-03-24T11:09:49.497Z</time></trkpt><trkpt lat="43.1801088" lon="12.4103664"><ele>250.5</ele><time>2026-03-24T11:09:50.496Z</time></trkpt><trkpt lat="43.1801566" lon="12.4102008"><ele>255.75</ele><time>2026-03-24T11:09:51.497Z</time></trkpt><trkpt lat="43.1802063" lon="12.4100145"><ele>261.0</ele><time>2026-03-24T11:09:52.498Z</time></trkpt><trkpt lat="43.1802299" lon="12.4097915"><ele>262.3333333333333</ele><time>2026-03-24T11:09:53.498Z</time></trkpt><trkpt lat="43.1802466" lon="12.4095738"><ele>263.66666666666663</ele><time>2026-03-24T11:09:54.497Z</time></trkpt><trkpt lat="43.1802395" lon="12.4093221"><ele>265.0</ele><time>2026-03-24T11:09:55.497Z</time></trkpt><trkpt lat="43.1802115" lon="12.4091238"><ele>265.0</ele><time>2026-03-24T11:09:56.497Z</time></trkpt><trkpt lat="43.1802177" lon="12.408902"><ele>265.0</ele><time>2026-03-24T11:09:57.498Z</time></trkpt><trkpt lat="43.1802583" lon="12.4086816"><ele>265.0</ele><time>2026-03-24T11:09:58.498Z</time></trkpt><trkpt lat="43.1803343" lon="12.4084963"><ele>267.0</ele><time>2026-03-24T11:09:59.498Z</time></trkpt><trkpt lat="43.1804468" lon="12.4083283"><ele>269.0</ele><time>2026-03-24T11:10:00.498Z</time></trkpt><trkpt lat="43.1805101" lon="12.4081517"><ele>271.0</ele><time>2026-03-24T11:10:01.498Z</time></trkpt><trkpt lat="43.1805689" lon="12.4079767"><ele>272.3333333333333</ele><time>2026-03-24T11:10:02.497Z</time></trkpt><trkpt lat="43.1806316" lon="12.4078061"><ele>273.6666666666667</ele><time>2026-03-24T11:10:03.499Z</time></trkpt><trkpt lat="43.1806925" lon="12.4076311"><ele>275.0</ele><time>2026-03-24T11:10:04.498Z</time></trkpt><trkpt lat="43.1804062" lon="12.4074069"><ele>275.0</ele><time>2026-03-24T11:10:05.498Z</time></trkpt><trkpt lat="43.1803766" lon="12.4071891"><ele>275.0</ele><time>2026-03-24T11:10:06.498Z</time></trkpt><trkpt lat="43.1803373" lon="12.4070014"><ele>275.0</ele><time>2026-03-24T11:10:07.496Z</time></trkpt><trkpt lat="43.1803326" lon="12.4067917"><ele>278.5</ele><time>2026-03-24T11:10:08.497Z</time></trkpt><trkpt lat="43.1803294" lon="12.4065791"><ele>282.0</ele><time>2026-03-24T11:10:09.497Z</time></trkpt><trkpt lat="43.1803528" lon="12.4064015"><ele>285.5</ele><time>2026-03-24T11:10:10.496Z</time></trkpt><trkpt lat="43.1803882" lon="12.4062351"><ele>289.0</ele><time>2026-03-24T11:10:11.496Z</time></trkpt><trkpt lat="43.1804294" lon="12.4060893"><ele>289.5</ele><time>2026-03-24T11:10:12.496Z</time></trkpt><trkpt lat="43.1804839" lon="12.4059536"><ele>290.0</ele><time>2026-03-24T11:10:13.497Z</time></trkpt><trkpt lat="43.1805576" lon="12.4058208"><ele>290.5</ele><time>2026-03-24T11:10:14.497Z</time></trkpt><trkpt lat="43.1806463" lon="12.4057094"><ele>291.0</ele><time>2026-03-24T11:10:15.496Z</time></trkpt><trkpt lat="43.1807318" lon="12.4056028"><ele>295.2</ele><time>2026-03-24T11:10:16.496Z</time></trkpt><trkpt lat="43.1808147" lon="12.4054896"><ele>299.40000000000003</ele><time>2026-03-24T11:10:17.496Z</time></trkpt><trkpt lat="43.1808814" lon="12.4054094"><ele>303.6</ele><time>2026-03-24T11:10:18.497Z</time></trkpt><trkpt lat="43.1809725" lon="12.4053071"><ele>307.8</ele><time>2026-03-24T11:10:19.497Z</time></trkpt><trkpt lat="43.1810614" lon="12.4052053"><ele>312.0</ele><time>2026-03-24T11:10:20.497Z</time></trkpt><trkpt lat="43.1811684" lon="12.405106"><ele>312.0</ele><time>2026-03-24T11:10:21.497Z</time></trkpt><trkpt lat="43.181263" lon="12.4049986"><ele>312.0</ele><time>2026-03-24T11:10:22.496Z</time></trkpt><trkpt lat="43.1813915" lon="12.4050282"><ele>312.0</ele><time>2026-03-24T11:10:24.498Z</time></trkpt><trkpt lat="43.1814663" lon="12.4050776"><ele>312.0</ele><time>2026-03-24T11:10:25.497Z</time></trkpt><trkpt lat="43.181524" lon="12.4052019"><ele>312.0</ele><time>2026-03-24T11:10:26.497Z</time></trkpt><trkpt lat="43.181575" lon="12.4054635"><ele>318.6666666666667</ele><time>2026-03-24T11:10:27.497Z</time></trkpt><trkpt lat="43.1816515" lon="12.4057215"><ele>325.33333333333337</ele><time>2026-03-24T11:10:28.497Z</time></trkpt><trkpt lat="43.1817109" lon="12.4059138"><ele>332.0</ele><time>2026-03-24T11:10:29.498Z</time></trkpt><trkpt lat="43.1817755" lon="12.4061025"><ele>332.0</ele><time>2026-03-24T11:10:30.496Z</time></trkpt><trkpt lat="43.1818383" lon="12.4062674"><ele>332.0</ele><time>2026-03-24T11:10:31.497Z</time></trkpt><trkpt lat="43.181894" lon="12.4061615"><ele>332.0</ele><time>2026-03-24T11:10:32.498Z</time></trkpt><trkpt lat="43.1820126" lon="12.4061046"><ele>332.0</ele><time>2026-03-24T11:10:34.497Z</time></trkpt><trkpt lat="43.1820718" lon="12.4060705"><ele>332.0</ele><time>2026-03-24T11:10:35.496Z</time></trkpt><trkpt lat="43.1820883" lon="12.4058663"><ele>332.5</ele><time>2026-03-24T11:10:36.498Z</time></trkpt><trkpt lat="43.1820668" lon="12.4053608"><ele>333.0</ele><time>2026-03-24T11:10:37.497Z</time></trkpt><trkpt lat="43.1820774" lon="12.4051323"><ele>333.0</ele><time>2026-03-24T11:10:38.497Z</time></trkpt><trkpt lat="43.1821117" lon="12.4049312"><ele>333.0</ele><time>2026-03-24T11:10:39.496Z</time></trkpt><trkpt lat="43.1821765" lon="12.4047521"><ele>333.0</ele><time>2026-03-24T11:10:40.497Z</time></trkpt><trkpt lat="43.1822817" lon="12.4045729"><ele>338.3333333333333</ele><time>2026-03-24T11:10:41.497Z</time></trkpt><trkpt lat="43.1824097" lon="12.4043944"><ele>343.66666666666663</ele><time>2026-03-24T11:10:42.496Z</time></trkpt><trkpt lat="43.1825486" lon="12.404218"><ele>349.0</ele><time>2026-03-24T11:10:43.496Z</time></trkpt><trkpt lat="43.1826621" lon="12.4040498"><ele>349.0</ele><time>2026-03-24T11:10:44.497Z</time></trkpt><trkpt lat="43.1827646" lon="12.4039025"><ele>349.0</ele><time>2026-03-24T11:10:45.496Z</time></trkpt><trkpt lat="43.1828765" lon="12.4037588"><ele>349.0</ele><time>2026-03-24T11:10:46.496Z</time></trkpt><trkpt lat="43.18298" lon="12.4036226"><ele>349.0</ele><time>2026-03-24T11:10:47.498Z</time></trkpt><trkpt lat="43.1830509" lon="12.4035734"><ele>349.0</ele><time>2026-03-24T11:10:48.497Z</time></trkpt><trkpt lat="43.1831148" lon="12.4035713"><ele>349.0</ele><time>2026-03-24T11:10:49.497Z</time></trkpt><trkpt lat="43.1831734" lon="12.4037042"><ele>349.0</ele><time>2026-03-24T11:10:51.496Z</time></trkpt><trkpt lat="43.1830986" lon="12.4038479"><ele>349.0</ele><time>2026-03-24T11:10:52.496Z</time></trkpt><trkpt lat="43.1830293" lon="12.4040349"><ele>349.0</ele><time>2026-03-24T11:10:53.496Z</time></trkpt><trkpt lat="43.1829661" lon="12.404234"><ele>349.0</ele><time>2026-03-24T11:10:54.497Z</time></trkpt><trkpt lat="43.1829209" lon="12.4043895"><ele>349.0</ele><time>2026-03-24T11:10:55.496Z</time></trkpt><trkpt lat="43.1828897" lon="12.4045146"><ele>349.0</ele><time>2026-03-24T11:10:56.497Z</time></trkpt><trkpt lat="43.1829292" lon="12.4045916"><ele>349.0</ele><time>2026-03-24T11:10:57.496Z</time></trkpt><trkpt lat="43.1830345" lon="12.404635"><ele>349.0</ele><time>2026-03-24T11:10:59.498Z</time></trkpt><trkpt lat="43.183103" lon="12.4045986"><ele>349.0</ele><time>2026-03-24T11:11:00.497Z</time></trkpt><trkpt lat="43.183219" lon="12.4044695"><ele>349.0</ele><time>2026-03-24T11:11:01.497Z</time></trkpt><trkpt lat="43.1833513" lon="12.404246"><ele>349.0</ele><time>2026-03-24T11:11:02.497Z</time></trkpt><trkpt lat="43.1834593" lon="12.4040872"><ele>354.66666666666663</ele><time>2026-03-24T11:11:03.497Z</time></trkpt><trkpt lat="43.1835599" lon="12.4038215"><ele>360.3333333333333</ele><time>2026-03-24T11:11:04.498Z</time></trkpt><trkpt lat="43.1836615" lon="12.4035997"><ele>366.0</ele><time>2026-03-24T11:11:05.497Z</time></trkpt><trkpt lat="43.1837518" lon="12.4033987"><ele>366.0</ele><time>2026-03-24T11:11:06.497Z</time></trkpt><trkpt lat="43.1838372" lon="12.4031757"><ele>366.0</ele><time>2026-03-24T11:11:07.497Z</time></trkpt><trkpt lat="43.183902" lon="12.4029195"><ele>366.0</ele><time>2026-03-24T11:11:08.497Z</time></trkpt><trkpt lat="43.183968" lon="12.4026756"><ele>370.3333333333333</ele><time>2026-03-24T11:11:09.498Z</time></trkpt><trkpt lat="43.1840434" lon="12.4024394"><ele>374.66666666666663</ele><time>2026-03-24T11:11:10.499Z</time></trkpt><trkpt lat="43.1841078" lon="12.4022313"><ele>379.0</ele><time>2026-03-24T11:11:11.496Z</time></trkpt><trkpt lat="43.1841651" lon="12.4020375"><ele>381.5</ele><time>2026-03-24T11:11:12.497Z</time></trkpt><trkpt lat="43.1842189" lon="12.4018418"><ele>384.0</ele><time>2026-03-24T11:11:13.497Z</time></trkpt><trkpt lat="43.1842694" lon="12.4016619"><ele>386.5</ele><time>2026-03-24T11:11:14.496Z</time></trkpt><trkpt lat="43.1843225" lon="12.4015186"><ele>389.0</ele><time>2026-03-24T11:11:15.497Z</time></trkpt><trkpt lat="43.1843582" lon="12.4013785"><ele>390.79999999999995</ele><time>2026-03-24T11:11:16.497Z</time></trkpt><trkpt lat="43.1843754" lon="12.4012488"><ele>392.59999999999997</ele><time>2026-03-24T11:11:17.497Z</time></trkpt><trkpt lat="43.1843631" lon="12.4011149"><ele>394.4</ele><time>2026-03-24T11:11:18.498Z</time></trkpt><trkpt lat="43.1843512" lon="12.4009613"><ele>396.2</ele><time>2026-03-24T11:11:19.499Z</time></trkpt><trkpt lat="43.1843246" lon="12.4008038"><ele>398.0</ele><time>2026-03-24T11:11:20.496Z</time></trkpt><trkpt lat="43.1842985" lon="12.400652"><ele>398.0</ele><time>2026-03-24T11:11:21.497Z</time></trkpt><trkpt lat="43.1842627" lon="12.400504"><ele>398.0</ele><time>2026-03-24T11:11:22.497Z</time></trkpt><trkpt lat="43.1841786" lon="12.4003443"><ele>398.0</ele><time>2026-03-24T11:11:23.498Z</time></trkpt><trkpt lat="43.1840792" lon="12.400197"><ele>398.0</ele><time>2026-03-24T11:11:24.496Z</time></trkpt><trkpt lat="43.1839564" lon="12.4000454"><ele>400.25</ele><time>2026-03-24T11:11:25.497Z</time></trkpt><trkpt lat="43.1838421" lon="12.3999179"><ele>402.5</ele><time>2026-03-24T11:11:26.497Z</time></trkpt><trkpt lat="43.1837322" lon="12.39979"><ele>404.75</ele><time>2026-03-24T11:11:27.496Z</time></trkpt><trkpt lat="43.1836336" lon="12.3996557"><ele>407.0</ele><time>2026-03-24T11:11:28.498Z</time></trkpt><trkpt lat="43.1835378" lon="12.3995309"><ele>410.6</ele><time>2026-03-24T11:11:29.498Z</time></trkpt><trkpt lat="43.1834253" lon="12.3994256"><ele>414.20000000000005</ele><time>2026-03-24T11:11:30.497Z</time></trkpt><trkpt lat="43.1833554" lon="12.3993168"><ele>417.8</ele><time>2026-03-24T11:11:31.498Z</time></trkpt><trkpt lat="43.1833042" lon="12.3992152"><ele>421.4</ele><time>2026-03-24T11:11:32.497Z</time></trkpt><trkpt lat="43.1832753" lon="12.3991026"><ele>425.0</ele><time>2026-03-24T11:11:33.496Z</time></trkpt><trkpt lat="43.1832486" lon="12.3989804"><ele>424.99999999999994</ele><time>2026-03-24T11:11:34.497Z</time></trkpt><trkpt lat="43.1832266" lon="12.3988599"><ele>425.0</ele><time>2026-03-24T11:11:35.497Z</time></trkpt><trkpt lat="43.1832868" lon="12.3987765"><ele>425.0</ele><time>2026-03-24T11:11:36.497Z</time></trkpt><trkpt lat="43.1833372" lon="12.3986824"><ele>425.0</ele><time>2026-03-24T11:11:37.497Z</time></trkpt><trkpt lat="43.1833931" lon="12.3986052"><ele>424.99999999999994</ele><time>2026-03-24T11:11:38.496Z</time></trkpt><trkpt lat="43.1834692" lon="12.398534"><ele>425.0</ele><time>2026-03-24T11:11:39.497Z</time></trkpt><trkpt lat="43.1835556" lon="12.3984485"><ele>424.25</ele><time>2026-03-24T11:11:40.496Z</time></trkpt><trkpt lat="43.1836203" lon="12.3983564"><ele>423.5</ele><time>2026-03-24T11:11:41.498Z</time></trkpt><trkpt lat="43.183705" lon="12.3982439"><ele>422.75</ele><time>2026-03-24T11:11:42.497Z</time></trkpt><trkpt lat="43.183796" lon="12.3980978"><ele>422.0</ele><time>2026-03-24T11:11:43.497Z</time></trkpt><trkpt lat="43.1838634" lon="12.3979638"><ele>418.5</ele><time>2026-03-24T11:11:44.497Z</time></trkpt><trkpt lat="43.1839083" lon="12.3977736"><ele>415.0</ele><time>2026-03-24T11:11:45.497Z</time></trkpt><trkpt lat="43.1839323" lon="12.3975807"><ele>411.5</ele><time>2026-03-24T11:11:46.497Z</time></trkpt><trkpt lat="43.1839253" lon="12.3973878"><ele>408.0</ele><time>2026-03-24T11:11:47.496Z</time></trkpt><trkpt lat="43.1838908" lon="12.3971772"><ele>407.66666666666663</ele><time>2026-03-24T11:11:48.497Z</time></trkpt><trkpt lat="43.1838563" lon="12.3969647"><ele>407.3333333333333</ele><time>2026-03-24T11:11:49.497Z</time></trkpt><trkpt lat="43.1838221" lon="12.3967375"><ele>407.0</ele><time>2026-03-24T11:11:50.497Z</time></trkpt><trkpt lat="43.1837828" lon="12.396477"><ele>408.3333333333333</ele><time>2026-03-24T11:11:51.496Z</time></trkpt><trkpt lat="43.1837446" lon="12.3962085"><ele>409.66666666666663</ele><time>2026-03-24T11:11:52.498Z</time></trkpt><trkpt lat="43.1836888" lon="12.39596"><ele>411.0</ele><time>2026-03-24T11:11:53.498Z</time></trkpt><trkpt lat="43.183651" lon="12.3957161"><ele>411.0</ele><time>2026-03-24T11:11:54.496Z</time></trkpt><trkpt lat="43.1836161" lon="12.395482"><ele>411.0</ele><time>2026-03-24T11:11:55.497Z</time></trkpt><trkpt lat="43.1835754" lon="12.395241"><ele>411.0</ele><time>2026-03-24T11:11:56.498Z</time></trkpt><trkpt lat="43.1835344" lon="12.3950199"><ele>411.0</ele><time>2026-03-24T11:11:57.496Z</time></trkpt><trkpt lat="43.1834986" lon="12.3948009"><ele>411.0</ele><time>2026-03-24T11:11:58.497Z</time></trkpt><trkpt lat="43.1834595" lon="12.3945829"><ele>411.0</ele><time>2026-03-24T11:11:59.497Z</time></trkpt><trkpt lat="43.1834079" lon="12.3943736"><ele>410.66666666666663</ele><time>2026-03-24T11:12:00.496Z</time></trkpt><trkpt lat="43.183356" lon="12.3941795"><ele>410.3333333333333</ele><time>2026-03-24T11:12:01.496Z</time></trkpt><trkpt lat="43.1832705" lon="12.3939641"><ele>410.0</ele><time>2026-03-24T11:12:02.496Z</time></trkpt><trkpt lat="43.1831728" lon="12.3937393"><ele>409.0</ele><time>2026-03-24T11:12:03.498Z</time></trkpt><trkpt lat="43.1830501" lon="12.3935125"><ele>408.0</ele><time>2026-03-24T11:12:04.497Z</time></trkpt><trkpt lat="43.1829294" lon="12.3932939"><ele>407.0</ele><time>2026-03-24T11:12:05.496Z</time></trkpt><trkpt lat="43.1828264" lon="12.3930957"><ele>408.66666666666663</ele><time>2026-03-24T11:12:06.497Z</time></trkpt><trkpt lat="43.1827224" lon="12.3929147"><ele>410.33333333333337</ele><time>2026-03-24T11:12:07.497Z</time></trkpt><trkpt lat="43.1826142" lon="12.3927535"><ele>412.0</ele><time>2026-03-24T11:12:08.496Z</time></trkpt><trkpt lat="43.1824964" lon="12.3925937"><ele>412.0</ele><time>2026-03-24T11:12:09.498Z</time></trkpt><trkpt lat="43.1823829" lon="12.3924427"><ele>412.0</ele><time>2026-03-24T11:12:10.496Z</time></trkpt><trkpt lat="43.1822711" lon="12.3923097"><ele>412.0</ele><time>2026-03-24T11:12:11.498Z</time></trkpt><trkpt lat="43.1821736" lon="12.3921697"><ele>412.0</ele><time>2026-03-24T11:12:12.496Z</time></trkpt><trkpt lat="43.1820868" lon="12.3920366"><ele>413.75</ele><time>2026-03-24T11:12:13.497Z</time></trkpt><trkpt lat="43.1819987" lon="12.3918941"><ele>415.5</ele><time>2026-03-24T11:12:14.497Z</time></trkpt><trkpt lat="43.1819868" lon="12.3916791"><ele>417.25</ele><time>2026-03-24T11:12:15.499Z</time></trkpt><trkpt lat="43.1819359" lon="12.3914995"><ele>419.0</ele><time>2026-03-24T11:12:16.497Z</time></trkpt><trkpt lat="43.1819503" lon="12.3912889"><ele>420.0</ele><time>2026-03-24T11:12:17.499Z</time></trkpt><trkpt lat="43.1819372" lon="12.391085"><ele>421.0</ele><time>2026-03-24T11:12:18.498Z</time></trkpt><trkpt lat="43.1819059" lon="12.3908784"><ele>422.0</ele><time>2026-03-24T11:12:19.498Z</time></trkpt><trkpt lat="43.1818768" lon="12.3907103"><ele>423.0</ele><time>2026-03-24T11:12:20.497Z</time></trkpt><trkpt lat="43.1818196" lon="12.3905676"><ele>423.59999999999997</ele><time>2026-03-24T11:12:21.496Z</time></trkpt><trkpt lat="43.18174" lon="12.3904705"><ele>424.2</ele><time>2026-03-24T11:12:22.497Z</time></trkpt><trkpt lat="43.1816605" lon="12.3904015"><ele>424.8</ele><time>2026-03-24T11:12:23.498Z</time></trkpt><trkpt lat="43.1815656" lon="12.3903521"><ele>425.4</ele><time>2026-03-24T11:12:24.498Z</time></trkpt><trkpt lat="43.1814624" lon="12.3903307"><ele>426.0</ele><time>2026-03-24T11:12:25.497Z</time></trkpt><trkpt lat="43.1813494" lon="12.3903448"><ele>426.0</ele><time>2026-03-24T11:12:26.496Z</time></trkpt><trkpt lat="43.1812143" lon="12.3904081"><ele>426.0</ele><time>2026-03-24T11:12:27.496Z</time></trkpt><trkpt lat="43.1810799" lon="12.3904609"><ele>426.0</ele><time>2026-03-24T11:12:28.496Z</time></trkpt><trkpt lat="43.1809475" lon="12.3904757"><ele>426.0</ele><time>2026-03-24T11:12:29.496Z</time></trkpt><trkpt lat="43.1808198" lon="12.3904748"><ele>426.0</ele><time>2026-03-24T11:12:30.498Z</time></trkpt><trkpt lat="43.1806992" lon="12.3904585"><ele>426.0</ele><time>2026-03-24T11:12:31.496Z</time></trkpt><trkpt lat="43.180588" lon="12.3904343"><ele>426.0</ele><time>2026-03-24T11:12:32.496Z</time></trkpt><trkpt lat="43.1804726" lon="12.3903727"><ele>426.0</ele><time>2026-03-24T11:12:33.496Z</time></trkpt><trkpt lat="43.1803913" lon="12.3903078"><ele>427.75</ele><time>2026-03-24T11:12:34.498Z</time></trkpt><trkpt lat="43.180321" lon="12.3902138"><ele>429.5</ele><time>2026-03-24T11:12:35.496Z</time></trkpt><trkpt lat="43.1802445" lon="12.3900914"><ele>431.25</ele><time>2026-03-24T11:12:36.498Z</time></trkpt><trkpt lat="43.1801763" lon="12.3899343"><ele>433.0</ele><time>2026-03-24T11:12:37.498Z</time></trkpt><trkpt lat="43.1801235" lon="12.3897874"><ele>435.0</ele><time>2026-03-24T11:12:38.497Z</time></trkpt><trkpt lat="43.1800875" lon="12.3896574"><ele>437.0</ele><time>2026-03-24T11:12:39.496Z</time></trkpt><trkpt lat="43.1800457" lon="12.3895098"><ele>439.0</ele><time>2026-03-24T11:12:40.497Z</time></trkpt><trkpt lat="43.1800101" lon="12.3893492"><ele>441.0</ele><time>2026-03-24T11:12:41.497Z</time></trkpt><trkpt lat="43.1799544" lon="12.3891931"><ele>441.0</ele><time>2026-03-24T11:12:42.496Z</time></trkpt><trkpt lat="43.1798965" lon="12.3890356"><ele>441.0</ele><time>2026-03-24T11:12:43.497Z</time></trkpt><trkpt lat="43.1799064" lon="12.388934"><ele>441.0</ele><time>2026-03-24T11:12:44.499Z</time></trkpt><trkpt lat="43.1799071" lon="12.3888117"><ele>441.0</ele><time>2026-03-24T11:12:45.497Z</time></trkpt><trkpt lat="43.1799555" lon="12.3886762"><ele>441.0</ele><time>2026-03-24T11:12:46.497Z</time></trkpt><trkpt lat="43.1799948" lon="12.3885302"><ele>444.20000000000005</ele><time>2026-03-24T11:12:47.498Z</time></trkpt><trkpt lat="43.1800357" lon="12.3883996"><ele>447.40000000000003</ele><time>2026-03-24T11:12:48.496Z</time></trkpt><trkpt lat="43.1800786" lon="12.3882741"><ele>450.6</ele><time>2026-03-24T11:12:49.496Z</time></trkpt><trkpt lat="43.1801209" lon="12.3881419"><ele>453.8</ele><time>2026-03-24T11:12:50.497Z</time></trkpt><trkpt lat="43.1802089" lon="12.3880429"><ele>457.0</ele><time>2026-03-24T11:12:51.496Z</time></trkpt><trkpt lat="43.1802839" lon="12.3879545"><ele>462.0</ele><time>2026-03-24T11:12:52.497Z</time></trkpt><trkpt lat="43.1803885" lon="12.3878856"><ele>467.0</ele><time>2026-03-24T11:12:53.498Z</time></trkpt><trkpt lat="43.1804877" lon="12.3877846"><ele>472.0</ele><time>2026-03-24T11:12:54.498Z</time></trkpt><trkpt lat="43.1805471" lon="12.3876445"><ele>477.0</ele><time>2026-03-24T11:12:55.498Z</time></trkpt><trkpt lat="43.180638" lon="12.3874603"><ele>475.66666666666663</ele><time>2026-03-24T11:12:56.498Z</time></trkpt><trkpt lat="43.180742" lon="12.3872736"><ele>474.3333333333333</ele><time>2026-03-24T11:12:57.497Z</time></trkpt><trkpt lat="43.1808695" lon="12.3870881"><ele>473.0</ele><time>2026-03-24T11:12:58.498Z</time></trkpt><trkpt lat="43.1809807" lon="12.3868903"><ele>473.0</ele><time>2026-03-24T11:12:59.497Z</time></trkpt><trkpt lat="43.1810951" lon="12.3866677"><ele>473.0</ele><time>2026-03-24T11:13:00.497Z</time></trkpt><trkpt lat="43.1812199" lon="12.3864484"><ele>473.0</ele><time>2026-03-24T11:13:01.496Z</time></trkpt><trkpt lat="43.181333" lon="12.38629"><ele>470.66666666666663</ele><time>2026-03-24T11:13:02.499Z</time></trkpt><trkpt lat="43.1814447" lon="12.3861054"><ele>468.33333333333337</ele><time>2026-03-24T11:13:03.497Z</time></trkpt><trkpt lat="43.1815499" lon="12.3859379"><ele>466.0</ele><time>2026-03-24T11:13:04.496Z</time></trkpt><trkpt lat="43.1816506" lon="12.3857713"><ele>466.0</ele><time>2026-03-24T11:13:05.496Z</time></trkpt><trkpt lat="43.1817609" lon="12.3855863"><ele>466.0</ele><time>2026-03-24T11:13:06.498Z</time></trkpt><trkpt lat="43.1818694" lon="12.3854145"><ele>466.0</ele><time>2026-03-24T11:13:07.496Z</time></trkpt><trkpt lat="43.1819699" lon="12.3852458"><ele>474.33333333333337</ele><time>2026-03-24T11:13:08.498Z</time></trkpt><trkpt lat="43.1821129" lon="12.3850893"><ele>482.66666666666663</ele><time>2026-03-24T11:13:09.499Z</time></trkpt><trkpt lat="43.182221" lon="12.3849355"><ele>491.0</ele><time>2026-03-24T11:13:10.497Z</time></trkpt><trkpt lat="43.1823146" lon="12.3848127"><ele>491.0</ele><time>2026-03-24T11:13:11.499Z</time></trkpt><trkpt lat="43.1824499" lon="12.3847076"><ele>491.0</ele><time>2026-03-24T11:13:12.499Z</time></trkpt><trkpt lat="43.1825294" lon="12.3846107"><ele>491.0</ele><time>2026-03-24T11:13:13.497Z</time></trkpt><trkpt lat="43.1826224" lon="12.3844648"><ele>491.0</ele><time>2026-03-24T11:13:14.497Z</time></trkpt><trkpt lat="43.182712" lon="12.3843445"><ele>491.0</ele><time>2026-03-24T11:13:15.497Z</time></trkpt><trkpt lat="43.1827797" lon="12.3841929"><ele>491.0</ele><time>2026-03-24T11:13:16.498Z</time></trkpt><trkpt lat="43.182883" lon="12.3840674"><ele>491.0</ele><time>2026-03-24T11:13:17.496Z</time></trkpt><trkpt lat="43.1829494" lon="12.3839078"><ele>491.0</ele><time>2026-03-24T11:13:18.498Z</time></trkpt><trkpt lat="43.1830417" lon="12.3837577"><ele>488.99999999999994</ele><time>2026-03-24T11:13:19.497Z</time></trkpt><trkpt lat="43.1831307" lon="12.3836116"><ele>487.0</ele><time>2026-03-24T11:13:20.499Z</time></trkpt><trkpt lat="43.1831777" lon="12.3835334"><ele>485.0</ele><time>2026-03-24T11:13:21.498Z</time></trkpt><trkpt lat="43.1832212" lon="12.3834503"><ele>483.0</ele><time>2026-03-24T11:13:22.498Z</time></trkpt><trkpt lat="43.1832469" lon="12.3833658"><ele>480.99999999999994</ele><time>2026-03-24T11:13:23.498Z</time></trkpt><trkpt lat="43.1832824" lon="12.383283"><ele>479.0</ele><time>2026-03-24T11:13:24.498Z</time></trkpt><trkpt lat="43.183311" lon="12.3831855"><ele>479.0</ele><time>2026-03-24T11:13:25.497Z</time></trkpt><trkpt lat="43.1833464" lon="12.3830739"><ele>479.0</ele><time>2026-03-24T11:13:26.498Z</time></trkpt><trkpt lat="43.1833835" lon="12.3829604"><ele>479.0</ele><time>2026-03-24T11:13:27.498Z</time></trkpt><trkpt lat="43.183428" lon="12.3828452"><ele>479.0</ele><time>2026-03-24T11:13:28.497Z</time></trkpt><trkpt lat="43.1834654" lon="12.3827312"><ele>479.0</ele><time>2026-03-24T11:13:29.497Z</time></trkpt><trkpt lat="43.1835352" lon="12.3825968"><ele>482.6</ele><time>2026-03-24T11:13:30.498Z</time></trkpt><trkpt lat="43.1835808" lon="12.3824549"><ele>486.2</ele><time>2026-03-24T11:13:31.5Z</time></trkpt><trkpt lat="43.1836308" lon="12.38232"><ele>489.80000000000007</ele><time>2026-03-24T11:13:32.497Z</time></trkpt><trkpt lat="43.1836737" lon="12.3821849"><ele>493.40000000000003</ele><time>2026-03-24T11:13:33.497Z</time></trkpt><trkpt lat="43.1836882" lon="12.3820492"><ele>497.0</ele><time>2026-03-24T11:13:34.499Z</time></trkpt><trkpt lat="43.1836414" lon="12.381926"><ele>498.0</ele><time>2026-03-24T11:13:35.499Z</time></trkpt><trkpt lat="43.1836009" lon="12.3817885"><ele>499.0</ele><time>2026-03-24T11:13:36.498Z</time></trkpt><trkpt lat="43.1835414" lon="12.3816396"><ele>500.0</ele><time>2026-03-24T11:13:37.498Z</time></trkpt><trkpt lat="43.1834906" lon="12.3814868"><ele>501.0</ele><time>2026-03-24T11:13:38.497Z</time></trkpt><trkpt lat="43.1834387" lon="12.3813287"><ele>499.0</ele><time>2026-03-24T11:13:39.498Z</time></trkpt><trkpt lat="43.1833795" lon="12.3811674"><ele>497.0</ele><time>2026-03-24T11:13:40.498Z</time></trkpt><trkpt lat="43.1833263" lon="12.3809672"><ele>495.0</ele><time>2026-03-24T11:13:41.498Z</time></trkpt><trkpt lat="43.1832693" lon="12.3807825"><ele>493.0</ele><time>2026-03-24T11:13:42.498Z</time></trkpt><trkpt lat="43.1832065" lon="12.3805963"><ele>492.0</ele><time>2026-03-24T11:13:43.498Z</time></trkpt><trkpt lat="43.1831825" lon="12.3803843"><ele>491.0</ele><time>2026-03-24T11:13:44.498Z</time></trkpt><trkpt lat="43.1831578" lon="12.3801641"><ele>490.0</ele><time>2026-03-24T11:13:45.498Z</time></trkpt><trkpt lat="43.183144" lon="12.3799553"><ele>499.6666666666667</ele><time>2026-03-24T11:13:46.497Z</time></trkpt><trkpt lat="43.1831542" lon="12.3797582"><ele>509.33333333333337</ele><time>2026-03-24T11:13:47.498Z</time></trkpt><trkpt lat="43.1831459" lon="12.3795505"><ele>519.0</ele><time>2026-03-24T11:13:48.497Z</time></trkpt><trkpt lat="43.1831142" lon="12.3793265"><ele>519.0</ele><time>2026-03-24T11:13:49.498Z</time></trkpt><trkpt lat="43.1830825" lon="12.3791002"><ele>519.0</ele><time>2026-03-24T11:13:50.497Z</time></trkpt><trkpt lat="43.1830484" lon="12.3788745"><ele>519.0</ele><time>2026-03-24T11:13:51.496Z</time></trkpt><trkpt lat="43.1830267" lon="12.3786612"><ele>517.5</ele><time>2026-03-24T11:13:52.497Z</time></trkpt><trkpt lat="43.1830037" lon="12.3784703"><ele>516.0</ele><time>2026-03-24T11:13:53.496Z</time></trkpt><trkpt lat="43.1829799" lon="12.378272"><ele>514.5</ele><time>2026-03-24T11:13:54.498Z</time></trkpt><trkpt lat="43.1829544" lon="12.3780893"><ele>513.0</ele><time>2026-03-24T11:13:55.498Z</time></trkpt><trkpt lat="43.1829313" lon="12.3779171"><ele>511.1666666666667</ele><time>2026-03-24T11:13:56.497Z</time></trkpt><trkpt lat="43.1829102" lon="12.3777828"><ele>509.33333333333337</ele><time>2026-03-24T11:13:57.498Z</time></trkpt><trkpt lat="43.1828958" lon="12.3776599"><ele>507.5</ele><time>2026-03-24T11:13:58.497Z</time></trkpt><trkpt lat="43.1828911" lon="12.3775418"><ele>505.6666666666667</ele><time>2026-03-24T11:13:59.496Z</time></trkpt><trkpt lat="43.1829127" lon="12.3774537"><ele>503.83333333333337</ele><time>2026-03-24T11:14:00.497Z</time></trkpt><trkpt lat="43.1829535" lon="12.3773271"><ele>502.0</ele><time>2026-03-24T11:14:02.498Z</time></trkpt><trkpt lat="43.1830252" lon="12.377299"><ele>502.00000000000006</ele><time>2026-03-24T11:14:03.497Z</time></trkpt><trkpt lat="43.1831121" lon="12.3772639"><ele>502.0</ele><time>2026-03-24T11:14:04.498Z</time></trkpt><trkpt lat="43.183219" lon="12.3772392"><ele>502.0</ele><time>2026-03-24T11:14:05.498Z</time></trkpt><trkpt lat="43.1833023" lon="12.3772217"><ele>502.0</ele><time>2026-03-24T11:14:06.498Z</time></trkpt><trkpt lat="43.1833686" lon="12.3772147"><ele>502.00000000000006</ele><time>2026-03-24T11:14:07.497Z</time></trkpt><trkpt lat="43.1834338" lon="12.377183"><ele>502.0</ele><time>2026-03-24T11:14:09.498Z</time></trkpt><trkpt lat="43.1833978" lon="12.3770682"><ele>502.1666666666667</ele><time>2026-03-24T11:14:12.497Z</time></trkpt><trkpt lat="43.1833255" lon="12.3770105"><ele>502.33333333333337</ele><time>2026-03-24T11:14:14.498Z</time></trkpt><trkpt lat="43.1832785" lon="12.3769507"><ele>502.5</ele><time>2026-03-24T11:14:15.498Z</time></trkpt><trkpt lat="43.1831955" lon="12.3768472"><ele>502.66666666666663</ele><time>2026-03-24T11:14:17.497Z</time></trkpt><trkpt lat="43.1831465" lon="12.3767828"><ele>502.8333333333333</ele><time>2026-03-24T11:14:19.497Z</time></trkpt><trkpt lat="43.1831035" lon="12.3766932"><ele>503.0</ele><time>2026-03-24T11:14:22.498Z</time></trkpt><trkpt lat="43.1830322" lon="12.3767014"><ele>503.0</ele><time>2026-03-24T11:26:06.5Z</time></trkpt><trkpt lat="43.1829985" lon="12.3767942"><ele>503.00000000000006</ele><time>2026-03-24T11:26:10.499Z</time></trkpt><trkpt lat="43.1830453" lon="12.3768646"><ele>503.0</ele><time>2026-03-24T11:26:13.5Z</time></trkpt><trkpt lat="43.1831389" lon="12.3768743"><ele>503.0</ele><time>2026-03-24T11:26:16.498Z</time></trkpt><trkpt lat="43.1832057" lon="12.3768779"><ele>503.00000000000006</ele><time>2026-03-24T11:26:18.5Z</time></trkpt><trkpt lat="43.1832647" lon="12.3769229"><ele>503.0</ele><time>2026-03-24T11:26:20.5Z</time></trkpt><trkpt lat="43.1833113" lon="12.3769915"><ele>503.0</ele><time>2026-03-24T11:26:22.5Z</time></trkpt><trkpt lat="43.1833619" lon="12.3770486"><ele>503.0</ele><time>2026-03-24T11:26:24.501Z</time></trkpt><trkpt lat="43.1834202" lon="12.3770876"><ele>502.99999999999994</ele><time>2026-03-24T11:26:26.5Z</time></trkpt><trkpt lat="43.183478" lon="12.3771758"><ele>502.99999999999994</ele><time>2026-03-24T11:26:29.499Z</time></trkpt><trkpt lat="43.1833649" lon="12.3772285"><ele>503.0</ele><time>2026-03-24T11:26:32.499Z</time></trkpt><trkpt lat="43.1832599" lon="12.3772441"><ele>503.0</ele><time>2026-03-24T11:26:34.498Z</time></trkpt><trkpt lat="43.1831383" lon="12.3772755"><ele>502.79999999999995</ele><time>2026-03-24T11:26:36.499Z</time></trkpt><trkpt lat="43.1830243" lon="12.3773037"><ele>502.59999999999997</ele><time>2026-03-24T11:26:38.498Z</time></trkpt><trkpt lat="43.1829172" lon="12.3773182"><ele>502.40000000000003</ele><time>2026-03-24T11:26:40.5Z</time></trkpt><trkpt lat="43.1828298" lon="12.3772573"><ele>502.20000000000005</ele><time>2026-03-24T11:26:42.501Z</time></trkpt><trkpt lat="43.1827716" lon="12.3771645"><ele>502.0</ele><time>2026-03-24T11:26:43.499Z</time></trkpt><trkpt lat="43.1827193" lon="12.3770872"><ele>500.0</ele><time>2026-03-24T11:26:44.499Z</time></trkpt><trkpt lat="43.1826154" lon="12.3769441"><ele>498.0</ele><time>2026-03-24T11:26:45.5Z</time></trkpt><trkpt lat="43.1825399" lon="12.3768363"><ele>496.0</ele><time>2026-03-24T11:26:46.499Z</time></trkpt><trkpt lat="43.18244" lon="12.3766782"><ele>494.0</ele><time>2026-03-24T11:26:47.501Z</time></trkpt><trkpt lat="43.182343" lon="12.37653"><ele>494.66666666666663</ele><time>2026-03-24T11:26:48.499Z</time></trkpt><trkpt lat="43.1822248" lon="12.3763684"><ele>495.33333333333337</ele><time>2026-03-24T11:26:49.499Z</time></trkpt><trkpt lat="43.182106" lon="12.3761951"><ele>496.0</ele><time>2026-03-24T11:26:50.501Z</time></trkpt><trkpt lat="43.181987" lon="12.3759948"><ele>496.0</ele><time>2026-03-24T11:26:51.499Z</time></trkpt><trkpt lat="43.1818927" lon="12.3757953"><ele>496.0</ele><time>2026-03-24T11:26:52.499Z</time></trkpt><trkpt lat="43.1817759" lon="12.3756445"><ele>496.0</ele><time>2026-03-24T11:26:53.499Z</time></trkpt><trkpt lat="43.1816561" lon="12.3754561"><ele>498.0</ele><time>2026-03-24T11:26:54.499Z</time></trkpt><trkpt lat="43.1815511" lon="12.3752805"><ele>500.0</ele><time>2026-03-24T11:26:55.498Z</time></trkpt><trkpt lat="43.1814217" lon="12.3750938"><ele>502.0</ele><time>2026-03-24T11:26:56.5Z</time></trkpt><trkpt lat="43.1813363" lon="12.3749587"><ele>502.0</ele><time>2026-03-24T11:26:57.499Z</time></trkpt><trkpt lat="43.1812397" lon="12.3747968"><ele>502.0</ele><time>2026-03-24T11:26:58.5Z</time></trkpt><trkpt lat="43.1811277" lon="12.3746228"><ele>502.0</ele><time>2026-03-24T11:26:59.498Z</time></trkpt><trkpt lat="43.1810301" lon="12.3744612"><ele>499.6666666666667</ele><time>2026-03-24T11:27:00.5Z</time></trkpt><trkpt lat="43.1808851" lon="12.3743364"><ele>497.33333333333337</ele><time>2026-03-24T11:27:01.499Z</time></trkpt><trkpt lat="43.1807639" lon="12.3742168"><ele>495.0</ele><time>2026-03-24T11:27:02.5Z</time></trkpt><trkpt lat="43.1806178" lon="12.3740863"><ele>495.0</ele><time>2026-03-24T11:27:03.499Z</time></trkpt><trkpt lat="43.1804637" lon="12.3739664"><ele>495.0</ele><time>2026-03-24T11:27:04.498Z</time></trkpt><trkpt lat="43.1803035" lon="12.3738048"><ele>495.0</ele><time>2026-03-24T11:27:05.5Z</time></trkpt><trkpt lat="43.1801456" lon="12.3736693"><ele>492.0</ele><time>2026-03-24T11:27:06.5Z</time></trkpt><trkpt lat="43.1799852" lon="12.3735282"><ele>489.0</ele><time>2026-03-24T11:27:07.499Z</time></trkpt><trkpt lat="43.179826" lon="12.3733704"><ele>486.0</ele><time>2026-03-24T11:27:08.5Z</time></trkpt><trkpt lat="43.1796482" lon="12.3732165"><ele>486.0</ele><time>2026-03-24T11:27:09.499Z</time></trkpt><trkpt lat="43.1794815" lon="12.3730933"><ele>486.0</ele><time>2026-03-24T11:27:10.498Z</time></trkpt><trkpt lat="43.1793059" lon="12.372947"><ele>486.0</ele><time>2026-03-24T11:27:11.498Z</time></trkpt><trkpt lat="43.1791195" lon="12.3728376"><ele>481.0</ele><time>2026-03-24T11:27:12.499Z</time></trkpt><trkpt lat="43.1789522" lon="12.372733"><ele>476.0</ele><time>2026-03-24T11:27:13.498Z</time></trkpt><trkpt lat="43.1787849" lon="12.3726339"><ele>471.0</ele><time>2026-03-24T11:27:14.498Z</time></trkpt><trkpt lat="43.1786267" lon="12.3725335"><ele>471.0</ele><time>2026-03-24T11:27:15.501Z</time></trkpt><trkpt lat="43.1784766" lon="12.3724308"><ele>471.0</ele><time>2026-03-24T11:27:16.499Z</time></trkpt><trkpt lat="43.1783282" lon="12.3723325"><ele>471.0</ele><time>2026-03-24T11:27:17.498Z</time></trkpt><trkpt lat="43.178194" lon="12.3722191"><ele>469.0</ele><time>2026-03-24T11:27:18.499Z</time></trkpt><trkpt lat="43.1780664" lon="12.3720648"><ele>467.0</ele><time>2026-03-24T11:27:19.498Z</time></trkpt><trkpt lat="43.177932" lon="12.3719233"><ele>465.0</ele><time>2026-03-24T11:27:20.499Z</time></trkpt><trkpt lat="43.1777876" lon="12.3717186"><ele>465.0</ele><time>2026-03-24T11:27:21.499Z</time></trkpt><trkpt lat="43.1776584" lon="12.3715725"><ele>465.0</ele><time>2026-03-24T11:27:22.5Z</time></trkpt><trkpt lat="43.1775278" lon="12.3714109"><ele>465.0</ele><time>2026-03-24T11:27:23.499Z</time></trkpt><trkpt lat="43.1773815" lon="12.3712507"><ele>467.33333333333337</ele><time>2026-03-24T11:27:24.5Z</time></trkpt><trkpt lat="43.1772645" lon="12.3711032"><ele>469.6666666666667</ele><time>2026-03-24T11:27:25.499Z</time></trkpt><trkpt lat="43.17716" lon="12.3709346"><ele>472.0</ele><time>2026-03-24T11:27:26.501Z</time></trkpt><trkpt lat="43.1770589" lon="12.3707821"><ele>472.0</ele><time>2026-03-24T11:27:27.499Z</time></trkpt><trkpt lat="43.1770204" lon="12.370603"><ele>472.0</ele><time>2026-03-24T11:27:28.501Z</time></trkpt><trkpt lat="43.1770444" lon="12.3704296"><ele>472.0</ele><time>2026-03-24T11:27:29.5Z</time></trkpt><trkpt lat="43.177054" lon="12.3702492"><ele>472.0</ele><time>2026-03-24T11:27:30.498Z</time></trkpt><trkpt lat="43.1770774" lon="12.3700736"><ele>471.25</ele><time>2026-03-24T11:27:31.5Z</time></trkpt><trkpt lat="43.1771136" lon="12.369898"><ele>470.5</ele><time>2026-03-24T11:27:32.499Z</time></trkpt><trkpt lat="43.1771621" lon="12.3697263"><ele>469.75</ele><time>2026-03-24T11:27:33.5Z</time></trkpt><trkpt lat="43.1772015" lon="12.369551"><ele>469.0</ele><time>2026-03-24T11:27:34.499Z</time></trkpt><trkpt lat="43.1772198" lon="12.3693831"><ele>467.5</ele><time>2026-03-24T11:27:35.499Z</time></trkpt><trkpt lat="43.1772079" lon="12.3692291"><ele>466.0</ele><time>2026-03-24T11:27:36.499Z</time></trkpt><trkpt lat="43.1771982" lon="12.369102"><ele>464.5</ele><time>2026-03-24T11:27:37.499Z</time></trkpt><trkpt lat="43.1771358" lon="12.3689748"><ele>463.0</ele><time>2026-03-24T11:27:38.499Z</time></trkpt><trkpt lat="43.1770238" lon="12.3688713"><ele>460.25</ele><time>2026-03-24T11:27:39.499Z</time></trkpt><trkpt lat="43.1769066" lon="12.3687758"><ele>457.5</ele><time>2026-03-24T11:27:40.499Z</time></trkpt><trkpt lat="43.1767925" lon="12.3686597"><ele>454.75</ele><time>2026-03-24T11:27:41.5Z</time></trkpt><trkpt lat="43.1766779" lon="12.368547"><ele>452.0</ele><time>2026-03-24T11:27:42.499Z</time></trkpt><trkpt lat="43.1765922" lon="12.3683899"><ele>451.0</ele><time>2026-03-24T11:27:43.499Z</time></trkpt><trkpt lat="43.1765052" lon="12.3682036"><ele>450.0</ele><time>2026-03-24T11:27:44.498Z</time></trkpt><trkpt lat="43.1764369" lon="12.3680171"><ele>449.0</ele><time>2026-03-24T11:27:45.5Z</time></trkpt><trkpt lat="43.1763627" lon="12.3678409"><ele>449.0</ele><time>2026-03-24T11:27:46.5Z</time></trkpt><trkpt lat="43.1762797" lon="12.3676809"><ele>449.0</ele><time>2026-03-24T11:27:47.5Z</time></trkpt><trkpt lat="43.1761709" lon="12.3675361"><ele>449.0</ele><time>2026-03-24T11:27:48.5Z</time></trkpt><trkpt lat="43.1760256" lon="12.3674081"><ele>449.0</ele><time>2026-03-24T11:27:49.5Z</time></trkpt><trkpt lat="43.1759052" lon="12.3672867"><ele>449.0</ele><time>2026-03-24T11:27:50.5Z</time></trkpt><trkpt lat="43.1757735" lon="12.3671502"><ele>449.0</ele><time>2026-03-24T11:27:51.501Z</time></trkpt><trkpt lat="43.1756268" lon="12.3669966"><ele>446.3333333333333</ele><time>2026-03-24T11:27:52.499Z</time></trkpt><trkpt lat="43.1754903" lon="12.3668586"><ele>443.66666666666663</ele><time>2026-03-24T11:27:53.5Z</time></trkpt><trkpt lat="43.1753371" lon="12.3667308"><ele>441.0</ele><time>2026-03-24T11:27:54.5Z</time></trkpt><trkpt lat="43.1751868" lon="12.3665781"><ele>441.0</ele><time>2026-03-24T11:27:55.5Z</time></trkpt><trkpt lat="43.1750475" lon="12.3664318"><ele>441.0</ele><time>2026-03-24T11:27:56.499Z</time></trkpt><trkpt lat="43.1749178" lon="12.3662971"><ele>441.0</ele><time>2026-03-24T11:27:57.5Z</time></trkpt><trkpt lat="43.174777" lon="12.3662267"><ele>435.75</ele><time>2026-03-24T11:27:58.498Z</time></trkpt><trkpt lat="43.1746408" lon="12.3661514"><ele>430.5</ele><time>2026-03-24T11:27:59.498Z</time></trkpt><trkpt lat="43.174503" lon="12.3660948"><ele>425.25</ele><time>2026-03-24T11:28:00.5Z</time></trkpt><trkpt lat="43.1743477" lon="12.3661213"><ele>420.0</ele><time>2026-03-24T11:28:01.499Z</time></trkpt><trkpt lat="43.1741924" lon="12.3661773"><ele>420.0</ele><time>2026-03-24T11:28:02.5Z</time></trkpt><trkpt lat="43.1740362" lon="12.3661922"><ele>420.0</ele><time>2026-03-24T11:28:03.499Z</time></trkpt><trkpt lat="43.1738684" lon="12.3661936"><ele>420.0</ele><time>2026-03-24T11:28:04.5Z</time></trkpt><trkpt lat="43.1737275" lon="12.3661251"><ele>421.0</ele><time>2026-03-24T11:28:05.5Z</time></trkpt><trkpt lat="43.1735889" lon="12.3660367"><ele>422.0</ele><time>2026-03-24T11:28:06.498Z</time></trkpt><trkpt lat="43.1734597" lon="12.3659556"><ele>423.0</ele><time>2026-03-24T11:28:07.5Z</time></trkpt><trkpt lat="43.173323" lon="12.3658569"><ele>424.0</ele><time>2026-03-24T11:28:08.499Z</time></trkpt><trkpt lat="43.1732037" lon="12.3657594"><ele>423.0</ele><time>2026-03-24T11:28:09.498Z</time></trkpt><trkpt lat="43.1730789" lon="12.3657058"><ele>422.0</ele><time>2026-03-24T11:28:10.5Z</time></trkpt><trkpt lat="43.1729445" lon="12.3656699"><ele>421.0</ele><time>2026-03-24T11:28:11.5Z</time></trkpt><trkpt lat="43.1726416" lon="12.3657134"><ele>417.5</ele><time>2026-03-24T11:28:13.499Z</time></trkpt><trkpt lat="43.1723107" lon="12.3657954"><ele>414.0</ele><time>2026-03-24T11:28:15.5Z</time></trkpt><trkpt lat="43.1721455" lon="12.3658419"><ele>414.0</ele><time>2026-03-24T11:28:16.499Z</time></trkpt><trkpt lat="43.1719847" lon="12.3658789"><ele>414.0</ele><time>2026-03-24T11:28:17.498Z</time></trkpt><trkpt lat="43.1718287" lon="12.3659166"><ele>414.0</ele><time>2026-03-24T11:28:18.498Z</time></trkpt><trkpt lat="43.1716824" lon="12.3659433"><ele>411.33333333333337</ele><time>2026-03-24T11:28:19.499Z</time></trkpt><trkpt lat="43.1714009" lon="12.3660138"><ele>408.6666666666667</ele><time>2026-03-24T11:28:21.5Z</time></trkpt><trkpt lat="43.1712502" lon="12.3660445"><ele>406.0</ele><time>2026-03-24T11:28:22.498Z</time></trkpt><trkpt lat="43.1710933" lon="12.366073"><ele>406.0</ele><time>2026-03-24T11:28:23.499Z</time></trkpt><trkpt lat="43.1709316" lon="12.3661012"><ele>406.0</ele><time>2026-03-24T11:28:24.5Z</time></trkpt><trkpt lat="43.1707738" lon="12.366135"><ele>406.0</ele><time>2026-03-24T11:28:25.499Z</time></trkpt><trkpt lat="43.1706243" lon="12.3661828"><ele>402.33333333333337</ele><time>2026-03-24T11:28:26.5Z</time></trkpt><trkpt lat="43.1704718" lon="12.3662286"><ele>398.66666666666663</ele><time>2026-03-24T11:28:27.498Z</time></trkpt><trkpt lat="43.1703202" lon="12.3662623"><ele>395.0</ele><time>2026-03-24T11:28:28.499Z</time></trkpt><trkpt lat="43.1701752" lon="12.3662726"><ele>395.0</ele><time>2026-03-24T11:28:29.499Z</time></trkpt><trkpt lat="43.1700415" lon="12.3662938"><ele>395.0</ele><time>2026-03-24T11:28:30.5Z</time></trkpt><trkpt lat="43.1699008" lon="12.3663234"><ele>395.0</ele><time>2026-03-24T11:28:31.499Z</time></trkpt><trkpt lat="43.1697652" lon="12.366352"><ele>395.0</ele><time>2026-03-24T11:28:32.499Z</time></trkpt><trkpt lat="43.1696312" lon="12.3663932"><ele>395.75</ele><time>2026-03-24T11:28:33.5Z</time></trkpt><trkpt lat="43.169511" lon="12.3664573"><ele>396.5</ele><time>2026-03-24T11:28:34.5Z</time></trkpt><trkpt lat="43.1694126" lon="12.3665669"><ele>397.25</ele><time>2026-03-24T11:28:35.499Z</time></trkpt><trkpt lat="43.1693413" lon="12.3666989"><ele>398.0</ele><time>2026-03-24T11:28:36.499Z</time></trkpt><trkpt lat="43.1692913" lon="12.3668515"><ele>398.0</ele><time>2026-03-24T11:28:37.5Z</time></trkpt><trkpt lat="43.1692612" lon="12.3670108"><ele>398.0</ele><time>2026-03-24T11:28:38.5Z</time></trkpt><trkpt lat="43.169332" lon="12.3671741"><ele>398.0</ele><time>2026-03-24T11:28:39.499Z</time></trkpt><trkpt lat="43.1693755" lon="12.367312"><ele>398.0</ele><time>2026-03-24T11:28:40.499Z</time></trkpt><trkpt lat="43.1694654" lon="12.3674182"><ele>397.25</ele><time>2026-03-24T11:28:41.499Z</time></trkpt><trkpt lat="43.1695464" lon="12.367525"><ele>396.5</ele><time>2026-03-24T11:28:42.5Z</time></trkpt><trkpt lat="43.1696928" lon="12.3675752"><ele>395.75</ele><time>2026-03-24T11:28:43.499Z</time></trkpt><trkpt lat="43.1698469" lon="12.3676431"><ele>395.0</ele><time>2026-03-24T11:28:44.499Z</time></trkpt><trkpt lat="43.169991" lon="12.3677003"><ele>396.5</ele><time>2026-03-24T11:28:45.499Z</time></trkpt><trkpt lat="43.170146" lon="12.3677502"><ele>398.0</ele><time>2026-03-24T11:28:46.499Z</time></trkpt><trkpt lat="43.1702855" lon="12.3678098"><ele>399.5</ele><time>2026-03-24T11:28:47.499Z</time></trkpt><trkpt lat="43.1704069" lon="12.367876"><ele>401.0</ele><time>2026-03-24T11:28:48.499Z</time></trkpt><trkpt lat="43.1704779" lon="12.3679822"><ele>398.6</ele><time>2026-03-24T11:28:49.5Z</time></trkpt><trkpt lat="43.1705256" lon="12.3681125"><ele>396.20000000000005</ele><time>2026-03-24T11:28:50.499Z</time></trkpt><trkpt lat="43.1705597" lon="12.3682455"><ele>393.79999999999995</ele><time>2026-03-24T11:28:51.5Z</time></trkpt><trkpt lat="43.1705829" lon="12.3683751"><ele>391.4</ele><time>2026-03-24T11:28:52.501Z</time></trkpt><trkpt lat="43.1704558" lon="12.3684133"><ele>389.0</ele><time>2026-03-24T11:28:53.501Z</time></trkpt><trkpt lat="43.1703861" lon="12.3684979"><ele>389.0</ele><time>2026-03-24T11:28:54.5Z</time></trkpt><trkpt lat="43.1702702" lon="12.3685574"><ele>389.0</ele><time>2026-03-24T11:28:55.5Z</time></trkpt><trkpt lat="43.1701374" lon="12.368568"><ele>389.0</ele><time>2026-03-24T11:28:56.499Z</time></trkpt><trkpt lat="43.1699897" lon="12.3684676"><ele>389.0</ele><time>2026-03-24T11:28:57.5Z</time></trkpt><trkpt lat="43.1698399" lon="12.3684354"><ele>385.3333333333333</ele><time>2026-03-24T11:28:58.499Z</time></trkpt><trkpt lat="43.169672" lon="12.3683905"><ele>381.66666666666663</ele><time>2026-03-24T11:28:59.5Z</time></trkpt><trkpt lat="43.1695019" lon="12.3683424"><ele>378.0</ele><time>2026-03-24T11:29:00.499Z</time></trkpt><trkpt lat="43.1693298" lon="12.3682827"><ele>378.0</ele><time>2026-03-24T11:29:01.499Z</time></trkpt><trkpt lat="43.1691543" lon="12.3682369"><ele>378.0</ele><time>2026-03-24T11:29:02.5Z</time></trkpt><trkpt lat="43.1689969" lon="12.3681937"><ele>378.0</ele><time>2026-03-24T11:29:03.499Z</time></trkpt><trkpt lat="43.1688373" lon="12.3681444"><ele>375.6666666666667</ele><time>2026-03-24T11:29:04.498Z</time></trkpt><trkpt lat="43.1686715" lon="12.3680698"><ele>373.33333333333337</ele><time>2026-03-24T11:29:05.5Z</time></trkpt><trkpt lat="43.1685103" lon="12.3680271"><ele>371.0</ele><time>2026-03-24T11:29:06.499Z</time></trkpt><trkpt lat="43.1683543" lon="12.3679779"><ele>369.33333333333337</ele><time>2026-03-24T11:29:07.499Z</time></trkpt><trkpt lat="43.1682065" lon="12.3679299"><ele>367.6666666666667</ele><time>2026-03-24T11:29:08.499Z</time></trkpt><trkpt lat="43.1680628" lon="12.3678683"><ele>366.0</ele><time>2026-03-24T11:29:09.501Z</time></trkpt><trkpt lat="43.167912" lon="12.3678272"><ele>366.0</ele><time>2026-03-24T11:29:10.5Z</time></trkpt><trkpt lat="43.167769" lon="12.3677743"><ele>366.0</ele><time>2026-03-24T11:29:11.499Z</time></trkpt><trkpt lat="43.1676463" lon="12.3676373"><ele>366.0</ele><time>2026-03-24T11:29:12.5Z</time></trkpt><trkpt lat="43.1675119" lon="12.3674904"><ele>366.0</ele><time>2026-03-24T11:29:13.499Z</time></trkpt><trkpt lat="43.1674045" lon="12.3672928"><ele>366.0</ele><time>2026-03-24T11:29:14.498Z</time></trkpt><trkpt lat="43.167309" lon="12.367092"><ele>366.0</ele><time>2026-03-24T11:29:15.5Z</time></trkpt><trkpt lat="43.167206" lon="12.3668727"><ele>362.6666666666667</ele><time>2026-03-24T11:29:16.5Z</time></trkpt><trkpt lat="43.1670899" lon="12.3666654"><ele>359.33333333333337</ele><time>2026-03-24T11:29:17.5Z</time></trkpt><trkpt lat="43.166991" lon="12.3664715"><ele>356.0</ele><time>2026-03-24T11:29:18.5Z</time></trkpt><trkpt lat="43.1668737" lon="12.3662733"><ele>355.5</ele><time>2026-03-24T11:29:19.5Z</time></trkpt><trkpt lat="43.1667011" lon="12.3658952"><ele>355.0</ele><time>2026-03-24T11:29:21.5Z</time></trkpt><trkpt lat="43.1667349" lon="12.3657196"><ele>355.0</ele><time>2026-03-24T11:29:22.5Z</time></trkpt><trkpt lat="43.1667147" lon="12.3655358"><ele>355.0</ele><time>2026-03-24T11:29:23.501Z</time></trkpt><trkpt lat="43.1668087" lon="12.3653329"><ele>355.0</ele><time>2026-03-24T11:29:24.5Z</time></trkpt><trkpt lat="43.166875" lon="12.3652009"><ele>355.0</ele><time>2026-03-24T11:29:25.5Z</time></trkpt><trkpt lat="43.1669433" lon="12.3650371"><ele>354.75</ele><time>2026-03-24T11:29:26.501Z</time></trkpt><trkpt lat="43.166975" lon="12.3648713"><ele>354.5</ele><time>2026-03-24T11:29:27.5Z</time></trkpt><trkpt lat="43.166976" lon="12.3647078"><ele>354.25</ele><time>2026-03-24T11:29:28.5Z</time></trkpt><trkpt lat="43.1669688" lon="12.3645379"><ele>354.0</ele><time>2026-03-24T11:29:29.499Z</time></trkpt><trkpt lat="43.1668871" lon="12.364429"><ele>354.0</ele><time>2026-03-24T11:29:30.5Z</time></trkpt><trkpt lat="43.1668468" lon="12.3642828"><ele>354.0</ele><time>2026-03-24T11:29:31.499Z</time></trkpt><trkpt lat="43.1666354" lon="12.3643011"><ele>354.0</ele><time>2026-03-24T11:29:32.5Z</time></trkpt><trkpt lat="43.1663534" lon="12.3641812"><ele>351.6666666666667</ele><time>2026-03-24T11:29:34.499Z</time></trkpt><trkpt lat="43.1662033" lon="12.364111"><ele>349.33333333333337</ele><time>2026-03-24T11:29:35.499Z</time></trkpt><trkpt lat="43.1660542" lon="12.3640437"><ele>347.0</ele><time>2026-03-24T11:29:36.499Z</time></trkpt><trkpt lat="43.1659141" lon="12.3639609"><ele>347.0</ele><time>2026-03-24T11:29:37.5Z</time></trkpt><trkpt lat="43.1657558" lon="12.3638636"><ele>347.0</ele><time>2026-03-24T11:29:38.499Z</time></trkpt><trkpt lat="43.1655883" lon="12.3637382"><ele>347.0</ele><time>2026-03-24T11:29:39.5Z</time></trkpt><trkpt lat="43.16544" lon="12.3635899"><ele>345.5</ele><time>2026-03-24T11:29:40.5Z</time></trkpt><trkpt lat="43.1651092" lon="12.3633212"><ele>344.0</ele><time>2026-03-24T11:29:42.499Z</time></trkpt><trkpt lat="43.164931" lon="12.3631886"><ele>344.0</ele><time>2026-03-24T11:29:43.501Z</time></trkpt><trkpt lat="43.164771" lon="12.3630462"><ele>344.0</ele><time>2026-03-24T11:29:44.5Z</time></trkpt><trkpt lat="43.1646014" lon="12.3628933"><ele>344.0</ele><time>2026-03-24T11:29:45.5Z</time></trkpt><trkpt lat="43.1644279" lon="12.3627332"><ele>344.0</ele><time>2026-03-24T11:29:46.499Z</time></trkpt><trkpt lat="43.164256" lon="12.3625643"><ele>344.0</ele><time>2026-03-24T11:29:47.5Z</time></trkpt><trkpt lat="43.1640839" lon="12.362432"><ele>344.0</ele><time>2026-03-24T11:29:48.499Z</time></trkpt><trkpt lat="43.1637911" lon="12.3621315"><ele>343.0</ele><time>2026-03-24T11:29:50.5Z</time></trkpt><trkpt lat="43.1636354" lon="12.3619797"><ele>342.0</ele><time>2026-03-24T11:29:51.501Z</time></trkpt><trkpt lat="43.1634852" lon="12.3618262"><ele>341.0</ele><time>2026-03-24T11:29:52.499Z</time></trkpt><trkpt lat="43.1634171" lon="12.3616463"><ele>341.0</ele><time>2026-03-24T11:29:53.501Z</time></trkpt><trkpt lat="43.1632966" lon="12.3614799"><ele>341.0</ele><time>2026-03-24T11:29:54.499Z</time></trkpt><trkpt lat="43.1632317" lon="12.3612519"><ele>341.0</ele><time>2026-03-24T11:29:55.501Z</time></trkpt><trkpt lat="43.1631549" lon="12.36103"><ele>341.6666666666667</ele><time>2026-03-24T11:29:56.5Z</time></trkpt><trkpt lat="43.163064" lon="12.3608553"><ele>342.3333333333333</ele><time>2026-03-24T11:29:57.5Z</time></trkpt><trkpt lat="43.1629798" lon="12.3606825"><ele>343.0</ele><time>2026-03-24T11:29:58.498Z</time></trkpt><trkpt lat="43.162759" lon="12.3603862"><ele>343.0</ele><time>2026-03-24T11:30:00.5Z</time></trkpt><trkpt lat="43.1626363" lon="12.3602369"><ele>343.0</ele><time>2026-03-24T11:30:01.5Z</time></trkpt><trkpt lat="43.1624828" lon="12.3601144"><ele>343.0</ele><time>2026-03-24T11:30:02.5Z</time></trkpt><trkpt lat="43.1623437" lon="12.3599808"><ele>345.3333333333333</ele><time>2026-03-24T11:30:03.5Z</time></trkpt><trkpt lat="43.1621998" lon="12.3598398"><ele>347.6666666666667</ele><time>2026-03-24T11:30:04.499Z</time></trkpt><trkpt lat="43.1620585" lon="12.3597035"><ele>350.0</ele><time>2026-03-24T11:30:05.5Z</time></trkpt><trkpt lat="43.1619421" lon="12.3595487"><ele>350.0</ele><time>2026-03-24T11:30:06.501Z</time></trkpt><trkpt lat="43.1618208" lon="12.359414"><ele>350.0</ele><time>2026-03-24T11:30:07.499Z</time></trkpt><trkpt lat="43.1616997" lon="12.3593004"><ele>350.0</ele><time>2026-03-24T11:30:08.5Z</time></trkpt><trkpt lat="43.161426" lon="12.3591837"><ele>347.5</ele><time>2026-03-24T11:30:10.5Z</time></trkpt><trkpt lat="43.1612646" lon="12.3591725"><ele>345.0</ele><time>2026-03-24T11:30:11.501Z</time></trkpt><trkpt lat="43.1611292" lon="12.3591755"><ele>342.5</ele><time>2026-03-24T11:30:12.5Z</time></trkpt><trkpt lat="43.1610007" lon="12.359172"><ele>340.0</ele><time>2026-03-24T11:30:13.499Z</time></trkpt><trkpt lat="43.1608541" lon="12.3591573"><ele>339.0</ele><time>2026-03-24T11:30:14.5Z</time></trkpt><trkpt lat="43.1606927" lon="12.3591391"><ele>338.0</ele><time>2026-03-24T11:30:15.5Z</time></trkpt><trkpt lat="43.1605401" lon="12.3591069"><ele>337.0</ele><time>2026-03-24T11:30:16.5Z</time></trkpt><trkpt lat="43.1603718" lon="12.3590723"><ele>337.0</ele><time>2026-03-24T11:30:17.501Z</time></trkpt><trkpt lat="43.1602069" lon="12.3590151"><ele>337.0</ele><time>2026-03-24T11:30:18.499Z</time></trkpt><trkpt lat="43.1600462" lon="12.3589562"><ele>337.0</ele><time>2026-03-24T11:30:19.5Z</time></trkpt><trkpt lat="43.1598705" lon="12.3588834"><ele>337.0</ele><time>2026-03-24T11:30:20.501Z</time></trkpt><trkpt lat="43.1598074" lon="12.3587079"><ele>337.0</ele><time>2026-03-24T11:30:21.5Z</time></trkpt><trkpt lat="43.1596944" lon="12.3585764"><ele>337.0</ele><time>2026-03-24T11:30:22.499Z</time></trkpt><trkpt lat="43.1596068" lon="12.3584175"><ele>337.0</ele><time>2026-03-24T11:30:23.499Z</time></trkpt><trkpt lat="43.1595065" lon="12.3582466"><ele>337.0</ele><time>2026-03-24T11:30:24.5Z</time></trkpt><trkpt lat="43.159397" lon="12.3580476"><ele>337.0</ele><time>2026-03-24T11:30:25.501Z</time></trkpt><trkpt lat="43.1593029" lon="12.357843"><ele>337.0</ele><time>2026-03-24T11:30:26.499Z</time></trkpt><trkpt lat="43.1591963" lon="12.3576634"><ele>338.5</ele><time>2026-03-24T11:30:27.5Z</time></trkpt><trkpt lat="43.1591074" lon="12.3575304"><ele>340.0</ele><time>2026-03-24T11:30:28.501Z</time></trkpt><trkpt lat="43.1589304" lon="12.3570995"><ele>334.66666666666663</ele><time>2026-03-24T11:30:30.5Z</time></trkpt><trkpt lat="43.1588466" lon="12.3568759"><ele>329.3333333333333</ele><time>2026-03-24T11:30:31.5Z</time></trkpt><trkpt lat="43.1587735" lon="12.3566223"><ele>324.0</ele><time>2026-03-24T11:30:32.5Z</time></trkpt><trkpt lat="43.1586364" lon="12.356135"><ele>322.6666666666667</ele><time>2026-03-24T11:30:34.5Z</time></trkpt><trkpt lat="43.1585699" lon="12.3559066"><ele>321.33333333333337</ele><time>2026-03-24T11:30:35.5Z</time></trkpt><trkpt lat="43.158494" lon="12.3556735"><ele>320.0</ele><time>2026-03-24T11:30:36.5Z</time></trkpt><trkpt lat="43.1584165" lon="12.3554716"><ele>319.0</ele><time>2026-03-24T11:30:37.499Z</time></trkpt><trkpt lat="43.1583376" lon="12.3552753"><ele>318.0</ele><time>2026-03-24T11:30:38.5Z</time></trkpt><trkpt lat="43.1581881" lon="12.3551147"><ele>317.0</ele><time>2026-03-24T11:30:39.5Z</time></trkpt><trkpt lat="43.1580424" lon="12.3549706"><ele>317.0</ele><time>2026-03-24T11:30:40.499Z</time></trkpt><trkpt lat="43.1577521" lon="12.3547296"><ele>317.0</ele><time>2026-03-24T11:30:42.5Z</time></trkpt><trkpt lat="43.1574719" lon="12.3545704"><ele>316.0</ele><time>2026-03-24T11:30:44.281Z</time></trkpt><trkpt lat="43.1572446" lon="12.3544893"><ele>315.0</ele><time>2026-03-24T11:30:45.5Z</time></trkpt><trkpt lat="43.1570528" lon="12.354422"><ele>314.0</ele><time>2026-03-24T11:30:46.499Z</time></trkpt><trkpt lat="43.156863" lon="12.3543586"><ele>314.0</ele><time>2026-03-24T11:30:47.5Z</time></trkpt><trkpt lat="43.156667" lon="12.3542972"><ele>314.0</ele><time>2026-03-24T11:30:48.5Z</time></trkpt><trkpt lat="43.1564799" lon="12.3542332"><ele>314.0</ele><time>2026-03-24T11:30:49.499Z</time></trkpt><trkpt lat="43.1562933" lon="12.3541663"><ele>313.6666666666667</ele><time>2026-03-24T11:30:50.499Z</time></trkpt><trkpt lat="43.1561044" lon="12.3541017"><ele>313.3333333333333</ele><time>2026-03-24T11:30:51.499Z</time></trkpt><trkpt lat="43.1559333" lon="12.3540358"><ele>313.0</ele><time>2026-03-24T11:30:52.499Z</time></trkpt><trkpt lat="43.1557566" lon="12.3539735"><ele>312.0</ele><time>2026-03-24T11:30:53.499Z</time></trkpt><trkpt lat="43.1555858" lon="12.353919"><ele>311.0</ele><time>2026-03-24T11:30:54.499Z</time></trkpt><trkpt lat="43.1554203" lon="12.3538599"><ele>310.0</ele><time>2026-03-24T11:30:55.5Z</time></trkpt><trkpt lat="43.1552508" lon="12.3538015"><ele>310.0</ele><time>2026-03-24T11:30:56.499Z</time></trkpt><trkpt lat="43.1550824" lon="12.3537403"><ele>310.0</ele><time>2026-03-24T11:30:57.5Z</time></trkpt><trkpt lat="43.1549183" lon="12.3536874"><ele>310.0</ele><time>2026-03-24T11:30:58.5Z</time></trkpt><trkpt lat="43.1547487" lon="12.35363"><ele>312.3333333333333</ele><time>2026-03-24T11:30:59.5Z</time></trkpt><trkpt lat="43.1545978" lon="12.3535417"><ele>314.6666666666667</ele><time>2026-03-24T11:31:00.499Z</time></trkpt><trkpt lat="43.1544547" lon="12.3534468"><ele>317.0</ele><time>2026-03-24T11:31:01.499Z</time></trkpt><trkpt lat="43.1543291" lon="12.3533364"><ele>317.0</ele><time>2026-03-24T11:31:02.499Z</time></trkpt><trkpt lat="43.1541913" lon="12.3532243"><ele>317.0</ele><time>2026-03-24T11:31:03.5Z</time></trkpt><trkpt lat="43.1540806" lon="12.353096"><ele>317.0</ele><time>2026-03-24T11:31:04.501Z</time></trkpt><trkpt lat="43.153961" lon="12.3529961"><ele>317.0</ele><time>2026-03-24T11:31:05.499Z</time></trkpt><trkpt lat="43.1538354" lon="12.3529053"><ele>316.0</ele><time>2026-03-24T11:31:06.5Z</time></trkpt><trkpt lat="43.1537094" lon="12.3528124"><ele>315.0</ele><time>2026-03-24T11:31:07.501Z</time></trkpt><trkpt lat="43.1535849" lon="12.3527215"><ele>314.0</ele><time>2026-03-24T11:31:08.5Z</time></trkpt><trkpt lat="43.1534576" lon="12.3526181"><ele>313.0</ele><time>2026-03-24T11:31:09.501Z</time></trkpt><trkpt lat="43.1533244" lon="12.3525113"><ele>312.0</ele><time>2026-03-24T11:31:10.501Z</time></trkpt><trkpt lat="43.1531887" lon="12.3523945"><ele>311.0</ele><time>2026-03-24T11:31:11.499Z</time></trkpt><trkpt lat="43.1530287" lon="12.3522456"><ele>310.0</ele><time>2026-03-24T11:31:12.501Z</time></trkpt><trkpt lat="43.1528813" lon="12.3521207"><ele>310.0</ele><time>2026-03-24T11:31:13.5Z</time></trkpt><trkpt lat="43.1527424" lon="12.3520024"><ele>310.0</ele><time>2026-03-24T11:31:14.5Z</time></trkpt><trkpt lat="43.1526018" lon="12.3518973"><ele>310.0</ele><time>2026-03-24T11:31:15.5Z</time></trkpt><trkpt lat="43.1524553" lon="12.3518179"><ele>311.66666666666663</ele><time>2026-03-24T11:31:16.499Z</time></trkpt><trkpt lat="43.1523062" lon="12.3517514"><ele>313.3333333333333</ele><time>2026-03-24T11:31:17.5Z</time></trkpt><trkpt lat="43.1521465" lon="12.3517005"><ele>315.0</ele><time>2026-03-24T11:31:18.499Z</time></trkpt><trkpt lat="43.1519902" lon="12.3516422"><ele>315.0</ele><time>2026-03-24T11:31:19.5Z</time></trkpt><trkpt lat="43.1518376" lon="12.3515935"><ele>315.0</ele><time>2026-03-24T11:31:20.5Z</time></trkpt><trkpt lat="43.1516821" lon="12.3515434"><ele>315.0</ele><time>2026-03-24T11:31:21.501Z</time></trkpt><trkpt lat="43.1515317" lon="12.3514943"><ele>315.3333333333333</ele><time>2026-03-24T11:31:22.499Z</time></trkpt><trkpt lat="43.1513864" lon="12.3514652"><ele>315.66666666666663</ele><time>2026-03-24T11:31:23.499Z</time></trkpt><trkpt lat="43.1512383" lon="12.3514403"><ele>316.0</ele><time>2026-03-24T11:31:24.499Z</time></trkpt><trkpt lat="43.151077" lon="12.3514383"><ele>316.0</ele><time>2026-03-24T11:31:25.5Z</time></trkpt><trkpt lat="43.1509124" lon="12.3514417"><ele>316.0</ele><time>2026-03-24T11:31:26.5Z</time></trkpt><trkpt lat="43.1507459" lon="12.3514632"><ele>316.0</ele><time>2026-03-24T11:31:27.501Z</time></trkpt><trkpt lat="43.1505748" lon="12.3514937"><ele>315.0</ele><time>2026-03-24T11:31:28.501Z</time></trkpt><trkpt lat="43.1504083" lon="12.3515351"><ele>314.0</ele><time>2026-03-24T11:31:29.501Z</time></trkpt><trkpt lat="43.1502449" lon="12.3515771"><ele>313.0</ele><time>2026-03-24T11:31:30.5Z</time></trkpt><trkpt lat="43.1500806" lon="12.3516217"><ele>313.5</ele><time>2026-03-24T11:31:31.5Z</time></trkpt><trkpt lat="43.1497549" lon="12.3517093"><ele>314.0</ele><time>2026-03-24T11:31:33.499Z</time></trkpt><trkpt lat="43.1494306" lon="12.3518006"><ele>314.0</ele><time>2026-03-24T11:31:35.499Z</time></trkpt><trkpt lat="43.149273" lon="12.3518502"><ele>314.0</ele><time>2026-03-24T11:31:36.499Z</time></trkpt><trkpt lat="43.1491108" lon="12.3519019"><ele>314.0</ele><time>2026-03-24T11:31:37.499Z</time></trkpt><trkpt lat="43.1489445" lon="12.3519584"><ele>313.33333333333337</ele><time>2026-03-24T11:31:38.5Z</time></trkpt><trkpt lat="43.1487741" lon="12.3520115"><ele>312.6666666666667</ele><time>2026-03-24T11:31:39.5Z</time></trkpt><trkpt lat="43.148604" lon="12.3520636"><ele>312.0</ele><time>2026-03-24T11:31:40.501Z</time></trkpt><trkpt lat="43.1484341" lon="12.3521252"><ele>312.0</ele><time>2026-03-24T11:31:41.499Z</time></trkpt><trkpt lat="43.1482658" lon="12.3521729"><ele>312.0</ele><time>2026-03-24T11:31:42.5Z</time></trkpt><trkpt lat="43.1480943" lon="12.3522102"><ele>312.0</ele><time>2026-03-24T11:31:43.501Z</time></trkpt><trkpt lat="43.1479255" lon="12.3522579"><ele>312.0</ele><time>2026-03-24T11:31:44.5Z</time></trkpt><trkpt lat="43.147758" lon="12.3523036"><ele>312.0</ele><time>2026-03-24T11:31:45.499Z</time></trkpt><trkpt lat="43.1475881" lon="12.3523553"><ele>312.0</ele><time>2026-03-24T11:31:46.501Z</time></trkpt><trkpt lat="43.1474193" lon="12.352408"><ele>312.3333333333333</ele><time>2026-03-24T11:31:47.5Z</time></trkpt><trkpt lat="43.1472564" lon="12.3524688"><ele>312.66666666666663</ele><time>2026-03-24T11:31:48.5Z</time></trkpt><trkpt lat="43.1470944" lon="12.352518"><ele>313.0</ele><time>2026-03-24T11:31:49.5Z</time></trkpt><trkpt lat="43.1469421" lon="12.3525657"><ele>313.0</ele><time>2026-03-24T11:31:50.5Z</time></trkpt><trkpt lat="43.1467888" lon="12.352604"><ele>313.0</ele><time>2026-03-24T11:31:51.5Z</time></trkpt><trkpt lat="43.1466368" lon="12.3526409"><ele>313.0</ele><time>2026-03-24T11:31:52.499Z</time></trkpt><trkpt lat="43.1464875" lon="12.3526778"><ele>313.25</ele><time>2026-03-24T11:31:53.499Z</time></trkpt><trkpt lat="43.146351" lon="12.3527217"><ele>313.5</ele><time>2026-03-24T11:31:54.5Z</time></trkpt><trkpt lat="43.1462235" lon="12.3527641"><ele>313.75</ele><time>2026-03-24T11:31:55.5Z</time></trkpt><trkpt lat="43.1461002" lon="12.3528077"><ele>314.0</ele><time>2026-03-24T11:31:56.501Z</time></trkpt><trkpt lat="43.1459861" lon="12.3528405"><ele>314.0</ele><time>2026-03-24T11:31:57.5Z</time></trkpt><trkpt lat="43.1458806" lon="12.3528486"><ele>314.0</ele><time>2026-03-24T11:31:58.5Z</time></trkpt><trkpt lat="43.1457883" lon="12.3528158"><ele>314.0</ele><time>2026-03-24T11:31:59.499Z</time></trkpt><trkpt lat="43.1457153" lon="12.3527593"><ele>314.0</ele><time>2026-03-24T11:32:00.5Z</time></trkpt><trkpt lat="43.1456679" lon="12.3526752"><ele>314.0</ele><time>2026-03-24T11:32:01.5Z</time></trkpt><trkpt lat="43.1456316" lon="12.3525575"><ele>314.0</ele><time>2026-03-24T11:32:02.5Z</time></trkpt><trkpt lat="43.1455908" lon="12.3524326"><ele>314.0</ele><time>2026-03-24T11:32:03.5Z</time></trkpt><trkpt lat="43.1455484" lon="12.3523093"><ele>314.0</ele><time>2026-03-24T11:32:04.499Z</time></trkpt><trkpt lat="43.1454938" lon="12.3521858"><ele>314.0</ele><time>2026-03-24T11:32:05.5Z</time></trkpt><trkpt lat="43.1454499" lon="12.3520817"><ele>314.0</ele><time>2026-03-24T11:32:06.501Z</time></trkpt><trkpt lat="43.1454134" lon="12.3520027"><ele>314.0</ele><time>2026-03-24T11:32:07.501Z</time></trkpt><trkpt lat="43.1453601" lon="12.3519119"><ele>314.0</ele><time>2026-03-24T11:32:09.5Z</time></trkpt><trkpt lat="43.1452957" lon="12.3519234"><ele>314.0</ele><time>2026-03-24T11:32:12.5Z</time></trkpt><trkpt lat="43.14522" lon="12.3520514"><ele>314.0</ele><time>2026-03-24T11:32:14.5Z</time></trkpt><trkpt lat="43.1451602" lon="12.3521229"><ele>314.0</ele><time>2026-03-24T11:32:15.5Z</time></trkpt><trkpt lat="43.1450879" lon="12.3522153"><ele>314.0</ele><time>2026-03-24T11:32:16.5Z</time></trkpt><trkpt lat="43.1450085" lon="12.3523211"><ele>314.0</ele><time>2026-03-24T11:32:17.5Z</time></trkpt><trkpt lat="43.1449161" lon="12.3524314"><ele>314.0</ele><time>2026-03-24T11:32:18.501Z</time></trkpt><trkpt lat="43.1448248" lon="12.3525518"><ele>314.0</ele><time>2026-03-24T11:32:19.5Z</time></trkpt><trkpt lat="43.1447145" lon="12.3526887"><ele>314.0</ele><time>2026-03-24T11:32:20.5Z</time></trkpt><trkpt lat="43.1446165" lon="12.3528281"><ele>313.75</ele><time>2026-03-24T11:32:21.5Z</time></trkpt><trkpt lat="43.1445143" lon="12.3529597"><ele>313.5</ele><time>2026-03-24T11:32:22.501Z</time></trkpt><trkpt lat="43.1444106" lon="12.3531"><ele>313.25</ele><time>2026-03-24T11:32:23.499Z</time></trkpt><trkpt lat="43.1443051" lon="12.3532562"><ele>313.0</ele><time>2026-03-24T11:32:24.502Z</time></trkpt><trkpt lat="43.1441936" lon="12.3534245"><ele>313.66666666666663</ele><time>2026-03-24T11:32:25.499Z</time></trkpt><trkpt lat="43.1441197" lon="12.3536103"><ele>314.3333333333333</ele><time>2026-03-24T11:32:26.5Z</time></trkpt><trkpt lat="43.1440791" lon="12.3538271"><ele>315.0</ele><time>2026-03-24T11:32:27.501Z</time></trkpt><trkpt lat="43.1440779" lon="12.3540526"><ele>316.3333333333333</ele><time>2026-03-24T11:32:28.499Z</time></trkpt><trkpt lat="43.1440997" lon="12.3542939"><ele>317.66666666666663</ele><time>2026-03-24T11:32:29.499Z</time></trkpt><trkpt lat="43.1441593" lon="12.3545584"><ele>319.0</ele><time>2026-03-24T11:32:30.501Z</time></trkpt><trkpt lat="43.1442312" lon="12.3548078"><ele>321.66666666666663</ele><time>2026-03-24T11:32:31.501Z</time></trkpt><trkpt lat="43.1442709" lon="12.3550432"><ele>324.3333333333333</ele><time>2026-03-24T11:32:32.501Z</time></trkpt><trkpt lat="43.1442837" lon="12.3552829"><ele>327.0</ele><time>2026-03-24T11:32:33.501Z</time></trkpt><trkpt lat="43.1442646" lon="12.3554997"><ele>327.6666666666667</ele><time>2026-03-24T11:32:34.502Z</time></trkpt><trkpt lat="43.1442216" lon="12.3557118"><ele>328.33333333333337</ele><time>2026-03-24T11:32:35.5Z</time></trkpt><trkpt lat="43.1441071" lon="12.3558849"><ele>329.0</ele><time>2026-03-24T11:32:36.499Z</time></trkpt><trkpt lat="43.1439839" lon="12.3560518"><ele>329.0</ele><time>2026-03-24T11:32:37.5Z</time></trkpt><trkpt lat="43.1438408" lon="12.3561824"><ele>329.0</ele><time>2026-03-24T11:32:38.501Z</time></trkpt><trkpt lat="43.1436753" lon="12.3562941"><ele>329.0</ele><time>2026-03-24T11:32:39.501Z</time></trkpt><trkpt lat="43.1435154" lon="12.3564094"><ele>329.0</ele><time>2026-03-24T11:32:40.5Z</time></trkpt><trkpt lat="43.1432935" lon="12.3563432"><ele>329.0</ele><time>2026-03-24T11:32:41.502Z</time></trkpt><trkpt lat="43.1431562" lon="12.3560821"><ele>333.0</ele><time>2026-03-24T11:32:42.499Z</time></trkpt><trkpt lat="43.1429905" lon="12.3559395"><ele>337.0</ele><time>2026-03-24T11:32:43.501Z</time></trkpt><trkpt lat="43.1428417" lon="12.3557113"><ele>341.0</ele><time>2026-03-24T11:32:44.5Z</time></trkpt><trkpt lat="43.1427052" lon="12.3555036"><ele>341.0</ele><time>2026-03-24T11:32:45.5Z</time></trkpt><trkpt lat="43.1425661" lon="12.3552804"><ele>341.0</ele><time>2026-03-24T11:32:46.5Z</time></trkpt><trkpt lat="43.1424212" lon="12.3550565"><ele>341.0</ele><time>2026-03-24T11:32:47.5Z</time></trkpt><trkpt lat="43.1422771" lon="12.3548473"><ele>340.6666666666667</ele><time>2026-03-24T11:32:48.5Z</time></trkpt><trkpt lat="43.1421364" lon="12.3546841"><ele>340.3333333333333</ele><time>2026-03-24T11:32:49.5Z</time></trkpt><trkpt lat="43.1419587" lon="12.3545553"><ele>340.0</ele><time>2026-03-24T11:32:50.499Z</time></trkpt><trkpt lat="43.141764" lon="12.3545005"><ele>340.0</ele><time>2026-03-24T11:32:51.5Z</time></trkpt><trkpt lat="43.141551" lon="12.3544693"><ele>340.0</ele><time>2026-03-24T11:32:52.5Z</time></trkpt><trkpt lat="43.1413139" lon="12.3545074"><ele>340.5</ele><time>2026-03-24T11:32:53.5Z</time></trkpt><trkpt lat="43.1410773" lon="12.3545866"><ele>341.0</ele><time>2026-03-24T11:32:54.499Z</time></trkpt><trkpt lat="43.1408446" lon="12.3547041"><ele>346.0</ele><time>2026-03-24T11:32:55.5Z</time></trkpt><trkpt lat="43.1406386" lon="12.3548801"><ele>351.0</ele><time>2026-03-24T11:32:56.501Z</time></trkpt><trkpt lat="43.140459" lon="12.3550783"><ele>351.0</ele><time>2026-03-24T11:32:57.501Z</time></trkpt><trkpt lat="43.1403045" lon="12.3553185"><ele>351.0</ele><time>2026-03-24T11:32:58.501Z</time></trkpt><trkpt lat="43.1401981" lon="12.3555766"><ele>353.0</ele><time>2026-03-24T11:32:59.499Z</time></trkpt><trkpt lat="43.1401099" lon="12.3558305"><ele>355.0</ele><time>2026-03-24T11:33:00.5Z</time></trkpt><trkpt lat="43.1400158" lon="12.3560364"><ele>357.0</ele><time>2026-03-24T11:33:01.5Z</time></trkpt><trkpt lat="43.1399186" lon="12.3562085"><ele>357.25</ele><time>2026-03-24T11:33:02.501Z</time></trkpt><trkpt lat="43.1398143" lon="12.3563113"><ele>357.5</ele><time>2026-03-24T11:33:03.5Z</time></trkpt><trkpt lat="43.1396845" lon="12.3564058"><ele>357.75</ele><time>2026-03-24T11:33:04.5Z</time></trkpt><trkpt lat="43.1395566" lon="12.3564519"><ele>358.0</ele><time>2026-03-24T11:33:05.501Z</time></trkpt><trkpt lat="43.1394166" lon="12.3564527"><ele>359.3333333333333</ele><time>2026-03-24T11:33:06.5Z</time></trkpt><trkpt lat="43.1392797" lon="12.35643"><ele>360.6666666666667</ele><time>2026-03-24T11:33:07.501Z</time></trkpt><trkpt lat="43.1391693" lon="12.356378"><ele>362.0</ele><time>2026-03-24T11:33:08.5Z</time></trkpt><trkpt lat="43.138986" lon="12.3562715"><ele>362.0</ele><time>2026-03-24T11:33:10.5Z</time></trkpt><trkpt lat="43.1388725" lon="12.3562186"><ele>362.0</ele><time>2026-03-24T11:33:12.5Z</time></trkpt><trkpt lat="43.1388131" lon="12.356162"><ele>362.0</ele><time>2026-03-24T11:33:14.499Z</time></trkpt><trkpt lat="43.1387542" lon="12.3561185"><ele>362.0</ele><time>2026-03-24T11:34:19.501Z</time></trkpt><trkpt lat="43.1386468" lon="12.3561098"><ele>362.0</ele><time>2026-03-24T11:34:21.5Z</time></trkpt><trkpt lat="43.1385686" lon="12.3561081"><ele>362.0</ele><time>2026-03-24T11:34:22.5Z</time></trkpt><trkpt lat="43.1384689" lon="12.3561225"><ele>362.0</ele><time>2026-03-24T11:34:23.501Z</time></trkpt><trkpt lat="43.1383615" lon="12.3561714"><ele>362.0</ele><time>2026-03-24T11:34:24.5Z</time></trkpt><trkpt lat="43.1382426" lon="12.3562476"><ele>362.0</ele><time>2026-03-24T11:34:25.5Z</time></trkpt><trkpt lat="43.1381097" lon="12.3563698"><ele>362.0</ele><time>2026-03-24T11:34:26.5Z</time></trkpt><trkpt lat="43.1379754" lon="12.3565084"><ele>366.0</ele><time>2026-03-24T11:34:27.501Z</time></trkpt><trkpt lat="43.1378487" lon="12.3566188"><ele>370.0</ele><time>2026-03-24T11:34:28.5Z</time></trkpt><trkpt lat="43.1377256" lon="12.3566796"><ele>374.0</ele><time>2026-03-24T11:34:29.501Z</time></trkpt><trkpt lat="43.1375978" lon="12.3567095"><ele>378.0</ele><time>2026-03-24T11:34:30.499Z</time></trkpt><trkpt lat="43.1374645" lon="12.3566863"><ele>385.66666666666663</ele><time>2026-03-24T11:34:31.501Z</time></trkpt><trkpt lat="43.1372294" lon="12.3565515"><ele>393.3333333333333</ele><time>2026-03-24T11:34:33.501Z</time></trkpt><trkpt lat="43.1371446" lon="12.3564147"><ele>401.0</ele><time>2026-03-24T11:34:34.5Z</time></trkpt><trkpt lat="43.137073" lon="12.3562579"><ele>401.25</ele><time>2026-03-24T11:34:35.5Z</time></trkpt><trkpt lat="43.1370073" lon="12.3560925"><ele>401.5</ele><time>2026-03-24T11:34:36.501Z</time></trkpt><trkpt lat="43.1370099" lon="12.3558932"><ele>401.75</ele><time>2026-03-24T11:34:37.502Z</time></trkpt><trkpt lat="43.1370422" lon="12.3556975"><ele>402.0</ele><time>2026-03-24T11:34:38.499Z</time></trkpt><trkpt lat="43.1370902" lon="12.3554898"><ele>399.0</ele><time>2026-03-24T11:34:39.501Z</time></trkpt><trkpt lat="43.1371406" lon="12.3552715"><ele>396.0</ele><time>2026-03-24T11:34:40.5Z</time></trkpt><trkpt lat="43.1371538" lon="12.3550538"><ele>393.0</ele><time>2026-03-24T11:34:41.501Z</time></trkpt><trkpt lat="43.1371434" lon="12.3548563"><ele>390.0</ele><time>2026-03-24T11:34:42.501Z</time></trkpt><trkpt lat="43.1371139" lon="12.3546547"><ele>387.0</ele><time>2026-03-24T11:34:43.5Z</time></trkpt><trkpt lat="43.1370806" lon="12.3544842"><ele>384.0</ele><time>2026-03-24T11:34:44.5Z</time></trkpt><trkpt lat="43.1367833" lon="12.3541916"><ele>384.0</ele><time>2026-03-24T11:34:46.499Z</time></trkpt><trkpt lat="43.1366035" lon="12.3540505"><ele>384.0</ele><time>2026-03-24T11:34:47.501Z</time></trkpt><trkpt lat="43.1364132" lon="12.3538801"><ele>384.0</ele><time>2026-03-24T11:34:48.501Z</time></trkpt><trkpt lat="43.1362101" lon="12.3537209"><ele>388.0</ele><time>2026-03-24T11:34:49.5Z</time></trkpt><trkpt lat="43.135976" lon="12.3535342"><ele>392.0</ele><time>2026-03-24T11:34:50.501Z</time></trkpt><trkpt lat="43.1357476" lon="12.3533489"><ele>394.0</ele><time>2026-03-24T11:34:51.499Z</time></trkpt><trkpt lat="43.1353421" lon="12.3529871"><ele>394.0</ele><time>2026-03-24T11:34:53.501Z</time></trkpt><trkpt lat="43.1349512" lon="12.3526832"><ele>394.0</ele><time>2026-03-24T11:34:55.501Z</time></trkpt><trkpt lat="43.1347539" lon="12.3525778"><ele>395.33333333333337</ele><time>2026-03-24T11:34:56.5Z</time></trkpt><trkpt lat="43.1345912" lon="12.352521"><ele>396.66666666666663</ele><time>2026-03-24T11:34:57.501Z</time></trkpt><trkpt lat="43.134423" lon="12.3524005"><ele>398.0</ele><time>2026-03-24T11:34:58.5Z</time></trkpt><trkpt lat="43.1342704" lon="12.3523312"><ele>398.0</ele><time>2026-03-24T11:34:59.502Z</time></trkpt><trkpt lat="43.134114" lon="12.352286"><ele>398.0</ele><time>2026-03-24T11:35:00.501Z</time></trkpt><trkpt lat="43.13397" lon="12.3522668"><ele>398.0</ele><time>2026-03-24T11:35:01.501Z</time></trkpt><trkpt lat="43.133825" lon="12.352269"><ele>398.0</ele><time>2026-03-24T11:35:02.5Z</time></trkpt><trkpt lat="43.1336908" lon="12.3522744"><ele>398.0</ele><time>2026-03-24T11:35:03.5Z</time></trkpt><trkpt lat="43.1335545" lon="12.3522804"><ele>398.0</ele><time>2026-03-24T11:35:04.5Z</time></trkpt><trkpt lat="43.1334642" lon="12.3524063"><ele>398.0</ele><time>2026-03-24T11:35:05.502Z</time></trkpt><trkpt lat="43.133376" lon="12.3523858"><ele>398.0</ele><time>2026-03-24T11:35:06.501Z</time></trkpt><trkpt lat="43.1333052" lon="12.3523426"><ele>398.0</ele><time>2026-03-24T11:35:07.5Z</time></trkpt><trkpt lat="43.1332384" lon="12.3522904"><ele>398.0</ele><time>2026-03-24T11:35:08.5Z</time></trkpt><trkpt lat="43.1331634" lon="12.3522189"><ele>398.0</ele><time>2026-03-24T11:35:09.5Z</time></trkpt><trkpt lat="43.13315" lon="12.3520395"><ele>398.0</ele><time>2026-03-24T11:35:10.502Z</time></trkpt><trkpt lat="43.1331226" lon="12.3518848"><ele>399.0</ele><time>2026-03-24T11:35:11.501Z</time></trkpt><trkpt lat="43.1330783" lon="12.3517136"><ele>400.0</ele><time>2026-03-24T11:35:12.5Z</time></trkpt><trkpt lat="43.1330477" lon="12.3515489"><ele>401.0</ele><time>2026-03-24T11:35:13.502Z</time></trkpt><trkpt lat="43.1330257" lon="12.3513807"><ele>402.0</ele><time>2026-03-24T11:35:14.501Z</time></trkpt><trkpt lat="43.1329952" lon="12.3512534"><ele>402.0</ele><time>2026-03-24T11:35:15.501Z</time></trkpt><trkpt lat="43.1329591" lon="12.3511456"><ele>402.0</ele><time>2026-03-24T11:35:16.499Z</time></trkpt><trkpt lat="43.1329087" lon="12.3510676"><ele>402.0</ele><time>2026-03-24T11:35:17.5Z</time></trkpt><trkpt lat="43.132831" lon="12.3510264"><ele>402.0</ele><time>2026-03-24T11:35:18.501Z</time></trkpt><trkpt lat="43.1327419" lon="12.3510158"><ele>402.0</ele><time>2026-03-24T11:35:19.501Z</time></trkpt><trkpt lat="43.1326475" lon="12.3510179"><ele>402.0</ele><time>2026-03-24T11:35:20.501Z</time></trkpt><trkpt lat="43.132554" lon="12.3510608"><ele>402.0</ele><time>2026-03-24T11:35:21.502Z</time></trkpt><trkpt lat="43.1324498" lon="12.3510865"><ele>402.0</ele><time>2026-03-24T11:35:22.501Z</time></trkpt><trkpt lat="43.1323503" lon="12.3511204"><ele>402.0</ele><time>2026-03-24T11:35:23.5Z</time></trkpt><trkpt lat="43.1322486" lon="12.3511002"><ele>402.0</ele><time>2026-03-24T11:35:24.501Z</time></trkpt><trkpt lat="43.1321418" lon="12.3511177"><ele>402.0</ele><time>2026-03-24T11:35:25.5Z</time></trkpt><trkpt lat="43.1320259" lon="12.3510525"><ele>399.5</ele><time>2026-03-24T11:35:26.5Z</time></trkpt><trkpt lat="43.1318946" lon="12.3510192"><ele>397.0</ele><time>2026-03-24T11:35:27.5Z</time></trkpt><trkpt lat="43.1317794" lon="12.3509672"><ele>394.5</ele><time>2026-03-24T11:35:28.5Z</time></trkpt><trkpt lat="43.1316936" lon="12.3509092"><ele>392.0</ele><time>2026-03-24T11:35:29.502Z</time></trkpt><trkpt lat="43.1316162" lon="12.3508188"><ele>392.6</ele><time>2026-03-24T11:35:30.5Z</time></trkpt><trkpt lat="43.1315396" lon="12.3507128"><ele>393.20000000000005</ele><time>2026-03-24T11:35:31.5Z</time></trkpt><trkpt lat="43.1314773" lon="12.3506081"><ele>393.8</ele><time>2026-03-24T11:35:32.5Z</time></trkpt><trkpt lat="43.1314113" lon="12.3504879"><ele>394.4</ele><time>2026-03-24T11:35:33.5Z</time></trkpt><trkpt lat="43.1313209" lon="12.3503689"><ele>395.0</ele><time>2026-03-24T11:35:34.501Z</time></trkpt><trkpt lat="43.1312488" lon="12.3502459"><ele>395.0</ele><time>2026-03-24T11:35:35.501Z</time></trkpt><trkpt lat="43.1310816" lon="12.350245"><ele>395.0</ele><time>2026-03-24T11:35:36.501Z</time></trkpt><trkpt lat="43.1309709" lon="12.3501644"><ele>395.0</ele><time>2026-03-24T11:35:37.5Z</time></trkpt><trkpt lat="43.1308493" lon="12.3501019"><ele>395.0</ele><time>2026-03-24T11:35:38.5Z</time></trkpt><trkpt lat="43.1307074" lon="12.349971"><ele>393.0</ele><time>2026-03-24T11:35:39.5Z</time></trkpt><trkpt lat="43.1305312" lon="12.3498173"><ele>391.0</ele><time>2026-03-24T11:35:40.501Z</time></trkpt><trkpt lat="43.1303958" lon="12.3497123"><ele>389.0</ele><time>2026-03-24T11:35:41.501Z</time></trkpt><trkpt lat="43.1303652" lon="12.3495212"><ele>389.0</ele><time>2026-03-24T11:35:44.5Z</time></trkpt><trkpt lat="43.1303227" lon="12.3493982"><ele>389.0</ele><time>2026-03-24T11:35:45.501Z</time></trkpt><trkpt lat="43.1302656" lon="12.3492258"><ele>389.0</ele><time>2026-03-24T11:35:46.5Z</time></trkpt><trkpt lat="43.1302131" lon="12.3490502"><ele>389.0</ele><time>2026-03-24T11:35:47.501Z</time></trkpt><trkpt lat="43.1301869" lon="12.3488863"><ele>389.5</ele><time>2026-03-24T11:35:48.501Z</time></trkpt><trkpt lat="43.1301515" lon="12.3487328"><ele>390.0</ele><time>2026-03-24T11:35:49.5Z</time></trkpt><trkpt lat="43.1300027" lon="12.3485626"><ele>390.5</ele><time>2026-03-24T11:35:50.5Z</time></trkpt><trkpt lat="43.1299576" lon="12.348421"><ele>391.0</ele><time>2026-03-24T11:35:51.502Z</time></trkpt><trkpt lat="43.1299374" lon="12.3482703"><ele>391.0</ele><time>2026-03-24T11:35:52.501Z</time></trkpt><trkpt lat="43.1299116" lon="12.3481235"><ele>391.0</ele><time>2026-03-24T11:35:53.5Z</time></trkpt><trkpt lat="43.1299267" lon="12.3480226"><ele>391.0</ele><time>2026-03-24T11:35:54.502Z</time></trkpt><trkpt lat="43.1299256" lon="12.3478741"><ele>391.0</ele><time>2026-03-24T11:35:55.501Z</time></trkpt><trkpt lat="43.1299425" lon="12.3476964"><ele>391.0</ele><time>2026-03-24T11:35:56.501Z</time></trkpt><trkpt lat="43.129957" lon="12.3475165"><ele>390.5</ele><time>2026-03-24T11:35:57.5Z</time></trkpt><trkpt lat="43.1299641" lon="12.347334"><ele>390.0</ele><time>2026-03-24T11:35:58.501Z</time></trkpt><trkpt lat="43.1299645" lon="12.3471582"><ele>389.5</ele><time>2026-03-24T11:35:59.501Z</time></trkpt><trkpt lat="43.1299604" lon="12.3469709"><ele>389.0</ele><time>2026-03-24T11:36:00.501Z</time></trkpt><trkpt lat="43.1299749" lon="12.3467932"><ele>388.75</ele><time>2026-03-24T11:36:01.501Z</time></trkpt><trkpt lat="43.1299649" lon="12.3466178"><ele>388.5</ele><time>2026-03-24T11:36:02.502Z</time></trkpt><trkpt lat="43.1299456" lon="12.3464771"><ele>388.25</ele><time>2026-03-24T11:36:03.501Z</time></trkpt><trkpt lat="43.1299002" lon="12.3463364"><ele>388.0</ele><time>2026-03-24T11:36:04.5Z</time></trkpt><trkpt lat="43.1298152" lon="12.3462483"><ele>383.25</ele><time>2026-03-24T11:36:05.502Z</time></trkpt><trkpt lat="43.1297277" lon="12.3461669"><ele>378.5</ele><time>2026-03-24T11:36:06.501Z</time></trkpt><trkpt lat="43.1295901" lon="12.3460401"><ele>373.75</ele><time>2026-03-24T11:36:07.501Z</time></trkpt><trkpt lat="43.1294666" lon="12.3459331"><ele>369.0</ele><time>2026-03-24T11:36:08.5Z</time></trkpt><trkpt lat="43.1293423" lon="12.3458514"><ele>369.0</ele><time>2026-03-24T11:36:09.501Z</time></trkpt><trkpt lat="43.1292233" lon="12.3457377"><ele>369.0</ele><time>2026-03-24T11:36:10.501Z</time></trkpt><trkpt lat="43.129119" lon="12.3456301"><ele>369.0</ele><time>2026-03-24T11:36:11.502Z</time></trkpt><trkpt lat="43.1290547" lon="12.3454892"><ele>369.0</ele><time>2026-03-24T11:36:12.502Z</time></trkpt><trkpt lat="43.1289404" lon="12.3453342"><ele>369.25</ele><time>2026-03-24T11:36:13.501Z</time></trkpt><trkpt lat="43.1288449" lon="12.3451825"><ele>369.5</ele><time>2026-03-24T11:36:14.5Z</time></trkpt><trkpt lat="43.1287153" lon="12.3450762"><ele>369.75</ele><time>2026-03-24T11:36:15.501Z</time></trkpt><trkpt lat="43.1286048" lon="12.3449658"><ele>370.0</ele><time>2026-03-24T11:36:16.501Z</time></trkpt><trkpt lat="43.1284682" lon="12.3449369"><ele>370.0</ele><time>2026-03-24T11:36:17.5Z</time></trkpt><trkpt lat="43.1282698" lon="12.3450005"><ele>370.0</ele><time>2026-03-24T11:36:18.5Z</time></trkpt><trkpt lat="43.1281269" lon="12.3449723"><ele>370.0</ele><time>2026-03-24T11:36:19.501Z</time></trkpt><trkpt lat="43.1279768" lon="12.3449515"><ele>366.66666666666663</ele><time>2026-03-24T11:36:20.501Z</time></trkpt><trkpt lat="43.1278324" lon="12.3449297"><ele>363.3333333333333</ele><time>2026-03-24T11:36:21.502Z</time></trkpt><trkpt lat="43.1276846" lon="12.3449089"><ele>360.0</ele><time>2026-03-24T11:36:22.501Z</time></trkpt><trkpt lat="43.1275347" lon="12.3448399"><ele>360.0</ele><time>2026-03-24T11:36:23.5Z</time></trkpt><trkpt lat="43.1273974" lon="12.3448033"><ele>360.0</ele><time>2026-03-24T11:36:24.501Z</time></trkpt><trkpt lat="43.1272691" lon="12.34476"><ele>360.0</ele><time>2026-03-24T11:36:25.503Z</time></trkpt><trkpt lat="43.1271622" lon="12.3447108"><ele>360.0</ele><time>2026-03-24T11:36:26.501Z</time></trkpt><trkpt lat="43.1270778" lon="12.3447103"><ele>357.8333333333333</ele><time>2026-03-24T11:36:27.5Z</time></trkpt><trkpt lat="43.1269922" lon="12.3447214"><ele>355.6666666666667</ele><time>2026-03-24T11:36:28.501Z</time></trkpt><trkpt lat="43.1269636" lon="12.3448028"><ele>353.5</ele><time>2026-03-24T11:36:29.5Z</time></trkpt><trkpt lat="43.1269336" lon="12.3448962"><ele>351.33333333333337</ele><time>2026-03-24T11:36:30.5Z</time></trkpt><trkpt lat="43.1269128" lon="12.3450351"><ele>349.1666666666667</ele><time>2026-03-24T11:36:31.501Z</time></trkpt><trkpt lat="43.1268865" lon="12.3451917"><ele>347.0</ele><time>2026-03-24T11:36:32.502Z</time></trkpt><trkpt lat="43.1268773" lon="12.3453885"><ele>348.0</ele><time>2026-03-24T11:36:33.501Z</time></trkpt><trkpt lat="43.1268348" lon="12.3456157"><ele>349.0</ele><time>2026-03-24T11:36:34.501Z</time></trkpt><trkpt lat="43.126779" lon="12.3458356"><ele>350.0</ele><time>2026-03-24T11:36:35.5Z</time></trkpt><trkpt lat="43.1267317" lon="12.3460701"><ele>350.0</ele><time>2026-03-24T11:36:36.5Z</time></trkpt><trkpt lat="43.1266842" lon="12.3463152"><ele>350.0</ele><time>2026-03-24T11:36:37.501Z</time></trkpt><trkpt lat="43.1266563" lon="12.3465504"><ele>350.0</ele><time>2026-03-24T11:36:38.501Z</time></trkpt><trkpt lat="43.1266383" lon="12.3467827"><ele>350.6666666666667</ele><time>2026-03-24T11:36:39.5Z</time></trkpt><trkpt lat="43.1266188" lon="12.3470034"><ele>351.3333333333333</ele><time>2026-03-24T11:36:40.501Z</time></trkpt><trkpt lat="43.126602" lon="12.3472114"><ele>352.0</ele><time>2026-03-24T11:36:41.5Z</time></trkpt><trkpt lat="43.1265837" lon="12.3474095"><ele>348.75</ele><time>2026-03-24T11:36:42.502Z</time></trkpt><trkpt lat="43.1265578" lon="12.3476065"><ele>345.5</ele><time>2026-03-24T11:36:43.5Z</time></trkpt><trkpt lat="43.1265266" lon="12.3477984"><ele>342.25</ele><time>2026-03-24T11:36:44.502Z</time></trkpt><trkpt lat="43.1264778" lon="12.3479824"><ele>339.0</ele><time>2026-03-24T11:36:45.501Z</time></trkpt><trkpt lat="43.1264166" lon="12.348158"><ele>338.79999999999995</ele><time>2026-03-24T11:36:46.501Z</time></trkpt><trkpt lat="43.126345" lon="12.3483194"><ele>338.59999999999997</ele><time>2026-03-24T11:36:47.501Z</time></trkpt><trkpt lat="43.1262701" lon="12.348457"><ele>338.4</ele><time>2026-03-24T11:36:48.5Z</time></trkpt><trkpt lat="43.126205" lon="12.3485742"><ele>338.2</ele><time>2026-03-24T11:36:49.501Z</time></trkpt><trkpt lat="43.1261593" lon="12.3486618"><ele>338.0</ele><time>2026-03-24T11:36:50.5Z</time></trkpt><trkpt lat="43.1261425" lon="12.3487862"><ele>338.0</ele><time>2026-03-24T11:36:52.5Z</time></trkpt><trkpt lat="43.1262197" lon="12.3488661"><ele>338.0</ele><time>2026-03-24T11:36:54.502Z</time></trkpt><trkpt lat="43.1263026" lon="12.3489318"><ele>338.0</ele><time>2026-03-24T11:36:55.502Z</time></trkpt><trkpt lat="43.1263889" lon="12.3489942"><ele>338.0</ele><time>2026-03-24T11:36:56.502Z</time></trkpt><trkpt lat="43.1264793" lon="12.3490754"><ele>338.0</ele><time>2026-03-24T11:36:57.501Z</time></trkpt><trkpt lat="43.1265718" lon="12.3491719"><ele>340.75</ele><time>2026-03-24T11:36:58.5Z</time></trkpt><trkpt lat="43.1266876" lon="12.3492769"><ele>343.5</ele><time>2026-03-24T11:36:59.501Z</time></trkpt><trkpt lat="43.126811" lon="12.3493766"><ele>346.25</ele><time>2026-03-24T11:37:00.502Z</time></trkpt><trkpt lat="43.126941" lon="12.3494734"><ele>349.0</ele><time>2026-03-24T11:37:01.501Z</time></trkpt><trkpt lat="43.1270593" lon="12.3495549"><ele>349.0</ele><time>2026-03-24T11:37:02.5Z</time></trkpt><trkpt lat="43.1271715" lon="12.3496324"><ele>349.0</ele><time>2026-03-24T11:37:03.501Z</time></trkpt><trkpt lat="43.127267" lon="12.3497144"><ele>349.0</ele><time>2026-03-24T11:37:04.502Z</time></trkpt><trkpt lat="43.1273576" lon="12.3497847"><ele>349.0</ele><time>2026-03-24T11:37:05.501Z</time></trkpt><trkpt lat="43.1274229" lon="12.3498598"><ele>349.0</ele><time>2026-03-24T11:37:06.502Z</time></trkpt><trkpt lat="43.1274392" lon="12.3499559"><ele>348.79999999999995</ele><time>2026-03-24T11:37:07.502Z</time></trkpt><trkpt lat="43.1274258" lon="12.3500672"><ele>348.59999999999997</ele><time>2026-03-24T11:37:08.5Z</time></trkpt><trkpt lat="43.1273826" lon="12.3501833"><ele>348.4</ele><time>2026-03-24T11:37:09.502Z</time></trkpt><trkpt lat="43.127321" lon="12.3503348"><ele>348.2</ele><time>2026-03-24T11:37:10.501Z</time></trkpt><trkpt lat="43.1272476" lon="12.350489"><ele>348.0</ele><time>2026-03-24T11:37:11.501Z</time></trkpt><trkpt lat="43.1271772" lon="12.3506492"><ele>348.0</ele><time>2026-03-24T11:37:12.501Z</time></trkpt><trkpt lat="43.1271229" lon="12.3507964"><ele>348.0</ele><time>2026-03-24T11:37:13.502Z</time></trkpt><trkpt lat="43.1270651" lon="12.3509282"><ele>348.0</ele><time>2026-03-24T11:37:14.501Z</time></trkpt><trkpt lat="43.1270111" lon="12.3510669"><ele>348.0</ele><time>2026-03-24T11:37:15.501Z</time></trkpt><trkpt lat="43.1268926" lon="12.3510426"><ele>348.0</ele><time>2026-03-24T11:37:16.5Z</time></trkpt><trkpt lat="43.1267875" lon="12.3510538"><ele>348.0</ele><time>2026-03-24T11:37:17.5Z</time></trkpt><trkpt lat="43.1266735" lon="12.3510269"><ele>348.0</ele><time>2026-03-24T11:37:18.502Z</time></trkpt><trkpt lat="43.1265378" lon="12.351005"><ele>348.0</ele><time>2026-03-24T11:37:19.501Z</time></trkpt><trkpt lat="43.1264033" lon="12.3509935"><ele>349.5</ele><time>2026-03-24T11:37:20.502Z</time></trkpt><trkpt lat="43.1262799" lon="12.3509467"><ele>351.0</ele><time>2026-03-24T11:37:21.501Z</time></trkpt><trkpt lat="43.126156" lon="12.3508974"><ele>352.5</ele><time>2026-03-24T11:37:22.5Z</time></trkpt><trkpt lat="43.126022" lon="12.3508635"><ele>354.0</ele><time>2026-03-24T11:37:23.502Z</time></trkpt><trkpt lat="43.1258987" lon="12.3508408"><ele>354.0</ele><time>2026-03-24T11:37:24.501Z</time></trkpt><trkpt lat="43.1257834" lon="12.3508359"><ele>354.0</ele><time>2026-03-24T11:37:25.502Z</time></trkpt><trkpt lat="43.1256698" lon="12.3508446"><ele>354.0</ele><time>2026-03-24T11:37:26.501Z</time></trkpt><trkpt lat="43.1255597" lon="12.3508565"><ele>354.0</ele><time>2026-03-24T11:37:27.502Z</time></trkpt><trkpt lat="43.125456" lon="12.3508702"><ele>354.0</ele><time>2026-03-24T11:37:28.501Z</time></trkpt><trkpt lat="43.1253537" lon="12.3508877"><ele>353.8333333333333</ele><time>2026-03-24T11:37:29.502Z</time></trkpt><trkpt lat="43.1252591" lon="12.3509123"><ele>353.6666666666667</ele><time>2026-03-24T11:37:30.5Z</time></trkpt><trkpt lat="43.1251764" lon="12.350919"><ele>353.5</ele><time>2026-03-24T11:37:31.501Z</time></trkpt><trkpt lat="43.1250977" lon="12.350939"><ele>353.33333333333337</ele><time>2026-03-24T11:37:32.501Z</time></trkpt><trkpt lat="43.1249912" lon="12.3509724"><ele>353.1666666666667</ele><time>2026-03-24T11:37:34.501Z</time></trkpt><trkpt lat="43.1249236" lon="12.3510317"><ele>353.0</ele><time>2026-03-24T11:37:53.503Z</time></trkpt><trkpt lat="43.1248809" lon="12.3511271"><ele>352.0</ele><time>2026-03-24T11:37:56.503Z</time></trkpt><trkpt lat="43.1248624" lon="12.3512353"><ele>351.0</ele><time>2026-03-24T11:37:58.502Z</time></trkpt><trkpt lat="43.1248376" lon="12.3513779"><ele>350.0</ele><time>2026-03-24T11:38:00.501Z</time></trkpt><trkpt lat="43.124815" lon="12.3515046"><ele>349.0</ele><time>2026-03-24T11:38:02.502Z</time></trkpt><trkpt lat="43.1248264" lon="12.3516509"><ele>348.0</ele><time>2026-03-24T11:38:04.502Z</time></trkpt><trkpt lat="43.1248398" lon="12.3517362"><ele>348.0</ele><time>2026-03-24T11:38:05.502Z</time></trkpt><trkpt lat="43.1248668" lon="12.3518269"><ele>348.0</ele><time>2026-03-24T11:38:06.5Z</time></trkpt><trkpt lat="43.1249472" lon="12.3519513"><ele>361.0</ele><time>2026-03-24T11:38:08.502Z</time></trkpt><trkpt lat="43.1250197" lon="12.351979"><ele>361.0</ele><time>2026-03-24T11:38:10.501Z</time></trkpt><trkpt lat="43.125092" lon="12.3519375"><ele>361.0</ele><time>2026-03-24T11:38:12.502Z</time></trkpt><trkpt lat="43.1251543" lon="12.3518925"><ele>361.0</ele><time>2026-03-24T11:38:18.502Z</time></trkpt></trkseg></trk></gpx>